<?xml version="1.0" encoding="UTF-8"?>
<gpx version="1.1" creator="https://www.www-youtrack-es.amenigma.com" xsi:schemaLocation="http://www.topografix.com/GPX/1/1 http://www.topografix.com/GPX/1/1/gpx.xsd http://www.garmin.com/xmlschemas/GpxExtensions/v3 http://www.garmin.com/xmlschemas/GpxExtensionsv3.xsd http://www.garmin.com/xmlschemas/TrackPointExtension/v1 http://www.garmin.com/xmlschemas/TrackPointExtensionv1.xsd" xmlns:gpxtpx="http://www.garmin.com/xmlschemas/TrackPointExtension/v1" xmlns:gpxx="http://www.garmin.com/xmlschemas/GpxExtensions/v3" xmlns:xsi="http://www.w3.org/2001/XMLSchema-instance">
  <metadata>
    <link href="https://www.www-youtrack-es.amenigma.com">
      <text>YouTrack.es</text>
    </link>
    <time>2026-09-01T02:43:14Z</time>
  </metadata>
  <trk>
    <src>https://www.www-youtrack-es.amenigma.com</src>
    <link href="https://www.www-youtrack-es.amenigma.com/ruta/29677-pastriz-toboganes-sendas-ikea">
      <text>YouTrack.es</text>
    </link>
    <trkseg>
      <trkpt lat="41.6159150" lon="-0.8702200">
        <ele>244.5</ele>
        <time>2020-12-31T13:12:39Z</time>
      </trkpt>
      <trkpt lat="41.6159160" lon="-0.8702170">
        <ele>244.5</ele>
        <time>2020-12-31T13:12:41Z</time>
      </trkpt>
      <trkpt lat="41.6159130" lon="-0.8702270">
        <ele>244.5</ele>
        <time>2020-12-31T13:12:43Z</time>
      </trkpt>
      <trkpt lat="41.6159210" lon="-0.8702000">
        <ele>244.4</ele>
        <time>2020-12-31T13:12:45Z</time>
      </trkpt>
      <trkpt lat="41.6159190" lon="-0.8701970">
        <ele>244.4</ele>
        <time>2020-12-31T13:12:46Z</time>
      </trkpt>
      <trkpt lat="41.6159160" lon="-0.8702090">
        <ele>244.4</ele>
        <time>2020-12-31T13:12:48Z</time>
      </trkpt>
      <trkpt lat="41.6159150" lon="-0.8702190">
        <ele>244.4</ele>
        <time>2020-12-31T13:12:50Z</time>
      </trkpt>
      <trkpt lat="41.6159080" lon="-0.8702200">
        <ele>244.4</ele>
        <time>2020-12-31T13:12:52Z</time>
      </trkpt>
      <trkpt lat="41.6159040" lon="-0.8702210">
        <ele>244.4</ele>
        <time>2020-12-31T13:12:53Z</time>
      </trkpt>
      <trkpt lat="41.6159020" lon="-0.8702210">
        <ele>244.4</ele>
        <time>2020-12-31T13:12:55Z</time>
      </trkpt>
      <trkpt lat="41.6159010" lon="-0.8702230">
        <ele>244.4</ele>
        <time>2020-12-31T13:12:56Z</time>
      </trkpt>
      <trkpt lat="41.6159100" lon="-0.8701980">
        <ele>244.4</ele>
        <time>2020-12-31T13:13:10Z</time>
      </trkpt>
      <trkpt lat="41.6159360" lon="-0.8701830">
        <ele>244.3</ele>
        <time>2020-12-31T13:13:11Z</time>
      </trkpt>
      <trkpt lat="41.6159660" lon="-0.8701440">
        <ele>244.3</ele>
        <time>2020-12-31T13:13:13Z</time>
      </trkpt>
      <trkpt lat="41.6159670" lon="-0.8700970">
        <ele>244.2</ele>
        <time>2020-12-31T13:13:14Z</time>
      </trkpt>
      <trkpt lat="41.6159630" lon="-0.8700640">
        <ele>244.2</ele>
        <time>2020-12-31T13:13:15Z</time>
      </trkpt>
      <trkpt lat="41.6159450" lon="-0.8700110">
        <ele>244.1</ele>
        <time>2020-12-31T13:13:17Z</time>
      </trkpt>
      <trkpt lat="41.6159570" lon="-0.8699770">
        <ele>244.1</ele>
        <time>2020-12-31T13:13:18Z</time>
      </trkpt>
      <trkpt lat="41.6159980" lon="-0.8699250">
        <ele>244.0</ele>
        <time>2020-12-31T13:13:20Z</time>
      </trkpt>
      <trkpt lat="41.6160460" lon="-0.8698880">
        <ele>243.9</ele>
        <time>2020-12-31T13:13:22Z</time>
      </trkpt>
      <trkpt lat="41.6160890" lon="-0.8698490">
        <ele>243.8</ele>
        <time>2020-12-31T13:13:24Z</time>
      </trkpt>
      <trkpt lat="41.6161160" lon="-0.8698410">
        <ele>243.7</ele>
        <time>2020-12-31T13:13:25Z</time>
      </trkpt>
      <trkpt lat="41.6161510" lon="-0.8698470">
        <ele>243.6</ele>
        <time>2020-12-31T13:13:26Z</time>
      </trkpt>
      <trkpt lat="41.6162260" lon="-0.8698010">
        <ele>243.4</ele>
        <time>2020-12-31T13:13:28Z</time>
      </trkpt>
      <trkpt lat="41.6162640" lon="-0.8697520">
        <ele>243.3</ele>
        <time>2020-12-31T13:13:29Z</time>
      </trkpt>
      <trkpt lat="41.6163060" lon="-0.8697090">
        <ele>243.2</ele>
        <time>2020-12-31T13:13:30Z</time>
      </trkpt>
      <trkpt lat="41.6163950" lon="-0.8696200">
        <ele>242.9</ele>
        <time>2020-12-31T13:13:32Z</time>
      </trkpt>
      <trkpt lat="41.6164850" lon="-0.8695290">
        <ele>242.6</ele>
        <time>2020-12-31T13:13:34Z</time>
      </trkpt>
      <trkpt lat="41.6165320" lon="-0.8694910">
        <ele>242.5</ele>
        <time>2020-12-31T13:13:35Z</time>
      </trkpt>
      <trkpt lat="41.6166180" lon="-0.8693990">
        <ele>242.2</ele>
        <time>2020-12-31T13:13:37Z</time>
      </trkpt>
      <trkpt lat="41.6166600" lon="-0.8693480">
        <ele>242.1</ele>
        <time>2020-12-31T13:13:38Z</time>
      </trkpt>
      <trkpt lat="41.6167010" lon="-0.8692940">
        <ele>242.0</ele>
        <time>2020-12-31T13:13:39Z</time>
      </trkpt>
      <trkpt lat="41.6167940" lon="-0.8692240">
        <ele>241.8</ele>
        <time>2020-12-31T13:13:41Z</time>
      </trkpt>
      <trkpt lat="41.6168760" lon="-0.8691680">
        <ele>241.4</ele>
        <time>2020-12-31T13:13:43Z</time>
      </trkpt>
      <trkpt lat="41.6169270" lon="-0.8691400">
        <ele>241.0</ele>
        <time>2020-12-31T13:13:45Z</time>
      </trkpt>
      <trkpt lat="41.6169440" lon="-0.8691350">
        <ele>240.7</ele>
        <time>2020-12-31T13:13:47Z</time>
      </trkpt>
      <trkpt lat="41.6169490" lon="-0.8691290">
        <ele>240.4</ele>
        <time>2020-12-31T13:13:48Z</time>
      </trkpt>
      <trkpt lat="41.6169510" lon="-0.8691220">
        <ele>240.1</ele>
        <time>2020-12-31T13:13:50Z</time>
      </trkpt>
      <trkpt lat="41.6169500" lon="-0.8691220">
        <ele>239.9</ele>
        <time>2020-12-31T13:13:51Z</time>
      </trkpt>
      <trkpt lat="41.6169490" lon="-0.8691250">
        <ele>239.6</ele>
        <time>2020-12-31T13:13:52Z</time>
      </trkpt>
      <trkpt lat="41.6169480" lon="-0.8691260">
        <ele>239.3</ele>
        <time>2020-12-31T13:13:54Z</time>
      </trkpt>
      <trkpt lat="41.6169480" lon="-0.8691260">
        <ele>239.0</ele>
        <time>2020-12-31T13:13:55Z</time>
      </trkpt>
      <trkpt lat="41.6169470" lon="-0.8691270">
        <ele>238.7</ele>
        <time>2020-12-31T13:13:56Z</time>
      </trkpt>
      <trkpt lat="41.6169390" lon="-0.8691290">
        <ele>238.4</ele>
        <time>2020-12-31T13:13:58Z</time>
      </trkpt>
      <trkpt lat="41.6169440" lon="-0.8691020">
        <ele>238.1</ele>
        <time>2020-12-31T13:13:59Z</time>
      </trkpt>
      <trkpt lat="41.6169820" lon="-0.8690280">
        <ele>237.7</ele>
        <time>2020-12-31T13:14:01Z</time>
      </trkpt>
      <trkpt lat="41.6170290" lon="-0.8689580">
        <ele>237.4</ele>
        <time>2020-12-31T13:14:02Z</time>
      </trkpt>
      <trkpt lat="41.6170570" lon="-0.8688890">
        <ele>237.0</ele>
        <time>2020-12-31T13:14:04Z</time>
      </trkpt>
      <trkpt lat="41.6171030" lon="-0.8688090">
        <ele>236.7</ele>
        <time>2020-12-31T13:14:05Z</time>
      </trkpt>
      <trkpt lat="41.6171430" lon="-0.8687780">
        <ele>236.5</ele>
        <time>2020-12-31T13:14:06Z</time>
      </trkpt>
      <trkpt lat="41.6171940" lon="-0.8687080">
        <ele>236.2</ele>
        <time>2020-12-31T13:14:08Z</time>
      </trkpt>
      <trkpt lat="41.6172330" lon="-0.8686810">
        <ele>235.8</ele>
        <time>2020-12-31T13:14:09Z</time>
      </trkpt>
      <trkpt lat="41.6172700" lon="-0.8686880">
        <ele>235.8</ele>
        <time>2020-12-31T13:14:10Z</time>
      </trkpt>
      <trkpt lat="41.6172820" lon="-0.8686210">
        <ele>235.8</ele>
        <time>2020-12-31T13:14:12Z</time>
      </trkpt>
      <trkpt lat="41.6172640" lon="-0.8685750">
        <ele>235.8</ele>
        <time>2020-12-31T13:14:13Z</time>
      </trkpt>
      <trkpt lat="41.6172380" lon="-0.8684860">
        <ele>235.9</ele>
        <time>2020-12-31T13:14:15Z</time>
      </trkpt>
      <trkpt lat="41.6172290" lon="-0.8683960">
        <ele>235.9</ele>
        <time>2020-12-31T13:14:17Z</time>
      </trkpt>
      <trkpt lat="41.6172030" lon="-0.8682980">
        <ele>235.9</ele>
        <time>2020-12-31T13:14:18Z</time>
      </trkpt>
      <trkpt lat="41.6171880" lon="-0.8682400">
        <ele>235.9</ele>
        <time>2020-12-31T13:14:19Z</time>
      </trkpt>
      <trkpt lat="41.6171880" lon="-0.8681070">
        <ele>235.9</ele>
        <time>2020-12-31T13:14:21Z</time>
      </trkpt>
      <trkpt lat="41.6171800" lon="-0.8679590">
        <ele>235.8</ele>
        <time>2020-12-31T13:14:23Z</time>
      </trkpt>
      <trkpt lat="41.6171720" lon="-0.8678980">
        <ele>235.8</ele>
        <time>2020-12-31T13:14:24Z</time>
      </trkpt>
      <trkpt lat="41.6171340" lon="-0.8677650">
        <ele>235.7</ele>
        <time>2020-12-31T13:14:26Z</time>
      </trkpt>
      <trkpt lat="41.6171170" lon="-0.8676750">
        <ele>235.6</ele>
        <time>2020-12-31T13:14:27Z</time>
      </trkpt>
      <trkpt lat="41.6171020" lon="-0.8675860">
        <ele>235.5</ele>
        <time>2020-12-31T13:14:28Z</time>
      </trkpt>
      <trkpt lat="41.6170890" lon="-0.8675000">
        <ele>235.5</ele>
        <time>2020-12-31T13:14:29Z</time>
      </trkpt>
      <trkpt lat="41.6170670" lon="-0.8673410">
        <ele>235.3</ele>
        <time>2020-12-31T13:14:31Z</time>
      </trkpt>
      <trkpt lat="41.6170320" lon="-0.8672150">
        <ele>235.2</ele>
        <time>2020-12-31T13:14:33Z</time>
      </trkpt>
      <trkpt lat="41.6170140" lon="-0.8671440">
        <ele>235.1</ele>
        <time>2020-12-31T13:14:34Z</time>
      </trkpt>
      <trkpt lat="41.6169940" lon="-0.8670710">
        <ele>235.0</ele>
        <time>2020-12-31T13:14:35Z</time>
      </trkpt>
      <trkpt lat="41.6169540" lon="-0.8669190">
        <ele>234.9</ele>
        <time>2020-12-31T13:14:37Z</time>
      </trkpt>
      <trkpt lat="41.6169130" lon="-0.8667420">
        <ele>234.7</ele>
        <time>2020-12-31T13:14:39Z</time>
      </trkpt>
      <trkpt lat="41.6168850" lon="-0.8666640">
        <ele>234.7</ele>
        <time>2020-12-31T13:14:40Z</time>
      </trkpt>
      <trkpt lat="41.6168620" lon="-0.8664970">
        <ele>234.7</ele>
        <time>2020-12-31T13:14:42Z</time>
      </trkpt>
      <trkpt lat="41.6168500" lon="-0.8663320">
        <ele>234.7</ele>
        <time>2020-12-31T13:14:44Z</time>
      </trkpt>
      <trkpt lat="41.6168350" lon="-0.8661750">
        <ele>234.9</ele>
        <time>2020-12-31T13:14:46Z</time>
      </trkpt>
      <trkpt lat="41.6168330" lon="-0.8660990">
        <ele>235.0</ele>
        <time>2020-12-31T13:14:47Z</time>
      </trkpt>
      <trkpt lat="41.6168350" lon="-0.8659610">
        <ele>235.3</ele>
        <time>2020-12-31T13:14:49Z</time>
      </trkpt>
      <trkpt lat="41.6168350" lon="-0.8658960">
        <ele>235.3</ele>
        <time>2020-12-31T13:14:50Z</time>
      </trkpt>
      <trkpt lat="41.6168320" lon="-0.8658310">
        <ele>235.4</ele>
        <time>2020-12-31T13:14:51Z</time>
      </trkpt>
      <trkpt lat="41.6168200" lon="-0.8657020">
        <ele>235.5</ele>
        <time>2020-12-31T13:14:53Z</time>
      </trkpt>
      <trkpt lat="41.6168140" lon="-0.8656360">
        <ele>235.6</ele>
        <time>2020-12-31T13:14:54Z</time>
      </trkpt>
      <trkpt lat="41.6168030" lon="-0.8654870">
        <ele>235.6</ele>
        <time>2020-12-31T13:14:56Z</time>
      </trkpt>
      <trkpt lat="41.6167860" lon="-0.8653410">
        <ele>235.5</ele>
        <time>2020-12-31T13:14:58Z</time>
      </trkpt>
      <trkpt lat="41.6167780" lon="-0.8651950">
        <ele>235.5</ele>
        <time>2020-12-31T13:15:00Z</time>
      </trkpt>
      <trkpt lat="41.6167740" lon="-0.8651220">
        <ele>235.4</ele>
        <time>2020-12-31T13:15:01Z</time>
      </trkpt>
      <trkpt lat="41.6167760" lon="-0.8650500">
        <ele>235.4</ele>
        <time>2020-12-31T13:15:02Z</time>
      </trkpt>
      <trkpt lat="41.6167800" lon="-0.8649010">
        <ele>235.4</ele>
        <time>2020-12-31T13:15:04Z</time>
      </trkpt>
      <trkpt lat="41.6167780" lon="-0.8648250">
        <ele>235.3</ele>
        <time>2020-12-31T13:15:05Z</time>
      </trkpt>
      <trkpt lat="41.6167600" lon="-0.8646770">
        <ele>235.3</ele>
        <time>2020-12-31T13:15:07Z</time>
      </trkpt>
      <trkpt lat="41.6167450" lon="-0.8646050">
        <ele>235.3</ele>
        <time>2020-12-31T13:15:08Z</time>
      </trkpt>
      <trkpt lat="41.6167120" lon="-0.8644630">
        <ele>235.3</ele>
        <time>2020-12-31T13:15:10Z</time>
      </trkpt>
      <trkpt lat="41.6166620" lon="-0.8643260">
        <ele>235.3</ele>
        <time>2020-12-31T13:15:12Z</time>
      </trkpt>
      <trkpt lat="41.6166500" lon="-0.8641940">
        <ele>235.3</ele>
        <time>2020-12-31T13:15:14Z</time>
      </trkpt>
      <trkpt lat="41.6166850" lon="-0.8641040">
        <ele>235.3</ele>
        <time>2020-12-31T13:15:16Z</time>
      </trkpt>
      <trkpt lat="41.6166820" lon="-0.8640340">
        <ele>235.3</ele>
        <time>2020-12-31T13:15:17Z</time>
      </trkpt>
      <trkpt lat="41.6166690" lon="-0.8639000">
        <ele>235.2</ele>
        <time>2020-12-31T13:15:19Z</time>
      </trkpt>
      <trkpt lat="41.6166500" lon="-0.8637630">
        <ele>235.1</ele>
        <time>2020-12-31T13:15:21Z</time>
      </trkpt>
      <trkpt lat="41.6166400" lon="-0.8636960">
        <ele>235.1</ele>
        <time>2020-12-31T13:15:22Z</time>
      </trkpt>
      <trkpt lat="41.6166310" lon="-0.8636290">
        <ele>235.1</ele>
        <time>2020-12-31T13:15:23Z</time>
      </trkpt>
      <trkpt lat="41.6166200" lon="-0.8634910">
        <ele>235.1</ele>
        <time>2020-12-31T13:15:25Z</time>
      </trkpt>
      <trkpt lat="41.6166210" lon="-0.8634160">
        <ele>235.1</ele>
        <time>2020-12-31T13:15:26Z</time>
      </trkpt>
      <trkpt lat="41.6166220" lon="-0.8632640">
        <ele>235.1</ele>
        <time>2020-12-31T13:15:28Z</time>
      </trkpt>
      <trkpt lat="41.6166220" lon="-0.8631880">
        <ele>235.1</ele>
        <time>2020-12-31T13:15:29Z</time>
      </trkpt>
      <trkpt lat="41.6166230" lon="-0.8630400">
        <ele>235.1</ele>
        <time>2020-12-31T13:15:31Z</time>
      </trkpt>
      <trkpt lat="41.6166190" lon="-0.8629680">
        <ele>235.1</ele>
        <time>2020-12-31T13:15:32Z</time>
      </trkpt>
      <trkpt lat="41.6166010" lon="-0.8628280">
        <ele>235.2</ele>
        <time>2020-12-31T13:15:34Z</time>
      </trkpt>
      <trkpt lat="41.6166050" lon="-0.8627540">
        <ele>235.2</ele>
        <time>2020-12-31T13:15:35Z</time>
      </trkpt>
      <trkpt lat="41.6165960" lon="-0.8626050">
        <ele>235.3</ele>
        <time>2020-12-31T13:15:37Z</time>
      </trkpt>
      <trkpt lat="41.6165840" lon="-0.8625340">
        <ele>235.4</ele>
        <time>2020-12-31T13:15:38Z</time>
      </trkpt>
      <trkpt lat="41.6165310" lon="-0.8624080">
        <ele>235.4</ele>
        <time>2020-12-31T13:15:40Z</time>
      </trkpt>
      <trkpt lat="41.6164640" lon="-0.8622880">
        <ele>235.4</ele>
        <time>2020-12-31T13:15:42Z</time>
      </trkpt>
      <trkpt lat="41.6164290" lon="-0.8622380">
        <ele>235.4</ele>
        <time>2020-12-31T13:15:43Z</time>
      </trkpt>
      <trkpt lat="41.6163580" lon="-0.8621450">
        <ele>235.4</ele>
        <time>2020-12-31T13:15:45Z</time>
      </trkpt>
      <trkpt lat="41.6163130" lon="-0.8621070">
        <ele>235.4</ele>
        <time>2020-12-31T13:15:46Z</time>
      </trkpt>
      <trkpt lat="41.6162230" lon="-0.8620470">
        <ele>235.4</ele>
        <time>2020-12-31T13:15:48Z</time>
      </trkpt>
      <trkpt lat="41.6161680" lon="-0.8620240">
        <ele>235.4</ele>
        <time>2020-12-31T13:15:49Z</time>
      </trkpt>
      <trkpt lat="41.6160660" lon="-0.8619830">
        <ele>235.3</ele>
        <time>2020-12-31T13:15:51Z</time>
      </trkpt>
      <trkpt lat="41.6159850" lon="-0.8619510">
        <ele>235.3</ele>
        <time>2020-12-31T13:15:53Z</time>
      </trkpt>
      <trkpt lat="41.6158890" lon="-0.8619140">
        <ele>235.3</ele>
        <time>2020-12-31T13:15:55Z</time>
      </trkpt>
      <trkpt lat="41.6158070" lon="-0.8618760">
        <ele>235.3</ele>
        <time>2020-12-31T13:15:57Z</time>
      </trkpt>
      <trkpt lat="41.6157260" lon="-0.8618470">
        <ele>235.4</ele>
        <time>2020-12-31T13:15:59Z</time>
      </trkpt>
      <trkpt lat="41.6156910" lon="-0.8618300">
        <ele>235.4</ele>
        <time>2020-12-31T13:16:01Z</time>
      </trkpt>
      <trkpt lat="41.6156850" lon="-0.8618220">
        <ele>235.4</ele>
        <time>2020-12-31T13:16:03Z</time>
      </trkpt>
      <trkpt lat="41.6156980" lon="-0.8618090">
        <ele>235.4</ele>
        <time>2020-12-31T13:16:04Z</time>
      </trkpt>
      <trkpt lat="41.6157140" lon="-0.8617430">
        <ele>235.3</ele>
        <time>2020-12-31T13:16:06Z</time>
      </trkpt>
      <trkpt lat="41.6157180" lon="-0.8616900">
        <ele>235.3</ele>
        <time>2020-12-31T13:16:07Z</time>
      </trkpt>
      <trkpt lat="41.6157250" lon="-0.8616350">
        <ele>235.3</ele>
        <time>2020-12-31T13:16:09Z</time>
      </trkpt>
      <trkpt lat="41.6157260" lon="-0.8616130">
        <ele>235.3</ele>
        <time>2020-12-31T13:16:10Z</time>
      </trkpt>
      <trkpt lat="41.6157330" lon="-0.8616080">
        <ele>235.3</ele>
        <time>2020-12-31T13:16:11Z</time>
      </trkpt>
      <trkpt lat="41.6157660" lon="-0.8616300">
        <ele>235.2</ele>
        <time>2020-12-31T13:16:13Z</time>
      </trkpt>
      <trkpt lat="41.6158070" lon="-0.8616480">
        <ele>235.2</ele>
        <time>2020-12-31T13:16:14Z</time>
      </trkpt>
      <trkpt lat="41.6158470" lon="-0.8616650">
        <ele>234.7</ele>
        <time>2020-12-31T13:16:15Z</time>
      </trkpt>
      <trkpt lat="41.6158790" lon="-0.8616910">
        <ele>234.6</ele>
        <time>2020-12-31T13:16:16Z</time>
      </trkpt>
      <trkpt lat="41.6159210" lon="-0.8617080">
        <ele>234.5</ele>
        <time>2020-12-31T13:16:17Z</time>
      </trkpt>
      <trkpt lat="41.6159420" lon="-0.8616790">
        <ele>234.5</ele>
        <time>2020-12-31T13:16:19Z</time>
      </trkpt>
      <trkpt lat="41.6159260" lon="-0.8616470">
        <ele>234.5</ele>
        <time>2020-12-31T13:16:20Z</time>
      </trkpt>
      <trkpt lat="41.6159000" lon="-0.8616180">
        <ele>234.5</ele>
        <time>2020-12-31T13:16:21Z</time>
      </trkpt>
      <trkpt lat="41.6158320" lon="-0.8615930">
        <ele>234.4</ele>
        <time>2020-12-31T13:16:23Z</time>
      </trkpt>
      <trkpt lat="41.6157780" lon="-0.8615560">
        <ele>234.4</ele>
        <time>2020-12-31T13:16:25Z</time>
      </trkpt>
      <trkpt lat="41.6157470" lon="-0.8614880">
        <ele>234.4</ele>
        <time>2020-12-31T13:16:27Z</time>
      </trkpt>
      <trkpt lat="41.6157280" lon="-0.8614430">
        <ele>234.4</ele>
        <time>2020-12-31T13:16:28Z</time>
      </trkpt>
      <trkpt lat="41.6157250" lon="-0.8613970">
        <ele>234.4</ele>
        <time>2020-12-31T13:16:29Z</time>
      </trkpt>
      <trkpt lat="41.6157540" lon="-0.8613680">
        <ele>234.4</ele>
        <time>2020-12-31T13:16:31Z</time>
      </trkpt>
      <trkpt lat="41.6157660" lon="-0.8613640">
        <ele>234.4</ele>
        <time>2020-12-31T13:16:32Z</time>
      </trkpt>
      <trkpt lat="41.6157800" lon="-0.8613530">
        <ele>234.4</ele>
        <time>2020-12-31T13:16:33Z</time>
      </trkpt>
      <trkpt lat="41.6157880" lon="-0.8613380">
        <ele>234.4</ele>
        <time>2020-12-31T13:16:34Z</time>
      </trkpt>
      <trkpt lat="41.6157970" lon="-0.8613140">
        <ele>234.4</ele>
        <time>2020-12-31T13:16:35Z</time>
      </trkpt>
      <trkpt lat="41.6158210" lon="-0.8612520">
        <ele>234.4</ele>
        <time>2020-12-31T13:16:37Z</time>
      </trkpt>
      <trkpt lat="41.6158350" lon="-0.8612050">
        <ele>234.4</ele>
        <time>2020-12-31T13:16:38Z</time>
      </trkpt>
      <trkpt lat="41.6158400" lon="-0.8611850">
        <ele>234.4</ele>
        <time>2020-12-31T13:16:39Z</time>
      </trkpt>
      <trkpt lat="41.6158480" lon="-0.8611290">
        <ele>234.4</ele>
        <time>2020-12-31T13:16:41Z</time>
      </trkpt>
      <trkpt lat="41.6158550" lon="-0.8610930">
        <ele>234.4</ele>
        <time>2020-12-31T13:16:42Z</time>
      </trkpt>
      <trkpt lat="41.6158780" lon="-0.8610670">
        <ele>234.4</ele>
        <time>2020-12-31T13:16:43Z</time>
      </trkpt>
      <trkpt lat="41.6159040" lon="-0.8610200">
        <ele>234.4</ele>
        <time>2020-12-31T13:16:45Z</time>
      </trkpt>
      <trkpt lat="41.6159130" lon="-0.8609870">
        <ele>234.4</ele>
        <time>2020-12-31T13:16:46Z</time>
      </trkpt>
      <trkpt lat="41.6159310" lon="-0.8609090">
        <ele>234.4</ele>
        <time>2020-12-31T13:16:48Z</time>
      </trkpt>
      <trkpt lat="41.6159550" lon="-0.8608730">
        <ele>234.4</ele>
        <time>2020-12-31T13:16:50Z</time>
      </trkpt>
      <trkpt lat="41.6159670" lon="-0.8608800">
        <ele>234.4</ele>
        <time>2020-12-31T13:16:51Z</time>
      </trkpt>
      <trkpt lat="41.6159780" lon="-0.8608870">
        <ele>234.4</ele>
        <time>2020-12-31T13:16:52Z</time>
      </trkpt>
      <trkpt lat="41.6159730" lon="-0.8609020">
        <ele>234.4</ele>
        <time>2020-12-31T13:16:54Z</time>
      </trkpt>
      <trkpt lat="41.6159630" lon="-0.8609070">
        <ele>234.4</ele>
        <time>2020-12-31T13:16:55Z</time>
      </trkpt>
      <trkpt lat="41.6159490" lon="-0.8609230">
        <ele>234.4</ele>
        <time>2020-12-31T13:16:57Z</time>
      </trkpt>
      <trkpt lat="41.6159440" lon="-0.8609440">
        <ele>234.4</ele>
        <time>2020-12-31T13:16:58Z</time>
      </trkpt>
      <trkpt lat="41.6159400" lon="-0.8609620">
        <ele>234.4</ele>
        <time>2020-12-31T13:16:59Z</time>
      </trkpt>
      <trkpt lat="41.6159310" lon="-0.8609760">
        <ele>234.4</ele>
        <time>2020-12-31T13:17:00Z</time>
      </trkpt>
      <trkpt lat="41.6159260" lon="-0.8609880">
        <ele>234.4</ele>
        <time>2020-12-31T13:17:02Z</time>
      </trkpt>
      <trkpt lat="41.6159220" lon="-0.8609980">
        <ele>234.4</ele>
        <time>2020-12-31T13:17:03Z</time>
      </trkpt>
      <trkpt lat="41.6159130" lon="-0.8610190">
        <ele>234.4</ele>
        <time>2020-12-31T13:17:04Z</time>
      </trkpt>
      <trkpt lat="41.6158940" lon="-0.8610440">
        <ele>234.4</ele>
        <time>2020-12-31T13:17:06Z</time>
      </trkpt>
      <trkpt lat="41.6158800" lon="-0.8610630">
        <ele>234.4</ele>
        <time>2020-12-31T13:17:07Z</time>
      </trkpt>
      <trkpt lat="41.6158600" lon="-0.8611170">
        <ele>234.5</ele>
        <time>2020-12-31T13:17:09Z</time>
      </trkpt>
      <trkpt lat="41.6158450" lon="-0.8611500">
        <ele>234.5</ele>
        <time>2020-12-31T13:17:10Z</time>
      </trkpt>
      <trkpt lat="41.6158340" lon="-0.8611880">
        <ele>234.5</ele>
        <time>2020-12-31T13:17:11Z</time>
      </trkpt>
      <trkpt lat="41.6158200" lon="-0.8612480">
        <ele>234.5</ele>
        <time>2020-12-31T13:17:12Z</time>
      </trkpt>
      <trkpt lat="41.6158050" lon="-0.8613040">
        <ele>234.5</ele>
        <time>2020-12-31T13:17:14Z</time>
      </trkpt>
      <trkpt lat="41.6157980" lon="-0.8613550">
        <ele>234.5</ele>
        <time>2020-12-31T13:17:15Z</time>
      </trkpt>
      <trkpt lat="41.6157960" lon="-0.8613980">
        <ele>234.5</ele>
        <time>2020-12-31T13:17:16Z</time>
      </trkpt>
      <trkpt lat="41.6157970" lon="-0.8614520">
        <ele>234.5</ele>
        <time>2020-12-31T13:17:18Z</time>
      </trkpt>
      <trkpt lat="41.6157950" lon="-0.8615100">
        <ele>234.5</ele>
        <time>2020-12-31T13:17:19Z</time>
      </trkpt>
      <trkpt lat="41.6158120" lon="-0.8615670">
        <ele>234.5</ele>
        <time>2020-12-31T13:17:21Z</time>
      </trkpt>
      <trkpt lat="41.6158590" lon="-0.8615600">
        <ele>234.5</ele>
        <time>2020-12-31T13:17:23Z</time>
      </trkpt>
      <trkpt lat="41.6158980" lon="-0.8615720">
        <ele>234.5</ele>
        <time>2020-12-31T13:17:24Z</time>
      </trkpt>
      <trkpt lat="41.6159390" lon="-0.8616240">
        <ele>234.5</ele>
        <time>2020-12-31T13:17:26Z</time>
      </trkpt>
      <trkpt lat="41.6159010" lon="-0.8616620">
        <ele>234.6</ele>
        <time>2020-12-31T13:17:28Z</time>
      </trkpt>
      <trkpt lat="41.6158690" lon="-0.8616640">
        <ele>234.7</ele>
        <time>2020-12-31T13:17:29Z</time>
      </trkpt>
      <trkpt lat="41.6158210" lon="-0.8616420">
        <ele>234.8</ele>
        <time>2020-12-31T13:17:31Z</time>
      </trkpt>
      <trkpt lat="41.6157780" lon="-0.8616240">
        <ele>234.9</ele>
        <time>2020-12-31T13:17:32Z</time>
      </trkpt>
      <trkpt lat="41.6157350" lon="-0.8616060">
        <ele>235.1</ele>
        <time>2020-12-31T13:17:34Z</time>
      </trkpt>
      <trkpt lat="41.6157110" lon="-0.8615950">
        <ele>235.1</ele>
        <time>2020-12-31T13:17:35Z</time>
      </trkpt>
      <trkpt lat="41.6156710" lon="-0.8616080">
        <ele>235.2</ele>
        <time>2020-12-31T13:17:37Z</time>
      </trkpt>
      <trkpt lat="41.6156670" lon="-0.8616530">
        <ele>235.2</ele>
        <time>2020-12-31T13:17:38Z</time>
      </trkpt>
      <trkpt lat="41.6156650" lon="-0.8616910">
        <ele>235.3</ele>
        <time>2020-12-31T13:17:39Z</time>
      </trkpt>
      <trkpt lat="41.6156600" lon="-0.8617370">
        <ele>235.3</ele>
        <time>2020-12-31T13:17:40Z</time>
      </trkpt>
      <trkpt lat="41.6156540" lon="-0.8617830">
        <ele>235.4</ele>
        <time>2020-12-31T13:17:42Z</time>
      </trkpt>
      <trkpt lat="41.6156540" lon="-0.8618110">
        <ele>235.4</ele>
        <time>2020-12-31T13:17:43Z</time>
      </trkpt>
      <trkpt lat="41.6156850" lon="-0.8618500">
        <ele>235.4</ele>
        <time>2020-12-31T13:17:45Z</time>
      </trkpt>
      <trkpt lat="41.6157150" lon="-0.8618500">
        <ele>235.4</ele>
        <time>2020-12-31T13:17:46Z</time>
      </trkpt>
      <trkpt lat="41.6157690" lon="-0.8618710">
        <ele>235.3</ele>
        <time>2020-12-31T13:17:48Z</time>
      </trkpt>
      <trkpt lat="41.6158010" lon="-0.8618890">
        <ele>235.3</ele>
        <time>2020-12-31T13:17:49Z</time>
      </trkpt>
      <trkpt lat="41.6158460" lon="-0.8618960">
        <ele>235.3</ele>
        <time>2020-12-31T13:17:51Z</time>
      </trkpt>
      <trkpt lat="41.6158740" lon="-0.8619100">
        <ele>235.3</ele>
        <time>2020-12-31T13:17:52Z</time>
      </trkpt>
      <trkpt lat="41.6159200" lon="-0.8619340">
        <ele>235.3</ele>
        <time>2020-12-31T13:17:53Z</time>
      </trkpt>
      <trkpt lat="41.6159640" lon="-0.8619660">
        <ele>235.3</ele>
        <time>2020-12-31T13:17:54Z</time>
      </trkpt>
      <trkpt lat="41.6160020" lon="-0.8620160">
        <ele>235.3</ele>
        <time>2020-12-31T13:17:56Z</time>
      </trkpt>
      <trkpt lat="41.6160260" lon="-0.8620590">
        <ele>235.3</ele>
        <time>2020-12-31T13:17:57Z</time>
      </trkpt>
      <trkpt lat="41.6160570" lon="-0.8621210">
        <ele>235.3</ele>
        <time>2020-12-31T13:17:59Z</time>
      </trkpt>
      <trkpt lat="41.6160820" lon="-0.8621530">
        <ele>235.3</ele>
        <time>2020-12-31T13:18:00Z</time>
      </trkpt>
      <trkpt lat="41.6161130" lon="-0.8621900">
        <ele>235.3</ele>
        <time>2020-12-31T13:18:02Z</time>
      </trkpt>
      <trkpt lat="41.6161390" lon="-0.8622190">
        <ele>235.4</ele>
        <time>2020-12-31T13:18:03Z</time>
      </trkpt>
      <trkpt lat="41.6161700" lon="-0.8622490">
        <ele>235.4</ele>
        <time>2020-12-31T13:18:04Z</time>
      </trkpt>
      <trkpt lat="41.6161940" lon="-0.8622780">
        <ele>235.4</ele>
        <time>2020-12-31T13:18:05Z</time>
      </trkpt>
      <trkpt lat="41.6162350" lon="-0.8623220">
        <ele>235.4</ele>
        <time>2020-12-31T13:18:07Z</time>
      </trkpt>
      <trkpt lat="41.6162610" lon="-0.8623680">
        <ele>235.4</ele>
        <time>2020-12-31T13:18:09Z</time>
      </trkpt>
      <trkpt lat="41.6162980" lon="-0.8623740">
        <ele>235.4</ele>
        <time>2020-12-31T13:18:10Z</time>
      </trkpt>
      <trkpt lat="41.6163270" lon="-0.8623710">
        <ele>235.4</ele>
        <time>2020-12-31T13:18:11Z</time>
      </trkpt>
      <trkpt lat="41.6163220" lon="-0.8623680">
        <ele>235.4</ele>
        <time>2020-12-31T13:18:13Z</time>
      </trkpt>
      <trkpt lat="41.6163110" lon="-0.8623620">
        <ele>235.4</ele>
        <time>2020-12-31T13:18:14Z</time>
      </trkpt>
      <trkpt lat="41.6163070" lon="-0.8623590">
        <ele>235.4</ele>
        <time>2020-12-31T13:18:15Z</time>
      </trkpt>
      <trkpt lat="41.6163060" lon="-0.8623580">
        <ele>235.4</ele>
        <time>2020-12-31T13:18:16Z</time>
      </trkpt>
      <trkpt lat="41.6163050" lon="-0.8623570">
        <ele>235.4</ele>
        <time>2020-12-31T13:18:18Z</time>
      </trkpt>
      <trkpt lat="41.6163040" lon="-0.8623570">
        <ele>235.4</ele>
        <time>2020-12-31T13:18:20Z</time>
      </trkpt>
      <trkpt lat="41.6163020" lon="-0.8623570">
        <ele>235.4</ele>
        <time>2020-12-31T13:18:27Z</time>
      </trkpt>
      <trkpt lat="41.6163030" lon="-0.8623590">
        <ele>235.4</ele>
        <time>2020-12-31T13:18:28Z</time>
      </trkpt>
      <trkpt lat="41.6162990" lon="-0.8623590">
        <ele>235.4</ele>
        <time>2020-12-31T13:18:30Z</time>
      </trkpt>
      <trkpt lat="41.6162950" lon="-0.8623610">
        <ele>235.4</ele>
        <time>2020-12-31T13:18:31Z</time>
      </trkpt>
      <trkpt lat="41.6162920" lon="-0.8623620">
        <ele>235.4</ele>
        <time>2020-12-31T13:18:33Z</time>
      </trkpt>
      <trkpt lat="41.6162890" lon="-0.8623620">
        <ele>235.4</ele>
        <time>2020-12-31T13:18:34Z</time>
      </trkpt>
      <trkpt lat="41.6162850" lon="-0.8623600">
        <ele>235.4</ele>
        <time>2020-12-31T13:18:35Z</time>
      </trkpt>
      <trkpt lat="41.6162830" lon="-0.8623620">
        <ele>235.4</ele>
        <time>2020-12-31T13:18:36Z</time>
      </trkpt>
      <trkpt lat="41.6162830" lon="-0.8623640">
        <ele>235.4</ele>
        <time>2020-12-31T13:18:38Z</time>
      </trkpt>
      <trkpt lat="41.6162840" lon="-0.8623650">
        <ele>235.4</ele>
        <time>2020-12-31T13:18:39Z</time>
      </trkpt>
      <trkpt lat="41.6162870" lon="-0.8623650">
        <ele>235.4</ele>
        <time>2020-12-31T13:18:40Z</time>
      </trkpt>
      <trkpt lat="41.6162870" lon="-0.8623640">
        <ele>235.4</ele>
        <time>2020-12-31T13:18:42Z</time>
      </trkpt>
      <trkpt lat="41.6162880" lon="-0.8623630">
        <ele>235.4</ele>
        <time>2020-12-31T13:18:43Z</time>
      </trkpt>
      <trkpt lat="41.6162830" lon="-0.8623700">
        <ele>235.4</ele>
        <time>2020-12-31T13:18:45Z</time>
      </trkpt>
      <trkpt lat="41.6162840" lon="-0.8623710">
        <ele>235.4</ele>
        <time>2020-12-31T13:18:47Z</time>
      </trkpt>
      <trkpt lat="41.6162800" lon="-0.8623780">
        <ele>235.4</ele>
        <time>2020-12-31T13:19:01Z</time>
      </trkpt>
      <trkpt lat="41.6162800" lon="-0.8623800">
        <ele>235.4</ele>
        <time>2020-12-31T13:19:02Z</time>
      </trkpt>
      <trkpt lat="41.6162800" lon="-0.8623770">
        <ele>235.4</ele>
        <time>2020-12-31T13:19:04Z</time>
      </trkpt>
      <trkpt lat="41.6162810" lon="-0.8623830">
        <ele>235.4</ele>
        <time>2020-12-31T13:19:06Z</time>
      </trkpt>
      <trkpt lat="41.6162750" lon="-0.8623840">
        <ele>235.4</ele>
        <time>2020-12-31T13:19:07Z</time>
      </trkpt>
      <trkpt lat="41.6162690" lon="-0.8623870">
        <ele>235.4</ele>
        <time>2020-12-31T13:19:08Z</time>
      </trkpt>
      <trkpt lat="41.6162530" lon="-0.8623940">
        <ele>235.4</ele>
        <time>2020-12-31T13:19:10Z</time>
      </trkpt>
      <trkpt lat="41.6162510" lon="-0.8623920">
        <ele>235.4</ele>
        <time>2020-12-31T13:19:11Z</time>
      </trkpt>
      <trkpt lat="41.6162530" lon="-0.8623920">
        <ele>235.4</ele>
        <time>2020-12-31T13:19:13Z</time>
      </trkpt>
      <trkpt lat="41.6162540" lon="-0.8623940">
        <ele>235.4</ele>
        <time>2020-12-31T13:19:14Z</time>
      </trkpt>
      <trkpt lat="41.6162550" lon="-0.8623950">
        <ele>235.4</ele>
        <time>2020-12-31T13:19:15Z</time>
      </trkpt>
      <trkpt lat="41.6162540" lon="-0.8623950">
        <ele>235.4</ele>
        <time>2020-12-31T13:19:17Z</time>
      </trkpt>
      <trkpt lat="41.6162540" lon="-0.8623950">
        <ele>235.4</ele>
        <time>2020-12-31T13:19:18Z</time>
      </trkpt>
      <trkpt lat="41.6162540" lon="-0.8623950">
        <ele>235.4</ele>
        <time>2020-12-31T13:19:20Z</time>
      </trkpt>
      <trkpt lat="41.6162630" lon="-0.8623600">
        <ele>235.4</ele>
        <time>2020-12-31T13:21:45Z</time>
      </trkpt>
      <trkpt lat="41.6162660" lon="-0.8623580">
        <ele>235.4</ele>
        <time>2020-12-31T13:21:47Z</time>
      </trkpt>
      <trkpt lat="41.6162680" lon="-0.8623580">
        <ele>235.4</ele>
        <time>2020-12-31T13:21:49Z</time>
      </trkpt>
      <trkpt lat="41.6162730" lon="-0.8623550">
        <ele>235.4</ele>
        <time>2020-12-31T13:21:51Z</time>
      </trkpt>
      <trkpt lat="41.6162790" lon="-0.8623490">
        <ele>235.4</ele>
        <time>2020-12-31T13:21:53Z</time>
      </trkpt>
      <trkpt lat="41.6162820" lon="-0.8623460">
        <ele>235.4</ele>
        <time>2020-12-31T13:21:54Z</time>
      </trkpt>
      <trkpt lat="41.6162820" lon="-0.8623450">
        <ele>235.4</ele>
        <time>2020-12-31T13:21:56Z</time>
      </trkpt>
      <trkpt lat="41.6162810" lon="-0.8623450">
        <ele>235.4</ele>
        <time>2020-12-31T13:21:58Z</time>
      </trkpt>
      <trkpt lat="41.6162810" lon="-0.8623450">
        <ele>235.4</ele>
        <time>2020-12-31T13:22:00Z</time>
      </trkpt>
      <trkpt lat="41.6162810" lon="-0.8623450">
        <ele>235.4</ele>
        <time>2020-12-31T13:22:02Z</time>
      </trkpt>
      <trkpt lat="41.6162810" lon="-0.8623450">
        <ele>235.4</ele>
        <time>2020-12-31T13:22:04Z</time>
      </trkpt>
      <trkpt lat="41.6162970" lon="-0.8623940">
        <ele>235.4</ele>
        <time>2020-12-31T13:23:57Z</time>
      </trkpt>
      <trkpt lat="41.6162870" lon="-0.8624210">
        <ele>235.4</ele>
        <time>2020-12-31T13:23:58Z</time>
      </trkpt>
      <trkpt lat="41.6162590" lon="-0.8624490">
        <ele>235.4</ele>
        <time>2020-12-31T13:24:00Z</time>
      </trkpt>
      <trkpt lat="41.6162440" lon="-0.8624200">
        <ele>235.4</ele>
        <time>2020-12-31T13:24:01Z</time>
      </trkpt>
      <trkpt lat="41.6162420" lon="-0.8624050">
        <ele>235.4</ele>
        <time>2020-12-31T13:24:02Z</time>
      </trkpt>
      <trkpt lat="41.6162480" lon="-0.8623710">
        <ele>235.4</ele>
        <time>2020-12-31T13:24:03Z</time>
      </trkpt>
      <trkpt lat="41.6162680" lon="-0.8623510">
        <ele>235.4</ele>
        <time>2020-12-31T13:24:05Z</time>
      </trkpt>
      <trkpt lat="41.6162710" lon="-0.8623610">
        <ele>235.4</ele>
        <time>2020-12-31T13:24:06Z</time>
      </trkpt>
      <trkpt lat="41.6162700" lon="-0.8623740">
        <ele>235.4</ele>
        <time>2020-12-31T13:24:08Z</time>
      </trkpt>
      <trkpt lat="41.6162690" lon="-0.8623760">
        <ele>235.4</ele>
        <time>2020-12-31T13:24:09Z</time>
      </trkpt>
      <trkpt lat="41.6162680" lon="-0.8623760">
        <ele>235.4</ele>
        <time>2020-12-31T13:24:11Z</time>
      </trkpt>
      <trkpt lat="41.6162680" lon="-0.8623750">
        <ele>235.4</ele>
        <time>2020-12-31T13:24:12Z</time>
      </trkpt>
      <trkpt lat="41.6162680" lon="-0.8623750">
        <ele>235.4</ele>
        <time>2020-12-31T13:24:13Z</time>
      </trkpt>
      <trkpt lat="41.6162690" lon="-0.8623760">
        <ele>235.4</ele>
        <time>2020-12-31T13:24:15Z</time>
      </trkpt>
      <trkpt lat="41.6162980" lon="-0.8624100">
        <ele>235.4</ele>
        <time>2020-12-31T13:24:50Z</time>
      </trkpt>
      <trkpt lat="41.6163050" lon="-0.8624240">
        <ele>235.4</ele>
        <time>2020-12-31T13:24:51Z</time>
      </trkpt>
      <trkpt lat="41.6163210" lon="-0.8624400">
        <ele>235.4</ele>
        <time>2020-12-31T13:24:52Z</time>
      </trkpt>
      <trkpt lat="41.6163510" lon="-0.8624740">
        <ele>235.3</ele>
        <time>2020-12-31T13:24:53Z</time>
      </trkpt>
      <trkpt lat="41.6163640" lon="-0.8624930">
        <ele>235.3</ele>
        <time>2020-12-31T13:24:54Z</time>
      </trkpt>
      <trkpt lat="41.6163860" lon="-0.8625390">
        <ele>235.3</ele>
        <time>2020-12-31T13:24:56Z</time>
      </trkpt>
      <trkpt lat="41.6164050" lon="-0.8625760">
        <ele>235.3</ele>
        <time>2020-12-31T13:24:57Z</time>
      </trkpt>
      <trkpt lat="41.6164160" lon="-0.8626170">
        <ele>235.3</ele>
        <time>2020-12-31T13:24:58Z</time>
      </trkpt>
      <trkpt lat="41.6164150" lon="-0.8626280">
        <ele>235.3</ele>
        <time>2020-12-31T13:24:59Z</time>
      </trkpt>
      <trkpt lat="41.6164260" lon="-0.8626680">
        <ele>235.2</ele>
        <time>2020-12-31T13:25:00Z</time>
      </trkpt>
      <trkpt lat="41.6164300" lon="-0.8626810">
        <ele>235.2</ele>
        <time>2020-12-31T13:25:01Z</time>
      </trkpt>
      <trkpt lat="41.6164440" lon="-0.8627210">
        <ele>235.2</ele>
        <time>2020-12-31T13:25:02Z</time>
      </trkpt>
      <trkpt lat="41.6164500" lon="-0.8627400">
        <ele>235.2</ele>
        <time>2020-12-31T13:25:03Z</time>
      </trkpt>
      <trkpt lat="41.6164590" lon="-0.8627720">
        <ele>235.1</ele>
        <time>2020-12-31T13:25:04Z</time>
      </trkpt>
      <trkpt lat="41.6164700" lon="-0.8628120">
        <ele>235.1</ele>
        <time>2020-12-31T13:25:06Z</time>
      </trkpt>
      <trkpt lat="41.6165150" lon="-0.8629410">
        <ele>235.1</ele>
        <time>2020-12-31T13:25:07Z</time>
      </trkpt>
      <trkpt lat="41.6165820" lon="-0.8631410">
        <ele>235.1</ele>
        <time>2020-12-31T13:25:09Z</time>
      </trkpt>
      <trkpt lat="41.6165830" lon="-0.8632160">
        <ele>235.1</ele>
        <time>2020-12-31T13:25:10Z</time>
      </trkpt>
      <trkpt lat="41.6165910" lon="-0.8633660">
        <ele>235.1</ele>
        <time>2020-12-31T13:25:12Z</time>
      </trkpt>
      <trkpt lat="41.6166050" lon="-0.8635090">
        <ele>235.1</ele>
        <time>2020-12-31T13:25:14Z</time>
      </trkpt>
      <trkpt lat="41.6166330" lon="-0.8636750">
        <ele>235.1</ele>
        <time>2020-12-31T13:25:16Z</time>
      </trkpt>
      <trkpt lat="41.6166590" lon="-0.8638350">
        <ele>235.2</ele>
        <time>2020-12-31T13:25:18Z</time>
      </trkpt>
      <trkpt lat="41.6166770" lon="-0.8639810">
        <ele>235.3</ele>
        <time>2020-12-31T13:25:20Z</time>
      </trkpt>
      <trkpt lat="41.6166860" lon="-0.8641190">
        <ele>235.3</ele>
        <time>2020-12-31T13:25:22Z</time>
      </trkpt>
      <trkpt lat="41.6167050" lon="-0.8642180">
        <ele>235.3</ele>
        <time>2020-12-31T13:25:24Z</time>
      </trkpt>
      <trkpt lat="41.6167180" lon="-0.8642940">
        <ele>235.3</ele>
        <time>2020-12-31T13:25:25Z</time>
      </trkpt>
      <trkpt lat="41.6167250" lon="-0.8644390">
        <ele>235.3</ele>
        <time>2020-12-31T13:25:27Z</time>
      </trkpt>
      <trkpt lat="41.6167280" lon="-0.8645120">
        <ele>235.3</ele>
        <time>2020-12-31T13:25:28Z</time>
      </trkpt>
      <trkpt lat="41.6167370" lon="-0.8646530">
        <ele>235.3</ele>
        <time>2020-12-31T13:25:30Z</time>
      </trkpt>
      <trkpt lat="41.6167550" lon="-0.8647890">
        <ele>235.3</ele>
        <time>2020-12-31T13:25:32Z</time>
      </trkpt>
      <trkpt lat="41.6167690" lon="-0.8649280">
        <ele>235.4</ele>
        <time>2020-12-31T13:25:34Z</time>
      </trkpt>
      <trkpt lat="41.6167730" lon="-0.8649960">
        <ele>235.4</ele>
        <time>2020-12-31T13:25:35Z</time>
      </trkpt>
      <trkpt lat="41.6167730" lon="-0.8650660">
        <ele>235.4</ele>
        <time>2020-12-31T13:25:36Z</time>
      </trkpt>
      <trkpt lat="41.6167840" lon="-0.8651970">
        <ele>235.5</ele>
        <time>2020-12-31T13:25:38Z</time>
      </trkpt>
      <trkpt lat="41.6167940" lon="-0.8653330">
        <ele>235.5</ele>
        <time>2020-12-31T13:25:40Z</time>
      </trkpt>
      <trkpt lat="41.6167940" lon="-0.8654030">
        <ele>235.5</ele>
        <time>2020-12-31T13:25:41Z</time>
      </trkpt>
      <trkpt lat="41.6167960" lon="-0.8654720">
        <ele>235.6</ele>
        <time>2020-12-31T13:25:42Z</time>
      </trkpt>
      <trkpt lat="41.6168080" lon="-0.8656090">
        <ele>235.6</ele>
        <time>2020-12-31T13:25:44Z</time>
      </trkpt>
      <trkpt lat="41.6168200" lon="-0.8657430">
        <ele>235.5</ele>
        <time>2020-12-31T13:25:46Z</time>
      </trkpt>
      <trkpt lat="41.6168300" lon="-0.8658870">
        <ele>235.4</ele>
        <time>2020-12-31T13:25:48Z</time>
      </trkpt>
      <trkpt lat="41.6168410" lon="-0.8660380">
        <ele>235.1</ele>
        <time>2020-12-31T13:25:50Z</time>
      </trkpt>
      <trkpt lat="41.6168450" lon="-0.8662020">
        <ele>234.9</ele>
        <time>2020-12-31T13:25:52Z</time>
      </trkpt>
      <trkpt lat="41.6168470" lon="-0.8662870">
        <ele>234.8</ele>
        <time>2020-12-31T13:25:53Z</time>
      </trkpt>
      <trkpt lat="41.6168640" lon="-0.8664500">
        <ele>234.7</ele>
        <time>2020-12-31T13:25:55Z</time>
      </trkpt>
      <trkpt lat="41.6168740" lon="-0.8665300">
        <ele>234.7</ele>
        <time>2020-12-31T13:25:56Z</time>
      </trkpt>
      <trkpt lat="41.6168990" lon="-0.8666800">
        <ele>234.7</ele>
        <time>2020-12-31T13:25:58Z</time>
      </trkpt>
      <trkpt lat="41.6169240" lon="-0.8667450">
        <ele>234.7</ele>
        <time>2020-12-31T13:25:59Z</time>
      </trkpt>
      <trkpt lat="41.6169530" lon="-0.8668100">
        <ele>234.8</ele>
        <time>2020-12-31T13:26:00Z</time>
      </trkpt>
      <trkpt lat="41.6169920" lon="-0.8669500">
        <ele>234.9</ele>
        <time>2020-12-31T13:26:02Z</time>
      </trkpt>
      <trkpt lat="41.6170040" lon="-0.8670270">
        <ele>235.0</ele>
        <time>2020-12-31T13:26:03Z</time>
      </trkpt>
      <trkpt lat="41.6170330" lon="-0.8671660">
        <ele>235.1</ele>
        <time>2020-12-31T13:26:05Z</time>
      </trkpt>
      <trkpt lat="41.6170430" lon="-0.8672270">
        <ele>235.1</ele>
        <time>2020-12-31T13:26:06Z</time>
      </trkpt>
      <trkpt lat="41.6170560" lon="-0.8672860">
        <ele>235.2</ele>
        <time>2020-12-31T13:26:07Z</time>
      </trkpt>
      <trkpt lat="41.6170760" lon="-0.8674070">
        <ele>235.3</ele>
        <time>2020-12-31T13:26:09Z</time>
      </trkpt>
      <trkpt lat="41.6170800" lon="-0.8674610">
        <ele>235.4</ele>
        <time>2020-12-31T13:26:10Z</time>
      </trkpt>
      <trkpt lat="41.6170700" lon="-0.8675010">
        <ele>235.4</ele>
        <time>2020-12-31T13:26:11Z</time>
      </trkpt>
      <trkpt lat="41.6170420" lon="-0.8675540">
        <ele>235.5</ele>
        <time>2020-12-31T13:26:12Z</time>
      </trkpt>
      <trkpt lat="41.6169640" lon="-0.8675790">
        <ele>235.7</ele>
        <time>2020-12-31T13:26:14Z</time>
      </trkpt>
      <trkpt lat="41.6168770" lon="-0.8675460">
        <ele>235.9</ele>
        <time>2020-12-31T13:26:16Z</time>
      </trkpt>
      <trkpt lat="41.6168270" lon="-0.8674980">
        <ele>236.2</ele>
        <time>2020-12-31T13:26:17Z</time>
      </trkpt>
      <trkpt lat="41.6167860" lon="-0.8674680">
        <ele>236.2</ele>
        <time>2020-12-31T13:26:18Z</time>
      </trkpt>
      <trkpt lat="41.6166930" lon="-0.8674260">
        <ele>236.3</ele>
        <time>2020-12-31T13:26:20Z</time>
      </trkpt>
      <trkpt lat="41.6166450" lon="-0.8674120">
        <ele>236.4</ele>
        <time>2020-12-31T13:26:21Z</time>
      </trkpt>
      <trkpt lat="41.6165970" lon="-0.8674040">
        <ele>236.4</ele>
        <time>2020-12-31T13:26:22Z</time>
      </trkpt>
      <trkpt lat="41.6164990" lon="-0.8673950">
        <ele>236.5</ele>
        <time>2020-12-31T13:26:24Z</time>
      </trkpt>
      <trkpt lat="41.6164010" lon="-0.8673910">
        <ele>236.7</ele>
        <time>2020-12-31T13:26:26Z</time>
      </trkpt>
      <trkpt lat="41.6163510" lon="-0.8673910">
        <ele>236.8</ele>
        <time>2020-12-31T13:26:27Z</time>
      </trkpt>
      <trkpt lat="41.6163030" lon="-0.8673830">
        <ele>236.9</ele>
        <time>2020-12-31T13:26:28Z</time>
      </trkpt>
      <trkpt lat="41.6162540" lon="-0.8673770">
        <ele>237.1</ele>
        <time>2020-12-31T13:26:29Z</time>
      </trkpt>
      <trkpt lat="41.6161620" lon="-0.8673700">
        <ele>237.2</ele>
        <time>2020-12-31T13:26:31Z</time>
      </trkpt>
      <trkpt lat="41.6160660" lon="-0.8673640">
        <ele>237.5</ele>
        <time>2020-12-31T13:26:33Z</time>
      </trkpt>
      <trkpt lat="41.6160210" lon="-0.8673550">
        <ele>237.6</ele>
        <time>2020-12-31T13:26:34Z</time>
      </trkpt>
      <trkpt lat="41.6159840" lon="-0.8673520">
        <ele>237.7</ele>
        <time>2020-12-31T13:26:35Z</time>
      </trkpt>
      <trkpt lat="41.6159050" lon="-0.8673430">
        <ele>238.0</ele>
        <time>2020-12-31T13:26:37Z</time>
      </trkpt>
      <trkpt lat="41.6158620" lon="-0.8673400">
        <ele>238.0</ele>
        <time>2020-12-31T13:26:38Z</time>
      </trkpt>
      <trkpt lat="41.6157730" lon="-0.8673350">
        <ele>238.2</ele>
        <time>2020-12-31T13:26:40Z</time>
      </trkpt>
      <trkpt lat="41.6156730" lon="-0.8673670">
        <ele>238.4</ele>
        <time>2020-12-31T13:26:42Z</time>
      </trkpt>
      <trkpt lat="41.6156240" lon="-0.8673890">
        <ele>238.4</ele>
        <time>2020-12-31T13:26:43Z</time>
      </trkpt>
      <trkpt lat="41.6155160" lon="-0.8674280">
        <ele>238.5</ele>
        <time>2020-12-31T13:26:45Z</time>
      </trkpt>
      <trkpt lat="41.6154110" lon="-0.8674830">
        <ele>238.5</ele>
        <time>2020-12-31T13:26:47Z</time>
      </trkpt>
      <trkpt lat="41.6153010" lon="-0.8674970">
        <ele>238.6</ele>
        <time>2020-12-31T13:26:49Z</time>
      </trkpt>
      <trkpt lat="41.6151880" lon="-0.8675090">
        <ele>238.7</ele>
        <time>2020-12-31T13:26:51Z</time>
      </trkpt>
      <trkpt lat="41.6150790" lon="-0.8675460">
        <ele>238.8</ele>
        <time>2020-12-31T13:26:53Z</time>
      </trkpt>
      <trkpt lat="41.6150280" lon="-0.8675640">
        <ele>238.8</ele>
        <time>2020-12-31T13:26:54Z</time>
      </trkpt>
      <trkpt lat="41.6149780" lon="-0.8675780">
        <ele>238.9</ele>
        <time>2020-12-31T13:26:55Z</time>
      </trkpt>
      <trkpt lat="41.6148790" lon="-0.8675970">
        <ele>238.9</ele>
        <time>2020-12-31T13:26:57Z</time>
      </trkpt>
      <trkpt lat="41.6147880" lon="-0.8675680">
        <ele>238.7</ele>
        <time>2020-12-31T13:26:59Z</time>
      </trkpt>
      <trkpt lat="41.6147540" lon="-0.8675400">
        <ele>238.7</ele>
        <time>2020-12-31T13:27:00Z</time>
      </trkpt>
      <trkpt lat="41.6147310" lon="-0.8674630">
        <ele>238.7</ele>
        <time>2020-12-31T13:27:02Z</time>
      </trkpt>
      <trkpt lat="41.6146560" lon="-0.8673330">
        <ele>238.7</ele>
        <time>2020-12-31T13:27:04Z</time>
      </trkpt>
      <trkpt lat="41.6146210" lon="-0.8672590">
        <ele>238.7</ele>
        <time>2020-12-31T13:27:05Z</time>
      </trkpt>
      <trkpt lat="41.6145200" lon="-0.8672030">
        <ele>238.4</ele>
        <time>2020-12-31T13:27:07Z</time>
      </trkpt>
      <trkpt lat="41.6144110" lon="-0.8672520">
        <ele>238.3</ele>
        <time>2020-12-31T13:27:09Z</time>
      </trkpt>
      <trkpt lat="41.6143610" lon="-0.8672420">
        <ele>238.3</ele>
        <time>2020-12-31T13:27:10Z</time>
      </trkpt>
      <trkpt lat="41.6142680" lon="-0.8672460">
        <ele>238.4</ele>
        <time>2020-12-31T13:27:12Z</time>
      </trkpt>
      <trkpt lat="41.6142290" lon="-0.8672510">
        <ele>238.4</ele>
        <time>2020-12-31T13:27:13Z</time>
      </trkpt>
      <trkpt lat="41.6141800" lon="-0.8672630">
        <ele>238.5</ele>
        <time>2020-12-31T13:27:14Z</time>
      </trkpt>
      <trkpt lat="41.6140990" lon="-0.8672950">
        <ele>238.6</ele>
        <time>2020-12-31T13:27:16Z</time>
      </trkpt>
      <trkpt lat="41.6140490" lon="-0.8673100">
        <ele>238.7</ele>
        <time>2020-12-31T13:27:17Z</time>
      </trkpt>
      <trkpt lat="41.6139560" lon="-0.8673490">
        <ele>238.8</ele>
        <time>2020-12-31T13:27:19Z</time>
      </trkpt>
      <trkpt lat="41.6139090" lon="-0.8673670">
        <ele>238.9</ele>
        <time>2020-12-31T13:27:20Z</time>
      </trkpt>
      <trkpt lat="41.6138120" lon="-0.8673470">
        <ele>239.1</ele>
        <time>2020-12-31T13:27:22Z</time>
      </trkpt>
      <trkpt lat="41.6137290" lon="-0.8673590">
        <ele>239.3</ele>
        <time>2020-12-31T13:27:24Z</time>
      </trkpt>
      <trkpt lat="41.6136360" lon="-0.8673830">
        <ele>239.6</ele>
        <time>2020-12-31T13:27:26Z</time>
      </trkpt>
      <trkpt lat="41.6135640" lon="-0.8674170">
        <ele>239.8</ele>
        <time>2020-12-31T13:27:28Z</time>
      </trkpt>
      <trkpt lat="41.6135210" lon="-0.8674560">
        <ele>240.0</ele>
        <time>2020-12-31T13:27:29Z</time>
      </trkpt>
      <trkpt lat="41.6134840" lon="-0.8674920">
        <ele>240.1</ele>
        <time>2020-12-31T13:27:30Z</time>
      </trkpt>
      <trkpt lat="41.6133990" lon="-0.8674120">
        <ele>240.4</ele>
        <time>2020-12-31T13:27:32Z</time>
      </trkpt>
      <trkpt lat="41.6133550" lon="-0.8673830">
        <ele>240.5</ele>
        <time>2020-12-31T13:27:33Z</time>
      </trkpt>
      <trkpt lat="41.6133050" lon="-0.8673800">
        <ele>240.6</ele>
        <time>2020-12-31T13:27:34Z</time>
      </trkpt>
      <trkpt lat="41.6132130" lon="-0.8674120">
        <ele>240.8</ele>
        <time>2020-12-31T13:27:36Z</time>
      </trkpt>
      <trkpt lat="41.6131680" lon="-0.8674360">
        <ele>240.8</ele>
        <time>2020-12-31T13:27:37Z</time>
      </trkpt>
      <trkpt lat="41.6130710" lon="-0.8674860">
        <ele>241.1</ele>
        <time>2020-12-31T13:27:39Z</time>
      </trkpt>
      <trkpt lat="41.6130180" lon="-0.8674880">
        <ele>241.2</ele>
        <time>2020-12-31T13:27:40Z</time>
      </trkpt>
      <trkpt lat="41.6129220" lon="-0.8675090">
        <ele>241.4</ele>
        <time>2020-12-31T13:27:42Z</time>
      </trkpt>
      <trkpt lat="41.6128290" lon="-0.8675290">
        <ele>241.7</ele>
        <time>2020-12-31T13:27:44Z</time>
      </trkpt>
      <trkpt lat="41.6127580" lon="-0.8675370">
        <ele>241.9</ele>
        <time>2020-12-31T13:27:46Z</time>
      </trkpt>
      <trkpt lat="41.6127160" lon="-0.8675430">
        <ele>242.0</ele>
        <time>2020-12-31T13:27:47Z</time>
      </trkpt>
      <trkpt lat="41.6126310" lon="-0.8675400">
        <ele>242.3</ele>
        <time>2020-12-31T13:27:49Z</time>
      </trkpt>
      <trkpt lat="41.6125490" lon="-0.8675330">
        <ele>242.5</ele>
        <time>2020-12-31T13:27:50Z</time>
      </trkpt>
      <trkpt lat="41.6125130" lon="-0.8675230">
        <ele>242.6</ele>
        <time>2020-12-31T13:27:51Z</time>
      </trkpt>
      <trkpt lat="41.6124690" lon="-0.8675290">
        <ele>242.7</ele>
        <time>2020-12-31T13:27:53Z</time>
      </trkpt>
      <trkpt lat="41.6124130" lon="-0.8675400">
        <ele>242.9</ele>
        <time>2020-12-31T13:27:54Z</time>
      </trkpt>
      <trkpt lat="41.6123680" lon="-0.8675490">
        <ele>243.0</ele>
        <time>2020-12-31T13:27:55Z</time>
      </trkpt>
      <trkpt lat="41.6122990" lon="-0.8675680">
        <ele>243.2</ele>
        <time>2020-12-31T13:27:57Z</time>
      </trkpt>
      <trkpt lat="41.6122450" lon="-0.8675840">
        <ele>243.4</ele>
        <time>2020-12-31T13:27:58Z</time>
      </trkpt>
      <trkpt lat="41.6121620" lon="-0.8676030">
        <ele>243.6</ele>
        <time>2020-12-31T13:28:00Z</time>
      </trkpt>
      <trkpt lat="41.6121050" lon="-0.8676180">
        <ele>243.7</ele>
        <time>2020-12-31T13:28:01Z</time>
      </trkpt>
      <trkpt lat="41.6120680" lon="-0.8676600">
        <ele>243.9</ele>
        <time>2020-12-31T13:28:02Z</time>
      </trkpt>
      <trkpt lat="41.6120130" lon="-0.8676820">
        <ele>244.0</ele>
        <time>2020-12-31T13:28:04Z</time>
      </trkpt>
      <trkpt lat="41.6119370" lon="-0.8676720">
        <ele>244.2</ele>
        <time>2020-12-31T13:28:05Z</time>
      </trkpt>
      <trkpt lat="41.6118450" lon="-0.8676890">
        <ele>244.4</ele>
        <time>2020-12-31T13:28:07Z</time>
      </trkpt>
      <trkpt lat="41.6117750" lon="-0.8677100">
        <ele>244.6</ele>
        <time>2020-12-31T13:28:09Z</time>
      </trkpt>
      <trkpt lat="41.6117100" lon="-0.8677140">
        <ele>244.8</ele>
        <time>2020-12-31T13:28:10Z</time>
      </trkpt>
      <trkpt lat="41.6116570" lon="-0.8677440">
        <ele>244.9</ele>
        <time>2020-12-31T13:28:12Z</time>
      </trkpt>
      <trkpt lat="41.6116110" lon="-0.8677760">
        <ele>245.0</ele>
        <time>2020-12-31T13:28:13Z</time>
      </trkpt>
      <trkpt lat="41.6115000" lon="-0.8677720">
        <ele>245.3</ele>
        <time>2020-12-31T13:28:15Z</time>
      </trkpt>
      <trkpt lat="41.6114730" lon="-0.8677460">
        <ele>245.4</ele>
        <time>2020-12-31T13:28:16Z</time>
      </trkpt>
      <trkpt lat="41.6114270" lon="-0.8677270">
        <ele>245.5</ele>
        <time>2020-12-31T13:28:17Z</time>
      </trkpt>
      <trkpt lat="41.6113710" lon="-0.8677210">
        <ele>245.6</ele>
        <time>2020-12-31T13:28:19Z</time>
      </trkpt>
      <trkpt lat="41.6113040" lon="-0.8677210">
        <ele>245.7</ele>
        <time>2020-12-31T13:28:20Z</time>
      </trkpt>
      <trkpt lat="41.6112320" lon="-0.8677020">
        <ele>245.9</ele>
        <time>2020-12-31T13:28:21Z</time>
      </trkpt>
      <trkpt lat="41.6111720" lon="-0.8676840">
        <ele>246.0</ele>
        <time>2020-12-31T13:28:23Z</time>
      </trkpt>
      <trkpt lat="41.6110880" lon="-0.8676880">
        <ele>246.2</ele>
        <time>2020-12-31T13:28:25Z</time>
      </trkpt>
      <trkpt lat="41.6110280" lon="-0.8677110">
        <ele>246.4</ele>
        <time>2020-12-31T13:28:26Z</time>
      </trkpt>
      <trkpt lat="41.6109740" lon="-0.8677310">
        <ele>246.5</ele>
        <time>2020-12-31T13:28:27Z</time>
      </trkpt>
      <trkpt lat="41.6109330" lon="-0.8677460">
        <ele>246.6</ele>
        <time>2020-12-31T13:28:29Z</time>
      </trkpt>
      <trkpt lat="41.6108900" lon="-0.8677630">
        <ele>246.7</ele>
        <time>2020-12-31T13:28:30Z</time>
      </trkpt>
      <trkpt lat="41.6108330" lon="-0.8677810">
        <ele>246.9</ele>
        <time>2020-12-31T13:28:31Z</time>
      </trkpt>
      <trkpt lat="41.6107490" lon="-0.8678180">
        <ele>247.1</ele>
        <time>2020-12-31T13:28:33Z</time>
      </trkpt>
      <trkpt lat="41.6107080" lon="-0.8678510">
        <ele>247.3</ele>
        <time>2020-12-31T13:28:34Z</time>
      </trkpt>
      <trkpt lat="41.6106630" lon="-0.8678760">
        <ele>247.4</ele>
        <time>2020-12-31T13:28:35Z</time>
      </trkpt>
      <trkpt lat="41.6106090" lon="-0.8678850">
        <ele>247.6</ele>
        <time>2020-12-31T13:28:37Z</time>
      </trkpt>
      <trkpt lat="41.6105660" lon="-0.8678520">
        <ele>247.8</ele>
        <time>2020-12-31T13:28:38Z</time>
      </trkpt>
      <trkpt lat="41.6105360" lon="-0.8677620">
        <ele>248.0</ele>
        <time>2020-12-31T13:28:39Z</time>
      </trkpt>
      <trkpt lat="41.6105020" lon="-0.8677230">
        <ele>248.1</ele>
        <time>2020-12-31T13:28:40Z</time>
      </trkpt>
      <trkpt lat="41.6104530" lon="-0.8677100">
        <ele>248.2</ele>
        <time>2020-12-31T13:28:42Z</time>
      </trkpt>
      <trkpt lat="41.6104060" lon="-0.8677230">
        <ele>248.3</ele>
        <time>2020-12-31T13:28:43Z</time>
      </trkpt>
      <trkpt lat="41.6103330" lon="-0.8677700">
        <ele>248.5</ele>
        <time>2020-12-31T13:28:45Z</time>
      </trkpt>
      <trkpt lat="41.6102850" lon="-0.8677850">
        <ele>248.6</ele>
        <time>2020-12-31T13:28:46Z</time>
      </trkpt>
      <trkpt lat="41.6102580" lon="-0.8677860">
        <ele>248.6</ele>
        <time>2020-12-31T13:28:47Z</time>
      </trkpt>
      <trkpt lat="41.6102270" lon="-0.8677840">
        <ele>248.7</ele>
        <time>2020-12-31T13:28:48Z</time>
      </trkpt>
      <trkpt lat="41.6101890" lon="-0.8677810">
        <ele>248.8</ele>
        <time>2020-12-31T13:28:50Z</time>
      </trkpt>
      <trkpt lat="41.6101460" lon="-0.8677810">
        <ele>248.9</ele>
        <time>2020-12-31T13:28:51Z</time>
      </trkpt>
      <trkpt lat="41.6100870" lon="-0.8677830">
        <ele>249.1</ele>
        <time>2020-12-31T13:28:52Z</time>
      </trkpt>
      <trkpt lat="41.6100410" lon="-0.8677980">
        <ele>249.2</ele>
        <time>2020-12-31T13:28:53Z</time>
      </trkpt>
      <trkpt lat="41.6099610" lon="-0.8678400">
        <ele>249.6</ele>
        <time>2020-12-31T13:28:55Z</time>
      </trkpt>
      <trkpt lat="41.6099240" lon="-0.8678750">
        <ele>249.8</ele>
        <time>2020-12-31T13:28:56Z</time>
      </trkpt>
      <trkpt lat="41.6098850" lon="-0.8679120">
        <ele>249.9</ele>
        <time>2020-12-31T13:28:57Z</time>
      </trkpt>
      <trkpt lat="41.6098420" lon="-0.8679550">
        <ele>250.2</ele>
        <time>2020-12-31T13:28:58Z</time>
      </trkpt>
      <trkpt lat="41.6097940" lon="-0.8680120">
        <ele>250.5</ele>
        <time>2020-12-31T13:29:00Z</time>
      </trkpt>
      <trkpt lat="41.6097740" lon="-0.8680690">
        <ele>250.8</ele>
        <time>2020-12-31T13:29:01Z</time>
      </trkpt>
      <trkpt lat="41.6097520" lon="-0.8681060">
        <ele>251.0</ele>
        <time>2020-12-31T13:29:02Z</time>
      </trkpt>
      <trkpt lat="41.6097250" lon="-0.8681460">
        <ele>251.2</ele>
        <time>2020-12-31T13:29:03Z</time>
      </trkpt>
      <trkpt lat="41.6096850" lon="-0.8682040">
        <ele>251.5</ele>
        <time>2020-12-31T13:29:05Z</time>
      </trkpt>
      <trkpt lat="41.6096560" lon="-0.8682530">
        <ele>251.8</ele>
        <time>2020-12-31T13:29:06Z</time>
      </trkpt>
      <trkpt lat="41.6096310" lon="-0.8682930">
        <ele>252.1</ele>
        <time>2020-12-31T13:29:07Z</time>
      </trkpt>
      <trkpt lat="41.6095790" lon="-0.8683510">
        <ele>252.5</ele>
        <time>2020-12-31T13:29:09Z</time>
      </trkpt>
      <trkpt lat="41.6095330" lon="-0.8683830">
        <ele>252.9</ele>
        <time>2020-12-31T13:29:10Z</time>
      </trkpt>
      <trkpt lat="41.6095000" lon="-0.8683700">
        <ele>253.2</ele>
        <time>2020-12-31T13:29:11Z</time>
      </trkpt>
      <trkpt lat="41.6094630" lon="-0.8683550">
        <ele>254.5</ele>
        <time>2020-12-31T13:29:13Z</time>
      </trkpt>
      <trkpt lat="41.6094270" lon="-0.8683390">
        <ele>254.3</ele>
        <time>2020-12-31T13:29:14Z</time>
      </trkpt>
      <trkpt lat="41.6093960" lon="-0.8683210">
        <ele>254.5</ele>
        <time>2020-12-31T13:29:15Z</time>
      </trkpt>
      <trkpt lat="41.6093680" lon="-0.8683000">
        <ele>254.6</ele>
        <time>2020-12-31T13:29:16Z</time>
      </trkpt>
      <trkpt lat="41.6093610" lon="-0.8682920">
        <ele>254.6</ele>
        <time>2020-12-31T13:29:17Z</time>
      </trkpt>
      <trkpt lat="41.6093550" lon="-0.8682750">
        <ele>254.7</ele>
        <time>2020-12-31T13:29:18Z</time>
      </trkpt>
      <trkpt lat="41.6093280" lon="-0.8682550">
        <ele>254.8</ele>
        <time>2020-12-31T13:29:20Z</time>
      </trkpt>
      <trkpt lat="41.6092990" lon="-0.8682550">
        <ele>254.8</ele>
        <time>2020-12-31T13:29:21Z</time>
      </trkpt>
      <trkpt lat="41.6092340" lon="-0.8682470">
        <ele>254.8</ele>
        <time>2020-12-31T13:29:23Z</time>
      </trkpt>
      <trkpt lat="41.6091220" lon="-0.8682020">
        <ele>254.5</ele>
        <time>2020-12-31T13:29:24Z</time>
      </trkpt>
      <trkpt lat="41.6090590" lon="-0.8681660">
        <ele>254.3</ele>
        <time>2020-12-31T13:29:25Z</time>
      </trkpt>
      <trkpt lat="41.6089340" lon="-0.8680730">
        <ele>254.4</ele>
        <time>2020-12-31T13:29:27Z</time>
      </trkpt>
      <trkpt lat="41.6088450" lon="-0.8680410">
        <ele>254.6</ele>
        <time>2020-12-31T13:29:29Z</time>
      </trkpt>
      <trkpt lat="41.6088000" lon="-0.8680520">
        <ele>254.6</ele>
        <time>2020-12-31T13:29:30Z</time>
      </trkpt>
      <trkpt lat="41.6087220" lon="-0.8680800">
        <ele>254.8</ele>
        <time>2020-12-31T13:29:32Z</time>
      </trkpt>
      <trkpt lat="41.6086780" lon="-0.8681080">
        <ele>254.9</ele>
        <time>2020-12-31T13:29:33Z</time>
      </trkpt>
      <trkpt lat="41.6085970" lon="-0.8681410">
        <ele>255.1</ele>
        <time>2020-12-31T13:29:34Z</time>
      </trkpt>
      <trkpt lat="41.6085520" lon="-0.8681490">
        <ele>255.2</ele>
        <time>2020-12-31T13:29:35Z</time>
      </trkpt>
      <trkpt lat="41.6084990" lon="-0.8681300">
        <ele>255.4</ele>
        <time>2020-12-31T13:29:37Z</time>
      </trkpt>
      <trkpt lat="41.6084350" lon="-0.8681520">
        <ele>255.6</ele>
        <time>2020-12-31T13:29:38Z</time>
      </trkpt>
      <trkpt lat="41.6083880" lon="-0.8681710">
        <ele>255.9</ele>
        <time>2020-12-31T13:29:39Z</time>
      </trkpt>
      <trkpt lat="41.6083540" lon="-0.8681760">
        <ele>256.0</ele>
        <time>2020-12-31T13:29:40Z</time>
      </trkpt>
      <trkpt lat="41.6083170" lon="-0.8681600">
        <ele>256.2</ele>
        <time>2020-12-31T13:29:42Z</time>
      </trkpt>
      <trkpt lat="41.6082730" lon="-0.8681270">
        <ele>256.4</ele>
        <time>2020-12-31T13:29:43Z</time>
      </trkpt>
      <trkpt lat="41.6082350" lon="-0.8681040">
        <ele>256.6</ele>
        <time>2020-12-31T13:29:44Z</time>
      </trkpt>
      <trkpt lat="41.6082010" lon="-0.8681040">
        <ele>256.8</ele>
        <time>2020-12-31T13:29:45Z</time>
      </trkpt>
      <trkpt lat="41.6081520" lon="-0.8680950">
        <ele>257.1</ele>
        <time>2020-12-31T13:29:46Z</time>
      </trkpt>
      <trkpt lat="41.6080970" lon="-0.8680920">
        <ele>257.4</ele>
        <time>2020-12-31T13:29:48Z</time>
      </trkpt>
      <trkpt lat="41.6080110" lon="-0.8681060">
        <ele>258.0</ele>
        <time>2020-12-31T13:29:49Z</time>
      </trkpt>
      <trkpt lat="41.6079530" lon="-0.8681530">
        <ele>258.5</ele>
        <time>2020-12-31T13:29:51Z</time>
      </trkpt>
      <trkpt lat="41.6078740" lon="-0.8681620">
        <ele>259.3</ele>
        <time>2020-12-31T13:29:52Z</time>
      </trkpt>
      <trkpt lat="41.6078090" lon="-0.8681630">
        <ele>260.0</ele>
        <time>2020-12-31T13:29:53Z</time>
      </trkpt>
      <trkpt lat="41.6077580" lon="-0.8681750">
        <ele>260.7</ele>
        <time>2020-12-31T13:29:55Z</time>
      </trkpt>
      <trkpt lat="41.6077220" lon="-0.8682060">
        <ele>261.3</ele>
        <time>2020-12-31T13:29:57Z</time>
      </trkpt>
      <trkpt lat="41.6076960" lon="-0.8682460">
        <ele>261.8</ele>
        <time>2020-12-31T13:29:58Z</time>
      </trkpt>
      <trkpt lat="41.6076870" lon="-0.8682580">
        <ele>261.9</ele>
        <time>2020-12-31T13:29:59Z</time>
      </trkpt>
      <trkpt lat="41.6076660" lon="-0.8682820">
        <ele>262.2</ele>
        <time>2020-12-31T13:30:00Z</time>
      </trkpt>
      <trkpt lat="41.6076330" lon="-0.8683280">
        <ele>262.7</ele>
        <time>2020-12-31T13:30:02Z</time>
      </trkpt>
      <trkpt lat="41.6076140" lon="-0.8683560">
        <ele>263.0</ele>
        <time>2020-12-31T13:30:03Z</time>
      </trkpt>
      <trkpt lat="41.6075950" lon="-0.8683880">
        <ele>263.2</ele>
        <time>2020-12-31T13:30:04Z</time>
      </trkpt>
      <trkpt lat="41.6075690" lon="-0.8684260">
        <ele>263.5</ele>
        <time>2020-12-31T13:30:05Z</time>
      </trkpt>
      <trkpt lat="41.6075600" lon="-0.8684400">
        <ele>263.6</ele>
        <time>2020-12-31T13:30:06Z</time>
      </trkpt>
      <trkpt lat="41.6075400" lon="-0.8684790">
        <ele>263.9</ele>
        <time>2020-12-31T13:30:08Z</time>
      </trkpt>
      <trkpt lat="41.6075210" lon="-0.8685250">
        <ele>264.2</ele>
        <time>2020-12-31T13:30:10Z</time>
      </trkpt>
      <trkpt lat="41.6075070" lon="-0.8685620">
        <ele>264.4</ele>
        <time>2020-12-31T13:30:11Z</time>
      </trkpt>
      <trkpt lat="41.6074920" lon="-0.8686200">
        <ele>264.6</ele>
        <time>2020-12-31T13:30:13Z</time>
      </trkpt>
      <trkpt lat="41.6074810" lon="-0.8686770">
        <ele>264.8</ele>
        <time>2020-12-31T13:30:14Z</time>
      </trkpt>
      <trkpt lat="41.6074750" lon="-0.8687230">
        <ele>265.0</ele>
        <time>2020-12-31T13:30:15Z</time>
      </trkpt>
      <trkpt lat="41.6074730" lon="-0.8687880">
        <ele>265.1</ele>
        <time>2020-12-31T13:30:17Z</time>
      </trkpt>
      <trkpt lat="41.6074730" lon="-0.8688390">
        <ele>265.2</ele>
        <time>2020-12-31T13:30:18Z</time>
      </trkpt>
      <trkpt lat="41.6074730" lon="-0.8688790">
        <ele>265.2</ele>
        <time>2020-12-31T13:30:19Z</time>
      </trkpt>
      <trkpt lat="41.6074690" lon="-0.8689210">
        <ele>265.3</ele>
        <time>2020-12-31T13:30:20Z</time>
      </trkpt>
      <trkpt lat="41.6074590" lon="-0.8689720">
        <ele>265.4</ele>
        <time>2020-12-31T13:30:21Z</time>
      </trkpt>
      <trkpt lat="41.6074430" lon="-0.8690230">
        <ele>265.4</ele>
        <time>2020-12-31T13:30:23Z</time>
      </trkpt>
      <trkpt lat="41.6074220" lon="-0.8690740">
        <ele>265.3</ele>
        <time>2020-12-31T13:30:24Z</time>
      </trkpt>
      <trkpt lat="41.6073960" lon="-0.8691240">
        <ele>265.2</ele>
        <time>2020-12-31T13:30:25Z</time>
      </trkpt>
      <trkpt lat="41.6073740" lon="-0.8691620">
        <ele>265.1</ele>
        <time>2020-12-31T13:30:26Z</time>
      </trkpt>
      <trkpt lat="41.6073450" lon="-0.8692210">
        <ele>265.0</ele>
        <time>2020-12-31T13:30:28Z</time>
      </trkpt>
      <trkpt lat="41.6073180" lon="-0.8692720">
        <ele>264.8</ele>
        <time>2020-12-31T13:30:29Z</time>
      </trkpt>
      <trkpt lat="41.6072640" lon="-0.8693510">
        <ele>264.7</ele>
        <time>2020-12-31T13:30:30Z</time>
      </trkpt>
      <trkpt lat="41.6072230" lon="-0.8694090">
        <ele>264.6</ele>
        <time>2020-12-31T13:30:31Z</time>
      </trkpt>
      <trkpt lat="41.6071860" lon="-0.8694690">
        <ele>264.5</ele>
        <time>2020-12-31T13:30:32Z</time>
      </trkpt>
      <trkpt lat="41.6071240" lon="-0.8695870">
        <ele>264.5</ele>
        <time>2020-12-31T13:30:34Z</time>
      </trkpt>
      <trkpt lat="41.6070950" lon="-0.8696430">
        <ele>264.6</ele>
        <time>2020-12-31T13:30:35Z</time>
      </trkpt>
      <trkpt lat="41.6070330" lon="-0.8697450">
        <ele>264.8</ele>
        <time>2020-12-31T13:30:37Z</time>
      </trkpt>
      <trkpt lat="41.6069770" lon="-0.8698420">
        <ele>265.0</ele>
        <time>2020-12-31T13:30:39Z</time>
      </trkpt>
      <trkpt lat="41.6069660" lon="-0.8698650">
        <ele>265.0</ele>
        <time>2020-12-31T13:30:40Z</time>
      </trkpt>
      <trkpt lat="41.6069330" lon="-0.8699190">
        <ele>265.1</ele>
        <time>2020-12-31T13:30:42Z</time>
      </trkpt>
      <trkpt lat="41.6068850" lon="-0.8699910">
        <ele>265.2</ele>
        <time>2020-12-31T13:30:43Z</time>
      </trkpt>
      <trkpt lat="41.6068390" lon="-0.8700580">
        <ele>265.3</ele>
        <time>2020-12-31T13:30:45Z</time>
      </trkpt>
      <trkpt lat="41.6068010" lon="-0.8701190">
        <ele>265.4</ele>
        <time>2020-12-31T13:30:46Z</time>
      </trkpt>
      <trkpt lat="41.6067420" lon="-0.8702040">
        <ele>265.5</ele>
        <time>2020-12-31T13:30:48Z</time>
      </trkpt>
      <trkpt lat="41.6067150" lon="-0.8702800">
        <ele>265.6</ele>
        <time>2020-12-31T13:30:50Z</time>
      </trkpt>
      <trkpt lat="41.6067410" lon="-0.8703320">
        <ele>265.7</ele>
        <time>2020-12-31T13:30:51Z</time>
      </trkpt>
      <trkpt lat="41.6067110" lon="-0.8703960">
        <ele>265.8</ele>
        <time>2020-12-31T13:30:52Z</time>
      </trkpt>
      <trkpt lat="41.6066750" lon="-0.8704550">
        <ele>265.7</ele>
        <time>2020-12-31T13:30:53Z</time>
      </trkpt>
      <trkpt lat="41.6065900" lon="-0.8704530">
        <ele>265.5</ele>
        <time>2020-12-31T13:30:55Z</time>
      </trkpt>
      <trkpt lat="41.6065450" lon="-0.8704060">
        <ele>265.4</ele>
        <time>2020-12-31T13:30:56Z</time>
      </trkpt>
      <trkpt lat="41.6064760" lon="-0.8703200">
        <ele>265.2</ele>
        <time>2020-12-31T13:30:57Z</time>
      </trkpt>
      <trkpt lat="41.6064010" lon="-0.8702310">
        <ele>265.0</ele>
        <time>2020-12-31T13:30:59Z</time>
      </trkpt>
      <trkpt lat="41.6063600" lon="-0.8701990">
        <ele>265.0</ele>
        <time>2020-12-31T13:31:00Z</time>
      </trkpt>
      <trkpt lat="41.6062780" lon="-0.8701170">
        <ele>264.9</ele>
        <time>2020-12-31T13:31:02Z</time>
      </trkpt>
      <trkpt lat="41.6062000" lon="-0.8700310">
        <ele>264.9</ele>
        <time>2020-12-31T13:31:04Z</time>
      </trkpt>
      <trkpt lat="41.6061560" lon="-0.8699920">
        <ele>264.9</ele>
        <time>2020-12-31T13:31:05Z</time>
      </trkpt>
      <trkpt lat="41.6060780" lon="-0.8699140">
        <ele>265.1</ele>
        <time>2020-12-31T13:31:07Z</time>
      </trkpt>
      <trkpt lat="41.6060180" lon="-0.8698400">
        <ele>265.4</ele>
        <time>2020-12-31T13:31:09Z</time>
      </trkpt>
      <trkpt lat="41.6059890" lon="-0.8698080">
        <ele>265.5</ele>
        <time>2020-12-31T13:31:10Z</time>
      </trkpt>
      <trkpt lat="41.6059310" lon="-0.8697480">
        <ele>265.8</ele>
        <time>2020-12-31T13:31:12Z</time>
      </trkpt>
      <trkpt lat="41.6058700" lon="-0.8696700">
        <ele>266.2</ele>
        <time>2020-12-31T13:31:14Z</time>
      </trkpt>
      <trkpt lat="41.6058090" lon="-0.8696120">
        <ele>266.6</ele>
        <time>2020-12-31T13:31:15Z</time>
      </trkpt>
      <trkpt lat="41.6057870" lon="-0.8695540">
        <ele>266.9</ele>
        <time>2020-12-31T13:31:17Z</time>
      </trkpt>
      <trkpt lat="41.6057720" lon="-0.8695020">
        <ele>267.0</ele>
        <time>2020-12-31T13:31:18Z</time>
      </trkpt>
      <trkpt lat="41.6057580" lon="-0.8694520">
        <ele>267.1</ele>
        <time>2020-12-31T13:31:19Z</time>
      </trkpt>
      <trkpt lat="41.6057310" lon="-0.8693870">
        <ele>267.2</ele>
        <time>2020-12-31T13:31:21Z</time>
      </trkpt>
      <trkpt lat="41.6057110" lon="-0.8693350">
        <ele>267.3</ele>
        <time>2020-12-31T13:31:22Z</time>
      </trkpt>
      <trkpt lat="41.6056860" lon="-0.8692870">
        <ele>267.3</ele>
        <time>2020-12-31T13:31:23Z</time>
      </trkpt>
      <trkpt lat="41.6056150" lon="-0.8691900">
        <ele>267.4</ele>
        <time>2020-12-31T13:31:25Z</time>
      </trkpt>
      <trkpt lat="41.6055770" lon="-0.8691330">
        <ele>267.4</ele>
        <time>2020-12-31T13:31:26Z</time>
      </trkpt>
      <trkpt lat="41.6054920" lon="-0.8690210">
        <ele>267.3</ele>
        <time>2020-12-31T13:31:28Z</time>
      </trkpt>
      <trkpt lat="41.6053990" lon="-0.8689140">
        <ele>267.3</ele>
        <time>2020-12-31T13:31:30Z</time>
      </trkpt>
      <trkpt lat="41.6053510" lon="-0.8688620">
        <ele>267.4</ele>
        <time>2020-12-31T13:31:31Z</time>
      </trkpt>
      <trkpt lat="41.6053130" lon="-0.8688020">
        <ele>267.5</ele>
        <time>2020-12-31T13:31:32Z</time>
      </trkpt>
      <trkpt lat="41.6052330" lon="-0.8687050">
        <ele>267.7</ele>
        <time>2020-12-31T13:31:34Z</time>
      </trkpt>
      <trkpt lat="41.6051570" lon="-0.8686150">
        <ele>268.1</ele>
        <time>2020-12-31T13:31:36Z</time>
      </trkpt>
      <trkpt lat="41.6051240" lon="-0.8685660">
        <ele>268.3</ele>
        <time>2020-12-31T13:31:37Z</time>
      </trkpt>
      <trkpt lat="41.6050700" lon="-0.8684950">
        <ele>268.9</ele>
        <time>2020-12-31T13:31:39Z</time>
      </trkpt>
      <trkpt lat="41.6050470" lon="-0.8684680">
        <ele>269.1</ele>
        <time>2020-12-31T13:31:40Z</time>
      </trkpt>
      <trkpt lat="41.6049830" lon="-0.8683950">
        <ele>269.8</ele>
        <time>2020-12-31T13:31:42Z</time>
      </trkpt>
      <trkpt lat="41.6049340" lon="-0.8683400">
        <ele>270.4</ele>
        <time>2020-12-31T13:31:44Z</time>
      </trkpt>
      <trkpt lat="41.6048720" lon="-0.8682710">
        <ele>271.1</ele>
        <time>2020-12-31T13:31:45Z</time>
      </trkpt>
      <trkpt lat="41.6048540" lon="-0.8682450">
        <ele>271.3</ele>
        <time>2020-12-31T13:31:46Z</time>
      </trkpt>
      <trkpt lat="41.6048270" lon="-0.8682160">
        <ele>271.6</ele>
        <time>2020-12-31T13:31:47Z</time>
      </trkpt>
      <trkpt lat="41.6048000" lon="-0.8681840">
        <ele>271.9</ele>
        <time>2020-12-31T13:31:48Z</time>
      </trkpt>
      <trkpt lat="41.6047630" lon="-0.8681460">
        <ele>272.2</ele>
        <time>2020-12-31T13:31:49Z</time>
      </trkpt>
      <trkpt lat="41.6047250" lon="-0.8681060">
        <ele>272.6</ele>
        <time>2020-12-31T13:31:51Z</time>
      </trkpt>
      <trkpt lat="41.6046920" lon="-0.8680670">
        <ele>272.9</ele>
        <time>2020-12-31T13:31:52Z</time>
      </trkpt>
      <trkpt lat="41.6046590" lon="-0.8680290">
        <ele>273.2</ele>
        <time>2020-12-31T13:31:53Z</time>
      </trkpt>
      <trkpt lat="41.6046320" lon="-0.8679970">
        <ele>273.5</ele>
        <time>2020-12-31T13:31:54Z</time>
      </trkpt>
      <trkpt lat="41.6046060" lon="-0.8679650">
        <ele>273.7</ele>
        <time>2020-12-31T13:31:55Z</time>
      </trkpt>
      <trkpt lat="41.6045650" lon="-0.8679160">
        <ele>274.2</ele>
        <time>2020-12-31T13:31:57Z</time>
      </trkpt>
      <trkpt lat="41.6045430" lon="-0.8678930">
        <ele>274.4</ele>
        <time>2020-12-31T13:31:58Z</time>
      </trkpt>
      <trkpt lat="41.6045130" lon="-0.8678580">
        <ele>274.7</ele>
        <time>2020-12-31T13:31:59Z</time>
      </trkpt>
      <trkpt lat="41.6044920" lon="-0.8678330">
        <ele>275.0</ele>
        <time>2020-12-31T13:32:01Z</time>
      </trkpt>
      <trkpt lat="41.6044720" lon="-0.8678090">
        <ele>275.2</ele>
        <time>2020-12-31T13:32:02Z</time>
      </trkpt>
      <trkpt lat="41.6044450" lon="-0.8677750">
        <ele>275.5</ele>
        <time>2020-12-31T13:32:03Z</time>
      </trkpt>
      <trkpt lat="41.6044130" lon="-0.8677380">
        <ele>275.9</ele>
        <time>2020-12-31T13:32:05Z</time>
      </trkpt>
      <trkpt lat="41.6043820" lon="-0.8676990">
        <ele>276.2</ele>
        <time>2020-12-31T13:32:06Z</time>
      </trkpt>
      <trkpt lat="41.6043700" lon="-0.8676830">
        <ele>276.4</ele>
        <time>2020-12-31T13:32:07Z</time>
      </trkpt>
      <trkpt lat="41.6043410" lon="-0.8676350">
        <ele>276.8</ele>
        <time>2020-12-31T13:32:09Z</time>
      </trkpt>
      <trkpt lat="41.6043150" lon="-0.8676010">
        <ele>277.1</ele>
        <time>2020-12-31T13:32:10Z</time>
      </trkpt>
      <trkpt lat="41.6043050" lon="-0.8675910">
        <ele>277.2</ele>
        <time>2020-12-31T13:32:11Z</time>
      </trkpt>
      <trkpt lat="41.6042820" lon="-0.8675600">
        <ele>277.5</ele>
        <time>2020-12-31T13:32:12Z</time>
      </trkpt>
      <trkpt lat="41.6042570" lon="-0.8675220">
        <ele>277.8</ele>
        <time>2020-12-31T13:32:14Z</time>
      </trkpt>
      <trkpt lat="41.6042470" lon="-0.8675090">
        <ele>277.9</ele>
        <time>2020-12-31T13:32:15Z</time>
      </trkpt>
      <trkpt lat="41.6042250" lon="-0.8674820">
        <ele>278.2</ele>
        <time>2020-12-31T13:32:16Z</time>
      </trkpt>
      <trkpt lat="41.6041980" lon="-0.8674490">
        <ele>278.5</ele>
        <time>2020-12-31T13:32:18Z</time>
      </trkpt>
      <trkpt lat="41.6041770" lon="-0.8674260">
        <ele>278.7</ele>
        <time>2020-12-31T13:32:19Z</time>
      </trkpt>
      <trkpt lat="41.6041470" lon="-0.8673860">
        <ele>279.1</ele>
        <time>2020-12-31T13:32:21Z</time>
      </trkpt>
      <trkpt lat="41.6041360" lon="-0.8673730">
        <ele>279.2</ele>
        <time>2020-12-31T13:32:22Z</time>
      </trkpt>
      <trkpt lat="41.6041250" lon="-0.8673590">
        <ele>279.3</ele>
        <time>2020-12-31T13:32:23Z</time>
      </trkpt>
      <trkpt lat="41.6041010" lon="-0.8673350">
        <ele>279.6</ele>
        <time>2020-12-31T13:32:24Z</time>
      </trkpt>
      <trkpt lat="41.6040900" lon="-0.8673250">
        <ele>279.7</ele>
        <time>2020-12-31T13:32:25Z</time>
      </trkpt>
      <trkpt lat="41.6040740" lon="-0.8673050">
        <ele>279.8</ele>
        <time>2020-12-31T13:32:26Z</time>
      </trkpt>
      <trkpt lat="41.6040540" lon="-0.8672750">
        <ele>280.1</ele>
        <time>2020-12-31T13:32:28Z</time>
      </trkpt>
      <trkpt lat="41.6040350" lon="-0.8672450">
        <ele>280.3</ele>
        <time>2020-12-31T13:32:29Z</time>
      </trkpt>
      <trkpt lat="41.6040050" lon="-0.8672040">
        <ele>280.6</ele>
        <time>2020-12-31T13:32:31Z</time>
      </trkpt>
      <trkpt lat="41.6039700" lon="-0.8671700">
        <ele>280.9</ele>
        <time>2020-12-31T13:32:32Z</time>
      </trkpt>
      <trkpt lat="41.6039560" lon="-0.8671560">
        <ele>281.0</ele>
        <time>2020-12-31T13:32:33Z</time>
      </trkpt>
      <trkpt lat="41.6039280" lon="-0.8671200">
        <ele>281.3</ele>
        <time>2020-12-31T13:32:34Z</time>
      </trkpt>
      <trkpt lat="41.6039190" lon="-0.8671080">
        <ele>281.4</ele>
        <time>2020-12-31T13:32:35Z</time>
      </trkpt>
      <trkpt lat="41.6038910" lon="-0.8670800">
        <ele>281.6</ele>
        <time>2020-12-31T13:32:37Z</time>
      </trkpt>
      <trkpt lat="41.6038670" lon="-0.8670590">
        <ele>281.7</ele>
        <time>2020-12-31T13:32:38Z</time>
      </trkpt>
      <trkpt lat="41.6038310" lon="-0.8670290">
        <ele>282.0</ele>
        <time>2020-12-31T13:32:40Z</time>
      </trkpt>
      <trkpt lat="41.6038050" lon="-0.8670110">
        <ele>282.1</ele>
        <time>2020-12-31T13:32:41Z</time>
      </trkpt>
      <trkpt lat="41.6037750" lon="-0.8669880">
        <ele>282.3</ele>
        <time>2020-12-31T13:32:42Z</time>
      </trkpt>
      <trkpt lat="41.6037450" lon="-0.8669650">
        <ele>282.5</ele>
        <time>2020-12-31T13:32:43Z</time>
      </trkpt>
      <trkpt lat="41.6037220" lon="-0.8669460">
        <ele>282.6</ele>
        <time>2020-12-31T13:32:44Z</time>
      </trkpt>
      <trkpt lat="41.6036980" lon="-0.8669250">
        <ele>282.8</ele>
        <time>2020-12-31T13:32:45Z</time>
      </trkpt>
      <trkpt lat="41.6036670" lon="-0.8668910">
        <ele>283.0</ele>
        <time>2020-12-31T13:32:47Z</time>
      </trkpt>
      <trkpt lat="41.6036570" lon="-0.8668790">
        <ele>283.0</ele>
        <time>2020-12-31T13:32:48Z</time>
      </trkpt>
      <trkpt lat="41.6036360" lon="-0.8668540">
        <ele>283.2</ele>
        <time>2020-12-31T13:32:49Z</time>
      </trkpt>
      <trkpt lat="41.6036140" lon="-0.8668310">
        <ele>283.3</ele>
        <time>2020-12-31T13:32:50Z</time>
      </trkpt>
      <trkpt lat="41.6035930" lon="-0.8668120">
        <ele>283.5</ele>
        <time>2020-12-31T13:32:51Z</time>
      </trkpt>
      <trkpt lat="41.6035540" lon="-0.8667740">
        <ele>283.7</ele>
        <time>2020-12-31T13:32:53Z</time>
      </trkpt>
      <trkpt lat="41.6035230" lon="-0.8667450">
        <ele>283.9</ele>
        <time>2020-12-31T13:32:54Z</time>
      </trkpt>
      <trkpt lat="41.6035120" lon="-0.8667360">
        <ele>283.9</ele>
        <time>2020-12-31T13:32:55Z</time>
      </trkpt>
      <trkpt lat="41.6034860" lon="-0.8667180">
        <ele>284.0</ele>
        <time>2020-12-31T13:32:56Z</time>
      </trkpt>
      <trkpt lat="41.6034610" lon="-0.8667040">
        <ele>284.2</ele>
        <time>2020-12-31T13:32:57Z</time>
      </trkpt>
      <trkpt lat="41.6034190" lon="-0.8666860">
        <ele>284.3</ele>
        <time>2020-12-31T13:32:59Z</time>
      </trkpt>
      <trkpt lat="41.6033770" lon="-0.8666730">
        <ele>284.4</ele>
        <time>2020-12-31T13:33:00Z</time>
      </trkpt>
      <trkpt lat="41.6033440" lon="-0.8666700">
        <ele>284.5</ele>
        <time>2020-12-31T13:33:01Z</time>
      </trkpt>
      <trkpt lat="41.6032890" lon="-0.8666650">
        <ele>284.7</ele>
        <time>2020-12-31T13:33:03Z</time>
      </trkpt>
      <trkpt lat="41.6032490" lon="-0.8666650">
        <ele>284.7</ele>
        <time>2020-12-31T13:33:04Z</time>
      </trkpt>
      <trkpt lat="41.6032090" lon="-0.8666690">
        <ele>284.8</ele>
        <time>2020-12-31T13:33:05Z</time>
      </trkpt>
      <trkpt lat="41.6031710" lon="-0.8666730">
        <ele>284.9</ele>
        <time>2020-12-31T13:33:06Z</time>
      </trkpt>
      <trkpt lat="41.6031180" lon="-0.8666800">
        <ele>285.1</ele>
        <time>2020-12-31T13:33:08Z</time>
      </trkpt>
      <trkpt lat="41.6030710" lon="-0.8666890">
        <ele>285.2</ele>
        <time>2020-12-31T13:33:09Z</time>
      </trkpt>
      <trkpt lat="41.6029990" lon="-0.8667040">
        <ele>285.3</ele>
        <time>2020-12-31T13:33:11Z</time>
      </trkpt>
      <trkpt lat="41.6029480" lon="-0.8667150">
        <ele>285.4</ele>
        <time>2020-12-31T13:33:13Z</time>
      </trkpt>
      <trkpt lat="41.6029020" lon="-0.8667220">
        <ele>285.5</ele>
        <time>2020-12-31T13:33:14Z</time>
      </trkpt>
      <trkpt lat="41.6028810" lon="-0.8667240">
        <ele>285.5</ele>
        <time>2020-12-31T13:33:15Z</time>
      </trkpt>
      <trkpt lat="41.6028320" lon="-0.8667280">
        <ele>285.6</ele>
        <time>2020-12-31T13:33:16Z</time>
      </trkpt>
      <trkpt lat="41.6027780" lon="-0.8667350">
        <ele>285.7</ele>
        <time>2020-12-31T13:33:18Z</time>
      </trkpt>
      <trkpt lat="41.6027210" lon="-0.8667470">
        <ele>285.8</ele>
        <time>2020-12-31T13:33:19Z</time>
      </trkpt>
      <trkpt lat="41.6026620" lon="-0.8667510">
        <ele>285.9</ele>
        <time>2020-12-31T13:33:20Z</time>
      </trkpt>
      <trkpt lat="41.6026040" lon="-0.8667570">
        <ele>286.0</ele>
        <time>2020-12-31T13:33:22Z</time>
      </trkpt>
      <trkpt lat="41.6025560" lon="-0.8667640">
        <ele>286.1</ele>
        <time>2020-12-31T13:33:23Z</time>
      </trkpt>
      <trkpt lat="41.6024940" lon="-0.8667750">
        <ele>286.2</ele>
        <time>2020-12-31T13:33:25Z</time>
      </trkpt>
      <trkpt lat="41.6024370" lon="-0.8667770">
        <ele>286.3</ele>
        <time>2020-12-31T13:33:26Z</time>
      </trkpt>
      <trkpt lat="41.6023790" lon="-0.8667790">
        <ele>286.4</ele>
        <time>2020-12-31T13:33:27Z</time>
      </trkpt>
      <trkpt lat="41.6023330" lon="-0.8667800">
        <ele>286.6</ele>
        <time>2020-12-31T13:33:28Z</time>
      </trkpt>
      <trkpt lat="41.6022930" lon="-0.8667820">
        <ele>286.7</ele>
        <time>2020-12-31T13:33:29Z</time>
      </trkpt>
      <trkpt lat="41.6022340" lon="-0.8667900">
        <ele>286.9</ele>
        <time>2020-12-31T13:33:30Z</time>
      </trkpt>
      <trkpt lat="41.6021910" lon="-0.8668050">
        <ele>287.1</ele>
        <time>2020-12-31T13:33:31Z</time>
      </trkpt>
      <trkpt lat="41.6021480" lon="-0.8668210">
        <ele>287.3</ele>
        <time>2020-12-31T13:33:33Z</time>
      </trkpt>
      <trkpt lat="41.6021160" lon="-0.8668290">
        <ele>287.5</ele>
        <time>2020-12-31T13:33:34Z</time>
      </trkpt>
      <trkpt lat="41.6020860" lon="-0.8668380">
        <ele>287.7</ele>
        <time>2020-12-31T13:33:35Z</time>
      </trkpt>
      <trkpt lat="41.6020580" lon="-0.8668460">
        <ele>287.8</ele>
        <time>2020-12-31T13:33:36Z</time>
      </trkpt>
      <trkpt lat="41.6020180" lon="-0.8668470">
        <ele>288.1</ele>
        <time>2020-12-31T13:33:37Z</time>
      </trkpt>
      <trkpt lat="41.6019820" lon="-0.8668360">
        <ele>288.3</ele>
        <time>2020-12-31T13:33:38Z</time>
      </trkpt>
      <trkpt lat="41.6019270" lon="-0.8668220">
        <ele>288.6</ele>
        <time>2020-12-31T13:33:40Z</time>
      </trkpt>
      <trkpt lat="41.6018940" lon="-0.8668290">
        <ele>288.9</ele>
        <time>2020-12-31T13:33:41Z</time>
      </trkpt>
      <trkpt lat="41.6018520" lon="-0.8668600">
        <ele>289.1</ele>
        <time>2020-12-31T13:33:43Z</time>
      </trkpt>
      <trkpt lat="41.6018160" lon="-0.8669020">
        <ele>289.3</ele>
        <time>2020-12-31T13:33:44Z</time>
      </trkpt>
      <trkpt lat="41.6017710" lon="-0.8669520">
        <ele>289.8</ele>
        <time>2020-12-31T13:33:46Z</time>
      </trkpt>
      <trkpt lat="41.6017450" lon="-0.8669840">
        <ele>289.6</ele>
        <time>2020-12-31T13:33:47Z</time>
      </trkpt>
      <trkpt lat="41.6017040" lon="-0.8670280">
        <ele>290.1</ele>
        <time>2020-12-31T13:33:48Z</time>
      </trkpt>
      <trkpt lat="41.6016700" lon="-0.8670630">
        <ele>290.3</ele>
        <time>2020-12-31T13:33:50Z</time>
      </trkpt>
      <trkpt lat="41.6016440" lon="-0.8670840">
        <ele>290.5</ele>
        <time>2020-12-31T13:33:51Z</time>
      </trkpt>
      <trkpt lat="41.6016190" lon="-0.8671040">
        <ele>290.4</ele>
        <time>2020-12-31T13:33:52Z</time>
      </trkpt>
      <trkpt lat="41.6015870" lon="-0.8671300">
        <ele>290.6</ele>
        <time>2020-12-31T13:33:53Z</time>
      </trkpt>
      <trkpt lat="41.6015540" lon="-0.8671590">
        <ele>290.7</ele>
        <time>2020-12-31T13:33:55Z</time>
      </trkpt>
      <trkpt lat="41.6015140" lon="-0.8671870">
        <ele>291.2</ele>
        <time>2020-12-31T13:33:56Z</time>
      </trkpt>
      <trkpt lat="41.6014480" lon="-0.8672340">
        <ele>291.7</ele>
        <time>2020-12-31T13:33:57Z</time>
      </trkpt>
      <trkpt lat="41.6014000" lon="-0.8672680">
        <ele>291.8</ele>
        <time>2020-12-31T13:33:58Z</time>
      </trkpt>
      <trkpt lat="41.6013550" lon="-0.8673040">
        <ele>292.1</ele>
        <time>2020-12-31T13:33:59Z</time>
      </trkpt>
      <trkpt lat="41.6013000" lon="-0.8673410">
        <ele>292.3</ele>
        <time>2020-12-31T13:34:01Z</time>
      </trkpt>
      <trkpt lat="41.6012760" lon="-0.8673150">
        <ele>292.2</ele>
        <time>2020-12-31T13:34:02Z</time>
      </trkpt>
      <trkpt lat="41.6012300" lon="-0.8673750">
        <ele>292.4</ele>
        <time>2020-12-31T13:34:04Z</time>
      </trkpt>
      <trkpt lat="41.6011960" lon="-0.8674120">
        <ele>292.6</ele>
        <time>2020-12-31T13:34:05Z</time>
      </trkpt>
      <trkpt lat="41.6011590" lon="-0.8674400">
        <ele>292.8</ele>
        <time>2020-12-31T13:34:06Z</time>
      </trkpt>
      <trkpt lat="41.6010800" lon="-0.8674960">
        <ele>293.2</ele>
        <time>2020-12-31T13:34:08Z</time>
      </trkpt>
      <trkpt lat="41.6010250" lon="-0.8675350">
        <ele>293.4</ele>
        <time>2020-12-31T13:34:09Z</time>
      </trkpt>
      <trkpt lat="41.6009770" lon="-0.8675640">
        <ele>293.4</ele>
        <time>2020-12-31T13:34:10Z</time>
      </trkpt>
      <trkpt lat="41.6009290" lon="-0.8675940">
        <ele>293.5</ele>
        <time>2020-12-31T13:34:11Z</time>
      </trkpt>
      <trkpt lat="41.6008290" lon="-0.8676610">
        <ele>293.4</ele>
        <time>2020-12-31T13:34:13Z</time>
      </trkpt>
      <trkpt lat="41.6007840" lon="-0.8676900">
        <ele>293.3</ele>
        <time>2020-12-31T13:34:14Z</time>
      </trkpt>
      <trkpt lat="41.6007530" lon="-0.8677110">
        <ele>293.2</ele>
        <time>2020-12-31T13:34:15Z</time>
      </trkpt>
      <trkpt lat="41.6007170" lon="-0.8677340">
        <ele>293.0</ele>
        <time>2020-12-31T13:34:16Z</time>
      </trkpt>
      <trkpt lat="41.6006820" lon="-0.8677670">
        <ele>292.9</ele>
        <time>2020-12-31T13:34:17Z</time>
      </trkpt>
      <trkpt lat="41.6006330" lon="-0.8678090">
        <ele>292.7</ele>
        <time>2020-12-31T13:34:19Z</time>
      </trkpt>
      <trkpt lat="41.6005820" lon="-0.8678630">
        <ele>292.6</ele>
        <time>2020-12-31T13:34:20Z</time>
      </trkpt>
      <trkpt lat="41.6005320" lon="-0.8678910">
        <ele>292.7</ele>
        <time>2020-12-31T13:34:22Z</time>
      </trkpt>
      <trkpt lat="41.6005070" lon="-0.8679020">
        <ele>292.7</ele>
        <time>2020-12-31T13:34:23Z</time>
      </trkpt>
      <trkpt lat="41.6004750" lon="-0.8679640">
        <ele>292.7</ele>
        <time>2020-12-31T13:34:25Z</time>
      </trkpt>
      <trkpt lat="41.6004430" lon="-0.8680280">
        <ele>292.7</ele>
        <time>2020-12-31T13:34:26Z</time>
      </trkpt>
      <trkpt lat="41.6004100" lon="-0.8680960">
        <ele>292.8</ele>
        <time>2020-12-31T13:34:27Z</time>
      </trkpt>
      <trkpt lat="41.6003750" lon="-0.8681810">
        <ele>292.9</ele>
        <time>2020-12-31T13:34:29Z</time>
      </trkpt>
      <trkpt lat="41.6003550" lon="-0.8682310">
        <ele>293.0</ele>
        <time>2020-12-31T13:34:30Z</time>
      </trkpt>
      <trkpt lat="41.6003340" lon="-0.8682880">
        <ele>293.3</ele>
        <time>2020-12-31T13:34:31Z</time>
      </trkpt>
      <trkpt lat="41.6003190" lon="-0.8683380">
        <ele>293.6</ele>
        <time>2020-12-31T13:34:33Z</time>
      </trkpt>
      <trkpt lat="41.6003080" lon="-0.8683850">
        <ele>293.8</ele>
        <time>2020-12-31T13:34:34Z</time>
      </trkpt>
      <trkpt lat="41.6002970" lon="-0.8684330">
        <ele>294.1</ele>
        <time>2020-12-31T13:34:35Z</time>
      </trkpt>
      <trkpt lat="41.6002870" lon="-0.8684720">
        <ele>294.3</ele>
        <time>2020-12-31T13:34:36Z</time>
      </trkpt>
      <trkpt lat="41.6002670" lon="-0.8685300">
        <ele>294.7</ele>
        <time>2020-12-31T13:34:38Z</time>
      </trkpt>
      <trkpt lat="41.6002580" lon="-0.8685460">
        <ele>294.9</ele>
        <time>2020-12-31T13:34:39Z</time>
      </trkpt>
      <trkpt lat="41.6002490" lon="-0.8685610">
        <ele>295.0</ele>
        <time>2020-12-31T13:34:41Z</time>
      </trkpt>
      <trkpt lat="41.6002400" lon="-0.8685770">
        <ele>295.1</ele>
        <time>2020-12-31T13:34:42Z</time>
      </trkpt>
      <trkpt lat="41.6002310" lon="-0.8685920">
        <ele>295.3</ele>
        <time>2020-12-31T13:34:43Z</time>
      </trkpt>
      <trkpt lat="41.6002160" lon="-0.8686420">
        <ele>295.6</ele>
        <time>2020-12-31T13:34:44Z</time>
      </trkpt>
      <trkpt lat="41.6001960" lon="-0.8687050">
        <ele>296.1</ele>
        <time>2020-12-31T13:34:45Z</time>
      </trkpt>
      <trkpt lat="41.6001680" lon="-0.8687890">
        <ele>296.8</ele>
        <time>2020-12-31T13:34:47Z</time>
      </trkpt>
      <trkpt lat="41.6001540" lon="-0.8688500">
        <ele>297.2</ele>
        <time>2020-12-31T13:34:48Z</time>
      </trkpt>
      <trkpt lat="41.6001370" lon="-0.8689130">
        <ele>297.6</ele>
        <time>2020-12-31T13:34:49Z</time>
      </trkpt>
      <trkpt lat="41.6001210" lon="-0.8689700">
        <ele>298.0</ele>
        <time>2020-12-31T13:34:51Z</time>
      </trkpt>
      <trkpt lat="41.6001050" lon="-0.8690220">
        <ele>298.4</ele>
        <time>2020-12-31T13:34:52Z</time>
      </trkpt>
      <trkpt lat="41.6000920" lon="-0.8690740">
        <ele>298.8</ele>
        <time>2020-12-31T13:34:53Z</time>
      </trkpt>
      <trkpt lat="41.6000770" lon="-0.8691280">
        <ele>299.2</ele>
        <time>2020-12-31T13:34:54Z</time>
      </trkpt>
      <trkpt lat="41.6000620" lon="-0.8691900">
        <ele>299.6</ele>
        <time>2020-12-31T13:34:55Z</time>
      </trkpt>
      <trkpt lat="41.6000470" lon="-0.8692390">
        <ele>300.0</ele>
        <time>2020-12-31T13:34:56Z</time>
      </trkpt>
      <trkpt lat="41.6000320" lon="-0.8693010">
        <ele>300.5</ele>
        <time>2020-12-31T13:34:58Z</time>
      </trkpt>
      <trkpt lat="41.6000080" lon="-0.8693550">
        <ele>300.9</ele>
        <time>2020-12-31T13:34:59Z</time>
      </trkpt>
      <trkpt lat="41.5999830" lon="-0.8694130">
        <ele>301.4</ele>
        <time>2020-12-31T13:35:01Z</time>
      </trkpt>
      <trkpt lat="41.5999410" lon="-0.8694690">
        <ele>302.0</ele>
        <time>2020-12-31T13:35:03Z</time>
      </trkpt>
      <trkpt lat="41.5999120" lon="-0.8695020">
        <ele>302.4</ele>
        <time>2020-12-31T13:35:04Z</time>
      </trkpt>
      <trkpt lat="41.5998720" lon="-0.8695260">
        <ele>302.9</ele>
        <time>2020-12-31T13:35:05Z</time>
      </trkpt>
      <trkpt lat="41.5998300" lon="-0.8695580">
        <ele>303.4</ele>
        <time>2020-12-31T13:35:06Z</time>
      </trkpt>
      <trkpt lat="41.5998120" lon="-0.8695990">
        <ele>303.7</ele>
        <time>2020-12-31T13:35:08Z</time>
      </trkpt>
      <trkpt lat="41.5997970" lon="-0.8696350">
        <ele>304.0</ele>
        <time>2020-12-31T13:35:09Z</time>
      </trkpt>
      <trkpt lat="41.5997760" lon="-0.8696650">
        <ele>304.3</ele>
        <time>2020-12-31T13:35:10Z</time>
      </trkpt>
      <trkpt lat="41.5997480" lon="-0.8696870">
        <ele>304.6</ele>
        <time>2020-12-31T13:35:11Z</time>
      </trkpt>
      <trkpt lat="41.5997260" lon="-0.8697190">
        <ele>304.9</ele>
        <time>2020-12-31T13:35:12Z</time>
      </trkpt>
      <trkpt lat="41.5997070" lon="-0.8697700">
        <ele>305.2</ele>
        <time>2020-12-31T13:35:14Z</time>
      </trkpt>
      <trkpt lat="41.5996910" lon="-0.8698060">
        <ele>305.5</ele>
        <time>2020-12-31T13:35:15Z</time>
      </trkpt>
      <trkpt lat="41.5996690" lon="-0.8698460">
        <ele>305.8</ele>
        <time>2020-12-31T13:35:16Z</time>
      </trkpt>
      <trkpt lat="41.5996480" lon="-0.8698890">
        <ele>306.0</ele>
        <time>2020-12-31T13:35:18Z</time>
      </trkpt>
      <trkpt lat="41.5996400" lon="-0.8699060">
        <ele>306.1</ele>
        <time>2020-12-31T13:35:19Z</time>
      </trkpt>
      <trkpt lat="41.5996240" lon="-0.8699370">
        <ele>306.3</ele>
        <time>2020-12-31T13:35:20Z</time>
      </trkpt>
      <trkpt lat="41.5996110" lon="-0.8699780">
        <ele>306.5</ele>
        <time>2020-12-31T13:35:21Z</time>
      </trkpt>
      <trkpt lat="41.5996060" lon="-0.8699930">
        <ele>306.6</ele>
        <time>2020-12-31T13:35:22Z</time>
      </trkpt>
      <trkpt lat="41.5995900" lon="-0.8700400">
        <ele>306.8</ele>
        <time>2020-12-31T13:35:23Z</time>
      </trkpt>
      <trkpt lat="41.5995840" lon="-0.8700570">
        <ele>306.8</ele>
        <time>2020-12-31T13:35:24Z</time>
      </trkpt>
      <trkpt lat="41.5995720" lon="-0.8700930">
        <ele>306.9</ele>
        <time>2020-12-31T13:35:26Z</time>
      </trkpt>
      <trkpt lat="41.5995600" lon="-0.8701290">
        <ele>307.0</ele>
        <time>2020-12-31T13:35:27Z</time>
      </trkpt>
      <trkpt lat="41.5995470" lon="-0.8701610">
        <ele>307.1</ele>
        <time>2020-12-31T13:35:28Z</time>
      </trkpt>
      <trkpt lat="41.5995330" lon="-0.8702010">
        <ele>307.2</ele>
        <time>2020-12-31T13:35:29Z</time>
      </trkpt>
      <trkpt lat="41.5995190" lon="-0.8702490">
        <ele>307.3</ele>
        <time>2020-12-31T13:35:30Z</time>
      </trkpt>
      <trkpt lat="41.5995130" lon="-0.8702620">
        <ele>307.4</ele>
        <time>2020-12-31T13:35:31Z</time>
      </trkpt>
      <trkpt lat="41.5994900" lon="-0.8703120">
        <ele>307.5</ele>
        <time>2020-12-31T13:35:33Z</time>
      </trkpt>
      <trkpt lat="41.5994820" lon="-0.8703310">
        <ele>307.5</ele>
        <time>2020-12-31T13:35:34Z</time>
      </trkpt>
      <trkpt lat="41.5994740" lon="-0.8703490">
        <ele>307.5</ele>
        <time>2020-12-31T13:35:35Z</time>
      </trkpt>
      <trkpt lat="41.5994640" lon="-0.8703720">
        <ele>307.6</ele>
        <time>2020-12-31T13:35:36Z</time>
      </trkpt>
      <trkpt lat="41.5994450" lon="-0.8704050">
        <ele>307.7</ele>
        <time>2020-12-31T13:35:38Z</time>
      </trkpt>
      <trkpt lat="41.5994270" lon="-0.8704430">
        <ele>307.7</ele>
        <time>2020-12-31T13:35:39Z</time>
      </trkpt>
      <trkpt lat="41.5994220" lon="-0.8704530">
        <ele>307.8</ele>
        <time>2020-12-31T13:35:40Z</time>
      </trkpt>
      <trkpt lat="41.5993990" lon="-0.8705040">
        <ele>307.9</ele>
        <time>2020-12-31T13:35:42Z</time>
      </trkpt>
      <trkpt lat="41.5993830" lon="-0.8705310">
        <ele>307.9</ele>
        <time>2020-12-31T13:35:43Z</time>
      </trkpt>
      <trkpt lat="41.5993670" lon="-0.8705600">
        <ele>308.0</ele>
        <time>2020-12-31T13:35:45Z</time>
      </trkpt>
      <trkpt lat="41.5993470" lon="-0.8706110">
        <ele>308.1</ele>
        <time>2020-12-31T13:35:46Z</time>
      </trkpt>
      <trkpt lat="41.5993380" lon="-0.8706330">
        <ele>308.1</ele>
        <time>2020-12-31T13:35:47Z</time>
      </trkpt>
      <trkpt lat="41.5993220" lon="-0.8706710">
        <ele>308.2</ele>
        <time>2020-12-31T13:35:48Z</time>
      </trkpt>
      <trkpt lat="41.5993080" lon="-0.8707050">
        <ele>308.3</ele>
        <time>2020-12-31T13:35:49Z</time>
      </trkpt>
      <trkpt lat="41.5992850" lon="-0.8707610">
        <ele>308.4</ele>
        <time>2020-12-31T13:35:51Z</time>
      </trkpt>
      <trkpt lat="41.5992700" lon="-0.8707980">
        <ele>308.4</ele>
        <time>2020-12-31T13:35:52Z</time>
      </trkpt>
      <trkpt lat="41.5992560" lon="-0.8708380">
        <ele>308.4</ele>
        <time>2020-12-31T13:35:53Z</time>
      </trkpt>
      <trkpt lat="41.5992370" lon="-0.8708880">
        <ele>308.4</ele>
        <time>2020-12-31T13:35:54Z</time>
      </trkpt>
      <trkpt lat="41.5992300" lon="-0.8709060">
        <ele>308.4</ele>
        <time>2020-12-31T13:35:55Z</time>
      </trkpt>
      <trkpt lat="41.5992080" lon="-0.8709460">
        <ele>308.4</ele>
        <time>2020-12-31T13:35:57Z</time>
      </trkpt>
      <trkpt lat="41.5992000" lon="-0.8709580">
        <ele>308.4</ele>
        <time>2020-12-31T13:35:58Z</time>
      </trkpt>
      <trkpt lat="41.5991770" lon="-0.8709840">
        <ele>308.4</ele>
        <time>2020-12-31T13:35:59Z</time>
      </trkpt>
      <trkpt lat="41.5991410" lon="-0.8710050">
        <ele>308.4</ele>
        <time>2020-12-31T13:36:00Z</time>
      </trkpt>
      <trkpt lat="41.5991290" lon="-0.8710100">
        <ele>308.4</ele>
        <time>2020-12-31T13:36:01Z</time>
      </trkpt>
      <trkpt lat="41.5990990" lon="-0.8710200">
        <ele>308.4</ele>
        <time>2020-12-31T13:36:03Z</time>
      </trkpt>
      <trkpt lat="41.5990360" lon="-0.8710160">
        <ele>308.4</ele>
        <time>2020-12-31T13:36:05Z</time>
      </trkpt>
      <trkpt lat="41.5989820" lon="-0.8710010">
        <ele>308.4</ele>
        <time>2020-12-31T13:36:07Z</time>
      </trkpt>
      <trkpt lat="41.5989330" lon="-0.8709790">
        <ele>308.5</ele>
        <time>2020-12-31T13:36:08Z</time>
      </trkpt>
      <trkpt lat="41.5988700" lon="-0.8709400">
        <ele>308.6</ele>
        <time>2020-12-31T13:36:10Z</time>
      </trkpt>
      <trkpt lat="41.5988280" lon="-0.8709130">
        <ele>308.8</ele>
        <time>2020-12-31T13:36:11Z</time>
      </trkpt>
      <trkpt lat="41.5987520" lon="-0.8708830">
        <ele>309.1</ele>
        <time>2020-12-31T13:36:13Z</time>
      </trkpt>
      <trkpt lat="41.5987150" lon="-0.8708740">
        <ele>309.3</ele>
        <time>2020-12-31T13:36:14Z</time>
      </trkpt>
      <trkpt lat="41.5986750" lon="-0.8708790">
        <ele>309.5</ele>
        <time>2020-12-31T13:36:15Z</time>
      </trkpt>
      <trkpt lat="41.5986270" lon="-0.8708940">
        <ele>309.7</ele>
        <time>2020-12-31T13:36:17Z</time>
      </trkpt>
      <trkpt lat="41.5985950" lon="-0.8709160">
        <ele>309.9</ele>
        <time>2020-12-31T13:36:18Z</time>
      </trkpt>
      <trkpt lat="41.5985650" lon="-0.8709390">
        <ele>310.1</ele>
        <time>2020-12-31T13:36:19Z</time>
      </trkpt>
      <trkpt lat="41.5985270" lon="-0.8709660">
        <ele>310.3</ele>
        <time>2020-12-31T13:36:21Z</time>
      </trkpt>
      <trkpt lat="41.5985090" lon="-0.8709860">
        <ele>310.4</ele>
        <time>2020-12-31T13:36:22Z</time>
      </trkpt>
      <trkpt lat="41.5984810" lon="-0.8710100">
        <ele>310.6</ele>
        <time>2020-12-31T13:36:24Z</time>
      </trkpt>
      <trkpt lat="41.5984570" lon="-0.8710300">
        <ele>310.7</ele>
        <time>2020-12-31T13:36:25Z</time>
      </trkpt>
      <trkpt lat="41.5984230" lon="-0.8710460">
        <ele>310.9</ele>
        <time>2020-12-31T13:36:26Z</time>
      </trkpt>
      <trkpt lat="41.5984130" lon="-0.8710510">
        <ele>310.9</ele>
        <time>2020-12-31T13:36:27Z</time>
      </trkpt>
      <trkpt lat="41.5983870" lon="-0.8710610">
        <ele>311.0</ele>
        <time>2020-12-31T13:36:28Z</time>
      </trkpt>
      <trkpt lat="41.5983580" lon="-0.8710720">
        <ele>311.1</ele>
        <time>2020-12-31T13:36:30Z</time>
      </trkpt>
      <trkpt lat="41.5983300" lon="-0.8710900">
        <ele>311.2</ele>
        <time>2020-12-31T13:36:31Z</time>
      </trkpt>
      <trkpt lat="41.5983200" lon="-0.8710970">
        <ele>311.3</ele>
        <time>2020-12-31T13:36:32Z</time>
      </trkpt>
      <trkpt lat="41.5982810" lon="-0.8711160">
        <ele>311.4</ele>
        <time>2020-12-31T13:36:34Z</time>
      </trkpt>
      <trkpt lat="41.5982550" lon="-0.8711280">
        <ele>311.5</ele>
        <time>2020-12-31T13:36:35Z</time>
      </trkpt>
      <trkpt lat="41.5982050" lon="-0.8711560">
        <ele>311.7</ele>
        <time>2020-12-31T13:36:37Z</time>
      </trkpt>
      <trkpt lat="41.5981690" lon="-0.8711760">
        <ele>311.8</ele>
        <time>2020-12-31T13:36:38Z</time>
      </trkpt>
      <trkpt lat="41.5981320" lon="-0.8711940">
        <ele>311.9</ele>
        <time>2020-12-31T13:36:39Z</time>
      </trkpt>
      <trkpt lat="41.5980840" lon="-0.8712180">
        <ele>312.0</ele>
        <time>2020-12-31T13:36:40Z</time>
      </trkpt>
      <trkpt lat="41.5980270" lon="-0.8712400">
        <ele>312.2</ele>
        <time>2020-12-31T13:36:42Z</time>
      </trkpt>
      <trkpt lat="41.5979950" lon="-0.8712550">
        <ele>312.3</ele>
        <time>2020-12-31T13:36:43Z</time>
      </trkpt>
      <trkpt lat="41.5979530" lon="-0.8712730">
        <ele>312.3</ele>
        <time>2020-12-31T13:36:44Z</time>
      </trkpt>
      <trkpt lat="41.5979090" lon="-0.8712980">
        <ele>312.4</ele>
        <time>2020-12-31T13:36:46Z</time>
      </trkpt>
      <trkpt lat="41.5978810" lon="-0.8713150">
        <ele>312.5</ele>
        <time>2020-12-31T13:36:47Z</time>
      </trkpt>
      <trkpt lat="41.5978510" lon="-0.8713330">
        <ele>312.5</ele>
        <time>2020-12-31T13:36:48Z</time>
      </trkpt>
      <trkpt lat="41.5978130" lon="-0.8713680">
        <ele>312.6</ele>
        <time>2020-12-31T13:36:50Z</time>
      </trkpt>
      <trkpt lat="41.5977860" lon="-0.8713880">
        <ele>312.6</ele>
        <time>2020-12-31T13:36:51Z</time>
      </trkpt>
      <trkpt lat="41.5977540" lon="-0.8714180">
        <ele>312.6</ele>
        <time>2020-12-31T13:36:52Z</time>
      </trkpt>
      <trkpt lat="41.5977260" lon="-0.8714520">
        <ele>312.6</ele>
        <time>2020-12-31T13:36:53Z</time>
      </trkpt>
      <trkpt lat="41.5976850" lon="-0.8715050">
        <ele>312.6</ele>
        <time>2020-12-31T13:36:55Z</time>
      </trkpt>
      <trkpt lat="41.5976550" lon="-0.8715510">
        <ele>312.6</ele>
        <time>2020-12-31T13:36:56Z</time>
      </trkpt>
      <trkpt lat="41.5976350" lon="-0.8715900">
        <ele>312.5</ele>
        <time>2020-12-31T13:36:57Z</time>
      </trkpt>
      <trkpt lat="41.5976030" lon="-0.8716500">
        <ele>312.4</ele>
        <time>2020-12-31T13:36:58Z</time>
      </trkpt>
      <trkpt lat="41.5975770" lon="-0.8716870">
        <ele>312.3</ele>
        <time>2020-12-31T13:36:59Z</time>
      </trkpt>
      <trkpt lat="41.5975490" lon="-0.8717240">
        <ele>312.2</ele>
        <time>2020-12-31T13:37:01Z</time>
      </trkpt>
      <trkpt lat="41.5975140" lon="-0.8717510">
        <ele>312.0</ele>
        <time>2020-12-31T13:37:02Z</time>
      </trkpt>
      <trkpt lat="41.5974620" lon="-0.8717450">
        <ele>311.8</ele>
        <time>2020-12-31T13:37:03Z</time>
      </trkpt>
      <trkpt lat="41.5973590" lon="-0.8717160">
        <ele>311.4</ele>
        <time>2020-12-31T13:37:05Z</time>
      </trkpt>
      <trkpt lat="41.5973500" lon="-0.8716830">
        <ele>311.3</ele>
        <time>2020-12-31T13:37:06Z</time>
      </trkpt>
      <trkpt lat="41.5973290" lon="-0.8716610">
        <ele>311.2</ele>
        <time>2020-12-31T13:37:08Z</time>
      </trkpt>
      <trkpt lat="41.5973020" lon="-0.8716490">
        <ele>311.2</ele>
        <time>2020-12-31T13:37:09Z</time>
      </trkpt>
      <trkpt lat="41.5972950" lon="-0.8716440">
        <ele>311.2</ele>
        <time>2020-12-31T13:37:10Z</time>
      </trkpt>
      <trkpt lat="41.5972800" lon="-0.8716430">
        <ele>311.1</ele>
        <time>2020-12-31T13:37:11Z</time>
      </trkpt>
      <trkpt lat="41.5972630" lon="-0.8716460">
        <ele>311.1</ele>
        <time>2020-12-31T13:37:13Z</time>
      </trkpt>
      <trkpt lat="41.5972170" lon="-0.8716490">
        <ele>311.1</ele>
        <time>2020-12-31T13:37:15Z</time>
      </trkpt>
      <trkpt lat="41.5971680" lon="-0.8716510">
        <ele>311.1</ele>
        <time>2020-12-31T13:37:16Z</time>
      </trkpt>
      <trkpt lat="41.5970950" lon="-0.8716450">
        <ele>311.3</ele>
        <time>2020-12-31T13:37:18Z</time>
      </trkpt>
      <trkpt lat="41.5970280" lon="-0.8716420">
        <ele>311.5</ele>
        <time>2020-12-31T13:37:19Z</time>
      </trkpt>
      <trkpt lat="41.5969580" lon="-0.8716400">
        <ele>311.7</ele>
        <time>2020-12-31T13:37:21Z</time>
      </trkpt>
      <trkpt lat="41.5968930" lon="-0.8716460">
        <ele>312.0</ele>
        <time>2020-12-31T13:37:22Z</time>
      </trkpt>
      <trkpt lat="41.5968510" lon="-0.8716520">
        <ele>312.2</ele>
        <time>2020-12-31T13:37:23Z</time>
      </trkpt>
      <trkpt lat="41.5967850" lon="-0.8716630">
        <ele>312.5</ele>
        <time>2020-12-31T13:37:24Z</time>
      </trkpt>
      <trkpt lat="41.5967400" lon="-0.8716750">
        <ele>312.7</ele>
        <time>2020-12-31T13:37:25Z</time>
      </trkpt>
      <trkpt lat="41.5966950" lon="-0.8716890">
        <ele>312.9</ele>
        <time>2020-12-31T13:37:26Z</time>
      </trkpt>
      <trkpt lat="41.5966400" lon="-0.8717030">
        <ele>313.0</ele>
        <time>2020-12-31T13:37:28Z</time>
      </trkpt>
      <trkpt lat="41.5966020" lon="-0.8717090">
        <ele>313.1</ele>
        <time>2020-12-31T13:37:29Z</time>
      </trkpt>
      <trkpt lat="41.5965390" lon="-0.8717180">
        <ele>313.3</ele>
        <time>2020-12-31T13:37:31Z</time>
      </trkpt>
      <trkpt lat="41.5964930" lon="-0.8717300">
        <ele>313.3</ele>
        <time>2020-12-31T13:37:32Z</time>
      </trkpt>
      <trkpt lat="41.5964360" lon="-0.8717260">
        <ele>313.4</ele>
        <time>2020-12-31T13:37:33Z</time>
      </trkpt>
      <trkpt lat="41.5963790" lon="-0.8717080">
        <ele>313.5</ele>
        <time>2020-12-31T13:37:34Z</time>
      </trkpt>
      <trkpt lat="41.5963330" lon="-0.8716890">
        <ele>313.5</ele>
        <time>2020-12-31T13:37:35Z</time>
      </trkpt>
      <trkpt lat="41.5962490" lon="-0.8716360">
        <ele>313.6</ele>
        <time>2020-12-31T13:37:37Z</time>
      </trkpt>
      <trkpt lat="41.5961810" lon="-0.8715870">
        <ele>313.7</ele>
        <time>2020-12-31T13:37:38Z</time>
      </trkpt>
      <trkpt lat="41.5960470" lon="-0.8715190">
        <ele>313.6</ele>
        <time>2020-12-31T13:37:40Z</time>
      </trkpt>
      <trkpt lat="41.5959700" lon="-0.8715120">
        <ele>313.6</ele>
        <time>2020-12-31T13:37:41Z</time>
      </trkpt>
      <trkpt lat="41.5958980" lon="-0.8715060">
        <ele>313.5</ele>
        <time>2020-12-31T13:37:43Z</time>
      </trkpt>
      <trkpt lat="41.5957990" lon="-0.8715510">
        <ele>314.2</ele>
        <time>2020-12-31T13:37:44Z</time>
      </trkpt>
      <trkpt lat="41.5957540" lon="-0.8715780">
        <ele>314.5</ele>
        <time>2020-12-31T13:37:45Z</time>
      </trkpt>
      <trkpt lat="41.5956990" lon="-0.8716210">
        <ele>315.0</ele>
        <time>2020-12-31T13:37:46Z</time>
      </trkpt>
      <trkpt lat="41.5956290" lon="-0.8716590">
        <ele>315.6</ele>
        <time>2020-12-31T13:37:48Z</time>
      </trkpt>
      <trkpt lat="41.5955580" lon="-0.8716720">
        <ele>316.3</ele>
        <time>2020-12-31T13:37:50Z</time>
      </trkpt>
      <trkpt lat="41.5955270" lon="-0.8716740">
        <ele>316.6</ele>
        <time>2020-12-31T13:37:51Z</time>
      </trkpt>
      <trkpt lat="41.5954890" lon="-0.8716760">
        <ele>317.0</ele>
        <time>2020-12-31T13:37:52Z</time>
      </trkpt>
      <trkpt lat="41.5954460" lon="-0.8716790">
        <ele>317.4</ele>
        <time>2020-12-31T13:37:54Z</time>
      </trkpt>
      <trkpt lat="41.5954120" lon="-0.8716890">
        <ele>317.8</ele>
        <time>2020-12-31T13:37:55Z</time>
      </trkpt>
      <trkpt lat="41.5954010" lon="-0.8716920">
        <ele>317.9</ele>
        <time>2020-12-31T13:37:56Z</time>
      </trkpt>
      <trkpt lat="41.5953790" lon="-0.8717010">
        <ele>318.1</ele>
        <time>2020-12-31T13:37:57Z</time>
      </trkpt>
      <trkpt lat="41.5953550" lon="-0.8717060">
        <ele>318.4</ele>
        <time>2020-12-31T13:37:59Z</time>
      </trkpt>
      <trkpt lat="41.5953260" lon="-0.8717080">
        <ele>318.7</ele>
        <time>2020-12-31T13:38:00Z</time>
      </trkpt>
      <trkpt lat="41.5952970" lon="-0.8717090">
        <ele>318.9</ele>
        <time>2020-12-31T13:38:01Z</time>
      </trkpt>
      <trkpt lat="41.5952550" lon="-0.8717010">
        <ele>319.4</ele>
        <time>2020-12-31T13:38:03Z</time>
      </trkpt>
      <trkpt lat="41.5952210" lon="-0.8717010">
        <ele>319.7</ele>
        <time>2020-12-31T13:38:04Z</time>
      </trkpt>
      <trkpt lat="41.5951890" lon="-0.8717060">
        <ele>320.0</ele>
        <time>2020-12-31T13:38:05Z</time>
      </trkpt>
      <trkpt lat="41.5951540" lon="-0.8717150">
        <ele>320.4</ele>
        <time>2020-12-31T13:38:06Z</time>
      </trkpt>
      <trkpt lat="41.5951190" lon="-0.8717270">
        <ele>320.8</ele>
        <time>2020-12-31T13:38:07Z</time>
      </trkpt>
      <trkpt lat="41.5950770" lon="-0.8717420">
        <ele>321.4</ele>
        <time>2020-12-31T13:38:08Z</time>
      </trkpt>
      <trkpt lat="41.5950310" lon="-0.8717480">
        <ele>322.0</ele>
        <time>2020-12-31T13:38:10Z</time>
      </trkpt>
      <trkpt lat="41.5950150" lon="-0.8717450">
        <ele>322.3</ele>
        <time>2020-12-31T13:38:11Z</time>
      </trkpt>
      <trkpt lat="41.5949990" lon="-0.8717430">
        <ele>322.5</ele>
        <time>2020-12-31T13:38:12Z</time>
      </trkpt>
      <trkpt lat="41.5949830" lon="-0.8717330">
        <ele>322.8</ele>
        <time>2020-12-31T13:38:13Z</time>
      </trkpt>
      <trkpt lat="41.5949680" lon="-0.8717240">
        <ele>323.0</ele>
        <time>2020-12-31T13:38:14Z</time>
      </trkpt>
      <trkpt lat="41.5949280" lon="-0.8717240">
        <ele>323.7</ele>
        <time>2020-12-31T13:38:16Z</time>
      </trkpt>
      <trkpt lat="41.5949150" lon="-0.8717310">
        <ele>323.9</ele>
        <time>2020-12-31T13:38:17Z</time>
      </trkpt>
      <trkpt lat="41.5949030" lon="-0.8717380">
        <ele>324.1</ele>
        <time>2020-12-31T13:38:18Z</time>
      </trkpt>
      <trkpt lat="41.5948760" lon="-0.8717850">
        <ele>324.8</ele>
        <time>2020-12-31T13:38:20Z</time>
      </trkpt>
      <trkpt lat="41.5948700" lon="-0.8718030">
        <ele>325.0</ele>
        <time>2020-12-31T13:38:21Z</time>
      </trkpt>
      <trkpt lat="41.5948650" lon="-0.8718220">
        <ele>325.3</ele>
        <time>2020-12-31T13:38:22Z</time>
      </trkpt>
      <trkpt lat="41.5948510" lon="-0.8718620">
        <ele>325.8</ele>
        <time>2020-12-31T13:38:23Z</time>
      </trkpt>
      <trkpt lat="41.5948450" lon="-0.8718750">
        <ele>326.0</ele>
        <time>2020-12-31T13:38:24Z</time>
      </trkpt>
      <trkpt lat="41.5948350" lon="-0.8719010">
        <ele>326.3</ele>
        <time>2020-12-31T13:38:25Z</time>
      </trkpt>
      <trkpt lat="41.5948260" lon="-0.8719220">
        <ele>326.5</ele>
        <time>2020-12-31T13:38:27Z</time>
      </trkpt>
      <trkpt lat="41.5948130" lon="-0.8719580">
        <ele>326.9</ele>
        <time>2020-12-31T13:38:28Z</time>
      </trkpt>
      <trkpt lat="41.5948090" lon="-0.8719680">
        <ele>327.0</ele>
        <time>2020-12-31T13:38:29Z</time>
      </trkpt>
      <trkpt lat="41.5947860" lon="-0.8720170">
        <ele>327.5</ele>
        <time>2020-12-31T13:38:30Z</time>
      </trkpt>
      <trkpt lat="41.5947750" lon="-0.8720370">
        <ele>327.7</ele>
        <time>2020-12-31T13:38:31Z</time>
      </trkpt>
      <trkpt lat="41.5947530" lon="-0.8720620">
        <ele>328.0</ele>
        <time>2020-12-31T13:38:32Z</time>
      </trkpt>
      <trkpt lat="41.5947240" lon="-0.8720930">
        <ele>328.4</ele>
        <time>2020-12-31T13:38:34Z</time>
      </trkpt>
      <trkpt lat="41.5947160" lon="-0.8721030">
        <ele>328.5</ele>
        <time>2020-12-31T13:38:35Z</time>
      </trkpt>
      <trkpt lat="41.5946800" lon="-0.8721260">
        <ele>328.9</ele>
        <time>2020-12-31T13:38:37Z</time>
      </trkpt>
      <trkpt lat="41.5946520" lon="-0.8721350">
        <ele>329.1</ele>
        <time>2020-12-31T13:38:38Z</time>
      </trkpt>
      <trkpt lat="41.5946240" lon="-0.8721440">
        <ele>329.3</ele>
        <time>2020-12-31T13:38:39Z</time>
      </trkpt>
      <trkpt lat="41.5945960" lon="-0.8721530">
        <ele>329.5</ele>
        <time>2020-12-31T13:38:41Z</time>
      </trkpt>
      <trkpt lat="41.5945690" lon="-0.8721570">
        <ele>329.7</ele>
        <time>2020-12-31T13:38:42Z</time>
      </trkpt>
      <trkpt lat="41.5945420" lon="-0.8721560">
        <ele>329.9</ele>
        <time>2020-12-31T13:38:43Z</time>
      </trkpt>
      <trkpt lat="41.5945010" lon="-0.8721550">
        <ele>330.2</ele>
        <time>2020-12-31T13:38:45Z</time>
      </trkpt>
      <trkpt lat="41.5944730" lon="-0.8721490">
        <ele>330.4</ele>
        <time>2020-12-31T13:38:46Z</time>
      </trkpt>
      <trkpt lat="41.5944390" lon="-0.8721410">
        <ele>330.7</ele>
        <time>2020-12-31T13:38:47Z</time>
      </trkpt>
      <trkpt lat="41.5944260" lon="-0.8721380">
        <ele>330.8</ele>
        <time>2020-12-31T13:38:48Z</time>
      </trkpt>
      <trkpt lat="41.5943970" lon="-0.8721310">
        <ele>331.0</ele>
        <time>2020-12-31T13:38:49Z</time>
      </trkpt>
      <trkpt lat="41.5943420" lon="-0.8721210">
        <ele>331.4</ele>
        <time>2020-12-31T13:38:51Z</time>
      </trkpt>
      <trkpt lat="41.5943230" lon="-0.8721160">
        <ele>331.6</ele>
        <time>2020-12-31T13:38:52Z</time>
      </trkpt>
      <trkpt lat="41.5943040" lon="-0.8721110">
        <ele>331.8</ele>
        <time>2020-12-31T13:38:53Z</time>
      </trkpt>
      <trkpt lat="41.5942670" lon="-0.8721080">
        <ele>332.1</ele>
        <time>2020-12-31T13:38:55Z</time>
      </trkpt>
      <trkpt lat="41.5942380" lon="-0.8721100">
        <ele>332.3</ele>
        <time>2020-12-31T13:38:56Z</time>
      </trkpt>
      <trkpt lat="41.5941870" lon="-0.8721040">
        <ele>332.8</ele>
        <time>2020-12-31T13:38:58Z</time>
      </trkpt>
      <trkpt lat="41.5941690" lon="-0.8720990">
        <ele>333.0</ele>
        <time>2020-12-31T13:38:59Z</time>
      </trkpt>
      <trkpt lat="41.5941520" lon="-0.8720950">
        <ele>333.1</ele>
        <time>2020-12-31T13:39:00Z</time>
      </trkpt>
      <trkpt lat="41.5941130" lon="-0.8720900">
        <ele>333.5</ele>
        <time>2020-12-31T13:39:02Z</time>
      </trkpt>
      <trkpt lat="41.5941000" lon="-0.8720870">
        <ele>333.6</ele>
        <time>2020-12-31T13:39:03Z</time>
      </trkpt>
      <trkpt lat="41.5940740" lon="-0.8720780">
        <ele>333.8</ele>
        <time>2020-12-31T13:39:04Z</time>
      </trkpt>
      <trkpt lat="41.5940530" lon="-0.8720750">
        <ele>333.9</ele>
        <time>2020-12-31T13:39:05Z</time>
      </trkpt>
      <trkpt lat="41.5940200" lon="-0.8720740">
        <ele>334.1</ele>
        <time>2020-12-31T13:39:07Z</time>
      </trkpt>
      <trkpt lat="41.5939920" lon="-0.8720730">
        <ele>334.3</ele>
        <time>2020-12-31T13:39:08Z</time>
      </trkpt>
      <trkpt lat="41.5939600" lon="-0.8720760">
        <ele>334.4</ele>
        <time>2020-12-31T13:39:09Z</time>
      </trkpt>
      <trkpt lat="41.5939220" lon="-0.8720810">
        <ele>334.6</ele>
        <time>2020-12-31T13:39:11Z</time>
      </trkpt>
      <trkpt lat="41.5939080" lon="-0.8720840">
        <ele>334.6</ele>
        <time>2020-12-31T13:39:12Z</time>
      </trkpt>
      <trkpt lat="41.5938770" lon="-0.8720910">
        <ele>334.7</ele>
        <time>2020-12-31T13:39:13Z</time>
      </trkpt>
      <trkpt lat="41.5938430" lon="-0.8721040">
        <ele>334.7</ele>
        <time>2020-12-31T13:39:15Z</time>
      </trkpt>
      <trkpt lat="41.5938330" lon="-0.8721070">
        <ele>334.7</ele>
        <time>2020-12-31T13:39:16Z</time>
      </trkpt>
      <trkpt lat="41.5938160" lon="-0.8721140">
        <ele>334.7</ele>
        <time>2020-12-31T13:39:17Z</time>
      </trkpt>
      <trkpt lat="41.5937870" lon="-0.8721370">
        <ele>334.7</ele>
        <time>2020-12-31T13:39:19Z</time>
      </trkpt>
      <trkpt lat="41.5937580" lon="-0.8721570">
        <ele>334.6</ele>
        <time>2020-12-31T13:39:20Z</time>
      </trkpt>
      <trkpt lat="41.5937470" lon="-0.8721630">
        <ele>334.6</ele>
        <time>2020-12-31T13:39:21Z</time>
      </trkpt>
      <trkpt lat="41.5937210" lon="-0.8721860">
        <ele>334.5</ele>
        <time>2020-12-31T13:39:22Z</time>
      </trkpt>
      <trkpt lat="41.5937110" lon="-0.8721930">
        <ele>334.5</ele>
        <time>2020-12-31T13:39:23Z</time>
      </trkpt>
      <trkpt lat="41.5936840" lon="-0.8722130">
        <ele>334.4</ele>
        <time>2020-12-31T13:39:24Z</time>
      </trkpt>
      <trkpt lat="41.5936620" lon="-0.8722440">
        <ele>334.3</ele>
        <time>2020-12-31T13:39:26Z</time>
      </trkpt>
      <trkpt lat="41.5936460" lon="-0.8722730">
        <ele>334.2</ele>
        <time>2020-12-31T13:39:27Z</time>
      </trkpt>
      <trkpt lat="41.5936300" lon="-0.8723130">
        <ele>334.0</ele>
        <time>2020-12-31T13:39:29Z</time>
      </trkpt>
      <trkpt lat="41.5936070" lon="-0.8723470">
        <ele>333.9</ele>
        <time>2020-12-31T13:39:30Z</time>
      </trkpt>
      <trkpt lat="41.5935990" lon="-0.8723570">
        <ele>333.8</ele>
        <time>2020-12-31T13:39:31Z</time>
      </trkpt>
      <trkpt lat="41.5935800" lon="-0.8723770">
        <ele>333.7</ele>
        <time>2020-12-31T13:39:32Z</time>
      </trkpt>
      <trkpt lat="41.5935400" lon="-0.8724080">
        <ele>333.5</ele>
        <time>2020-12-31T13:39:34Z</time>
      </trkpt>
      <trkpt lat="41.5935130" lon="-0.8724310">
        <ele>333.3</ele>
        <time>2020-12-31T13:39:35Z</time>
      </trkpt>
      <trkpt lat="41.5934900" lon="-0.8724570">
        <ele>333.2</ele>
        <time>2020-12-31T13:39:36Z</time>
      </trkpt>
      <trkpt lat="41.5934590" lon="-0.8724920">
        <ele>333.0</ele>
        <time>2020-12-31T13:39:38Z</time>
      </trkpt>
      <trkpt lat="41.5934380" lon="-0.8725190">
        <ele>332.9</ele>
        <time>2020-12-31T13:39:39Z</time>
      </trkpt>
      <trkpt lat="41.5934180" lon="-0.8725450">
        <ele>332.8</ele>
        <time>2020-12-31T13:39:40Z</time>
      </trkpt>
      <trkpt lat="41.5933100" lon="-0.8726560">
        <ele>333.1</ele>
        <time>2020-12-31T13:39:42Z</time>
      </trkpt>
      <trkpt lat="41.5932410" lon="-0.8727260">
        <ele>333.4</ele>
        <time>2020-12-31T13:39:44Z</time>
      </trkpt>
      <trkpt lat="41.5931870" lon="-0.8728000">
        <ele>333.6</ele>
        <time>2020-12-31T13:39:45Z</time>
      </trkpt>
      <trkpt lat="41.5931120" lon="-0.8728820">
        <ele>333.9</ele>
        <time>2020-12-31T13:39:47Z</time>
      </trkpt>
      <trkpt lat="41.5930530" lon="-0.8729280">
        <ele>334.1</ele>
        <time>2020-12-31T13:39:49Z</time>
      </trkpt>
      <trkpt lat="41.5929970" lon="-0.8729580">
        <ele>334.2</ele>
        <time>2020-12-31T13:39:50Z</time>
      </trkpt>
      <trkpt lat="41.5929270" lon="-0.8729900">
        <ele>334.3</ele>
        <time>2020-12-31T13:39:52Z</time>
      </trkpt>
      <trkpt lat="41.5928840" lon="-0.8730060">
        <ele>334.3</ele>
        <time>2020-12-31T13:39:53Z</time>
      </trkpt>
      <trkpt lat="41.5928400" lon="-0.8730210">
        <ele>334.3</ele>
        <time>2020-12-31T13:39:54Z</time>
      </trkpt>
      <trkpt lat="41.5927870" lon="-0.8730410">
        <ele>334.3</ele>
        <time>2020-12-31T13:39:55Z</time>
      </trkpt>
      <trkpt lat="41.5927400" lon="-0.8730650">
        <ele>334.4</ele>
        <time>2020-12-31T13:39:57Z</time>
      </trkpt>
      <trkpt lat="41.5927030" lon="-0.8730940">
        <ele>334.3</ele>
        <time>2020-12-31T13:39:58Z</time>
      </trkpt>
      <trkpt lat="41.5926700" lon="-0.8731290">
        <ele>334.3</ele>
        <time>2020-12-31T13:39:59Z</time>
      </trkpt>
      <trkpt lat="41.5926430" lon="-0.8731590">
        <ele>334.3</ele>
        <time>2020-12-31T13:40:00Z</time>
      </trkpt>
      <trkpt lat="41.5926150" lon="-0.8731850">
        <ele>334.3</ele>
        <time>2020-12-31T13:40:01Z</time>
      </trkpt>
      <trkpt lat="41.5925740" lon="-0.8732270">
        <ele>334.2</ele>
        <time>2020-12-31T13:40:03Z</time>
      </trkpt>
      <trkpt lat="41.5925210" lon="-0.8732770">
        <ele>334.2</ele>
        <time>2020-12-31T13:40:05Z</time>
      </trkpt>
      <trkpt lat="41.5925050" lon="-0.8733090">
        <ele>334.3</ele>
        <time>2020-12-31T13:40:06Z</time>
      </trkpt>
      <trkpt lat="41.5924770" lon="-0.8733230">
        <ele>334.3</ele>
        <time>2020-12-31T13:40:07Z</time>
      </trkpt>
      <trkpt lat="41.5924670" lon="-0.8733260">
        <ele>334.3</ele>
        <time>2020-12-31T13:40:08Z</time>
      </trkpt>
      <trkpt lat="41.5923960" lon="-0.8733280">
        <ele>334.5</ele>
        <time>2020-12-31T13:40:10Z</time>
      </trkpt>
      <trkpt lat="41.5923540" lon="-0.8733440">
        <ele>334.6</ele>
        <time>2020-12-31T13:40:12Z</time>
      </trkpt>
      <trkpt lat="41.5923300" lon="-0.8733390">
        <ele>334.7</ele>
        <time>2020-12-31T13:40:13Z</time>
      </trkpt>
      <trkpt lat="41.5922940" lon="-0.8733280">
        <ele>334.8</ele>
        <time>2020-12-31T13:40:14Z</time>
      </trkpt>
      <trkpt lat="41.5922580" lon="-0.8733210">
        <ele>335.0</ele>
        <time>2020-12-31T13:40:16Z</time>
      </trkpt>
      <trkpt lat="41.5922210" lon="-0.8733190">
        <ele>335.2</ele>
        <time>2020-12-31T13:40:17Z</time>
      </trkpt>
      <trkpt lat="41.5921850" lon="-0.8733220">
        <ele>335.3</ele>
        <time>2020-12-31T13:40:18Z</time>
      </trkpt>
      <trkpt lat="41.5921390" lon="-0.8733380">
        <ele>335.5</ele>
        <time>2020-12-31T13:40:20Z</time>
      </trkpt>
      <trkpt lat="41.5920940" lon="-0.8733530">
        <ele>335.8</ele>
        <time>2020-12-31T13:40:21Z</time>
      </trkpt>
      <trkpt lat="41.5920530" lon="-0.8733730">
        <ele>336.0</ele>
        <time>2020-12-31T13:40:22Z</time>
      </trkpt>
      <trkpt lat="41.5919890" lon="-0.8733970">
        <ele>336.3</ele>
        <time>2020-12-31T13:40:24Z</time>
      </trkpt>
      <trkpt lat="41.5919420" lon="-0.8734190">
        <ele>336.5</ele>
        <time>2020-12-31T13:40:25Z</time>
      </trkpt>
      <trkpt lat="41.5919070" lon="-0.8734380">
        <ele>336.8</ele>
        <time>2020-12-31T13:40:26Z</time>
      </trkpt>
      <trkpt lat="41.5918950" lon="-0.8734440">
        <ele>336.8</ele>
        <time>2020-12-31T13:40:27Z</time>
      </trkpt>
      <trkpt lat="41.5918610" lon="-0.8734750">
        <ele>337.1</ele>
        <time>2020-12-31T13:40:29Z</time>
      </trkpt>
      <trkpt lat="41.5918470" lon="-0.8734900">
        <ele>337.2</ele>
        <time>2020-12-31T13:40:30Z</time>
      </trkpt>
      <trkpt lat="41.5918230" lon="-0.8735130">
        <ele>337.4</ele>
        <time>2020-12-31T13:40:31Z</time>
      </trkpt>
      <trkpt lat="41.5917960" lon="-0.8735320">
        <ele>337.6</ele>
        <time>2020-12-31T13:40:33Z</time>
      </trkpt>
      <trkpt lat="41.5917710" lon="-0.8735510">
        <ele>337.8</ele>
        <time>2020-12-31T13:40:34Z</time>
      </trkpt>
      <trkpt lat="41.5917330" lon="-0.8735780">
        <ele>338.1</ele>
        <time>2020-12-31T13:40:36Z</time>
      </trkpt>
      <trkpt lat="41.5917090" lon="-0.8736190">
        <ele>338.3</ele>
        <time>2020-12-31T13:40:37Z</time>
      </trkpt>
      <trkpt lat="41.5916970" lon="-0.8736300">
        <ele>338.4</ele>
        <time>2020-12-31T13:40:38Z</time>
      </trkpt>
      <trkpt lat="41.5916770" lon="-0.8736450">
        <ele>338.5</ele>
        <time>2020-12-31T13:40:39Z</time>
      </trkpt>
      <trkpt lat="41.5916480" lon="-0.8736590">
        <ele>338.6</ele>
        <time>2020-12-31T13:40:41Z</time>
      </trkpt>
      <trkpt lat="41.5916330" lon="-0.8736740">
        <ele>338.7</ele>
        <time>2020-12-31T13:40:42Z</time>
      </trkpt>
      <trkpt lat="41.5916110" lon="-0.8736910">
        <ele>338.7</ele>
        <time>2020-12-31T13:40:44Z</time>
      </trkpt>
      <trkpt lat="41.5916060" lon="-0.8737010">
        <ele>338.7</ele>
        <time>2020-12-31T13:40:45Z</time>
      </trkpt>
      <trkpt lat="41.5916150" lon="-0.8736870">
        <ele>338.7</ele>
        <time>2020-12-31T13:40:47Z</time>
      </trkpt>
      <trkpt lat="41.5916190" lon="-0.8736830">
        <ele>338.7</ele>
        <time>2020-12-31T13:40:48Z</time>
      </trkpt>
      <trkpt lat="41.5916210" lon="-0.8736800">
        <ele>338.7</ele>
        <time>2020-12-31T13:40:50Z</time>
      </trkpt>
      <trkpt lat="41.5916210" lon="-0.8736790">
        <ele>338.7</ele>
        <time>2020-12-31T13:40:51Z</time>
      </trkpt>
      <trkpt lat="41.5916210" lon="-0.8736790">
        <ele>338.7</ele>
        <time>2020-12-31T13:40:52Z</time>
      </trkpt>
      <trkpt lat="41.5916220" lon="-0.8736780">
        <ele>338.7</ele>
        <time>2020-12-31T13:40:54Z</time>
      </trkpt>
      <trkpt lat="41.5916000" lon="-0.8737080">
        <ele>338.8</ele>
        <time>2020-12-31T13:42:17Z</time>
      </trkpt>
      <trkpt lat="41.5915730" lon="-0.8737240">
        <ele>338.7</ele>
        <time>2020-12-31T13:42:18Z</time>
      </trkpt>
      <trkpt lat="41.5915460" lon="-0.8737390">
        <ele>338.7</ele>
        <time>2020-12-31T13:42:20Z</time>
      </trkpt>
      <trkpt lat="41.5915140" lon="-0.8737580">
        <ele>338.7</ele>
        <time>2020-12-31T13:42:21Z</time>
      </trkpt>
      <trkpt lat="41.5914810" lon="-0.8737720">
        <ele>338.6</ele>
        <time>2020-12-31T13:42:22Z</time>
      </trkpt>
      <trkpt lat="41.5913950" lon="-0.8737740">
        <ele>338.6</ele>
        <time>2020-12-31T13:42:23Z</time>
      </trkpt>
      <trkpt lat="41.5912780" lon="-0.8737730">
        <ele>338.9</ele>
        <time>2020-12-31T13:42:25Z</time>
      </trkpt>
      <trkpt lat="41.5912120" lon="-0.8737780">
        <ele>339.2</ele>
        <time>2020-12-31T13:42:27Z</time>
      </trkpt>
      <trkpt lat="41.5911930" lon="-0.8737790">
        <ele>339.3</ele>
        <time>2020-12-31T13:42:28Z</time>
      </trkpt>
      <trkpt lat="41.5911420" lon="-0.8738020">
        <ele>339.7</ele>
        <time>2020-12-31T13:42:30Z</time>
      </trkpt>
      <trkpt lat="41.5911090" lon="-0.8738250">
        <ele>339.9</ele>
        <time>2020-12-31T13:42:31Z</time>
      </trkpt>
      <trkpt lat="41.5910840" lon="-0.8738410">
        <ele>340.1</ele>
        <time>2020-12-31T13:42:32Z</time>
      </trkpt>
      <trkpt lat="41.5910520" lon="-0.8738670">
        <ele>340.3</ele>
        <time>2020-12-31T13:42:34Z</time>
      </trkpt>
      <trkpt lat="41.5910300" lon="-0.8738920">
        <ele>340.4</ele>
        <time>2020-12-31T13:42:35Z</time>
      </trkpt>
      <trkpt lat="41.5910090" lon="-0.8739180">
        <ele>340.6</ele>
        <time>2020-12-31T13:42:36Z</time>
      </trkpt>
      <trkpt lat="41.5909880" lon="-0.8739390">
        <ele>340.7</ele>
        <time>2020-12-31T13:42:37Z</time>
      </trkpt>
      <trkpt lat="41.5909590" lon="-0.8739740">
        <ele>340.8</ele>
        <time>2020-12-31T13:42:39Z</time>
      </trkpt>
      <trkpt lat="41.5909310" lon="-0.8740080">
        <ele>340.9</ele>
        <time>2020-12-31T13:42:41Z</time>
      </trkpt>
      <trkpt lat="41.5908950" lon="-0.8740430">
        <ele>340.9</ele>
        <time>2020-12-31T13:42:43Z</time>
      </trkpt>
      <trkpt lat="41.5908710" lon="-0.8740640">
        <ele>340.9</ele>
        <time>2020-12-31T13:42:44Z</time>
      </trkpt>
      <trkpt lat="41.5908460" lon="-0.8741000">
        <ele>341.0</ele>
        <time>2020-12-31T13:42:45Z</time>
      </trkpt>
      <trkpt lat="41.5908370" lon="-0.8741150">
        <ele>341.0</ele>
        <time>2020-12-31T13:42:46Z</time>
      </trkpt>
      <trkpt lat="41.5908040" lon="-0.8741510">
        <ele>341.1</ele>
        <time>2020-12-31T13:42:47Z</time>
      </trkpt>
      <trkpt lat="41.5907740" lon="-0.8741720">
        <ele>341.1</ele>
        <time>2020-12-31T13:42:49Z</time>
      </trkpt>
      <trkpt lat="41.5907650" lon="-0.8741780">
        <ele>341.1</ele>
        <time>2020-12-31T13:42:50Z</time>
      </trkpt>
      <trkpt lat="41.5907360" lon="-0.8741980">
        <ele>341.2</ele>
        <time>2020-12-31T13:42:51Z</time>
      </trkpt>
      <trkpt lat="41.5907090" lon="-0.8742090">
        <ele>341.3</ele>
        <time>2020-12-31T13:42:52Z</time>
      </trkpt>
      <trkpt lat="41.5906660" lon="-0.8742240">
        <ele>341.5</ele>
        <time>2020-12-31T13:42:53Z</time>
      </trkpt>
      <trkpt lat="41.5906480" lon="-0.8742290">
        <ele>341.6</ele>
        <time>2020-12-31T13:42:54Z</time>
      </trkpt>
      <trkpt lat="41.5906070" lon="-0.8742290">
        <ele>341.8</ele>
        <time>2020-12-31T13:42:56Z</time>
      </trkpt>
      <trkpt lat="41.5905750" lon="-0.8742260">
        <ele>341.9</ele>
        <time>2020-12-31T13:42:57Z</time>
      </trkpt>
      <trkpt lat="41.5905460" lon="-0.8742180">
        <ele>342.1</ele>
        <time>2020-12-31T13:42:58Z</time>
      </trkpt>
      <trkpt lat="41.5905180" lon="-0.8742100">
        <ele>342.2</ele>
        <time>2020-12-31T13:42:59Z</time>
      </trkpt>
      <trkpt lat="41.5904760" lon="-0.8741870">
        <ele>342.5</ele>
        <time>2020-12-31T13:43:01Z</time>
      </trkpt>
      <trkpt lat="41.5904360" lon="-0.8741690">
        <ele>342.7</ele>
        <time>2020-12-31T13:43:02Z</time>
      </trkpt>
      <trkpt lat="41.5904200" lon="-0.8741630">
        <ele>342.8</ele>
        <time>2020-12-31T13:43:03Z</time>
      </trkpt>
      <trkpt lat="41.5903930" lon="-0.8741510">
        <ele>343.0</ele>
        <time>2020-12-31T13:43:04Z</time>
      </trkpt>
      <trkpt lat="41.5903490" lon="-0.8741330">
        <ele>343.2</ele>
        <time>2020-12-31T13:43:05Z</time>
      </trkpt>
      <trkpt lat="41.5903190" lon="-0.8741260">
        <ele>343.4</ele>
        <time>2020-12-31T13:43:06Z</time>
      </trkpt>
      <trkpt lat="41.5902770" lon="-0.8741130">
        <ele>343.7</ele>
        <time>2020-12-31T13:43:08Z</time>
      </trkpt>
      <trkpt lat="41.5902300" lon="-0.8741030">
        <ele>344.0</ele>
        <time>2020-12-31T13:43:09Z</time>
      </trkpt>
      <trkpt lat="41.5901880" lon="-0.8740960">
        <ele>344.2</ele>
        <time>2020-12-31T13:43:11Z</time>
      </trkpt>
      <trkpt lat="41.5901500" lon="-0.8740910">
        <ele>344.4</ele>
        <time>2020-12-31T13:43:12Z</time>
      </trkpt>
      <trkpt lat="41.5901050" lon="-0.8740860">
        <ele>344.7</ele>
        <time>2020-12-31T13:43:14Z</time>
      </trkpt>
      <trkpt lat="41.5900730" lon="-0.8740810">
        <ele>344.9</ele>
        <time>2020-12-31T13:43:15Z</time>
      </trkpt>
      <trkpt lat="41.5900360" lon="-0.8740770">
        <ele>345.1</ele>
        <time>2020-12-31T13:43:16Z</time>
      </trkpt>
      <trkpt lat="41.5900030" lon="-0.8740790">
        <ele>345.3</ele>
        <time>2020-12-31T13:43:17Z</time>
      </trkpt>
      <trkpt lat="41.5899680" lon="-0.8740790">
        <ele>345.5</ele>
        <time>2020-12-31T13:43:18Z</time>
      </trkpt>
      <trkpt lat="41.5899330" lon="-0.8740840">
        <ele>345.6</ele>
        <time>2020-12-31T13:43:19Z</time>
      </trkpt>
      <trkpt lat="41.5898740" lon="-0.8740980">
        <ele>345.9</ele>
        <time>2020-12-31T13:43:21Z</time>
      </trkpt>
      <trkpt lat="41.5898300" lon="-0.8741150">
        <ele>346.0</ele>
        <time>2020-12-31T13:43:22Z</time>
      </trkpt>
      <trkpt lat="41.5897870" lon="-0.8741350">
        <ele>346.1</ele>
        <time>2020-12-31T13:43:24Z</time>
      </trkpt>
      <trkpt lat="41.5897470" lon="-0.8741650">
        <ele>346.2</ele>
        <time>2020-12-31T13:43:25Z</time>
      </trkpt>
      <trkpt lat="41.5897110" lon="-0.8742050">
        <ele>346.2</ele>
        <time>2020-12-31T13:43:27Z</time>
      </trkpt>
      <trkpt lat="41.5896860" lon="-0.8742220">
        <ele>346.2</ele>
        <time>2020-12-31T13:43:28Z</time>
      </trkpt>
      <trkpt lat="41.5896460" lon="-0.8742480">
        <ele>346.1</ele>
        <time>2020-12-31T13:43:30Z</time>
      </trkpt>
      <trkpt lat="41.5896140" lon="-0.8742690">
        <ele>346.0</ele>
        <time>2020-12-31T13:43:31Z</time>
      </trkpt>
      <trkpt lat="41.5895740" lon="-0.8743010">
        <ele>345.8</ele>
        <time>2020-12-31T13:43:32Z</time>
      </trkpt>
      <trkpt lat="41.5895300" lon="-0.8743290">
        <ele>345.6</ele>
        <time>2020-12-31T13:43:34Z</time>
      </trkpt>
      <trkpt lat="41.5894960" lon="-0.8743860">
        <ele>345.3</ele>
        <time>2020-12-31T13:43:36Z</time>
      </trkpt>
      <trkpt lat="41.5894340" lon="-0.8744820">
        <ele>345.0</ele>
        <time>2020-12-31T13:43:37Z</time>
      </trkpt>
      <trkpt lat="41.5893900" lon="-0.8745680">
        <ele>344.9</ele>
        <time>2020-12-31T13:43:38Z</time>
      </trkpt>
      <trkpt lat="41.5892550" lon="-0.8748250">
        <ele>344.7</ele>
        <time>2020-12-31T13:43:40Z</time>
      </trkpt>
      <trkpt lat="41.5892020" lon="-0.8749630">
        <ele>344.9</ele>
        <time>2020-12-31T13:43:41Z</time>
      </trkpt>
      <trkpt lat="41.5891630" lon="-0.8751540">
        <ele>345.8</ele>
        <time>2020-12-31T13:43:43Z</time>
      </trkpt>
      <trkpt lat="41.5891520" lon="-0.8752180">
        <ele>346.2</ele>
        <time>2020-12-31T13:43:44Z</time>
      </trkpt>
      <trkpt lat="41.5891390" lon="-0.8752570">
        <ele>346.5</ele>
        <time>2020-12-31T13:43:45Z</time>
      </trkpt>
      <trkpt lat="41.5891320" lon="-0.8752700">
        <ele>346.6</ele>
        <time>2020-12-31T13:43:46Z</time>
      </trkpt>
      <trkpt lat="41.5891200" lon="-0.8753290">
        <ele>346.9</ele>
        <time>2020-12-31T13:43:48Z</time>
      </trkpt>
      <trkpt lat="41.5891080" lon="-0.8753780">
        <ele>347.2</ele>
        <time>2020-12-31T13:43:49Z</time>
      </trkpt>
      <trkpt lat="41.5890970" lon="-0.8754210">
        <ele>347.4</ele>
        <time>2020-12-31T13:43:50Z</time>
      </trkpt>
      <trkpt lat="41.5890810" lon="-0.8754960">
        <ele>347.6</ele>
        <time>2020-12-31T13:43:52Z</time>
      </trkpt>
      <trkpt lat="41.5890700" lon="-0.8755440">
        <ele>347.6</ele>
        <time>2020-12-31T13:43:53Z</time>
      </trkpt>
      <trkpt lat="41.5890580" lon="-0.8755890">
        <ele>347.6</ele>
        <time>2020-12-31T13:43:55Z</time>
      </trkpt>
      <trkpt lat="41.5890460" lon="-0.8756490">
        <ele>347.5</ele>
        <time>2020-12-31T13:43:56Z</time>
      </trkpt>
      <trkpt lat="41.5890290" lon="-0.8757100">
        <ele>347.2</ele>
        <time>2020-12-31T13:43:58Z</time>
      </trkpt>
      <trkpt lat="41.5890130" lon="-0.8757860">
        <ele>346.7</ele>
        <time>2020-12-31T13:44:00Z</time>
      </trkpt>
      <trkpt lat="41.5890020" lon="-0.8758450">
        <ele>346.3</ele>
        <time>2020-12-31T13:44:01Z</time>
      </trkpt>
      <trkpt lat="41.5889930" lon="-0.8759490">
        <ele>345.3</ele>
        <time>2020-12-31T13:44:03Z</time>
      </trkpt>
      <trkpt lat="41.5889850" lon="-0.8760020">
        <ele>344.7</ele>
        <time>2020-12-31T13:44:04Z</time>
      </trkpt>
      <trkpt lat="41.5889870" lon="-0.8760580">
        <ele>344.1</ele>
        <time>2020-12-31T13:44:06Z</time>
      </trkpt>
      <trkpt lat="41.5889950" lon="-0.8761570">
        <ele>343.1</ele>
        <time>2020-12-31T13:44:07Z</time>
      </trkpt>
      <trkpt lat="41.5889980" lon="-0.8762620">
        <ele>342.2</ele>
        <time>2020-12-31T13:44:08Z</time>
      </trkpt>
      <trkpt lat="41.5889980" lon="-0.8765100">
        <ele>341.0</ele>
        <time>2020-12-31T13:44:10Z</time>
      </trkpt>
      <trkpt lat="41.5889870" lon="-0.8766310">
        <ele>340.8</ele>
        <time>2020-12-31T13:44:11Z</time>
      </trkpt>
      <trkpt lat="41.5889380" lon="-0.8768610">
        <ele>341.1</ele>
        <time>2020-12-31T13:44:13Z</time>
      </trkpt>
      <trkpt lat="41.5889120" lon="-0.8769670">
        <ele>341.5</ele>
        <time>2020-12-31T13:44:14Z</time>
      </trkpt>
      <trkpt lat="41.5888950" lon="-0.8771610">
        <ele>342.2</ele>
        <time>2020-12-31T13:44:16Z</time>
      </trkpt>
      <trkpt lat="41.5889280" lon="-0.8773330">
        <ele>343.2</ele>
        <time>2020-12-31T13:44:18Z</time>
      </trkpt>
      <trkpt lat="41.5889480" lon="-0.8774110">
        <ele>343.8</ele>
        <time>2020-12-31T13:44:19Z</time>
      </trkpt>
      <trkpt lat="41.5889480" lon="-0.8774840">
        <ele>344.4</ele>
        <time>2020-12-31T13:44:20Z</time>
      </trkpt>
      <trkpt lat="41.5889100" lon="-0.8775710">
        <ele>345.2</ele>
        <time>2020-12-31T13:44:22Z</time>
      </trkpt>
      <trkpt lat="41.5888840" lon="-0.8776250">
        <ele>345.8</ele>
        <time>2020-12-31T13:44:24Z</time>
      </trkpt>
      <trkpt lat="41.5888710" lon="-0.8776650">
        <ele>346.1</ele>
        <time>2020-12-31T13:44:25Z</time>
      </trkpt>
      <trkpt lat="41.5888640" lon="-0.8776780">
        <ele>346.3</ele>
        <time>2020-12-31T13:44:26Z</time>
      </trkpt>
      <trkpt lat="41.5888540" lon="-0.8777220">
        <ele>346.7</ele>
        <time>2020-12-31T13:44:27Z</time>
      </trkpt>
      <trkpt lat="41.5888530" lon="-0.8777440">
        <ele>346.8</ele>
        <time>2020-12-31T13:44:28Z</time>
      </trkpt>
      <trkpt lat="41.5888370" lon="-0.8777720">
        <ele>347.1</ele>
        <time>2020-12-31T13:44:29Z</time>
      </trkpt>
      <trkpt lat="41.5888180" lon="-0.8778060">
        <ele>347.4</ele>
        <time>2020-12-31T13:44:31Z</time>
      </trkpt>
      <trkpt lat="41.5888000" lon="-0.8778400">
        <ele>347.7</ele>
        <time>2020-12-31T13:44:32Z</time>
      </trkpt>
      <trkpt lat="41.5887840" lon="-0.8778730">
        <ele>347.9</ele>
        <time>2020-12-31T13:44:33Z</time>
      </trkpt>
      <trkpt lat="41.5887710" lon="-0.8779070">
        <ele>348.1</ele>
        <time>2020-12-31T13:44:34Z</time>
      </trkpt>
      <trkpt lat="41.5887590" lon="-0.8779560">
        <ele>348.3</ele>
        <time>2020-12-31T13:44:36Z</time>
      </trkpt>
      <trkpt lat="41.5887520" lon="-0.8780110">
        <ele>348.5</ele>
        <time>2020-12-31T13:44:37Z</time>
      </trkpt>
      <trkpt lat="41.5887290" lon="-0.8780910">
        <ele>348.6</ele>
        <time>2020-12-31T13:44:39Z</time>
      </trkpt>
      <trkpt lat="41.5887110" lon="-0.8781340">
        <ele>348.7</ele>
        <time>2020-12-31T13:44:40Z</time>
      </trkpt>
      <trkpt lat="41.5886970" lon="-0.8781750">
        <ele>348.8</ele>
        <time>2020-12-31T13:44:41Z</time>
      </trkpt>
      <trkpt lat="41.5886850" lon="-0.8782170">
        <ele>348.9</ele>
        <time>2020-12-31T13:44:42Z</time>
      </trkpt>
      <trkpt lat="41.5886680" lon="-0.8782870">
        <ele>349.0</ele>
        <time>2020-12-31T13:44:44Z</time>
      </trkpt>
      <trkpt lat="41.5886510" lon="-0.8783420">
        <ele>349.1</ele>
        <time>2020-12-31T13:44:45Z</time>
      </trkpt>
      <trkpt lat="41.5886360" lon="-0.8783810">
        <ele>349.1</ele>
        <time>2020-12-31T13:44:46Z</time>
      </trkpt>
      <trkpt lat="41.5886130" lon="-0.8784270">
        <ele>349.2</ele>
        <time>2020-12-31T13:44:47Z</time>
      </trkpt>
      <trkpt lat="41.5885890" lon="-0.8784660">
        <ele>349.4</ele>
        <time>2020-12-31T13:44:48Z</time>
      </trkpt>
      <trkpt lat="41.5885660" lon="-0.8785090">
        <ele>349.5</ele>
        <time>2020-12-31T13:44:50Z</time>
      </trkpt>
      <trkpt lat="41.5885460" lon="-0.8785490">
        <ele>349.6</ele>
        <time>2020-12-31T13:44:51Z</time>
      </trkpt>
      <trkpt lat="41.5885280" lon="-0.8785880">
        <ele>349.8</ele>
        <time>2020-12-31T13:44:52Z</time>
      </trkpt>
      <trkpt lat="41.5885080" lon="-0.8786290">
        <ele>349.9</ele>
        <time>2020-12-31T13:44:53Z</time>
      </trkpt>
      <trkpt lat="41.5884900" lon="-0.8786670">
        <ele>350.0</ele>
        <time>2020-12-31T13:44:54Z</time>
      </trkpt>
      <trkpt lat="41.5884710" lon="-0.8787050">
        <ele>350.2</ele>
        <time>2020-12-31T13:44:55Z</time>
      </trkpt>
      <trkpt lat="41.5884490" lon="-0.8787500">
        <ele>350.3</ele>
        <time>2020-12-31T13:44:57Z</time>
      </trkpt>
      <trkpt lat="41.5884170" lon="-0.8788020">
        <ele>350.5</ele>
        <time>2020-12-31T13:44:59Z</time>
      </trkpt>
      <trkpt lat="41.5883970" lon="-0.8788440">
        <ele>350.6</ele>
        <time>2020-12-31T13:45:00Z</time>
      </trkpt>
      <trkpt lat="41.5883750" lon="-0.8788830">
        <ele>350.7</ele>
        <time>2020-12-31T13:45:01Z</time>
      </trkpt>
      <trkpt lat="41.5883590" lon="-0.8789120">
        <ele>350.8</ele>
        <time>2020-12-31T13:45:02Z</time>
      </trkpt>
      <trkpt lat="41.5883380" lon="-0.8789360">
        <ele>350.9</ele>
        <time>2020-12-31T13:45:03Z</time>
      </trkpt>
      <trkpt lat="41.5883160" lon="-0.8789570">
        <ele>351.0</ele>
        <time>2020-12-31T13:45:04Z</time>
      </trkpt>
      <trkpt lat="41.5882840" lon="-0.8789860">
        <ele>351.1</ele>
        <time>2020-12-31T13:45:06Z</time>
      </trkpt>
      <trkpt lat="41.5882680" lon="-0.8790050">
        <ele>351.2</ele>
        <time>2020-12-31T13:45:07Z</time>
      </trkpt>
      <trkpt lat="41.5882620" lon="-0.8790210">
        <ele>351.2</ele>
        <time>2020-12-31T13:45:08Z</time>
      </trkpt>
      <trkpt lat="41.5882540" lon="-0.8790330">
        <ele>351.3</ele>
        <time>2020-12-31T13:45:09Z</time>
      </trkpt>
      <trkpt lat="41.5882380" lon="-0.8790470">
        <ele>351.3</ele>
        <time>2020-12-31T13:45:10Z</time>
      </trkpt>
      <trkpt lat="41.5882150" lon="-0.8790750">
        <ele>351.4</ele>
        <time>2020-12-31T13:45:12Z</time>
      </trkpt>
      <trkpt lat="41.5881890" lon="-0.8791260">
        <ele>351.5</ele>
        <time>2020-12-31T13:45:13Z</time>
      </trkpt>
      <trkpt lat="41.5881720" lon="-0.8791740">
        <ele>351.6</ele>
        <time>2020-12-31T13:45:14Z</time>
      </trkpt>
      <trkpt lat="41.5881370" lon="-0.8792420">
        <ele>351.7</ele>
        <time>2020-12-31T13:45:16Z</time>
      </trkpt>
      <trkpt lat="41.5880980" lon="-0.8792910">
        <ele>351.8</ele>
        <time>2020-12-31T13:45:17Z</time>
      </trkpt>
      <trkpt lat="41.5880670" lon="-0.8793300">
        <ele>351.8</ele>
        <time>2020-12-31T13:45:18Z</time>
      </trkpt>
      <trkpt lat="41.5880370" lon="-0.8793690">
        <ele>351.8</ele>
        <time>2020-12-31T13:45:19Z</time>
      </trkpt>
      <trkpt lat="41.5880040" lon="-0.8794090">
        <ele>351.8</ele>
        <time>2020-12-31T13:45:20Z</time>
      </trkpt>
      <trkpt lat="41.5879170" lon="-0.8794600">
        <ele>351.8</ele>
        <time>2020-12-31T13:45:22Z</time>
      </trkpt>
      <trkpt lat="41.5878130" lon="-0.8794880">
        <ele>351.8</ele>
        <time>2020-12-31T13:45:24Z</time>
      </trkpt>
      <trkpt lat="41.5877670" lon="-0.8794980">
        <ele>351.8</ele>
        <time>2020-12-31T13:45:25Z</time>
      </trkpt>
      <trkpt lat="41.5877290" lon="-0.8794970">
        <ele>351.8</ele>
        <time>2020-12-31T13:45:26Z</time>
      </trkpt>
      <trkpt lat="41.5876720" lon="-0.8795010">
        <ele>351.8</ele>
        <time>2020-12-31T13:45:28Z</time>
      </trkpt>
      <trkpt lat="41.5876180" lon="-0.8795080">
        <ele>351.8</ele>
        <time>2020-12-31T13:45:29Z</time>
      </trkpt>
      <trkpt lat="41.5875740" lon="-0.8795130">
        <ele>351.8</ele>
        <time>2020-12-31T13:45:30Z</time>
      </trkpt>
      <trkpt lat="41.5875040" lon="-0.8795390">
        <ele>351.7</ele>
        <time>2020-12-31T13:45:32Z</time>
      </trkpt>
      <trkpt lat="41.5874550" lon="-0.8795850">
        <ele>351.7</ele>
        <time>2020-12-31T13:45:34Z</time>
      </trkpt>
      <trkpt lat="41.5874250" lon="-0.8796490">
        <ele>351.7</ele>
        <time>2020-12-31T13:45:36Z</time>
      </trkpt>
      <trkpt lat="41.5874000" lon="-0.8797210">
        <ele>351.8</ele>
        <time>2020-12-31T13:45:37Z</time>
      </trkpt>
      <trkpt lat="41.5873820" lon="-0.8797660">
        <ele>351.8</ele>
        <time>2020-12-31T13:45:38Z</time>
      </trkpt>
      <trkpt lat="41.5873600" lon="-0.8798120">
        <ele>352.0</ele>
        <time>2020-12-31T13:45:39Z</time>
      </trkpt>
      <trkpt lat="41.5873360" lon="-0.8798540">
        <ele>352.1</ele>
        <time>2020-12-31T13:45:40Z</time>
      </trkpt>
      <trkpt lat="41.5873080" lon="-0.8798900">
        <ele>352.2</ele>
        <time>2020-12-31T13:45:41Z</time>
      </trkpt>
      <trkpt lat="41.5872710" lon="-0.8799350">
        <ele>352.4</ele>
        <time>2020-12-31T13:45:43Z</time>
      </trkpt>
      <trkpt lat="41.5872410" lon="-0.8799690">
        <ele>352.5</ele>
        <time>2020-12-31T13:45:44Z</time>
      </trkpt>
      <trkpt lat="41.5872100" lon="-0.8800050">
        <ele>352.7</ele>
        <time>2020-12-31T13:45:45Z</time>
      </trkpt>
      <trkpt lat="41.5871580" lon="-0.8800700">
        <ele>352.9</ele>
        <time>2020-12-31T13:45:47Z</time>
      </trkpt>
      <trkpt lat="41.5871300" lon="-0.8801080">
        <ele>353.0</ele>
        <time>2020-12-31T13:45:48Z</time>
      </trkpt>
      <trkpt lat="41.5871000" lon="-0.8801590">
        <ele>353.1</ele>
        <time>2020-12-31T13:45:49Z</time>
      </trkpt>
      <trkpt lat="41.5870720" lon="-0.8802070">
        <ele>353.3</ele>
        <time>2020-12-31T13:45:50Z</time>
      </trkpt>
      <trkpt lat="41.5870420" lon="-0.8802580">
        <ele>353.4</ele>
        <time>2020-12-31T13:45:51Z</time>
      </trkpt>
      <trkpt lat="41.5870000" lon="-0.8803180">
        <ele>353.5</ele>
        <time>2020-12-31T13:45:53Z</time>
      </trkpt>
      <trkpt lat="41.5869690" lon="-0.8803580">
        <ele>353.6</ele>
        <time>2020-12-31T13:45:54Z</time>
      </trkpt>
      <trkpt lat="41.5869370" lon="-0.8803950">
        <ele>353.7</ele>
        <time>2020-12-31T13:45:55Z</time>
      </trkpt>
      <trkpt lat="41.5868800" lon="-0.8804530">
        <ele>354.0</ele>
        <time>2020-12-31T13:45:57Z</time>
      </trkpt>
      <trkpt lat="41.5868440" lon="-0.8804990">
        <ele>354.1</ele>
        <time>2020-12-31T13:45:58Z</time>
      </trkpt>
      <trkpt lat="41.5868170" lon="-0.8805390">
        <ele>354.3</ele>
        <time>2020-12-31T13:45:59Z</time>
      </trkpt>
      <trkpt lat="41.5868010" lon="-0.8805890">
        <ele>354.5</ele>
        <time>2020-12-31T13:46:00Z</time>
      </trkpt>
      <trkpt lat="41.5867890" lon="-0.8806440">
        <ele>354.7</ele>
        <time>2020-12-31T13:46:02Z</time>
      </trkpt>
      <trkpt lat="41.5867770" lon="-0.8806970">
        <ele>354.9</ele>
        <time>2020-12-31T13:46:03Z</time>
      </trkpt>
      <trkpt lat="41.5867700" lon="-0.8807370">
        <ele>355.1</ele>
        <time>2020-12-31T13:46:04Z</time>
      </trkpt>
      <trkpt lat="41.5867650" lon="-0.8807720">
        <ele>355.3</ele>
        <time>2020-12-31T13:46:05Z</time>
      </trkpt>
      <trkpt lat="41.5867530" lon="-0.8808210">
        <ele>355.5</ele>
        <time>2020-12-31T13:46:06Z</time>
      </trkpt>
      <trkpt lat="41.5867360" lon="-0.8808860">
        <ele>355.9</ele>
        <time>2020-12-31T13:46:08Z</time>
      </trkpt>
      <trkpt lat="41.5867140" lon="-0.8809500">
        <ele>356.3</ele>
        <time>2020-12-31T13:46:10Z</time>
      </trkpt>
      <trkpt lat="41.5866990" lon="-0.8809950">
        <ele>356.5</ele>
        <time>2020-12-31T13:46:11Z</time>
      </trkpt>
      <trkpt lat="41.5866750" lon="-0.8810520">
        <ele>356.9</ele>
        <time>2020-12-31T13:46:12Z</time>
      </trkpt>
      <trkpt lat="41.5866570" lon="-0.8811080">
        <ele>357.2</ele>
        <time>2020-12-31T13:46:14Z</time>
      </trkpt>
      <trkpt lat="41.5866470" lon="-0.8811570">
        <ele>357.5</ele>
        <time>2020-12-31T13:46:15Z</time>
      </trkpt>
      <trkpt lat="41.5866450" lon="-0.8812040">
        <ele>357.7</ele>
        <time>2020-12-31T13:46:16Z</time>
      </trkpt>
      <trkpt lat="41.5866420" lon="-0.8812480">
        <ele>357.9</ele>
        <time>2020-12-31T13:46:17Z</time>
      </trkpt>
      <trkpt lat="41.5866220" lon="-0.8813220">
        <ele>358.2</ele>
        <time>2020-12-31T13:46:18Z</time>
      </trkpt>
      <trkpt lat="41.5866070" lon="-0.8813710">
        <ele>358.4</ele>
        <time>2020-12-31T13:46:20Z</time>
      </trkpt>
      <trkpt lat="41.5865880" lon="-0.8814330">
        <ele>358.6</ele>
        <time>2020-12-31T13:46:21Z</time>
      </trkpt>
      <trkpt lat="41.5865810" lon="-0.8814750">
        <ele>358.7</ele>
        <time>2020-12-31T13:46:22Z</time>
      </trkpt>
      <trkpt lat="41.5865700" lon="-0.8815190">
        <ele>358.8</ele>
        <time>2020-12-31T13:46:23Z</time>
      </trkpt>
      <trkpt lat="41.5865520" lon="-0.8815840">
        <ele>359.0</ele>
        <time>2020-12-31T13:46:24Z</time>
      </trkpt>
      <trkpt lat="41.5865240" lon="-0.8816490">
        <ele>359.1</ele>
        <time>2020-12-31T13:46:26Z</time>
      </trkpt>
      <trkpt lat="41.5864930" lon="-0.8816900">
        <ele>359.2</ele>
        <time>2020-12-31T13:46:27Z</time>
      </trkpt>
      <trkpt lat="41.5864580" lon="-0.8817370">
        <ele>359.3</ele>
        <time>2020-12-31T13:46:28Z</time>
      </trkpt>
      <trkpt lat="41.5864240" lon="-0.8818030">
        <ele>359.4</ele>
        <time>2020-12-31T13:46:30Z</time>
      </trkpt>
      <trkpt lat="41.5864120" lon="-0.8818520">
        <ele>359.4</ele>
        <time>2020-12-31T13:46:31Z</time>
      </trkpt>
      <trkpt lat="41.5864020" lon="-0.8819080">
        <ele>359.4</ele>
        <time>2020-12-31T13:46:32Z</time>
      </trkpt>
      <trkpt lat="41.5863960" lon="-0.8819650">
        <ele>359.4</ele>
        <time>2020-12-31T13:46:33Z</time>
      </trkpt>
      <trkpt lat="41.5864040" lon="-0.8820410">
        <ele>359.4</ele>
        <time>2020-12-31T13:46:35Z</time>
      </trkpt>
      <trkpt lat="41.5864170" lon="-0.8820790">
        <ele>359.3</ele>
        <time>2020-12-31T13:46:36Z</time>
      </trkpt>
      <trkpt lat="41.5864280" lon="-0.8821220">
        <ele>359.3</ele>
        <time>2020-12-31T13:46:37Z</time>
      </trkpt>
      <trkpt lat="41.5864310" lon="-0.8821470">
        <ele>359.3</ele>
        <time>2020-12-31T13:46:38Z</time>
      </trkpt>
      <trkpt lat="41.5864270" lon="-0.8823110">
        <ele>359.1</ele>
        <time>2020-12-31T13:46:40Z</time>
      </trkpt>
      <trkpt lat="41.5863940" lon="-0.8824600">
        <ele>359.1</ele>
        <time>2020-12-31T13:46:42Z</time>
      </trkpt>
      <trkpt lat="41.5863620" lon="-0.8825090">
        <ele>359.1</ele>
        <time>2020-12-31T13:46:44Z</time>
      </trkpt>
      <trkpt lat="41.5863350" lon="-0.8825590">
        <ele>359.2</ele>
        <time>2020-12-31T13:46:45Z</time>
      </trkpt>
      <trkpt lat="41.5863120" lon="-0.8825950">
        <ele>359.2</ele>
        <time>2020-12-31T13:46:46Z</time>
      </trkpt>
      <trkpt lat="41.5862860" lon="-0.8826350">
        <ele>359.3</ele>
        <time>2020-12-31T13:46:47Z</time>
      </trkpt>
      <trkpt lat="41.5862530" lon="-0.8826730">
        <ele>359.4</ele>
        <time>2020-12-31T13:46:48Z</time>
      </trkpt>
      <trkpt lat="41.5862120" lon="-0.8827120">
        <ele>359.5</ele>
        <time>2020-12-31T13:46:49Z</time>
      </trkpt>
      <trkpt lat="41.5861770" lon="-0.8827440">
        <ele>359.5</ele>
        <time>2020-12-31T13:46:50Z</time>
      </trkpt>
      <trkpt lat="41.5861320" lon="-0.8827820">
        <ele>359.7</ele>
        <time>2020-12-31T13:46:52Z</time>
      </trkpt>
      <trkpt lat="41.5860930" lon="-0.8828150">
        <ele>359.7</ele>
        <time>2020-12-31T13:46:53Z</time>
      </trkpt>
      <trkpt lat="41.5860650" lon="-0.8828380">
        <ele>359.8</ele>
        <time>2020-12-31T13:46:54Z</time>
      </trkpt>
      <trkpt lat="41.5860390" lon="-0.8828640">
        <ele>359.9</ele>
        <time>2020-12-31T13:46:55Z</time>
      </trkpt>
      <trkpt lat="41.5860050" lon="-0.8829020">
        <ele>359.9</ele>
        <time>2020-12-31T13:46:57Z</time>
      </trkpt>
      <trkpt lat="41.5859890" lon="-0.8829470">
        <ele>359.9</ele>
        <time>2020-12-31T13:46:58Z</time>
      </trkpt>
      <trkpt lat="41.5859960" lon="-0.8830490">
        <ele>359.9</ele>
        <time>2020-12-31T13:47:00Z</time>
      </trkpt>
      <trkpt lat="41.5860120" lon="-0.8831140">
        <ele>359.9</ele>
        <time>2020-12-31T13:47:01Z</time>
      </trkpt>
      <trkpt lat="41.5860200" lon="-0.8831670">
        <ele>359.8</ele>
        <time>2020-12-31T13:47:02Z</time>
      </trkpt>
      <trkpt lat="41.5860250" lon="-0.8832210">
        <ele>359.7</ele>
        <time>2020-12-31T13:47:03Z</time>
      </trkpt>
      <trkpt lat="41.5860350" lon="-0.8833000">
        <ele>359.6</ele>
        <time>2020-12-31T13:47:05Z</time>
      </trkpt>
      <trkpt lat="41.5860400" lon="-0.8833360">
        <ele>359.6</ele>
        <time>2020-12-31T13:47:06Z</time>
      </trkpt>
      <trkpt lat="41.5860310" lon="-0.8834310">
        <ele>359.5</ele>
        <time>2020-12-31T13:47:07Z</time>
      </trkpt>
      <trkpt lat="41.5860090" lon="-0.8834900">
        <ele>359.5</ele>
        <time>2020-12-31T13:47:08Z</time>
      </trkpt>
      <trkpt lat="41.5859660" lon="-0.8836490">
        <ele>359.7</ele>
        <time>2020-12-31T13:47:10Z</time>
      </trkpt>
      <trkpt lat="41.5859360" lon="-0.8837420">
        <ele>359.9</ele>
        <time>2020-12-31T13:47:12Z</time>
      </trkpt>
      <trkpt lat="41.5859540" lon="-0.8837750">
        <ele>360.0</ele>
        <time>2020-12-31T13:47:13Z</time>
      </trkpt>
      <trkpt lat="41.5858980" lon="-0.8838250">
        <ele>360.3</ele>
        <time>2020-12-31T13:47:15Z</time>
      </trkpt>
      <trkpt lat="41.5858230" lon="-0.8838530">
        <ele>360.6</ele>
        <time>2020-12-31T13:47:16Z</time>
      </trkpt>
      <trkpt lat="41.5857660" lon="-0.8838580">
        <ele>360.8</ele>
        <time>2020-12-31T13:47:17Z</time>
      </trkpt>
      <trkpt lat="41.5857140" lon="-0.8838470">
        <ele>361.1</ele>
        <time>2020-12-31T13:47:19Z</time>
      </trkpt>
      <trkpt lat="41.5856540" lon="-0.8838430">
        <ele>361.4</ele>
        <time>2020-12-31T13:47:20Z</time>
      </trkpt>
      <trkpt lat="41.5856020" lon="-0.8838550">
        <ele>361.7</ele>
        <time>2020-12-31T13:47:22Z</time>
      </trkpt>
      <trkpt lat="41.5855570" lon="-0.8838700">
        <ele>361.9</ele>
        <time>2020-12-31T13:47:23Z</time>
      </trkpt>
      <trkpt lat="41.5855160" lon="-0.8838790">
        <ele>362.2</ele>
        <time>2020-12-31T13:47:24Z</time>
      </trkpt>
      <trkpt lat="41.5854550" lon="-0.8838710">
        <ele>362.5</ele>
        <time>2020-12-31T13:47:26Z</time>
      </trkpt>
      <trkpt lat="41.5854200" lon="-0.8838540">
        <ele>362.7</ele>
        <time>2020-12-31T13:47:27Z</time>
      </trkpt>
      <trkpt lat="41.5853850" lon="-0.8838360">
        <ele>363.0</ele>
        <time>2020-12-31T13:47:28Z</time>
      </trkpt>
      <trkpt lat="41.5853520" lon="-0.8838210">
        <ele>363.2</ele>
        <time>2020-12-31T13:47:29Z</time>
      </trkpt>
      <trkpt lat="41.5853160" lon="-0.8838120">
        <ele>363.4</ele>
        <time>2020-12-31T13:47:31Z</time>
      </trkpt>
      <trkpt lat="41.5852810" lon="-0.8838080">
        <ele>363.6</ele>
        <time>2020-12-31T13:47:32Z</time>
      </trkpt>
      <trkpt lat="41.5852510" lon="-0.8838080">
        <ele>363.7</ele>
        <time>2020-12-31T13:47:33Z</time>
      </trkpt>
      <trkpt lat="41.5852110" lon="-0.8838050">
        <ele>363.9</ele>
        <time>2020-12-31T13:47:35Z</time>
      </trkpt>
      <trkpt lat="41.5851830" lon="-0.8838020">
        <ele>364.0</ele>
        <time>2020-12-31T13:47:36Z</time>
      </trkpt>
      <trkpt lat="41.5851520" lon="-0.8837980">
        <ele>364.2</ele>
        <time>2020-12-31T13:47:37Z</time>
      </trkpt>
      <trkpt lat="41.5851080" lon="-0.8838140">
        <ele>364.3</ele>
        <time>2020-12-31T13:47:39Z</time>
      </trkpt>
      <trkpt lat="41.5850840" lon="-0.8838360">
        <ele>364.4</ele>
        <time>2020-12-31T13:47:40Z</time>
      </trkpt>
      <trkpt lat="41.5850550" lon="-0.8838710">
        <ele>364.5</ele>
        <time>2020-12-31T13:47:41Z</time>
      </trkpt>
      <trkpt lat="41.5850230" lon="-0.8839130">
        <ele>364.6</ele>
        <time>2020-12-31T13:47:42Z</time>
      </trkpt>
      <trkpt lat="41.5849940" lon="-0.8839440">
        <ele>364.6</ele>
        <time>2020-12-31T13:47:43Z</time>
      </trkpt>
      <trkpt lat="41.5849590" lon="-0.8839790">
        <ele>364.7</ele>
        <time>2020-12-31T13:47:44Z</time>
      </trkpt>
      <trkpt lat="41.5849230" lon="-0.8840110">
        <ele>364.8</ele>
        <time>2020-12-31T13:47:45Z</time>
      </trkpt>
      <trkpt lat="41.5848910" lon="-0.8840400">
        <ele>364.9</ele>
        <time>2020-12-31T13:47:46Z</time>
      </trkpt>
      <trkpt lat="41.5848560" lon="-0.8840770">
        <ele>364.9</ele>
        <time>2020-12-31T13:47:48Z</time>
      </trkpt>
      <trkpt lat="41.5848320" lon="-0.8841040">
        <ele>364.9</ele>
        <time>2020-12-31T13:47:49Z</time>
      </trkpt>
      <trkpt lat="41.5848100" lon="-0.8841440">
        <ele>364.9</ele>
        <time>2020-12-31T13:47:51Z</time>
      </trkpt>
      <trkpt lat="41.5847940" lon="-0.8841770">
        <ele>364.8</ele>
        <time>2020-12-31T13:47:52Z</time>
      </trkpt>
      <trkpt lat="41.5847780" lon="-0.8842170">
        <ele>364.7</ele>
        <time>2020-12-31T13:47:53Z</time>
      </trkpt>
      <trkpt lat="41.5847550" lon="-0.8842550">
        <ele>364.6</ele>
        <time>2020-12-31T13:47:54Z</time>
      </trkpt>
      <trkpt lat="41.5847330" lon="-0.8842910">
        <ele>364.4</ele>
        <time>2020-12-31T13:47:55Z</time>
      </trkpt>
      <trkpt lat="41.5846860" lon="-0.8843680">
        <ele>363.8</ele>
        <time>2020-12-31T13:47:57Z</time>
      </trkpt>
      <trkpt lat="41.5846120" lon="-0.8845230">
        <ele>362.8</ele>
        <time>2020-12-31T13:47:59Z</time>
      </trkpt>
      <trkpt lat="41.5845780" lon="-0.8846040">
        <ele>362.4</ele>
        <time>2020-12-31T13:48:00Z</time>
      </trkpt>
      <trkpt lat="41.5845780" lon="-0.8846500">
        <ele>362.2</ele>
        <time>2020-12-31T13:48:01Z</time>
      </trkpt>
      <trkpt lat="41.5845640" lon="-0.8847010">
        <ele>362.1</ele>
        <time>2020-12-31T13:48:03Z</time>
      </trkpt>
      <trkpt lat="41.5845230" lon="-0.8849880">
        <ele>361.8</ele>
        <time>2020-12-31T13:48:04Z</time>
      </trkpt>
      <trkpt lat="41.5845120" lon="-0.8850540">
        <ele>361.7</ele>
        <time>2020-12-31T13:48:05Z</time>
      </trkpt>
      <trkpt lat="41.5844890" lon="-0.8851520">
        <ele>361.5</ele>
        <time>2020-12-31T13:48:06Z</time>
      </trkpt>
      <trkpt lat="41.5844710" lon="-0.8852410">
        <ele>361.3</ele>
        <time>2020-12-31T13:48:07Z</time>
      </trkpt>
      <trkpt lat="41.5844330" lon="-0.8853940">
        <ele>360.8</ele>
        <time>2020-12-31T13:48:09Z</time>
      </trkpt>
      <trkpt lat="41.5843990" lon="-0.8854660">
        <ele>360.6</ele>
        <time>2020-12-31T13:48:10Z</time>
      </trkpt>
      <trkpt lat="41.5843560" lon="-0.8855340">
        <ele>360.3</ele>
        <time>2020-12-31T13:48:11Z</time>
      </trkpt>
      <trkpt lat="41.5842690" lon="-0.8856560">
        <ele>359.9</ele>
        <time>2020-12-31T13:48:13Z</time>
      </trkpt>
      <trkpt lat="41.5842370" lon="-0.8857320">
        <ele>359.7</ele>
        <time>2020-12-31T13:48:14Z</time>
      </trkpt>
      <trkpt lat="41.5841770" lon="-0.8858830">
        <ele>359.2</ele>
        <time>2020-12-31T13:48:16Z</time>
      </trkpt>
      <trkpt lat="41.5841430" lon="-0.8859520">
        <ele>359.0</ele>
        <time>2020-12-31T13:48:17Z</time>
      </trkpt>
      <trkpt lat="41.5841000" lon="-0.8860260">
        <ele>358.9</ele>
        <time>2020-12-31T13:48:18Z</time>
      </trkpt>
      <trkpt lat="41.5840090" lon="-0.8861750">
        <ele>358.8</ele>
        <time>2020-12-31T13:48:20Z</time>
      </trkpt>
      <trkpt lat="41.5839130" lon="-0.8862820">
        <ele>359.0</ele>
        <time>2020-12-31T13:48:22Z</time>
      </trkpt>
      <trkpt lat="41.5838330" lon="-0.8863460">
        <ele>359.4</ele>
        <time>2020-12-31T13:48:24Z</time>
      </trkpt>
      <trkpt lat="41.5837760" lon="-0.8863550">
        <ele>359.6</ele>
        <time>2020-12-31T13:48:26Z</time>
      </trkpt>
      <trkpt lat="41.5836990" lon="-0.8863700">
        <ele>360.1</ele>
        <time>2020-12-31T13:48:28Z</time>
      </trkpt>
      <trkpt lat="41.5836680" lon="-0.8863720">
        <ele>360.3</ele>
        <time>2020-12-31T13:48:29Z</time>
      </trkpt>
      <trkpt lat="41.5836280" lon="-0.8863640">
        <ele>360.6</ele>
        <time>2020-12-31T13:48:30Z</time>
      </trkpt>
      <trkpt lat="41.5835890" lon="-0.8863540">
        <ele>360.8</ele>
        <time>2020-12-31T13:48:32Z</time>
      </trkpt>
      <trkpt lat="41.5835480" lon="-0.8863660">
        <ele>361.1</ele>
        <time>2020-12-31T13:48:33Z</time>
      </trkpt>
      <trkpt lat="41.5835320" lon="-0.8863730">
        <ele>361.3</ele>
        <time>2020-12-31T13:48:34Z</time>
      </trkpt>
      <trkpt lat="41.5835040" lon="-0.8863900">
        <ele>361.5</ele>
        <time>2020-12-31T13:48:35Z</time>
      </trkpt>
      <trkpt lat="41.5834650" lon="-0.8864250">
        <ele>361.7</ele>
        <time>2020-12-31T13:48:37Z</time>
      </trkpt>
      <trkpt lat="41.5834150" lon="-0.8864910">
        <ele>362.0</ele>
        <time>2020-12-31T13:48:39Z</time>
      </trkpt>
      <trkpt lat="41.5833800" lon="-0.8865360">
        <ele>362.0</ele>
        <time>2020-12-31T13:48:40Z</time>
      </trkpt>
      <trkpt lat="41.5833300" lon="-0.8865880">
        <ele>362.1</ele>
        <time>2020-12-31T13:48:41Z</time>
      </trkpt>
      <trkpt lat="41.5832910" lon="-0.8866300">
        <ele>362.1</ele>
        <time>2020-12-31T13:48:42Z</time>
      </trkpt>
      <trkpt lat="41.5832950" lon="-0.8866830">
        <ele>362.2</ele>
        <time>2020-12-31T13:48:44Z</time>
      </trkpt>
      <trkpt lat="41.5832460" lon="-0.8867310">
        <ele>362.3</ele>
        <time>2020-12-31T13:48:45Z</time>
      </trkpt>
      <trkpt lat="41.5831990" lon="-0.8867690">
        <ele>362.4</ele>
        <time>2020-12-31T13:48:46Z</time>
      </trkpt>
      <trkpt lat="41.5831600" lon="-0.8868080">
        <ele>362.5</ele>
        <time>2020-12-31T13:48:48Z</time>
      </trkpt>
      <trkpt lat="41.5831260" lon="-0.8868530">
        <ele>362.5</ele>
        <time>2020-12-31T13:48:49Z</time>
      </trkpt>
      <trkpt lat="41.5831010" lon="-0.8868980">
        <ele>362.6</ele>
        <time>2020-12-31T13:48:50Z</time>
      </trkpt>
      <trkpt lat="41.5830880" lon="-0.8869430">
        <ele>362.5</ele>
        <time>2020-12-31T13:48:52Z</time>
      </trkpt>
      <trkpt lat="41.5831020" lon="-0.8870070">
        <ele>362.4</ele>
        <time>2020-12-31T13:48:53Z</time>
      </trkpt>
      <trkpt lat="41.5831340" lon="-0.8870640">
        <ele>362.3</ele>
        <time>2020-12-31T13:48:55Z</time>
      </trkpt>
      <trkpt lat="41.5831710" lon="-0.8871100">
        <ele>362.1</ele>
        <time>2020-12-31T13:48:56Z</time>
      </trkpt>
      <trkpt lat="41.5832090" lon="-0.8871660">
        <ele>361.8</ele>
        <time>2020-12-31T13:48:58Z</time>
      </trkpt>
      <trkpt lat="41.5832370" lon="-0.8872290">
        <ele>361.5</ele>
        <time>2020-12-31T13:48:59Z</time>
      </trkpt>
      <trkpt lat="41.5832550" lon="-0.8872730">
        <ele>361.3</ele>
        <time>2020-12-31T13:49:00Z</time>
      </trkpt>
      <trkpt lat="41.5832860" lon="-0.8873400">
        <ele>361.0</ele>
        <time>2020-12-31T13:49:02Z</time>
      </trkpt>
      <trkpt lat="41.5833280" lon="-0.8874440">
        <ele>360.5</ele>
        <time>2020-12-31T13:49:03Z</time>
      </trkpt>
      <trkpt lat="41.5833850" lon="-0.8875790">
        <ele>359.8</ele>
        <time>2020-12-31T13:49:05Z</time>
      </trkpt>
      <trkpt lat="41.5834200" lon="-0.8876380">
        <ele>359.4</ele>
        <time>2020-12-31T13:49:06Z</time>
      </trkpt>
      <trkpt lat="41.5834610" lon="-0.8876870">
        <ele>359.0</ele>
        <time>2020-12-31T13:49:07Z</time>
      </trkpt>
      <trkpt lat="41.5835500" lon="-0.8877780">
        <ele>358.3</ele>
        <time>2020-12-31T13:49:09Z</time>
      </trkpt>
      <trkpt lat="41.5836280" lon="-0.8879020">
        <ele>357.5</ele>
        <time>2020-12-31T13:49:11Z</time>
      </trkpt>
      <trkpt lat="41.5836720" lon="-0.8879670">
        <ele>357.1</ele>
        <time>2020-12-31T13:49:12Z</time>
      </trkpt>
      <trkpt lat="41.5837470" lon="-0.8881090">
        <ele>356.4</ele>
        <time>2020-12-31T13:49:14Z</time>
      </trkpt>
      <trkpt lat="41.5837980" lon="-0.8881540">
        <ele>356.0</ele>
        <time>2020-12-31T13:49:15Z</time>
      </trkpt>
      <trkpt lat="41.5839110" lon="-0.8881900">
        <ele>355.3</ele>
        <time>2020-12-31T13:49:17Z</time>
      </trkpt>
      <trkpt lat="41.5839580" lon="-0.8881900">
        <ele>355.0</ele>
        <time>2020-12-31T13:49:18Z</time>
      </trkpt>
      <trkpt lat="41.5839880" lon="-0.8882060">
        <ele>354.8</ele>
        <time>2020-12-31T13:49:19Z</time>
      </trkpt>
      <trkpt lat="41.5840120" lon="-0.8883160">
        <ele>354.5</ele>
        <time>2020-12-31T13:49:21Z</time>
      </trkpt>
      <trkpt lat="41.5839660" lon="-0.8883990">
        <ele>354.6</ele>
        <time>2020-12-31T13:49:23Z</time>
      </trkpt>
      <trkpt lat="41.5839370" lon="-0.8883950">
        <ele>354.7</ele>
        <time>2020-12-31T13:49:24Z</time>
      </trkpt>
      <trkpt lat="41.5838470" lon="-0.8883650">
        <ele>354.8</ele>
        <time>2020-12-31T13:49:25Z</time>
      </trkpt>
      <trkpt lat="41.5838090" lon="-0.8883920">
        <ele>354.9</ele>
        <time>2020-12-31T13:49:26Z</time>
      </trkpt>
      <trkpt lat="41.5837830" lon="-0.8884130">
        <ele>354.9</ele>
        <time>2020-12-31T13:49:28Z</time>
      </trkpt>
      <trkpt lat="41.5837570" lon="-0.8884320">
        <ele>354.9</ele>
        <time>2020-12-31T13:49:29Z</time>
      </trkpt>
      <trkpt lat="41.5836900" lon="-0.8884820">
        <ele>354.8</ele>
        <time>2020-12-31T13:49:31Z</time>
      </trkpt>
      <trkpt lat="41.5836580" lon="-0.8885220">
        <ele>354.8</ele>
        <time>2020-12-31T13:49:32Z</time>
      </trkpt>
      <trkpt lat="41.5836280" lon="-0.8885720">
        <ele>354.8</ele>
        <time>2020-12-31T13:49:33Z</time>
      </trkpt>
      <trkpt lat="41.5835730" lon="-0.8886970">
        <ele>354.6</ele>
        <time>2020-12-31T13:49:35Z</time>
      </trkpt>
      <trkpt lat="41.5835130" lon="-0.8888190">
        <ele>354.6</ele>
        <time>2020-12-31T13:49:37Z</time>
      </trkpt>
      <trkpt lat="41.5834860" lon="-0.8888800">
        <ele>354.6</ele>
        <time>2020-12-31T13:49:38Z</time>
      </trkpt>
      <trkpt lat="41.5833930" lon="-0.8889570">
        <ele>354.8</ele>
        <time>2020-12-31T13:49:40Z</time>
      </trkpt>
      <trkpt lat="41.5833390" lon="-0.8889670">
        <ele>354.8</ele>
        <time>2020-12-31T13:49:41Z</time>
      </trkpt>
      <trkpt lat="41.5832510" lon="-0.8890070">
        <ele>355.0</ele>
        <time>2020-12-31T13:49:43Z</time>
      </trkpt>
      <trkpt lat="41.5832310" lon="-0.8890540">
        <ele>355.0</ele>
        <time>2020-12-31T13:49:44Z</time>
      </trkpt>
      <trkpt lat="41.5832030" lon="-0.8890990">
        <ele>355.1</ele>
        <time>2020-12-31T13:49:45Z</time>
      </trkpt>
      <trkpt lat="41.5831730" lon="-0.8891560">
        <ele>355.2</ele>
        <time>2020-12-31T13:49:47Z</time>
      </trkpt>
      <trkpt lat="41.5831380" lon="-0.8892160">
        <ele>355.2</ele>
        <time>2020-12-31T13:49:48Z</time>
      </trkpt>
      <trkpt lat="41.5831050" lon="-0.8892680">
        <ele>355.3</ele>
        <time>2020-12-31T13:49:49Z</time>
      </trkpt>
      <trkpt lat="41.5830390" lon="-0.8893580">
        <ele>355.5</ele>
        <time>2020-12-31T13:49:51Z</time>
      </trkpt>
      <trkpt lat="41.5829970" lon="-0.8893480">
        <ele>355.6</ele>
        <time>2020-12-31T13:49:52Z</time>
      </trkpt>
      <trkpt lat="41.5829380" lon="-0.8893640">
        <ele>355.8</ele>
        <time>2020-12-31T13:49:54Z</time>
      </trkpt>
      <trkpt lat="41.5828970" lon="-0.8893960">
        <ele>355.9</ele>
        <time>2020-12-31T13:49:55Z</time>
      </trkpt>
      <trkpt lat="41.5828630" lon="-0.8894280">
        <ele>356.0</ele>
        <time>2020-12-31T13:49:56Z</time>
      </trkpt>
      <trkpt lat="41.5828310" lon="-0.8894570">
        <ele>356.1</ele>
        <time>2020-12-31T13:49:57Z</time>
      </trkpt>
      <trkpt lat="41.5827750" lon="-0.8895070">
        <ele>356.2</ele>
        <time>2020-12-31T13:49:59Z</time>
      </trkpt>
      <trkpt lat="41.5827280" lon="-0.8895930">
        <ele>356.2</ele>
        <time>2020-12-31T13:50:01Z</time>
      </trkpt>
      <trkpt lat="41.5826970" lon="-0.8896710">
        <ele>356.3</ele>
        <time>2020-12-31T13:50:02Z</time>
      </trkpt>
      <trkpt lat="41.5826210" lon="-0.8898020">
        <ele>356.3</ele>
        <time>2020-12-31T13:50:04Z</time>
      </trkpt>
      <trkpt lat="41.5825440" lon="-0.8899280">
        <ele>356.5</ele>
        <time>2020-12-31T13:50:06Z</time>
      </trkpt>
      <trkpt lat="41.5824940" lon="-0.8899820">
        <ele>356.7</ele>
        <time>2020-12-31T13:50:07Z</time>
      </trkpt>
      <trkpt lat="41.5824430" lon="-0.8900250">
        <ele>357.0</ele>
        <time>2020-12-31T13:50:08Z</time>
      </trkpt>
      <trkpt lat="41.5824070" lon="-0.8900580">
        <ele>357.1</ele>
        <time>2020-12-31T13:50:09Z</time>
      </trkpt>
      <trkpt lat="41.5823610" lon="-0.8900850">
        <ele>357.3</ele>
        <time>2020-12-31T13:50:10Z</time>
      </trkpt>
      <trkpt lat="41.5823140" lon="-0.8900950">
        <ele>357.5</ele>
        <time>2020-12-31T13:50:11Z</time>
      </trkpt>
      <trkpt lat="41.5822640" lon="-0.8901050">
        <ele>357.6</ele>
        <time>2020-12-31T13:50:13Z</time>
      </trkpt>
      <trkpt lat="41.5822150" lon="-0.8901300">
        <ele>357.8</ele>
        <time>2020-12-31T13:50:14Z</time>
      </trkpt>
      <trkpt lat="41.5821430" lon="-0.8901650">
        <ele>358.0</ele>
        <time>2020-12-31T13:50:16Z</time>
      </trkpt>
      <trkpt lat="41.5820660" lon="-0.8901910">
        <ele>358.2</ele>
        <time>2020-12-31T13:50:18Z</time>
      </trkpt>
      <trkpt lat="41.5820240" lon="-0.8902180">
        <ele>358.3</ele>
        <time>2020-12-31T13:50:19Z</time>
      </trkpt>
      <trkpt lat="41.5819710" lon="-0.8902330">
        <ele>358.5</ele>
        <time>2020-12-31T13:50:21Z</time>
      </trkpt>
      <trkpt lat="41.5819190" lon="-0.8902450">
        <ele>358.7</ele>
        <time>2020-12-31T13:50:22Z</time>
      </trkpt>
      <trkpt lat="41.5818850" lon="-0.8902680">
        <ele>358.8</ele>
        <time>2020-12-31T13:50:23Z</time>
      </trkpt>
      <trkpt lat="41.5818520" lon="-0.8903010">
        <ele>359.0</ele>
        <time>2020-12-31T13:50:24Z</time>
      </trkpt>
      <trkpt lat="41.5818240" lon="-0.8903400">
        <ele>359.1</ele>
        <time>2020-12-31T13:50:25Z</time>
      </trkpt>
      <trkpt lat="41.5817880" lon="-0.8903850">
        <ele>359.3</ele>
        <time>2020-12-31T13:50:27Z</time>
      </trkpt>
      <trkpt lat="41.5817560" lon="-0.8904090">
        <ele>359.4</ele>
        <time>2020-12-31T13:50:28Z</time>
      </trkpt>
      <trkpt lat="41.5817230" lon="-0.8904350">
        <ele>359.5</ele>
        <time>2020-12-31T13:50:29Z</time>
      </trkpt>
      <trkpt lat="41.5816710" lon="-0.8905000">
        <ele>359.8</ele>
        <time>2020-12-31T13:50:31Z</time>
      </trkpt>
      <trkpt lat="41.5816330" lon="-0.8905590">
        <ele>360.0</ele>
        <time>2020-12-31T13:50:33Z</time>
      </trkpt>
      <trkpt lat="41.5816110" lon="-0.8905920">
        <ele>360.1</ele>
        <time>2020-12-31T13:50:34Z</time>
      </trkpt>
      <trkpt lat="41.5815860" lon="-0.8906260">
        <ele>360.3</ele>
        <time>2020-12-31T13:50:35Z</time>
      </trkpt>
      <trkpt lat="41.5815560" lon="-0.8906600">
        <ele>360.5</ele>
        <time>2020-12-31T13:50:36Z</time>
      </trkpt>
      <trkpt lat="41.5815280" lon="-0.8906920">
        <ele>360.6</ele>
        <time>2020-12-31T13:50:37Z</time>
      </trkpt>
      <trkpt lat="41.5814960" lon="-0.8907220">
        <ele>360.9</ele>
        <time>2020-12-31T13:50:38Z</time>
      </trkpt>
      <trkpt lat="41.5814560" lon="-0.8907460">
        <ele>361.1</ele>
        <time>2020-12-31T13:50:40Z</time>
      </trkpt>
      <trkpt lat="41.5814180" lon="-0.8907650">
        <ele>361.4</ele>
        <time>2020-12-31T13:50:41Z</time>
      </trkpt>
      <trkpt lat="41.5813860" lon="-0.8907800">
        <ele>361.7</ele>
        <time>2020-12-31T13:50:42Z</time>
      </trkpt>
      <trkpt lat="41.5813480" lon="-0.8907900">
        <ele>362.0</ele>
        <time>2020-12-31T13:50:43Z</time>
      </trkpt>
      <trkpt lat="41.5813360" lon="-0.8907930">
        <ele>362.1</ele>
        <time>2020-12-31T13:50:44Z</time>
      </trkpt>
      <trkpt lat="41.5812990" lon="-0.8908080">
        <ele>362.5</ele>
        <time>2020-12-31T13:50:46Z</time>
      </trkpt>
      <trkpt lat="41.5812720" lon="-0.8908200">
        <ele>362.8</ele>
        <time>2020-12-31T13:50:47Z</time>
      </trkpt>
      <trkpt lat="41.5812390" lon="-0.8908300">
        <ele>363.2</ele>
        <time>2020-12-31T13:50:49Z</time>
      </trkpt>
      <trkpt lat="41.5812070" lon="-0.8908360">
        <ele>363.5</ele>
        <time>2020-12-31T13:50:50Z</time>
      </trkpt>
      <trkpt lat="41.5811630" lon="-0.8908360">
        <ele>364.0</ele>
        <time>2020-12-31T13:50:52Z</time>
      </trkpt>
      <trkpt lat="41.5811490" lon="-0.8908340">
        <ele>364.1</ele>
        <time>2020-12-31T13:50:53Z</time>
      </trkpt>
      <trkpt lat="41.5811360" lon="-0.8908310">
        <ele>364.2</ele>
        <time>2020-12-31T13:50:54Z</time>
      </trkpt>
      <trkpt lat="41.5810990" lon="-0.8908290">
        <ele>364.4</ele>
        <time>2020-12-31T13:50:55Z</time>
      </trkpt>
      <trkpt lat="41.5810830" lon="-0.8908320">
        <ele>364.5</ele>
        <time>2020-12-31T13:50:56Z</time>
      </trkpt>
      <trkpt lat="41.5810540" lon="-0.8908420">
        <ele>364.6</ele>
        <time>2020-12-31T13:50:58Z</time>
      </trkpt>
      <trkpt lat="41.5810230" lon="-0.8908530">
        <ele>364.7</ele>
        <time>2020-12-31T13:50:59Z</time>
      </trkpt>
      <trkpt lat="41.5809890" lon="-0.8908710">
        <ele>364.7</ele>
        <time>2020-12-31T13:51:00Z</time>
      </trkpt>
      <trkpt lat="41.5809610" lon="-0.8908890">
        <ele>364.7</ele>
        <time>2020-12-31T13:51:01Z</time>
      </trkpt>
      <trkpt lat="41.5809090" lon="-0.8909250">
        <ele>364.6</ele>
        <time>2020-12-31T13:51:02Z</time>
      </trkpt>
      <trkpt lat="41.5808610" lon="-0.8909640">
        <ele>364.5</ele>
        <time>2020-12-31T13:51:03Z</time>
      </trkpt>
      <trkpt lat="41.5807640" lon="-0.8910660">
        <ele>364.3</ele>
        <time>2020-12-31T13:51:05Z</time>
      </trkpt>
      <trkpt lat="41.5807190" lon="-0.8911200">
        <ele>364.2</ele>
        <time>2020-12-31T13:51:07Z</time>
      </trkpt>
      <trkpt lat="41.5806930" lon="-0.8911500">
        <ele>364.2</ele>
        <time>2020-12-31T13:51:09Z</time>
      </trkpt>
      <trkpt lat="41.5806810" lon="-0.8911700">
        <ele>364.2</ele>
        <time>2020-12-31T13:51:10Z</time>
      </trkpt>
      <trkpt lat="41.5806530" lon="-0.8912140">
        <ele>364.1</ele>
        <time>2020-12-31T13:51:11Z</time>
      </trkpt>
      <trkpt lat="41.5806170" lon="-0.8912570">
        <ele>364.1</ele>
        <time>2020-12-31T13:51:13Z</time>
      </trkpt>
      <trkpt lat="41.5805870" lon="-0.8912900">
        <ele>364.1</ele>
        <time>2020-12-31T13:51:14Z</time>
      </trkpt>
      <trkpt lat="41.5805500" lon="-0.8913230">
        <ele>364.2</ele>
        <time>2020-12-31T13:51:15Z</time>
      </trkpt>
      <trkpt lat="41.5805030" lon="-0.8913470">
        <ele>364.2</ele>
        <time>2020-12-31T13:51:16Z</time>
      </trkpt>
      <trkpt lat="41.5804600" lon="-0.8913590">
        <ele>364.4</ele>
        <time>2020-12-31T13:51:18Z</time>
      </trkpt>
      <trkpt lat="41.5804040" lon="-0.8913790">
        <ele>364.5</ele>
        <time>2020-12-31T13:51:19Z</time>
      </trkpt>
      <trkpt lat="41.5803720" lon="-0.8913880">
        <ele>365.0</ele>
        <time>2020-12-31T13:51:20Z</time>
      </trkpt>
      <trkpt lat="41.5803310" lon="-0.8914010">
        <ele>365.8</ele>
        <time>2020-12-31T13:51:22Z</time>
      </trkpt>
      <trkpt lat="41.5802960" lon="-0.8914190">
        <ele>366.5</ele>
        <time>2020-12-31T13:51:23Z</time>
      </trkpt>
      <trkpt lat="41.5802630" lon="-0.8914380">
        <ele>367.2</ele>
        <time>2020-12-31T13:51:25Z</time>
      </trkpt>
      <trkpt lat="41.5802490" lon="-0.8914470">
        <ele>367.6</ele>
        <time>2020-12-31T13:51:26Z</time>
      </trkpt>
      <trkpt lat="41.5802040" lon="-0.8914720">
        <ele>368.7</ele>
        <time>2020-12-31T13:51:28Z</time>
      </trkpt>
      <trkpt lat="41.5801710" lon="-0.8914870">
        <ele>369.5</ele>
        <time>2020-12-31T13:51:29Z</time>
      </trkpt>
      <trkpt lat="41.5801610" lon="-0.8914870">
        <ele>369.8</ele>
        <time>2020-12-31T13:51:30Z</time>
      </trkpt>
      <trkpt lat="41.5801190" lon="-0.8914840">
        <ele>370.7</ele>
        <time>2020-12-31T13:51:32Z</time>
      </trkpt>
      <trkpt lat="41.5801050" lon="-0.8914820">
        <ele>371.1</ele>
        <time>2020-12-31T13:51:33Z</time>
      </trkpt>
      <trkpt lat="41.5800910" lon="-0.8914800">
        <ele>371.4</ele>
        <time>2020-12-31T13:51:34Z</time>
      </trkpt>
      <trkpt lat="41.5800690" lon="-0.8914780">
        <ele>371.9</ele>
        <time>2020-12-31T13:51:35Z</time>
      </trkpt>
      <trkpt lat="41.5800520" lon="-0.8914780">
        <ele>372.2</ele>
        <time>2020-12-31T13:51:37Z</time>
      </trkpt>
      <trkpt lat="41.5800270" lon="-0.8914790">
        <ele>372.8</ele>
        <time>2020-12-31T13:51:38Z</time>
      </trkpt>
      <trkpt lat="41.5800140" lon="-0.8914800">
        <ele>373.0</ele>
        <time>2020-12-31T13:51:39Z</time>
      </trkpt>
      <trkpt lat="41.5799990" lon="-0.8914850">
        <ele>373.4</ele>
        <time>2020-12-31T13:51:40Z</time>
      </trkpt>
      <trkpt lat="41.5799810" lon="-0.8914870">
        <ele>373.8</ele>
        <time>2020-12-31T13:51:42Z</time>
      </trkpt>
      <trkpt lat="41.5799660" lon="-0.8914820">
        <ele>374.1</ele>
        <time>2020-12-31T13:51:43Z</time>
      </trkpt>
      <trkpt lat="41.5799480" lon="-0.8914790">
        <ele>374.4</ele>
        <time>2020-12-31T13:51:44Z</time>
      </trkpt>
      <trkpt lat="41.5799310" lon="-0.8914800">
        <ele>374.8</ele>
        <time>2020-12-31T13:51:46Z</time>
      </trkpt>
      <trkpt lat="41.5799170" lon="-0.8914810">
        <ele>375.0</ele>
        <time>2020-12-31T13:51:47Z</time>
      </trkpt>
      <trkpt lat="41.5798910" lon="-0.8914870">
        <ele>375.5</ele>
        <time>2020-12-31T13:51:48Z</time>
      </trkpt>
      <trkpt lat="41.5798800" lon="-0.8914910">
        <ele>375.7</ele>
        <time>2020-12-31T13:51:49Z</time>
      </trkpt>
      <trkpt lat="41.5798530" lon="-0.8915050">
        <ele>376.3</ele>
        <time>2020-12-31T13:51:51Z</time>
      </trkpt>
      <trkpt lat="41.5798450" lon="-0.8915090">
        <ele>376.4</ele>
        <time>2020-12-31T13:51:52Z</time>
      </trkpt>
      <trkpt lat="41.5798120" lon="-0.8915270">
        <ele>377.1</ele>
        <time>2020-12-31T13:51:54Z</time>
      </trkpt>
      <trkpt lat="41.5797980" lon="-0.8915360">
        <ele>377.4</ele>
        <time>2020-12-31T13:51:55Z</time>
      </trkpt>
      <trkpt lat="41.5797860" lon="-0.8915490">
        <ele>377.6</ele>
        <time>2020-12-31T13:51:56Z</time>
      </trkpt>
      <trkpt lat="41.5797770" lon="-0.8915660">
        <ele>377.9</ele>
        <time>2020-12-31T13:51:57Z</time>
      </trkpt>
      <trkpt lat="41.5797690" lon="-0.8915850">
        <ele>378.2</ele>
        <time>2020-12-31T13:51:58Z</time>
      </trkpt>
      <trkpt lat="41.5797600" lon="-0.8916100">
        <ele>378.6</ele>
        <time>2020-12-31T13:52:00Z</time>
      </trkpt>
      <trkpt lat="41.5797550" lon="-0.8916270">
        <ele>378.8</ele>
        <time>2020-12-31T13:52:01Z</time>
      </trkpt>
      <trkpt lat="41.5797480" lon="-0.8916420">
        <ele>379.1</ele>
        <time>2020-12-31T13:52:02Z</time>
      </trkpt>
      <trkpt lat="41.5797360" lon="-0.8916590">
        <ele>379.3</ele>
        <time>2020-12-31T13:52:04Z</time>
      </trkpt>
      <trkpt lat="41.5797240" lon="-0.8916700">
        <ele>379.6</ele>
        <time>2020-12-31T13:52:05Z</time>
      </trkpt>
      <trkpt lat="41.5797120" lon="-0.8916780">
        <ele>379.8</ele>
        <time>2020-12-31T13:52:06Z</time>
      </trkpt>
      <trkpt lat="41.5796990" lon="-0.8916860">
        <ele>380.0</ele>
        <time>2020-12-31T13:52:07Z</time>
      </trkpt>
      <trkpt lat="41.5796840" lon="-0.8916950">
        <ele>380.3</ele>
        <time>2020-12-31T13:52:08Z</time>
      </trkpt>
      <trkpt lat="41.5796540" lon="-0.8917030">
        <ele>380.7</ele>
        <time>2020-12-31T13:52:09Z</time>
      </trkpt>
      <trkpt lat="41.5796390" lon="-0.8917050">
        <ele>380.9</ele>
        <time>2020-12-31T13:52:11Z</time>
      </trkpt>
      <trkpt lat="41.5796240" lon="-0.8917060">
        <ele>381.1</ele>
        <time>2020-12-31T13:52:12Z</time>
      </trkpt>
      <trkpt lat="41.5796090" lon="-0.8917070">
        <ele>381.3</ele>
        <time>2020-12-31T13:52:13Z</time>
      </trkpt>
      <trkpt lat="41.5795780" lon="-0.8917090">
        <ele>381.7</ele>
        <time>2020-12-31T13:52:14Z</time>
      </trkpt>
      <trkpt lat="41.5795670" lon="-0.8917090">
        <ele>381.8</ele>
        <time>2020-12-31T13:52:15Z</time>
      </trkpt>
      <trkpt lat="41.5795420" lon="-0.8917220">
        <ele>382.1</ele>
        <time>2020-12-31T13:52:17Z</time>
      </trkpt>
      <trkpt lat="41.5795230" lon="-0.8917330">
        <ele>382.4</ele>
        <time>2020-12-31T13:52:19Z</time>
      </trkpt>
      <trkpt lat="41.5795060" lon="-0.8917400">
        <ele>382.6</ele>
        <time>2020-12-31T13:52:20Z</time>
      </trkpt>
      <trkpt lat="41.5794880" lon="-0.8917420">
        <ele>382.8</ele>
        <time>2020-12-31T13:52:21Z</time>
      </trkpt>
      <trkpt lat="41.5794710" lon="-0.8917390">
        <ele>383.0</ele>
        <time>2020-12-31T13:52:22Z</time>
      </trkpt>
      <trkpt lat="41.5794530" lon="-0.8917370">
        <ele>383.3</ele>
        <time>2020-12-31T13:52:23Z</time>
      </trkpt>
      <trkpt lat="41.5794190" lon="-0.8917400">
        <ele>383.7</ele>
        <time>2020-12-31T13:52:25Z</time>
      </trkpt>
      <trkpt lat="41.5794120" lon="-0.8917400">
        <ele>383.8</ele>
        <time>2020-12-31T13:52:26Z</time>
      </trkpt>
      <trkpt lat="41.5793800" lon="-0.8917420">
        <ele>384.3</ele>
        <time>2020-12-31T13:52:28Z</time>
      </trkpt>
      <trkpt lat="41.5793710" lon="-0.8917420">
        <ele>384.4</ele>
        <time>2020-12-31T13:52:29Z</time>
      </trkpt>
      <trkpt lat="41.5793330" lon="-0.8917520">
        <ele>384.9</ele>
        <time>2020-12-31T13:52:31Z</time>
      </trkpt>
      <trkpt lat="41.5793210" lon="-0.8917570">
        <ele>385.1</ele>
        <time>2020-12-31T13:52:32Z</time>
      </trkpt>
      <trkpt lat="41.5793050" lon="-0.8917670">
        <ele>385.4</ele>
        <time>2020-12-31T13:52:34Z</time>
      </trkpt>
      <trkpt lat="41.5792880" lon="-0.8917790">
        <ele>385.6</ele>
        <time>2020-12-31T13:52:35Z</time>
      </trkpt>
      <trkpt lat="41.5792640" lon="-0.8918140">
        <ele>386.1</ele>
        <time>2020-12-31T13:52:37Z</time>
      </trkpt>
      <trkpt lat="41.5792530" lon="-0.8918320">
        <ele>386.3</ele>
        <time>2020-12-31T13:52:38Z</time>
      </trkpt>
      <trkpt lat="41.5792280" lon="-0.8918620">
        <ele>386.7</ele>
        <time>2020-12-31T13:52:40Z</time>
      </trkpt>
      <trkpt lat="41.5792030" lon="-0.8918940">
        <ele>387.1</ele>
        <time>2020-12-31T13:52:42Z</time>
      </trkpt>
      <trkpt lat="41.5791960" lon="-0.8919040">
        <ele>387.2</ele>
        <time>2020-12-31T13:52:43Z</time>
      </trkpt>
      <trkpt lat="41.5791870" lon="-0.8919200">
        <ele>387.4</ele>
        <time>2020-12-31T13:52:44Z</time>
      </trkpt>
      <trkpt lat="41.5791740" lon="-0.8919350">
        <ele>387.5</ele>
        <time>2020-12-31T13:52:45Z</time>
      </trkpt>
      <trkpt lat="41.5791490" lon="-0.8919590">
        <ele>387.8</ele>
        <time>2020-12-31T13:52:46Z</time>
      </trkpt>
      <trkpt lat="41.5791390" lon="-0.8919680">
        <ele>387.9</ele>
        <time>2020-12-31T13:52:47Z</time>
      </trkpt>
      <trkpt lat="41.5791190" lon="-0.8919810">
        <ele>388.1</ele>
        <time>2020-12-31T13:52:48Z</time>
      </trkpt>
      <trkpt lat="41.5791020" lon="-0.8919920">
        <ele>388.3</ele>
        <time>2020-12-31T13:52:50Z</time>
      </trkpt>
      <trkpt lat="41.5790860" lon="-0.8920010">
        <ele>388.4</ele>
        <time>2020-12-31T13:52:51Z</time>
      </trkpt>
      <trkpt lat="41.5790700" lon="-0.8920080">
        <ele>388.6</ele>
        <time>2020-12-31T13:52:52Z</time>
      </trkpt>
      <trkpt lat="41.5790430" lon="-0.8920270">
        <ele>388.8</ele>
        <time>2020-12-31T13:52:53Z</time>
      </trkpt>
      <trkpt lat="41.5790330" lon="-0.8920360">
        <ele>388.8</ele>
        <time>2020-12-31T13:52:54Z</time>
      </trkpt>
      <trkpt lat="41.5790090" lon="-0.8920460">
        <ele>389.0</ele>
        <time>2020-12-31T13:52:56Z</time>
      </trkpt>
      <trkpt lat="41.5789790" lon="-0.8920670">
        <ele>389.2</ele>
        <time>2020-12-31T13:52:58Z</time>
      </trkpt>
      <trkpt lat="41.5789530" lon="-0.8920840">
        <ele>389.3</ele>
        <time>2020-12-31T13:52:59Z</time>
      </trkpt>
      <trkpt lat="41.5789320" lon="-0.8920920">
        <ele>389.4</ele>
        <time>2020-12-31T13:53:00Z</time>
      </trkpt>
      <trkpt lat="41.5788970" lon="-0.8921050">
        <ele>389.6</ele>
        <time>2020-12-31T13:53:02Z</time>
      </trkpt>
      <trkpt lat="41.5788580" lon="-0.8921170">
        <ele>389.8</ele>
        <time>2020-12-31T13:53:03Z</time>
      </trkpt>
      <trkpt lat="41.5788420" lon="-0.8921190">
        <ele>389.8</ele>
        <time>2020-12-31T13:53:04Z</time>
      </trkpt>
      <trkpt lat="41.5788120" lon="-0.8921210">
        <ele>389.9</ele>
        <time>2020-12-31T13:53:05Z</time>
      </trkpt>
      <trkpt lat="41.5787870" lon="-0.8921250">
        <ele>389.9</ele>
        <time>2020-12-31T13:53:06Z</time>
      </trkpt>
      <trkpt lat="41.5787660" lon="-0.8921280">
        <ele>389.9</ele>
        <time>2020-12-31T13:53:08Z</time>
      </trkpt>
      <trkpt lat="41.5787330" lon="-0.8921290">
        <ele>390.0</ele>
        <time>2020-12-31T13:53:09Z</time>
      </trkpt>
      <trkpt lat="41.5787220" lon="-0.8921290">
        <ele>390.0</ele>
        <time>2020-12-31T13:53:10Z</time>
      </trkpt>
      <trkpt lat="41.5787080" lon="-0.8921260">
        <ele>390.0</ele>
        <time>2020-12-31T13:53:11Z</time>
      </trkpt>
      <trkpt lat="41.5786950" lon="-0.8921200">
        <ele>390.0</ele>
        <time>2020-12-31T13:53:12Z</time>
      </trkpt>
      <trkpt lat="41.5786810" lon="-0.8921160">
        <ele>390.1</ele>
        <time>2020-12-31T13:53:13Z</time>
      </trkpt>
      <trkpt lat="41.5786590" lon="-0.8921110">
        <ele>390.1</ele>
        <time>2020-12-31T13:53:14Z</time>
      </trkpt>
      <trkpt lat="41.5786280" lon="-0.8920980">
        <ele>390.1</ele>
        <time>2020-12-31T13:53:15Z</time>
      </trkpt>
      <trkpt lat="41.5786190" lon="-0.8920920">
        <ele>390.1</ele>
        <time>2020-12-31T13:53:16Z</time>
      </trkpt>
      <trkpt lat="41.5785830" lon="-0.8920840">
        <ele>390.2</ele>
        <time>2020-12-31T13:53:18Z</time>
      </trkpt>
      <trkpt lat="41.5785710" lon="-0.8920860">
        <ele>390.2</ele>
        <time>2020-12-31T13:53:19Z</time>
      </trkpt>
      <trkpt lat="41.5785260" lon="-0.8921110">
        <ele>390.2</ele>
        <time>2020-12-31T13:53:20Z</time>
      </trkpt>
      <trkpt lat="41.5784180" lon="-0.8921810">
        <ele>390.0</ele>
        <time>2020-12-31T13:53:22Z</time>
      </trkpt>
      <trkpt lat="41.5783170" lon="-0.8922650">
        <ele>389.6</ele>
        <time>2020-12-31T13:53:24Z</time>
      </trkpt>
      <trkpt lat="41.5782960" lon="-0.8922540">
        <ele>389.5</ele>
        <time>2020-12-31T13:53:25Z</time>
      </trkpt>
      <trkpt lat="41.5782360" lon="-0.8922550">
        <ele>389.4</ele>
        <time>2020-12-31T13:53:27Z</time>
      </trkpt>
      <trkpt lat="41.5782280" lon="-0.8922590">
        <ele>389.4</ele>
        <time>2020-12-31T13:53:28Z</time>
      </trkpt>
      <trkpt lat="41.5781850" lon="-0.8922680">
        <ele>389.3</ele>
        <time>2020-12-31T13:53:30Z</time>
      </trkpt>
      <trkpt lat="41.5781560" lon="-0.8922800">
        <ele>389.3</ele>
        <time>2020-12-31T13:53:31Z</time>
      </trkpt>
      <trkpt lat="41.5781210" lon="-0.8922860">
        <ele>389.3</ele>
        <time>2020-12-31T13:53:33Z</time>
      </trkpt>
      <trkpt lat="41.5780950" lon="-0.8922960">
        <ele>389.4</ele>
        <time>2020-12-31T13:53:34Z</time>
      </trkpt>
      <trkpt lat="41.5780620" lon="-0.8923200">
        <ele>389.4</ele>
        <time>2020-12-31T13:53:36Z</time>
      </trkpt>
      <trkpt lat="41.5780360" lon="-0.8923360">
        <ele>389.4</ele>
        <time>2020-12-31T13:53:37Z</time>
      </trkpt>
      <trkpt lat="41.5780010" lon="-0.8923500">
        <ele>389.5</ele>
        <time>2020-12-31T13:53:39Z</time>
      </trkpt>
      <trkpt lat="41.5779730" lon="-0.8923610">
        <ele>389.5</ele>
        <time>2020-12-31T13:53:40Z</time>
      </trkpt>
      <trkpt lat="41.5779400" lon="-0.8923930">
        <ele>389.3</ele>
        <time>2020-12-31T13:53:41Z</time>
      </trkpt>
      <trkpt lat="41.5778970" lon="-0.8924650">
        <ele>388.6</ele>
        <time>2020-12-31T13:53:43Z</time>
      </trkpt>
      <trkpt lat="41.5778770" lon="-0.8925110">
        <ele>387.9</ele>
        <time>2020-12-31T13:53:44Z</time>
      </trkpt>
      <trkpt lat="41.5778430" lon="-0.8925720">
        <ele>386.7</ele>
        <time>2020-12-31T13:53:45Z</time>
      </trkpt>
      <trkpt lat="41.5778160" lon="-0.8926270">
        <ele>385.4</ele>
        <time>2020-12-31T13:53:47Z</time>
      </trkpt>
      <trkpt lat="41.5778080" lon="-0.8926570">
        <ele>384.7</ele>
        <time>2020-12-31T13:53:48Z</time>
      </trkpt>
      <trkpt lat="41.5777880" lon="-0.8926890">
        <ele>383.8</ele>
        <time>2020-12-31T13:53:50Z</time>
      </trkpt>
      <trkpt lat="41.5777690" lon="-0.8927310">
        <ele>382.8</ele>
        <time>2020-12-31T13:53:51Z</time>
      </trkpt>
      <trkpt lat="41.5777620" lon="-0.8927440">
        <ele>382.5</ele>
        <time>2020-12-31T13:53:52Z</time>
      </trkpt>
      <trkpt lat="41.5775990" lon="-0.8929940">
        <ele>378.7</ele>
        <time>2020-12-31T13:53:53Z</time>
      </trkpt>
      <trkpt lat="41.5774510" lon="-0.8932180">
        <ele>375.2</ele>
        <time>2020-12-31T13:53:54Z</time>
      </trkpt>
      <trkpt lat="41.5773030" lon="-0.8934420">
        <ele>373.7</ele>
        <time>2020-12-31T13:53:56Z</time>
      </trkpt>
      <trkpt lat="41.5772110" lon="-0.8935250">
        <ele>374.0</ele>
        <time>2020-12-31T13:53:57Z</time>
      </trkpt>
      <trkpt lat="41.5771370" lon="-0.8935880">
        <ele>374.5</ele>
        <time>2020-12-31T13:53:58Z</time>
      </trkpt>
      <trkpt lat="41.5770340" lon="-0.8936470">
        <ele>375.5</ele>
        <time>2020-12-31T13:54:00Z</time>
      </trkpt>
      <trkpt lat="41.5770100" lon="-0.8936550">
        <ele>375.7</ele>
        <time>2020-12-31T13:54:01Z</time>
      </trkpt>
      <trkpt lat="41.5769680" lon="-0.8936780">
        <ele>376.1</ele>
        <time>2020-12-31T13:54:03Z</time>
      </trkpt>
      <trkpt lat="41.5769230" lon="-0.8937080">
        <ele>376.5</ele>
        <time>2020-12-31T13:54:04Z</time>
      </trkpt>
      <trkpt lat="41.5768930" lon="-0.8937300">
        <ele>376.6</ele>
        <time>2020-12-31T13:54:05Z</time>
      </trkpt>
      <trkpt lat="41.5768460" lon="-0.8937640">
        <ele>376.9</ele>
        <time>2020-12-31T13:54:07Z</time>
      </trkpt>
      <trkpt lat="41.5768160" lon="-0.8937890">
        <ele>376.9</ele>
        <time>2020-12-31T13:54:08Z</time>
      </trkpt>
      <trkpt lat="41.5767890" lon="-0.8938130">
        <ele>377.0</ele>
        <time>2020-12-31T13:54:09Z</time>
      </trkpt>
      <trkpt lat="41.5767560" lon="-0.8938390">
        <ele>377.0</ele>
        <time>2020-12-31T13:54:10Z</time>
      </trkpt>
      <trkpt lat="41.5767100" lon="-0.8938750">
        <ele>376.9</ele>
        <time>2020-12-31T13:54:12Z</time>
      </trkpt>
      <trkpt lat="41.5766820" lon="-0.8939030">
        <ele>376.9</ele>
        <time>2020-12-31T13:54:13Z</time>
      </trkpt>
      <trkpt lat="41.5766490" lon="-0.8939370">
        <ele>376.7</ele>
        <time>2020-12-31T13:54:14Z</time>
      </trkpt>
      <trkpt lat="41.5766140" lon="-0.8939710">
        <ele>376.5</ele>
        <time>2020-12-31T13:54:15Z</time>
      </trkpt>
      <trkpt lat="41.5765830" lon="-0.8940190">
        <ele>376.3</ele>
        <time>2020-12-31T13:54:16Z</time>
      </trkpt>
      <trkpt lat="41.5765660" lon="-0.8940730">
        <ele>376.0</ele>
        <time>2020-12-31T13:54:17Z</time>
      </trkpt>
      <trkpt lat="41.5765580" lon="-0.8941290">
        <ele>375.7</ele>
        <time>2020-12-31T13:54:18Z</time>
      </trkpt>
      <trkpt lat="41.5765600" lon="-0.8941910">
        <ele>375.4</ele>
        <time>2020-12-31T13:54:19Z</time>
      </trkpt>
      <trkpt lat="41.5765760" lon="-0.8942560">
        <ele>375.1</ele>
        <time>2020-12-31T13:54:21Z</time>
      </trkpt>
      <trkpt lat="41.5766030" lon="-0.8943160">
        <ele>374.7</ele>
        <time>2020-12-31T13:54:22Z</time>
      </trkpt>
      <trkpt lat="41.5766510" lon="-0.8943870">
        <ele>374.2</ele>
        <time>2020-12-31T13:54:23Z</time>
      </trkpt>
      <trkpt lat="41.5766780" lon="-0.8944560">
        <ele>373.9</ele>
        <time>2020-12-31T13:54:24Z</time>
      </trkpt>
      <trkpt lat="41.5767110" lon="-0.8946220">
        <ele>373.3</ele>
        <time>2020-12-31T13:54:26Z</time>
      </trkpt>
      <trkpt lat="41.5767460" lon="-0.8947950">
        <ele>373.3</ele>
        <time>2020-12-31T13:54:28Z</time>
      </trkpt>
      <trkpt lat="41.5767900" lon="-0.8949510">
        <ele>373.6</ele>
        <time>2020-12-31T13:54:30Z</time>
      </trkpt>
      <trkpt lat="41.5767960" lon="-0.8950810">
        <ele>373.5</ele>
        <time>2020-12-31T13:54:32Z</time>
      </trkpt>
      <trkpt lat="41.5767200" lon="-0.8951470">
        <ele>373.7</ele>
        <time>2020-12-31T13:54:34Z</time>
      </trkpt>
      <trkpt lat="41.5766710" lon="-0.8951600">
        <ele>373.9</ele>
        <time>2020-12-31T13:54:35Z</time>
      </trkpt>
      <trkpt lat="41.5766200" lon="-0.8951170">
        <ele>374.2</ele>
        <time>2020-12-31T13:54:36Z</time>
      </trkpt>
      <trkpt lat="41.5765700" lon="-0.8951220">
        <ele>374.5</ele>
        <time>2020-12-31T13:54:38Z</time>
      </trkpt>
      <trkpt lat="41.5765280" lon="-0.8951510">
        <ele>374.8</ele>
        <time>2020-12-31T13:54:39Z</time>
      </trkpt>
      <trkpt lat="41.5764950" lon="-0.8951890">
        <ele>375.1</ele>
        <time>2020-12-31T13:54:40Z</time>
      </trkpt>
      <trkpt lat="41.5764670" lon="-0.8952350">
        <ele>375.4</ele>
        <time>2020-12-31T13:54:41Z</time>
      </trkpt>
      <trkpt lat="41.5764410" lon="-0.8952670">
        <ele>375.7</ele>
        <time>2020-12-31T13:54:42Z</time>
      </trkpt>
      <trkpt lat="41.5764100" lon="-0.8953050">
        <ele>376.0</ele>
        <time>2020-12-31T13:54:43Z</time>
      </trkpt>
      <trkpt lat="41.5763840" lon="-0.8953350">
        <ele>376.3</ele>
        <time>2020-12-31T13:54:45Z</time>
      </trkpt>
      <trkpt lat="41.5763650" lon="-0.8953710">
        <ele>376.5</ele>
        <time>2020-12-31T13:54:46Z</time>
      </trkpt>
      <trkpt lat="41.5763450" lon="-0.8954090">
        <ele>376.8</ele>
        <time>2020-12-31T13:54:47Z</time>
      </trkpt>
      <trkpt lat="41.5763200" lon="-0.8954470">
        <ele>377.1</ele>
        <time>2020-12-31T13:54:48Z</time>
      </trkpt>
      <trkpt lat="41.5763110" lon="-0.8954620">
        <ele>377.2</ele>
        <time>2020-12-31T13:54:49Z</time>
      </trkpt>
      <trkpt lat="41.5762950" lon="-0.8955090">
        <ele>377.5</ele>
        <time>2020-12-31T13:54:51Z</time>
      </trkpt>
      <trkpt lat="41.5762820" lon="-0.8955420">
        <ele>377.7</ele>
        <time>2020-12-31T13:54:52Z</time>
      </trkpt>
      <trkpt lat="41.5762660" lon="-0.8955840">
        <ele>378.0</ele>
        <time>2020-12-31T13:54:54Z</time>
      </trkpt>
      <trkpt lat="41.5762530" lon="-0.8956180">
        <ele>378.2</ele>
        <time>2020-12-31T13:54:55Z</time>
      </trkpt>
      <trkpt lat="41.5762400" lon="-0.8956490">
        <ele>378.3</ele>
        <time>2020-12-31T13:54:56Z</time>
      </trkpt>
      <trkpt lat="41.5762280" lon="-0.8956800">
        <ele>378.5</ele>
        <time>2020-12-31T13:54:58Z</time>
      </trkpt>
      <trkpt lat="41.5762160" lon="-0.8957190">
        <ele>378.7</ele>
        <time>2020-12-31T13:54:59Z</time>
      </trkpt>
      <trkpt lat="41.5761940" lon="-0.8957680">
        <ele>379.0</ele>
        <time>2020-12-31T13:55:01Z</time>
      </trkpt>
      <trkpt lat="41.5761780" lon="-0.8958100">
        <ele>379.3</ele>
        <time>2020-12-31T13:55:02Z</time>
      </trkpt>
      <trkpt lat="41.5761720" lon="-0.8958460">
        <ele>379.5</ele>
        <time>2020-12-31T13:55:03Z</time>
      </trkpt>
      <trkpt lat="41.5761570" lon="-0.8958920">
        <ele>379.7</ele>
        <time>2020-12-31T13:55:05Z</time>
      </trkpt>
      <trkpt lat="41.5761450" lon="-0.8959300">
        <ele>379.9</ele>
        <time>2020-12-31T13:55:06Z</time>
      </trkpt>
      <trkpt lat="41.5761220" lon="-0.8959890">
        <ele>380.3</ele>
        <time>2020-12-31T13:55:08Z</time>
      </trkpt>
      <trkpt lat="41.5761150" lon="-0.8960090">
        <ele>380.4</ele>
        <time>2020-12-31T13:55:09Z</time>
      </trkpt>
      <trkpt lat="41.5761090" lon="-0.8960290">
        <ele>380.4</ele>
        <time>2020-12-31T13:55:10Z</time>
      </trkpt>
      <trkpt lat="41.5760960" lon="-0.8960750">
        <ele>380.7</ele>
        <time>2020-12-31T13:55:12Z</time>
      </trkpt>
      <trkpt lat="41.5760790" lon="-0.8961150">
        <ele>380.9</ele>
        <time>2020-12-31T13:55:13Z</time>
      </trkpt>
      <trkpt lat="41.5760630" lon="-0.8961450">
        <ele>381.0</ele>
        <time>2020-12-31T13:55:14Z</time>
      </trkpt>
      <trkpt lat="41.5760410" lon="-0.8961860">
        <ele>381.3</ele>
        <time>2020-12-31T13:55:15Z</time>
      </trkpt>
      <trkpt lat="41.5760180" lon="-0.8962300">
        <ele>381.5</ele>
        <time>2020-12-31T13:55:17Z</time>
      </trkpt>
      <trkpt lat="41.5760000" lon="-0.8962830">
        <ele>381.8</ele>
        <time>2020-12-31T13:55:19Z</time>
      </trkpt>
      <trkpt lat="41.5759830" lon="-0.8963180">
        <ele>382.0</ele>
        <time>2020-12-31T13:55:20Z</time>
      </trkpt>
      <trkpt lat="41.5759710" lon="-0.8963420">
        <ele>382.1</ele>
        <time>2020-12-31T13:55:21Z</time>
      </trkpt>
      <trkpt lat="41.5759580" lon="-0.8963670">
        <ele>382.3</ele>
        <time>2020-12-31T13:55:23Z</time>
      </trkpt>
      <trkpt lat="41.5759580" lon="-0.8963800">
        <ele>382.4</ele>
        <time>2020-12-31T13:55:24Z</time>
      </trkpt>
      <trkpt lat="41.5759550" lon="-0.8963930">
        <ele>382.5</ele>
        <time>2020-12-31T13:55:25Z</time>
      </trkpt>
      <trkpt lat="41.5759450" lon="-0.8964270">
        <ele>382.7</ele>
        <time>2020-12-31T13:55:27Z</time>
      </trkpt>
      <trkpt lat="41.5759240" lon="-0.8964670">
        <ele>383.0</ele>
        <time>2020-12-31T13:55:28Z</time>
      </trkpt>
      <trkpt lat="41.5758890" lon="-0.8965210">
        <ele>383.5</ele>
        <time>2020-12-31T13:55:30Z</time>
      </trkpt>
      <trkpt lat="41.5758650" lon="-0.8965520">
        <ele>383.8</ele>
        <time>2020-12-31T13:55:31Z</time>
      </trkpt>
      <trkpt lat="41.5758430" lon="-0.8965880">
        <ele>384.2</ele>
        <time>2020-12-31T13:55:32Z</time>
      </trkpt>
      <trkpt lat="41.5758120" lon="-0.8966400">
        <ele>384.7</ele>
        <time>2020-12-31T13:55:34Z</time>
      </trkpt>
      <trkpt lat="41.5758010" lon="-0.8966560">
        <ele>384.9</ele>
        <time>2020-12-31T13:55:35Z</time>
      </trkpt>
      <trkpt lat="41.5757910" lon="-0.8966730">
        <ele>385.1</ele>
        <time>2020-12-31T13:55:36Z</time>
      </trkpt>
      <trkpt lat="41.5757650" lon="-0.8967060">
        <ele>385.4</ele>
        <time>2020-12-31T13:55:38Z</time>
      </trkpt>
      <trkpt lat="41.5757450" lon="-0.8967380">
        <ele>385.8</ele>
        <time>2020-12-31T13:55:39Z</time>
      </trkpt>
      <trkpt lat="41.5757380" lon="-0.8967510">
        <ele>385.9</ele>
        <time>2020-12-31T13:55:40Z</time>
      </trkpt>
      <trkpt lat="41.5757160" lon="-0.8967990">
        <ele>386.4</ele>
        <time>2020-12-31T13:55:42Z</time>
      </trkpt>
      <trkpt lat="41.5757100" lon="-0.8968150">
        <ele>386.5</ele>
        <time>2020-12-31T13:55:43Z</time>
      </trkpt>
      <trkpt lat="41.5757050" lon="-0.8968310">
        <ele>386.6</ele>
        <time>2020-12-31T13:55:44Z</time>
      </trkpt>
      <trkpt lat="41.5756900" lon="-0.8968860">
        <ele>387.1</ele>
        <time>2020-12-31T13:55:46Z</time>
      </trkpt>
      <trkpt lat="41.5756860" lon="-0.8969050">
        <ele>387.2</ele>
        <time>2020-12-31T13:55:47Z</time>
      </trkpt>
      <trkpt lat="41.5756820" lon="-0.8969230">
        <ele>387.4</ele>
        <time>2020-12-31T13:55:48Z</time>
      </trkpt>
      <trkpt lat="41.5756770" lon="-0.8969630">
        <ele>387.7</ele>
        <time>2020-12-31T13:55:49Z</time>
      </trkpt>
      <trkpt lat="41.5756760" lon="-0.8969760">
        <ele>387.7</ele>
        <time>2020-12-31T13:55:50Z</time>
      </trkpt>
      <trkpt lat="41.5756730" lon="-0.8969980">
        <ele>387.9</ele>
        <time>2020-12-31T13:55:51Z</time>
      </trkpt>
      <trkpt lat="41.5756690" lon="-0.8970240">
        <ele>388.1</ele>
        <time>2020-12-31T13:55:53Z</time>
      </trkpt>
      <trkpt lat="41.5756620" lon="-0.8970530">
        <ele>388.3</ele>
        <time>2020-12-31T13:55:54Z</time>
      </trkpt>
      <trkpt lat="41.5756530" lon="-0.8970970">
        <ele>388.5</ele>
        <time>2020-12-31T13:55:56Z</time>
      </trkpt>
      <trkpt lat="41.5756460" lon="-0.8971380">
        <ele>388.8</ele>
        <time>2020-12-31T13:55:57Z</time>
      </trkpt>
      <trkpt lat="41.5756430" lon="-0.8971520">
        <ele>388.9</ele>
        <time>2020-12-31T13:55:58Z</time>
      </trkpt>
      <trkpt lat="41.5756360" lon="-0.8971800">
        <ele>389.1</ele>
        <time>2020-12-31T13:55:59Z</time>
      </trkpt>
      <trkpt lat="41.5756250" lon="-0.8972120">
        <ele>389.3</ele>
        <time>2020-12-31T13:56:01Z</time>
      </trkpt>
      <trkpt lat="41.5756130" lon="-0.8972440">
        <ele>389.5</ele>
        <time>2020-12-31T13:56:03Z</time>
      </trkpt>
      <trkpt lat="41.5755990" lon="-0.8972770">
        <ele>389.7</ele>
        <time>2020-12-31T13:56:04Z</time>
      </trkpt>
      <trkpt lat="41.5755770" lon="-0.8973240">
        <ele>390.0</ele>
        <time>2020-12-31T13:56:06Z</time>
      </trkpt>
      <trkpt lat="41.5755550" lon="-0.8973580">
        <ele>390.2</ele>
        <time>2020-12-31T13:56:07Z</time>
      </trkpt>
      <trkpt lat="41.5755500" lon="-0.8973700">
        <ele>390.3</ele>
        <time>2020-12-31T13:56:08Z</time>
      </trkpt>
      <trkpt lat="41.5755420" lon="-0.8973940">
        <ele>390.4</ele>
        <time>2020-12-31T13:56:09Z</time>
      </trkpt>
      <trkpt lat="41.5755360" lon="-0.8974100">
        <ele>390.5</ele>
        <time>2020-12-31T13:56:11Z</time>
      </trkpt>
      <trkpt lat="41.5755340" lon="-0.8974170">
        <ele>390.5</ele>
        <time>2020-12-31T13:56:13Z</time>
      </trkpt>
      <trkpt lat="41.5755280" lon="-0.8974290">
        <ele>390.6</ele>
        <time>2020-12-31T13:56:14Z</time>
      </trkpt>
      <trkpt lat="41.5755230" lon="-0.8974440">
        <ele>390.7</ele>
        <time>2020-12-31T13:56:15Z</time>
      </trkpt>
      <trkpt lat="41.5755080" lon="-0.8974800">
        <ele>390.9</ele>
        <time>2020-12-31T13:56:17Z</time>
      </trkpt>
      <trkpt lat="41.5754910" lon="-0.8975220">
        <ele>391.1</ele>
        <time>2020-12-31T13:56:19Z</time>
      </trkpt>
      <trkpt lat="41.5754730" lon="-0.8975690">
        <ele>391.3</ele>
        <time>2020-12-31T13:56:20Z</time>
      </trkpt>
      <trkpt lat="41.5754450" lon="-0.8976140">
        <ele>391.5</ele>
        <time>2020-12-31T13:56:22Z</time>
      </trkpt>
      <trkpt lat="41.5754340" lon="-0.8976320">
        <ele>391.6</ele>
        <time>2020-12-31T13:56:23Z</time>
      </trkpt>
      <trkpt lat="41.5754100" lon="-0.8976780">
        <ele>391.8</ele>
        <time>2020-12-31T13:56:24Z</time>
      </trkpt>
      <trkpt lat="41.5754010" lon="-0.8976940">
        <ele>391.9</ele>
        <time>2020-12-31T13:56:25Z</time>
      </trkpt>
      <trkpt lat="41.5753770" lon="-0.8977410">
        <ele>392.1</ele>
        <time>2020-12-31T13:56:27Z</time>
      </trkpt>
      <trkpt lat="41.5753640" lon="-0.8977760">
        <ele>392.2</ele>
        <time>2020-12-31T13:56:28Z</time>
      </trkpt>
      <trkpt lat="41.5753500" lon="-0.8978080">
        <ele>392.3</ele>
        <time>2020-12-31T13:56:29Z</time>
      </trkpt>
      <trkpt lat="41.5753270" lon="-0.8978560">
        <ele>392.5</ele>
        <time>2020-12-31T13:56:30Z</time>
      </trkpt>
      <trkpt lat="41.5753170" lon="-0.8978760">
        <ele>392.5</ele>
        <time>2020-12-31T13:56:31Z</time>
      </trkpt>
      <trkpt lat="41.5753000" lon="-0.8979120">
        <ele>392.6</ele>
        <time>2020-12-31T13:56:32Z</time>
      </trkpt>
      <trkpt lat="41.5752830" lon="-0.8979520">
        <ele>392.7</ele>
        <time>2020-12-31T13:56:34Z</time>
      </trkpt>
      <trkpt lat="41.5752650" lon="-0.8979900">
        <ele>392.8</ele>
        <time>2020-12-31T13:56:35Z</time>
      </trkpt>
      <trkpt lat="41.5752450" lon="-0.8980420">
        <ele>393.0</ele>
        <time>2020-12-31T13:56:36Z</time>
      </trkpt>
      <trkpt lat="41.5752360" lon="-0.8980630">
        <ele>393.0</ele>
        <time>2020-12-31T13:56:37Z</time>
      </trkpt>
      <trkpt lat="41.5752150" lon="-0.8981020">
        <ele>393.1</ele>
        <time>2020-12-31T13:56:39Z</time>
      </trkpt>
      <trkpt lat="41.5751950" lon="-0.8981520">
        <ele>393.2</ele>
        <time>2020-12-31T13:56:41Z</time>
      </trkpt>
      <trkpt lat="41.5751840" lon="-0.8981870">
        <ele>393.3</ele>
        <time>2020-12-31T13:56:42Z</time>
      </trkpt>
      <trkpt lat="41.5751720" lon="-0.8982410">
        <ele>393.4</ele>
        <time>2020-12-31T13:56:44Z</time>
      </trkpt>
      <trkpt lat="41.5751690" lon="-0.8982700">
        <ele>393.4</ele>
        <time>2020-12-31T13:56:45Z</time>
      </trkpt>
      <trkpt lat="41.5751630" lon="-0.8983240">
        <ele>393.5</ele>
        <time>2020-12-31T13:56:47Z</time>
      </trkpt>
      <trkpt lat="41.5751550" lon="-0.8983640">
        <ele>393.6</ele>
        <time>2020-12-31T13:56:48Z</time>
      </trkpt>
      <trkpt lat="41.5751510" lon="-0.8983730">
        <ele>393.6</ele>
        <time>2020-12-31T13:56:49Z</time>
      </trkpt>
      <trkpt lat="41.5751320" lon="-0.8984080">
        <ele>393.7</ele>
        <time>2020-12-31T13:56:51Z</time>
      </trkpt>
      <trkpt lat="41.5751250" lon="-0.8984170">
        <ele>393.7</ele>
        <time>2020-12-31T13:56:52Z</time>
      </trkpt>
      <trkpt lat="41.5750930" lon="-0.8984340">
        <ele>393.8</ele>
        <time>2020-12-31T13:56:53Z</time>
      </trkpt>
      <trkpt lat="41.5750830" lon="-0.8984370">
        <ele>393.8</ele>
        <time>2020-12-31T13:56:54Z</time>
      </trkpt>
      <trkpt lat="41.5750550" lon="-0.8984490">
        <ele>393.8</ele>
        <time>2020-12-31T13:56:55Z</time>
      </trkpt>
      <trkpt lat="41.5750260" lon="-0.8984650">
        <ele>393.9</ele>
        <time>2020-12-31T13:56:56Z</time>
      </trkpt>
      <trkpt lat="41.5749930" lon="-0.8984790">
        <ele>393.9</ele>
        <time>2020-12-31T13:56:57Z</time>
      </trkpt>
      <trkpt lat="41.5749830" lon="-0.8984830">
        <ele>393.9</ele>
        <time>2020-12-31T13:56:58Z</time>
      </trkpt>
      <trkpt lat="41.5749470" lon="-0.8984990">
        <ele>394.0</ele>
        <time>2020-12-31T13:57:00Z</time>
      </trkpt>
      <trkpt lat="41.5749300" lon="-0.8985060">
        <ele>394.0</ele>
        <time>2020-12-31T13:57:01Z</time>
      </trkpt>
      <trkpt lat="41.5748940" lon="-0.8985230">
        <ele>394.0</ele>
        <time>2020-12-31T13:57:02Z</time>
      </trkpt>
      <trkpt lat="41.5748340" lon="-0.8985580">
        <ele>394.1</ele>
        <time>2020-12-31T13:57:04Z</time>
      </trkpt>
      <trkpt lat="41.5747890" lon="-0.8985970">
        <ele>394.2</ele>
        <time>2020-12-31T13:57:05Z</time>
      </trkpt>
      <trkpt lat="41.5747530" lon="-0.8986690">
        <ele>394.3</ele>
        <time>2020-12-31T13:57:07Z</time>
      </trkpt>
      <trkpt lat="41.5747070" lon="-0.8987630">
        <ele>394.5</ele>
        <time>2020-12-31T13:57:08Z</time>
      </trkpt>
      <trkpt lat="41.5746710" lon="-0.8987540">
        <ele>394.6</ele>
        <time>2020-12-31T13:57:09Z</time>
      </trkpt>
      <trkpt lat="41.5745590" lon="-0.8988260">
        <ele>394.9</ele>
        <time>2020-12-31T13:57:11Z</time>
      </trkpt>
      <trkpt lat="41.5744600" lon="-0.8988760">
        <ele>395.2</ele>
        <time>2020-12-31T13:57:13Z</time>
      </trkpt>
      <trkpt lat="41.5744300" lon="-0.8988980">
        <ele>395.3</ele>
        <time>2020-12-31T13:57:14Z</time>
      </trkpt>
      <trkpt lat="41.5743840" lon="-0.8989290">
        <ele>395.4</ele>
        <time>2020-12-31T13:57:16Z</time>
      </trkpt>
      <trkpt lat="41.5743400" lon="-0.8989740">
        <ele>395.5</ele>
        <time>2020-12-31T13:57:17Z</time>
      </trkpt>
      <trkpt lat="41.5743010" lon="-0.8990330">
        <ele>395.6</ele>
        <time>2020-12-31T13:57:18Z</time>
      </trkpt>
      <trkpt lat="41.5742640" lon="-0.8991460">
        <ele>395.6</ele>
        <time>2020-12-31T13:57:20Z</time>
      </trkpt>
      <trkpt lat="41.5742650" lon="-0.8993080">
        <ele>395.3</ele>
        <time>2020-12-31T13:57:22Z</time>
      </trkpt>
      <trkpt lat="41.5742710" lon="-0.8993870">
        <ele>395.2</ele>
        <time>2020-12-31T13:57:23Z</time>
      </trkpt>
      <trkpt lat="41.5742690" lon="-0.8995430">
        <ele>395.0</ele>
        <time>2020-12-31T13:57:25Z</time>
      </trkpt>
      <trkpt lat="41.5742680" lon="-0.8996860">
        <ele>395.0</ele>
        <time>2020-12-31T13:57:27Z</time>
      </trkpt>
      <trkpt lat="41.5742620" lon="-0.8997730">
        <ele>395.0</ele>
        <time>2020-12-31T13:57:29Z</time>
      </trkpt>
      <trkpt lat="41.5742530" lon="-0.8997690">
        <ele>395.0</ele>
        <time>2020-12-31T13:57:30Z</time>
      </trkpt>
      <trkpt lat="41.5742450" lon="-0.8998080">
        <ele>395.0</ele>
        <time>2020-12-31T13:57:31Z</time>
      </trkpt>
      <trkpt lat="41.5742280" lon="-0.8998540">
        <ele>395.0</ele>
        <time>2020-12-31T13:57:32Z</time>
      </trkpt>
      <trkpt lat="41.5742100" lon="-0.8998860">
        <ele>395.0</ele>
        <time>2020-12-31T13:57:33Z</time>
      </trkpt>
      <trkpt lat="41.5741950" lon="-0.8999180">
        <ele>395.0</ele>
        <time>2020-12-31T13:57:34Z</time>
      </trkpt>
      <trkpt lat="41.5741750" lon="-0.8999570">
        <ele>394.9</ele>
        <time>2020-12-31T13:57:35Z</time>
      </trkpt>
      <trkpt lat="41.5741560" lon="-0.8999850">
        <ele>394.8</ele>
        <time>2020-12-31T13:57:37Z</time>
      </trkpt>
      <trkpt lat="41.5741360" lon="-0.9000190">
        <ele>394.8</ele>
        <time>2020-12-31T13:57:38Z</time>
      </trkpt>
      <trkpt lat="41.5741210" lon="-0.9000520">
        <ele>394.7</ele>
        <time>2020-12-31T13:57:39Z</time>
      </trkpt>
      <trkpt lat="41.5741040" lon="-0.9000890">
        <ele>394.7</ele>
        <time>2020-12-31T13:57:40Z</time>
      </trkpt>
      <trkpt lat="41.5740810" lon="-0.9001600">
        <ele>394.7</ele>
        <time>2020-12-31T13:57:41Z</time>
      </trkpt>
      <trkpt lat="41.5740520" lon="-0.9002460">
        <ele>394.8</ele>
        <time>2020-12-31T13:57:43Z</time>
      </trkpt>
      <trkpt lat="41.5740300" lon="-0.9003100">
        <ele>394.9</ele>
        <time>2020-12-31T13:57:44Z</time>
      </trkpt>
      <trkpt lat="41.5740180" lon="-0.9003970">
        <ele>395.1</ele>
        <time>2020-12-31T13:57:46Z</time>
      </trkpt>
      <trkpt lat="41.5740100" lon="-0.9004690">
        <ele>395.4</ele>
        <time>2020-12-31T13:57:47Z</time>
      </trkpt>
      <trkpt lat="41.5740000" lon="-0.9005240">
        <ele>395.5</ele>
        <time>2020-12-31T13:57:48Z</time>
      </trkpt>
      <trkpt lat="41.5739800" lon="-0.9005960">
        <ele>395.8</ele>
        <time>2020-12-31T13:57:49Z</time>
      </trkpt>
      <trkpt lat="41.5739530" lon="-0.9006850">
        <ele>396.2</ele>
        <time>2020-12-31T13:57:50Z</time>
      </trkpt>
      <trkpt lat="41.5739370" lon="-0.9007660">
        <ele>396.7</ele>
        <time>2020-12-31T13:57:52Z</time>
      </trkpt>
      <trkpt lat="41.5739200" lon="-0.9008410">
        <ele>397.3</ele>
        <time>2020-12-31T13:57:53Z</time>
      </trkpt>
      <trkpt lat="41.5739060" lon="-0.9008890">
        <ele>397.8</ele>
        <time>2020-12-31T13:57:54Z</time>
      </trkpt>
      <trkpt lat="41.5738940" lon="-0.9009350">
        <ele>398.3</ele>
        <time>2020-12-31T13:57:56Z</time>
      </trkpt>
      <trkpt lat="41.5739010" lon="-0.9009670">
        <ele>398.7</ele>
        <time>2020-12-31T13:57:57Z</time>
      </trkpt>
      <trkpt lat="41.5739090" lon="-0.9009920">
        <ele>398.9</ele>
        <time>2020-12-31T13:57:59Z</time>
      </trkpt>
      <trkpt lat="41.5739080" lon="-0.9009980">
        <ele>399.0</ele>
        <time>2020-12-31T13:58:01Z</time>
      </trkpt>
      <trkpt lat="41.5739110" lon="-0.9010270">
        <ele>399.3</ele>
        <time>2020-12-31T13:58:03Z</time>
      </trkpt>
      <trkpt lat="41.5739070" lon="-0.9010360">
        <ele>399.4</ele>
        <time>2020-12-31T13:58:04Z</time>
      </trkpt>
      <trkpt lat="41.5738980" lon="-0.9010560">
        <ele>399.7</ele>
        <time>2020-12-31T13:58:05Z</time>
      </trkpt>
      <trkpt lat="41.5738920" lon="-0.9010890">
        <ele>400.1</ele>
        <time>2020-12-31T13:58:07Z</time>
      </trkpt>
      <trkpt lat="41.5738940" lon="-0.9010870">
        <ele>400.1</ele>
        <time>2020-12-31T13:58:08Z</time>
      </trkpt>
      <trkpt lat="41.5738980" lon="-0.9010750">
        <ele>400.2</ele>
        <time>2020-12-31T13:58:10Z</time>
      </trkpt>
      <trkpt lat="41.5738990" lon="-0.9010800">
        <ele>400.3</ele>
        <time>2020-12-31T13:58:11Z</time>
      </trkpt>
      <trkpt lat="41.5738940" lon="-0.9010890">
        <ele>400.4</ele>
        <time>2020-12-31T13:58:12Z</time>
      </trkpt>
      <trkpt lat="41.5738880" lon="-0.9011090">
        <ele>400.6</ele>
        <time>2020-12-31T13:58:13Z</time>
      </trkpt>
      <trkpt lat="41.5738900" lon="-0.9011450">
        <ele>400.9</ele>
        <time>2020-12-31T13:58:15Z</time>
      </trkpt>
      <trkpt lat="41.5738880" lon="-0.9011880">
        <ele>401.3</ele>
        <time>2020-12-31T13:58:16Z</time>
      </trkpt>
      <trkpt lat="41.5738860" lon="-0.9012040">
        <ele>401.4</ele>
        <time>2020-12-31T13:58:17Z</time>
      </trkpt>
      <trkpt lat="41.5738790" lon="-0.9012510">
        <ele>401.7</ele>
        <time>2020-12-31T13:58:18Z</time>
      </trkpt>
      <trkpt lat="41.5738710" lon="-0.9013130">
        <ele>402.1</ele>
        <time>2020-12-31T13:58:20Z</time>
      </trkpt>
      <trkpt lat="41.5738580" lon="-0.9013940">
        <ele>402.5</ele>
        <time>2020-12-31T13:58:22Z</time>
      </trkpt>
      <trkpt lat="41.5738540" lon="-0.9014380">
        <ele>402.7</ele>
        <time>2020-12-31T13:58:23Z</time>
      </trkpt>
      <trkpt lat="41.5738510" lon="-0.9015250">
        <ele>403.0</ele>
        <time>2020-12-31T13:58:25Z</time>
      </trkpt>
      <trkpt lat="41.5738460" lon="-0.9015750">
        <ele>403.2</ele>
        <time>2020-12-31T13:58:26Z</time>
      </trkpt>
      <trkpt lat="41.5738380" lon="-0.9016270">
        <ele>403.4</ele>
        <time>2020-12-31T13:58:27Z</time>
      </trkpt>
      <trkpt lat="41.5738320" lon="-0.9016860">
        <ele>403.6</ele>
        <time>2020-12-31T13:58:29Z</time>
      </trkpt>
      <trkpt lat="41.5738340" lon="-0.9017240">
        <ele>403.7</ele>
        <time>2020-12-31T13:58:30Z</time>
      </trkpt>
      <trkpt lat="41.5738360" lon="-0.9017880">
        <ele>403.9</ele>
        <time>2020-12-31T13:58:31Z</time>
      </trkpt>
      <trkpt lat="41.5738350" lon="-0.9018440">
        <ele>404.0</ele>
        <time>2020-12-31T13:58:33Z</time>
      </trkpt>
      <trkpt lat="41.5738320" lon="-0.9019080">
        <ele>404.2</ele>
        <time>2020-12-31T13:58:35Z</time>
      </trkpt>
      <trkpt lat="41.5738360" lon="-0.9019500">
        <ele>404.3</ele>
        <time>2020-12-31T13:58:36Z</time>
      </trkpt>
      <trkpt lat="41.5738400" lon="-0.9020000">
        <ele>404.4</ele>
        <time>2020-12-31T13:58:37Z</time>
      </trkpt>
      <trkpt lat="41.5738440" lon="-0.9020620">
        <ele>404.5</ele>
        <time>2020-12-31T13:58:39Z</time>
      </trkpt>
      <trkpt lat="41.5738450" lon="-0.9021340">
        <ele>404.6</ele>
        <time>2020-12-31T13:58:41Z</time>
      </trkpt>
      <trkpt lat="41.5738460" lon="-0.9021920">
        <ele>404.7</ele>
        <time>2020-12-31T13:58:42Z</time>
      </trkpt>
      <trkpt lat="41.5738480" lon="-0.9022590">
        <ele>404.8</ele>
        <time>2020-12-31T13:58:44Z</time>
      </trkpt>
      <trkpt lat="41.5738490" lon="-0.9023090">
        <ele>404.8</ele>
        <time>2020-12-31T13:58:45Z</time>
      </trkpt>
      <trkpt lat="41.5738440" lon="-0.9023600">
        <ele>405.0</ele>
        <time>2020-12-31T13:58:46Z</time>
      </trkpt>
      <trkpt lat="41.5738420" lon="-0.9024110">
        <ele>405.1</ele>
        <time>2020-12-31T13:58:47Z</time>
      </trkpt>
      <trkpt lat="41.5738360" lon="-0.9024690">
        <ele>405.3</ele>
        <time>2020-12-31T13:58:49Z</time>
      </trkpt>
      <trkpt lat="41.5738320" lon="-0.9025350">
        <ele>405.5</ele>
        <time>2020-12-31T13:58:50Z</time>
      </trkpt>
      <trkpt lat="41.5738260" lon="-0.9026010">
        <ele>405.7</ele>
        <time>2020-12-31T13:58:52Z</time>
      </trkpt>
      <trkpt lat="41.5738280" lon="-0.9026540">
        <ele>405.9</ele>
        <time>2020-12-31T13:58:53Z</time>
      </trkpt>
      <trkpt lat="41.5738400" lon="-0.9026940">
        <ele>406.0</ele>
        <time>2020-12-31T13:58:54Z</time>
      </trkpt>
      <trkpt lat="41.5738560" lon="-0.9027420">
        <ele>406.1</ele>
        <time>2020-12-31T13:58:55Z</time>
      </trkpt>
      <trkpt lat="41.5738680" lon="-0.9027960">
        <ele>406.3</ele>
        <time>2020-12-31T13:58:56Z</time>
      </trkpt>
      <trkpt lat="41.5738770" lon="-0.9028420">
        <ele>406.4</ele>
        <time>2020-12-31T13:58:58Z</time>
      </trkpt>
      <trkpt lat="41.5738870" lon="-0.9028880">
        <ele>406.4</ele>
        <time>2020-12-31T13:58:59Z</time>
      </trkpt>
      <trkpt lat="41.5739020" lon="-0.9029420">
        <ele>406.5</ele>
        <time>2020-12-31T13:59:00Z</time>
      </trkpt>
      <trkpt lat="41.5739120" lon="-0.9029900">
        <ele>406.6</ele>
        <time>2020-12-31T13:59:01Z</time>
      </trkpt>
      <trkpt lat="41.5739250" lon="-0.9030350">
        <ele>406.7</ele>
        <time>2020-12-31T13:59:02Z</time>
      </trkpt>
      <trkpt lat="41.5739360" lon="-0.9030760">
        <ele>406.8</ele>
        <time>2020-12-31T13:59:03Z</time>
      </trkpt>
      <trkpt lat="41.5739470" lon="-0.9031380">
        <ele>406.9</ele>
        <time>2020-12-31T13:59:05Z</time>
      </trkpt>
      <trkpt lat="41.5739590" lon="-0.9031880">
        <ele>407.0</ele>
        <time>2020-12-31T13:59:06Z</time>
      </trkpt>
      <trkpt lat="41.5739650" lon="-0.9032450">
        <ele>407.1</ele>
        <time>2020-12-31T13:59:07Z</time>
      </trkpt>
      <trkpt lat="41.5739700" lon="-0.9033110">
        <ele>407.1</ele>
        <time>2020-12-31T13:59:09Z</time>
      </trkpt>
      <trkpt lat="41.5739620" lon="-0.9033560">
        <ele>407.1</ele>
        <time>2020-12-31T13:59:10Z</time>
      </trkpt>
      <trkpt lat="41.5739360" lon="-0.9034850">
        <ele>406.9</ele>
        <time>2020-12-31T13:59:12Z</time>
      </trkpt>
      <trkpt lat="41.5739150" lon="-0.9035580">
        <ele>406.8</ele>
        <time>2020-12-31T13:59:13Z</time>
      </trkpt>
      <trkpt lat="41.5738550" lon="-0.9036760">
        <ele>406.8</ele>
        <time>2020-12-31T13:59:15Z</time>
      </trkpt>
      <trkpt lat="41.5738270" lon="-0.9037170">
        <ele>406.9</ele>
        <time>2020-12-31T13:59:16Z</time>
      </trkpt>
      <trkpt lat="41.5737990" lon="-0.9037450">
        <ele>407.0</ele>
        <time>2020-12-31T13:59:17Z</time>
      </trkpt>
      <trkpt lat="41.5737620" lon="-0.9037570">
        <ele>407.2</ele>
        <time>2020-12-31T13:59:18Z</time>
      </trkpt>
      <trkpt lat="41.5737220" lon="-0.9037610">
        <ele>407.5</ele>
        <time>2020-12-31T13:59:20Z</time>
      </trkpt>
      <trkpt lat="41.5736610" lon="-0.9037300">
        <ele>407.8</ele>
        <time>2020-12-31T13:59:22Z</time>
      </trkpt>
      <trkpt lat="41.5736260" lon="-0.9036980">
        <ele>407.8</ele>
        <time>2020-12-31T13:59:23Z</time>
      </trkpt>
      <trkpt lat="41.5735930" lon="-0.9036520">
        <ele>407.9</ele>
        <time>2020-12-31T13:59:24Z</time>
      </trkpt>
      <trkpt lat="41.5735640" lon="-0.9036150">
        <ele>407.9</ele>
        <time>2020-12-31T13:59:25Z</time>
      </trkpt>
      <trkpt lat="41.5735330" lon="-0.9035630">
        <ele>408.0</ele>
        <time>2020-12-31T13:59:26Z</time>
      </trkpt>
      <trkpt lat="41.5735080" lon="-0.9035270">
        <ele>408.0</ele>
        <time>2020-12-31T13:59:27Z</time>
      </trkpt>
      <trkpt lat="41.5734740" lon="-0.9034890">
        <ele>407.9</ele>
        <time>2020-12-31T13:59:29Z</time>
      </trkpt>
      <trkpt lat="41.5734350" lon="-0.9034550">
        <ele>407.8</ele>
        <time>2020-12-31T13:59:30Z</time>
      </trkpt>
      <trkpt lat="41.5733730" lon="-0.9033940">
        <ele>407.6</ele>
        <time>2020-12-31T13:59:31Z</time>
      </trkpt>
      <trkpt lat="41.5732820" lon="-0.9032950">
        <ele>407.2</ele>
        <time>2020-12-31T13:59:33Z</time>
      </trkpt>
      <trkpt lat="41.5732350" lon="-0.9032370">
        <ele>407.0</ele>
        <time>2020-12-31T13:59:34Z</time>
      </trkpt>
      <trkpt lat="41.5731410" lon="-0.9031020">
        <ele>406.9</ele>
        <time>2020-12-31T13:59:36Z</time>
      </trkpt>
      <trkpt lat="41.5730970" lon="-0.9030360">
        <ele>406.9</ele>
        <time>2020-12-31T13:59:37Z</time>
      </trkpt>
      <trkpt lat="41.5730130" lon="-0.9029410">
        <ele>407.0</ele>
        <time>2020-12-31T13:59:39Z</time>
      </trkpt>
      <trkpt lat="41.5729330" lon="-0.9028720">
        <ele>407.1</ele>
        <time>2020-12-31T13:59:41Z</time>
      </trkpt>
      <trkpt lat="41.5728580" lon="-0.9028260">
        <ele>407.2</ele>
        <time>2020-12-31T13:59:43Z</time>
      </trkpt>
      <trkpt lat="41.5728030" lon="-0.9028100">
        <ele>407.2</ele>
        <time>2020-12-31T13:59:44Z</time>
      </trkpt>
      <trkpt lat="41.5726870" lon="-0.9028300">
        <ele>407.4</ele>
        <time>2020-12-31T13:59:46Z</time>
      </trkpt>
      <trkpt lat="41.5726390" lon="-0.9028620">
        <ele>407.5</ele>
        <time>2020-12-31T13:59:47Z</time>
      </trkpt>
      <trkpt lat="41.5725680" lon="-0.9029120">
        <ele>407.5</ele>
        <time>2020-12-31T13:59:49Z</time>
      </trkpt>
      <trkpt lat="41.5725040" lon="-0.9029300">
        <ele>406.7</ele>
        <time>2020-12-31T13:59:51Z</time>
      </trkpt>
      <trkpt lat="41.5724560" lon="-0.9029440">
        <ele>406.1</ele>
        <time>2020-12-31T13:59:52Z</time>
      </trkpt>
      <trkpt lat="41.5724110" lon="-0.9029560">
        <ele>405.6</ele>
        <time>2020-12-31T13:59:53Z</time>
      </trkpt>
      <trkpt lat="41.5723760" lon="-0.9029600">
        <ele>405.3</ele>
        <time>2020-12-31T13:59:55Z</time>
      </trkpt>
      <trkpt lat="41.5723450" lon="-0.9029670">
        <ele>404.9</ele>
        <time>2020-12-31T13:59:56Z</time>
      </trkpt>
      <trkpt lat="41.5723160" lon="-0.9029710">
        <ele>404.6</ele>
        <time>2020-12-31T13:59:57Z</time>
      </trkpt>
      <trkpt lat="41.5722810" lon="-0.9029790">
        <ele>404.3</ele>
        <time>2020-12-31T13:59:58Z</time>
      </trkpt>
      <trkpt lat="41.5722520" lon="-0.9029900">
        <ele>404.0</ele>
        <time>2020-12-31T13:59:59Z</time>
      </trkpt>
      <trkpt lat="41.5721960" lon="-0.9030050">
        <ele>403.4</ele>
        <time>2020-12-31T14:00:01Z</time>
      </trkpt>
      <trkpt lat="41.5721550" lon="-0.9030120">
        <ele>403.0</ele>
        <time>2020-12-31T14:00:02Z</time>
      </trkpt>
      <trkpt lat="41.5721220" lon="-0.9030270">
        <ele>403.3</ele>
        <time>2020-12-31T14:00:04Z</time>
      </trkpt>
      <trkpt lat="41.5720930" lon="-0.9030320">
        <ele>403.6</ele>
        <time>2020-12-31T14:00:05Z</time>
      </trkpt>
      <trkpt lat="41.5720450" lon="-0.9030310">
        <ele>404.1</ele>
        <time>2020-12-31T14:00:07Z</time>
      </trkpt>
      <trkpt lat="41.5720170" lon="-0.9030270">
        <ele>404.5</ele>
        <time>2020-12-31T14:00:08Z</time>
      </trkpt>
      <trkpt lat="41.5720070" lon="-0.9030260">
        <ele>404.7</ele>
        <time>2020-12-31T14:00:09Z</time>
      </trkpt>
      <trkpt lat="41.5719740" lon="-0.9030330">
        <ele>405.1</ele>
        <time>2020-12-31T14:00:10Z</time>
      </trkpt>
      <trkpt lat="41.5719470" lon="-0.9030510">
        <ele>405.4</ele>
        <time>2020-12-31T14:00:12Z</time>
      </trkpt>
      <trkpt lat="41.5719030" lon="-0.9030720">
        <ele>405.6</ele>
        <time>2020-12-31T14:00:13Z</time>
      </trkpt>
      <trkpt lat="41.5718560" lon="-0.9030930">
        <ele>405.9</ele>
        <time>2020-12-31T14:00:15Z</time>
      </trkpt>
      <trkpt lat="41.5718190" lon="-0.9031060">
        <ele>406.2</ele>
        <time>2020-12-31T14:00:16Z</time>
      </trkpt>
      <trkpt lat="41.5717690" lon="-0.9030920">
        <ele>406.5</ele>
        <time>2020-12-31T14:00:17Z</time>
      </trkpt>
      <trkpt lat="41.5716460" lon="-0.9030640">
        <ele>406.7</ele>
        <time>2020-12-31T14:00:19Z</time>
      </trkpt>
      <trkpt lat="41.5715160" lon="-0.9031440">
        <ele>405.2</ele>
        <time>2020-12-31T14:00:21Z</time>
      </trkpt>
      <trkpt lat="41.5714640" lon="-0.9032160">
        <ele>404.5</ele>
        <time>2020-12-31T14:00:22Z</time>
      </trkpt>
      <trkpt lat="41.5714290" lon="-0.9032970">
        <ele>404.0</ele>
        <time>2020-12-31T14:00:23Z</time>
      </trkpt>
      <trkpt lat="41.5713820" lon="-0.9034550">
        <ele>403.3</ele>
        <time>2020-12-31T14:00:25Z</time>
      </trkpt>
      <trkpt lat="41.5713250" lon="-0.9035570">
        <ele>402.9</ele>
        <time>2020-12-31T14:00:27Z</time>
      </trkpt>
      <trkpt lat="41.5713030" lon="-0.9035990">
        <ele>402.7</ele>
        <time>2020-12-31T14:00:28Z</time>
      </trkpt>
      <trkpt lat="41.5712560" lon="-0.9036060">
        <ele>402.4</ele>
        <time>2020-12-31T14:00:30Z</time>
      </trkpt>
      <trkpt lat="41.5712320" lon="-0.9035850">
        <ele>402.2</ele>
        <time>2020-12-31T14:00:31Z</time>
      </trkpt>
      <trkpt lat="41.5712010" lon="-0.9035560">
        <ele>401.9</ele>
        <time>2020-12-31T14:00:32Z</time>
      </trkpt>
      <trkpt lat="41.5711580" lon="-0.9035270">
        <ele>401.5</ele>
        <time>2020-12-31T14:00:33Z</time>
      </trkpt>
      <trkpt lat="41.5710650" lon="-0.9034440">
        <ele>400.2</ele>
        <time>2020-12-31T14:00:35Z</time>
      </trkpt>
      <trkpt lat="41.5710220" lon="-0.9034020">
        <ele>399.4</ele>
        <time>2020-12-31T14:00:36Z</time>
      </trkpt>
      <trkpt lat="41.5709720" lon="-0.9033830">
        <ele>398.6</ele>
        <time>2020-12-31T14:00:37Z</time>
      </trkpt>
      <trkpt lat="41.5708740" lon="-0.9034300">
        <ele>397.0</ele>
        <time>2020-12-31T14:00:39Z</time>
      </trkpt>
      <trkpt lat="41.5708230" lon="-0.9034590">
        <ele>396.3</ele>
        <time>2020-12-31T14:00:40Z</time>
      </trkpt>
      <trkpt lat="41.5707570" lon="-0.9034840">
        <ele>395.6</ele>
        <time>2020-12-31T14:00:41Z</time>
      </trkpt>
      <trkpt lat="41.5706700" lon="-0.9035120">
        <ele>395.1</ele>
        <time>2020-12-31T14:00:43Z</time>
      </trkpt>
      <trkpt lat="41.5706590" lon="-0.9035250">
        <ele>395.0</ele>
        <time>2020-12-31T14:00:44Z</time>
      </trkpt>
      <trkpt lat="41.5705950" lon="-0.9035340">
        <ele>394.8</ele>
        <time>2020-12-31T14:00:46Z</time>
      </trkpt>
      <trkpt lat="41.5705460" lon="-0.9035580">
        <ele>394.8</ele>
        <time>2020-12-31T14:00:47Z</time>
      </trkpt>
      <trkpt lat="41.5705070" lon="-0.9035800">
        <ele>394.9</ele>
        <time>2020-12-31T14:00:48Z</time>
      </trkpt>
      <trkpt lat="41.5704510" lon="-0.9036210">
        <ele>395.0</ele>
        <time>2020-12-31T14:00:50Z</time>
      </trkpt>
      <trkpt lat="41.5704280" lon="-0.9036600">
        <ele>395.1</ele>
        <time>2020-12-31T14:00:51Z</time>
      </trkpt>
      <trkpt lat="41.5703800" lon="-0.9037100">
        <ele>395.3</ele>
        <time>2020-12-31T14:00:53Z</time>
      </trkpt>
      <trkpt lat="41.5703420" lon="-0.9037370">
        <ele>395.5</ele>
        <time>2020-12-31T14:00:54Z</time>
      </trkpt>
      <trkpt lat="41.5703030" lon="-0.9037700">
        <ele>395.7</ele>
        <time>2020-12-31T14:00:56Z</time>
      </trkpt>
      <trkpt lat="41.5702780" lon="-0.9038030">
        <ele>395.9</ele>
        <time>2020-12-31T14:00:57Z</time>
      </trkpt>
      <trkpt lat="41.5702520" lon="-0.9038670">
        <ele>396.2</ele>
        <time>2020-12-31T14:00:59Z</time>
      </trkpt>
      <trkpt lat="41.5702310" lon="-0.9039120">
        <ele>396.4</ele>
        <time>2020-12-31T14:01:00Z</time>
      </trkpt>
      <trkpt lat="41.5702200" lon="-0.9039390">
        <ele>396.6</ele>
        <time>2020-12-31T14:01:01Z</time>
      </trkpt>
      <trkpt lat="41.5702000" lon="-0.9039730">
        <ele>396.8</ele>
        <time>2020-12-31T14:01:03Z</time>
      </trkpt>
      <trkpt lat="41.5701800" lon="-0.9040160">
        <ele>397.0</ele>
        <time>2020-12-31T14:01:05Z</time>
      </trkpt>
      <trkpt lat="41.5701680" lon="-0.9040450">
        <ele>397.2</ele>
        <time>2020-12-31T14:01:06Z</time>
      </trkpt>
      <trkpt lat="41.5701500" lon="-0.9040860">
        <ele>397.4</ele>
        <time>2020-12-31T14:01:08Z</time>
      </trkpt>
      <trkpt lat="41.5701310" lon="-0.9041130">
        <ele>397.5</ele>
        <time>2020-12-31T14:01:09Z</time>
      </trkpt>
      <trkpt lat="41.5700950" lon="-0.9041610">
        <ele>397.7</ele>
        <time>2020-12-31T14:01:11Z</time>
      </trkpt>
      <trkpt lat="41.5700720" lon="-0.9041970">
        <ele>397.7</ele>
        <time>2020-12-31T14:01:12Z</time>
      </trkpt>
      <trkpt lat="41.5700320" lon="-0.9042800">
        <ele>397.7</ele>
        <time>2020-12-31T14:01:14Z</time>
      </trkpt>
      <trkpt lat="41.5700080" lon="-0.9043290">
        <ele>397.6</ele>
        <time>2020-12-31T14:01:15Z</time>
      </trkpt>
      <trkpt lat="41.5699840" lon="-0.9043820">
        <ele>397.5</ele>
        <time>2020-12-31T14:01:16Z</time>
      </trkpt>
      <trkpt lat="41.5699460" lon="-0.9044550">
        <ele>397.3</ele>
        <time>2020-12-31T14:01:18Z</time>
      </trkpt>
      <trkpt lat="41.5699200" lon="-0.9045190">
        <ele>397.1</ele>
        <time>2020-12-31T14:01:19Z</time>
      </trkpt>
      <trkpt lat="41.5698900" lon="-0.9045980">
        <ele>396.8</ele>
        <time>2020-12-31T14:01:20Z</time>
      </trkpt>
      <trkpt lat="41.5698130" lon="-0.9047400">
        <ele>396.2</ele>
        <time>2020-12-31T14:01:22Z</time>
      </trkpt>
      <trkpt lat="41.5697640" lon="-0.9047940">
        <ele>395.8</ele>
        <time>2020-12-31T14:01:23Z</time>
      </trkpt>
      <trkpt lat="41.5697160" lon="-0.9048370">
        <ele>395.6</ele>
        <time>2020-12-31T14:01:24Z</time>
      </trkpt>
      <trkpt lat="41.5696670" lon="-0.9048830">
        <ele>395.3</ele>
        <time>2020-12-31T14:01:25Z</time>
      </trkpt>
      <trkpt lat="41.5696060" lon="-0.9049220">
        <ele>395.2</ele>
        <time>2020-12-31T14:01:26Z</time>
      </trkpt>
      <trkpt lat="41.5694660" lon="-0.9049900">
        <ele>395.3</ele>
        <time>2020-12-31T14:01:28Z</time>
      </trkpt>
      <trkpt lat="41.5694200" lon="-0.9050260">
        <ele>395.5</ele>
        <time>2020-12-31T14:01:29Z</time>
      </trkpt>
      <trkpt lat="41.5693600" lon="-0.9050570">
        <ele>395.9</ele>
        <time>2020-12-31T14:01:31Z</time>
      </trkpt>
      <trkpt lat="41.5693330" lon="-0.9050870">
        <ele>396.2</ele>
        <time>2020-12-31T14:01:32Z</time>
      </trkpt>
      <trkpt lat="41.5693030" lon="-0.9051110">
        <ele>396.5</ele>
        <time>2020-12-31T14:01:33Z</time>
      </trkpt>
      <trkpt lat="41.5692690" lon="-0.9051230">
        <ele>396.7</ele>
        <time>2020-12-31T14:01:34Z</time>
      </trkpt>
      <trkpt lat="41.5692230" lon="-0.9051530">
        <ele>397.2</ele>
        <time>2020-12-31T14:01:36Z</time>
      </trkpt>
      <trkpt lat="41.5691900" lon="-0.9051880">
        <ele>397.6</ele>
        <time>2020-12-31T14:01:37Z</time>
      </trkpt>
      <trkpt lat="41.5691630" lon="-0.9052040">
        <ele>397.9</ele>
        <time>2020-12-31T14:01:38Z</time>
      </trkpt>
      <trkpt lat="41.5691220" lon="-0.9052190">
        <ele>398.3</ele>
        <time>2020-12-31T14:01:40Z</time>
      </trkpt>
      <trkpt lat="41.5690970" lon="-0.9052420">
        <ele>398.7</ele>
        <time>2020-12-31T14:01:41Z</time>
      </trkpt>
      <trkpt lat="41.5690730" lon="-0.9052660">
        <ele>399.0</ele>
        <time>2020-12-31T14:01:43Z</time>
      </trkpt>
      <trkpt lat="41.5690470" lon="-0.9052980">
        <ele>399.4</ele>
        <time>2020-12-31T14:01:44Z</time>
      </trkpt>
      <trkpt lat="41.5690260" lon="-0.9053290">
        <ele>399.7</ele>
        <time>2020-12-31T14:01:46Z</time>
      </trkpt>
      <trkpt lat="41.5690140" lon="-0.9053600">
        <ele>400.0</ele>
        <time>2020-12-31T14:01:47Z</time>
      </trkpt>
      <trkpt lat="41.5689980" lon="-0.9054080">
        <ele>400.4</ele>
        <time>2020-12-31T14:01:49Z</time>
      </trkpt>
      <trkpt lat="41.5689780" lon="-0.9054630">
        <ele>400.8</ele>
        <time>2020-12-31T14:01:50Z</time>
      </trkpt>
      <trkpt lat="41.5689490" lon="-0.9055200">
        <ele>401.1</ele>
        <time>2020-12-31T14:01:52Z</time>
      </trkpt>
      <trkpt lat="41.5689300" lon="-0.9055660">
        <ele>401.3</ele>
        <time>2020-12-31T14:01:53Z</time>
      </trkpt>
      <trkpt lat="41.5689130" lon="-0.9056160">
        <ele>401.5</ele>
        <time>2020-12-31T14:01:54Z</time>
      </trkpt>
      <trkpt lat="41.5688820" lon="-0.9056650">
        <ele>401.7</ele>
        <time>2020-12-31T14:01:56Z</time>
      </trkpt>
      <trkpt lat="41.5688580" lon="-0.9056770">
        <ele>401.9</ele>
        <time>2020-12-31T14:01:57Z</time>
      </trkpt>
      <trkpt lat="41.5688210" lon="-0.9056830">
        <ele>402.1</ele>
        <time>2020-12-31T14:01:59Z</time>
      </trkpt>
      <trkpt lat="41.5687880" lon="-0.9056930">
        <ele>402.3</ele>
        <time>2020-12-31T14:02:00Z</time>
      </trkpt>
      <trkpt lat="41.5687790" lon="-0.9056960">
        <ele>402.3</ele>
        <time>2020-12-31T14:02:01Z</time>
      </trkpt>
      <trkpt lat="41.5687550" lon="-0.9057120">
        <ele>402.5</ele>
        <time>2020-12-31T14:02:02Z</time>
      </trkpt>
      <trkpt lat="41.5687200" lon="-0.9057380">
        <ele>402.8</ele>
        <time>2020-12-31T14:02:04Z</time>
      </trkpt>
      <trkpt lat="41.5686910" lon="-0.9057660">
        <ele>403.0</ele>
        <time>2020-12-31T14:02:06Z</time>
      </trkpt>
      <trkpt lat="41.5686640" lon="-0.9058050">
        <ele>403.3</ele>
        <time>2020-12-31T14:02:07Z</time>
      </trkpt>
      <trkpt lat="41.5686410" lon="-0.9058250">
        <ele>403.5</ele>
        <time>2020-12-31T14:02:09Z</time>
      </trkpt>
      <trkpt lat="41.5686170" lon="-0.9058450">
        <ele>403.7</ele>
        <time>2020-12-31T14:02:10Z</time>
      </trkpt>
      <trkpt lat="41.5685910" lon="-0.9058790">
        <ele>403.9</ele>
        <time>2020-12-31T14:02:11Z</time>
      </trkpt>
      <trkpt lat="41.5685840" lon="-0.9058910">
        <ele>404.0</ele>
        <time>2020-12-31T14:02:12Z</time>
      </trkpt>
      <trkpt lat="41.5685710" lon="-0.9059200">
        <ele>404.2</ele>
        <time>2020-12-31T14:02:13Z</time>
      </trkpt>
      <trkpt lat="41.5685570" lon="-0.9059570">
        <ele>404.4</ele>
        <time>2020-12-31T14:02:15Z</time>
      </trkpt>
      <trkpt lat="41.5685430" lon="-0.9059980">
        <ele>404.7</ele>
        <time>2020-12-31T14:02:16Z</time>
      </trkpt>
      <trkpt lat="41.5685390" lon="-0.9060080">
        <ele>404.8</ele>
        <time>2020-12-31T14:02:17Z</time>
      </trkpt>
      <trkpt lat="41.5685270" lon="-0.9060320">
        <ele>404.9</ele>
        <time>2020-12-31T14:02:18Z</time>
      </trkpt>
      <trkpt lat="41.5685090" lon="-0.9060510">
        <ele>405.1</ele>
        <time>2020-12-31T14:02:20Z</time>
      </trkpt>
      <trkpt lat="41.5684800" lon="-0.9060790">
        <ele>405.4</ele>
        <time>2020-12-31T14:02:21Z</time>
      </trkpt>
      <trkpt lat="41.5684520" lon="-0.9061100">
        <ele>405.6</ele>
        <time>2020-12-31T14:02:23Z</time>
      </trkpt>
      <trkpt lat="41.5684250" lon="-0.9061600">
        <ele>405.9</ele>
        <time>2020-12-31T14:02:25Z</time>
      </trkpt>
      <trkpt lat="41.5684040" lon="-0.9061960">
        <ele>406.0</ele>
        <time>2020-12-31T14:02:27Z</time>
      </trkpt>
      <trkpt lat="41.5683860" lon="-0.9062260">
        <ele>406.1</ele>
        <time>2020-12-31T14:02:28Z</time>
      </trkpt>
      <trkpt lat="41.5683670" lon="-0.9062440">
        <ele>406.2</ele>
        <time>2020-12-31T14:02:29Z</time>
      </trkpt>
      <trkpt lat="41.5683450" lon="-0.9062520">
        <ele>406.3</ele>
        <time>2020-12-31T14:02:31Z</time>
      </trkpt>
      <trkpt lat="41.5683150" lon="-0.9062370">
        <ele>406.4</ele>
        <time>2020-12-31T14:02:32Z</time>
      </trkpt>
      <trkpt lat="41.5683050" lon="-0.9062270">
        <ele>406.4</ele>
        <time>2020-12-31T14:02:33Z</time>
      </trkpt>
      <trkpt lat="41.5682750" lon="-0.9061970">
        <ele>406.4</ele>
        <time>2020-12-31T14:02:35Z</time>
      </trkpt>
      <trkpt lat="41.5682640" lon="-0.9061890">
        <ele>406.4</ele>
        <time>2020-12-31T14:02:36Z</time>
      </trkpt>
      <trkpt lat="41.5682490" lon="-0.9061790">
        <ele>406.4</ele>
        <time>2020-12-31T14:02:37Z</time>
      </trkpt>
      <trkpt lat="41.5682260" lon="-0.9061450">
        <ele>406.4</ele>
        <time>2020-12-31T14:02:39Z</time>
      </trkpt>
      <trkpt lat="41.5681950" lon="-0.9061090">
        <ele>406.3</ele>
        <time>2020-12-31T14:02:41Z</time>
      </trkpt>
      <trkpt lat="41.5681850" lon="-0.9060990">
        <ele>406.3</ele>
        <time>2020-12-31T14:02:42Z</time>
      </trkpt>
      <trkpt lat="41.5681750" lon="-0.9060890">
        <ele>406.2</ele>
        <time>2020-12-31T14:02:43Z</time>
      </trkpt>
      <trkpt lat="41.5681650" lon="-0.9060790">
        <ele>406.1</ele>
        <time>2020-12-31T14:02:44Z</time>
      </trkpt>
      <trkpt lat="41.5681540" lon="-0.9060690">
        <ele>406.1</ele>
        <time>2020-12-31T14:02:46Z</time>
      </trkpt>
      <trkpt lat="41.5681440" lon="-0.9060590">
        <ele>406.0</ele>
        <time>2020-12-31T14:02:48Z</time>
      </trkpt>
      <trkpt lat="41.5681340" lon="-0.9060490">
        <ele>405.9</ele>
        <time>2020-12-31T14:02:59Z</time>
      </trkpt>
      <trkpt lat="41.5681240" lon="-0.9060390">
        <ele>405.8</ele>
        <time>2020-12-31T14:03:00Z</time>
      </trkpt>
      <trkpt lat="41.5680250" lon="-0.9059490">
        <ele>405.0</ele>
        <time>2020-12-31T14:03:02Z</time>
      </trkpt>
      <trkpt lat="41.5678900" lon="-0.9058660">
        <ele>404.1</ele>
        <time>2020-12-31T14:03:04Z</time>
      </trkpt>
      <trkpt lat="41.5678260" lon="-0.9058610">
        <ele>403.9</ele>
        <time>2020-12-31T14:03:05Z</time>
      </trkpt>
      <trkpt lat="41.5677320" lon="-0.9059270">
        <ele>403.6</ele>
        <time>2020-12-31T14:03:07Z</time>
      </trkpt>
      <trkpt lat="41.5677310" lon="-0.9059390">
        <ele>403.6</ele>
        <time>2020-12-31T14:03:08Z</time>
      </trkpt>
      <trkpt lat="41.5676770" lon="-0.9059510">
        <ele>403.6</ele>
        <time>2020-12-31T14:03:10Z</time>
      </trkpt>
      <trkpt lat="41.5676420" lon="-0.9059830">
        <ele>403.6</ele>
        <time>2020-12-31T14:03:11Z</time>
      </trkpt>
      <trkpt lat="41.5676270" lon="-0.9060300">
        <ele>403.5</ele>
        <time>2020-12-31T14:03:12Z</time>
      </trkpt>
      <trkpt lat="41.5676150" lon="-0.9060920">
        <ele>403.5</ele>
        <time>2020-12-31T14:03:14Z</time>
      </trkpt>
      <trkpt lat="41.5676140" lon="-0.9061450">
        <ele>403.4</ele>
        <time>2020-12-31T14:03:15Z</time>
      </trkpt>
      <trkpt lat="41.5676310" lon="-0.9062110">
        <ele>403.2</ele>
        <time>2020-12-31T14:03:17Z</time>
      </trkpt>
      <trkpt lat="41.5676540" lon="-0.9062510">
        <ele>403.1</ele>
        <time>2020-12-31T14:03:18Z</time>
      </trkpt>
      <trkpt lat="41.5676770" lon="-0.9062940">
        <ele>402.9</ele>
        <time>2020-12-31T14:03:19Z</time>
      </trkpt>
      <trkpt lat="41.5676930" lon="-0.9063570">
        <ele>402.6</ele>
        <time>2020-12-31T14:03:20Z</time>
      </trkpt>
      <trkpt lat="41.5677030" lon="-0.9064230">
        <ele>402.3</ele>
        <time>2020-12-31T14:03:21Z</time>
      </trkpt>
      <trkpt lat="41.5676910" lon="-0.9065810">
        <ele>401.6</ele>
        <time>2020-12-31T14:03:23Z</time>
      </trkpt>
      <trkpt lat="41.5676730" lon="-0.9066940">
        <ele>400.7</ele>
        <time>2020-12-31T14:03:25Z</time>
      </trkpt>
      <trkpt lat="41.5676450" lon="-0.9067050">
        <ele>400.4</ele>
        <time>2020-12-31T14:03:26Z</time>
      </trkpt>
      <trkpt lat="41.5675770" lon="-0.9066920">
        <ele>399.5</ele>
        <time>2020-12-31T14:03:27Z</time>
      </trkpt>
      <trkpt lat="41.5674450" lon="-0.9066790">
        <ele>397.9</ele>
        <time>2020-12-31T14:03:29Z</time>
      </trkpt>
      <trkpt lat="41.5673790" lon="-0.9066890">
        <ele>397.1</ele>
        <time>2020-12-31T14:03:30Z</time>
      </trkpt>
      <trkpt lat="41.5672320" lon="-0.9066750">
        <ele>395.7</ele>
        <time>2020-12-31T14:03:32Z</time>
      </trkpt>
      <trkpt lat="41.5671460" lon="-0.9066990">
        <ele>395.1</ele>
        <time>2020-12-31T14:03:33Z</time>
      </trkpt>
      <trkpt lat="41.5669950" lon="-0.9067100">
        <ele>394.2</ele>
        <time>2020-12-31T14:03:35Z</time>
      </trkpt>
      <trkpt lat="41.5669270" lon="-0.9067050">
        <ele>393.8</ele>
        <time>2020-12-31T14:03:36Z</time>
      </trkpt>
      <trkpt lat="41.5667920" lon="-0.9067490">
        <ele>393.5</ele>
        <time>2020-12-31T14:03:38Z</time>
      </trkpt>
      <trkpt lat="41.5667370" lon="-0.9067590">
        <ele>393.6</ele>
        <time>2020-12-31T14:03:39Z</time>
      </trkpt>
      <trkpt lat="41.5666490" lon="-0.9067910">
        <ele>393.9</ele>
        <time>2020-12-31T14:03:41Z</time>
      </trkpt>
      <trkpt lat="41.5666040" lon="-0.9068240">
        <ele>394.3</ele>
        <time>2020-12-31T14:03:43Z</time>
      </trkpt>
      <trkpt lat="41.5665490" lon="-0.9068360">
        <ele>394.7</ele>
        <time>2020-12-31T14:03:45Z</time>
      </trkpt>
      <trkpt lat="41.5665150" lon="-0.9068220">
        <ele>395.0</ele>
        <time>2020-12-31T14:03:46Z</time>
      </trkpt>
      <trkpt lat="41.5664510" lon="-0.9068230">
        <ele>395.4</ele>
        <time>2020-12-31T14:03:47Z</time>
      </trkpt>
      <trkpt lat="41.5664100" lon="-0.9068320">
        <ele>395.6</ele>
        <time>2020-12-31T14:03:49Z</time>
      </trkpt>
      <trkpt lat="41.5663880" lon="-0.9068470">
        <ele>395.8</ele>
        <time>2020-12-31T14:03:50Z</time>
      </trkpt>
      <trkpt lat="41.5663510" lon="-0.9068830">
        <ele>396.0</ele>
        <time>2020-12-31T14:03:51Z</time>
      </trkpt>
      <trkpt lat="41.5663040" lon="-0.9069210">
        <ele>396.2</ele>
        <time>2020-12-31T14:03:53Z</time>
      </trkpt>
      <trkpt lat="41.5662650" lon="-0.9069150">
        <ele>396.3</ele>
        <time>2020-12-31T14:03:54Z</time>
      </trkpt>
      <trkpt lat="41.5662240" lon="-0.9068830">
        <ele>396.5</ele>
        <time>2020-12-31T14:03:55Z</time>
      </trkpt>
      <trkpt lat="41.5661800" lon="-0.9068760">
        <ele>396.7</ele>
        <time>2020-12-31T14:03:56Z</time>
      </trkpt>
      <trkpt lat="41.5661460" lon="-0.9068790">
        <ele>396.8</ele>
        <time>2020-12-31T14:03:57Z</time>
      </trkpt>
      <trkpt lat="41.5661100" lon="-0.9068790">
        <ele>396.9</ele>
        <time>2020-12-31T14:03:59Z</time>
      </trkpt>
      <trkpt lat="41.5660770" lon="-0.9068760">
        <ele>397.0</ele>
        <time>2020-12-31T14:04:00Z</time>
      </trkpt>
      <trkpt lat="41.5660400" lon="-0.9068580">
        <ele>397.1</ele>
        <time>2020-12-31T14:04:02Z</time>
      </trkpt>
      <trkpt lat="41.5660140" lon="-0.9068420">
        <ele>397.1</ele>
        <time>2020-12-31T14:04:03Z</time>
      </trkpt>
      <trkpt lat="41.5659810" lon="-0.9068250">
        <ele>397.1</ele>
        <time>2020-12-31T14:04:04Z</time>
      </trkpt>
      <trkpt lat="41.5659170" lon="-0.9068040">
        <ele>397.1</ele>
        <time>2020-12-31T14:04:06Z</time>
      </trkpt>
      <trkpt lat="41.5658550" lon="-0.9068150">
        <ele>397.0</ele>
        <time>2020-12-31T14:04:07Z</time>
      </trkpt>
      <trkpt lat="41.5658010" lon="-0.9068380">
        <ele>396.9</ele>
        <time>2020-12-31T14:04:08Z</time>
      </trkpt>
      <trkpt lat="41.5657210" lon="-0.9068780">
        <ele>396.8</ele>
        <time>2020-12-31T14:04:10Z</time>
      </trkpt>
      <trkpt lat="41.5656960" lon="-0.9068920">
        <ele>396.8</ele>
        <time>2020-12-31T14:04:11Z</time>
      </trkpt>
      <trkpt lat="41.5656590" lon="-0.9069440">
        <ele>396.8</ele>
        <time>2020-12-31T14:04:12Z</time>
      </trkpt>
      <trkpt lat="41.5656230" lon="-0.9069680">
        <ele>396.9</ele>
        <time>2020-12-31T14:04:14Z</time>
      </trkpt>
      <trkpt lat="41.5655800" lon="-0.9069870">
        <ele>396.9</ele>
        <time>2020-12-31T14:04:15Z</time>
      </trkpt>
      <trkpt lat="41.5655290" lon="-0.9069860">
        <ele>397.0</ele>
        <time>2020-12-31T14:04:17Z</time>
      </trkpt>
      <trkpt lat="41.5654870" lon="-0.9069800">
        <ele>396.9</ele>
        <time>2020-12-31T14:04:18Z</time>
      </trkpt>
      <trkpt lat="41.5654570" lon="-0.9069740">
        <ele>396.9</ele>
        <time>2020-12-31T14:04:19Z</time>
      </trkpt>
      <trkpt lat="41.5654230" lon="-0.9069620">
        <ele>396.8</ele>
        <time>2020-12-31T14:04:20Z</time>
      </trkpt>
      <trkpt lat="41.5653940" lon="-0.9069510">
        <ele>396.7</ele>
        <time>2020-12-31T14:04:21Z</time>
      </trkpt>
      <trkpt lat="41.5653480" lon="-0.9069350">
        <ele>396.3</ele>
        <time>2020-12-31T14:04:23Z</time>
      </trkpt>
      <trkpt lat="41.5653140" lon="-0.9069300">
        <ele>396.0</ele>
        <time>2020-12-31T14:04:24Z</time>
      </trkpt>
      <trkpt lat="41.5652590" lon="-0.9069660">
        <ele>395.3</ele>
        <time>2020-12-31T14:04:26Z</time>
      </trkpt>
      <trkpt lat="41.5652120" lon="-0.9070080">
        <ele>394.3</ele>
        <time>2020-12-31T14:04:28Z</time>
      </trkpt>
      <trkpt lat="41.5651810" lon="-0.9070290">
        <ele>393.8</ele>
        <time>2020-12-31T14:04:29Z</time>
      </trkpt>
      <trkpt lat="41.5651540" lon="-0.9070560">
        <ele>393.2</ele>
        <time>2020-12-31T14:04:30Z</time>
      </trkpt>
      <trkpt lat="41.5651040" lon="-0.9070860">
        <ele>392.3</ele>
        <time>2020-12-31T14:04:31Z</time>
      </trkpt>
      <trkpt lat="41.5650530" lon="-0.9071070">
        <ele>391.5</ele>
        <time>2020-12-31T14:04:32Z</time>
      </trkpt>
      <trkpt lat="41.5650280" lon="-0.9071130">
        <ele>391.2</ele>
        <time>2020-12-31T14:04:33Z</time>
      </trkpt>
      <trkpt lat="41.5649620" lon="-0.9071160">
        <ele>390.5</ele>
        <time>2020-12-31T14:04:35Z</time>
      </trkpt>
      <trkpt lat="41.5649000" lon="-0.9071260">
        <ele>389.9</ele>
        <time>2020-12-31T14:04:37Z</time>
      </trkpt>
      <trkpt lat="41.5646040" lon="-0.9072000">
        <ele>388.5</ele>
        <time>2020-12-31T14:04:38Z</time>
      </trkpt>
      <trkpt lat="41.5645640" lon="-0.9072260">
        <ele>388.4</ele>
        <time>2020-12-31T14:04:39Z</time>
      </trkpt>
      <trkpt lat="41.5644480" lon="-0.9073470">
        <ele>388.4</ele>
        <time>2020-12-31T14:04:41Z</time>
      </trkpt>
      <trkpt lat="41.5643580" lon="-0.9074400">
        <ele>388.7</ele>
        <time>2020-12-31T14:04:43Z</time>
      </trkpt>
      <trkpt lat="41.5642870" lon="-0.9074570">
        <ele>388.8</ele>
        <time>2020-12-31T14:04:45Z</time>
      </trkpt>
      <trkpt lat="41.5642430" lon="-0.9074540">
        <ele>388.6</ele>
        <time>2020-12-31T14:04:46Z</time>
      </trkpt>
      <trkpt lat="41.5642060" lon="-0.9074360">
        <ele>388.3</ele>
        <time>2020-12-31T14:04:48Z</time>
      </trkpt>
      <trkpt lat="41.5641670" lon="-0.9074120">
        <ele>388.3</ele>
        <time>2020-12-31T14:04:49Z</time>
      </trkpt>
      <trkpt lat="41.5640930" lon="-0.9074060">
        <ele>388.2</ele>
        <time>2020-12-31T14:04:51Z</time>
      </trkpt>
      <trkpt lat="41.5640470" lon="-0.9074270">
        <ele>388.3</ele>
        <time>2020-12-31T14:04:52Z</time>
      </trkpt>
      <trkpt lat="41.5640100" lon="-0.9074620">
        <ele>388.5</ele>
        <time>2020-12-31T14:04:53Z</time>
      </trkpt>
      <trkpt lat="41.5639700" lon="-0.9074960">
        <ele>388.8</ele>
        <time>2020-12-31T14:04:54Z</time>
      </trkpt>
      <trkpt lat="41.5639330" lon="-0.9075130">
        <ele>388.9</ele>
        <time>2020-12-31T14:04:55Z</time>
      </trkpt>
      <trkpt lat="41.5638940" lon="-0.9075290">
        <ele>389.1</ele>
        <time>2020-12-31T14:04:56Z</time>
      </trkpt>
      <trkpt lat="41.5638590" lon="-0.9075320">
        <ele>389.5</ele>
        <time>2020-12-31T14:04:57Z</time>
      </trkpt>
      <trkpt lat="41.5638210" lon="-0.9075230">
        <ele>389.4</ele>
        <time>2020-12-31T14:04:59Z</time>
      </trkpt>
      <trkpt lat="41.5637940" lon="-0.9075110">
        <ele>389.6</ele>
        <time>2020-12-31T14:05:00Z</time>
      </trkpt>
      <trkpt lat="41.5637860" lon="-0.9075080">
        <ele>389.7</ele>
        <time>2020-12-31T14:05:01Z</time>
      </trkpt>
      <trkpt lat="41.5637570" lon="-0.9075090">
        <ele>389.9</ele>
        <time>2020-12-31T14:05:02Z</time>
      </trkpt>
      <trkpt lat="41.5637470" lon="-0.9075090">
        <ele>389.9</ele>
        <time>2020-12-31T14:05:03Z</time>
      </trkpt>
      <trkpt lat="41.5637190" lon="-0.9075020">
        <ele>390.1</ele>
        <time>2020-12-31T14:05:04Z</time>
      </trkpt>
      <trkpt lat="41.5636770" lon="-0.9074950">
        <ele>390.3</ele>
        <time>2020-12-31T14:05:06Z</time>
      </trkpt>
      <trkpt lat="41.5636610" lon="-0.9074930">
        <ele>390.6</ele>
        <time>2020-12-31T14:05:07Z</time>
      </trkpt>
      <trkpt lat="41.5636340" lon="-0.9074860">
        <ele>390.7</ele>
        <time>2020-12-31T14:05:08Z</time>
      </trkpt>
      <trkpt lat="41.5635920" lon="-0.9074690">
        <ele>391.0</ele>
        <time>2020-12-31T14:05:10Z</time>
      </trkpt>
      <trkpt lat="41.5635600" lon="-0.9074340">
        <ele>391.1</ele>
        <time>2020-12-31T14:05:12Z</time>
      </trkpt>
      <trkpt lat="41.5635350" lon="-0.9074030">
        <ele>391.4</ele>
        <time>2020-12-31T14:05:13Z</time>
      </trkpt>
      <trkpt lat="41.5635270" lon="-0.9073940">
        <ele>391.3</ele>
        <time>2020-12-31T14:05:14Z</time>
      </trkpt>
      <trkpt lat="41.5635010" lon="-0.9073620">
        <ele>391.5</ele>
        <time>2020-12-31T14:05:15Z</time>
      </trkpt>
      <trkpt lat="41.5634920" lon="-0.9073530">
        <ele>391.3</ele>
        <time>2020-12-31T14:05:16Z</time>
      </trkpt>
      <trkpt lat="41.5634690" lon="-0.9073190">
        <ele>391.6</ele>
        <time>2020-12-31T14:05:17Z</time>
      </trkpt>
      <trkpt lat="41.5634590" lon="-0.9073090">
        <ele>391.4</ele>
        <time>2020-12-31T14:05:18Z</time>
      </trkpt>
      <trkpt lat="41.5634360" lon="-0.9072840">
        <ele>391.6</ele>
        <time>2020-12-31T14:05:20Z</time>
      </trkpt>
      <trkpt lat="41.5634100" lon="-0.9072690">
        <ele>391.6</ele>
        <time>2020-12-31T14:05:21Z</time>
      </trkpt>
      <trkpt lat="41.5633770" lon="-0.9072560">
        <ele>391.9</ele>
        <time>2020-12-31T14:05:22Z</time>
      </trkpt>
      <trkpt lat="41.5633650" lon="-0.9072510">
        <ele>391.9</ele>
        <time>2020-12-31T14:05:23Z</time>
      </trkpt>
      <trkpt lat="41.5633200" lon="-0.9072280">
        <ele>392.0</ele>
        <time>2020-12-31T14:05:25Z</time>
      </trkpt>
      <trkpt lat="41.5632840" lon="-0.9072090">
        <ele>392.5</ele>
        <time>2020-12-31T14:05:26Z</time>
      </trkpt>
      <trkpt lat="41.5632730" lon="-0.9072020">
        <ele>392.5</ele>
        <time>2020-12-31T14:05:27Z</time>
      </trkpt>
      <trkpt lat="41.5632400" lon="-0.9071760">
        <ele>392.6</ele>
        <time>2020-12-31T14:05:28Z</time>
      </trkpt>
      <trkpt lat="41.5632280" lon="-0.9071670">
        <ele>392.6</ele>
        <time>2020-12-31T14:05:29Z</time>
      </trkpt>
      <trkpt lat="41.5631830" lon="-0.9071460">
        <ele>393.1</ele>
        <time>2020-12-31T14:05:31Z</time>
      </trkpt>
      <trkpt lat="41.5631680" lon="-0.9071420">
        <ele>392.9</ele>
        <time>2020-12-31T14:05:32Z</time>
      </trkpt>
      <trkpt lat="41.5631530" lon="-0.9071370">
        <ele>393.2</ele>
        <time>2020-12-31T14:05:33Z</time>
      </trkpt>
      <trkpt lat="41.5631350" lon="-0.9071300">
        <ele>393.2</ele>
        <time>2020-12-31T14:05:34Z</time>
      </trkpt>
      <trkpt lat="41.5630980" lon="-0.9071100">
        <ele>393.5</ele>
        <time>2020-12-31T14:05:36Z</time>
      </trkpt>
      <trkpt lat="41.5630700" lon="-0.9070980">
        <ele>393.6</ele>
        <time>2020-12-31T14:05:37Z</time>
      </trkpt>
      <trkpt lat="41.5630220" lon="-0.9070740">
        <ele>394.3</ele>
        <time>2020-12-31T14:05:39Z</time>
      </trkpt>
      <trkpt lat="41.5629830" lon="-0.9070600">
        <ele>394.6</ele>
        <time>2020-12-31T14:05:40Z</time>
      </trkpt>
      <trkpt lat="41.5629400" lon="-0.9070230">
        <ele>394.7</ele>
        <time>2020-12-31T14:05:42Z</time>
      </trkpt>
      <trkpt lat="41.5629270" lon="-0.9070080">
        <ele>394.8</ele>
        <time>2020-12-31T14:05:43Z</time>
      </trkpt>
      <trkpt lat="41.5629130" lon="-0.9069930">
        <ele>394.8</ele>
        <time>2020-12-31T14:05:44Z</time>
      </trkpt>
      <trkpt lat="41.5628720" lon="-0.9069780">
        <ele>395.1</ele>
        <time>2020-12-31T14:05:46Z</time>
      </trkpt>
      <trkpt lat="41.5628500" lon="-0.9069850">
        <ele>395.4</ele>
        <time>2020-12-31T14:05:47Z</time>
      </trkpt>
      <trkpt lat="41.5628310" lon="-0.9069950">
        <ele>395.8</ele>
        <time>2020-12-31T14:05:49Z</time>
      </trkpt>
      <trkpt lat="41.5628150" lon="-0.9070090">
        <ele>395.8</ele>
        <time>2020-12-31T14:05:50Z</time>
      </trkpt>
      <trkpt lat="41.5628020" lon="-0.9070210">
        <ele>396.5</ele>
        <time>2020-12-31T14:05:51Z</time>
      </trkpt>
      <trkpt lat="41.5627910" lon="-0.9070340">
        <ele>396.5</ele>
        <time>2020-12-31T14:05:52Z</time>
      </trkpt>
      <trkpt lat="41.5627790" lon="-0.9070540">
        <ele>396.5</ele>
        <time>2020-12-31T14:05:53Z</time>
      </trkpt>
      <trkpt lat="41.5627690" lon="-0.9070890">
        <ele>397.1</ele>
        <time>2020-12-31T14:05:55Z</time>
      </trkpt>
      <trkpt lat="41.5627670" lon="-0.9071040">
        <ele>397.3</ele>
        <time>2020-12-31T14:05:56Z</time>
      </trkpt>
      <trkpt lat="41.5627680" lon="-0.9071430">
        <ele>397.4</ele>
        <time>2020-12-31T14:05:57Z</time>
      </trkpt>
      <trkpt lat="41.5627650" lon="-0.9071720">
        <ele>397.6</ele>
        <time>2020-12-31T14:05:58Z</time>
      </trkpt>
      <trkpt lat="41.5627460" lon="-0.9072110">
        <ele>397.8</ele>
        <time>2020-12-31T14:06:00Z</time>
      </trkpt>
      <trkpt lat="41.5627330" lon="-0.9072390">
        <ele>398.4</ele>
        <time>2020-12-31T14:06:01Z</time>
      </trkpt>
      <trkpt lat="41.5627170" lon="-0.9072810">
        <ele>398.7</ele>
        <time>2020-12-31T14:06:03Z</time>
      </trkpt>
      <trkpt lat="41.5627010" lon="-0.9073110">
        <ele>399.0</ele>
        <time>2020-12-31T14:06:04Z</time>
      </trkpt>
      <trkpt lat="41.5626910" lon="-0.9073290">
        <ele>399.2</ele>
        <time>2020-12-31T14:06:05Z</time>
      </trkpt>
      <trkpt lat="41.5626830" lon="-0.9073440">
        <ele>399.3</ele>
        <time>2020-12-31T14:06:06Z</time>
      </trkpt>
      <trkpt lat="41.5626660" lon="-0.9073720">
        <ele>399.8</ele>
        <time>2020-12-31T14:06:07Z</time>
      </trkpt>
      <trkpt lat="41.5626470" lon="-0.9074110">
        <ele>400.0</ele>
        <time>2020-12-31T14:06:09Z</time>
      </trkpt>
      <trkpt lat="41.5626410" lon="-0.9074240">
        <ele>400.3</ele>
        <time>2020-12-31T14:06:10Z</time>
      </trkpt>
      <trkpt lat="41.5626340" lon="-0.9074530">
        <ele>400.6</ele>
        <time>2020-12-31T14:06:11Z</time>
      </trkpt>
      <trkpt lat="41.5626290" lon="-0.9074700">
        <ele>400.6</ele>
        <time>2020-12-31T14:06:12Z</time>
      </trkpt>
      <trkpt lat="41.5626210" lon="-0.9075090">
        <ele>400.8</ele>
        <time>2020-12-31T14:06:14Z</time>
      </trkpt>
      <trkpt lat="41.5626170" lon="-0.9075210">
        <ele>400.8</ele>
        <time>2020-12-31T14:06:15Z</time>
      </trkpt>
      <trkpt lat="41.5626080" lon="-0.9075400">
        <ele>401.3</ele>
        <time>2020-12-31T14:06:16Z</time>
      </trkpt>
      <trkpt lat="41.5625930" lon="-0.9075640">
        <ele>401.3</ele>
        <time>2020-12-31T14:06:18Z</time>
      </trkpt>
      <trkpt lat="41.5625790" lon="-0.9075760">
        <ele>401.5</ele>
        <time>2020-12-31T14:06:19Z</time>
      </trkpt>
      <trkpt lat="41.5625690" lon="-0.9075880">
        <ele>401.8</ele>
        <time>2020-12-31T14:06:20Z</time>
      </trkpt>
      <trkpt lat="41.5625450" lon="-0.9076140">
        <ele>402.2</ele>
        <time>2020-12-31T14:06:21Z</time>
      </trkpt>
      <trkpt lat="41.5625360" lon="-0.9076230">
        <ele>402.3</ele>
        <time>2020-12-31T14:06:22Z</time>
      </trkpt>
      <trkpt lat="41.5625170" lon="-0.9076350">
        <ele>402.3</ele>
        <time>2020-12-31T14:06:24Z</time>
      </trkpt>
      <trkpt lat="41.5625070" lon="-0.9076460">
        <ele>402.7</ele>
        <time>2020-12-31T14:06:25Z</time>
      </trkpt>
      <trkpt lat="41.5624970" lon="-0.9076570">
        <ele>402.7</ele>
        <time>2020-12-31T14:06:26Z</time>
      </trkpt>
      <trkpt lat="41.5624850" lon="-0.9076810">
        <ele>402.8</ele>
        <time>2020-12-31T14:06:28Z</time>
      </trkpt>
      <trkpt lat="41.5624800" lon="-0.9077060">
        <ele>403.1</ele>
        <time>2020-12-31T14:06:29Z</time>
      </trkpt>
      <trkpt lat="41.5624780" lon="-0.9077280">
        <ele>403.1</ele>
        <time>2020-12-31T14:06:30Z</time>
      </trkpt>
      <trkpt lat="41.5624780" lon="-0.9077540">
        <ele>403.2</ele>
        <time>2020-12-31T14:06:31Z</time>
      </trkpt>
      <trkpt lat="41.5624850" lon="-0.9077800">
        <ele>403.0</ele>
        <time>2020-12-31T14:06:33Z</time>
      </trkpt>
      <trkpt lat="41.5624850" lon="-0.9078190">
        <ele>403.0</ele>
        <time>2020-12-31T14:06:35Z</time>
      </trkpt>
      <trkpt lat="41.5624840" lon="-0.9078300">
        <ele>403.0</ele>
        <time>2020-12-31T14:06:36Z</time>
      </trkpt>
      <trkpt lat="41.5624820" lon="-0.9078460">
        <ele>403.1</ele>
        <time>2020-12-31T14:06:37Z</time>
      </trkpt>
      <trkpt lat="41.5624760" lon="-0.9078680">
        <ele>403.4</ele>
        <time>2020-12-31T14:06:39Z</time>
      </trkpt>
      <trkpt lat="41.5624660" lon="-0.9078850">
        <ele>403.4</ele>
        <time>2020-12-31T14:06:40Z</time>
      </trkpt>
      <trkpt lat="41.5624520" lon="-0.9078960">
        <ele>403.4</ele>
        <time>2020-12-31T14:06:41Z</time>
      </trkpt>
      <trkpt lat="41.5624390" lon="-0.9078960">
        <ele>403.7</ele>
        <time>2020-12-31T14:06:42Z</time>
      </trkpt>
      <trkpt lat="41.5624120" lon="-0.9078900">
        <ele>403.9</ele>
        <time>2020-12-31T14:06:44Z</time>
      </trkpt>
      <trkpt lat="41.5623990" lon="-0.9078890">
        <ele>403.9</ele>
        <time>2020-12-31T14:06:45Z</time>
      </trkpt>
      <trkpt lat="41.5623630" lon="-0.9078900">
        <ele>404.1</ele>
        <time>2020-12-31T14:06:47Z</time>
      </trkpt>
      <trkpt lat="41.5623340" lon="-0.9078980">
        <ele>404.4</ele>
        <time>2020-12-31T14:06:48Z</time>
      </trkpt>
      <trkpt lat="41.5623250" lon="-0.9079020">
        <ele>404.4</ele>
        <time>2020-12-31T14:06:49Z</time>
      </trkpt>
      <trkpt lat="41.5622970" lon="-0.9079250">
        <ele>404.7</ele>
        <time>2020-12-31T14:06:51Z</time>
      </trkpt>
      <trkpt lat="41.5622900" lon="-0.9079300">
        <ele>404.7</ele>
        <time>2020-12-31T14:06:52Z</time>
      </trkpt>
      <trkpt lat="41.5622770" lon="-0.9079300">
        <ele>404.9</ele>
        <time>2020-12-31T14:06:53Z</time>
      </trkpt>
      <trkpt lat="41.5622620" lon="-0.9079300">
        <ele>404.9</ele>
        <time>2020-12-31T14:06:54Z</time>
      </trkpt>
      <trkpt lat="41.5622290" lon="-0.9079160">
        <ele>405.2</ele>
        <time>2020-12-31T14:06:56Z</time>
      </trkpt>
      <trkpt lat="41.5622180" lon="-0.9079130">
        <ele>405.5</ele>
        <time>2020-12-31T14:06:57Z</time>
      </trkpt>
      <trkpt lat="41.5621860" lon="-0.9079060">
        <ele>405.7</ele>
        <time>2020-12-31T14:06:59Z</time>
      </trkpt>
      <trkpt lat="41.5621670" lon="-0.9078960">
        <ele>405.7</ele>
        <time>2020-12-31T14:07:00Z</time>
      </trkpt>
      <trkpt lat="41.5621390" lon="-0.9078820">
        <ele>406.0</ele>
        <time>2020-12-31T14:07:02Z</time>
      </trkpt>
      <trkpt lat="41.5621130" lon="-0.9078710">
        <ele>406.3</ele>
        <time>2020-12-31T14:07:03Z</time>
      </trkpt>
      <trkpt lat="41.5621030" lon="-0.9078660">
        <ele>406.3</ele>
        <time>2020-12-31T14:07:04Z</time>
      </trkpt>
      <trkpt lat="41.5620840" lon="-0.9078540">
        <ele>406.6</ele>
        <time>2020-12-31T14:07:06Z</time>
      </trkpt>
      <trkpt lat="41.5620620" lon="-0.9078370">
        <ele>406.9</ele>
        <time>2020-12-31T14:07:08Z</time>
      </trkpt>
      <trkpt lat="41.5620530" lon="-0.9078310">
        <ele>406.8</ele>
        <time>2020-12-31T14:07:09Z</time>
      </trkpt>
      <trkpt lat="41.5620450" lon="-0.9078270">
        <ele>406.9</ele>
        <time>2020-12-31T14:07:10Z</time>
      </trkpt>
      <trkpt lat="41.5620380" lon="-0.9078210">
        <ele>406.9</ele>
        <time>2020-12-31T14:07:11Z</time>
      </trkpt>
      <trkpt lat="41.5620310" lon="-0.9078170">
        <ele>407.1</ele>
        <time>2020-12-31T14:07:12Z</time>
      </trkpt>
      <trkpt lat="41.5620140" lon="-0.9078060">
        <ele>407.2</ele>
        <time>2020-12-31T14:07:14Z</time>
      </trkpt>
      <trkpt lat="41.5620050" lon="-0.9078020">
        <ele>407.2</ele>
        <time>2020-12-31T14:07:15Z</time>
      </trkpt>
      <trkpt lat="41.5619970" lon="-0.9077970">
        <ele>407.4</ele>
        <time>2020-12-31T14:07:16Z</time>
      </trkpt>
      <trkpt lat="41.5619880" lon="-0.9077910">
        <ele>407.5</ele>
        <time>2020-12-31T14:07:17Z</time>
      </trkpt>
      <trkpt lat="41.5619790" lon="-0.9077840">
        <ele>407.4</ele>
        <time>2020-12-31T14:07:18Z</time>
      </trkpt>
      <trkpt lat="41.5619650" lon="-0.9077720">
        <ele>407.7</ele>
        <time>2020-12-31T14:07:20Z</time>
      </trkpt>
      <trkpt lat="41.5619490" lon="-0.9077650">
        <ele>407.7</ele>
        <time>2020-12-31T14:07:21Z</time>
      </trkpt>
      <trkpt lat="41.5619310" lon="-0.9077580">
        <ele>408.0</ele>
        <time>2020-12-31T14:07:22Z</time>
      </trkpt>
      <trkpt lat="41.5619030" lon="-0.9077510">
        <ele>408.3</ele>
        <time>2020-12-31T14:07:23Z</time>
      </trkpt>
      <trkpt lat="41.5618810" lon="-0.9077520">
        <ele>408.3</ele>
        <time>2020-12-31T14:07:24Z</time>
      </trkpt>
      <trkpt lat="41.5618580" lon="-0.9077600">
        <ele>408.6</ele>
        <time>2020-12-31T14:07:26Z</time>
      </trkpt>
      <trkpt lat="41.5618310" lon="-0.9077610">
        <ele>408.9</ele>
        <time>2020-12-31T14:07:28Z</time>
      </trkpt>
      <trkpt lat="41.5618240" lon="-0.9077570">
        <ele>408.9</ele>
        <time>2020-12-31T14:07:29Z</time>
      </trkpt>
      <trkpt lat="41.5618120" lon="-0.9077520">
        <ele>408.9</ele>
        <time>2020-12-31T14:07:31Z</time>
      </trkpt>
      <trkpt lat="41.5617960" lon="-0.9077550">
        <ele>409.1</ele>
        <time>2020-12-31T14:07:32Z</time>
      </trkpt>
      <trkpt lat="41.5617800" lon="-0.9077510">
        <ele>409.1</ele>
        <time>2020-12-31T14:07:33Z</time>
      </trkpt>
      <trkpt lat="41.5617600" lon="-0.9077480">
        <ele>409.3</ele>
        <time>2020-12-31T14:07:35Z</time>
      </trkpt>
      <trkpt lat="41.5617660" lon="-0.9077470">
        <ele>409.3</ele>
        <time>2020-12-31T14:07:36Z</time>
      </trkpt>
      <trkpt lat="41.5617780" lon="-0.9077510">
        <ele>409.1</ele>
        <time>2020-12-31T14:07:38Z</time>
      </trkpt>
      <trkpt lat="41.5617800" lon="-0.9077480">
        <ele>409.1</ele>
        <time>2020-12-31T14:07:40Z</time>
      </trkpt>
      <trkpt lat="41.5617800" lon="-0.9077470">
        <ele>409.2</ele>
        <time>2020-12-31T14:07:41Z</time>
      </trkpt>
      <trkpt lat="41.5617810" lon="-0.9077460">
        <ele>409.2</ele>
        <time>2020-12-31T14:07:43Z</time>
      </trkpt>
      <trkpt lat="41.5617780" lon="-0.9077440">
        <ele>409.1</ele>
        <time>2020-12-31T14:11:20Z</time>
      </trkpt>
      <trkpt lat="41.5617530" lon="-0.9077550">
        <ele>409.4</ele>
        <time>2020-12-31T14:11:21Z</time>
      </trkpt>
      <trkpt lat="41.5617200" lon="-0.9077780">
        <ele>409.6</ele>
        <time>2020-12-31T14:11:23Z</time>
      </trkpt>
      <trkpt lat="41.5616440" lon="-0.9078610">
        <ele>410.2</ele>
        <time>2020-12-31T14:11:24Z</time>
      </trkpt>
      <trkpt lat="41.5615850" lon="-0.9079910">
        <ele>410.6</ele>
        <time>2020-12-31T14:11:26Z</time>
      </trkpt>
      <trkpt lat="41.5615500" lon="-0.9081210">
        <ele>411.2</ele>
        <time>2020-12-31T14:11:28Z</time>
      </trkpt>
      <trkpt lat="41.5615190" lon="-0.9081990">
        <ele>411.2</ele>
        <time>2020-12-31T14:11:30Z</time>
      </trkpt>
      <trkpt lat="41.5614880" lon="-0.9082430">
        <ele>411.5</ele>
        <time>2020-12-31T14:11:31Z</time>
      </trkpt>
      <trkpt lat="41.5614730" lon="-0.9082900">
        <ele>411.7</ele>
        <time>2020-12-31T14:11:32Z</time>
      </trkpt>
      <trkpt lat="41.5614540" lon="-0.9083290">
        <ele>411.7</ele>
        <time>2020-12-31T14:11:33Z</time>
      </trkpt>
      <trkpt lat="41.5614280" lon="-0.9083520">
        <ele>411.9</ele>
        <time>2020-12-31T14:11:34Z</time>
      </trkpt>
      <trkpt lat="41.5613880" lon="-0.9083620">
        <ele>412.5</ele>
        <time>2020-12-31T14:11:36Z</time>
      </trkpt>
      <trkpt lat="41.5613520" lon="-0.9083620">
        <ele>412.8</ele>
        <time>2020-12-31T14:11:37Z</time>
      </trkpt>
      <trkpt lat="41.5612930" lon="-0.9083650">
        <ele>413.4</ele>
        <time>2020-12-31T14:11:39Z</time>
      </trkpt>
      <trkpt lat="41.5612490" lon="-0.9083690">
        <ele>413.7</ele>
        <time>2020-12-31T14:11:40Z</time>
      </trkpt>
      <trkpt lat="41.5612020" lon="-0.9083790">
        <ele>413.9</ele>
        <time>2020-12-31T14:11:41Z</time>
      </trkpt>
      <trkpt lat="41.5611500" lon="-0.9083980">
        <ele>414.6</ele>
        <time>2020-12-31T14:11:42Z</time>
      </trkpt>
      <trkpt lat="41.5611050" lon="-0.9084250">
        <ele>414.9</ele>
        <time>2020-12-31T14:11:44Z</time>
      </trkpt>
      <trkpt lat="41.5610650" lon="-0.9084530">
        <ele>415.5</ele>
        <time>2020-12-31T14:11:45Z</time>
      </trkpt>
      <trkpt lat="41.5610200" lon="-0.9084880">
        <ele>415.8</ele>
        <time>2020-12-31T14:11:46Z</time>
      </trkpt>
      <trkpt lat="41.5609680" lon="-0.9085290">
        <ele>416.2</ele>
        <time>2020-12-31T14:11:48Z</time>
      </trkpt>
      <trkpt lat="41.5609190" lon="-0.9085780">
        <ele>416.4</ele>
        <time>2020-12-31T14:11:49Z</time>
      </trkpt>
      <trkpt lat="41.5608840" lon="-0.9086220">
        <ele>416.6</ele>
        <time>2020-12-31T14:11:50Z</time>
      </trkpt>
      <trkpt lat="41.5608600" lon="-0.9086680">
        <ele>416.7</ele>
        <time>2020-12-31T14:11:52Z</time>
      </trkpt>
      <trkpt lat="41.5608420" lon="-0.9087250">
        <ele>416.8</ele>
        <time>2020-12-31T14:11:53Z</time>
      </trkpt>
      <trkpt lat="41.5608300" lon="-0.9087910">
        <ele>416.9</ele>
        <time>2020-12-31T14:11:54Z</time>
      </trkpt>
      <trkpt lat="41.5608250" lon="-0.9088380">
        <ele>416.9</ele>
        <time>2020-12-31T14:11:55Z</time>
      </trkpt>
      <trkpt lat="41.5608240" lon="-0.9089150">
        <ele>416.9</ele>
        <time>2020-12-31T14:11:57Z</time>
      </trkpt>
      <trkpt lat="41.5608260" lon="-0.9089700">
        <ele>416.9</ele>
        <time>2020-12-31T14:11:58Z</time>
      </trkpt>
      <trkpt lat="41.5608250" lon="-0.9090300">
        <ele>416.9</ele>
        <time>2020-12-31T14:11:59Z</time>
      </trkpt>
      <trkpt lat="41.5608220" lon="-0.9090940">
        <ele>416.9</ele>
        <time>2020-12-31T14:12:01Z</time>
      </trkpt>
      <trkpt lat="41.5608190" lon="-0.9091680">
        <ele>416.8</ele>
        <time>2020-12-31T14:12:03Z</time>
      </trkpt>
      <trkpt lat="41.5608180" lon="-0.9092160">
        <ele>416.8</ele>
        <time>2020-12-31T14:12:04Z</time>
      </trkpt>
      <trkpt lat="41.5608120" lon="-0.9092740">
        <ele>416.8</ele>
        <time>2020-12-31T14:12:05Z</time>
      </trkpt>
      <trkpt lat="41.5608050" lon="-0.9093200">
        <ele>416.9</ele>
        <time>2020-12-31T14:12:06Z</time>
      </trkpt>
      <trkpt lat="41.5607960" lon="-0.9093610">
        <ele>416.9</ele>
        <time>2020-12-31T14:12:07Z</time>
      </trkpt>
      <trkpt lat="41.5607670" lon="-0.9094110">
        <ele>416.9</ele>
        <time>2020-12-31T14:12:08Z</time>
      </trkpt>
      <trkpt lat="41.5606900" lon="-0.9094750">
        <ele>416.9</ele>
        <time>2020-12-31T14:12:10Z</time>
      </trkpt>
      <trkpt lat="41.5606320" lon="-0.9095040">
        <ele>416.9</ele>
        <time>2020-12-31T14:12:11Z</time>
      </trkpt>
      <trkpt lat="41.5605100" lon="-0.9095280">
        <ele>416.7</ele>
        <time>2020-12-31T14:12:13Z</time>
      </trkpt>
      <trkpt lat="41.5603900" lon="-0.9094610">
        <ele>416.8</ele>
        <time>2020-12-31T14:12:15Z</time>
      </trkpt>
      <trkpt lat="41.5603200" lon="-0.9094060">
        <ele>416.8</ele>
        <time>2020-12-31T14:12:16Z</time>
      </trkpt>
      <trkpt lat="41.5601440" lon="-0.9093470">
        <ele>416.5</ele>
        <time>2020-12-31T14:12:18Z</time>
      </trkpt>
      <trkpt lat="41.5599850" lon="-0.9092890">
        <ele>415.2</ele>
        <time>2020-12-31T14:12:20Z</time>
      </trkpt>
      <trkpt lat="41.5598510" lon="-0.9092080">
        <ele>413.3</ele>
        <time>2020-12-31T14:12:22Z</time>
      </trkpt>
      <trkpt lat="41.5597870" lon="-0.9092370">
        <ele>412.3</ele>
        <time>2020-12-31T14:12:23Z</time>
      </trkpt>
      <trkpt lat="41.5597190" lon="-0.9092980">
        <ele>410.4</ele>
        <time>2020-12-31T14:12:24Z</time>
      </trkpt>
      <trkpt lat="41.5595690" lon="-0.9094390">
        <ele>407.9</ele>
        <time>2020-12-31T14:12:26Z</time>
      </trkpt>
      <trkpt lat="41.5594390" lon="-0.9095480">
        <ele>406.0</ele>
        <time>2020-12-31T14:12:28Z</time>
      </trkpt>
      <trkpt lat="41.5593630" lon="-0.9095600">
        <ele>405.2</ele>
        <time>2020-12-31T14:12:30Z</time>
      </trkpt>
      <trkpt lat="41.5593660" lon="-0.9096050">
        <ele>405.2</ele>
        <time>2020-12-31T14:12:31Z</time>
      </trkpt>
      <trkpt lat="41.5593680" lon="-0.9096240">
        <ele>405.4</ele>
        <time>2020-12-31T14:12:32Z</time>
      </trkpt>
      <trkpt lat="41.5593970" lon="-0.9097010">
        <ele>405.6</ele>
        <time>2020-12-31T14:12:34Z</time>
      </trkpt>
      <trkpt lat="41.5594140" lon="-0.9097670">
        <ele>405.7</ele>
        <time>2020-12-31T14:12:35Z</time>
      </trkpt>
      <trkpt lat="41.5593780" lon="-0.9097900">
        <ele>405.8</ele>
        <time>2020-12-31T14:12:36Z</time>
      </trkpt>
      <trkpt lat="41.5593850" lon="-0.9098420">
        <ele>405.8</ele>
        <time>2020-12-31T14:12:37Z</time>
      </trkpt>
      <trkpt lat="41.5594280" lon="-0.9099210">
        <ele>406.0</ele>
        <time>2020-12-31T14:12:39Z</time>
      </trkpt>
      <trkpt lat="41.5594820" lon="-0.9100120">
        <ele>406.2</ele>
        <time>2020-12-31T14:12:41Z</time>
      </trkpt>
      <trkpt lat="41.5595050" lon="-0.9100560">
        <ele>406.3</ele>
        <time>2020-12-31T14:12:42Z</time>
      </trkpt>
      <trkpt lat="41.5595250" lon="-0.9100990">
        <ele>406.4</ele>
        <time>2020-12-31T14:12:43Z</time>
      </trkpt>
      <trkpt lat="41.5595520" lon="-0.9101580">
        <ele>406.5</ele>
        <time>2020-12-31T14:12:44Z</time>
      </trkpt>
      <trkpt lat="41.5595720" lon="-0.9102060">
        <ele>406.6</ele>
        <time>2020-12-31T14:12:46Z</time>
      </trkpt>
      <trkpt lat="41.5596100" lon="-0.9102920">
        <ele>406.8</ele>
        <time>2020-12-31T14:12:48Z</time>
      </trkpt>
      <trkpt lat="41.5596280" lon="-0.9103330">
        <ele>406.8</ele>
        <time>2020-12-31T14:12:49Z</time>
      </trkpt>
      <trkpt lat="41.5596530" lon="-0.9103910">
        <ele>407.0</ele>
        <time>2020-12-31T14:12:50Z</time>
      </trkpt>
      <trkpt lat="41.5596690" lon="-0.9104350">
        <ele>407.0</ele>
        <time>2020-12-31T14:12:51Z</time>
      </trkpt>
      <trkpt lat="41.5596930" lon="-0.9104920">
        <ele>407.1</ele>
        <time>2020-12-31T14:12:52Z</time>
      </trkpt>
      <trkpt lat="41.5597170" lon="-0.9105440">
        <ele>407.2</ele>
        <time>2020-12-31T14:12:54Z</time>
      </trkpt>
      <trkpt lat="41.5597440" lon="-0.9106010">
        <ele>407.3</ele>
        <time>2020-12-31T14:12:55Z</time>
      </trkpt>
      <trkpt lat="41.5597670" lon="-0.9106590">
        <ele>407.4</ele>
        <time>2020-12-31T14:12:56Z</time>
      </trkpt>
      <trkpt lat="41.5597900" lon="-0.9107160">
        <ele>407.5</ele>
        <time>2020-12-31T14:12:57Z</time>
      </trkpt>
      <trkpt lat="41.5598180" lon="-0.9107940">
        <ele>407.7</ele>
        <time>2020-12-31T14:12:58Z</time>
      </trkpt>
      <trkpt lat="41.5598470" lon="-0.9108670">
        <ele>407.9</ele>
        <time>2020-12-31T14:13:00Z</time>
      </trkpt>
      <trkpt lat="41.5598710" lon="-0.9109310">
        <ele>408.1</ele>
        <time>2020-12-31T14:13:01Z</time>
      </trkpt>
      <trkpt lat="41.5598910" lon="-0.9109810">
        <ele>408.3</ele>
        <time>2020-12-31T14:13:02Z</time>
      </trkpt>
      <trkpt lat="41.5599120" lon="-0.9110330">
        <ele>408.5</ele>
        <time>2020-12-31T14:13:03Z</time>
      </trkpt>
      <trkpt lat="41.5599330" lon="-0.9110870">
        <ele>408.7</ele>
        <time>2020-12-31T14:13:05Z</time>
      </trkpt>
      <trkpt lat="41.5599530" lon="-0.9111360">
        <ele>408.8</ele>
        <time>2020-12-31T14:13:06Z</time>
      </trkpt>
      <trkpt lat="41.5599780" lon="-0.9111970">
        <ele>409.0</ele>
        <time>2020-12-31T14:13:07Z</time>
      </trkpt>
      <trkpt lat="41.5600090" lon="-0.9112390">
        <ele>409.2</ele>
        <time>2020-12-31T14:13:09Z</time>
      </trkpt>
      <trkpt lat="41.5600260" lon="-0.9112910">
        <ele>409.4</ele>
        <time>2020-12-31T14:13:10Z</time>
      </trkpt>
      <trkpt lat="41.5600470" lon="-0.9113660">
        <ele>409.6</ele>
        <time>2020-12-31T14:13:11Z</time>
      </trkpt>
      <trkpt lat="41.5600630" lon="-0.9114390">
        <ele>409.8</ele>
        <time>2020-12-31T14:13:13Z</time>
      </trkpt>
      <trkpt lat="41.5600690" lon="-0.9115010">
        <ele>409.9</ele>
        <time>2020-12-31T14:13:14Z</time>
      </trkpt>
      <trkpt lat="41.5600750" lon="-0.9115740">
        <ele>410.1</ele>
        <time>2020-12-31T14:13:15Z</time>
      </trkpt>
      <trkpt lat="41.5600790" lon="-0.9116490">
        <ele>410.1</ele>
        <time>2020-12-31T14:13:16Z</time>
      </trkpt>
      <trkpt lat="41.5600810" lon="-0.9117030">
        <ele>410.2</ele>
        <time>2020-12-31T14:13:18Z</time>
      </trkpt>
      <trkpt lat="41.5600840" lon="-0.9117680">
        <ele>410.2</ele>
        <time>2020-12-31T14:13:19Z</time>
      </trkpt>
      <trkpt lat="41.5600870" lon="-0.9118250">
        <ele>410.3</ele>
        <time>2020-12-31T14:13:20Z</time>
      </trkpt>
      <trkpt lat="41.5600970" lon="-0.9119460">
        <ele>410.3</ele>
        <time>2020-12-31T14:13:22Z</time>
      </trkpt>
      <trkpt lat="41.5601030" lon="-0.9120770">
        <ele>410.4</ele>
        <time>2020-12-31T14:13:24Z</time>
      </trkpt>
      <trkpt lat="41.5601030" lon="-0.9122160">
        <ele>410.5</ele>
        <time>2020-12-31T14:13:26Z</time>
      </trkpt>
      <trkpt lat="41.5600910" lon="-0.9123650">
        <ele>410.6</ele>
        <time>2020-12-31T14:13:28Z</time>
      </trkpt>
      <trkpt lat="41.5600750" lon="-0.9125030">
        <ele>410.7</ele>
        <time>2020-12-31T14:13:30Z</time>
      </trkpt>
      <trkpt lat="41.5600810" lon="-0.9126010">
        <ele>410.5</ele>
        <time>2020-12-31T14:13:32Z</time>
      </trkpt>
      <trkpt lat="41.5601240" lon="-0.9126380">
        <ele>410.7</ele>
        <time>2020-12-31T14:13:33Z</time>
      </trkpt>
      <trkpt lat="41.5601670" lon="-0.9127250">
        <ele>410.8</ele>
        <time>2020-12-31T14:13:35Z</time>
      </trkpt>
      <trkpt lat="41.5601990" lon="-0.9128110">
        <ele>410.7</ele>
        <time>2020-12-31T14:13:36Z</time>
      </trkpt>
      <trkpt lat="41.5602520" lon="-0.9129140">
        <ele>410.8</ele>
        <time>2020-12-31T14:13:38Z</time>
      </trkpt>
      <trkpt lat="41.5602840" lon="-0.9129740">
        <ele>410.8</ele>
        <time>2020-12-31T14:13:39Z</time>
      </trkpt>
      <trkpt lat="41.5603190" lon="-0.9130420">
        <ele>410.5</ele>
        <time>2020-12-31T14:13:40Z</time>
      </trkpt>
      <trkpt lat="41.5604000" lon="-0.9131690">
        <ele>409.5</ele>
        <time>2020-12-31T14:13:42Z</time>
      </trkpt>
      <trkpt lat="41.5604780" lon="-0.9133040">
        <ele>408.0</ele>
        <time>2020-12-31T14:13:44Z</time>
      </trkpt>
      <trkpt lat="41.5605170" lon="-0.9133770">
        <ele>406.9</ele>
        <time>2020-12-31T14:13:45Z</time>
      </trkpt>
      <trkpt lat="41.5606110" lon="-0.9135010">
        <ele>405.1</ele>
        <time>2020-12-31T14:13:47Z</time>
      </trkpt>
      <trkpt lat="41.5607120" lon="-0.9136290">
        <ele>403.6</ele>
        <time>2020-12-31T14:13:49Z</time>
      </trkpt>
      <trkpt lat="41.5608280" lon="-0.9137380">
        <ele>402.6</ele>
        <time>2020-12-31T14:13:51Z</time>
      </trkpt>
      <trkpt lat="41.5609110" lon="-0.9138840">
        <ele>401.6</ele>
        <time>2020-12-31T14:13:53Z</time>
      </trkpt>
      <trkpt lat="41.5609520" lon="-0.9139490">
        <ele>401.6</ele>
        <time>2020-12-31T14:13:54Z</time>
      </trkpt>
      <trkpt lat="41.5609900" lon="-0.9140100">
        <ele>401.6</ele>
        <time>2020-12-31T14:13:55Z</time>
      </trkpt>
      <trkpt lat="41.5610490" lon="-0.9140560">
        <ele>401.4</ele>
        <time>2020-12-31T14:13:56Z</time>
      </trkpt>
      <trkpt lat="41.5611840" lon="-0.9141200">
        <ele>400.9</ele>
        <time>2020-12-31T14:13:58Z</time>
      </trkpt>
      <trkpt lat="41.5613270" lon="-0.9141870">
        <ele>400.4</ele>
        <time>2020-12-31T14:14:00Z</time>
      </trkpt>
      <trkpt lat="41.5614750" lon="-0.9142470">
        <ele>400.0</ele>
        <time>2020-12-31T14:14:02Z</time>
      </trkpt>
      <trkpt lat="41.5616160" lon="-0.9142990">
        <ele>399.6</ele>
        <time>2020-12-31T14:14:04Z</time>
      </trkpt>
      <trkpt lat="41.5617520" lon="-0.9143480">
        <ele>399.2</ele>
        <time>2020-12-31T14:14:06Z</time>
      </trkpt>
      <trkpt lat="41.5618240" lon="-0.9143690">
        <ele>399.0</ele>
        <time>2020-12-31T14:14:07Z</time>
      </trkpt>
      <trkpt lat="41.5618920" lon="-0.9143950">
        <ele>398.7</ele>
        <time>2020-12-31T14:14:08Z</time>
      </trkpt>
      <trkpt lat="41.5620280" lon="-0.9144180">
        <ele>398.2</ele>
        <time>2020-12-31T14:14:10Z</time>
      </trkpt>
      <trkpt lat="41.5621620" lon="-0.9144180">
        <ele>397.7</ele>
        <time>2020-12-31T14:14:12Z</time>
      </trkpt>
      <trkpt lat="41.5622960" lon="-0.9143830">
        <ele>397.2</ele>
        <time>2020-12-31T14:14:14Z</time>
      </trkpt>
      <trkpt lat="41.5624270" lon="-0.9143290">
        <ele>396.7</ele>
        <time>2020-12-31T14:14:16Z</time>
      </trkpt>
      <trkpt lat="41.5624950" lon="-0.9143130">
        <ele>396.5</ele>
        <time>2020-12-31T14:14:17Z</time>
      </trkpt>
      <trkpt lat="41.5625630" lon="-0.9143040">
        <ele>396.3</ele>
        <time>2020-12-31T14:14:18Z</time>
      </trkpt>
      <trkpt lat="41.5627010" lon="-0.9142990">
        <ele>395.9</ele>
        <time>2020-12-31T14:14:20Z</time>
      </trkpt>
      <trkpt lat="41.5627690" lon="-0.9143100">
        <ele>395.8</ele>
        <time>2020-12-31T14:14:21Z</time>
      </trkpt>
      <trkpt lat="41.5628390" lon="-0.9143260">
        <ele>395.6</ele>
        <time>2020-12-31T14:14:22Z</time>
      </trkpt>
      <trkpt lat="41.5629700" lon="-0.9143810">
        <ele>395.3</ele>
        <time>2020-12-31T14:14:24Z</time>
      </trkpt>
      <trkpt lat="41.5630990" lon="-0.9144170">
        <ele>395.0</ele>
        <time>2020-12-31T14:14:26Z</time>
      </trkpt>
      <trkpt lat="41.5631690" lon="-0.9144180">
        <ele>394.9</ele>
        <time>2020-12-31T14:14:27Z</time>
      </trkpt>
      <trkpt lat="41.5633080" lon="-0.9143830">
        <ele>394.6</ele>
        <time>2020-12-31T14:14:29Z</time>
      </trkpt>
      <trkpt lat="41.5634410" lon="-0.9143660">
        <ele>394.4</ele>
        <time>2020-12-31T14:14:31Z</time>
      </trkpt>
      <trkpt lat="41.5635080" lon="-0.9143660">
        <ele>394.4</ele>
        <time>2020-12-31T14:14:32Z</time>
      </trkpt>
      <trkpt lat="41.5635790" lon="-0.9143730">
        <ele>394.3</ele>
        <time>2020-12-31T14:14:33Z</time>
      </trkpt>
      <trkpt lat="41.5637070" lon="-0.9144120">
        <ele>394.1</ele>
        <time>2020-12-31T14:14:35Z</time>
      </trkpt>
      <trkpt lat="41.5638270" lon="-0.9144860">
        <ele>394.0</ele>
        <time>2020-12-31T14:14:37Z</time>
      </trkpt>
      <trkpt lat="41.5639330" lon="-0.9145950">
        <ele>393.9</ele>
        <time>2020-12-31T14:14:39Z</time>
      </trkpt>
      <trkpt lat="41.5640280" lon="-0.9147130">
        <ele>393.7</ele>
        <time>2020-12-31T14:14:41Z</time>
      </trkpt>
      <trkpt lat="41.5640720" lon="-0.9147730">
        <ele>393.6</ele>
        <time>2020-12-31T14:14:42Z</time>
      </trkpt>
      <trkpt lat="41.5641190" lon="-0.9148320">
        <ele>393.5</ele>
        <time>2020-12-31T14:14:43Z</time>
      </trkpt>
      <trkpt lat="41.5641700" lon="-0.9148870">
        <ele>393.4</ele>
        <time>2020-12-31T14:14:44Z</time>
      </trkpt>
      <trkpt lat="41.5642760" lon="-0.9149930">
        <ele>393.2</ele>
        <time>2020-12-31T14:14:46Z</time>
      </trkpt>
      <trkpt lat="41.5643320" lon="-0.9150410">
        <ele>393.1</ele>
        <time>2020-12-31T14:14:47Z</time>
      </trkpt>
      <trkpt lat="41.5644500" lon="-0.9151280">
        <ele>392.9</ele>
        <time>2020-12-31T14:14:49Z</time>
      </trkpt>
      <trkpt lat="41.5645060" lon="-0.9151690">
        <ele>392.8</ele>
        <time>2020-12-31T14:14:50Z</time>
      </trkpt>
      <trkpt lat="41.5645610" lon="-0.9152080">
        <ele>392.6</ele>
        <time>2020-12-31T14:14:51Z</time>
      </trkpt>
      <trkpt lat="41.5646210" lon="-0.9152420">
        <ele>392.5</ele>
        <time>2020-12-31T14:14:52Z</time>
      </trkpt>
      <trkpt lat="41.5647450" lon="-0.9152990">
        <ele>392.2</ele>
        <time>2020-12-31T14:14:54Z</time>
      </trkpt>
      <trkpt lat="41.5648120" lon="-0.9153240">
        <ele>391.9</ele>
        <time>2020-12-31T14:14:55Z</time>
      </trkpt>
      <trkpt lat="41.5649400" lon="-0.9153660">
        <ele>391.5</ele>
        <time>2020-12-31T14:14:57Z</time>
      </trkpt>
      <trkpt lat="41.5650730" lon="-0.9153690">
        <ele>391.1</ele>
        <time>2020-12-31T14:14:59Z</time>
      </trkpt>
      <trkpt lat="41.5651410" lon="-0.9153670">
        <ele>390.9</ele>
        <time>2020-12-31T14:15:00Z</time>
      </trkpt>
      <trkpt lat="41.5652080" lon="-0.9153650">
        <ele>390.8</ele>
        <time>2020-12-31T14:15:01Z</time>
      </trkpt>
      <trkpt lat="41.5653380" lon="-0.9153450">
        <ele>390.3</ele>
        <time>2020-12-31T14:15:03Z</time>
      </trkpt>
      <trkpt lat="41.5654500" lon="-0.9152650">
        <ele>389.9</ele>
        <time>2020-12-31T14:15:05Z</time>
      </trkpt>
      <trkpt lat="41.5654950" lon="-0.9152070">
        <ele>389.6</ele>
        <time>2020-12-31T14:15:06Z</time>
      </trkpt>
      <trkpt lat="41.5655780" lon="-0.9150810">
        <ele>389.3</ele>
        <time>2020-12-31T14:15:08Z</time>
      </trkpt>
      <trkpt lat="41.5656230" lon="-0.9150180">
        <ele>389.1</ele>
        <time>2020-12-31T14:15:09Z</time>
      </trkpt>
      <trkpt lat="41.5656770" lon="-0.9149730">
        <ele>389.0</ele>
        <time>2020-12-31T14:15:10Z</time>
      </trkpt>
      <trkpt lat="41.5657990" lon="-0.9149360">
        <ele>388.8</ele>
        <time>2020-12-31T14:15:12Z</time>
      </trkpt>
      <trkpt lat="41.5659190" lon="-0.9149530">
        <ele>388.7</ele>
        <time>2020-12-31T14:15:14Z</time>
      </trkpt>
      <trkpt lat="41.5659750" lon="-0.9149480">
        <ele>388.6</ele>
        <time>2020-12-31T14:15:15Z</time>
      </trkpt>
      <trkpt lat="41.5660810" lon="-0.9149050">
        <ele>388.5</ele>
        <time>2020-12-31T14:15:17Z</time>
      </trkpt>
      <trkpt lat="41.5661290" lon="-0.9148630">
        <ele>388.4</ele>
        <time>2020-12-31T14:15:18Z</time>
      </trkpt>
      <trkpt lat="41.5662160" lon="-0.9147640">
        <ele>388.2</ele>
        <time>2020-12-31T14:15:20Z</time>
      </trkpt>
      <trkpt lat="41.5662980" lon="-0.9146340">
        <ele>387.7</ele>
        <time>2020-12-31T14:15:22Z</time>
      </trkpt>
      <trkpt lat="41.5663410" lon="-0.9145640">
        <ele>387.4</ele>
        <time>2020-12-31T14:15:23Z</time>
      </trkpt>
      <trkpt lat="41.5663860" lon="-0.9144930">
        <ele>387.1</ele>
        <time>2020-12-31T14:15:24Z</time>
      </trkpt>
      <trkpt lat="41.5664320" lon="-0.9144230">
        <ele>386.7</ele>
        <time>2020-12-31T14:15:25Z</time>
      </trkpt>
      <trkpt lat="41.5665260" lon="-0.9142790">
        <ele>386.1</ele>
        <time>2020-12-31T14:15:27Z</time>
      </trkpt>
      <trkpt lat="41.5665750" lon="-0.9142080">
        <ele>385.8</ele>
        <time>2020-12-31T14:15:28Z</time>
      </trkpt>
      <trkpt lat="41.5666820" lon="-0.9140600">
        <ele>385.1</ele>
        <time>2020-12-31T14:15:30Z</time>
      </trkpt>
      <trkpt lat="41.5667480" lon="-0.9139910">
        <ele>384.7</ele>
        <time>2020-12-31T14:15:31Z</time>
      </trkpt>
      <trkpt lat="41.5668690" lon="-0.9138380">
        <ele>384.1</ele>
        <time>2020-12-31T14:15:33Z</time>
      </trkpt>
      <trkpt lat="41.5669360" lon="-0.9137780">
        <ele>383.9</ele>
        <time>2020-12-31T14:15:34Z</time>
      </trkpt>
      <trkpt lat="41.5670880" lon="-0.9137330">
        <ele>383.4</ele>
        <time>2020-12-31T14:15:36Z</time>
      </trkpt>
      <trkpt lat="41.5671640" lon="-0.9137390">
        <ele>383.3</ele>
        <time>2020-12-31T14:15:37Z</time>
      </trkpt>
      <trkpt lat="41.5673190" lon="-0.9137470">
        <ele>382.9</ele>
        <time>2020-12-31T14:15:39Z</time>
      </trkpt>
      <trkpt lat="41.5674000" lon="-0.9137440">
        <ele>382.7</ele>
        <time>2020-12-31T14:15:40Z</time>
      </trkpt>
      <trkpt lat="41.5674810" lon="-0.9137470">
        <ele>382.4</ele>
        <time>2020-12-31T14:15:41Z</time>
      </trkpt>
      <trkpt lat="41.5676370" lon="-0.9137700">
        <ele>381.8</ele>
        <time>2020-12-31T14:15:43Z</time>
      </trkpt>
      <trkpt lat="41.5678050" lon="-0.9137910">
        <ele>381.1</ele>
        <time>2020-12-31T14:15:45Z</time>
      </trkpt>
      <trkpt lat="41.5678870" lon="-0.9138050">
        <ele>380.8</ele>
        <time>2020-12-31T14:15:46Z</time>
      </trkpt>
      <trkpt lat="41.5679680" lon="-0.9138210">
        <ele>380.4</ele>
        <time>2020-12-31T14:15:47Z</time>
      </trkpt>
      <trkpt lat="41.5681360" lon="-0.9138440">
        <ele>379.7</ele>
        <time>2020-12-31T14:15:49Z</time>
      </trkpt>
      <trkpt lat="41.5683130" lon="-0.9138650">
        <ele>379.0</ele>
        <time>2020-12-31T14:15:51Z</time>
      </trkpt>
      <trkpt lat="41.5683990" lon="-0.9138750">
        <ele>378.6</ele>
        <time>2020-12-31T14:15:52Z</time>
      </trkpt>
      <trkpt lat="41.5685690" lon="-0.9139050">
        <ele>378.0</ele>
        <time>2020-12-31T14:15:54Z</time>
      </trkpt>
      <trkpt lat="41.5686550" lon="-0.9139250">
        <ele>377.6</ele>
        <time>2020-12-31T14:15:55Z</time>
      </trkpt>
      <trkpt lat="41.5688250" lon="-0.9139690">
        <ele>376.9</ele>
        <time>2020-12-31T14:15:57Z</time>
      </trkpt>
      <trkpt lat="41.5689920" lon="-0.9140370">
        <ele>376.0</ele>
        <time>2020-12-31T14:15:59Z</time>
      </trkpt>
      <trkpt lat="41.5690670" lon="-0.9140680">
        <ele>375.7</ele>
        <time>2020-12-31T14:16:00Z</time>
      </trkpt>
      <trkpt lat="41.5691360" lon="-0.9140970">
        <ele>375.4</ele>
        <time>2020-12-31T14:16:01Z</time>
      </trkpt>
      <trkpt lat="41.5692830" lon="-0.9141510">
        <ele>374.7</ele>
        <time>2020-12-31T14:16:03Z</time>
      </trkpt>
      <trkpt lat="41.5694290" lon="-0.9142010">
        <ele>374.0</ele>
        <time>2020-12-31T14:16:05Z</time>
      </trkpt>
      <trkpt lat="41.5695070" lon="-0.9142300">
        <ele>373.7</ele>
        <time>2020-12-31T14:16:06Z</time>
      </trkpt>
      <trkpt lat="41.5695830" lon="-0.9142610">
        <ele>373.4</ele>
        <time>2020-12-31T14:16:07Z</time>
      </trkpt>
      <trkpt lat="41.5697360" lon="-0.9143150">
        <ele>372.8</ele>
        <time>2020-12-31T14:16:09Z</time>
      </trkpt>
      <trkpt lat="41.5698150" lon="-0.9143360">
        <ele>372.5</ele>
        <time>2020-12-31T14:16:10Z</time>
      </trkpt>
      <trkpt lat="41.5699700" lon="-0.9143850">
        <ele>372.0</ele>
        <time>2020-12-31T14:16:12Z</time>
      </trkpt>
      <trkpt lat="41.5700480" lon="-0.9144100">
        <ele>371.7</ele>
        <time>2020-12-31T14:16:13Z</time>
      </trkpt>
      <trkpt lat="41.5701270" lon="-0.9144380">
        <ele>371.4</ele>
        <time>2020-12-31T14:16:14Z</time>
      </trkpt>
      <trkpt lat="41.5702830" lon="-0.9144930">
        <ele>370.9</ele>
        <time>2020-12-31T14:16:16Z</time>
      </trkpt>
      <trkpt lat="41.5704360" lon="-0.9145460">
        <ele>370.5</ele>
        <time>2020-12-31T14:16:18Z</time>
      </trkpt>
      <trkpt lat="41.5705890" lon="-0.9146000">
        <ele>370.2</ele>
        <time>2020-12-31T14:16:20Z</time>
      </trkpt>
      <trkpt lat="41.5707380" lon="-0.9146490">
        <ele>369.9</ele>
        <time>2020-12-31T14:16:22Z</time>
      </trkpt>
      <trkpt lat="41.5708100" lon="-0.9146740">
        <ele>369.8</ele>
        <time>2020-12-31T14:16:23Z</time>
      </trkpt>
      <trkpt lat="41.5709480" lon="-0.9147390">
        <ele>369.7</ele>
        <time>2020-12-31T14:16:25Z</time>
      </trkpt>
      <trkpt lat="41.5710170" lon="-0.9147770">
        <ele>369.7</ele>
        <time>2020-12-31T14:16:26Z</time>
      </trkpt>
      <trkpt lat="41.5710840" lon="-0.9148220">
        <ele>369.7</ele>
        <time>2020-12-31T14:16:27Z</time>
      </trkpt>
      <trkpt lat="41.5711510" lon="-0.9148750">
        <ele>369.7</ele>
        <time>2020-12-31T14:16:28Z</time>
      </trkpt>
      <trkpt lat="41.5712690" lon="-0.9150030">
        <ele>369.8</ele>
        <time>2020-12-31T14:16:30Z</time>
      </trkpt>
      <trkpt lat="41.5713690" lon="-0.9151450">
        <ele>369.7</ele>
        <time>2020-12-31T14:16:32Z</time>
      </trkpt>
      <trkpt lat="41.5714240" lon="-0.9152020">
        <ele>369.7</ele>
        <time>2020-12-31T14:16:33Z</time>
      </trkpt>
      <trkpt lat="41.5714900" lon="-0.9152380">
        <ele>369.7</ele>
        <time>2020-12-31T14:16:34Z</time>
      </trkpt>
      <trkpt lat="41.5715590" lon="-0.9152630">
        <ele>369.7</ele>
        <time>2020-12-31T14:16:35Z</time>
      </trkpt>
      <trkpt lat="41.5716850" lon="-0.9153180">
        <ele>369.7</ele>
        <time>2020-12-31T14:16:37Z</time>
      </trkpt>
      <trkpt lat="41.5718010" lon="-0.9153720">
        <ele>369.8</ele>
        <time>2020-12-31T14:16:39Z</time>
      </trkpt>
      <trkpt lat="41.5718510" lon="-0.9153900">
        <ele>369.8</ele>
        <time>2020-12-31T14:16:40Z</time>
      </trkpt>
      <trkpt lat="41.5719150" lon="-0.9154140">
        <ele>369.8</ele>
        <time>2020-12-31T14:16:42Z</time>
      </trkpt>
      <trkpt lat="41.5719330" lon="-0.9154410">
        <ele>369.9</ele>
        <time>2020-12-31T14:16:43Z</time>
      </trkpt>
      <trkpt lat="41.5719290" lon="-0.9155120">
        <ele>370.2</ele>
        <time>2020-12-31T14:16:45Z</time>
      </trkpt>
      <trkpt lat="41.5719070" lon="-0.9155750">
        <ele>370.4</ele>
        <time>2020-12-31T14:16:47Z</time>
      </trkpt>
      <trkpt lat="41.5718880" lon="-0.9156440">
        <ele>370.6</ele>
        <time>2020-12-31T14:16:48Z</time>
      </trkpt>
      <trkpt lat="41.5718600" lon="-0.9156930">
        <ele>370.7</ele>
        <time>2020-12-31T14:16:49Z</time>
      </trkpt>
      <trkpt lat="41.5718370" lon="-0.9157430">
        <ele>370.9</ele>
        <time>2020-12-31T14:16:50Z</time>
      </trkpt>
      <trkpt lat="41.5718100" lon="-0.9157830">
        <ele>371.0</ele>
        <time>2020-12-31T14:16:52Z</time>
      </trkpt>
      <trkpt lat="41.5717710" lon="-0.9158390">
        <ele>371.2</ele>
        <time>2020-12-31T14:16:53Z</time>
      </trkpt>
      <trkpt lat="41.5717360" lon="-0.9158940">
        <ele>371.3</ele>
        <time>2020-12-31T14:16:55Z</time>
      </trkpt>
      <trkpt lat="41.5717110" lon="-0.9159510">
        <ele>371.4</ele>
        <time>2020-12-31T14:16:56Z</time>
      </trkpt>
      <trkpt lat="41.5716830" lon="-0.9160310">
        <ele>371.5</ele>
        <time>2020-12-31T14:16:58Z</time>
      </trkpt>
      <trkpt lat="41.5716680" lon="-0.9160890">
        <ele>371.6</ele>
        <time>2020-12-31T14:16:59Z</time>
      </trkpt>
      <trkpt lat="41.5716480" lon="-0.9161560">
        <ele>371.7</ele>
        <time>2020-12-31T14:17:00Z</time>
      </trkpt>
      <trkpt lat="41.5716300" lon="-0.9162060">
        <ele>371.8</ele>
        <time>2020-12-31T14:17:01Z</time>
      </trkpt>
      <trkpt lat="41.5716120" lon="-0.9162480">
        <ele>371.9</ele>
        <time>2020-12-31T14:17:02Z</time>
      </trkpt>
      <trkpt lat="41.5715760" lon="-0.9163170">
        <ele>372.0</ele>
        <time>2020-12-31T14:17:04Z</time>
      </trkpt>
      <trkpt lat="41.5715490" lon="-0.9163640">
        <ele>372.1</ele>
        <time>2020-12-31T14:17:05Z</time>
      </trkpt>
      <trkpt lat="41.5715150" lon="-0.9163990">
        <ele>372.3</ele>
        <time>2020-12-31T14:17:06Z</time>
      </trkpt>
      <trkpt lat="41.5714670" lon="-0.9164440">
        <ele>372.4</ele>
        <time>2020-12-31T14:17:08Z</time>
      </trkpt>
      <trkpt lat="41.5714290" lon="-0.9164770">
        <ele>372.6</ele>
        <time>2020-12-31T14:17:09Z</time>
      </trkpt>
      <trkpt lat="41.5713930" lon="-0.9165060">
        <ele>372.7</ele>
        <time>2020-12-31T14:17:10Z</time>
      </trkpt>
      <trkpt lat="41.5713520" lon="-0.9165390">
        <ele>372.8</ele>
        <time>2020-12-31T14:17:11Z</time>
      </trkpt>
      <trkpt lat="41.5713210" lon="-0.9165660">
        <ele>372.9</ele>
        <time>2020-12-31T14:17:12Z</time>
      </trkpt>
      <trkpt lat="41.5712600" lon="-0.9166150">
        <ele>373.2</ele>
        <time>2020-12-31T14:17:14Z</time>
      </trkpt>
      <trkpt lat="41.5712270" lon="-0.9166410">
        <ele>373.3</ele>
        <time>2020-12-31T14:17:15Z</time>
      </trkpt>
      <trkpt lat="41.5711750" lon="-0.9166870">
        <ele>373.6</ele>
        <time>2020-12-31T14:17:17Z</time>
      </trkpt>
      <trkpt lat="41.5711370" lon="-0.9167150">
        <ele>373.7</ele>
        <time>2020-12-31T14:17:18Z</time>
      </trkpt>
      <trkpt lat="41.5710970" lon="-0.9167430">
        <ele>373.9</ele>
        <time>2020-12-31T14:17:19Z</time>
      </trkpt>
      <trkpt lat="41.5710460" lon="-0.9167790">
        <ele>374.1</ele>
        <time>2020-12-31T14:17:20Z</time>
      </trkpt>
      <trkpt lat="41.5709990" lon="-0.9168130">
        <ele>374.3</ele>
        <time>2020-12-31T14:17:22Z</time>
      </trkpt>
      <trkpt lat="41.5709370" lon="-0.9168590">
        <ele>374.6</ele>
        <time>2020-12-31T14:17:24Z</time>
      </trkpt>
      <trkpt lat="41.5708990" lon="-0.9168870">
        <ele>374.7</ele>
        <time>2020-12-31T14:17:25Z</time>
      </trkpt>
      <trkpt lat="41.5708500" lon="-0.9169280">
        <ele>374.9</ele>
        <time>2020-12-31T14:17:27Z</time>
      </trkpt>
      <trkpt lat="41.5707980" lon="-0.9169610">
        <ele>375.1</ele>
        <time>2020-12-31T14:17:28Z</time>
      </trkpt>
      <trkpt lat="41.5707410" lon="-0.9169960">
        <ele>375.3</ele>
        <time>2020-12-31T14:17:30Z</time>
      </trkpt>
      <trkpt lat="41.5706920" lon="-0.9170310">
        <ele>375.5</ele>
        <time>2020-12-31T14:17:31Z</time>
      </trkpt>
      <trkpt lat="41.5706560" lon="-0.9170540">
        <ele>375.6</ele>
        <time>2020-12-31T14:17:32Z</time>
      </trkpt>
      <trkpt lat="41.5705880" lon="-0.9170970">
        <ele>375.8</ele>
        <time>2020-12-31T14:17:34Z</time>
      </trkpt>
      <trkpt lat="41.5705280" lon="-0.9171570">
        <ele>376.0</ele>
        <time>2020-12-31T14:17:36Z</time>
      </trkpt>
      <trkpt lat="41.5704960" lon="-0.9171900">
        <ele>376.1</ele>
        <time>2020-12-31T14:17:37Z</time>
      </trkpt>
      <trkpt lat="41.5704500" lon="-0.9172460">
        <ele>376.3</ele>
        <time>2020-12-31T14:17:39Z</time>
      </trkpt>
      <trkpt lat="41.5704180" lon="-0.9172970">
        <ele>376.4</ele>
        <time>2020-12-31T14:17:40Z</time>
      </trkpt>
      <trkpt lat="41.5703930" lon="-0.9173360">
        <ele>376.5</ele>
        <time>2020-12-31T14:17:41Z</time>
      </trkpt>
      <trkpt lat="41.5703450" lon="-0.9174150">
        <ele>376.7</ele>
        <time>2020-12-31T14:17:43Z</time>
      </trkpt>
      <trkpt lat="41.5703220" lon="-0.9174500">
        <ele>376.8</ele>
        <time>2020-12-31T14:17:44Z</time>
      </trkpt>
      <trkpt lat="41.5702980" lon="-0.9174890">
        <ele>376.9</ele>
        <time>2020-12-31T14:17:45Z</time>
      </trkpt>
      <trkpt lat="41.5702610" lon="-0.9175500">
        <ele>377.1</ele>
        <time>2020-12-31T14:17:47Z</time>
      </trkpt>
      <trkpt lat="41.5702340" lon="-0.9175900">
        <ele>377.2</ele>
        <time>2020-12-31T14:17:48Z</time>
      </trkpt>
      <trkpt lat="41.5702070" lon="-0.9176260">
        <ele>377.3</ele>
        <time>2020-12-31T14:17:49Z</time>
      </trkpt>
      <trkpt lat="41.5701600" lon="-0.9176770">
        <ele>377.5</ele>
        <time>2020-12-31T14:17:51Z</time>
      </trkpt>
      <trkpt lat="41.5701300" lon="-0.9177120">
        <ele>377.7</ele>
        <time>2020-12-31T14:17:52Z</time>
      </trkpt>
      <trkpt lat="41.5701040" lon="-0.9177440">
        <ele>377.8</ele>
        <time>2020-12-31T14:17:53Z</time>
      </trkpt>
      <trkpt lat="41.5700760" lon="-0.9177730">
        <ele>377.9</ele>
        <time>2020-12-31T14:17:54Z</time>
      </trkpt>
      <trkpt lat="41.5700460" lon="-0.9178020">
        <ele>378.0</ele>
        <time>2020-12-31T14:17:55Z</time>
      </trkpt>
      <trkpt lat="41.5700160" lon="-0.9178350">
        <ele>378.1</ele>
        <time>2020-12-31T14:17:56Z</time>
      </trkpt>
      <trkpt lat="41.5699890" lon="-0.9178640">
        <ele>378.3</ele>
        <time>2020-12-31T14:17:57Z</time>
      </trkpt>
      <trkpt lat="41.5699660" lon="-0.9178910">
        <ele>378.4</ele>
        <time>2020-12-31T14:17:58Z</time>
      </trkpt>
      <trkpt lat="41.5699420" lon="-0.9179200">
        <ele>378.5</ele>
        <time>2020-12-31T14:17:59Z</time>
      </trkpt>
      <trkpt lat="41.5698900" lon="-0.9179800">
        <ele>378.7</ele>
        <time>2020-12-31T14:18:01Z</time>
      </trkpt>
      <trkpt lat="41.5698380" lon="-0.9180310">
        <ele>378.9</ele>
        <time>2020-12-31T14:18:03Z</time>
      </trkpt>
      <trkpt lat="41.5698100" lon="-0.9180660">
        <ele>379.1</ele>
        <time>2020-12-31T14:18:04Z</time>
      </trkpt>
      <trkpt lat="41.5697730" lon="-0.9181150">
        <ele>379.3</ele>
        <time>2020-12-31T14:18:06Z</time>
      </trkpt>
      <trkpt lat="41.5697480" lon="-0.9181470">
        <ele>379.4</ele>
        <time>2020-12-31T14:18:07Z</time>
      </trkpt>
      <trkpt lat="41.5697220" lon="-0.9181830">
        <ele>379.5</ele>
        <time>2020-12-31T14:18:08Z</time>
      </trkpt>
      <trkpt lat="41.5696970" lon="-0.9182190">
        <ele>379.7</ele>
        <time>2020-12-31T14:18:09Z</time>
      </trkpt>
      <trkpt lat="41.5696590" lon="-0.9182820">
        <ele>379.9</ele>
        <time>2020-12-31T14:18:11Z</time>
      </trkpt>
      <trkpt lat="41.5696360" lon="-0.9183180">
        <ele>380.1</ele>
        <time>2020-12-31T14:18:12Z</time>
      </trkpt>
      <trkpt lat="41.5696090" lon="-0.9183650">
        <ele>380.3</ele>
        <time>2020-12-31T14:18:13Z</time>
      </trkpt>
      <trkpt lat="41.5695800" lon="-0.9184270">
        <ele>380.5</ele>
        <time>2020-12-31T14:18:15Z</time>
      </trkpt>
      <trkpt lat="41.5695660" lon="-0.9184860">
        <ele>380.7</ele>
        <time>2020-12-31T14:18:16Z</time>
      </trkpt>
      <trkpt lat="41.5695450" lon="-0.9185470">
        <ele>381.0</ele>
        <time>2020-12-31T14:18:18Z</time>
      </trkpt>
      <trkpt lat="41.5695200" lon="-0.9186110">
        <ele>381.3</ele>
        <time>2020-12-31T14:18:20Z</time>
      </trkpt>
      <trkpt lat="41.5695010" lon="-0.9186560">
        <ele>381.5</ele>
        <time>2020-12-31T14:18:21Z</time>
      </trkpt>
      <trkpt lat="41.5694880" lon="-0.9186940">
        <ele>381.6</ele>
        <time>2020-12-31T14:18:22Z</time>
      </trkpt>
      <trkpt lat="41.5694710" lon="-0.9187380">
        <ele>381.9</ele>
        <time>2020-12-31T14:18:23Z</time>
      </trkpt>
      <trkpt lat="41.5694580" lon="-0.9187720">
        <ele>382.0</ele>
        <time>2020-12-31T14:18:24Z</time>
      </trkpt>
      <trkpt lat="41.5694420" lon="-0.9188200">
        <ele>382.2</ele>
        <time>2020-12-31T14:18:25Z</time>
      </trkpt>
      <trkpt lat="41.5694250" lon="-0.9188640">
        <ele>382.5</ele>
        <time>2020-12-31T14:18:27Z</time>
      </trkpt>
      <trkpt lat="41.5694030" lon="-0.9189090">
        <ele>382.7</ele>
        <time>2020-12-31T14:18:28Z</time>
      </trkpt>
      <trkpt lat="41.5693850" lon="-0.9189500">
        <ele>382.9</ele>
        <time>2020-12-31T14:18:29Z</time>
      </trkpt>
      <trkpt lat="41.5693640" lon="-0.9189950">
        <ele>383.1</ele>
        <time>2020-12-31T14:18:30Z</time>
      </trkpt>
      <trkpt lat="41.5693480" lon="-0.9190350">
        <ele>383.3</ele>
        <time>2020-12-31T14:18:31Z</time>
      </trkpt>
      <trkpt lat="41.5693330" lon="-0.9190880">
        <ele>383.5</ele>
        <time>2020-12-31T14:18:33Z</time>
      </trkpt>
      <trkpt lat="41.5693330" lon="-0.9191350">
        <ele>383.7</ele>
        <time>2020-12-31T14:18:34Z</time>
      </trkpt>
      <trkpt lat="41.5693330" lon="-0.9191730">
        <ele>383.9</ele>
        <time>2020-12-31T14:18:35Z</time>
      </trkpt>
      <trkpt lat="41.5693250" lon="-0.9192200">
        <ele>384.1</ele>
        <time>2020-12-31T14:18:36Z</time>
      </trkpt>
      <trkpt lat="41.5693100" lon="-0.9192820">
        <ele>384.3</ele>
        <time>2020-12-31T14:18:38Z</time>
      </trkpt>
      <trkpt lat="41.5693030" lon="-0.9193250">
        <ele>384.5</ele>
        <time>2020-12-31T14:18:39Z</time>
      </trkpt>
      <trkpt lat="41.5693040" lon="-0.9193960">
        <ele>384.7</ele>
        <time>2020-12-31T14:18:41Z</time>
      </trkpt>
      <trkpt lat="41.5693060" lon="-0.9194420">
        <ele>384.9</ele>
        <time>2020-12-31T14:18:42Z</time>
      </trkpt>
      <trkpt lat="41.5693130" lon="-0.9194970">
        <ele>385.1</ele>
        <time>2020-12-31T14:18:44Z</time>
      </trkpt>
      <trkpt lat="41.5693200" lon="-0.9195440">
        <ele>385.3</ele>
        <time>2020-12-31T14:18:45Z</time>
      </trkpt>
      <trkpt lat="41.5693280" lon="-0.9195990">
        <ele>385.5</ele>
        <time>2020-12-31T14:18:46Z</time>
      </trkpt>
      <trkpt lat="41.5693380" lon="-0.9196710">
        <ele>385.8</ele>
        <time>2020-12-31T14:18:48Z</time>
      </trkpt>
      <trkpt lat="41.5693410" lon="-0.9197220">
        <ele>386.0</ele>
        <time>2020-12-31T14:18:49Z</time>
      </trkpt>
      <trkpt lat="41.5693490" lon="-0.9197790">
        <ele>386.2</ele>
        <time>2020-12-31T14:18:50Z</time>
      </trkpt>
      <trkpt lat="41.5693540" lon="-0.9198260">
        <ele>386.4</ele>
        <time>2020-12-31T14:18:51Z</time>
      </trkpt>
      <trkpt lat="41.5693530" lon="-0.9198890">
        <ele>386.5</ele>
        <time>2020-12-31T14:18:53Z</time>
      </trkpt>
      <trkpt lat="41.5693440" lon="-0.9199350">
        <ele>386.7</ele>
        <time>2020-12-31T14:18:54Z</time>
      </trkpt>
      <trkpt lat="41.5693310" lon="-0.9199660">
        <ele>386.7</ele>
        <time>2020-12-31T14:18:55Z</time>
      </trkpt>
      <trkpt lat="41.5693040" lon="-0.9199990">
        <ele>386.8</ele>
        <time>2020-12-31T14:18:57Z</time>
      </trkpt>
      <trkpt lat="41.5692690" lon="-0.9200290">
        <ele>386.9</ele>
        <time>2020-12-31T14:18:58Z</time>
      </trkpt>
      <trkpt lat="41.5692560" lon="-0.9200390">
        <ele>387.0</ele>
        <time>2020-12-31T14:18:59Z</time>
      </trkpt>
      <trkpt lat="41.5692260" lon="-0.9200530">
        <ele>387.0</ele>
        <time>2020-12-31T14:19:00Z</time>
      </trkpt>
      <trkpt lat="41.5691870" lon="-0.9200710">
        <ele>387.1</ele>
        <time>2020-12-31T14:19:01Z</time>
      </trkpt>
      <trkpt lat="41.5691540" lon="-0.9200880">
        <ele>387.2</ele>
        <time>2020-12-31T14:19:02Z</time>
      </trkpt>
      <trkpt lat="41.5691210" lon="-0.9200990">
        <ele>387.2</ele>
        <time>2020-12-31T14:19:03Z</time>
      </trkpt>
      <trkpt lat="41.5690870" lon="-0.9201010">
        <ele>387.3</ele>
        <time>2020-12-31T14:19:04Z</time>
      </trkpt>
      <trkpt lat="41.5690310" lon="-0.9201140">
        <ele>387.4</ele>
        <time>2020-12-31T14:19:06Z</time>
      </trkpt>
      <trkpt lat="41.5689720" lon="-0.9201060">
        <ele>387.5</ele>
        <time>2020-12-31T14:19:08Z</time>
      </trkpt>
      <trkpt lat="41.5689250" lon="-0.9201200">
        <ele>387.6</ele>
        <time>2020-12-31T14:19:09Z</time>
      </trkpt>
      <trkpt lat="41.5688880" lon="-0.9201500">
        <ele>387.7</ele>
        <time>2020-12-31T14:19:11Z</time>
      </trkpt>
      <trkpt lat="41.5688510" lon="-0.9201820">
        <ele>387.7</ele>
        <time>2020-12-31T14:19:12Z</time>
      </trkpt>
      <trkpt lat="41.5688200" lon="-0.9202080">
        <ele>387.8</ele>
        <time>2020-12-31T14:19:13Z</time>
      </trkpt>
      <trkpt lat="41.5687970" lon="-0.9202370">
        <ele>387.9</ele>
        <time>2020-12-31T14:19:14Z</time>
      </trkpt>
      <trkpt lat="41.5687470" lon="-0.9202930">
        <ele>388.0</ele>
        <time>2020-12-31T14:19:16Z</time>
      </trkpt>
      <trkpt lat="41.5687020" lon="-0.9203410">
        <ele>388.1</ele>
        <time>2020-12-31T14:19:17Z</time>
      </trkpt>
      <trkpt lat="41.5686600" lon="-0.9203870">
        <ele>388.2</ele>
        <time>2020-12-31T14:19:19Z</time>
      </trkpt>
      <trkpt lat="41.5686250" lon="-0.9204270">
        <ele>388.4</ele>
        <time>2020-12-31T14:19:20Z</time>
      </trkpt>
      <trkpt lat="41.5685980" lon="-0.9204600">
        <ele>388.5</ele>
        <time>2020-12-31T14:19:22Z</time>
      </trkpt>
      <trkpt lat="41.5685700" lon="-0.9204960">
        <ele>388.6</ele>
        <time>2020-12-31T14:19:23Z</time>
      </trkpt>
      <trkpt lat="41.5685440" lon="-0.9205340">
        <ele>388.7</ele>
        <time>2020-12-31T14:19:24Z</time>
      </trkpt>
      <trkpt lat="41.5685130" lon="-0.9205710">
        <ele>388.8</ele>
        <time>2020-12-31T14:19:25Z</time>
      </trkpt>
      <trkpt lat="41.5684800" lon="-0.9206040">
        <ele>389.0</ele>
        <time>2020-12-31T14:19:26Z</time>
      </trkpt>
      <trkpt lat="41.5684510" lon="-0.9206280">
        <ele>389.1</ele>
        <time>2020-12-31T14:19:28Z</time>
      </trkpt>
      <trkpt lat="41.5684210" lon="-0.9206530">
        <ele>389.2</ele>
        <time>2020-12-31T14:19:29Z</time>
      </trkpt>
      <trkpt lat="41.5683920" lon="-0.9206810">
        <ele>389.3</ele>
        <time>2020-12-31T14:19:30Z</time>
      </trkpt>
      <trkpt lat="41.5683640" lon="-0.9207040">
        <ele>389.5</ele>
        <time>2020-12-31T14:19:31Z</time>
      </trkpt>
      <trkpt lat="41.5683250" lon="-0.9207350">
        <ele>389.6</ele>
        <time>2020-12-31T14:19:32Z</time>
      </trkpt>
      <trkpt lat="41.5682780" lon="-0.9207650">
        <ele>389.8</ele>
        <time>2020-12-31T14:19:34Z</time>
      </trkpt>
      <trkpt lat="41.5682460" lon="-0.9207850">
        <ele>389.9</ele>
        <time>2020-12-31T14:19:35Z</time>
      </trkpt>
      <trkpt lat="41.5682110" lon="-0.9208100">
        <ele>390.1</ele>
        <time>2020-12-31T14:19:36Z</time>
      </trkpt>
      <trkpt lat="41.5681690" lon="-0.9208370">
        <ele>390.3</ele>
        <time>2020-12-31T14:19:38Z</time>
      </trkpt>
      <trkpt lat="41.5681330" lon="-0.9208570">
        <ele>390.5</ele>
        <time>2020-12-31T14:19:39Z</time>
      </trkpt>
      <trkpt lat="41.5681000" lon="-0.9208750">
        <ele>390.6</ele>
        <time>2020-12-31T14:19:40Z</time>
      </trkpt>
      <trkpt lat="41.5680620" lon="-0.9208960">
        <ele>390.8</ele>
        <time>2020-12-31T14:19:41Z</time>
      </trkpt>
      <trkpt lat="41.5680080" lon="-0.9209250">
        <ele>391.0</ele>
        <time>2020-12-31T14:19:43Z</time>
      </trkpt>
      <trkpt lat="41.5679710" lon="-0.9209400">
        <ele>391.2</ele>
        <time>2020-12-31T14:19:44Z</time>
      </trkpt>
      <trkpt lat="41.5679350" lon="-0.9209550">
        <ele>391.4</ele>
        <time>2020-12-31T14:19:45Z</time>
      </trkpt>
      <trkpt lat="41.5678980" lon="-0.9209660">
        <ele>391.5</ele>
        <time>2020-12-31T14:19:46Z</time>
      </trkpt>
      <trkpt lat="41.5678580" lon="-0.9209730">
        <ele>391.7</ele>
        <time>2020-12-31T14:19:47Z</time>
      </trkpt>
      <trkpt lat="41.5678190" lon="-0.9209820">
        <ele>391.8</ele>
        <time>2020-12-31T14:19:48Z</time>
      </trkpt>
      <trkpt lat="41.5677720" lon="-0.9209920">
        <ele>392.0</ele>
        <time>2020-12-31T14:19:50Z</time>
      </trkpt>
      <trkpt lat="41.5677350" lon="-0.9209950">
        <ele>392.1</ele>
        <time>2020-12-31T14:19:51Z</time>
      </trkpt>
      <trkpt lat="41.5676960" lon="-0.9209990">
        <ele>392.2</ele>
        <time>2020-12-31T14:19:52Z</time>
      </trkpt>
      <trkpt lat="41.5676650" lon="-0.9210040">
        <ele>392.3</ele>
        <time>2020-12-31T14:19:53Z</time>
      </trkpt>
      <trkpt lat="41.5676320" lon="-0.9210020">
        <ele>392.4</ele>
        <time>2020-12-31T14:19:54Z</time>
      </trkpt>
      <trkpt lat="41.5676000" lon="-0.9210040">
        <ele>392.5</ele>
        <time>2020-12-31T14:19:55Z</time>
      </trkpt>
      <trkpt lat="41.5675540" lon="-0.9210060">
        <ele>392.7</ele>
        <time>2020-12-31T14:19:56Z</time>
      </trkpt>
      <trkpt lat="41.5675180" lon="-0.9210110">
        <ele>392.8</ele>
        <time>2020-12-31T14:19:58Z</time>
      </trkpt>
      <trkpt lat="41.5674820" lon="-0.9210170">
        <ele>393.0</ele>
        <time>2020-12-31T14:19:59Z</time>
      </trkpt>
      <trkpt lat="41.5674470" lon="-0.9210210">
        <ele>393.1</ele>
        <time>2020-12-31T14:20:00Z</time>
      </trkpt>
      <trkpt lat="41.5674080" lon="-0.9210220">
        <ele>393.2</ele>
        <time>2020-12-31T14:20:01Z</time>
      </trkpt>
      <trkpt lat="41.5673590" lon="-0.9210230">
        <ele>393.4</ele>
        <time>2020-12-31T14:20:02Z</time>
      </trkpt>
      <trkpt lat="41.5673240" lon="-0.9210250">
        <ele>393.5</ele>
        <time>2020-12-31T14:20:04Z</time>
      </trkpt>
      <trkpt lat="41.5672810" lon="-0.9210240">
        <ele>393.7</ele>
        <time>2020-12-31T14:20:05Z</time>
      </trkpt>
      <trkpt lat="41.5672300" lon="-0.9210200">
        <ele>393.9</ele>
        <time>2020-12-31T14:20:07Z</time>
      </trkpt>
      <trkpt lat="41.5671870" lon="-0.9210110">
        <ele>394.0</ele>
        <time>2020-12-31T14:20:08Z</time>
      </trkpt>
      <trkpt lat="41.5671380" lon="-0.9210110">
        <ele>394.2</ele>
        <time>2020-12-31T14:20:10Z</time>
      </trkpt>
      <trkpt lat="41.5670990" lon="-0.9210100">
        <ele>394.3</ele>
        <time>2020-12-31T14:20:11Z</time>
      </trkpt>
      <trkpt lat="41.5670590" lon="-0.9210110">
        <ele>394.4</ele>
        <time>2020-12-31T14:20:12Z</time>
      </trkpt>
      <trkpt lat="41.5670230" lon="-0.9210100">
        <ele>394.6</ele>
        <time>2020-12-31T14:20:13Z</time>
      </trkpt>
      <trkpt lat="41.5669680" lon="-0.9210110">
        <ele>394.7</ele>
        <time>2020-12-31T14:20:15Z</time>
      </trkpt>
      <trkpt lat="41.5669280" lon="-0.9210150">
        <ele>394.9</ele>
        <time>2020-12-31T14:20:16Z</time>
      </trkpt>
      <trkpt lat="41.5668860" lon="-0.9210160">
        <ele>395.0</ele>
        <time>2020-12-31T14:20:17Z</time>
      </trkpt>
      <trkpt lat="41.5668500" lon="-0.9210150">
        <ele>395.2</ele>
        <time>2020-12-31T14:20:18Z</time>
      </trkpt>
      <trkpt lat="41.5668110" lon="-0.9210110">
        <ele>395.3</ele>
        <time>2020-12-31T14:20:19Z</time>
      </trkpt>
      <trkpt lat="41.5667720" lon="-0.9210110">
        <ele>395.5</ele>
        <time>2020-12-31T14:20:21Z</time>
      </trkpt>
      <trkpt lat="41.5667360" lon="-0.9210100">
        <ele>395.7</ele>
        <time>2020-12-31T14:20:22Z</time>
      </trkpt>
      <trkpt lat="41.5667030" lon="-0.9210090">
        <ele>395.8</ele>
        <time>2020-12-31T14:20:23Z</time>
      </trkpt>
      <trkpt lat="41.5666690" lon="-0.9210100">
        <ele>396.0</ele>
        <time>2020-12-31T14:20:24Z</time>
      </trkpt>
      <trkpt lat="41.5666350" lon="-0.9210090">
        <ele>396.2</ele>
        <time>2020-12-31T14:20:25Z</time>
      </trkpt>
      <trkpt lat="41.5665820" lon="-0.9210080">
        <ele>396.5</ele>
        <time>2020-12-31T14:20:27Z</time>
      </trkpt>
      <trkpt lat="41.5665350" lon="-0.9210070">
        <ele>396.7</ele>
        <time>2020-12-31T14:20:28Z</time>
      </trkpt>
      <trkpt lat="41.5664720" lon="-0.9210040">
        <ele>397.1</ele>
        <time>2020-12-31T14:20:30Z</time>
      </trkpt>
      <trkpt lat="41.5664180" lon="-0.9210090">
        <ele>397.4</ele>
        <time>2020-12-31T14:20:32Z</time>
      </trkpt>
      <trkpt lat="41.5663660" lon="-0.9210110">
        <ele>397.7</ele>
        <time>2020-12-31T14:20:33Z</time>
      </trkpt>
      <trkpt lat="41.5663320" lon="-0.9210070">
        <ele>397.9</ele>
        <time>2020-12-31T14:20:34Z</time>
      </trkpt>
      <trkpt lat="41.5662930" lon="-0.9210060">
        <ele>398.0</ele>
        <time>2020-12-31T14:20:36Z</time>
      </trkpt>
      <trkpt lat="41.5662560" lon="-0.9210080">
        <ele>398.2</ele>
        <time>2020-12-31T14:20:37Z</time>
      </trkpt>
      <trkpt lat="41.5662210" lon="-0.9210090">
        <ele>398.3</ele>
        <time>2020-12-31T14:20:38Z</time>
      </trkpt>
      <trkpt lat="41.5661860" lon="-0.9210100">
        <ele>398.5</ele>
        <time>2020-12-31T14:20:39Z</time>
      </trkpt>
      <trkpt lat="41.5661510" lon="-0.9210110">
        <ele>398.6</ele>
        <time>2020-12-31T14:20:40Z</time>
      </trkpt>
      <trkpt lat="41.5661140" lon="-0.9210100">
        <ele>398.8</ele>
        <time>2020-12-31T14:20:41Z</time>
      </trkpt>
      <trkpt lat="41.5660660" lon="-0.9210070">
        <ele>398.9</ele>
        <time>2020-12-31T14:20:43Z</time>
      </trkpt>
      <trkpt lat="41.5660180" lon="-0.9210020">
        <ele>399.1</ele>
        <time>2020-12-31T14:20:44Z</time>
      </trkpt>
      <trkpt lat="41.5659830" lon="-0.9209970">
        <ele>399.3</ele>
        <time>2020-12-31T14:20:45Z</time>
      </trkpt>
      <trkpt lat="41.5659440" lon="-0.9209890">
        <ele>399.4</ele>
        <time>2020-12-31T14:20:46Z</time>
      </trkpt>
      <trkpt lat="41.5659090" lon="-0.9209870">
        <ele>399.6</ele>
        <time>2020-12-31T14:20:48Z</time>
      </trkpt>
      <trkpt lat="41.5658680" lon="-0.9209830">
        <ele>399.7</ele>
        <time>2020-12-31T14:20:49Z</time>
      </trkpt>
      <trkpt lat="41.5658210" lon="-0.9209810">
        <ele>399.9</ele>
        <time>2020-12-31T14:20:50Z</time>
      </trkpt>
      <trkpt lat="41.5657670" lon="-0.9209870">
        <ele>400.2</ele>
        <time>2020-12-31T14:20:52Z</time>
      </trkpt>
      <trkpt lat="41.5657380" lon="-0.9209910">
        <ele>400.3</ele>
        <time>2020-12-31T14:20:54Z</time>
      </trkpt>
      <trkpt lat="41.5657290" lon="-0.9209910">
        <ele>400.3</ele>
        <time>2020-12-31T14:20:55Z</time>
      </trkpt>
      <trkpt lat="41.5656960" lon="-0.9209900">
        <ele>400.5</ele>
        <time>2020-12-31T14:20:56Z</time>
      </trkpt>
      <trkpt lat="41.5656650" lon="-0.9209960">
        <ele>400.6</ele>
        <time>2020-12-31T14:20:57Z</time>
      </trkpt>
      <trkpt lat="41.5656080" lon="-0.9210080">
        <ele>400.9</ele>
        <time>2020-12-31T14:20:59Z</time>
      </trkpt>
      <trkpt lat="41.5655680" lon="-0.9210200">
        <ele>401.0</ele>
        <time>2020-12-31T14:21:00Z</time>
      </trkpt>
      <trkpt lat="41.5655290" lon="-0.9210300">
        <ele>401.2</ele>
        <time>2020-12-31T14:21:01Z</time>
      </trkpt>
      <trkpt lat="41.5654970" lon="-0.9210390">
        <ele>401.3</ele>
        <time>2020-12-31T14:21:02Z</time>
      </trkpt>
      <trkpt lat="41.5654630" lon="-0.9210490">
        <ele>401.4</ele>
        <time>2020-12-31T14:21:03Z</time>
      </trkpt>
      <trkpt lat="41.5654130" lon="-0.9210620">
        <ele>401.6</ele>
        <time>2020-12-31T14:21:04Z</time>
      </trkpt>
      <trkpt lat="41.5653650" lon="-0.9210680">
        <ele>401.8</ele>
        <time>2020-12-31T14:21:06Z</time>
      </trkpt>
      <trkpt lat="41.5653250" lon="-0.9210780">
        <ele>402.0</ele>
        <time>2020-12-31T14:21:07Z</time>
      </trkpt>
      <trkpt lat="41.5652850" lon="-0.9210900">
        <ele>402.3</ele>
        <time>2020-12-31T14:21:08Z</time>
      </trkpt>
      <trkpt lat="41.5652180" lon="-0.9211050">
        <ele>402.7</ele>
        <time>2020-12-31T14:21:10Z</time>
      </trkpt>
      <trkpt lat="41.5651860" lon="-0.9211130">
        <ele>402.8</ele>
        <time>2020-12-31T14:21:11Z</time>
      </trkpt>
      <trkpt lat="41.5651340" lon="-0.9211260">
        <ele>403.1</ele>
        <time>2020-12-31T14:21:12Z</time>
      </trkpt>
      <trkpt lat="41.5650790" lon="-0.9211340">
        <ele>403.3</ele>
        <time>2020-12-31T14:21:14Z</time>
      </trkpt>
      <trkpt lat="41.5650380" lon="-0.9211360">
        <ele>403.5</ele>
        <time>2020-12-31T14:21:15Z</time>
      </trkpt>
      <trkpt lat="41.5649760" lon="-0.9211410">
        <ele>403.6</ele>
        <time>2020-12-31T14:21:17Z</time>
      </trkpt>
      <trkpt lat="41.5649210" lon="-0.9211430">
        <ele>403.8</ele>
        <time>2020-12-31T14:21:18Z</time>
      </trkpt>
      <trkpt lat="41.5648760" lon="-0.9211480">
        <ele>403.8</ele>
        <time>2020-12-31T14:21:20Z</time>
      </trkpt>
      <trkpt lat="41.5648300" lon="-0.9211510">
        <ele>403.9</ele>
        <time>2020-12-31T14:21:21Z</time>
      </trkpt>
      <trkpt lat="41.5647670" lon="-0.9211500">
        <ele>404.0</ele>
        <time>2020-12-31T14:21:23Z</time>
      </trkpt>
      <trkpt lat="41.5647230" lon="-0.9211440">
        <ele>404.0</ele>
        <time>2020-12-31T14:21:24Z</time>
      </trkpt>
      <trkpt lat="41.5646620" lon="-0.9211240">
        <ele>404.1</ele>
        <time>2020-12-31T14:21:26Z</time>
      </trkpt>
      <trkpt lat="41.5646100" lon="-0.9210970">
        <ele>404.1</ele>
        <time>2020-12-31T14:21:27Z</time>
      </trkpt>
      <trkpt lat="41.5645570" lon="-0.9210560">
        <ele>404.1</ele>
        <time>2020-12-31T14:21:28Z</time>
      </trkpt>
      <trkpt lat="41.5645010" lon="-0.9210020">
        <ele>404.2</ele>
        <time>2020-12-31T14:21:30Z</time>
      </trkpt>
      <trkpt lat="41.5644690" lon="-0.9209640">
        <ele>404.2</ele>
        <time>2020-12-31T14:21:31Z</time>
      </trkpt>
      <trkpt lat="41.5644190" lon="-0.9209050">
        <ele>404.2</ele>
        <time>2020-12-31T14:21:32Z</time>
      </trkpt>
      <trkpt lat="41.5643760" lon="-0.9208490">
        <ele>404.2</ele>
        <time>2020-12-31T14:21:34Z</time>
      </trkpt>
      <trkpt lat="41.5643260" lon="-0.9207900">
        <ele>404.2</ele>
        <time>2020-12-31T14:21:35Z</time>
      </trkpt>
      <trkpt lat="41.5642900" lon="-0.9207500">
        <ele>404.2</ele>
        <time>2020-12-31T14:21:36Z</time>
      </trkpt>
      <trkpt lat="41.5642520" lon="-0.9207160">
        <ele>404.2</ele>
        <time>2020-12-31T14:21:37Z</time>
      </trkpt>
      <trkpt lat="41.5642050" lon="-0.9206770">
        <ele>404.3</ele>
        <time>2020-12-31T14:21:39Z</time>
      </trkpt>
      <trkpt lat="41.5641540" lon="-0.9206290">
        <ele>404.3</ele>
        <time>2020-12-31T14:21:40Z</time>
      </trkpt>
      <trkpt lat="41.5641170" lon="-0.9205920">
        <ele>404.4</ele>
        <time>2020-12-31T14:21:41Z</time>
      </trkpt>
      <trkpt lat="41.5640620" lon="-0.9205770">
        <ele>404.4</ele>
        <time>2020-12-31T14:21:43Z</time>
      </trkpt>
      <trkpt lat="41.5640160" lon="-0.9205250">
        <ele>404.5</ele>
        <time>2020-12-31T14:21:44Z</time>
      </trkpt>
      <trkpt lat="41.5639720" lon="-0.9204820">
        <ele>404.5</ele>
        <time>2020-12-31T14:21:45Z</time>
      </trkpt>
      <trkpt lat="41.5639180" lon="-0.9204400">
        <ele>404.6</ele>
        <time>2020-12-31T14:21:46Z</time>
      </trkpt>
      <trkpt lat="41.5638590" lon="-0.9203960">
        <ele>404.7</ele>
        <time>2020-12-31T14:21:48Z</time>
      </trkpt>
      <trkpt lat="41.5637970" lon="-0.9203540">
        <ele>404.7</ele>
        <time>2020-12-31T14:21:50Z</time>
      </trkpt>
      <trkpt lat="41.5637480" lon="-0.9203080">
        <ele>404.7</ele>
        <time>2020-12-31T14:21:51Z</time>
      </trkpt>
      <trkpt lat="41.5637180" lon="-0.9202600">
        <ele>404.7</ele>
        <time>2020-12-31T14:21:52Z</time>
      </trkpt>
      <trkpt lat="41.5636890" lon="-0.9201900">
        <ele>404.7</ele>
        <time>2020-12-31T14:21:53Z</time>
      </trkpt>
      <trkpt lat="41.5636730" lon="-0.9201190">
        <ele>404.7</ele>
        <time>2020-12-31T14:21:55Z</time>
      </trkpt>
      <trkpt lat="41.5636620" lon="-0.9200490">
        <ele>404.7</ele>
        <time>2020-12-31T14:21:56Z</time>
      </trkpt>
      <trkpt lat="41.5636600" lon="-0.9199540">
        <ele>404.6</ele>
        <time>2020-12-31T14:21:57Z</time>
      </trkpt>
      <trkpt lat="41.5636540" lon="-0.9198810">
        <ele>404.6</ele>
        <time>2020-12-31T14:21:58Z</time>
      </trkpt>
      <trkpt lat="41.5636410" lon="-0.9198090">
        <ele>404.6</ele>
        <time>2020-12-31T14:21:59Z</time>
      </trkpt>
      <trkpt lat="41.5635940" lon="-0.9196720">
        <ele>404.5</ele>
        <time>2020-12-31T14:22:01Z</time>
      </trkpt>
      <trkpt lat="41.5635370" lon="-0.9195500">
        <ele>404.5</ele>
        <time>2020-12-31T14:22:03Z</time>
      </trkpt>
      <trkpt lat="41.5634660" lon="-0.9194710">
        <ele>404.4</ele>
        <time>2020-12-31T14:22:05Z</time>
      </trkpt>
      <trkpt lat="41.5633910" lon="-0.9193540">
        <ele>404.4</ele>
        <time>2020-12-31T14:22:07Z</time>
      </trkpt>
      <trkpt lat="41.5633440" lon="-0.9192870">
        <ele>404.4</ele>
        <time>2020-12-31T14:22:09Z</time>
      </trkpt>
      <trkpt lat="41.5632700" lon="-0.9191750">
        <ele>404.3</ele>
        <time>2020-12-31T14:22:10Z</time>
      </trkpt>
      <trkpt lat="41.5632220" lon="-0.9191190">
        <ele>404.3</ele>
        <time>2020-12-31T14:22:11Z</time>
      </trkpt>
      <trkpt lat="41.5631310" lon="-0.9190290">
        <ele>404.3</ele>
        <time>2020-12-31T14:22:13Z</time>
      </trkpt>
      <trkpt lat="41.5630770" lon="-0.9189930">
        <ele>404.4</ele>
        <time>2020-12-31T14:22:14Z</time>
      </trkpt>
      <trkpt lat="41.5629810" lon="-0.9189240">
        <ele>404.5</ele>
        <time>2020-12-31T14:22:16Z</time>
      </trkpt>
      <trkpt lat="41.5629350" lon="-0.9188860">
        <ele>404.5</ele>
        <time>2020-12-31T14:22:17Z</time>
      </trkpt>
      <trkpt lat="41.5628400" lon="-0.9188120">
        <ele>404.6</ele>
        <time>2020-12-31T14:22:19Z</time>
      </trkpt>
      <trkpt lat="41.5627440" lon="-0.9187390">
        <ele>404.7</ele>
        <time>2020-12-31T14:22:21Z</time>
      </trkpt>
      <trkpt lat="41.5626500" lon="-0.9186680">
        <ele>404.8</ele>
        <time>2020-12-31T14:22:23Z</time>
      </trkpt>
      <trkpt lat="41.5625530" lon="-0.9186130">
        <ele>404.9</ele>
        <time>2020-12-31T14:22:25Z</time>
      </trkpt>
      <trkpt lat="41.5624510" lon="-0.9185750">
        <ele>405.0</ele>
        <time>2020-12-31T14:22:27Z</time>
      </trkpt>
      <trkpt lat="41.5623480" lon="-0.9185480">
        <ele>405.1</ele>
        <time>2020-12-31T14:22:29Z</time>
      </trkpt>
      <trkpt lat="41.5622420" lon="-0.9185420">
        <ele>405.2</ele>
        <time>2020-12-31T14:22:31Z</time>
      </trkpt>
      <trkpt lat="41.5621350" lon="-0.9185510">
        <ele>405.4</ele>
        <time>2020-12-31T14:22:33Z</time>
      </trkpt>
      <trkpt lat="41.5620290" lon="-0.9185740">
        <ele>405.5</ele>
        <time>2020-12-31T14:22:35Z</time>
      </trkpt>
      <trkpt lat="41.5619800" lon="-0.9185870">
        <ele>405.6</ele>
        <time>2020-12-31T14:22:36Z</time>
      </trkpt>
      <trkpt lat="41.5619300" lon="-0.9185960">
        <ele>405.6</ele>
        <time>2020-12-31T14:22:37Z</time>
      </trkpt>
      <trkpt lat="41.5618310" lon="-0.9186280">
        <ele>405.7</ele>
        <time>2020-12-31T14:22:39Z</time>
      </trkpt>
      <trkpt lat="41.5617820" lon="-0.9186470">
        <ele>405.8</ele>
        <time>2020-12-31T14:22:40Z</time>
      </trkpt>
      <trkpt lat="41.5616850" lon="-0.9186940">
        <ele>405.9</ele>
        <time>2020-12-31T14:22:42Z</time>
      </trkpt>
      <trkpt lat="41.5616360" lon="-0.9187180">
        <ele>406.0</ele>
        <time>2020-12-31T14:22:43Z</time>
      </trkpt>
      <trkpt lat="41.5615440" lon="-0.9187630">
        <ele>406.1</ele>
        <time>2020-12-31T14:22:45Z</time>
      </trkpt>
      <trkpt lat="41.5615000" lon="-0.9187860">
        <ele>406.2</ele>
        <time>2020-12-31T14:22:46Z</time>
      </trkpt>
      <trkpt lat="41.5614110" lon="-0.9188320">
        <ele>406.3</ele>
        <time>2020-12-31T14:22:48Z</time>
      </trkpt>
      <trkpt lat="41.5613680" lon="-0.9188580">
        <ele>406.4</ele>
        <time>2020-12-31T14:22:49Z</time>
      </trkpt>
      <trkpt lat="41.5612840" lon="-0.9189090">
        <ele>406.5</ele>
        <time>2020-12-31T14:22:51Z</time>
      </trkpt>
      <trkpt lat="41.5612050" lon="-0.9189660">
        <ele>406.6</ele>
        <time>2020-12-31T14:22:53Z</time>
      </trkpt>
      <trkpt lat="41.5611620" lon="-0.9189940">
        <ele>406.7</ele>
        <time>2020-12-31T14:22:54Z</time>
      </trkpt>
      <trkpt lat="41.5610800" lon="-0.9190490">
        <ele>406.8</ele>
        <time>2020-12-31T14:22:56Z</time>
      </trkpt>
      <trkpt lat="41.5610020" lon="-0.9191180">
        <ele>406.9</ele>
        <time>2020-12-31T14:22:58Z</time>
      </trkpt>
      <trkpt lat="41.5609290" lon="-0.9191910">
        <ele>406.9</ele>
        <time>2020-12-31T14:23:00Z</time>
      </trkpt>
      <trkpt lat="41.5608540" lon="-0.9192720">
        <ele>406.9</ele>
        <time>2020-12-31T14:23:02Z</time>
      </trkpt>
      <trkpt lat="41.5607870" lon="-0.9193710">
        <ele>406.9</ele>
        <time>2020-12-31T14:23:04Z</time>
      </trkpt>
      <trkpt lat="41.5607620" lon="-0.9194210">
        <ele>407.0</ele>
        <time>2020-12-31T14:23:05Z</time>
      </trkpt>
      <trkpt lat="41.5607150" lon="-0.9195250">
        <ele>407.0</ele>
        <time>2020-12-31T14:23:07Z</time>
      </trkpt>
      <trkpt lat="41.5606610" lon="-0.9196310">
        <ele>407.1</ele>
        <time>2020-12-31T14:23:09Z</time>
      </trkpt>
      <trkpt lat="41.5606340" lon="-0.9196800">
        <ele>407.2</ele>
        <time>2020-12-31T14:23:10Z</time>
      </trkpt>
      <trkpt lat="41.5605820" lon="-0.9197600">
        <ele>407.2</ele>
        <time>2020-12-31T14:23:12Z</time>
      </trkpt>
      <trkpt lat="41.5605460" lon="-0.9198050">
        <ele>407.2</ele>
        <time>2020-12-31T14:23:13Z</time>
      </trkpt>
      <trkpt lat="41.5604730" lon="-0.9198890">
        <ele>407.0</ele>
        <time>2020-12-31T14:23:15Z</time>
      </trkpt>
      <trkpt lat="41.5604310" lon="-0.9199370">
        <ele>407.0</ele>
        <time>2020-12-31T14:23:16Z</time>
      </trkpt>
      <trkpt lat="41.5603480" lon="-0.9200350">
        <ele>406.8</ele>
        <time>2020-12-31T14:23:18Z</time>
      </trkpt>
      <trkpt lat="41.5603070" lon="-0.9200850">
        <ele>406.8</ele>
        <time>2020-12-31T14:23:19Z</time>
      </trkpt>
      <trkpt lat="41.5602670" lon="-0.9201320">
        <ele>406.7</ele>
        <time>2020-12-31T14:23:20Z</time>
      </trkpt>
      <trkpt lat="41.5601790" lon="-0.9202100">
        <ele>406.7</ele>
        <time>2020-12-31T14:23:22Z</time>
      </trkpt>
      <trkpt lat="41.5600770" lon="-0.9202640">
        <ele>406.8</ele>
        <time>2020-12-31T14:23:24Z</time>
      </trkpt>
      <trkpt lat="41.5599730" lon="-0.9202920">
        <ele>407.0</ele>
        <time>2020-12-31T14:23:26Z</time>
      </trkpt>
      <trkpt lat="41.5598860" lon="-0.9203410">
        <ele>407.2</ele>
        <time>2020-12-31T14:23:28Z</time>
      </trkpt>
      <trkpt lat="41.5598470" lon="-0.9203650">
        <ele>407.2</ele>
        <time>2020-12-31T14:23:29Z</time>
      </trkpt>
      <trkpt lat="41.5598150" lon="-0.9203840">
        <ele>407.3</ele>
        <time>2020-12-31T14:23:30Z</time>
      </trkpt>
      <trkpt lat="41.5597720" lon="-0.9204060">
        <ele>407.4</ele>
        <time>2020-12-31T14:23:31Z</time>
      </trkpt>
      <trkpt lat="41.5596780" lon="-0.9204410">
        <ele>407.5</ele>
        <time>2020-12-31T14:23:33Z</time>
      </trkpt>
      <trkpt lat="41.5596310" lon="-0.9204540">
        <ele>407.6</ele>
        <time>2020-12-31T14:23:34Z</time>
      </trkpt>
      <trkpt lat="41.5595380" lon="-0.9204760">
        <ele>407.7</ele>
        <time>2020-12-31T14:23:36Z</time>
      </trkpt>
      <trkpt lat="41.5594880" lon="-0.9204860">
        <ele>407.8</ele>
        <time>2020-12-31T14:23:37Z</time>
      </trkpt>
      <trkpt lat="41.5593930" lon="-0.9205070">
        <ele>407.9</ele>
        <time>2020-12-31T14:23:39Z</time>
      </trkpt>
      <trkpt lat="41.5593440" lon="-0.9205100">
        <ele>407.9</ele>
        <time>2020-12-31T14:23:40Z</time>
      </trkpt>
      <trkpt lat="41.5592940" lon="-0.9205120">
        <ele>408.0</ele>
        <time>2020-12-31T14:23:41Z</time>
      </trkpt>
      <trkpt lat="41.5591920" lon="-0.9205130">
        <ele>408.1</ele>
        <time>2020-12-31T14:23:43Z</time>
      </trkpt>
      <trkpt lat="41.5591080" lon="-0.9205030">
        <ele>408.2</ele>
        <time>2020-12-31T14:23:45Z</time>
      </trkpt>
      <trkpt lat="41.5590360" lon="-0.9204900">
        <ele>408.3</ele>
        <time>2020-12-31T14:23:47Z</time>
      </trkpt>
      <trkpt lat="41.5589770" lon="-0.9205160">
        <ele>408.4</ele>
        <time>2020-12-31T14:23:49Z</time>
      </trkpt>
      <trkpt lat="41.5589530" lon="-0.9205690">
        <ele>408.5</ele>
        <time>2020-12-31T14:23:51Z</time>
      </trkpt>
      <trkpt lat="41.5589590" lon="-0.9206250">
        <ele>408.8</ele>
        <time>2020-12-31T14:23:52Z</time>
      </trkpt>
      <trkpt lat="41.5589680" lon="-0.9206710">
        <ele>408.9</ele>
        <time>2020-12-31T14:23:53Z</time>
      </trkpt>
      <trkpt lat="41.5589900" lon="-0.9207180">
        <ele>409.0</ele>
        <time>2020-12-31T14:23:54Z</time>
      </trkpt>
      <trkpt lat="41.5590260" lon="-0.9207760">
        <ele>409.1</ele>
        <time>2020-12-31T14:23:55Z</time>
      </trkpt>
      <trkpt lat="41.5590590" lon="-0.9208450">
        <ele>409.1</ele>
        <time>2020-12-31T14:23:57Z</time>
      </trkpt>
      <trkpt lat="41.5590760" lon="-0.9209150">
        <ele>409.0</ele>
        <time>2020-12-31T14:23:58Z</time>
      </trkpt>
      <trkpt lat="41.5590830" lon="-0.9210130">
        <ele>408.9</ele>
        <time>2020-12-31T14:23:59Z</time>
      </trkpt>
      <trkpt lat="41.5590770" lon="-0.9211480">
        <ele>408.7</ele>
        <time>2020-12-31T14:24:01Z</time>
      </trkpt>
      <trkpt lat="41.5590790" lon="-0.9212160">
        <ele>408.6</ele>
        <time>2020-12-31T14:24:02Z</time>
      </trkpt>
      <trkpt lat="41.5590860" lon="-0.9212850">
        <ele>408.5</ele>
        <time>2020-12-31T14:24:03Z</time>
      </trkpt>
      <trkpt lat="41.5590980" lon="-0.9213550">
        <ele>408.3</ele>
        <time>2020-12-31T14:24:04Z</time>
      </trkpt>
      <trkpt lat="41.5591340" lon="-0.9214920">
        <ele>407.9</ele>
        <time>2020-12-31T14:24:06Z</time>
      </trkpt>
      <trkpt lat="41.5591550" lon="-0.9215640">
        <ele>407.7</ele>
        <time>2020-12-31T14:24:07Z</time>
      </trkpt>
      <trkpt lat="41.5591790" lon="-0.9216320">
        <ele>407.4</ele>
        <time>2020-12-31T14:24:09Z</time>
      </trkpt>
      <trkpt lat="41.5591860" lon="-0.9216690">
        <ele>407.3</ele>
        <time>2020-12-31T14:24:10Z</time>
      </trkpt>
      <trkpt lat="41.5592570" lon="-0.9218470">
        <ele>406.9</ele>
        <time>2020-12-31T14:24:12Z</time>
      </trkpt>
      <trkpt lat="41.5593160" lon="-0.9219930">
        <ele>406.6</ele>
        <time>2020-12-31T14:24:13Z</time>
      </trkpt>
      <trkpt lat="41.5593750" lon="-0.9221400">
        <ele>406.4</ele>
        <time>2020-12-31T14:24:15Z</time>
      </trkpt>
      <trkpt lat="41.5594170" lon="-0.9222100">
        <ele>406.3</ele>
        <time>2020-12-31T14:24:16Z</time>
      </trkpt>
      <trkpt lat="41.5595040" lon="-0.9223210">
        <ele>406.1</ele>
        <time>2020-12-31T14:24:18Z</time>
      </trkpt>
      <trkpt lat="41.5595490" lon="-0.9223750">
        <ele>406.1</ele>
        <time>2020-12-31T14:24:19Z</time>
      </trkpt>
      <trkpt lat="41.5595980" lon="-0.9224250">
        <ele>406.0</ele>
        <time>2020-12-31T14:24:20Z</time>
      </trkpt>
      <trkpt lat="41.5596930" lon="-0.9225190">
        <ele>405.9</ele>
        <time>2020-12-31T14:24:22Z</time>
      </trkpt>
      <trkpt lat="41.5597440" lon="-0.9225600">
        <ele>405.9</ele>
        <time>2020-12-31T14:24:23Z</time>
      </trkpt>
      <trkpt lat="41.5598530" lon="-0.9226360">
        <ele>405.7</ele>
        <time>2020-12-31T14:24:25Z</time>
      </trkpt>
      <trkpt lat="41.5599690" lon="-0.9227140">
        <ele>405.5</ele>
        <time>2020-12-31T14:24:27Z</time>
      </trkpt>
      <trkpt lat="41.5600290" lon="-0.9227540">
        <ele>405.5</ele>
        <time>2020-12-31T14:24:28Z</time>
      </trkpt>
      <trkpt lat="41.5601490" lon="-0.9228160">
        <ele>405.3</ele>
        <time>2020-12-31T14:24:30Z</time>
      </trkpt>
      <trkpt lat="41.5602690" lon="-0.9228680">
        <ele>405.3</ele>
        <time>2020-12-31T14:24:32Z</time>
      </trkpt>
      <trkpt lat="41.5603760" lon="-0.9229130">
        <ele>405.2</ele>
        <time>2020-12-31T14:24:34Z</time>
      </trkpt>
      <trkpt lat="41.5604260" lon="-0.9229340">
        <ele>405.2</ele>
        <time>2020-12-31T14:24:35Z</time>
      </trkpt>
      <trkpt lat="41.5605280" lon="-0.9229770">
        <ele>405.1</ele>
        <time>2020-12-31T14:24:37Z</time>
      </trkpt>
      <trkpt lat="41.5606370" lon="-0.9229810">
        <ele>405.0</ele>
        <time>2020-12-31T14:24:39Z</time>
      </trkpt>
      <trkpt lat="41.5606900" lon="-0.9229780">
        <ele>405.0</ele>
        <time>2020-12-31T14:24:40Z</time>
      </trkpt>
      <trkpt lat="41.5607460" lon="-0.9229630">
        <ele>404.9</ele>
        <time>2020-12-31T14:24:41Z</time>
      </trkpt>
      <trkpt lat="41.5608590" lon="-0.9229370">
        <ele>405.0</ele>
        <time>2020-12-31T14:24:43Z</time>
      </trkpt>
      <trkpt lat="41.5609680" lon="-0.9229320">
        <ele>405.2</ele>
        <time>2020-12-31T14:24:45Z</time>
      </trkpt>
      <trkpt lat="41.5610180" lon="-0.9229410">
        <ele>405.3</ele>
        <time>2020-12-31T14:24:46Z</time>
      </trkpt>
      <trkpt lat="41.5610610" lon="-0.9229650">
        <ele>405.6</ele>
        <time>2020-12-31T14:24:47Z</time>
      </trkpt>
      <trkpt lat="41.5611180" lon="-0.9230110">
        <ele>406.0</ele>
        <time>2020-12-31T14:24:49Z</time>
      </trkpt>
      <trkpt lat="41.5611700" lon="-0.9230450">
        <ele>406.4</ele>
        <time>2020-12-31T14:24:51Z</time>
      </trkpt>
      <trkpt lat="41.5612120" lon="-0.9230740">
        <ele>406.8</ele>
        <time>2020-12-31T14:24:53Z</time>
      </trkpt>
      <trkpt lat="41.5612360" lon="-0.9230850">
        <ele>407.0</ele>
        <time>2020-12-31T14:24:54Z</time>
      </trkpt>
      <trkpt lat="41.5612470" lon="-0.9230860">
        <ele>407.0</ele>
        <time>2020-12-31T14:24:55Z</time>
      </trkpt>
      <trkpt lat="41.5612590" lon="-0.9230880">
        <ele>407.1</ele>
        <time>2020-12-31T14:24:56Z</time>
      </trkpt>
      <trkpt lat="41.5613030" lon="-0.9231090">
        <ele>407.5</ele>
        <time>2020-12-31T14:24:58Z</time>
      </trkpt>
      <trkpt lat="41.5613310" lon="-0.9231160">
        <ele>407.6</ele>
        <time>2020-12-31T14:24:59Z</time>
      </trkpt>
      <trkpt lat="41.5613670" lon="-0.9231250">
        <ele>407.7</ele>
        <time>2020-12-31T14:25:00Z</time>
      </trkpt>
      <trkpt lat="41.5614120" lon="-0.9231340">
        <ele>407.7</ele>
        <time>2020-12-31T14:25:01Z</time>
      </trkpt>
      <trkpt lat="41.5615070" lon="-0.9231700">
        <ele>407.5</ele>
        <time>2020-12-31T14:25:03Z</time>
      </trkpt>
      <trkpt lat="41.5615610" lon="-0.9232060">
        <ele>407.3</ele>
        <time>2020-12-31T14:25:04Z</time>
      </trkpt>
      <trkpt lat="41.5616670" lon="-0.9232900">
        <ele>406.9</ele>
        <time>2020-12-31T14:25:06Z</time>
      </trkpt>
      <trkpt lat="41.5617150" lon="-0.9233440">
        <ele>406.8</ele>
        <time>2020-12-31T14:25:07Z</time>
      </trkpt>
      <trkpt lat="41.5617550" lon="-0.9234020">
        <ele>406.8</ele>
        <time>2020-12-31T14:25:08Z</time>
      </trkpt>
      <trkpt lat="41.5618310" lon="-0.9234850">
        <ele>406.7</ele>
        <time>2020-12-31T14:25:10Z</time>
      </trkpt>
      <trkpt lat="41.5618680" lon="-0.9234830">
        <ele>406.6</ele>
        <time>2020-12-31T14:25:11Z</time>
      </trkpt>
      <trkpt lat="41.5619450" lon="-0.9234900">
        <ele>406.2</ele>
        <time>2020-12-31T14:25:13Z</time>
      </trkpt>
      <trkpt lat="41.5619820" lon="-0.9234770">
        <ele>406.0</ele>
        <time>2020-12-31T14:25:14Z</time>
      </trkpt>
      <trkpt lat="41.5620170" lon="-0.9234600">
        <ele>405.7</ele>
        <time>2020-12-31T14:25:15Z</time>
      </trkpt>
      <trkpt lat="41.5620500" lon="-0.9232610">
        <ele>404.1</ele>
        <time>2020-12-31T14:25:17Z</time>
      </trkpt>
      <trkpt lat="41.5620620" lon="-0.9231490">
        <ele>403.2</ele>
        <time>2020-12-31T14:25:18Z</time>
      </trkpt>
      <trkpt lat="41.5620710" lon="-0.9230280">
        <ele>402.5</ele>
        <time>2020-12-31T14:25:19Z</time>
      </trkpt>
      <trkpt lat="41.5621180" lon="-0.9228250">
        <ele>401.6</ele>
        <time>2020-12-31T14:25:21Z</time>
      </trkpt>
      <trkpt lat="41.5622280" lon="-0.9228090">
        <ele>400.8</ele>
        <time>2020-12-31T14:25:23Z</time>
      </trkpt>
      <trkpt lat="41.5622950" lon="-0.9229540">
        <ele>399.6</ele>
        <time>2020-12-31T14:25:25Z</time>
      </trkpt>
      <trkpt lat="41.5623240" lon="-0.9230410">
        <ele>399.0</ele>
        <time>2020-12-31T14:25:26Z</time>
      </trkpt>
      <trkpt lat="41.5623810" lon="-0.9231020">
        <ele>398.3</ele>
        <time>2020-12-31T14:25:27Z</time>
      </trkpt>
      <trkpt lat="41.5625030" lon="-0.9232090">
        <ele>397.1</ele>
        <time>2020-12-31T14:25:29Z</time>
      </trkpt>
      <trkpt lat="41.5626240" lon="-0.9233540">
        <ele>395.9</ele>
        <time>2020-12-31T14:25:31Z</time>
      </trkpt>
      <trkpt lat="41.5627360" lon="-0.9235150">
        <ele>394.6</ele>
        <time>2020-12-31T14:25:33Z</time>
      </trkpt>
      <trkpt lat="41.5628340" lon="-0.9236200">
        <ele>393.3</ele>
        <time>2020-12-31T14:25:35Z</time>
      </trkpt>
      <trkpt lat="41.5628920" lon="-0.9238230">
        <ele>391.6</ele>
        <time>2020-12-31T14:25:37Z</time>
      </trkpt>
      <trkpt lat="41.5629950" lon="-0.9239780">
        <ele>390.1</ele>
        <time>2020-12-31T14:25:39Z</time>
      </trkpt>
      <trkpt lat="41.5630670" lon="-0.9241470">
        <ele>388.8</ele>
        <time>2020-12-31T14:25:41Z</time>
      </trkpt>
      <trkpt lat="41.5631370" lon="-0.9243290">
        <ele>387.6</ele>
        <time>2020-12-31T14:25:43Z</time>
      </trkpt>
      <trkpt lat="41.5632200" lon="-0.9244740">
        <ele>386.6</ele>
        <time>2020-12-31T14:25:45Z</time>
      </trkpt>
      <trkpt lat="41.5632560" lon="-0.9246380">
        <ele>385.8</ele>
        <time>2020-12-31T14:25:47Z</time>
      </trkpt>
      <trkpt lat="41.5632630" lon="-0.9248090">
        <ele>384.9</ele>
        <time>2020-12-31T14:25:49Z</time>
      </trkpt>
      <trkpt lat="41.5632910" lon="-0.9248900">
        <ele>384.5</ele>
        <time>2020-12-31T14:25:50Z</time>
      </trkpt>
      <trkpt lat="41.5633040" lon="-0.9250630">
        <ele>383.6</ele>
        <time>2020-12-31T14:25:52Z</time>
      </trkpt>
      <trkpt lat="41.5632910" lon="-0.9252470">
        <ele>383.0</ele>
        <time>2020-12-31T14:25:54Z</time>
      </trkpt>
      <trkpt lat="41.5632870" lon="-0.9253340">
        <ele>382.8</ele>
        <time>2020-12-31T14:25:55Z</time>
      </trkpt>
      <trkpt lat="41.5633180" lon="-0.9254100">
        <ele>382.6</ele>
        <time>2020-12-31T14:25:56Z</time>
      </trkpt>
      <trkpt lat="41.5633950" lon="-0.9255410">
        <ele>382.1</ele>
        <time>2020-12-31T14:25:58Z</time>
      </trkpt>
      <trkpt lat="41.5634310" lon="-0.9255980">
        <ele>381.9</ele>
        <time>2020-12-31T14:25:59Z</time>
      </trkpt>
      <trkpt lat="41.5634910" lon="-0.9256120">
        <ele>381.6</ele>
        <time>2020-12-31T14:26:00Z</time>
      </trkpt>
      <trkpt lat="41.5635340" lon="-0.9256470">
        <ele>381.4</ele>
        <time>2020-12-31T14:26:01Z</time>
      </trkpt>
      <trkpt lat="41.5635770" lon="-0.9256990">
        <ele>381.1</ele>
        <time>2020-12-31T14:26:02Z</time>
      </trkpt>
      <trkpt lat="41.5636360" lon="-0.9257190">
        <ele>380.8</ele>
        <time>2020-12-31T14:26:03Z</time>
      </trkpt>
      <trkpt lat="41.5636900" lon="-0.9257830">
        <ele>380.4</ele>
        <time>2020-12-31T14:26:05Z</time>
      </trkpt>
      <trkpt lat="41.5636850" lon="-0.9258240">
        <ele>380.2</ele>
        <time>2020-12-31T14:26:06Z</time>
      </trkpt>
      <trkpt lat="41.5636920" lon="-0.9259120">
        <ele>379.8</ele>
        <time>2020-12-31T14:26:08Z</time>
      </trkpt>
      <trkpt lat="41.5637140" lon="-0.9259620">
        <ele>379.5</ele>
        <time>2020-12-31T14:26:09Z</time>
      </trkpt>
      <trkpt lat="41.5637440" lon="-0.9260220">
        <ele>379.1</ele>
        <time>2020-12-31T14:26:10Z</time>
      </trkpt>
      <trkpt lat="41.5637540" lon="-0.9261750">
        <ele>378.4</ele>
        <time>2020-12-31T14:26:12Z</time>
      </trkpt>
      <trkpt lat="41.5637510" lon="-0.9263250">
        <ele>377.9</ele>
        <time>2020-12-31T14:26:14Z</time>
      </trkpt>
      <trkpt lat="41.5637800" lon="-0.9263850">
        <ele>377.7</ele>
        <time>2020-12-31T14:26:15Z</time>
      </trkpt>
      <trkpt lat="41.5638230" lon="-0.9264440">
        <ele>377.4</ele>
        <time>2020-12-31T14:26:16Z</time>
      </trkpt>
      <trkpt lat="41.5638950" lon="-0.9265380">
        <ele>376.8</ele>
        <time>2020-12-31T14:26:18Z</time>
      </trkpt>
      <trkpt lat="41.5639380" lon="-0.9266720">
        <ele>376.0</ele>
        <time>2020-12-31T14:26:20Z</time>
      </trkpt>
      <trkpt lat="41.5639750" lon="-0.9267270">
        <ele>375.4</ele>
        <time>2020-12-31T14:26:22Z</time>
      </trkpt>
      <trkpt lat="41.5639870" lon="-0.9267620">
        <ele>375.1</ele>
        <time>2020-12-31T14:26:23Z</time>
      </trkpt>
      <trkpt lat="41.5639720" lon="-0.9269020">
        <ele>373.9</ele>
        <time>2020-12-31T14:26:25Z</time>
      </trkpt>
      <trkpt lat="41.5639830" lon="-0.9269700">
        <ele>373.3</ele>
        <time>2020-12-31T14:26:26Z</time>
      </trkpt>
      <trkpt lat="41.5640010" lon="-0.9271070">
        <ele>372.4</ele>
        <time>2020-12-31T14:26:28Z</time>
      </trkpt>
      <trkpt lat="41.5640630" lon="-0.9272270">
        <ele>371.6</ele>
        <time>2020-12-31T14:26:30Z</time>
      </trkpt>
      <trkpt lat="41.5641030" lon="-0.9273680">
        <ele>370.8</ele>
        <time>2020-12-31T14:26:32Z</time>
      </trkpt>
      <trkpt lat="41.5641470" lon="-0.9275180">
        <ele>370.1</ele>
        <time>2020-12-31T14:26:34Z</time>
      </trkpt>
      <trkpt lat="41.5641890" lon="-0.9276140">
        <ele>369.7</ele>
        <time>2020-12-31T14:26:36Z</time>
      </trkpt>
      <trkpt lat="41.5641810" lon="-0.9277000">
        <ele>369.2</ele>
        <time>2020-12-31T14:26:38Z</time>
      </trkpt>
      <trkpt lat="41.5641890" lon="-0.9277610">
        <ele>368.9</ele>
        <time>2020-12-31T14:26:39Z</time>
      </trkpt>
      <trkpt lat="41.5642270" lon="-0.9278140">
        <ele>368.4</ele>
        <time>2020-12-31T14:26:40Z</time>
      </trkpt>
      <trkpt lat="41.5642840" lon="-0.9279440">
        <ele>367.5</ele>
        <time>2020-12-31T14:26:42Z</time>
      </trkpt>
      <trkpt lat="41.5643190" lon="-0.9279940">
        <ele>367.0</ele>
        <time>2020-12-31T14:26:43Z</time>
      </trkpt>
      <trkpt lat="41.5643390" lon="-0.9280230">
        <ele>366.8</ele>
        <time>2020-12-31T14:26:44Z</time>
      </trkpt>
      <trkpt lat="41.5643440" lon="-0.9281220">
        <ele>366.1</ele>
        <time>2020-12-31T14:26:46Z</time>
      </trkpt>
      <trkpt lat="41.5643650" lon="-0.9281900">
        <ele>365.6</ele>
        <time>2020-12-31T14:26:47Z</time>
      </trkpt>
      <trkpt lat="41.5643880" lon="-0.9283350">
        <ele>364.7</ele>
        <time>2020-12-31T14:26:49Z</time>
      </trkpt>
      <trkpt lat="41.5643820" lon="-0.9284100">
        <ele>364.2</ele>
        <time>2020-12-31T14:26:50Z</time>
      </trkpt>
      <trkpt lat="41.5643840" lon="-0.9284820">
        <ele>363.8</ele>
        <time>2020-12-31T14:26:51Z</time>
      </trkpt>
      <trkpt lat="41.5644280" lon="-0.9285640">
        <ele>363.2</ele>
        <time>2020-12-31T14:26:53Z</time>
      </trkpt>
      <trkpt lat="41.5644510" lon="-0.9285850">
        <ele>362.9</ele>
        <time>2020-12-31T14:26:54Z</time>
      </trkpt>
      <trkpt lat="41.5644740" lon="-0.9286470">
        <ele>362.5</ele>
        <time>2020-12-31T14:26:56Z</time>
      </trkpt>
      <trkpt lat="41.5644770" lon="-0.9287030">
        <ele>362.0</ele>
        <time>2020-12-31T14:26:57Z</time>
      </trkpt>
      <trkpt lat="41.5644640" lon="-0.9287690">
        <ele>361.5</ele>
        <time>2020-12-31T14:26:58Z</time>
      </trkpt>
      <trkpt lat="41.5644560" lon="-0.9288310">
        <ele>361.0</ele>
        <time>2020-12-31T14:26:59Z</time>
      </trkpt>
      <trkpt lat="41.5644700" lon="-0.9288940">
        <ele>360.4</ele>
        <time>2020-12-31T14:27:00Z</time>
      </trkpt>
      <trkpt lat="41.5644930" lon="-0.9290370">
        <ele>359.4</ele>
        <time>2020-12-31T14:27:02Z</time>
      </trkpt>
      <trkpt lat="41.5645340" lon="-0.9291990">
        <ele>358.3</ele>
        <time>2020-12-31T14:27:04Z</time>
      </trkpt>
      <trkpt lat="41.5645600" lon="-0.9293430">
        <ele>357.4</ele>
        <time>2020-12-31T14:27:06Z</time>
      </trkpt>
      <trkpt lat="41.5645720" lon="-0.9294080">
        <ele>357.0</ele>
        <time>2020-12-31T14:27:07Z</time>
      </trkpt>
      <trkpt lat="41.5645640" lon="-0.9294430">
        <ele>356.7</ele>
        <time>2020-12-31T14:27:08Z</time>
      </trkpt>
      <trkpt lat="41.5645490" lon="-0.9295100">
        <ele>356.1</ele>
        <time>2020-12-31T14:27:10Z</time>
      </trkpt>
      <trkpt lat="41.5645670" lon="-0.9295700">
        <ele>355.6</ele>
        <time>2020-12-31T14:27:11Z</time>
      </trkpt>
      <trkpt lat="41.5645840" lon="-0.9296240">
        <ele>355.1</ele>
        <time>2020-12-31T14:27:13Z</time>
      </trkpt>
      <trkpt lat="41.5645990" lon="-0.9296820">
        <ele>354.6</ele>
        <time>2020-12-31T14:27:14Z</time>
      </trkpt>
      <trkpt lat="41.5646180" lon="-0.9297540">
        <ele>354.1</ele>
        <time>2020-12-31T14:27:15Z</time>
      </trkpt>
      <trkpt lat="41.5646490" lon="-0.9298410">
        <ele>353.5</ele>
        <time>2020-12-31T14:27:17Z</time>
      </trkpt>
      <trkpt lat="41.5646690" lon="-0.9299430">
        <ele>353.0</ele>
        <time>2020-12-31T14:27:19Z</time>
      </trkpt>
      <trkpt lat="41.5646780" lon="-0.9300140">
        <ele>352.6</ele>
        <time>2020-12-31T14:27:20Z</time>
      </trkpt>
      <trkpt lat="41.5647040" lon="-0.9300770">
        <ele>352.4</ele>
        <time>2020-12-31T14:27:21Z</time>
      </trkpt>
      <trkpt lat="41.5647330" lon="-0.9301280">
        <ele>352.1</ele>
        <time>2020-12-31T14:27:22Z</time>
      </trkpt>
      <trkpt lat="41.5647380" lon="-0.9301320">
        <ele>352.1</ele>
        <time>2020-12-31T14:27:23Z</time>
      </trkpt>
      <trkpt lat="41.5647570" lon="-0.9301570">
        <ele>351.9</ele>
        <time>2020-12-31T14:27:25Z</time>
      </trkpt>
      <trkpt lat="41.5647930" lon="-0.9302020">
        <ele>351.7</ele>
        <time>2020-12-31T14:27:27Z</time>
      </trkpt>
      <trkpt lat="41.5648120" lon="-0.9302610">
        <ele>351.4</ele>
        <time>2020-12-31T14:27:28Z</time>
      </trkpt>
      <trkpt lat="41.5647990" lon="-0.9303160">
        <ele>351.1</ele>
        <time>2020-12-31T14:27:29Z</time>
      </trkpt>
      <trkpt lat="41.5648290" lon="-0.9303910">
        <ele>350.7</ele>
        <time>2020-12-31T14:27:30Z</time>
      </trkpt>
      <trkpt lat="41.5648610" lon="-0.9304320">
        <ele>350.4</ele>
        <time>2020-12-31T14:27:31Z</time>
      </trkpt>
      <trkpt lat="41.5649160" lon="-0.9305260">
        <ele>349.8</ele>
        <time>2020-12-31T14:27:33Z</time>
      </trkpt>
      <trkpt lat="41.5649460" lon="-0.9305760">
        <ele>349.5</ele>
        <time>2020-12-31T14:27:34Z</time>
      </trkpt>
      <trkpt lat="41.5649700" lon="-0.9306290">
        <ele>349.3</ele>
        <time>2020-12-31T14:27:35Z</time>
      </trkpt>
      <trkpt lat="41.5649420" lon="-0.9306640">
        <ele>349.0</ele>
        <time>2020-12-31T14:27:36Z</time>
      </trkpt>
      <trkpt lat="41.5649500" lon="-0.9306970">
        <ele>348.9</ele>
        <time>2020-12-31T14:27:37Z</time>
      </trkpt>
      <trkpt lat="41.5649270" lon="-0.9308210">
        <ele>348.2</ele>
        <time>2020-12-31T14:27:39Z</time>
      </trkpt>
      <trkpt lat="41.5649250" lon="-0.9309600">
        <ele>347.4</ele>
        <time>2020-12-31T14:27:41Z</time>
      </trkpt>
      <trkpt lat="41.5649180" lon="-0.9310250">
        <ele>347.1</ele>
        <time>2020-12-31T14:27:42Z</time>
      </trkpt>
      <trkpt lat="41.5649210" lon="-0.9310960">
        <ele>346.8</ele>
        <time>2020-12-31T14:27:43Z</time>
      </trkpt>
      <trkpt lat="41.5648830" lon="-0.9312330">
        <ele>346.2</ele>
        <time>2020-12-31T14:27:45Z</time>
      </trkpt>
      <trkpt lat="41.5648770" lon="-0.9312980">
        <ele>345.9</ele>
        <time>2020-12-31T14:27:46Z</time>
      </trkpt>
      <trkpt lat="41.5648670" lon="-0.9313250">
        <ele>345.8</ele>
        <time>2020-12-31T14:27:47Z</time>
      </trkpt>
      <trkpt lat="41.5648830" lon="-0.9313640">
        <ele>345.6</ele>
        <time>2020-12-31T14:27:49Z</time>
      </trkpt>
      <trkpt lat="41.5648880" lon="-0.9314180">
        <ele>345.3</ele>
        <time>2020-12-31T14:27:50Z</time>
      </trkpt>
      <trkpt lat="41.5648980" lon="-0.9315780">
        <ele>344.5</ele>
        <time>2020-12-31T14:27:52Z</time>
      </trkpt>
      <trkpt lat="41.5649140" lon="-0.9317260">
        <ele>343.9</ele>
        <time>2020-12-31T14:27:54Z</time>
      </trkpt>
      <trkpt lat="41.5649240" lon="-0.9318700">
        <ele>343.4</ele>
        <time>2020-12-31T14:27:56Z</time>
      </trkpt>
      <trkpt lat="41.5649150" lon="-0.9319980">
        <ele>342.9</ele>
        <time>2020-12-31T14:27:58Z</time>
      </trkpt>
      <trkpt lat="41.5649070" lon="-0.9320650">
        <ele>342.7</ele>
        <time>2020-12-31T14:27:59Z</time>
      </trkpt>
      <trkpt lat="41.5649170" lon="-0.9321840">
        <ele>342.3</ele>
        <time>2020-12-31T14:28:01Z</time>
      </trkpt>
      <trkpt lat="41.5649240" lon="-0.9322480">
        <ele>342.1</ele>
        <time>2020-12-31T14:28:02Z</time>
      </trkpt>
      <trkpt lat="41.5649370" lon="-0.9323820">
        <ele>341.7</ele>
        <time>2020-12-31T14:28:04Z</time>
      </trkpt>
      <trkpt lat="41.5649510" lon="-0.9324520">
        <ele>341.5</ele>
        <time>2020-12-31T14:28:05Z</time>
      </trkpt>
      <trkpt lat="41.5649700" lon="-0.9325220">
        <ele>341.3</ele>
        <time>2020-12-31T14:28:06Z</time>
      </trkpt>
      <trkpt lat="41.5649900" lon="-0.9325930">
        <ele>341.1</ele>
        <time>2020-12-31T14:28:08Z</time>
      </trkpt>
      <trkpt lat="41.5650080" lon="-0.9326770">
        <ele>340.8</ele>
        <time>2020-12-31T14:28:10Z</time>
      </trkpt>
      <trkpt lat="41.5650450" lon="-0.9327700">
        <ele>340.4</ele>
        <time>2020-12-31T14:28:12Z</time>
      </trkpt>
      <trkpt lat="41.5650830" lon="-0.9328450">
        <ele>340.0</ele>
        <time>2020-12-31T14:28:13Z</time>
      </trkpt>
      <trkpt lat="41.5651530" lon="-0.9328820">
        <ele>339.6</ele>
        <time>2020-12-31T14:28:15Z</time>
      </trkpt>
      <trkpt lat="41.5651890" lon="-0.9329080">
        <ele>339.3</ele>
        <time>2020-12-31T14:28:16Z</time>
      </trkpt>
      <trkpt lat="41.5652170" lon="-0.9329770">
        <ele>339.0</ele>
        <time>2020-12-31T14:28:18Z</time>
      </trkpt>
      <trkpt lat="41.5652090" lon="-0.9330380">
        <ele>338.7</ele>
        <time>2020-12-31T14:28:19Z</time>
      </trkpt>
      <trkpt lat="41.5652180" lon="-0.9330540">
        <ele>338.6</ele>
        <time>2020-12-31T14:28:20Z</time>
      </trkpt>
      <trkpt lat="41.5652220" lon="-0.9330650">
        <ele>338.5</ele>
        <time>2020-12-31T14:28:22Z</time>
      </trkpt>
      <trkpt lat="41.5652260" lon="-0.9330750">
        <ele>338.5</ele>
        <time>2020-12-31T14:28:23Z</time>
      </trkpt>
      <trkpt lat="41.5652300" lon="-0.9330860">
        <ele>338.4</ele>
        <time>2020-12-31T14:28:24Z</time>
      </trkpt>
      <trkpt lat="41.5652480" lon="-0.9331320">
        <ele>338.2</ele>
        <time>2020-12-31T14:28:26Z</time>
      </trkpt>
      <trkpt lat="41.5652620" lon="-0.9331760">
        <ele>338.0</ele>
        <time>2020-12-31T14:28:27Z</time>
      </trkpt>
      <trkpt lat="41.5652690" lon="-0.9331890">
        <ele>337.9</ele>
        <time>2020-12-31T14:28:28Z</time>
      </trkpt>
      <trkpt lat="41.5652960" lon="-0.9332150">
        <ele>337.7</ele>
        <time>2020-12-31T14:28:29Z</time>
      </trkpt>
      <trkpt lat="41.5652890" lon="-0.9332740">
        <ele>337.5</ele>
        <time>2020-12-31T14:28:31Z</time>
      </trkpt>
      <trkpt lat="41.5652800" lon="-0.9332910">
        <ele>337.4</ele>
        <time>2020-12-31T14:28:32Z</time>
      </trkpt>
      <trkpt lat="41.5652700" lon="-0.9333080">
        <ele>337.3</ele>
        <time>2020-12-31T14:28:33Z</time>
      </trkpt>
      <trkpt lat="41.5652690" lon="-0.9333440">
        <ele>337.1</ele>
        <time>2020-12-31T14:28:34Z</time>
      </trkpt>
      <trkpt lat="41.5652970" lon="-0.9333860">
        <ele>336.8</ele>
        <time>2020-12-31T14:28:36Z</time>
      </trkpt>
      <trkpt lat="41.5653270" lon="-0.9334400">
        <ele>336.4</ele>
        <time>2020-12-31T14:28:38Z</time>
      </trkpt>
      <trkpt lat="41.5653400" lon="-0.9334770">
        <ele>336.2</ele>
        <time>2020-12-31T14:28:39Z</time>
      </trkpt>
      <trkpt lat="41.5653420" lon="-0.9334900">
        <ele>336.1</ele>
        <time>2020-12-31T14:28:40Z</time>
      </trkpt>
      <trkpt lat="41.5653520" lon="-0.9335340">
        <ele>335.9</ele>
        <time>2020-12-31T14:28:42Z</time>
      </trkpt>
      <trkpt lat="41.5653550" lon="-0.9335460">
        <ele>335.8</ele>
        <time>2020-12-31T14:28:43Z</time>
      </trkpt>
      <trkpt lat="41.5653800" lon="-0.9335840">
        <ele>335.5</ele>
        <time>2020-12-31T14:28:45Z</time>
      </trkpt>
      <trkpt lat="41.5654020" lon="-0.9336310">
        <ele>335.1</ele>
        <time>2020-12-31T14:28:46Z</time>
      </trkpt>
      <trkpt lat="41.5654070" lon="-0.9336780">
        <ele>334.7</ele>
        <time>2020-12-31T14:28:47Z</time>
      </trkpt>
      <trkpt lat="41.5654000" lon="-0.9337310">
        <ele>334.4</ele>
        <time>2020-12-31T14:28:48Z</time>
      </trkpt>
      <trkpt lat="41.5653800" lon="-0.9337840">
        <ele>333.9</ele>
        <time>2020-12-31T14:28:50Z</time>
      </trkpt>
      <trkpt lat="41.5653680" lon="-0.9338230">
        <ele>333.6</ele>
        <time>2020-12-31T14:28:51Z</time>
      </trkpt>
      <trkpt lat="41.5653900" lon="-0.9339080">
        <ele>333.0</ele>
        <time>2020-12-31T14:28:53Z</time>
      </trkpt>
      <trkpt lat="41.5654020" lon="-0.9339720">
        <ele>332.6</ele>
        <time>2020-12-31T14:28:54Z</time>
      </trkpt>
      <trkpt lat="41.5653820" lon="-0.9340310">
        <ele>332.3</ele>
        <time>2020-12-31T14:28:55Z</time>
      </trkpt>
      <trkpt lat="41.5653110" lon="-0.9341180">
        <ele>331.6</ele>
        <time>2020-12-31T14:28:57Z</time>
      </trkpt>
      <trkpt lat="41.5652380" lon="-0.9342100">
        <ele>331.1</ele>
        <time>2020-12-31T14:28:59Z</time>
      </trkpt>
      <trkpt lat="41.5652040" lon="-0.9342590">
        <ele>330.9</ele>
        <time>2020-12-31T14:29:00Z</time>
      </trkpt>
      <trkpt lat="41.5651700" lon="-0.9342990">
        <ele>330.8</ele>
        <time>2020-12-31T14:29:01Z</time>
      </trkpt>
      <trkpt lat="41.5651160" lon="-0.9343700">
        <ele>330.6</ele>
        <time>2020-12-31T14:29:03Z</time>
      </trkpt>
      <trkpt lat="41.5651150" lon="-0.9343750">
        <ele>330.6</ele>
        <time>2020-12-31T14:29:04Z</time>
      </trkpt>
      <trkpt lat="41.5650870" lon="-0.9344260">
        <ele>330.6</ele>
        <time>2020-12-31T14:29:06Z</time>
      </trkpt>
      <trkpt lat="41.5650890" lon="-0.9344660">
        <ele>330.6</ele>
        <time>2020-12-31T14:29:07Z</time>
      </trkpt>
      <trkpt lat="41.5650700" lon="-0.9345120">
        <ele>330.7</ele>
        <time>2020-12-31T14:29:08Z</time>
      </trkpt>
      <trkpt lat="41.5650520" lon="-0.9345460">
        <ele>330.8</ele>
        <time>2020-12-31T14:29:09Z</time>
      </trkpt>
      <trkpt lat="41.5650470" lon="-0.9345550">
        <ele>330.8</ele>
        <time>2020-12-31T14:29:10Z</time>
      </trkpt>
      <trkpt lat="41.5650260" lon="-0.9345800">
        <ele>330.8</ele>
        <time>2020-12-31T14:29:12Z</time>
      </trkpt>
      <trkpt lat="41.5649890" lon="-0.9346420">
        <ele>330.7</ele>
        <time>2020-12-31T14:29:14Z</time>
      </trkpt>
      <trkpt lat="41.5648940" lon="-0.9346860">
        <ele>330.3</ele>
        <time>2020-12-31T14:29:15Z</time>
      </trkpt>
      <trkpt lat="41.5648420" lon="-0.9347160">
        <ele>330.0</ele>
        <time>2020-12-31T14:29:16Z</time>
      </trkpt>
      <trkpt lat="41.5647610" lon="-0.9347800">
        <ele>329.2</ele>
        <time>2020-12-31T14:29:18Z</time>
      </trkpt>
      <trkpt lat="41.5647700" lon="-0.9348680">
        <ele>328.6</ele>
        <time>2020-12-31T14:29:20Z</time>
      </trkpt>
      <trkpt lat="41.5647750" lon="-0.9349100">
        <ele>328.3</ele>
        <time>2020-12-31T14:29:21Z</time>
      </trkpt>
      <trkpt lat="41.5647880" lon="-0.9349770">
        <ele>327.8</ele>
        <time>2020-12-31T14:29:22Z</time>
      </trkpt>
      <trkpt lat="41.5648100" lon="-0.9351110">
        <ele>326.8</ele>
        <time>2020-12-31T14:29:24Z</time>
      </trkpt>
      <trkpt lat="41.5648050" lon="-0.9351780">
        <ele>326.4</ele>
        <time>2020-12-31T14:29:25Z</time>
      </trkpt>
      <trkpt lat="41.5648010" lon="-0.9352390">
        <ele>326.0</ele>
        <time>2020-12-31T14:29:26Z</time>
      </trkpt>
      <trkpt lat="41.5648090" lon="-0.9353080">
        <ele>325.6</ele>
        <time>2020-12-31T14:29:27Z</time>
      </trkpt>
      <trkpt lat="41.5648240" lon="-0.9354360">
        <ele>324.9</ele>
        <time>2020-12-31T14:29:29Z</time>
      </trkpt>
      <trkpt lat="41.5648370" lon="-0.9354630">
        <ele>324.7</ele>
        <time>2020-12-31T14:29:30Z</time>
      </trkpt>
      <trkpt lat="41.5648440" lon="-0.9354840">
        <ele>324.6</ele>
        <time>2020-12-31T14:29:31Z</time>
      </trkpt>
      <trkpt lat="41.5648620" lon="-0.9355170">
        <ele>324.3</ele>
        <time>2020-12-31T14:29:32Z</time>
      </trkpt>
      <trkpt lat="41.5648820" lon="-0.9355800">
        <ele>324.0</ele>
        <time>2020-12-31T14:29:34Z</time>
      </trkpt>
      <trkpt lat="41.5649200" lon="-0.9356790">
        <ele>323.6</ele>
        <time>2020-12-31T14:29:36Z</time>
      </trkpt>
      <trkpt lat="41.5649230" lon="-0.9357670">
        <ele>323.3</ele>
        <time>2020-12-31T14:29:38Z</time>
      </trkpt>
      <trkpt lat="41.5649250" lon="-0.9358130">
        <ele>323.2</ele>
        <time>2020-12-31T14:29:39Z</time>
      </trkpt>
      <trkpt lat="41.5649360" lon="-0.9358600">
        <ele>323.1</ele>
        <time>2020-12-31T14:29:40Z</time>
      </trkpt>
      <trkpt lat="41.5649280" lon="-0.9359090">
        <ele>323.0</ele>
        <time>2020-12-31T14:29:42Z</time>
      </trkpt>
      <trkpt lat="41.5649130" lon="-0.9360440">
        <ele>322.8</ele>
        <time>2020-12-31T14:29:44Z</time>
      </trkpt>
      <trkpt lat="41.5649060" lon="-0.9361810">
        <ele>322.6</ele>
        <time>2020-12-31T14:29:46Z</time>
      </trkpt>
      <trkpt lat="41.5649620" lon="-0.9362810">
        <ele>322.3</ele>
        <time>2020-12-31T14:29:48Z</time>
      </trkpt>
      <trkpt lat="41.5649740" lon="-0.9363390">
        <ele>322.2</ele>
        <time>2020-12-31T14:29:49Z</time>
      </trkpt>
      <trkpt lat="41.5649680" lon="-0.9364470">
        <ele>322.1</ele>
        <time>2020-12-31T14:29:51Z</time>
      </trkpt>
      <trkpt lat="41.5649440" lon="-0.9365030">
        <ele>322.0</ele>
        <time>2020-12-31T14:29:52Z</time>
      </trkpt>
      <trkpt lat="41.5649330" lon="-0.9365770">
        <ele>321.8</ele>
        <time>2020-12-31T14:29:53Z</time>
      </trkpt>
      <trkpt lat="41.5649520" lon="-0.9366750">
        <ele>321.7</ele>
        <time>2020-12-31T14:29:55Z</time>
      </trkpt>
      <trkpt lat="41.5649380" lon="-0.9367380">
        <ele>321.6</ele>
        <time>2020-12-31T14:29:56Z</time>
      </trkpt>
      <trkpt lat="41.5648990" lon="-0.9367930">
        <ele>321.5</ele>
        <time>2020-12-31T14:29:58Z</time>
      </trkpt>
      <trkpt lat="41.5649050" lon="-0.9368990">
        <ele>321.3</ele>
        <time>2020-12-31T14:30:00Z</time>
      </trkpt>
      <trkpt lat="41.5649220" lon="-0.9369480">
        <ele>321.2</ele>
        <time>2020-12-31T14:30:01Z</time>
      </trkpt>
      <trkpt lat="41.5649390" lon="-0.9370680">
        <ele>320.9</ele>
        <time>2020-12-31T14:30:03Z</time>
      </trkpt>
      <trkpt lat="41.5649000" lon="-0.9371180">
        <ele>320.7</ele>
        <time>2020-12-31T14:30:05Z</time>
      </trkpt>
      <trkpt lat="41.5648710" lon="-0.9371860">
        <ele>320.6</ele>
        <time>2020-12-31T14:30:06Z</time>
      </trkpt>
      <trkpt lat="41.5648210" lon="-0.9372070">
        <ele>320.4</ele>
        <time>2020-12-31T14:30:07Z</time>
      </trkpt>
      <trkpt lat="41.5647950" lon="-0.9372500">
        <ele>320.3</ele>
        <time>2020-12-31T14:30:09Z</time>
      </trkpt>
      <trkpt lat="41.5647760" lon="-0.9373300">
        <ele>320.0</ele>
        <time>2020-12-31T14:30:10Z</time>
      </trkpt>
      <trkpt lat="41.5647590" lon="-0.9373960">
        <ele>319.8</ele>
        <time>2020-12-31T14:30:11Z</time>
      </trkpt>
      <trkpt lat="41.5647430" lon="-0.9374470">
        <ele>319.7</ele>
        <time>2020-12-31T14:30:12Z</time>
      </trkpt>
      <trkpt lat="41.5647260" lon="-0.9374910">
        <ele>319.6</ele>
        <time>2020-12-31T14:30:14Z</time>
      </trkpt>
      <trkpt lat="41.5647020" lon="-0.9375400">
        <ele>319.5</ele>
        <time>2020-12-31T14:30:15Z</time>
      </trkpt>
      <trkpt lat="41.5646790" lon="-0.9375910">
        <ele>319.4</ele>
        <time>2020-12-31T14:30:16Z</time>
      </trkpt>
      <trkpt lat="41.5646560" lon="-0.9376380">
        <ele>319.4</ele>
        <time>2020-12-31T14:30:17Z</time>
      </trkpt>
      <trkpt lat="41.5646340" lon="-0.9376900">
        <ele>319.3</ele>
        <time>2020-12-31T14:30:18Z</time>
      </trkpt>
      <trkpt lat="41.5646120" lon="-0.9377460">
        <ele>319.3</ele>
        <time>2020-12-31T14:30:19Z</time>
      </trkpt>
      <trkpt lat="41.5645800" lon="-0.9378430">
        <ele>319.2</ele>
        <time>2020-12-31T14:30:21Z</time>
      </trkpt>
      <trkpt lat="41.5646040" lon="-0.9378750">
        <ele>319.2</ele>
        <time>2020-12-31T14:30:23Z</time>
      </trkpt>
      <trkpt lat="41.5646060" lon="-0.9378880">
        <ele>319.1</ele>
        <time>2020-12-31T14:30:24Z</time>
      </trkpt>
      <trkpt lat="41.5646100" lon="-0.9378870">
        <ele>319.1</ele>
        <time>2020-12-31T14:30:25Z</time>
      </trkpt>
      <trkpt lat="41.5646180" lon="-0.9379160">
        <ele>319.0</ele>
        <time>2020-12-31T14:30:27Z</time>
      </trkpt>
      <trkpt lat="41.5646380" lon="-0.9379450">
        <ele>318.9</ele>
        <time>2020-12-31T14:30:28Z</time>
      </trkpt>
      <trkpt lat="41.5646260" lon="-0.9379920">
        <ele>318.8</ele>
        <time>2020-12-31T14:30:30Z</time>
      </trkpt>
      <trkpt lat="41.5646140" lon="-0.9380050">
        <ele>318.7</ele>
        <time>2020-12-31T14:30:31Z</time>
      </trkpt>
      <trkpt lat="41.5645870" lon="-0.9380390">
        <ele>318.5</ele>
        <time>2020-12-31T14:30:32Z</time>
      </trkpt>
      <trkpt lat="41.5645440" lon="-0.9380820">
        <ele>318.2</ele>
        <time>2020-12-31T14:30:33Z</time>
      </trkpt>
      <trkpt lat="41.5645020" lon="-0.9381560">
        <ele>317.8</ele>
        <time>2020-12-31T14:30:35Z</time>
      </trkpt>
      <trkpt lat="41.5644880" lon="-0.9382130">
        <ele>317.6</ele>
        <time>2020-12-31T14:30:36Z</time>
      </trkpt>
      <trkpt lat="41.5644710" lon="-0.9383020">
        <ele>317.3</ele>
        <time>2020-12-31T14:30:38Z</time>
      </trkpt>
      <trkpt lat="41.5644550" lon="-0.9383660">
        <ele>317.1</ele>
        <time>2020-12-31T14:30:39Z</time>
      </trkpt>
      <trkpt lat="41.5644320" lon="-0.9384510">
        <ele>316.8</ele>
        <time>2020-12-31T14:30:41Z</time>
      </trkpt>
      <trkpt lat="41.5644070" lon="-0.9384720">
        <ele>316.7</ele>
        <time>2020-12-31T14:30:42Z</time>
      </trkpt>
      <trkpt lat="41.5643800" lon="-0.9385040">
        <ele>316.5</ele>
        <time>2020-12-31T14:30:43Z</time>
      </trkpt>
      <trkpt lat="41.5643620" lon="-0.9385460">
        <ele>316.4</ele>
        <time>2020-12-31T14:30:45Z</time>
      </trkpt>
      <trkpt lat="41.5643570" lon="-0.9385660">
        <ele>316.3</ele>
        <time>2020-12-31T14:30:46Z</time>
      </trkpt>
      <trkpt lat="41.5643500" lon="-0.9386320">
        <ele>316.1</ele>
        <time>2020-12-31T14:30:48Z</time>
      </trkpt>
      <trkpt lat="41.5643420" lon="-0.9386760">
        <ele>315.9</ele>
        <time>2020-12-31T14:30:49Z</time>
      </trkpt>
      <trkpt lat="41.5643430" lon="-0.9387260">
        <ele>315.7</ele>
        <time>2020-12-31T14:30:50Z</time>
      </trkpt>
      <trkpt lat="41.5643460" lon="-0.9388250">
        <ele>315.4</ele>
        <time>2020-12-31T14:30:52Z</time>
      </trkpt>
      <trkpt lat="41.5643450" lon="-0.9388720">
        <ele>315.2</ele>
        <time>2020-12-31T14:30:53Z</time>
      </trkpt>
      <trkpt lat="41.5643480" lon="-0.9389140">
        <ele>315.1</ele>
        <time>2020-12-31T14:30:54Z</time>
      </trkpt>
      <trkpt lat="41.5643510" lon="-0.9389500">
        <ele>314.9</ele>
        <time>2020-12-31T14:30:55Z</time>
      </trkpt>
      <trkpt lat="41.5643520" lon="-0.9389810">
        <ele>314.8</ele>
        <time>2020-12-31T14:30:56Z</time>
      </trkpt>
      <trkpt lat="41.5643470" lon="-0.9390280">
        <ele>314.7</ele>
        <time>2020-12-31T14:30:58Z</time>
      </trkpt>
      <trkpt lat="41.5643360" lon="-0.9390910">
        <ele>314.5</ele>
        <time>2020-12-31T14:30:59Z</time>
      </trkpt>
      <trkpt lat="41.5643330" lon="-0.9391400">
        <ele>314.4</ele>
        <time>2020-12-31T14:31:01Z</time>
      </trkpt>
      <trkpt lat="41.5643410" lon="-0.9391910">
        <ele>314.2</ele>
        <time>2020-12-31T14:31:02Z</time>
      </trkpt>
      <trkpt lat="41.5643500" lon="-0.9392420">
        <ele>314.1</ele>
        <time>2020-12-31T14:31:03Z</time>
      </trkpt>
      <trkpt lat="41.5643660" lon="-0.9392870">
        <ele>314.0</ele>
        <time>2020-12-31T14:31:05Z</time>
      </trkpt>
      <trkpt lat="41.5643840" lon="-0.9393370">
        <ele>313.9</ele>
        <time>2020-12-31T14:31:06Z</time>
      </trkpt>
      <trkpt lat="41.5644010" lon="-0.9394030">
        <ele>313.7</ele>
        <time>2020-12-31T14:31:08Z</time>
      </trkpt>
      <trkpt lat="41.5644070" lon="-0.9394410">
        <ele>313.7</ele>
        <time>2020-12-31T14:31:09Z</time>
      </trkpt>
      <trkpt lat="41.5644210" lon="-0.9394690">
        <ele>313.6</ele>
        <time>2020-12-31T14:31:10Z</time>
      </trkpt>
      <trkpt lat="41.5644280" lon="-0.9394850">
        <ele>313.6</ele>
        <time>2020-12-31T14:31:12Z</time>
      </trkpt>
      <trkpt lat="41.5644360" lon="-0.9395020">
        <ele>313.5</ele>
        <time>2020-12-31T14:31:13Z</time>
      </trkpt>
      <trkpt lat="41.5644430" lon="-0.9395190">
        <ele>313.5</ele>
        <time>2020-12-31T14:31:14Z</time>
      </trkpt>
      <trkpt lat="41.5644490" lon="-0.9395570">
        <ele>313.4</ele>
        <time>2020-12-31T14:31:15Z</time>
      </trkpt>
      <trkpt lat="41.5644540" lon="-0.9395900">
        <ele>313.4</ele>
        <time>2020-12-31T14:31:16Z</time>
      </trkpt>
      <trkpt lat="41.5644570" lon="-0.9396480">
        <ele>313.3</ele>
        <time>2020-12-31T14:31:18Z</time>
      </trkpt>
      <trkpt lat="41.5644480" lon="-0.9397090">
        <ele>313.1</ele>
        <time>2020-12-31T14:31:20Z</time>
      </trkpt>
      <trkpt lat="41.5644630" lon="-0.9397550">
        <ele>313.0</ele>
        <time>2020-12-31T14:31:21Z</time>
      </trkpt>
      <trkpt lat="41.5644660" lon="-0.9398050">
        <ele>312.9</ele>
        <time>2020-12-31T14:31:22Z</time>
      </trkpt>
      <trkpt lat="41.5644460" lon="-0.9398940">
        <ele>312.8</ele>
        <time>2020-12-31T14:31:24Z</time>
      </trkpt>
      <trkpt lat="41.5644400" lon="-0.9399560">
        <ele>312.6</ele>
        <time>2020-12-31T14:31:25Z</time>
      </trkpt>
      <trkpt lat="41.5644440" lon="-0.9399880">
        <ele>312.6</ele>
        <time>2020-12-31T14:31:26Z</time>
      </trkpt>
      <trkpt lat="41.5644490" lon="-0.9400090">
        <ele>312.5</ele>
        <time>2020-12-31T14:31:28Z</time>
      </trkpt>
      <trkpt lat="41.5644640" lon="-0.9400440">
        <ele>312.4</ele>
        <time>2020-12-31T14:31:29Z</time>
      </trkpt>
      <trkpt lat="41.5644770" lon="-0.9400770">
        <ele>312.4</ele>
        <time>2020-12-31T14:31:30Z</time>
      </trkpt>
      <trkpt lat="41.5644910" lon="-0.9401130">
        <ele>312.3</ele>
        <time>2020-12-31T14:31:31Z</time>
      </trkpt>
      <trkpt lat="41.5644970" lon="-0.9401500">
        <ele>312.2</ele>
        <time>2020-12-31T14:31:32Z</time>
      </trkpt>
      <trkpt lat="41.5645000" lon="-0.9401640">
        <ele>312.1</ele>
        <time>2020-12-31T14:31:33Z</time>
      </trkpt>
      <trkpt lat="41.5645140" lon="-0.9401990">
        <ele>312.1</ele>
        <time>2020-12-31T14:31:34Z</time>
      </trkpt>
      <trkpt lat="41.5645270" lon="-0.9402400">
        <ele>311.9</ele>
        <time>2020-12-31T14:31:36Z</time>
      </trkpt>
      <trkpt lat="41.5645370" lon="-0.9402730">
        <ele>311.9</ele>
        <time>2020-12-31T14:31:37Z</time>
      </trkpt>
      <trkpt lat="41.5645400" lon="-0.9402870">
        <ele>311.8</ele>
        <time>2020-12-31T14:31:39Z</time>
      </trkpt>
      <trkpt lat="41.5645410" lon="-0.9402950">
        <ele>311.8</ele>
        <time>2020-12-31T14:31:40Z</time>
      </trkpt>
      <trkpt lat="41.5645410" lon="-0.9402940">
        <ele>311.8</ele>
        <time>2020-12-31T14:31:42Z</time>
      </trkpt>
      <trkpt lat="41.5645400" lon="-0.9402930">
        <ele>311.8</ele>
        <time>2020-12-31T14:31:43Z</time>
      </trkpt>
      <trkpt lat="41.5645400" lon="-0.9402920">
        <ele>311.8</ele>
        <time>2020-12-31T14:31:44Z</time>
      </trkpt>
      <trkpt lat="41.5645410" lon="-0.9402950">
        <ele>311.8</ele>
        <time>2020-12-31T14:31:46Z</time>
      </trkpt>
      <trkpt lat="41.5645400" lon="-0.9402940">
        <ele>311.8</ele>
        <time>2020-12-31T14:31:47Z</time>
      </trkpt>
      <trkpt lat="41.5645420" lon="-0.9403010">
        <ele>311.8</ele>
        <time>2020-12-31T14:31:49Z</time>
      </trkpt>
      <trkpt lat="41.5645420" lon="-0.9403010">
        <ele>311.8</ele>
        <time>2020-12-31T14:31:50Z</time>
      </trkpt>
      <trkpt lat="41.5645420" lon="-0.9403020">
        <ele>311.8</ele>
        <time>2020-12-31T14:31:51Z</time>
      </trkpt>
      <trkpt lat="41.5645420" lon="-0.9403060">
        <ele>311.8</ele>
        <time>2020-12-31T14:31:53Z</time>
      </trkpt>
      <trkpt lat="41.5645420" lon="-0.9403110">
        <ele>311.8</ele>
        <time>2020-12-31T14:31:55Z</time>
      </trkpt>
      <trkpt lat="41.5645420" lon="-0.9403180">
        <ele>311.7</ele>
        <time>2020-12-31T14:31:56Z</time>
      </trkpt>
      <trkpt lat="41.5645440" lon="-0.9403250">
        <ele>311.7</ele>
        <time>2020-12-31T14:31:57Z</time>
      </trkpt>
      <trkpt lat="41.5645460" lon="-0.9403300">
        <ele>311.7</ele>
        <time>2020-12-31T14:31:58Z</time>
      </trkpt>
      <trkpt lat="41.5645460" lon="-0.9403380">
        <ele>311.7</ele>
        <time>2020-12-31T14:32:00Z</time>
      </trkpt>
      <trkpt lat="41.5645470" lon="-0.9403530">
        <ele>311.7</ele>
        <time>2020-12-31T14:32:01Z</time>
      </trkpt>
      <trkpt lat="41.5645480" lon="-0.9403570">
        <ele>311.7</ele>
        <time>2020-12-31T14:32:02Z</time>
      </trkpt>
      <trkpt lat="41.5645500" lon="-0.9403650">
        <ele>311.6</ele>
        <time>2020-12-31T14:32:03Z</time>
      </trkpt>
      <trkpt lat="41.5645520" lon="-0.9403710">
        <ele>311.6</ele>
        <time>2020-12-31T14:32:05Z</time>
      </trkpt>
      <trkpt lat="41.5645540" lon="-0.9403770">
        <ele>311.6</ele>
        <time>2020-12-31T14:32:06Z</time>
      </trkpt>
      <trkpt lat="41.5645610" lon="-0.9404080">
        <ele>311.5</ele>
        <time>2020-12-31T14:32:08Z</time>
      </trkpt>
      <trkpt lat="41.5645630" lon="-0.9404200">
        <ele>311.5</ele>
        <time>2020-12-31T14:32:09Z</time>
      </trkpt>
      <trkpt lat="41.5645630" lon="-0.9404350">
        <ele>311.5</ele>
        <time>2020-12-31T14:32:10Z</time>
      </trkpt>
      <trkpt lat="41.5645610" lon="-0.9404540">
        <ele>311.5</ele>
        <time>2020-12-31T14:32:11Z</time>
      </trkpt>
      <trkpt lat="41.5645560" lon="-0.9404760">
        <ele>311.5</ele>
        <time>2020-12-31T14:32:13Z</time>
      </trkpt>
      <trkpt lat="41.5645520" lon="-0.9404860">
        <ele>311.5</ele>
        <time>2020-12-31T14:32:14Z</time>
      </trkpt>
      <trkpt lat="41.5645490" lon="-0.9405000">
        <ele>311.4</ele>
        <time>2020-12-31T14:32:15Z</time>
      </trkpt>
      <trkpt lat="41.5645440" lon="-0.9405170">
        <ele>311.4</ele>
        <time>2020-12-31T14:32:17Z</time>
      </trkpt>
      <trkpt lat="41.5645310" lon="-0.9405200">
        <ele>311.4</ele>
        <time>2020-12-31T14:32:18Z</time>
      </trkpt>
      <trkpt lat="41.5645180" lon="-0.9405150">
        <ele>312.1</ele>
        <time>2020-12-31T14:32:19Z</time>
      </trkpt>
      <trkpt lat="41.5645060" lon="-0.9405090">
        <ele>312.2</ele>
        <time>2020-12-31T14:32:21Z</time>
      </trkpt>
      <trkpt lat="41.5644980" lon="-0.9405010">
        <ele>312.3</ele>
        <time>2020-12-31T14:32:22Z</time>
      </trkpt>
      <trkpt lat="41.5644910" lon="-0.9404890">
        <ele>312.5</ele>
        <time>2020-12-31T14:32:23Z</time>
      </trkpt>
      <trkpt lat="41.5644820" lon="-0.9404650">
        <ele>312.7</ele>
        <time>2020-12-31T14:32:25Z</time>
      </trkpt>
      <trkpt lat="41.5644800" lon="-0.9404530">
        <ele>312.9</ele>
        <time>2020-12-31T14:32:26Z</time>
      </trkpt>
      <trkpt lat="41.5644770" lon="-0.9404420">
        <ele>313.0</ele>
        <time>2020-12-31T14:32:27Z</time>
      </trkpt>
      <trkpt lat="41.5644740" lon="-0.9404180">
        <ele>313.3</ele>
        <time>2020-12-31T14:32:29Z</time>
      </trkpt>
      <trkpt lat="41.5644700" lon="-0.9404000">
        <ele>313.6</ele>
        <time>2020-12-31T14:32:31Z</time>
      </trkpt>
      <trkpt lat="41.5644650" lon="-0.9403860">
        <ele>313.8</ele>
        <time>2020-12-31T14:32:32Z</time>
      </trkpt>
      <trkpt lat="41.5644550" lon="-0.9403790">
        <ele>314.1</ele>
        <time>2020-12-31T14:32:33Z</time>
      </trkpt>
      <trkpt lat="41.5644440" lon="-0.9403730">
        <ele>314.3</ele>
        <time>2020-12-31T14:32:35Z</time>
      </trkpt>
      <trkpt lat="41.5644340" lon="-0.9403620">
        <ele>314.6</ele>
        <time>2020-12-31T14:32:36Z</time>
      </trkpt>
      <trkpt lat="41.5644270" lon="-0.9403530">
        <ele>314.8</ele>
        <time>2020-12-31T14:32:37Z</time>
      </trkpt>
      <trkpt lat="41.5644210" lon="-0.9403450">
        <ele>315.0</ele>
        <time>2020-12-31T14:32:39Z</time>
      </trkpt>
      <trkpt lat="41.5644190" lon="-0.9403430">
        <ele>315.0</ele>
        <time>2020-12-31T14:32:40Z</time>
      </trkpt>
      <trkpt lat="41.5644180" lon="-0.9403320">
        <ele>315.2</ele>
        <time>2020-12-31T14:32:42Z</time>
      </trkpt>
      <trkpt lat="41.5644190" lon="-0.9403210">
        <ele>315.4</ele>
        <time>2020-12-31T14:32:43Z</time>
      </trkpt>
      <trkpt lat="41.5644180" lon="-0.9403170">
        <ele>315.5</ele>
        <time>2020-12-31T14:32:44Z</time>
      </trkpt>
      <trkpt lat="41.5644170" lon="-0.9403150">
        <ele>315.5</ele>
        <time>2020-12-31T14:32:45Z</time>
      </trkpt>
      <trkpt lat="41.5644140" lon="-0.9403050">
        <ele>315.7</ele>
        <time>2020-12-31T14:32:46Z</time>
      </trkpt>
      <trkpt lat="41.5644090" lon="-0.9402770">
        <ele>316.1</ele>
        <time>2020-12-31T14:32:48Z</time>
      </trkpt>
      <trkpt lat="41.5644080" lon="-0.9402650">
        <ele>316.3</ele>
        <time>2020-12-31T14:32:49Z</time>
      </trkpt>
      <trkpt lat="41.5644060" lon="-0.9402540">
        <ele>316.5</ele>
        <time>2020-12-31T14:32:50Z</time>
      </trkpt>
      <trkpt lat="41.5644070" lon="-0.9402340">
        <ele>316.8</ele>
        <time>2020-12-31T14:32:52Z</time>
      </trkpt>
      <trkpt lat="41.5644080" lon="-0.9402230">
        <ele>316.9</ele>
        <time>2020-12-31T14:32:53Z</time>
      </trkpt>
      <trkpt lat="41.5644090" lon="-0.9402130">
        <ele>317.1</ele>
        <time>2020-12-31T14:32:54Z</time>
      </trkpt>
      <trkpt lat="41.5644080" lon="-0.9402020">
        <ele>317.2</ele>
        <time>2020-12-31T14:32:55Z</time>
      </trkpt>
      <trkpt lat="41.5644040" lon="-0.9401850">
        <ele>317.4</ele>
        <time>2020-12-31T14:32:57Z</time>
      </trkpt>
      <trkpt lat="41.5644040" lon="-0.9401740">
        <ele>317.6</ele>
        <time>2020-12-31T14:32:58Z</time>
      </trkpt>
      <trkpt lat="41.5644040" lon="-0.9401640">
        <ele>317.7</ele>
        <time>2020-12-31T14:32:59Z</time>
      </trkpt>
      <trkpt lat="41.5644050" lon="-0.9401450">
        <ele>317.9</ele>
        <time>2020-12-31T14:33:01Z</time>
      </trkpt>
      <trkpt lat="41.5644060" lon="-0.9401280">
        <ele>318.1</ele>
        <time>2020-12-31T14:33:02Z</time>
      </trkpt>
      <trkpt lat="41.5644090" lon="-0.9401090">
        <ele>318.2</ele>
        <time>2020-12-31T14:33:04Z</time>
      </trkpt>
      <trkpt lat="41.5644090" lon="-0.9400970">
        <ele>318.3</ele>
        <time>2020-12-31T14:33:05Z</time>
      </trkpt>
      <trkpt lat="41.5644100" lon="-0.9400830">
        <ele>318.5</ele>
        <time>2020-12-31T14:33:06Z</time>
      </trkpt>
      <trkpt lat="41.5644090" lon="-0.9400560">
        <ele>318.7</ele>
        <time>2020-12-31T14:33:08Z</time>
      </trkpt>
      <trkpt lat="41.5644070" lon="-0.9400370">
        <ele>318.8</ele>
        <time>2020-12-31T14:33:09Z</time>
      </trkpt>
      <trkpt lat="41.5643950" lon="-0.9400030">
        <ele>319.0</ele>
        <time>2020-12-31T14:33:10Z</time>
      </trkpt>
      <trkpt lat="41.5643890" lon="-0.9399910">
        <ele>319.1</ele>
        <time>2020-12-31T14:33:12Z</time>
      </trkpt>
      <trkpt lat="41.5643820" lon="-0.9399800">
        <ele>319.2</ele>
        <time>2020-12-31T14:33:13Z</time>
      </trkpt>
      <trkpt lat="41.5643760" lon="-0.9399680">
        <ele>319.3</ele>
        <time>2020-12-31T14:33:14Z</time>
      </trkpt>
      <trkpt lat="41.5643700" lon="-0.9399570">
        <ele>319.3</ele>
        <time>2020-12-31T14:33:15Z</time>
      </trkpt>
      <trkpt lat="41.5643650" lon="-0.9399400">
        <ele>319.4</ele>
        <time>2020-12-31T14:33:17Z</time>
      </trkpt>
      <trkpt lat="41.5643620" lon="-0.9399250">
        <ele>319.5</ele>
        <time>2020-12-31T14:33:18Z</time>
      </trkpt>
      <trkpt lat="41.5643590" lon="-0.9399100">
        <ele>319.5</ele>
        <time>2020-12-31T14:33:19Z</time>
      </trkpt>
      <trkpt lat="41.5643560" lon="-0.9398890">
        <ele>319.6</ele>
        <time>2020-12-31T14:33:20Z</time>
      </trkpt>
      <trkpt lat="41.5643550" lon="-0.9398730">
        <ele>319.7</ele>
        <time>2020-12-31T14:33:22Z</time>
      </trkpt>
      <trkpt lat="41.5643520" lon="-0.9398590">
        <ele>319.7</ele>
        <time>2020-12-31T14:33:23Z</time>
      </trkpt>
      <trkpt lat="41.5643490" lon="-0.9398480">
        <ele>319.8</ele>
        <time>2020-12-31T14:33:24Z</time>
      </trkpt>
      <trkpt lat="41.5643530" lon="-0.9398570">
        <ele>319.8</ele>
        <time>2020-12-31T14:33:26Z</time>
      </trkpt>
      <trkpt lat="41.5643570" lon="-0.9398430">
        <ele>319.9</ele>
        <time>2020-12-31T14:33:27Z</time>
      </trkpt>
      <trkpt lat="41.5643600" lon="-0.9398210">
        <ele>319.9</ele>
        <time>2020-12-31T14:33:29Z</time>
      </trkpt>
      <trkpt lat="41.5643530" lon="-0.9397820">
        <ele>320.0</ele>
        <time>2020-12-31T14:33:30Z</time>
      </trkpt>
      <trkpt lat="41.5643490" lon="-0.9397710">
        <ele>320.1</ele>
        <time>2020-12-31T14:33:31Z</time>
      </trkpt>
      <trkpt lat="41.5643380" lon="-0.9397280">
        <ele>320.2</ele>
        <time>2020-12-31T14:33:33Z</time>
      </trkpt>
      <trkpt lat="41.5643340" lon="-0.9397150">
        <ele>320.2</ele>
        <time>2020-12-31T14:33:34Z</time>
      </trkpt>
      <trkpt lat="41.5643210" lon="-0.9396660">
        <ele>320.4</ele>
        <time>2020-12-31T14:33:36Z</time>
      </trkpt>
      <trkpt lat="41.5643180" lon="-0.9396500">
        <ele>320.4</ele>
        <time>2020-12-31T14:33:37Z</time>
      </trkpt>
      <trkpt lat="41.5643120" lon="-0.9396130">
        <ele>320.5</ele>
        <time>2020-12-31T14:33:38Z</time>
      </trkpt>
      <trkpt lat="41.5643050" lon="-0.9395740">
        <ele>320.6</ele>
        <time>2020-12-31T14:33:39Z</time>
      </trkpt>
      <trkpt lat="41.5642930" lon="-0.9395340">
        <ele>320.8</ele>
        <time>2020-12-31T14:33:41Z</time>
      </trkpt>
      <trkpt lat="41.5642860" lon="-0.9394900">
        <ele>320.9</ele>
        <time>2020-12-31T14:33:42Z</time>
      </trkpt>
      <trkpt lat="41.5642760" lon="-0.9394340">
        <ele>321.1</ele>
        <time>2020-12-31T14:33:43Z</time>
      </trkpt>
      <trkpt lat="41.5642710" lon="-0.9394110">
        <ele>321.2</ele>
        <time>2020-12-31T14:33:44Z</time>
      </trkpt>
      <trkpt lat="41.5642670" lon="-0.9393690">
        <ele>321.3</ele>
        <time>2020-12-31T14:33:45Z</time>
      </trkpt>
      <trkpt lat="41.5642590" lon="-0.9393280">
        <ele>321.5</ele>
        <time>2020-12-31T14:33:47Z</time>
      </trkpt>
      <trkpt lat="41.5642450" lon="-0.9392670">
        <ele>321.7</ele>
        <time>2020-12-31T14:33:48Z</time>
      </trkpt>
      <trkpt lat="41.5642390" lon="-0.9392160">
        <ele>321.9</ele>
        <time>2020-12-31T14:33:49Z</time>
      </trkpt>
      <trkpt lat="41.5642280" lon="-0.9391090">
        <ele>322.3</ele>
        <time>2020-12-31T14:33:51Z</time>
      </trkpt>
      <trkpt lat="41.5642200" lon="-0.9390230">
        <ele>322.7</ele>
        <time>2020-12-31T14:33:52Z</time>
      </trkpt>
      <trkpt lat="41.5642080" lon="-0.9389340">
        <ele>323.0</ele>
        <time>2020-12-31T14:33:54Z</time>
      </trkpt>
      <trkpt lat="41.5641970" lon="-0.9388740">
        <ele>323.3</ele>
        <time>2020-12-31T14:33:55Z</time>
      </trkpt>
      <trkpt lat="41.5641900" lon="-0.9388140">
        <ele>323.5</ele>
        <time>2020-12-31T14:33:56Z</time>
      </trkpt>
      <trkpt lat="41.5641830" lon="-0.9387540">
        <ele>323.7</ele>
        <time>2020-12-31T14:33:57Z</time>
      </trkpt>
      <trkpt lat="41.5641710" lon="-0.9386910">
        <ele>324.0</ele>
        <time>2020-12-31T14:33:58Z</time>
      </trkpt>
      <trkpt lat="41.5641600" lon="-0.9385990">
        <ele>324.4</ele>
        <time>2020-12-31T14:34:00Z</time>
      </trkpt>
      <trkpt lat="41.5641730" lon="-0.9385140">
        <ele>324.7</ele>
        <time>2020-12-31T14:34:02Z</time>
      </trkpt>
      <trkpt lat="41.5641750" lon="-0.9384580">
        <ele>325.0</ele>
        <time>2020-12-31T14:34:03Z</time>
      </trkpt>
      <trkpt lat="41.5641750" lon="-0.9384080">
        <ele>325.2</ele>
        <time>2020-12-31T14:34:05Z</time>
      </trkpt>
      <trkpt lat="41.5641700" lon="-0.9383670">
        <ele>325.3</ele>
        <time>2020-12-31T14:34:06Z</time>
      </trkpt>
      <trkpt lat="41.5641670" lon="-0.9383260">
        <ele>325.5</ele>
        <time>2020-12-31T14:34:07Z</time>
      </trkpt>
      <trkpt lat="41.5641660" lon="-0.9382750">
        <ele>325.7</ele>
        <time>2020-12-31T14:34:08Z</time>
      </trkpt>
      <trkpt lat="41.5641690" lon="-0.9382300">
        <ele>325.9</ele>
        <time>2020-12-31T14:34:09Z</time>
      </trkpt>
      <trkpt lat="41.5642030" lon="-0.9381480">
        <ele>326.3</ele>
        <time>2020-12-31T14:34:11Z</time>
      </trkpt>
      <trkpt lat="41.5642430" lon="-0.9380950">
        <ele>326.6</ele>
        <time>2020-12-31T14:34:13Z</time>
      </trkpt>
      <trkpt lat="41.5642570" lon="-0.9380580">
        <ele>326.7</ele>
        <time>2020-12-31T14:34:14Z</time>
      </trkpt>
      <trkpt lat="41.5642840" lon="-0.9380130">
        <ele>327.0</ele>
        <time>2020-12-31T14:34:16Z</time>
      </trkpt>
      <trkpt lat="41.5643060" lon="-0.9379700">
        <ele>327.1</ele>
        <time>2020-12-31T14:34:17Z</time>
      </trkpt>
      <trkpt lat="41.5643360" lon="-0.9379040">
        <ele>327.4</ele>
        <time>2020-12-31T14:34:19Z</time>
      </trkpt>
      <trkpt lat="41.5643530" lon="-0.9378600">
        <ele>327.5</ele>
        <time>2020-12-31T14:34:20Z</time>
      </trkpt>
      <trkpt lat="41.5643700" lon="-0.9378290">
        <ele>327.6</ele>
        <time>2020-12-31T14:34:21Z</time>
      </trkpt>
      <trkpt lat="41.5643960" lon="-0.9377800">
        <ele>327.8</ele>
        <time>2020-12-31T14:34:23Z</time>
      </trkpt>
      <trkpt lat="41.5644240" lon="-0.9377310">
        <ele>328.0</ele>
        <time>2020-12-31T14:34:24Z</time>
      </trkpt>
      <trkpt lat="41.5644430" lon="-0.9376980">
        <ele>328.1</ele>
        <time>2020-12-31T14:34:25Z</time>
      </trkpt>
      <trkpt lat="41.5644730" lon="-0.9376370">
        <ele>328.3</ele>
        <time>2020-12-31T14:34:27Z</time>
      </trkpt>
      <trkpt lat="41.5645190" lon="-0.9375490">
        <ele>328.6</ele>
        <time>2020-12-31T14:34:29Z</time>
      </trkpt>
      <trkpt lat="41.5645510" lon="-0.9374520">
        <ele>328.9</ele>
        <time>2020-12-31T14:34:31Z</time>
      </trkpt>
      <trkpt lat="41.5645690" lon="-0.9373990">
        <ele>329.0</ele>
        <time>2020-12-31T14:34:32Z</time>
      </trkpt>
      <trkpt lat="41.5645880" lon="-0.9373530">
        <ele>329.2</ele>
        <time>2020-12-31T14:34:33Z</time>
      </trkpt>
      <trkpt lat="41.5646090" lon="-0.9373020">
        <ele>329.3</ele>
        <time>2020-12-31T14:34:34Z</time>
      </trkpt>
      <trkpt lat="41.5646370" lon="-0.9372460">
        <ele>329.5</ele>
        <time>2020-12-31T14:34:35Z</time>
      </trkpt>
      <trkpt lat="41.5646830" lon="-0.9371790">
        <ele>329.7</ele>
        <time>2020-12-31T14:34:37Z</time>
      </trkpt>
      <trkpt lat="41.5647150" lon="-0.9371240">
        <ele>329.9</ele>
        <time>2020-12-31T14:34:39Z</time>
      </trkpt>
      <trkpt lat="41.5647330" lon="-0.9370720">
        <ele>330.0</ele>
        <time>2020-12-31T14:34:40Z</time>
      </trkpt>
      <trkpt lat="41.5647340" lon="-0.9370120">
        <ele>330.2</ele>
        <time>2020-12-31T14:34:41Z</time>
      </trkpt>
      <trkpt lat="41.5647160" lon="-0.9369650">
        <ele>330.3</ele>
        <time>2020-12-31T14:34:42Z</time>
      </trkpt>
      <trkpt lat="41.5647020" lon="-0.9369250">
        <ele>330.4</ele>
        <time>2020-12-31T14:34:43Z</time>
      </trkpt>
      <trkpt lat="41.5647000" lon="-0.9368770">
        <ele>330.5</ele>
        <time>2020-12-31T14:34:45Z</time>
      </trkpt>
      <trkpt lat="41.5647160" lon="-0.9368310">
        <ele>330.7</ele>
        <time>2020-12-31T14:34:46Z</time>
      </trkpt>
      <trkpt lat="41.5647410" lon="-0.9368010">
        <ele>330.8</ele>
        <time>2020-12-31T14:34:47Z</time>
      </trkpt>
      <trkpt lat="41.5647650" lon="-0.9367790">
        <ele>330.9</ele>
        <time>2020-12-31T14:34:48Z</time>
      </trkpt>
      <trkpt lat="41.5647820" lon="-0.9367530">
        <ele>331.0</ele>
        <time>2020-12-31T14:34:49Z</time>
      </trkpt>
      <trkpt lat="41.5648140" lon="-0.9366940">
        <ele>331.1</ele>
        <time>2020-12-31T14:34:51Z</time>
      </trkpt>
      <trkpt lat="41.5648400" lon="-0.9366420">
        <ele>331.2</ele>
        <time>2020-12-31T14:34:52Z</time>
      </trkpt>
      <trkpt lat="41.5648380" lon="-0.9365920">
        <ele>331.3</ele>
        <time>2020-12-31T14:34:54Z</time>
      </trkpt>
      <trkpt lat="41.5648370" lon="-0.9365720">
        <ele>331.4</ele>
        <time>2020-12-31T14:34:55Z</time>
      </trkpt>
      <trkpt lat="41.5648290" lon="-0.9365210">
        <ele>331.4</ele>
        <time>2020-12-31T14:34:56Z</time>
      </trkpt>
      <trkpt lat="41.5648260" lon="-0.9364940">
        <ele>331.5</ele>
        <time>2020-12-31T14:34:58Z</time>
      </trkpt>
      <trkpt lat="41.5648220" lon="-0.9364680">
        <ele>331.5</ele>
        <time>2020-12-31T14:34:59Z</time>
      </trkpt>
      <trkpt lat="41.5648190" lon="-0.9364420">
        <ele>331.6</ele>
        <time>2020-12-31T14:35:00Z</time>
      </trkpt>
      <trkpt lat="41.5648240" lon="-0.9363680">
        <ele>331.7</ele>
        <time>2020-12-31T14:35:02Z</time>
      </trkpt>
      <trkpt lat="41.5648300" lon="-0.9362920">
        <ele>331.8</ele>
        <time>2020-12-31T14:35:03Z</time>
      </trkpt>
      <trkpt lat="41.5648350" lon="-0.9362390">
        <ele>331.9</ele>
        <time>2020-12-31T14:35:04Z</time>
      </trkpt>
      <trkpt lat="41.5648380" lon="-0.9361860">
        <ele>332.1</ele>
        <time>2020-12-31T14:35:05Z</time>
      </trkpt>
      <trkpt lat="41.5648380" lon="-0.9361380">
        <ele>332.2</ele>
        <time>2020-12-31T14:35:06Z</time>
      </trkpt>
      <trkpt lat="41.5648240" lon="-0.9360640">
        <ele>332.5</ele>
        <time>2020-12-31T14:35:07Z</time>
      </trkpt>
      <trkpt lat="41.5648130" lon="-0.9359890">
        <ele>332.8</ele>
        <time>2020-12-31T14:35:09Z</time>
      </trkpt>
      <trkpt lat="41.5648090" lon="-0.9359280">
        <ele>333.0</ele>
        <time>2020-12-31T14:35:10Z</time>
      </trkpt>
      <trkpt lat="41.5648000" lon="-0.9358530">
        <ele>333.3</ele>
        <time>2020-12-31T14:35:12Z</time>
      </trkpt>
      <trkpt lat="41.5647870" lon="-0.9358030">
        <ele>333.5</ele>
        <time>2020-12-31T14:35:13Z</time>
      </trkpt>
      <trkpt lat="41.5647750" lon="-0.9357510">
        <ele>333.7</ele>
        <time>2020-12-31T14:35:14Z</time>
      </trkpt>
      <trkpt lat="41.5647650" lon="-0.9357040">
        <ele>333.9</ele>
        <time>2020-12-31T14:35:15Z</time>
      </trkpt>
      <trkpt lat="41.5647530" lon="-0.9356490">
        <ele>334.1</ele>
        <time>2020-12-31T14:35:17Z</time>
      </trkpt>
      <trkpt lat="41.5647380" lon="-0.9355940">
        <ele>334.3</ele>
        <time>2020-12-31T14:35:18Z</time>
      </trkpt>
      <trkpt lat="41.5647210" lon="-0.9355410">
        <ele>334.6</ele>
        <time>2020-12-31T14:35:19Z</time>
      </trkpt>
      <trkpt lat="41.5647040" lon="-0.9354780">
        <ele>334.8</ele>
        <time>2020-12-31T14:35:21Z</time>
      </trkpt>
      <trkpt lat="41.5646870" lon="-0.9354110">
        <ele>335.1</ele>
        <time>2020-12-31T14:35:22Z</time>
      </trkpt>
      <trkpt lat="41.5646740" lon="-0.9353630">
        <ele>335.3</ele>
        <time>2020-12-31T14:35:23Z</time>
      </trkpt>
      <trkpt lat="41.5646560" lon="-0.9352860">
        <ele>335.6</ele>
        <time>2020-12-31T14:35:25Z</time>
      </trkpt>
      <trkpt lat="41.5646550" lon="-0.9352270">
        <ele>335.8</ele>
        <time>2020-12-31T14:35:26Z</time>
      </trkpt>
      <trkpt lat="41.5646460" lon="-0.9351390">
        <ele>336.1</ele>
        <time>2020-12-31T14:35:28Z</time>
      </trkpt>
      <trkpt lat="41.5646260" lon="-0.9350840">
        <ele>336.3</ele>
        <time>2020-12-31T14:35:29Z</time>
      </trkpt>
      <trkpt lat="41.5646070" lon="-0.9350510">
        <ele>336.4</ele>
        <time>2020-12-31T14:35:30Z</time>
      </trkpt>
      <trkpt lat="41.5645900" lon="-0.9349980">
        <ele>336.6</ele>
        <time>2020-12-31T14:35:31Z</time>
      </trkpt>
      <trkpt lat="41.5645850" lon="-0.9349770">
        <ele>336.7</ele>
        <time>2020-12-31T14:35:32Z</time>
      </trkpt>
      <trkpt lat="41.5645760" lon="-0.9349260">
        <ele>336.9</ele>
        <time>2020-12-31T14:35:34Z</time>
      </trkpt>
      <trkpt lat="41.5645670" lon="-0.9348780">
        <ele>337.1</ele>
        <time>2020-12-31T14:35:35Z</time>
      </trkpt>
      <trkpt lat="41.5645580" lon="-0.9348390">
        <ele>337.2</ele>
        <time>2020-12-31T14:35:36Z</time>
      </trkpt>
      <trkpt lat="41.5645500" lon="-0.9347910">
        <ele>337.3</ele>
        <time>2020-12-31T14:35:37Z</time>
      </trkpt>
      <trkpt lat="41.5645420" lon="-0.9347370">
        <ele>337.5</ele>
        <time>2020-12-31T14:35:39Z</time>
      </trkpt>
      <trkpt lat="41.5645340" lon="-0.9347000">
        <ele>337.6</ele>
        <time>2020-12-31T14:35:40Z</time>
      </trkpt>
      <trkpt lat="41.5645160" lon="-0.9346510">
        <ele>337.7</ele>
        <time>2020-12-31T14:35:42Z</time>
      </trkpt>
      <trkpt lat="41.5644940" lon="-0.9346000">
        <ele>337.8</ele>
        <time>2020-12-31T14:35:43Z</time>
      </trkpt>
      <trkpt lat="41.5644520" lon="-0.9345390">
        <ele>338.0</ele>
        <time>2020-12-31T14:35:45Z</time>
      </trkpt>
      <trkpt lat="41.5644210" lon="-0.9345090">
        <ele>338.1</ele>
        <time>2020-12-31T14:35:46Z</time>
      </trkpt>
      <trkpt lat="41.5644110" lon="-0.9345000">
        <ele>338.1</ele>
        <time>2020-12-31T14:35:47Z</time>
      </trkpt>
      <trkpt lat="41.5643860" lon="-0.9344800">
        <ele>338.1</ele>
        <time>2020-12-31T14:35:48Z</time>
      </trkpt>
      <trkpt lat="41.5643600" lon="-0.9344530">
        <ele>338.1</ele>
        <time>2020-12-31T14:35:49Z</time>
      </trkpt>
      <trkpt lat="41.5643230" lon="-0.9344110">
        <ele>338.2</ele>
        <time>2020-12-31T14:35:51Z</time>
      </trkpt>
      <trkpt lat="41.5643010" lon="-0.9343660">
        <ele>338.2</ele>
        <time>2020-12-31T14:35:53Z</time>
      </trkpt>
      <trkpt lat="41.5642940" lon="-0.9343500">
        <ele>338.2</ele>
        <time>2020-12-31T14:35:54Z</time>
      </trkpt>
      <trkpt lat="41.5642870" lon="-0.9343070">
        <ele>338.3</ele>
        <time>2020-12-31T14:35:55Z</time>
      </trkpt>
      <trkpt lat="41.5642640" lon="-0.9342180">
        <ele>338.3</ele>
        <time>2020-12-31T14:35:56Z</time>
      </trkpt>
      <trkpt lat="41.5642140" lon="-0.9340900">
        <ele>338.4</ele>
        <time>2020-12-31T14:35:58Z</time>
      </trkpt>
      <trkpt lat="41.5642180" lon="-0.9340260">
        <ele>338.5</ele>
        <time>2020-12-31T14:35:59Z</time>
      </trkpt>
      <trkpt lat="41.5642050" lon="-0.9339730">
        <ele>338.6</ele>
        <time>2020-12-31T14:36:00Z</time>
      </trkpt>
      <trkpt lat="41.5641990" lon="-0.9339100">
        <ele>338.7</ele>
        <time>2020-12-31T14:36:02Z</time>
      </trkpt>
      <trkpt lat="41.5641980" lon="-0.9338560">
        <ele>338.8</ele>
        <time>2020-12-31T14:36:03Z</time>
      </trkpt>
      <trkpt lat="41.5641720" lon="-0.9337600">
        <ele>339.0</ele>
        <time>2020-12-31T14:36:05Z</time>
      </trkpt>
      <trkpt lat="41.5641460" lon="-0.9337030">
        <ele>339.1</ele>
        <time>2020-12-31T14:36:06Z</time>
      </trkpt>
      <trkpt lat="41.5641150" lon="-0.9336200">
        <ele>339.2</ele>
        <time>2020-12-31T14:36:07Z</time>
      </trkpt>
      <trkpt lat="41.5640680" lon="-0.9335520">
        <ele>339.4</ele>
        <time>2020-12-31T14:36:09Z</time>
      </trkpt>
      <trkpt lat="41.5640460" lon="-0.9335060">
        <ele>339.5</ele>
        <time>2020-12-31T14:36:10Z</time>
      </trkpt>
      <trkpt lat="41.5640300" lon="-0.9334250">
        <ele>339.8</ele>
        <time>2020-12-31T14:36:12Z</time>
      </trkpt>
      <trkpt lat="41.5640140" lon="-0.9333730">
        <ele>340.1</ele>
        <time>2020-12-31T14:36:13Z</time>
      </trkpt>
      <trkpt lat="41.5640020" lon="-0.9332850">
        <ele>340.6</ele>
        <time>2020-12-31T14:36:14Z</time>
      </trkpt>
      <trkpt lat="41.5639720" lon="-0.9332300">
        <ele>341.0</ele>
        <time>2020-12-31T14:36:15Z</time>
      </trkpt>
      <trkpt lat="41.5639720" lon="-0.9331450">
        <ele>341.4</ele>
        <time>2020-12-31T14:36:17Z</time>
      </trkpt>
      <trkpt lat="41.5640110" lon="-0.9330910">
        <ele>341.8</ele>
        <time>2020-12-31T14:36:18Z</time>
      </trkpt>
      <trkpt lat="41.5640290" lon="-0.9330380">
        <ele>342.1</ele>
        <time>2020-12-31T14:36:20Z</time>
      </trkpt>
      <trkpt lat="41.5640480" lon="-0.9329950">
        <ele>342.4</ele>
        <time>2020-12-31T14:36:22Z</time>
      </trkpt>
      <trkpt lat="41.5640620" lon="-0.9329620">
        <ele>342.6</ele>
        <time>2020-12-31T14:36:23Z</time>
      </trkpt>
      <trkpt lat="41.5640680" lon="-0.9329090">
        <ele>342.9</ele>
        <time>2020-12-31T14:36:24Z</time>
      </trkpt>
      <trkpt lat="41.5640700" lon="-0.9328890">
        <ele>343.0</ele>
        <time>2020-12-31T14:36:25Z</time>
      </trkpt>
      <trkpt lat="41.5640820" lon="-0.9328340">
        <ele>343.3</ele>
        <time>2020-12-31T14:36:27Z</time>
      </trkpt>
      <trkpt lat="41.5640900" lon="-0.9328000">
        <ele>343.5</ele>
        <time>2020-12-31T14:36:28Z</time>
      </trkpt>
      <trkpt lat="41.5640940" lon="-0.9327670">
        <ele>343.7</ele>
        <time>2020-12-31T14:36:29Z</time>
      </trkpt>
      <trkpt lat="41.5640920" lon="-0.9327410">
        <ele>343.9</ele>
        <time>2020-12-31T14:36:31Z</time>
      </trkpt>
      <trkpt lat="41.5640910" lon="-0.9327460">
        <ele>343.9</ele>
        <time>2020-12-31T14:36:32Z</time>
      </trkpt>
      <trkpt lat="41.5640970" lon="-0.9327440">
        <ele>343.9</ele>
        <time>2020-12-31T14:36:33Z</time>
      </trkpt>
      <trkpt lat="41.5641070" lon="-0.9327280">
        <ele>344.0</ele>
        <time>2020-12-31T14:36:35Z</time>
      </trkpt>
      <trkpt lat="41.5641130" lon="-0.9327140">
        <ele>344.1</ele>
        <time>2020-12-31T14:36:36Z</time>
      </trkpt>
      <trkpt lat="41.5641240" lon="-0.9326890">
        <ele>344.3</ele>
        <time>2020-12-31T14:36:37Z</time>
      </trkpt>
      <trkpt lat="41.5641270" lon="-0.9326800">
        <ele>344.3</ele>
        <time>2020-12-31T14:36:38Z</time>
      </trkpt>
      <trkpt lat="41.5641310" lon="-0.9326710">
        <ele>344.4</ele>
        <time>2020-12-31T14:36:40Z</time>
      </trkpt>
      <trkpt lat="41.5641350" lon="-0.9326630">
        <ele>344.5</ele>
        <time>2020-12-31T14:36:41Z</time>
      </trkpt>
      <trkpt lat="41.5641390" lon="-0.9326540">
        <ele>344.5</ele>
        <time>2020-12-31T14:36:42Z</time>
      </trkpt>
      <trkpt lat="41.5641420" lon="-0.9326450">
        <ele>344.6</ele>
        <time>2020-12-31T14:36:44Z</time>
      </trkpt>
      <trkpt lat="41.5641460" lon="-0.9326360">
        <ele>344.6</ele>
        <time>2020-12-31T14:36:45Z</time>
      </trkpt>
      <trkpt lat="41.5641650" lon="-0.9325790">
        <ele>345.0</ele>
        <time>2020-12-31T14:36:47Z</time>
      </trkpt>
      <trkpt lat="41.5641700" lon="-0.9325630">
        <ele>345.1</ele>
        <time>2020-12-31T14:36:48Z</time>
      </trkpt>
      <trkpt lat="41.5641740" lon="-0.9325480">
        <ele>345.1</ele>
        <time>2020-12-31T14:36:49Z</time>
      </trkpt>
      <trkpt lat="41.5641820" lon="-0.9324950">
        <ele>345.4</ele>
        <time>2020-12-31T14:36:50Z</time>
      </trkpt>
      <trkpt lat="41.5641830" lon="-0.9324750">
        <ele>345.5</ele>
        <time>2020-12-31T14:36:51Z</time>
      </trkpt>
      <trkpt lat="41.5641840" lon="-0.9324290">
        <ele>345.8</ele>
        <time>2020-12-31T14:36:53Z</time>
      </trkpt>
      <trkpt lat="41.5641820" lon="-0.9323840">
        <ele>346.0</ele>
        <time>2020-12-31T14:36:54Z</time>
      </trkpt>
      <trkpt lat="41.5641800" lon="-0.9323490">
        <ele>346.2</ele>
        <time>2020-12-31T14:36:55Z</time>
      </trkpt>
      <trkpt lat="41.5641760" lon="-0.9323090">
        <ele>346.4</ele>
        <time>2020-12-31T14:36:57Z</time>
      </trkpt>
      <trkpt lat="41.5641780" lon="-0.9322620">
        <ele>346.7</ele>
        <time>2020-12-31T14:36:58Z</time>
      </trkpt>
      <trkpt lat="41.5641870" lon="-0.9322240">
        <ele>346.9</ele>
        <time>2020-12-31T14:36:59Z</time>
      </trkpt>
      <trkpt lat="41.5641910" lon="-0.9321940">
        <ele>347.1</ele>
        <time>2020-12-31T14:37:00Z</time>
      </trkpt>
      <trkpt lat="41.5641980" lon="-0.9321580">
        <ele>347.3</ele>
        <time>2020-12-31T14:37:02Z</time>
      </trkpt>
      <trkpt lat="41.5642060" lon="-0.9321030">
        <ele>347.6</ele>
        <time>2020-12-31T14:37:03Z</time>
      </trkpt>
      <trkpt lat="41.5642120" lon="-0.9320620">
        <ele>347.8</ele>
        <time>2020-12-31T14:37:05Z</time>
      </trkpt>
      <trkpt lat="41.5642180" lon="-0.9320070">
        <ele>348.1</ele>
        <time>2020-12-31T14:37:06Z</time>
      </trkpt>
      <trkpt lat="41.5642170" lon="-0.9319400">
        <ele>348.5</ele>
        <time>2020-12-31T14:37:08Z</time>
      </trkpt>
      <trkpt lat="41.5641970" lon="-0.9318780">
        <ele>348.8</ele>
        <time>2020-12-31T14:37:10Z</time>
      </trkpt>
      <trkpt lat="41.5641810" lon="-0.9318300">
        <ele>349.1</ele>
        <time>2020-12-31T14:37:11Z</time>
      </trkpt>
      <trkpt lat="41.5641680" lon="-0.9317920">
        <ele>349.4</ele>
        <time>2020-12-31T14:37:12Z</time>
      </trkpt>
      <trkpt lat="41.5641560" lon="-0.9317590">
        <ele>349.6</ele>
        <time>2020-12-31T14:37:13Z</time>
      </trkpt>
      <trkpt lat="41.5641430" lon="-0.9317140">
        <ele>349.8</ele>
        <time>2020-12-31T14:37:14Z</time>
      </trkpt>
      <trkpt lat="41.5641380" lon="-0.9316970">
        <ele>349.9</ele>
        <time>2020-12-31T14:37:15Z</time>
      </trkpt>
      <trkpt lat="41.5641240" lon="-0.9316580">
        <ele>350.2</ele>
        <time>2020-12-31T14:37:16Z</time>
      </trkpt>
      <trkpt lat="41.5641030" lon="-0.9316070">
        <ele>350.5</ele>
        <time>2020-12-31T14:37:18Z</time>
      </trkpt>
      <trkpt lat="41.5640830" lon="-0.9315700">
        <ele>350.7</ele>
        <time>2020-12-31T14:37:19Z</time>
      </trkpt>
      <trkpt lat="41.5640660" lon="-0.9315400">
        <ele>350.9</ele>
        <time>2020-12-31T14:37:20Z</time>
      </trkpt>
      <trkpt lat="41.5640470" lon="-0.9315160">
        <ele>351.1</ele>
        <time>2020-12-31T14:37:21Z</time>
      </trkpt>
      <trkpt lat="41.5640230" lon="-0.9314770">
        <ele>351.4</ele>
        <time>2020-12-31T14:37:23Z</time>
      </trkpt>
      <trkpt lat="41.5639990" lon="-0.9314520">
        <ele>351.6</ele>
        <time>2020-12-31T14:37:24Z</time>
      </trkpt>
      <trkpt lat="41.5639720" lon="-0.9314220">
        <ele>351.9</ele>
        <time>2020-12-31T14:37:26Z</time>
      </trkpt>
      <trkpt lat="41.5639500" lon="-0.9313940">
        <ele>352.1</ele>
        <time>2020-12-31T14:37:27Z</time>
      </trkpt>
      <trkpt lat="41.5639250" lon="-0.9313610">
        <ele>352.3</ele>
        <time>2020-12-31T14:37:28Z</time>
      </trkpt>
      <trkpt lat="41.5638990" lon="-0.9313330">
        <ele>352.6</ele>
        <time>2020-12-31T14:37:29Z</time>
      </trkpt>
      <trkpt lat="41.5638600" lon="-0.9312990">
        <ele>352.9</ele>
        <time>2020-12-31T14:37:30Z</time>
      </trkpt>
      <trkpt lat="41.5638180" lon="-0.9312750">
        <ele>353.3</ele>
        <time>2020-12-31T14:37:31Z</time>
      </trkpt>
      <trkpt lat="41.5637760" lon="-0.9312420">
        <ele>353.6</ele>
        <time>2020-12-31T14:37:33Z</time>
      </trkpt>
      <trkpt lat="41.5637660" lon="-0.9312260">
        <ele>353.7</ele>
        <time>2020-12-31T14:37:34Z</time>
      </trkpt>
      <trkpt lat="41.5637560" lon="-0.9312110">
        <ele>353.8</ele>
        <time>2020-12-31T14:37:35Z</time>
      </trkpt>
      <trkpt lat="41.5637390" lon="-0.9311890">
        <ele>354.0</ele>
        <time>2020-12-31T14:37:36Z</time>
      </trkpt>
      <trkpt lat="41.5637210" lon="-0.9311610">
        <ele>354.2</ele>
        <time>2020-12-31T14:37:38Z</time>
      </trkpt>
      <trkpt lat="41.5637020" lon="-0.9311250">
        <ele>354.4</ele>
        <time>2020-12-31T14:37:39Z</time>
      </trkpt>
      <trkpt lat="41.5636830" lon="-0.9310840">
        <ele>354.7</ele>
        <time>2020-12-31T14:37:40Z</time>
      </trkpt>
      <trkpt lat="41.5636770" lon="-0.9310720">
        <ele>354.8</ele>
        <time>2020-12-31T14:37:41Z</time>
      </trkpt>
      <trkpt lat="41.5636520" lon="-0.9310290">
        <ele>355.1</ele>
        <time>2020-12-31T14:37:43Z</time>
      </trkpt>
      <trkpt lat="41.5636360" lon="-0.9310110">
        <ele>355.2</ele>
        <time>2020-12-31T14:37:44Z</time>
      </trkpt>
      <trkpt lat="41.5636140" lon="-0.9309840">
        <ele>355.4</ele>
        <time>2020-12-31T14:37:46Z</time>
      </trkpt>
      <trkpt lat="41.5635950" lon="-0.9309760">
        <ele>355.6</ele>
        <time>2020-12-31T14:37:47Z</time>
      </trkpt>
      <trkpt lat="41.5635690" lon="-0.9309780">
        <ele>355.8</ele>
        <time>2020-12-31T14:37:49Z</time>
      </trkpt>
      <trkpt lat="41.5635500" lon="-0.9309790">
        <ele>355.9</ele>
        <time>2020-12-31T14:37:50Z</time>
      </trkpt>
      <trkpt lat="41.5635360" lon="-0.9309800">
        <ele>356.0</ele>
        <time>2020-12-31T14:37:51Z</time>
      </trkpt>
      <trkpt lat="41.5634940" lon="-0.9309710">
        <ele>356.3</ele>
        <time>2020-12-31T14:37:52Z</time>
      </trkpt>
      <trkpt lat="41.5634770" lon="-0.9309680">
        <ele>356.5</ele>
        <time>2020-12-31T14:37:53Z</time>
      </trkpt>
      <trkpt lat="41.5634490" lon="-0.9309570">
        <ele>356.7</ele>
        <time>2020-12-31T14:37:54Z</time>
      </trkpt>
      <trkpt lat="41.5634230" lon="-0.9309410">
        <ele>356.9</ele>
        <time>2020-12-31T14:37:55Z</time>
      </trkpt>
      <trkpt lat="41.5634020" lon="-0.9309310">
        <ele>357.0</ele>
        <time>2020-12-31T14:37:56Z</time>
      </trkpt>
      <trkpt lat="41.5633780" lon="-0.9309210">
        <ele>357.2</ele>
        <time>2020-12-31T14:37:58Z</time>
      </trkpt>
      <trkpt lat="41.5633280" lon="-0.9309130">
        <ele>357.6</ele>
        <time>2020-12-31T14:38:00Z</time>
      </trkpt>
      <trkpt lat="41.5633090" lon="-0.9309080">
        <ele>357.7</ele>
        <time>2020-12-31T14:38:01Z</time>
      </trkpt>
      <trkpt lat="41.5632910" lon="-0.9309020">
        <ele>357.9</ele>
        <time>2020-12-31T14:38:02Z</time>
      </trkpt>
      <trkpt lat="41.5632670" lon="-0.9308940">
        <ele>358.0</ele>
        <time>2020-12-31T14:38:03Z</time>
      </trkpt>
      <trkpt lat="41.5632460" lon="-0.9308740">
        <ele>358.2</ele>
        <time>2020-12-31T14:38:05Z</time>
      </trkpt>
      <trkpt lat="41.5632170" lon="-0.9308630">
        <ele>358.4</ele>
        <time>2020-12-31T14:38:06Z</time>
      </trkpt>
      <trkpt lat="41.5632060" lon="-0.9308590">
        <ele>358.5</ele>
        <time>2020-12-31T14:38:07Z</time>
      </trkpt>
      <trkpt lat="41.5631870" lon="-0.9308520">
        <ele>358.7</ele>
        <time>2020-12-31T14:38:08Z</time>
      </trkpt>
      <trkpt lat="41.5631520" lon="-0.9308400">
        <ele>358.9</ele>
        <time>2020-12-31T14:38:10Z</time>
      </trkpt>
      <trkpt lat="41.5631060" lon="-0.9308340">
        <ele>359.3</ele>
        <time>2020-12-31T14:38:12Z</time>
      </trkpt>
      <trkpt lat="41.5630760" lon="-0.9308340">
        <ele>359.5</ele>
        <time>2020-12-31T14:38:13Z</time>
      </trkpt>
      <trkpt lat="41.5630440" lon="-0.9308280">
        <ele>359.7</ele>
        <time>2020-12-31T14:38:14Z</time>
      </trkpt>
      <trkpt lat="41.5630170" lon="-0.9308170">
        <ele>359.9</ele>
        <time>2020-12-31T14:38:15Z</time>
      </trkpt>
      <trkpt lat="41.5629880" lon="-0.9308110">
        <ele>360.1</ele>
        <time>2020-12-31T14:38:16Z</time>
      </trkpt>
      <trkpt lat="41.5629600" lon="-0.9308100">
        <ele>360.3</ele>
        <time>2020-12-31T14:38:17Z</time>
      </trkpt>
      <trkpt lat="41.5629350" lon="-0.9308110">
        <ele>360.5</ele>
        <time>2020-12-31T14:38:18Z</time>
      </trkpt>
      <trkpt lat="41.5629040" lon="-0.9308190">
        <ele>360.8</ele>
        <time>2020-12-31T14:38:20Z</time>
      </trkpt>
      <trkpt lat="41.5628770" lon="-0.9308330">
        <ele>361.0</ele>
        <time>2020-12-31T14:38:21Z</time>
      </trkpt>
      <trkpt lat="41.5628360" lon="-0.9308460">
        <ele>361.3</ele>
        <time>2020-12-31T14:38:22Z</time>
      </trkpt>
      <trkpt lat="41.5628210" lon="-0.9308490">
        <ele>361.4</ele>
        <time>2020-12-31T14:38:23Z</time>
      </trkpt>
      <trkpt lat="41.5627970" lon="-0.9308510">
        <ele>361.6</ele>
        <time>2020-12-31T14:38:24Z</time>
      </trkpt>
      <trkpt lat="41.5627680" lon="-0.9308450">
        <ele>361.8</ele>
        <time>2020-12-31T14:38:26Z</time>
      </trkpt>
      <trkpt lat="41.5627330" lon="-0.9308220">
        <ele>362.1</ele>
        <time>2020-12-31T14:38:27Z</time>
      </trkpt>
      <trkpt lat="41.5627210" lon="-0.9308120">
        <ele>362.2</ele>
        <time>2020-12-31T14:38:28Z</time>
      </trkpt>
      <trkpt lat="41.5626890" lon="-0.9307830">
        <ele>362.4</ele>
        <time>2020-12-31T14:38:29Z</time>
      </trkpt>
      <trkpt lat="41.5626770" lon="-0.9307740">
        <ele>362.5</ele>
        <time>2020-12-31T14:38:30Z</time>
      </trkpt>
      <trkpt lat="41.5626540" lon="-0.9307600">
        <ele>362.7</ele>
        <time>2020-12-31T14:38:31Z</time>
      </trkpt>
      <trkpt lat="41.5626220" lon="-0.9307440">
        <ele>363.0</ele>
        <time>2020-12-31T14:38:33Z</time>
      </trkpt>
      <trkpt lat="41.5625950" lon="-0.9307240">
        <ele>363.2</ele>
        <time>2020-12-31T14:38:34Z</time>
      </trkpt>
      <trkpt lat="41.5625720" lon="-0.9307020">
        <ele>363.4</ele>
        <time>2020-12-31T14:38:35Z</time>
      </trkpt>
      <trkpt lat="41.5625650" lon="-0.9306960">
        <ele>363.5</ele>
        <time>2020-12-31T14:38:36Z</time>
      </trkpt>
      <trkpt lat="41.5625310" lon="-0.9306820">
        <ele>363.7</ele>
        <time>2020-12-31T14:38:38Z</time>
      </trkpt>
      <trkpt lat="41.5625190" lon="-0.9306770">
        <ele>363.8</ele>
        <time>2020-12-31T14:38:39Z</time>
      </trkpt>
      <trkpt lat="41.5625010" lon="-0.9306680">
        <ele>363.9</ele>
        <time>2020-12-31T14:38:40Z</time>
      </trkpt>
      <trkpt lat="41.5624730" lon="-0.9306440">
        <ele>364.2</ele>
        <time>2020-12-31T14:38:42Z</time>
      </trkpt>
      <trkpt lat="41.5624410" lon="-0.9306130">
        <ele>364.5</ele>
        <time>2020-12-31T14:38:43Z</time>
      </trkpt>
      <trkpt lat="41.5624300" lon="-0.9306020">
        <ele>364.6</ele>
        <time>2020-12-31T14:38:44Z</time>
      </trkpt>
      <trkpt lat="41.5624000" lon="-0.9305750">
        <ele>364.8</ele>
        <time>2020-12-31T14:38:46Z</time>
      </trkpt>
      <trkpt lat="41.5623830" lon="-0.9305610">
        <ele>365.0</ele>
        <time>2020-12-31T14:38:47Z</time>
      </trkpt>
      <trkpt lat="41.5623600" lon="-0.9305380">
        <ele>365.2</ele>
        <time>2020-12-31T14:38:49Z</time>
      </trkpt>
      <trkpt lat="41.5623270" lon="-0.9305140">
        <ele>365.5</ele>
        <time>2020-12-31T14:38:50Z</time>
      </trkpt>
      <trkpt lat="41.5623150" lon="-0.9305060">
        <ele>365.6</ele>
        <time>2020-12-31T14:38:51Z</time>
      </trkpt>
      <trkpt lat="41.5622890" lon="-0.9304880">
        <ele>365.8</ele>
        <time>2020-12-31T14:38:52Z</time>
      </trkpt>
      <trkpt lat="41.5622610" lon="-0.9304690">
        <ele>366.0</ele>
        <time>2020-12-31T14:38:53Z</time>
      </trkpt>
      <trkpt lat="41.5622310" lon="-0.9304500">
        <ele>366.2</ele>
        <time>2020-12-31T14:38:55Z</time>
      </trkpt>
      <trkpt lat="41.5621960" lon="-0.9304340">
        <ele>366.5</ele>
        <time>2020-12-31T14:38:56Z</time>
      </trkpt>
      <trkpt lat="41.5621500" lon="-0.9303950">
        <ele>366.9</ele>
        <time>2020-12-31T14:38:58Z</time>
      </trkpt>
      <trkpt lat="41.5621360" lon="-0.9303770">
        <ele>367.0</ele>
        <time>2020-12-31T14:38:59Z</time>
      </trkpt>
      <trkpt lat="41.5621220" lon="-0.9303580">
        <ele>367.2</ele>
        <time>2020-12-31T14:39:00Z</time>
      </trkpt>
      <trkpt lat="41.5620770" lon="-0.9303110">
        <ele>367.6</ele>
        <time>2020-12-31T14:39:02Z</time>
      </trkpt>
      <trkpt lat="41.5620450" lon="-0.9302920">
        <ele>367.9</ele>
        <time>2020-12-31T14:39:03Z</time>
      </trkpt>
      <trkpt lat="41.5620070" lon="-0.9302720">
        <ele>368.2</ele>
        <time>2020-12-31T14:39:05Z</time>
      </trkpt>
      <trkpt lat="41.5619760" lon="-0.9302620">
        <ele>368.4</ele>
        <time>2020-12-31T14:39:06Z</time>
      </trkpt>
      <trkpt lat="41.5619470" lon="-0.9302360">
        <ele>368.6</ele>
        <time>2020-12-31T14:39:07Z</time>
      </trkpt>
      <trkpt lat="41.5619360" lon="-0.9302240">
        <ele>368.7</ele>
        <time>2020-12-31T14:39:08Z</time>
      </trkpt>
      <trkpt lat="41.5619200" lon="-0.9301990">
        <ele>368.9</ele>
        <time>2020-12-31T14:39:09Z</time>
      </trkpt>
      <trkpt lat="41.5618960" lon="-0.9301570">
        <ele>369.2</ele>
        <time>2020-12-31T14:39:11Z</time>
      </trkpt>
      <trkpt lat="41.5618740" lon="-0.9301160">
        <ele>369.5</ele>
        <time>2020-12-31T14:39:12Z</time>
      </trkpt>
      <trkpt lat="41.5618660" lon="-0.9301020">
        <ele>369.6</ele>
        <time>2020-12-31T14:39:13Z</time>
      </trkpt>
      <trkpt lat="41.5618480" lon="-0.9300740">
        <ele>369.8</ele>
        <time>2020-12-31T14:39:14Z</time>
      </trkpt>
      <trkpt lat="41.5618320" lon="-0.9300200">
        <ele>370.1</ele>
        <time>2020-12-31T14:39:16Z</time>
      </trkpt>
      <trkpt lat="41.5618270" lon="-0.9299990">
        <ele>370.2</ele>
        <time>2020-12-31T14:39:17Z</time>
      </trkpt>
      <trkpt lat="41.5618180" lon="-0.9299590">
        <ele>370.4</ele>
        <time>2020-12-31T14:39:18Z</time>
      </trkpt>
      <trkpt lat="41.5618020" lon="-0.9299120">
        <ele>370.7</ele>
        <time>2020-12-31T14:39:19Z</time>
      </trkpt>
      <trkpt lat="41.5617750" lon="-0.9298490">
        <ele>371.1</ele>
        <time>2020-12-31T14:39:21Z</time>
      </trkpt>
      <trkpt lat="41.5617580" lon="-0.9298180">
        <ele>371.3</ele>
        <time>2020-12-31T14:39:22Z</time>
      </trkpt>
      <trkpt lat="41.5617480" lon="-0.9297830">
        <ele>371.5</ele>
        <time>2020-12-31T14:39:23Z</time>
      </trkpt>
      <trkpt lat="41.5617440" lon="-0.9297450">
        <ele>371.7</ele>
        <time>2020-12-31T14:39:24Z</time>
      </trkpt>
      <trkpt lat="41.5617340" lon="-0.9296910">
        <ele>372.0</ele>
        <time>2020-12-31T14:39:26Z</time>
      </trkpt>
      <trkpt lat="41.5617280" lon="-0.9296730">
        <ele>372.2</ele>
        <time>2020-12-31T14:39:27Z</time>
      </trkpt>
      <trkpt lat="41.5617120" lon="-0.9296390">
        <ele>372.4</ele>
        <time>2020-12-31T14:39:28Z</time>
      </trkpt>
      <trkpt lat="41.5616990" lon="-0.9296100">
        <ele>372.6</ele>
        <time>2020-12-31T14:39:29Z</time>
      </trkpt>
      <trkpt lat="41.5616820" lon="-0.9295710">
        <ele>372.8</ele>
        <time>2020-12-31T14:39:31Z</time>
      </trkpt>
      <trkpt lat="41.5616620" lon="-0.9295210">
        <ele>373.1</ele>
        <time>2020-12-31T14:39:33Z</time>
      </trkpt>
      <trkpt lat="41.5616470" lon="-0.9294900">
        <ele>373.3</ele>
        <time>2020-12-31T14:39:34Z</time>
      </trkpt>
      <trkpt lat="41.5616300" lon="-0.9294540">
        <ele>373.5</ele>
        <time>2020-12-31T14:39:35Z</time>
      </trkpt>
      <trkpt lat="41.5616250" lon="-0.9294430">
        <ele>373.6</ele>
        <time>2020-12-31T14:39:36Z</time>
      </trkpt>
      <trkpt lat="41.5616110" lon="-0.9293990">
        <ele>373.9</ele>
        <time>2020-12-31T14:39:38Z</time>
      </trkpt>
      <trkpt lat="41.5616040" lon="-0.9293780">
        <ele>374.0</ele>
        <time>2020-12-31T14:39:39Z</time>
      </trkpt>
      <trkpt lat="41.5615990" lon="-0.9293590">
        <ele>374.1</ele>
        <time>2020-12-31T14:39:40Z</time>
      </trkpt>
      <trkpt lat="41.5615930" lon="-0.9293400">
        <ele>374.2</ele>
        <time>2020-12-31T14:39:41Z</time>
      </trkpt>
      <trkpt lat="41.5615850" lon="-0.9293120">
        <ele>374.4</ele>
        <time>2020-12-31T14:39:43Z</time>
      </trkpt>
      <trkpt lat="41.5615810" lon="-0.9292680">
        <ele>374.6</ele>
        <time>2020-12-31T14:39:44Z</time>
      </trkpt>
      <trkpt lat="41.5615800" lon="-0.9292330">
        <ele>374.8</ele>
        <time>2020-12-31T14:39:45Z</time>
      </trkpt>
      <trkpt lat="41.5615780" lon="-0.9291930">
        <ele>375.0</ele>
        <time>2020-12-31T14:39:47Z</time>
      </trkpt>
      <trkpt lat="41.5615750" lon="-0.9291500">
        <ele>375.3</ele>
        <time>2020-12-31T14:39:48Z</time>
      </trkpt>
      <trkpt lat="41.5615670" lon="-0.9291080">
        <ele>375.5</ele>
        <time>2020-12-31T14:39:49Z</time>
      </trkpt>
      <trkpt lat="41.5615600" lon="-0.9290710">
        <ele>375.7</ele>
        <time>2020-12-31T14:39:50Z</time>
      </trkpt>
      <trkpt lat="41.5615480" lon="-0.9290060">
        <ele>376.1</ele>
        <time>2020-12-31T14:39:52Z</time>
      </trkpt>
      <trkpt lat="41.5615420" lon="-0.9289690">
        <ele>376.3</ele>
        <time>2020-12-31T14:39:53Z</time>
      </trkpt>
      <trkpt lat="41.5615330" lon="-0.9289240">
        <ele>376.5</ele>
        <time>2020-12-31T14:39:54Z</time>
      </trkpt>
      <trkpt lat="41.5615250" lon="-0.9288810">
        <ele>376.8</ele>
        <time>2020-12-31T14:39:56Z</time>
      </trkpt>
      <trkpt lat="41.5615220" lon="-0.9288680">
        <ele>376.8</ele>
        <time>2020-12-31T14:39:57Z</time>
      </trkpt>
      <trkpt lat="41.5615190" lon="-0.9288480">
        <ele>377.0</ele>
        <time>2020-12-31T14:39:58Z</time>
      </trkpt>
      <trkpt lat="41.5615130" lon="-0.9288240">
        <ele>377.1</ele>
        <time>2020-12-31T14:40:00Z</time>
      </trkpt>
      <trkpt lat="41.5615070" lon="-0.9288080">
        <ele>377.2</ele>
        <time>2020-12-31T14:40:01Z</time>
      </trkpt>
      <trkpt lat="41.5614920" lon="-0.9287920">
        <ele>377.3</ele>
        <time>2020-12-31T14:40:02Z</time>
      </trkpt>
      <trkpt lat="41.5614790" lon="-0.9287750">
        <ele>377.5</ele>
        <time>2020-12-31T14:40:03Z</time>
      </trkpt>
      <trkpt lat="41.5614600" lon="-0.9287360">
        <ele>377.7</ele>
        <time>2020-12-31T14:40:05Z</time>
      </trkpt>
      <trkpt lat="41.5614590" lon="-0.9287160">
        <ele>377.8</ele>
        <time>2020-12-31T14:40:06Z</time>
      </trkpt>
      <trkpt lat="41.5614590" lon="-0.9286930">
        <ele>377.9</ele>
        <time>2020-12-31T14:40:07Z</time>
      </trkpt>
      <trkpt lat="41.5614740" lon="-0.9286550">
        <ele>378.2</ele>
        <time>2020-12-31T14:40:09Z</time>
      </trkpt>
      <trkpt lat="41.5614810" lon="-0.9286460">
        <ele>378.2</ele>
        <time>2020-12-31T14:40:10Z</time>
      </trkpt>
      <trkpt lat="41.5615010" lon="-0.9286310">
        <ele>378.4</ele>
        <time>2020-12-31T14:40:11Z</time>
      </trkpt>
      <trkpt lat="41.5615240" lon="-0.9286180">
        <ele>378.6</ele>
        <time>2020-12-31T14:40:13Z</time>
      </trkpt>
      <trkpt lat="41.5615420" lon="-0.9285870">
        <ele>378.8</ele>
        <time>2020-12-31T14:40:14Z</time>
      </trkpt>
      <trkpt lat="41.5615460" lon="-0.9285640">
        <ele>378.9</ele>
        <time>2020-12-31T14:40:16Z</time>
      </trkpt>
      <trkpt lat="41.5615460" lon="-0.9285380">
        <ele>379.1</ele>
        <time>2020-12-31T14:40:17Z</time>
      </trkpt>
      <trkpt lat="41.5615410" lon="-0.9285170">
        <ele>379.2</ele>
        <time>2020-12-31T14:40:18Z</time>
      </trkpt>
      <trkpt lat="41.5615340" lon="-0.9284940">
        <ele>379.3</ele>
        <time>2020-12-31T14:40:19Z</time>
      </trkpt>
      <trkpt lat="41.5615390" lon="-0.9284560">
        <ele>379.5</ele>
        <time>2020-12-31T14:40:21Z</time>
      </trkpt>
      <trkpt lat="41.5615410" lon="-0.9284420">
        <ele>379.6</ele>
        <time>2020-12-31T14:40:22Z</time>
      </trkpt>
      <trkpt lat="41.5615470" lon="-0.9283780">
        <ele>380.0</ele>
        <time>2020-12-31T14:40:24Z</time>
      </trkpt>
      <trkpt lat="41.5615500" lon="-0.9283590">
        <ele>380.1</ele>
        <time>2020-12-31T14:40:25Z</time>
      </trkpt>
      <trkpt lat="41.5615530" lon="-0.9283390">
        <ele>380.2</ele>
        <time>2020-12-31T14:40:26Z</time>
      </trkpt>
      <trkpt lat="41.5615620" lon="-0.9283080">
        <ele>380.4</ele>
        <time>2020-12-31T14:40:27Z</time>
      </trkpt>
      <trkpt lat="41.5615750" lon="-0.9282500">
        <ele>380.7</ele>
        <time>2020-12-31T14:40:29Z</time>
      </trkpt>
      <trkpt lat="41.5615760" lon="-0.9282260">
        <ele>380.8</ele>
        <time>2020-12-31T14:40:30Z</time>
      </trkpt>
      <trkpt lat="41.5615760" lon="-0.9282130">
        <ele>380.9</ele>
        <time>2020-12-31T14:40:31Z</time>
      </trkpt>
      <trkpt lat="41.5615850" lon="-0.9282040">
        <ele>381.0</ele>
        <time>2020-12-31T14:40:32Z</time>
      </trkpt>
      <trkpt lat="41.5615920" lon="-0.9281820">
        <ele>381.1</ele>
        <time>2020-12-31T14:40:34Z</time>
      </trkpt>
      <trkpt lat="41.5615960" lon="-0.9281690">
        <ele>381.2</ele>
        <time>2020-12-31T14:40:35Z</time>
      </trkpt>
      <trkpt lat="41.5616000" lon="-0.9281560">
        <ele>381.3</ele>
        <time>2020-12-31T14:40:36Z</time>
      </trkpt>
      <trkpt lat="41.5616070" lon="-0.9281230">
        <ele>381.4</ele>
        <time>2020-12-31T14:40:38Z</time>
      </trkpt>
      <trkpt lat="41.5616100" lon="-0.9280960">
        <ele>381.6</ele>
        <time>2020-12-31T14:40:39Z</time>
      </trkpt>
      <trkpt lat="41.5616130" lon="-0.9280430">
        <ele>381.9</ele>
        <time>2020-12-31T14:40:41Z</time>
      </trkpt>
      <trkpt lat="41.5616180" lon="-0.9279960">
        <ele>382.1</ele>
        <time>2020-12-31T14:40:42Z</time>
      </trkpt>
      <trkpt lat="41.5616270" lon="-0.9279580">
        <ele>382.4</ele>
        <time>2020-12-31T14:40:44Z</time>
      </trkpt>
      <trkpt lat="41.5616270" lon="-0.9279610">
        <ele>382.4</ele>
        <time>2020-12-31T14:40:45Z</time>
      </trkpt>
      <trkpt lat="41.5616230" lon="-0.9279710">
        <ele>382.4</ele>
        <time>2020-12-31T14:40:46Z</time>
      </trkpt>
      <trkpt lat="41.5616210" lon="-0.9279750">
        <ele>382.5</ele>
        <time>2020-12-31T14:40:48Z</time>
      </trkpt>
      <trkpt lat="41.5616210" lon="-0.9279760">
        <ele>382.5</ele>
        <time>2020-12-31T14:40:49Z</time>
      </trkpt>
      <trkpt lat="41.5616210" lon="-0.9279760">
        <ele>382.5</ele>
        <time>2020-12-31T14:40:50Z</time>
      </trkpt>
      <trkpt lat="41.5616210" lon="-0.9279780">
        <ele>382.5</ele>
        <time>2020-12-31T14:40:52Z</time>
      </trkpt>
      <trkpt lat="41.5616340" lon="-0.9279020">
        <ele>382.9</ele>
        <time>2020-12-31T14:40:59Z</time>
      </trkpt>
      <trkpt lat="41.5616360" lon="-0.9278410">
        <ele>383.2</ele>
        <time>2020-12-31T14:41:01Z</time>
      </trkpt>
      <trkpt lat="41.5616370" lon="-0.9277830">
        <ele>383.6</ele>
        <time>2020-12-31T14:41:02Z</time>
      </trkpt>
      <trkpt lat="41.5616380" lon="-0.9277370">
        <ele>383.8</ele>
        <time>2020-12-31T14:41:03Z</time>
      </trkpt>
      <trkpt lat="41.5616420" lon="-0.9276660">
        <ele>384.2</ele>
        <time>2020-12-31T14:41:05Z</time>
      </trkpt>
      <trkpt lat="41.5616470" lon="-0.9276110">
        <ele>384.5</ele>
        <time>2020-12-31T14:41:06Z</time>
      </trkpt>
      <trkpt lat="41.5616510" lon="-0.9275760">
        <ele>384.7</ele>
        <time>2020-12-31T14:41:07Z</time>
      </trkpt>
      <trkpt lat="41.5616540" lon="-0.9275260">
        <ele>385.0</ele>
        <time>2020-12-31T14:41:09Z</time>
      </trkpt>
      <trkpt lat="41.5616500" lon="-0.9274820">
        <ele>385.2</ele>
        <time>2020-12-31T14:41:10Z</time>
      </trkpt>
      <trkpt lat="41.5616420" lon="-0.9274450">
        <ele>385.4</ele>
        <time>2020-12-31T14:41:11Z</time>
      </trkpt>
      <trkpt lat="41.5616330" lon="-0.9273950">
        <ele>385.7</ele>
        <time>2020-12-31T14:41:12Z</time>
      </trkpt>
      <trkpt lat="41.5616300" lon="-0.9273540">
        <ele>385.9</ele>
        <time>2020-12-31T14:41:14Z</time>
      </trkpt>
      <trkpt lat="41.5616300" lon="-0.9273170">
        <ele>386.1</ele>
        <time>2020-12-31T14:41:15Z</time>
      </trkpt>
      <trkpt lat="41.5616220" lon="-0.9272820">
        <ele>386.3</ele>
        <time>2020-12-31T14:41:16Z</time>
      </trkpt>
      <trkpt lat="41.5616040" lon="-0.9272420">
        <ele>386.6</ele>
        <time>2020-12-31T14:41:18Z</time>
      </trkpt>
      <trkpt lat="41.5615840" lon="-0.9271980">
        <ele>386.8</ele>
        <time>2020-12-31T14:41:19Z</time>
      </trkpt>
      <trkpt lat="41.5615660" lon="-0.9271580">
        <ele>387.1</ele>
        <time>2020-12-31T14:41:20Z</time>
      </trkpt>
      <trkpt lat="41.5615380" lon="-0.9271130">
        <ele>387.4</ele>
        <time>2020-12-31T14:41:22Z</time>
      </trkpt>
      <trkpt lat="41.5614990" lon="-0.9270770">
        <ele>387.8</ele>
        <time>2020-12-31T14:41:23Z</time>
      </trkpt>
      <trkpt lat="41.5614630" lon="-0.9270430">
        <ele>388.1</ele>
        <time>2020-12-31T14:41:24Z</time>
      </trkpt>
      <trkpt lat="41.5614190" lon="-0.9269960">
        <ele>388.5</ele>
        <time>2020-12-31T14:41:26Z</time>
      </trkpt>
      <trkpt lat="41.5613870" lon="-0.9269630">
        <ele>388.8</ele>
        <time>2020-12-31T14:41:27Z</time>
      </trkpt>
      <trkpt lat="41.5613590" lon="-0.9269400">
        <ele>389.0</ele>
        <time>2020-12-31T14:41:28Z</time>
      </trkpt>
      <trkpt lat="41.5613320" lon="-0.9269220">
        <ele>389.2</ele>
        <time>2020-12-31T14:41:29Z</time>
      </trkpt>
      <trkpt lat="41.5613040" lon="-0.9269050">
        <ele>389.5</ele>
        <time>2020-12-31T14:41:30Z</time>
      </trkpt>
      <trkpt lat="41.5612730" lon="-0.9268790">
        <ele>389.7</ele>
        <time>2020-12-31T14:41:32Z</time>
      </trkpt>
      <trkpt lat="41.5612460" lon="-0.9268630">
        <ele>389.9</ele>
        <time>2020-12-31T14:41:33Z</time>
      </trkpt>
      <trkpt lat="41.5612210" lon="-0.9268470">
        <ele>390.1</ele>
        <time>2020-12-31T14:41:34Z</time>
      </trkpt>
      <trkpt lat="41.5611960" lon="-0.9268260">
        <ele>390.4</ele>
        <time>2020-12-31T14:41:35Z</time>
      </trkpt>
      <trkpt lat="41.5611580" lon="-0.9267830">
        <ele>390.7</ele>
        <time>2020-12-31T14:41:37Z</time>
      </trkpt>
      <trkpt lat="41.5611320" lon="-0.9267630">
        <ele>390.9</ele>
        <time>2020-12-31T14:41:38Z</time>
      </trkpt>
      <trkpt lat="41.5611050" lon="-0.9267350">
        <ele>391.2</ele>
        <time>2020-12-31T14:41:39Z</time>
      </trkpt>
      <trkpt lat="41.5610740" lon="-0.9266980">
        <ele>391.5</ele>
        <time>2020-12-31T14:41:40Z</time>
      </trkpt>
      <trkpt lat="41.5610430" lon="-0.9266550">
        <ele>391.8</ele>
        <time>2020-12-31T14:41:42Z</time>
      </trkpt>
      <trkpt lat="41.5610260" lon="-0.9266230">
        <ele>392.0</ele>
        <time>2020-12-31T14:41:43Z</time>
      </trkpt>
      <trkpt lat="41.5610050" lon="-0.9265820">
        <ele>392.3</ele>
        <time>2020-12-31T14:41:45Z</time>
      </trkpt>
      <trkpt lat="41.5609950" lon="-0.9265420">
        <ele>392.5</ele>
        <time>2020-12-31T14:41:46Z</time>
      </trkpt>
      <trkpt lat="41.5609820" lon="-0.9264910">
        <ele>392.8</ele>
        <time>2020-12-31T14:41:47Z</time>
      </trkpt>
      <trkpt lat="41.5609760" lon="-0.9264710">
        <ele>392.9</ele>
        <time>2020-12-31T14:41:48Z</time>
      </trkpt>
      <trkpt lat="41.5609690" lon="-0.9264350">
        <ele>393.1</ele>
        <time>2020-12-31T14:41:50Z</time>
      </trkpt>
      <trkpt lat="41.5609590" lon="-0.9263880">
        <ele>393.4</ele>
        <time>2020-12-31T14:41:51Z</time>
      </trkpt>
      <trkpt lat="41.5609520" lon="-0.9263580">
        <ele>393.6</ele>
        <time>2020-12-31T14:41:52Z</time>
      </trkpt>
      <trkpt lat="41.5609360" lon="-0.9263000">
        <ele>393.9</ele>
        <time>2020-12-31T14:41:54Z</time>
      </trkpt>
      <trkpt lat="41.5609260" lon="-0.9262650">
        <ele>394.1</ele>
        <time>2020-12-31T14:41:55Z</time>
      </trkpt>
      <trkpt lat="41.5609140" lon="-0.9262220">
        <ele>394.4</ele>
        <time>2020-12-31T14:41:56Z</time>
      </trkpt>
      <trkpt lat="41.5608970" lon="-0.9261690">
        <ele>394.7</ele>
        <time>2020-12-31T14:41:58Z</time>
      </trkpt>
      <trkpt lat="41.5608890" lon="-0.9261490">
        <ele>394.8</ele>
        <time>2020-12-31T14:41:59Z</time>
      </trkpt>
      <trkpt lat="41.5608700" lon="-0.9260930">
        <ele>395.1</ele>
        <time>2020-12-31T14:42:01Z</time>
      </trkpt>
      <trkpt lat="41.5608520" lon="-0.9260460">
        <ele>395.4</ele>
        <time>2020-12-31T14:42:02Z</time>
      </trkpt>
      <trkpt lat="41.5608460" lon="-0.9260310">
        <ele>395.5</ele>
        <time>2020-12-31T14:42:03Z</time>
      </trkpt>
      <trkpt lat="41.5608210" lon="-0.9259640">
        <ele>395.9</ele>
        <time>2020-12-31T14:42:05Z</time>
      </trkpt>
      <trkpt lat="41.5608130" lon="-0.9259370">
        <ele>396.1</ele>
        <time>2020-12-31T14:42:07Z</time>
      </trkpt>
      <trkpt lat="41.5608040" lon="-0.9259090">
        <ele>396.2</ele>
        <time>2020-12-31T14:42:08Z</time>
      </trkpt>
      <trkpt lat="41.5607950" lon="-0.9258820">
        <ele>396.4</ele>
        <time>2020-12-31T14:42:09Z</time>
      </trkpt>
      <trkpt lat="41.5607780" lon="-0.9258460">
        <ele>396.6</ele>
        <time>2020-12-31T14:42:10Z</time>
      </trkpt>
      <trkpt lat="41.5607520" lon="-0.9258040">
        <ele>396.9</ele>
        <time>2020-12-31T14:42:12Z</time>
      </trkpt>
      <trkpt lat="41.5607430" lon="-0.9257910">
        <ele>397.0</ele>
        <time>2020-12-31T14:42:13Z</time>
      </trkpt>
      <trkpt lat="41.5607130" lon="-0.9257550">
        <ele>397.3</ele>
        <time>2020-12-31T14:42:14Z</time>
      </trkpt>
      <trkpt lat="41.5607030" lon="-0.9257440">
        <ele>397.4</ele>
        <time>2020-12-31T14:42:15Z</time>
      </trkpt>
      <trkpt lat="41.5606750" lon="-0.9257130">
        <ele>397.7</ele>
        <time>2020-12-31T14:42:16Z</time>
      </trkpt>
      <trkpt lat="41.5606650" lon="-0.9257040">
        <ele>397.8</ele>
        <time>2020-12-31T14:42:17Z</time>
      </trkpt>
      <trkpt lat="41.5606380" lon="-0.9256730">
        <ele>398.0</ele>
        <time>2020-12-31T14:42:19Z</time>
      </trkpt>
      <trkpt lat="41.5606130" lon="-0.9256450">
        <ele>398.3</ele>
        <time>2020-12-31T14:42:20Z</time>
      </trkpt>
      <trkpt lat="41.5605930" lon="-0.9256120">
        <ele>398.5</ele>
        <time>2020-12-31T14:42:21Z</time>
      </trkpt>
      <trkpt lat="41.5605770" lon="-0.9255830">
        <ele>398.7</ele>
        <time>2020-12-31T14:42:22Z</time>
      </trkpt>
      <trkpt lat="41.5605650" lon="-0.9255490">
        <ele>398.9</ele>
        <time>2020-12-31T14:42:24Z</time>
      </trkpt>
      <trkpt lat="41.5605560" lon="-0.9255140">
        <ele>399.1</ele>
        <time>2020-12-31T14:42:25Z</time>
      </trkpt>
      <trkpt lat="41.5605510" lon="-0.9254800">
        <ele>399.3</ele>
        <time>2020-12-31T14:42:26Z</time>
      </trkpt>
      <trkpt lat="41.5605460" lon="-0.9254220">
        <ele>399.6</ele>
        <time>2020-12-31T14:42:28Z</time>
      </trkpt>
      <trkpt lat="41.5605450" lon="-0.9253760">
        <ele>399.8</ele>
        <time>2020-12-31T14:42:30Z</time>
      </trkpt>
      <trkpt lat="41.5605420" lon="-0.9253410">
        <ele>400.0</ele>
        <time>2020-12-31T14:42:31Z</time>
      </trkpt>
      <trkpt lat="41.5605300" lon="-0.9252870">
        <ele>400.3</ele>
        <time>2020-12-31T14:42:33Z</time>
      </trkpt>
      <trkpt lat="41.5605230" lon="-0.9252390">
        <ele>400.6</ele>
        <time>2020-12-31T14:42:34Z</time>
      </trkpt>
      <trkpt lat="41.5605190" lon="-0.9252250">
        <ele>400.7</ele>
        <time>2020-12-31T14:42:35Z</time>
      </trkpt>
      <trkpt lat="41.5605100" lon="-0.9251820">
        <ele>400.9</ele>
        <time>2020-12-31T14:42:36Z</time>
      </trkpt>
      <trkpt lat="41.5605060" lon="-0.9251680">
        <ele>401.0</ele>
        <time>2020-12-31T14:42:37Z</time>
      </trkpt>
      <trkpt lat="41.5604930" lon="-0.9251230">
        <ele>401.3</ele>
        <time>2020-12-31T14:42:39Z</time>
      </trkpt>
      <trkpt lat="41.5604880" lon="-0.9251060">
        <ele>401.4</ele>
        <time>2020-12-31T14:42:40Z</time>
      </trkpt>
      <trkpt lat="41.5604740" lon="-0.9250570">
        <ele>401.7</ele>
        <time>2020-12-31T14:42:42Z</time>
      </trkpt>
      <trkpt lat="41.5604610" lon="-0.9250170">
        <ele>401.9</ele>
        <time>2020-12-31T14:42:43Z</time>
      </trkpt>
      <trkpt lat="41.5604560" lon="-0.9250020">
        <ele>402.0</ele>
        <time>2020-12-31T14:42:44Z</time>
      </trkpt>
      <trkpt lat="41.5604460" lon="-0.9249710">
        <ele>402.2</ele>
        <time>2020-12-31T14:42:45Z</time>
      </trkpt>
      <trkpt lat="41.5604370" lon="-0.9249380">
        <ele>402.4</ele>
        <time>2020-12-31T14:42:47Z</time>
      </trkpt>
      <trkpt lat="41.5604290" lon="-0.9248940">
        <ele>402.6</ele>
        <time>2020-12-31T14:42:48Z</time>
      </trkpt>
      <trkpt lat="41.5604270" lon="-0.9248800">
        <ele>402.7</ele>
        <time>2020-12-31T14:42:49Z</time>
      </trkpt>
      <trkpt lat="41.5604210" lon="-0.9248500">
        <ele>402.9</ele>
        <time>2020-12-31T14:42:50Z</time>
      </trkpt>
      <trkpt lat="41.5604090" lon="-0.9248110">
        <ele>403.1</ele>
        <time>2020-12-31T14:42:52Z</time>
      </trkpt>
      <trkpt lat="41.5603940" lon="-0.9247640">
        <ele>403.4</ele>
        <time>2020-12-31T14:42:53Z</time>
      </trkpt>
      <trkpt lat="41.5603890" lon="-0.9247460">
        <ele>403.5</ele>
        <time>2020-12-31T14:42:54Z</time>
      </trkpt>
      <trkpt lat="41.5603740" lon="-0.9247050">
        <ele>403.7</ele>
        <time>2020-12-31T14:42:55Z</time>
      </trkpt>
      <trkpt lat="41.5603680" lon="-0.9246900">
        <ele>403.8</ele>
        <time>2020-12-31T14:42:56Z</time>
      </trkpt>
      <trkpt lat="41.5603560" lon="-0.9246550">
        <ele>404.0</ele>
        <time>2020-12-31T14:42:58Z</time>
      </trkpt>
      <trkpt lat="41.5603540" lon="-0.9246180">
        <ele>404.2</ele>
        <time>2020-12-31T14:42:59Z</time>
      </trkpt>
      <trkpt lat="41.5603500" lon="-0.9245740">
        <ele>404.5</ele>
        <time>2020-12-31T14:43:00Z</time>
      </trkpt>
      <trkpt lat="41.5603480" lon="-0.9245600">
        <ele>404.5</ele>
        <time>2020-12-31T14:43:01Z</time>
      </trkpt>
      <trkpt lat="41.5603390" lon="-0.9245120">
        <ele>405.0</ele>
        <time>2020-12-31T14:43:03Z</time>
      </trkpt>
      <trkpt lat="41.5603380" lon="-0.9244980">
        <ele>405.1</ele>
        <time>2020-12-31T14:43:04Z</time>
      </trkpt>
      <trkpt lat="41.5603490" lon="-0.9244610">
        <ele>405.4</ele>
        <time>2020-12-31T14:43:05Z</time>
      </trkpt>
      <trkpt lat="41.5603540" lon="-0.9244490">
        <ele>405.5</ele>
        <time>2020-12-31T14:43:06Z</time>
      </trkpt>
      <trkpt lat="41.5603740" lon="-0.9244160">
        <ele>405.9</ele>
        <time>2020-12-31T14:43:07Z</time>
      </trkpt>
      <trkpt lat="41.5603810" lon="-0.9244050">
        <ele>406.0</ele>
        <time>2020-12-31T14:43:08Z</time>
      </trkpt>
      <trkpt lat="41.5604000" lon="-0.9243770">
        <ele>406.3</ele>
        <time>2020-12-31T14:43:10Z</time>
      </trkpt>
      <trkpt lat="41.5604160" lon="-0.9243530">
        <ele>406.5</ele>
        <time>2020-12-31T14:43:11Z</time>
      </trkpt>
      <trkpt lat="41.5604320" lon="-0.9243160">
        <ele>406.8</ele>
        <time>2020-12-31T14:43:13Z</time>
      </trkpt>
      <trkpt lat="41.5604420" lon="-0.9242790">
        <ele>407.1</ele>
        <time>2020-12-31T14:43:14Z</time>
      </trkpt>
      <trkpt lat="41.5604560" lon="-0.9242360">
        <ele>407.4</ele>
        <time>2020-12-31T14:43:15Z</time>
      </trkpt>
      <trkpt lat="41.5604620" lon="-0.9242190">
        <ele>407.5</ele>
        <time>2020-12-31T14:43:16Z</time>
      </trkpt>
      <trkpt lat="41.5604710" lon="-0.9241750">
        <ele>407.7</ele>
        <time>2020-12-31T14:43:18Z</time>
      </trkpt>
      <trkpt lat="41.5604730" lon="-0.9241600">
        <ele>407.8</ele>
        <time>2020-12-31T14:43:19Z</time>
      </trkpt>
      <trkpt lat="41.5604740" lon="-0.9241310">
        <ele>407.9</ele>
        <time>2020-12-31T14:43:20Z</time>
      </trkpt>
      <trkpt lat="41.5604780" lon="-0.9240980">
        <ele>408.0</ele>
        <time>2020-12-31T14:43:22Z</time>
      </trkpt>
      <trkpt lat="41.5604810" lon="-0.9240410">
        <ele>408.2</ele>
        <time>2020-12-31T14:43:24Z</time>
      </trkpt>
      <trkpt lat="41.5604790" lon="-0.9240210">
        <ele>408.2</ele>
        <time>2020-12-31T14:43:25Z</time>
      </trkpt>
      <trkpt lat="41.5604780" lon="-0.9240020">
        <ele>408.3</ele>
        <time>2020-12-31T14:43:26Z</time>
      </trkpt>
      <trkpt lat="41.5604700" lon="-0.9239370">
        <ele>408.4</ele>
        <time>2020-12-31T14:43:28Z</time>
      </trkpt>
      <trkpt lat="41.5604670" lon="-0.9239160">
        <ele>408.4</ele>
        <time>2020-12-31T14:43:29Z</time>
      </trkpt>
      <trkpt lat="41.5604640" lon="-0.9238950">
        <ele>408.5</ele>
        <time>2020-12-31T14:43:30Z</time>
      </trkpt>
      <trkpt lat="41.5604570" lon="-0.9238460">
        <ele>408.5</ele>
        <time>2020-12-31T14:43:31Z</time>
      </trkpt>
      <trkpt lat="41.5604550" lon="-0.9238280">
        <ele>408.5</ele>
        <time>2020-12-31T14:43:32Z</time>
      </trkpt>
      <trkpt lat="41.5604470" lon="-0.9237790">
        <ele>408.5</ele>
        <time>2020-12-31T14:43:33Z</time>
      </trkpt>
      <trkpt lat="41.5604440" lon="-0.9237630">
        <ele>408.4</ele>
        <time>2020-12-31T14:43:34Z</time>
      </trkpt>
      <trkpt lat="41.5604310" lon="-0.9237060">
        <ele>408.3</ele>
        <time>2020-12-31T14:43:36Z</time>
      </trkpt>
      <trkpt lat="41.5604270" lon="-0.9236850">
        <ele>408.3</ele>
        <time>2020-12-31T14:43:37Z</time>
      </trkpt>
      <trkpt lat="41.5604230" lon="-0.9236650">
        <ele>408.2</ele>
        <time>2020-12-31T14:43:38Z</time>
      </trkpt>
      <trkpt lat="41.5604180" lon="-0.9236150">
        <ele>408.1</ele>
        <time>2020-12-31T14:43:39Z</time>
      </trkpt>
      <trkpt lat="41.5604170" lon="-0.9235940">
        <ele>408.0</ele>
        <time>2020-12-31T14:43:40Z</time>
      </trkpt>
      <trkpt lat="41.5603980" lon="-0.9234650">
        <ele>407.5</ele>
        <time>2020-12-31T14:43:42Z</time>
      </trkpt>
      <trkpt lat="41.5603730" lon="-0.9233090">
        <ele>406.8</ele>
        <time>2020-12-31T14:43:44Z</time>
      </trkpt>
      <trkpt lat="41.5603600" lon="-0.9232270">
        <ele>406.4</ele>
        <time>2020-12-31T14:43:45Z</time>
      </trkpt>
      <trkpt lat="41.5603300" lon="-0.9230660">
        <ele>405.8</ele>
        <time>2020-12-31T14:43:47Z</time>
      </trkpt>
      <trkpt lat="41.5603120" lon="-0.9229960">
        <ele>405.5</ele>
        <time>2020-12-31T14:43:48Z</time>
      </trkpt>
      <trkpt lat="41.5602920" lon="-0.9229410">
        <ele>405.3</ele>
        <time>2020-12-31T14:43:49Z</time>
      </trkpt>
      <trkpt lat="41.5602440" lon="-0.9229240">
        <ele>405.3</ele>
        <time>2020-12-31T14:43:51Z</time>
      </trkpt>
      <trkpt lat="41.5602240" lon="-0.9229120">
        <ele>405.3</ele>
        <time>2020-12-31T14:43:52Z</time>
      </trkpt>
      <trkpt lat="41.5602030" lon="-0.9228990">
        <ele>405.3</ele>
        <time>2020-12-31T14:43:53Z</time>
      </trkpt>
      <trkpt lat="41.5601460" lon="-0.9228680">
        <ele>405.3</ele>
        <time>2020-12-31T14:43:54Z</time>
      </trkpt>
      <trkpt lat="41.5600680" lon="-0.9228230">
        <ele>405.4</ele>
        <time>2020-12-31T14:43:56Z</time>
      </trkpt>
      <trkpt lat="41.5600540" lon="-0.9227980">
        <ele>405.4</ele>
        <time>2020-12-31T14:43:57Z</time>
      </trkpt>
      <trkpt lat="41.5599900" lon="-0.9227570">
        <ele>405.5</ele>
        <time>2020-12-31T14:43:59Z</time>
      </trkpt>
      <trkpt lat="41.5599220" lon="-0.9227080">
        <ele>405.6</ele>
        <time>2020-12-31T14:44:00Z</time>
      </trkpt>
      <trkpt lat="41.5598350" lon="-0.9226480">
        <ele>405.7</ele>
        <time>2020-12-31T14:44:02Z</time>
      </trkpt>
      <trkpt lat="41.5597850" lon="-0.9226100">
        <ele>405.8</ele>
        <time>2020-12-31T14:44:03Z</time>
      </trkpt>
      <trkpt lat="41.5597410" lon="-0.9225770">
        <ele>405.9</ele>
        <time>2020-12-31T14:44:04Z</time>
      </trkpt>
      <trkpt lat="41.5597000" lon="-0.9225430">
        <ele>405.9</ele>
        <time>2020-12-31T14:44:05Z</time>
      </trkpt>
      <trkpt lat="41.5596580" lon="-0.9225040">
        <ele>406.0</ele>
        <time>2020-12-31T14:44:06Z</time>
      </trkpt>
      <trkpt lat="41.5596140" lon="-0.9224580">
        <ele>406.0</ele>
        <time>2020-12-31T14:44:07Z</time>
      </trkpt>
      <trkpt lat="41.5595700" lon="-0.9224170">
        <ele>406.0</ele>
        <time>2020-12-31T14:44:08Z</time>
      </trkpt>
      <trkpt lat="41.5595130" lon="-0.9223700">
        <ele>406.1</ele>
        <time>2020-12-31T14:44:10Z</time>
      </trkpt>
      <trkpt lat="41.5594590" lon="-0.9223180">
        <ele>406.2</ele>
        <time>2020-12-31T14:44:11Z</time>
      </trkpt>
      <trkpt lat="41.5594260" lon="-0.9222730">
        <ele>406.2</ele>
        <time>2020-12-31T14:44:12Z</time>
      </trkpt>
      <trkpt lat="41.5593970" lon="-0.9222270">
        <ele>406.3</ele>
        <time>2020-12-31T14:44:13Z</time>
      </trkpt>
      <trkpt lat="41.5593630" lon="-0.9221760">
        <ele>406.3</ele>
        <time>2020-12-31T14:44:14Z</time>
      </trkpt>
      <trkpt lat="41.5593330" lon="-0.9221210">
        <ele>406.4</ele>
        <time>2020-12-31T14:44:15Z</time>
      </trkpt>
      <trkpt lat="41.5593060" lon="-0.9220460">
        <ele>406.6</ele>
        <time>2020-12-31T14:44:17Z</time>
      </trkpt>
      <trkpt lat="41.5592760" lon="-0.9219600">
        <ele>406.7</ele>
        <time>2020-12-31T14:44:19Z</time>
      </trkpt>
      <trkpt lat="41.5592620" lon="-0.9219110">
        <ele>406.8</ele>
        <time>2020-12-31T14:44:20Z</time>
      </trkpt>
      <trkpt lat="41.5592430" lon="-0.9218410">
        <ele>406.9</ele>
        <time>2020-12-31T14:44:21Z</time>
      </trkpt>
      <trkpt lat="41.5592220" lon="-0.9217860">
        <ele>407.0</ele>
        <time>2020-12-31T14:44:22Z</time>
      </trkpt>
      <trkpt lat="41.5591960" lon="-0.9217170">
        <ele>407.2</ele>
        <time>2020-12-31T14:44:23Z</time>
      </trkpt>
      <trkpt lat="41.5591670" lon="-0.9216340">
        <ele>407.5</ele>
        <time>2020-12-31T14:44:25Z</time>
      </trkpt>
      <trkpt lat="41.5591340" lon="-0.9215550">
        <ele>407.7</ele>
        <time>2020-12-31T14:44:27Z</time>
      </trkpt>
      <trkpt lat="41.5591180" lon="-0.9215060">
        <ele>407.9</ele>
        <time>2020-12-31T14:44:28Z</time>
      </trkpt>
      <trkpt lat="41.5590980" lon="-0.9214390">
        <ele>408.1</ele>
        <time>2020-12-31T14:44:29Z</time>
      </trkpt>
      <trkpt lat="41.5590770" lon="-0.9213680">
        <ele>408.3</ele>
        <time>2020-12-31T14:44:31Z</time>
      </trkpt>
      <trkpt lat="41.5590630" lon="-0.9213160">
        <ele>408.4</ele>
        <time>2020-12-31T14:44:32Z</time>
      </trkpt>
      <trkpt lat="41.5590530" lon="-0.9212610">
        <ele>408.6</ele>
        <time>2020-12-31T14:44:33Z</time>
      </trkpt>
      <trkpt lat="41.5590440" lon="-0.9211890">
        <ele>408.7</ele>
        <time>2020-12-31T14:44:34Z</time>
      </trkpt>
      <trkpt lat="41.5590360" lon="-0.9211070">
        <ele>408.8</ele>
        <time>2020-12-31T14:44:35Z</time>
      </trkpt>
      <trkpt lat="41.5590340" lon="-0.9210240">
        <ele>408.9</ele>
        <time>2020-12-31T14:44:37Z</time>
      </trkpt>
      <trkpt lat="41.5590370" lon="-0.9209590">
        <ele>409.0</ele>
        <time>2020-12-31T14:44:38Z</time>
      </trkpt>
      <trkpt lat="41.5590400" lon="-0.9208790">
        <ele>409.0</ele>
        <time>2020-12-31T14:44:40Z</time>
      </trkpt>
      <trkpt lat="41.5590340" lon="-0.9208030">
        <ele>409.1</ele>
        <time>2020-12-31T14:44:41Z</time>
      </trkpt>
      <trkpt lat="41.5590160" lon="-0.9207350">
        <ele>409.1</ele>
        <time>2020-12-31T14:44:42Z</time>
      </trkpt>
      <trkpt lat="41.5589840" lon="-0.9206730">
        <ele>409.0</ele>
        <time>2020-12-31T14:44:44Z</time>
      </trkpt>
      <trkpt lat="41.5589600" lon="-0.9206290">
        <ele>409.0</ele>
        <time>2020-12-31T14:44:45Z</time>
      </trkpt>
      <trkpt lat="41.5589460" lon="-0.9205950">
        <ele>408.8</ele>
        <time>2020-12-31T14:44:46Z</time>
      </trkpt>
      <trkpt lat="41.5589350" lon="-0.9205190">
        <ele>408.6</ele>
        <time>2020-12-31T14:44:48Z</time>
      </trkpt>
      <trkpt lat="41.5589540" lon="-0.9204790">
        <ele>408.4</ele>
        <time>2020-12-31T14:44:49Z</time>
      </trkpt>
      <trkpt lat="41.5589850" lon="-0.9204530">
        <ele>408.4</ele>
        <time>2020-12-31T14:44:50Z</time>
      </trkpt>
      <trkpt lat="41.5590390" lon="-0.9204340">
        <ele>408.3</ele>
        <time>2020-12-31T14:44:52Z</time>
      </trkpt>
      <trkpt lat="41.5591000" lon="-0.9204550">
        <ele>408.2</ele>
        <time>2020-12-31T14:44:53Z</time>
      </trkpt>
      <trkpt lat="41.5591680" lon="-0.9204760">
        <ele>408.1</ele>
        <time>2020-12-31T14:44:55Z</time>
      </trkpt>
      <trkpt lat="41.5592270" lon="-0.9204930">
        <ele>408.0</ele>
        <time>2020-12-31T14:44:56Z</time>
      </trkpt>
      <trkpt lat="41.5592700" lon="-0.9204970">
        <ele>408.0</ele>
        <time>2020-12-31T14:44:57Z</time>
      </trkpt>
      <trkpt lat="41.5593240" lon="-0.9205000">
        <ele>407.9</ele>
        <time>2020-12-31T14:44:58Z</time>
      </trkpt>
      <trkpt lat="41.5593780" lon="-0.9205030">
        <ele>407.9</ele>
        <time>2020-12-31T14:45:00Z</time>
      </trkpt>
      <trkpt lat="41.5594320" lon="-0.9204990">
        <ele>407.8</ele>
        <time>2020-12-31T14:45:01Z</time>
      </trkpt>
      <trkpt lat="41.5594810" lon="-0.9204910">
        <ele>407.8</ele>
        <time>2020-12-31T14:45:02Z</time>
      </trkpt>
      <trkpt lat="41.5595230" lon="-0.9204860">
        <ele>407.7</ele>
        <time>2020-12-31T14:45:03Z</time>
      </trkpt>
      <trkpt lat="41.5595700" lon="-0.9204770">
        <ele>407.7</ele>
        <time>2020-12-31T14:45:04Z</time>
      </trkpt>
      <trkpt lat="41.5596240" lon="-0.9204620">
        <ele>407.6</ele>
        <time>2020-12-31T14:45:06Z</time>
      </trkpt>
      <trkpt lat="41.5596690" lon="-0.9204480">
        <ele>407.5</ele>
        <time>2020-12-31T14:45:07Z</time>
      </trkpt>
      <trkpt lat="41.5597270" lon="-0.9204270">
        <ele>407.4</ele>
        <time>2020-12-31T14:45:08Z</time>
      </trkpt>
      <trkpt lat="41.5597800" lon="-0.9203990">
        <ele>407.4</ele>
        <time>2020-12-31T14:45:09Z</time>
      </trkpt>
      <trkpt lat="41.5598250" lon="-0.9203780">
        <ele>407.3</ele>
        <time>2020-12-31T14:45:10Z</time>
      </trkpt>
      <trkpt lat="41.5599120" lon="-0.9203300">
        <ele>407.1</ele>
        <time>2020-12-31T14:45:12Z</time>
      </trkpt>
      <trkpt lat="41.5600020" lon="-0.9202800">
        <ele>406.9</ele>
        <time>2020-12-31T14:45:14Z</time>
      </trkpt>
      <trkpt lat="41.5600990" lon="-0.9202320">
        <ele>406.8</ele>
        <time>2020-12-31T14:45:16Z</time>
      </trkpt>
      <trkpt lat="41.5601910" lon="-0.9201870">
        <ele>406.7</ele>
        <time>2020-12-31T14:45:18Z</time>
      </trkpt>
      <trkpt lat="41.5602350" lon="-0.9201560">
        <ele>406.7</ele>
        <time>2020-12-31T14:45:19Z</time>
      </trkpt>
      <trkpt lat="41.5602760" lon="-0.9201170">
        <ele>406.8</ele>
        <time>2020-12-31T14:45:20Z</time>
      </trkpt>
      <trkpt lat="41.5603480" lon="-0.9200280">
        <ele>406.8</ele>
        <time>2020-12-31T14:45:22Z</time>
      </trkpt>
      <trkpt lat="41.5603800" lon="-0.9199890">
        <ele>406.9</ele>
        <time>2020-12-31T14:45:23Z</time>
      </trkpt>
      <trkpt lat="41.5604340" lon="-0.9199260">
        <ele>407.0</ele>
        <time>2020-12-31T14:45:25Z</time>
      </trkpt>
      <trkpt lat="41.5604860" lon="-0.9198520">
        <ele>407.1</ele>
        <time>2020-12-31T14:45:27Z</time>
      </trkpt>
      <trkpt lat="41.5605120" lon="-0.9198190">
        <ele>407.2</ele>
        <time>2020-12-31T14:45:28Z</time>
      </trkpt>
      <trkpt lat="41.5605380" lon="-0.9197970">
        <ele>407.2</ele>
        <time>2020-12-31T14:45:29Z</time>
      </trkpt>
      <trkpt lat="41.5605670" lon="-0.9197810">
        <ele>407.2</ele>
        <time>2020-12-31T14:45:30Z</time>
      </trkpt>
      <trkpt lat="41.5605970" lon="-0.9197850">
        <ele>407.5</ele>
        <time>2020-12-31T14:45:32Z</time>
      </trkpt>
      <trkpt lat="41.5606250" lon="-0.9197980">
        <ele>407.8</ele>
        <time>2020-12-31T14:45:33Z</time>
      </trkpt>
      <trkpt lat="41.5606730" lon="-0.9198250">
        <ele>408.4</ele>
        <time>2020-12-31T14:45:35Z</time>
      </trkpt>
      <trkpt lat="41.5607000" lon="-0.9198350">
        <ele>408.7</ele>
        <time>2020-12-31T14:45:36Z</time>
      </trkpt>
      <trkpt lat="41.5607240" lon="-0.9198270">
        <ele>409.2</ele>
        <time>2020-12-31T14:45:37Z</time>
      </trkpt>
      <trkpt lat="41.5607500" lon="-0.9198230">
        <ele>409.7</ele>
        <time>2020-12-31T14:45:39Z</time>
      </trkpt>
      <trkpt lat="41.5607910" lon="-0.9197980">
        <ele>410.7</ele>
        <time>2020-12-31T14:45:40Z</time>
      </trkpt>
      <trkpt lat="41.5608280" lon="-0.9197790">
        <ele>411.7</ele>
        <time>2020-12-31T14:45:42Z</time>
      </trkpt>
      <trkpt lat="41.5608420" lon="-0.9197800">
        <ele>412.1</ele>
        <time>2020-12-31T14:45:43Z</time>
      </trkpt>
      <trkpt lat="41.5608550" lon="-0.9197810">
        <ele>412.5</ele>
        <time>2020-12-31T14:45:44Z</time>
      </trkpt>
      <trkpt lat="41.5608780" lon="-0.9197850">
        <ele>413.2</ele>
        <time>2020-12-31T14:45:45Z</time>
      </trkpt>
      <trkpt lat="41.5609310" lon="-0.9198000">
        <ele>414.8</ele>
        <time>2020-12-31T14:45:47Z</time>
      </trkpt>
      <trkpt lat="41.5609610" lon="-0.9198060">
        <ele>415.8</ele>
        <time>2020-12-31T14:45:48Z</time>
      </trkpt>
      <trkpt lat="41.5609820" lon="-0.9198160">
        <ele>416.4</ele>
        <time>2020-12-31T14:45:50Z</time>
      </trkpt>
      <trkpt lat="41.5609900" lon="-0.9198210">
        <ele>416.6</ele>
        <time>2020-12-31T14:45:51Z</time>
      </trkpt>
      <trkpt lat="41.5610210" lon="-0.9198370">
        <ele>417.5</ele>
        <time>2020-12-31T14:45:53Z</time>
      </trkpt>
      <trkpt lat="41.5610580" lon="-0.9198580">
        <ele>418.4</ele>
        <time>2020-12-31T14:45:54Z</time>
      </trkpt>
      <trkpt lat="41.5610780" lon="-0.9198840">
        <ele>419.0</ele>
        <time>2020-12-31T14:45:56Z</time>
      </trkpt>
      <trkpt lat="41.5611150" lon="-0.9199180">
        <ele>419.8</ele>
        <time>2020-12-31T14:45:57Z</time>
      </trkpt>
      <trkpt lat="41.5611650" lon="-0.9199280">
        <ele>420.6</ele>
        <time>2020-12-31T14:45:59Z</time>
      </trkpt>
      <trkpt lat="41.5611870" lon="-0.9199220">
        <ele>420.9</ele>
        <time>2020-12-31T14:46:00Z</time>
      </trkpt>
      <trkpt lat="41.5612090" lon="-0.9199160">
        <ele>421.2</ele>
        <time>2020-12-31T14:46:01Z</time>
      </trkpt>
      <trkpt lat="41.5612500" lon="-0.9199100">
        <ele>421.7</ele>
        <time>2020-12-31T14:46:03Z</time>
      </trkpt>
      <trkpt lat="41.5612870" lon="-0.9199090">
        <ele>422.2</ele>
        <time>2020-12-31T14:46:05Z</time>
      </trkpt>
      <trkpt lat="41.5613140" lon="-0.9199070">
        <ele>422.6</ele>
        <time>2020-12-31T14:46:06Z</time>
      </trkpt>
      <trkpt lat="41.5613450" lon="-0.9199000">
        <ele>423.0</ele>
        <time>2020-12-31T14:46:07Z</time>
      </trkpt>
      <trkpt lat="41.5613510" lon="-0.9198970">
        <ele>423.0</ele>
        <time>2020-12-31T14:46:08Z</time>
      </trkpt>
      <trkpt lat="41.5613630" lon="-0.9198880">
        <ele>423.2</ele>
        <time>2020-12-31T14:46:09Z</time>
      </trkpt>
      <trkpt lat="41.5613780" lon="-0.9198810">
        <ele>423.4</ele>
        <time>2020-12-31T14:46:10Z</time>
      </trkpt>
      <trkpt lat="41.5614010" lon="-0.9198760">
        <ele>423.7</ele>
        <time>2020-12-31T14:46:12Z</time>
      </trkpt>
      <trkpt lat="41.5614090" lon="-0.9198750">
        <ele>423.7</ele>
        <time>2020-12-31T14:46:13Z</time>
      </trkpt>
      <trkpt lat="41.5614170" lon="-0.9198750">
        <ele>423.8</ele>
        <time>2020-12-31T14:46:14Z</time>
      </trkpt>
      <trkpt lat="41.5614290" lon="-0.9198730">
        <ele>423.9</ele>
        <time>2020-12-31T14:46:15Z</time>
      </trkpt>
      <trkpt lat="41.5614390" lon="-0.9198690">
        <ele>424.0</ele>
        <time>2020-12-31T14:46:16Z</time>
      </trkpt>
      <trkpt lat="41.5614530" lon="-0.9198670">
        <ele>424.2</ele>
        <time>2020-12-31T14:46:17Z</time>
      </trkpt>
      <trkpt lat="41.5614660" lon="-0.9198680">
        <ele>424.3</ele>
        <time>2020-12-31T14:46:19Z</time>
      </trkpt>
      <trkpt lat="41.5614790" lon="-0.9198730">
        <ele>424.4</ele>
        <time>2020-12-31T14:46:20Z</time>
      </trkpt>
      <trkpt lat="41.5615010" lon="-0.9198780">
        <ele>424.5</ele>
        <time>2020-12-31T14:46:22Z</time>
      </trkpt>
      <trkpt lat="41.5615160" lon="-0.9198850">
        <ele>424.6</ele>
        <time>2020-12-31T14:46:23Z</time>
      </trkpt>
      <trkpt lat="41.5615420" lon="-0.9198990">
        <ele>424.7</ele>
        <time>2020-12-31T14:46:25Z</time>
      </trkpt>
      <trkpt lat="41.5615830" lon="-0.9199180">
        <ele>424.9</ele>
        <time>2020-12-31T14:46:26Z</time>
      </trkpt>
      <trkpt lat="41.5616020" lon="-0.9199280">
        <ele>425.0</ele>
        <time>2020-12-31T14:46:27Z</time>
      </trkpt>
      <trkpt lat="41.5616320" lon="-0.9199440">
        <ele>425.0</ele>
        <time>2020-12-31T14:46:28Z</time>
      </trkpt>
      <trkpt lat="41.5616570" lon="-0.9199630">
        <ele>425.1</ele>
        <time>2020-12-31T14:46:29Z</time>
      </trkpt>
      <trkpt lat="41.5616820" lon="-0.9199830">
        <ele>425.1</ele>
        <time>2020-12-31T14:46:31Z</time>
      </trkpt>
      <trkpt lat="41.5617100" lon="-0.9200060">
        <ele>425.1</ele>
        <time>2020-12-31T14:46:33Z</time>
      </trkpt>
      <trkpt lat="41.5617350" lon="-0.9200290">
        <ele>425.2</ele>
        <time>2020-12-31T14:46:34Z</time>
      </trkpt>
      <trkpt lat="41.5617600" lon="-0.9200490">
        <ele>425.2</ele>
        <time>2020-12-31T14:46:35Z</time>
      </trkpt>
      <trkpt lat="41.5618100" lon="-0.9200880">
        <ele>425.3</ele>
        <time>2020-12-31T14:46:37Z</time>
      </trkpt>
      <trkpt lat="41.5618410" lon="-0.9201280">
        <ele>425.3</ele>
        <time>2020-12-31T14:46:38Z</time>
      </trkpt>
      <trkpt lat="41.5618680" lon="-0.9201620">
        <ele>425.4</ele>
        <time>2020-12-31T14:46:40Z</time>
      </trkpt>
      <trkpt lat="41.5618790" lon="-0.9201730">
        <ele>425.4</ele>
        <time>2020-12-31T14:46:41Z</time>
      </trkpt>
      <trkpt lat="41.5618940" lon="-0.9201870">
        <ele>425.5</ele>
        <time>2020-12-31T14:46:42Z</time>
      </trkpt>
      <trkpt lat="41.5619200" lon="-0.9202240">
        <ele>425.6</ele>
        <time>2020-12-31T14:46:43Z</time>
      </trkpt>
      <trkpt lat="41.5619290" lon="-0.9202370">
        <ele>425.6</ele>
        <time>2020-12-31T14:46:44Z</time>
      </trkpt>
      <trkpt lat="41.5619510" lon="-0.9202750">
        <ele>425.7</ele>
        <time>2020-12-31T14:46:45Z</time>
      </trkpt>
      <trkpt lat="41.5619560" lon="-0.9202890">
        <ele>425.8</ele>
        <time>2020-12-31T14:46:46Z</time>
      </trkpt>
      <trkpt lat="41.5619770" lon="-0.9203280">
        <ele>425.9</ele>
        <time>2020-12-31T14:46:47Z</time>
      </trkpt>
      <trkpt lat="41.5619840" lon="-0.9203420">
        <ele>426.0</ele>
        <time>2020-12-31T14:46:48Z</time>
      </trkpt>
      <trkpt lat="41.5620070" lon="-0.9203760">
        <ele>426.2</ele>
        <time>2020-12-31T14:46:50Z</time>
      </trkpt>
      <trkpt lat="41.5620340" lon="-0.9204140">
        <ele>426.4</ele>
        <time>2020-12-31T14:46:51Z</time>
      </trkpt>
      <trkpt lat="41.5620590" lon="-0.9204430">
        <ele>426.5</ele>
        <time>2020-12-31T14:46:53Z</time>
      </trkpt>
      <trkpt lat="41.5620840" lon="-0.9204660">
        <ele>426.7</ele>
        <time>2020-12-31T14:46:54Z</time>
      </trkpt>
      <trkpt lat="41.5621110" lon="-0.9204920">
        <ele>426.9</ele>
        <time>2020-12-31T14:46:55Z</time>
      </trkpt>
      <trkpt lat="41.5621380" lon="-0.9205330">
        <ele>427.1</ele>
        <time>2020-12-31T14:46:57Z</time>
      </trkpt>
      <trkpt lat="41.5621700" lon="-0.9205830">
        <ele>427.3</ele>
        <time>2020-12-31T14:46:58Z</time>
      </trkpt>
      <trkpt lat="41.5621940" lon="-0.9206210">
        <ele>427.4</ele>
        <time>2020-12-31T14:46:59Z</time>
      </trkpt>
      <trkpt lat="41.5622170" lon="-0.9206530">
        <ele>427.6</ele>
        <time>2020-12-31T14:47:00Z</time>
      </trkpt>
      <trkpt lat="41.5622530" lon="-0.9207070">
        <ele>427.8</ele>
        <time>2020-12-31T14:47:02Z</time>
      </trkpt>
      <trkpt lat="41.5622830" lon="-0.9207520">
        <ele>427.9</ele>
        <time>2020-12-31T14:47:03Z</time>
      </trkpt>
      <trkpt lat="41.5623060" lon="-0.9207770">
        <ele>428.0</ele>
        <time>2020-12-31T14:47:04Z</time>
      </trkpt>
      <trkpt lat="41.5623380" lon="-0.9208010">
        <ele>428.2</ele>
        <time>2020-12-31T14:47:06Z</time>
      </trkpt>
      <trkpt lat="41.5623760" lon="-0.9208270">
        <ele>428.3</ele>
        <time>2020-12-31T14:47:07Z</time>
      </trkpt>
      <trkpt lat="41.5624340" lon="-0.9208630">
        <ele>428.5</ele>
        <time>2020-12-31T14:47:09Z</time>
      </trkpt>
      <trkpt lat="41.5624640" lon="-0.9208840">
        <ele>428.6</ele>
        <time>2020-12-31T14:47:10Z</time>
      </trkpt>
      <trkpt lat="41.5624910" lon="-0.9209050">
        <ele>428.6</ele>
        <time>2020-12-31T14:47:11Z</time>
      </trkpt>
      <trkpt lat="41.5625220" lon="-0.9209290">
        <ele>428.6</ele>
        <time>2020-12-31T14:47:12Z</time>
      </trkpt>
      <trkpt lat="41.5625310" lon="-0.9209360">
        <ele>428.6</ele>
        <time>2020-12-31T14:47:13Z</time>
      </trkpt>
      <trkpt lat="41.5625600" lon="-0.9209520">
        <ele>428.5</ele>
        <time>2020-12-31T14:47:14Z</time>
      </trkpt>
      <trkpt lat="41.5626040" lon="-0.9209660">
        <ele>428.3</ele>
        <time>2020-12-31T14:47:15Z</time>
      </trkpt>
      <trkpt lat="41.5626610" lon="-0.9209870">
        <ele>428.0</ele>
        <time>2020-12-31T14:47:17Z</time>
      </trkpt>
      <trkpt lat="41.5626960" lon="-0.9209990">
        <ele>427.7</ele>
        <time>2020-12-31T14:47:18Z</time>
      </trkpt>
      <trkpt lat="41.5627260" lon="-0.9210030">
        <ele>427.5</ele>
        <time>2020-12-31T14:47:20Z</time>
      </trkpt>
      <trkpt lat="41.5627630" lon="-0.9210110">
        <ele>427.3</ele>
        <time>2020-12-31T14:47:22Z</time>
      </trkpt>
      <trkpt lat="41.5627930" lon="-0.9210260">
        <ele>427.1</ele>
        <time>2020-12-31T14:47:23Z</time>
      </trkpt>
      <trkpt lat="41.5628240" lon="-0.9210570">
        <ele>426.9</ele>
        <time>2020-12-31T14:47:25Z</time>
      </trkpt>
      <trkpt lat="41.5628330" lon="-0.9210700">
        <ele>426.8</ele>
        <time>2020-12-31T14:47:26Z</time>
      </trkpt>
      <trkpt lat="41.5628490" lon="-0.9211150">
        <ele>426.7</ele>
        <time>2020-12-31T14:47:27Z</time>
      </trkpt>
      <trkpt lat="41.5628630" lon="-0.9211660">
        <ele>426.7</ele>
        <time>2020-12-31T14:47:29Z</time>
      </trkpt>
      <trkpt lat="41.5628860" lon="-0.9211980">
        <ele>426.7</ele>
        <time>2020-12-31T14:47:30Z</time>
      </trkpt>
      <trkpt lat="41.5628920" lon="-0.9212080">
        <ele>426.7</ele>
        <time>2020-12-31T14:47:31Z</time>
      </trkpt>
      <trkpt lat="41.5629130" lon="-0.9212260">
        <ele>426.7</ele>
        <time>2020-12-31T14:47:32Z</time>
      </trkpt>
      <trkpt lat="41.5629330" lon="-0.9212410">
        <ele>426.8</ele>
        <time>2020-12-31T14:47:34Z</time>
      </trkpt>
      <trkpt lat="41.5629680" lon="-0.9212690">
        <ele>427.0</ele>
        <time>2020-12-31T14:47:35Z</time>
      </trkpt>
      <trkpt lat="41.5630070" lon="-0.9213050">
        <ele>427.3</ele>
        <time>2020-12-31T14:47:36Z</time>
      </trkpt>
      <trkpt lat="41.5630530" lon="-0.9213330">
        <ele>427.9</ele>
        <time>2020-12-31T14:47:38Z</time>
      </trkpt>
      <trkpt lat="41.5630660" lon="-0.9213420">
        <ele>428.1</ele>
        <time>2020-12-31T14:47:39Z</time>
      </trkpt>
      <trkpt lat="41.5630800" lon="-0.9213520">
        <ele>428.3</ele>
        <time>2020-12-31T14:47:40Z</time>
      </trkpt>
      <trkpt lat="41.5631120" lon="-0.9213860">
        <ele>429.0</ele>
        <time>2020-12-31T14:47:42Z</time>
      </trkpt>
      <trkpt lat="41.5631240" lon="-0.9213940">
        <ele>429.2</ele>
        <time>2020-12-31T14:47:43Z</time>
      </trkpt>
      <trkpt lat="41.5631350" lon="-0.9214030">
        <ele>429.5</ele>
        <time>2020-12-31T14:47:44Z</time>
      </trkpt>
      <trkpt lat="41.5631560" lon="-0.9214400">
        <ele>430.1</ele>
        <time>2020-12-31T14:47:46Z</time>
      </trkpt>
      <trkpt lat="41.5631830" lon="-0.9214790">
        <ele>431.0</ele>
        <time>2020-12-31T14:47:47Z</time>
      </trkpt>
      <trkpt lat="41.5631920" lon="-0.9214910">
        <ele>431.2</ele>
        <time>2020-12-31T14:47:48Z</time>
      </trkpt>
      <trkpt lat="41.5632180" lon="-0.9215070">
        <ele>431.8</ele>
        <time>2020-12-31T14:47:50Z</time>
      </trkpt>
      <trkpt lat="41.5632330" lon="-0.9215150">
        <ele>432.2</ele>
        <time>2020-12-31T14:47:51Z</time>
      </trkpt>
      <trkpt lat="41.5632480" lon="-0.9215390">
        <ele>432.7</ele>
        <time>2020-12-31T14:47:53Z</time>
      </trkpt>
      <trkpt lat="41.5632640" lon="-0.9215550">
        <ele>433.1</ele>
        <time>2020-12-31T14:47:54Z</time>
      </trkpt>
      <trkpt lat="41.5632730" lon="-0.9215620">
        <ele>433.3</ele>
        <time>2020-12-31T14:47:55Z</time>
      </trkpt>
      <trkpt lat="41.5632810" lon="-0.9215690">
        <ele>433.5</ele>
        <time>2020-12-31T14:47:56Z</time>
      </trkpt>
      <trkpt lat="41.5632880" lon="-0.9215870">
        <ele>433.8</ele>
        <time>2020-12-31T14:47:57Z</time>
      </trkpt>
      <trkpt lat="41.5633000" lon="-0.9216130">
        <ele>434.2</ele>
        <time>2020-12-31T14:47:59Z</time>
      </trkpt>
      <trkpt lat="41.5633190" lon="-0.9216370">
        <ele>434.7</ele>
        <time>2020-12-31T14:48:00Z</time>
      </trkpt>
      <trkpt lat="41.5633260" lon="-0.9216480">
        <ele>434.8</ele>
        <time>2020-12-31T14:48:01Z</time>
      </trkpt>
      <trkpt lat="41.5633470" lon="-0.9216900">
        <ele>435.4</ele>
        <time>2020-12-31T14:48:03Z</time>
      </trkpt>
      <trkpt lat="41.5633610" lon="-0.9217320">
        <ele>435.9</ele>
        <time>2020-12-31T14:48:04Z</time>
      </trkpt>
      <trkpt lat="41.5633680" lon="-0.9217560">
        <ele>436.1</ele>
        <time>2020-12-31T14:48:05Z</time>
      </trkpt>
      <trkpt lat="41.5633790" lon="-0.9218100">
        <ele>436.6</ele>
        <time>2020-12-31T14:48:07Z</time>
      </trkpt>
      <trkpt lat="41.5633900" lon="-0.9218500">
        <ele>436.9</ele>
        <time>2020-12-31T14:48:08Z</time>
      </trkpt>
      <trkpt lat="41.5633920" lon="-0.9218620">
        <ele>437.0</ele>
        <time>2020-12-31T14:48:09Z</time>
      </trkpt>
      <trkpt lat="41.5633990" lon="-0.9219000">
        <ele>437.2</ele>
        <time>2020-12-31T14:48:11Z</time>
      </trkpt>
      <trkpt lat="41.5634060" lon="-0.9219430">
        <ele>437.4</ele>
        <time>2020-12-31T14:48:12Z</time>
      </trkpt>
      <trkpt lat="41.5634080" lon="-0.9219680">
        <ele>437.5</ele>
        <time>2020-12-31T14:48:13Z</time>
      </trkpt>
      <trkpt lat="41.5634140" lon="-0.9219810">
        <ele>437.6</ele>
        <time>2020-12-31T14:48:14Z</time>
      </trkpt>
      <trkpt lat="41.5634340" lon="-0.9220110">
        <ele>437.7</ele>
        <time>2020-12-31T14:48:16Z</time>
      </trkpt>
      <trkpt lat="41.5634520" lon="-0.9220680">
        <ele>437.7</ele>
        <time>2020-12-31T14:48:18Z</time>
      </trkpt>
      <trkpt lat="41.5634680" lon="-0.9221190">
        <ele>437.7</ele>
        <time>2020-12-31T14:48:19Z</time>
      </trkpt>
      <trkpt lat="41.5635110" lon="-0.9221780">
        <ele>437.6</ele>
        <time>2020-12-31T14:48:21Z</time>
      </trkpt>
      <trkpt lat="41.5635350" lon="-0.9222250">
        <ele>437.4</ele>
        <time>2020-12-31T14:48:23Z</time>
      </trkpt>
      <trkpt lat="41.5635610" lon="-0.9222660">
        <ele>437.1</ele>
        <time>2020-12-31T14:48:24Z</time>
      </trkpt>
      <trkpt lat="41.5635750" lon="-0.9222800">
        <ele>437.0</ele>
        <time>2020-12-31T14:48:25Z</time>
      </trkpt>
      <trkpt lat="41.5635960" lon="-0.9223050">
        <ele>436.9</ele>
        <time>2020-12-31T14:48:26Z</time>
      </trkpt>
      <trkpt lat="41.5636300" lon="-0.9223510">
        <ele>436.5</ele>
        <time>2020-12-31T14:48:27Z</time>
      </trkpt>
      <trkpt lat="41.5636560" lon="-0.9223870">
        <ele>436.1</ele>
        <time>2020-12-31T14:48:29Z</time>
      </trkpt>
      <trkpt lat="41.5636900" lon="-0.9224240">
        <ele>435.7</ele>
        <time>2020-12-31T14:48:30Z</time>
      </trkpt>
      <trkpt lat="41.5637260" lon="-0.9224640">
        <ele>435.2</ele>
        <time>2020-12-31T14:48:31Z</time>
      </trkpt>
      <trkpt lat="41.5637540" lon="-0.9224890">
        <ele>434.8</ele>
        <time>2020-12-31T14:48:32Z</time>
      </trkpt>
      <trkpt lat="41.5637800" lon="-0.9225010">
        <ele>434.5</ele>
        <time>2020-12-31T14:48:33Z</time>
      </trkpt>
      <trkpt lat="41.5638210" lon="-0.9225130">
        <ele>434.0</ele>
        <time>2020-12-31T14:48:35Z</time>
      </trkpt>
      <trkpt lat="41.5638740" lon="-0.9225080">
        <ele>433.5</ele>
        <time>2020-12-31T14:48:37Z</time>
      </trkpt>
      <trkpt lat="41.5641560" lon="-0.9226090">
        <ele>431.9</ele>
        <time>2020-12-31T14:48:38Z</time>
      </trkpt>
      <trkpt lat="41.5642490" lon="-0.9226420">
        <ele>431.8</ele>
        <time>2020-12-31T14:48:40Z</time>
      </trkpt>
      <trkpt lat="41.5642980" lon="-0.9226650">
        <ele>431.8</ele>
        <time>2020-12-31T14:48:41Z</time>
      </trkpt>
      <trkpt lat="41.5643400" lon="-0.9226860">
        <ele>431.8</ele>
        <time>2020-12-31T14:48:42Z</time>
      </trkpt>
      <trkpt lat="41.5643660" lon="-0.9227080">
        <ele>431.7</ele>
        <time>2020-12-31T14:48:44Z</time>
      </trkpt>
      <trkpt lat="41.5643930" lon="-0.9227160">
        <ele>431.7</ele>
        <time>2020-12-31T14:48:45Z</time>
      </trkpt>
      <trkpt lat="41.5644710" lon="-0.9227470">
        <ele>431.6</ele>
        <time>2020-12-31T14:48:46Z</time>
      </trkpt>
      <trkpt lat="41.5645790" lon="-0.9227730">
        <ele>431.4</ele>
        <time>2020-12-31T14:48:48Z</time>
      </trkpt>
      <trkpt lat="41.5646800" lon="-0.9228220">
        <ele>431.4</ele>
        <time>2020-12-31T14:48:50Z</time>
      </trkpt>
      <trkpt lat="41.5647380" lon="-0.9228780">
        <ele>431.6</ele>
        <time>2020-12-31T14:48:52Z</time>
      </trkpt>
      <trkpt lat="41.5647710" lon="-0.9229390">
        <ele>431.9</ele>
        <time>2020-12-31T14:48:53Z</time>
      </trkpt>
      <trkpt lat="41.5647810" lon="-0.9229840">
        <ele>432.2</ele>
        <time>2020-12-31T14:48:54Z</time>
      </trkpt>
      <trkpt lat="41.5647980" lon="-0.9230160">
        <ele>432.4</ele>
        <time>2020-12-31T14:48:56Z</time>
      </trkpt>
      <trkpt lat="41.5648160" lon="-0.9230510">
        <ele>432.7</ele>
        <time>2020-12-31T14:48:57Z</time>
      </trkpt>
      <trkpt lat="41.5648260" lon="-0.9230910">
        <ele>433.0</ele>
        <time>2020-12-31T14:48:58Z</time>
      </trkpt>
      <trkpt lat="41.5648380" lon="-0.9231370">
        <ele>433.4</ele>
        <time>2020-12-31T14:49:00Z</time>
      </trkpt>
      <trkpt lat="41.5648600" lon="-0.9231780">
        <ele>433.9</ele>
        <time>2020-12-31T14:49:02Z</time>
      </trkpt>
      <trkpt lat="41.5648720" lon="-0.9232060">
        <ele>434.2</ele>
        <time>2020-12-31T14:49:03Z</time>
      </trkpt>
      <trkpt lat="41.5648830" lon="-0.9232400">
        <ele>434.6</ele>
        <time>2020-12-31T14:49:05Z</time>
      </trkpt>
      <trkpt lat="41.5648950" lon="-0.9232800">
        <ele>435.0</ele>
        <time>2020-12-31T14:49:06Z</time>
      </trkpt>
      <trkpt lat="41.5649000" lon="-0.9232950">
        <ele>435.2</ele>
        <time>2020-12-31T14:49:07Z</time>
      </trkpt>
      <trkpt lat="41.5649140" lon="-0.9233330">
        <ele>435.7</ele>
        <time>2020-12-31T14:49:08Z</time>
      </trkpt>
      <trkpt lat="41.5649190" lon="-0.9233480">
        <ele>435.9</ele>
        <time>2020-12-31T14:49:09Z</time>
      </trkpt>
      <trkpt lat="41.5649350" lon="-0.9233850">
        <ele>436.4</ele>
        <time>2020-12-31T14:49:11Z</time>
      </trkpt>
      <trkpt lat="41.5649550" lon="-0.9234140">
        <ele>436.9</ele>
        <time>2020-12-31T14:49:12Z</time>
      </trkpt>
      <trkpt lat="41.5649630" lon="-0.9234450">
        <ele>437.3</ele>
        <time>2020-12-31T14:49:14Z</time>
      </trkpt>
      <trkpt lat="41.5649760" lon="-0.9234840">
        <ele>437.8</ele>
        <time>2020-12-31T14:49:16Z</time>
      </trkpt>
      <trkpt lat="41.5649840" lon="-0.9235100">
        <ele>438.2</ele>
        <time>2020-12-31T14:49:17Z</time>
      </trkpt>
      <trkpt lat="41.5649910" lon="-0.9235480">
        <ele>438.7</ele>
        <time>2020-12-31T14:49:19Z</time>
      </trkpt>
      <trkpt lat="41.5649950" lon="-0.9235790">
        <ele>439.1</ele>
        <time>2020-12-31T14:49:20Z</time>
      </trkpt>
      <trkpt lat="41.5649940" lon="-0.9236050">
        <ele>439.4</ele>
        <time>2020-12-31T14:49:22Z</time>
      </trkpt>
      <trkpt lat="41.5649910" lon="-0.9236240">
        <ele>439.7</ele>
        <time>2020-12-31T14:49:23Z</time>
      </trkpt>
      <trkpt lat="41.5649860" lon="-0.9236400">
        <ele>439.9</ele>
        <time>2020-12-31T14:49:24Z</time>
      </trkpt>
      <trkpt lat="41.5649840" lon="-0.9236590">
        <ele>440.1</ele>
        <time>2020-12-31T14:49:25Z</time>
      </trkpt>
      <trkpt lat="41.5649990" lon="-0.9236950">
        <ele>440.6</ele>
        <time>2020-12-31T14:49:27Z</time>
      </trkpt>
      <trkpt lat="41.5650040" lon="-0.9237120">
        <ele>440.9</ele>
        <time>2020-12-31T14:49:28Z</time>
      </trkpt>
      <trkpt lat="41.5650120" lon="-0.9237490">
        <ele>441.3</ele>
        <time>2020-12-31T14:49:30Z</time>
      </trkpt>
      <trkpt lat="41.5650200" lon="-0.9237720">
        <ele>441.6</ele>
        <time>2020-12-31T14:49:31Z</time>
      </trkpt>
      <trkpt lat="41.5650340" lon="-0.9238070">
        <ele>441.9</ele>
        <time>2020-12-31T14:49:33Z</time>
      </trkpt>
      <trkpt lat="41.5650390" lon="-0.9238210">
        <ele>442.1</ele>
        <time>2020-12-31T14:49:34Z</time>
      </trkpt>
      <trkpt lat="41.5650480" lon="-0.9238440">
        <ele>442.3</ele>
        <time>2020-12-31T14:49:35Z</time>
      </trkpt>
      <trkpt lat="41.5650590" lon="-0.9238630">
        <ele>442.4</ele>
        <time>2020-12-31T14:49:36Z</time>
      </trkpt>
      <trkpt lat="41.5650820" lon="-0.9238970">
        <ele>442.7</ele>
        <time>2020-12-31T14:49:38Z</time>
      </trkpt>
      <trkpt lat="41.5651060" lon="-0.9239080">
        <ele>442.9</ele>
        <time>2020-12-31T14:49:39Z</time>
      </trkpt>
      <trkpt lat="41.5651520" lon="-0.9239280">
        <ele>443.0</ele>
        <time>2020-12-31T14:49:41Z</time>
      </trkpt>
      <trkpt lat="41.5651910" lon="-0.9239360">
        <ele>443.1</ele>
        <time>2020-12-31T14:49:42Z</time>
      </trkpt>
      <trkpt lat="41.5652470" lon="-0.9239370">
        <ele>443.1</ele>
        <time>2020-12-31T14:49:43Z</time>
      </trkpt>
      <trkpt lat="41.5653230" lon="-0.9239620">
        <ele>442.9</ele>
        <time>2020-12-31T14:49:45Z</time>
      </trkpt>
      <trkpt lat="41.5653700" lon="-0.9239850">
        <ele>442.8</ele>
        <time>2020-12-31T14:49:46Z</time>
      </trkpt>
      <trkpt lat="41.5654300" lon="-0.9239950">
        <ele>442.6</ele>
        <time>2020-12-31T14:49:48Z</time>
      </trkpt>
      <trkpt lat="41.5654980" lon="-0.9239710">
        <ele>442.3</ele>
        <time>2020-12-31T14:49:49Z</time>
      </trkpt>
      <trkpt lat="41.5655970" lon="-0.9239020">
        <ele>441.8</ele>
        <time>2020-12-31T14:49:51Z</time>
      </trkpt>
      <trkpt lat="41.5656830" lon="-0.9237900">
        <ele>441.2</ele>
        <time>2020-12-31T14:49:53Z</time>
      </trkpt>
      <trkpt lat="41.5657700" lon="-0.9236850">
        <ele>440.6</ele>
        <time>2020-12-31T14:49:55Z</time>
      </trkpt>
      <trkpt lat="41.5658830" lon="-0.9236320">
        <ele>439.8</ele>
        <time>2020-12-31T14:49:57Z</time>
      </trkpt>
      <trkpt lat="41.5659420" lon="-0.9236260">
        <ele>439.4</ele>
        <time>2020-12-31T14:49:58Z</time>
      </trkpt>
      <trkpt lat="41.5660630" lon="-0.9236510">
        <ele>438.6</ele>
        <time>2020-12-31T14:50:00Z</time>
      </trkpt>
      <trkpt lat="41.5661240" lon="-0.9236770">
        <ele>438.1</ele>
        <time>2020-12-31T14:50:01Z</time>
      </trkpt>
      <trkpt lat="41.5662510" lon="-0.9236720">
        <ele>437.1</ele>
        <time>2020-12-31T14:50:03Z</time>
      </trkpt>
      <trkpt lat="41.5663150" lon="-0.9236330">
        <ele>436.7</ele>
        <time>2020-12-31T14:50:04Z</time>
      </trkpt>
      <trkpt lat="41.5664490" lon="-0.9235490">
        <ele>436.1</ele>
        <time>2020-12-31T14:50:06Z</time>
      </trkpt>
      <trkpt lat="41.5665830" lon="-0.9234820">
        <ele>435.9</ele>
        <time>2020-12-31T14:50:08Z</time>
      </trkpt>
      <trkpt lat="41.5666500" lon="-0.9234790">
        <ele>435.9</ele>
        <time>2020-12-31T14:50:09Z</time>
      </trkpt>
      <trkpt lat="41.5667490" lon="-0.9234960">
        <ele>435.9</ele>
        <time>2020-12-31T14:50:11Z</time>
      </trkpt>
      <trkpt lat="41.5667760" lon="-0.9235000">
        <ele>435.9</ele>
        <time>2020-12-31T14:50:12Z</time>
      </trkpt>
      <trkpt lat="41.5668360" lon="-0.9235160">
        <ele>436.0</ele>
        <time>2020-12-31T14:50:14Z</time>
      </trkpt>
      <trkpt lat="41.5668660" lon="-0.9235200">
        <ele>436.0</ele>
        <time>2020-12-31T14:50:15Z</time>
      </trkpt>
      <trkpt lat="41.5669310" lon="-0.9235280">
        <ele>435.9</ele>
        <time>2020-12-31T14:50:17Z</time>
      </trkpt>
      <trkpt lat="41.5670040" lon="-0.9235270">
        <ele>435.8</ele>
        <time>2020-12-31T14:50:18Z</time>
      </trkpt>
      <trkpt lat="41.5670310" lon="-0.9234980">
        <ele>435.8</ele>
        <time>2020-12-31T14:50:19Z</time>
      </trkpt>
      <trkpt lat="41.5670700" lon="-0.9234810">
        <ele>435.6</ele>
        <time>2020-12-31T14:50:20Z</time>
      </trkpt>
      <trkpt lat="41.5671100" lon="-0.9235090">
        <ele>435.5</ele>
        <time>2020-12-31T14:50:22Z</time>
      </trkpt>
      <trkpt lat="41.5671480" lon="-0.9235690">
        <ele>435.3</ele>
        <time>2020-12-31T14:50:23Z</time>
      </trkpt>
      <trkpt lat="41.5671740" lon="-0.9236230">
        <ele>435.1</ele>
        <time>2020-12-31T14:50:24Z</time>
      </trkpt>
      <trkpt lat="41.5672050" lon="-0.9236670">
        <ele>434.8</ele>
        <time>2020-12-31T14:50:25Z</time>
      </trkpt>
      <trkpt lat="41.5672420" lon="-0.9237200">
        <ele>434.4</ele>
        <time>2020-12-31T14:50:26Z</time>
      </trkpt>
      <trkpt lat="41.5673250" lon="-0.9238090">
        <ele>433.7</ele>
        <time>2020-12-31T14:50:28Z</time>
      </trkpt>
      <trkpt lat="41.5673750" lon="-0.9238610">
        <ele>433.2</ele>
        <time>2020-12-31T14:50:29Z</time>
      </trkpt>
      <trkpt lat="41.5674830" lon="-0.9239740">
        <ele>432.3</ele>
        <time>2020-12-31T14:50:31Z</time>
      </trkpt>
      <trkpt lat="41.5675370" lon="-0.9240340">
        <ele>432.0</ele>
        <time>2020-12-31T14:50:32Z</time>
      </trkpt>
      <trkpt lat="41.5675860" lon="-0.9240880">
        <ele>431.8</ele>
        <time>2020-12-31T14:50:33Z</time>
      </trkpt>
      <trkpt lat="41.5676250" lon="-0.9241410">
        <ele>431.6</ele>
        <time>2020-12-31T14:50:34Z</time>
      </trkpt>
      <trkpt lat="41.5676720" lon="-0.9242690">
        <ele>431.4</ele>
        <time>2020-12-31T14:50:36Z</time>
      </trkpt>
      <trkpt lat="41.5676950" lon="-0.9243980">
        <ele>431.3</ele>
        <time>2020-12-31T14:50:38Z</time>
      </trkpt>
      <trkpt lat="41.5676920" lon="-0.9245310">
        <ele>431.2</ele>
        <time>2020-12-31T14:50:40Z</time>
      </trkpt>
      <trkpt lat="41.5676800" lon="-0.9246560">
        <ele>431.3</ele>
        <time>2020-12-31T14:50:42Z</time>
      </trkpt>
      <trkpt lat="41.5676740" lon="-0.9246980">
        <ele>431.3</ele>
        <time>2020-12-31T14:50:43Z</time>
      </trkpt>
      <trkpt lat="41.5676580" lon="-0.9247930">
        <ele>431.4</ele>
        <time>2020-12-31T14:50:45Z</time>
      </trkpt>
      <trkpt lat="41.5676490" lon="-0.9248320">
        <ele>431.8</ele>
        <time>2020-12-31T14:50:46Z</time>
      </trkpt>
      <trkpt lat="41.5676760" lon="-0.9248880">
        <ele>432.0</ele>
        <time>2020-12-31T14:50:48Z</time>
      </trkpt>
      <trkpt lat="41.5676910" lon="-0.9248920">
        <ele>432.1</ele>
        <time>2020-12-31T14:50:49Z</time>
      </trkpt>
      <trkpt lat="41.5677210" lon="-0.9248710">
        <ele>432.2</ele>
        <time>2020-12-31T14:50:51Z</time>
      </trkpt>
      <trkpt lat="41.5677360" lon="-0.9248550">
        <ele>432.2</ele>
        <time>2020-12-31T14:50:52Z</time>
      </trkpt>
      <trkpt lat="41.5677620" lon="-0.9248280">
        <ele>432.4</ele>
        <time>2020-12-31T14:50:54Z</time>
      </trkpt>
      <trkpt lat="41.5677810" lon="-0.9248200">
        <ele>432.4</ele>
        <time>2020-12-31T14:50:55Z</time>
      </trkpt>
      <trkpt lat="41.5678120" lon="-0.9248010">
        <ele>432.5</ele>
        <time>2020-12-31T14:50:57Z</time>
      </trkpt>
      <trkpt lat="41.5678370" lon="-0.9247750">
        <ele>432.6</ele>
        <time>2020-12-31T14:50:58Z</time>
      </trkpt>
      <trkpt lat="41.5678440" lon="-0.9247670">
        <ele>432.7</ele>
        <time>2020-12-31T14:50:59Z</time>
      </trkpt>
      <trkpt lat="41.5678720" lon="-0.9247620">
        <ele>432.7</ele>
        <time>2020-12-31T14:51:01Z</time>
      </trkpt>
      <trkpt lat="41.5678890" lon="-0.9247730">
        <ele>432.8</ele>
        <time>2020-12-31T14:51:02Z</time>
      </trkpt>
      <trkpt lat="41.5679020" lon="-0.9247820">
        <ele>432.8</ele>
        <time>2020-12-31T14:51:03Z</time>
      </trkpt>
      <trkpt lat="41.5679160" lon="-0.9247820">
        <ele>432.9</ele>
        <time>2020-12-31T14:51:04Z</time>
      </trkpt>
      <trkpt lat="41.5679290" lon="-0.9247790">
        <ele>432.9</ele>
        <time>2020-12-31T14:51:06Z</time>
      </trkpt>
      <trkpt lat="41.5679430" lon="-0.9247840">
        <ele>432.9</ele>
        <time>2020-12-31T14:51:07Z</time>
      </trkpt>
      <trkpt lat="41.5679520" lon="-0.9247860">
        <ele>433.0</ele>
        <time>2020-12-31T14:51:08Z</time>
      </trkpt>
      <trkpt lat="41.5679710" lon="-0.9247850">
        <ele>433.0</ele>
        <time>2020-12-31T14:51:10Z</time>
      </trkpt>
      <trkpt lat="41.5679850" lon="-0.9247800">
        <ele>433.0</ele>
        <time>2020-12-31T14:51:11Z</time>
      </trkpt>
      <trkpt lat="41.5679860" lon="-0.9247760">
        <ele>433.0</ele>
        <time>2020-12-31T14:51:13Z</time>
      </trkpt>
      <trkpt lat="41.5679860" lon="-0.9247710">
        <ele>433.1</ele>
        <time>2020-12-31T14:51:15Z</time>
      </trkpt>
      <trkpt lat="41.5679870" lon="-0.9247660">
        <ele>433.1</ele>
        <time>2020-12-31T14:51:17Z</time>
      </trkpt>
      <trkpt lat="41.5679870" lon="-0.9247610">
        <ele>433.1</ele>
        <time>2020-12-31T14:51:18Z</time>
      </trkpt>
      <trkpt lat="41.5679880" lon="-0.9247570">
        <ele>433.1</ele>
        <time>2020-12-31T14:51:19Z</time>
      </trkpt>
      <trkpt lat="41.5679880" lon="-0.9247520">
        <ele>433.1</ele>
        <time>2020-12-31T14:51:21Z</time>
      </trkpt>
      <trkpt lat="41.5679890" lon="-0.9247470">
        <ele>433.1</ele>
        <time>2020-12-31T14:51:23Z</time>
      </trkpt>
      <trkpt lat="41.5679890" lon="-0.9247420">
        <ele>433.1</ele>
        <time>2020-12-31T14:51:24Z</time>
      </trkpt>
      <trkpt lat="41.5679900" lon="-0.9247380">
        <ele>433.0</ele>
        <time>2020-12-31T14:51:25Z</time>
      </trkpt>
      <trkpt lat="41.5679900" lon="-0.9247330">
        <ele>433.0</ele>
        <time>2020-12-31T14:51:27Z</time>
      </trkpt>
      <trkpt lat="41.5679900" lon="-0.9247280">
        <ele>433.0</ele>
        <time>2020-12-31T14:51:28Z</time>
      </trkpt>
      <trkpt lat="41.5679910" lon="-0.9247240">
        <ele>433.0</ele>
        <time>2020-12-31T14:51:29Z</time>
      </trkpt>
      <trkpt lat="41.5679910" lon="-0.9247190">
        <ele>432.9</ele>
        <time>2020-12-31T14:51:31Z</time>
      </trkpt>
      <trkpt lat="41.5679920" lon="-0.9247140">
        <ele>432.9</ele>
        <time>2020-12-31T14:51:33Z</time>
      </trkpt>
      <trkpt lat="41.5679920" lon="-0.9247090">
        <ele>432.9</ele>
        <time>2020-12-31T14:51:35Z</time>
      </trkpt>
      <trkpt lat="41.5679930" lon="-0.9247050">
        <ele>432.9</ele>
        <time>2020-12-31T14:51:37Z</time>
      </trkpt>
      <trkpt lat="41.5679930" lon="-0.9247000">
        <ele>432.8</ele>
        <time>2020-12-31T14:51:38Z</time>
      </trkpt>
      <trkpt lat="41.5679940" lon="-0.9246950">
        <ele>432.8</ele>
        <time>2020-12-31T14:51:39Z</time>
      </trkpt>
      <trkpt lat="41.5679940" lon="-0.9246900">
        <ele>432.8</ele>
        <time>2020-12-31T14:53:37Z</time>
      </trkpt>
      <trkpt lat="41.5679950" lon="-0.9246860">
        <ele>432.8</ele>
        <time>2020-12-31T14:53:38Z</time>
      </trkpt>
      <trkpt lat="41.5679950" lon="-0.9246810">
        <ele>432.7</ele>
        <time>2020-12-31T14:53:39Z</time>
      </trkpt>
      <trkpt lat="41.5680290" lon="-0.9246570">
        <ele>432.5</ele>
        <time>2020-12-31T14:53:41Z</time>
      </trkpt>
      <trkpt lat="41.5680650" lon="-0.9246390">
        <ele>432.2</ele>
        <time>2020-12-31T14:53:42Z</time>
      </trkpt>
      <trkpt lat="41.5681140" lon="-0.9246070">
        <ele>431.9</ele>
        <time>2020-12-31T14:53:44Z</time>
      </trkpt>
      <trkpt lat="41.5681720" lon="-0.9245800">
        <ele>431.5</ele>
        <time>2020-12-31T14:53:45Z</time>
      </trkpt>
      <trkpt lat="41.5682130" lon="-0.9245720">
        <ele>431.3</ele>
        <time>2020-12-31T14:53:47Z</time>
      </trkpt>
      <trkpt lat="41.5682580" lon="-0.9245590">
        <ele>431.1</ele>
        <time>2020-12-31T14:53:48Z</time>
      </trkpt>
      <trkpt lat="41.5683020" lon="-0.9245330">
        <ele>430.9</ele>
        <time>2020-12-31T14:53:50Z</time>
      </trkpt>
      <trkpt lat="41.5683320" lon="-0.9245110">
        <ele>430.8</ele>
        <time>2020-12-31T14:53:51Z</time>
      </trkpt>
      <trkpt lat="41.5683420" lon="-0.9245030">
        <ele>430.8</ele>
        <time>2020-12-31T14:53:52Z</time>
      </trkpt>
      <trkpt lat="41.5683850" lon="-0.9244880">
        <ele>430.9</ele>
        <time>2020-12-31T14:53:54Z</time>
      </trkpt>
      <trkpt lat="41.5684230" lon="-0.9244750">
        <ele>431.0</ele>
        <time>2020-12-31T14:53:56Z</time>
      </trkpt>
      <trkpt lat="41.5684470" lon="-0.9244580">
        <ele>431.0</ele>
        <time>2020-12-31T14:53:58Z</time>
      </trkpt>
      <trkpt lat="41.5684510" lon="-0.9244560">
        <ele>431.0</ele>
        <time>2020-12-31T14:54:00Z</time>
      </trkpt>
      <trkpt lat="41.5684540" lon="-0.9244540">
        <ele>431.0</ele>
        <time>2020-12-31T14:54:01Z</time>
      </trkpt>
      <trkpt lat="41.5684580" lon="-0.9244520">
        <ele>431.0</ele>
        <time>2020-12-31T14:54:02Z</time>
      </trkpt>
      <trkpt lat="41.5684620" lon="-0.9244500">
        <ele>431.0</ele>
        <time>2020-12-31T14:54:04Z</time>
      </trkpt>
      <trkpt lat="41.5684660" lon="-0.9244480">
        <ele>431.0</ele>
        <time>2020-12-31T14:54:05Z</time>
      </trkpt>
      <trkpt lat="41.5684700" lon="-0.9244460">
        <ele>431.0</ele>
        <time>2020-12-31T14:54:07Z</time>
      </trkpt>
      <trkpt lat="41.5684730" lon="-0.9244440">
        <ele>431.1</ele>
        <time>2020-12-31T14:54:09Z</time>
      </trkpt>
      <trkpt lat="41.5684770" lon="-0.9244420">
        <ele>431.1</ele>
        <time>2020-12-31T14:54:10Z</time>
      </trkpt>
      <trkpt lat="41.5684810" lon="-0.9244400">
        <ele>431.1</ele>
        <time>2020-12-31T14:54:11Z</time>
      </trkpt>
      <trkpt lat="41.5684850" lon="-0.9244380">
        <ele>431.1</ele>
        <time>2020-12-31T14:54:13Z</time>
      </trkpt>
      <trkpt lat="41.5684890" lon="-0.9244360">
        <ele>431.1</ele>
        <time>2020-12-31T14:54:15Z</time>
      </trkpt>
      <trkpt lat="41.5684920" lon="-0.9244340">
        <ele>431.1</ele>
        <time>2020-12-31T14:54:42Z</time>
      </trkpt>
      <trkpt lat="41.5684960" lon="-0.9244320">
        <ele>431.1</ele>
        <time>2020-12-31T14:54:43Z</time>
      </trkpt>
      <trkpt lat="41.5685000" lon="-0.9244300">
        <ele>431.1</ele>
        <time>2020-12-31T14:54:44Z</time>
      </trkpt>
      <trkpt lat="41.5684960" lon="-0.9244670">
        <ele>431.2</ele>
        <time>2020-12-31T14:54:46Z</time>
      </trkpt>
      <trkpt lat="41.5684920" lon="-0.9244820">
        <ele>431.2</ele>
        <time>2020-12-31T14:54:47Z</time>
      </trkpt>
      <trkpt lat="41.5684560" lon="-0.9244900">
        <ele>431.3</ele>
        <time>2020-12-31T14:54:49Z</time>
      </trkpt>
      <trkpt lat="41.5684180" lon="-0.9244840">
        <ele>431.4</ele>
        <time>2020-12-31T14:54:50Z</time>
      </trkpt>
      <trkpt lat="41.5684030" lon="-0.9244820">
        <ele>431.4</ele>
        <time>2020-12-31T14:54:51Z</time>
      </trkpt>
      <trkpt lat="41.5683780" lon="-0.9244930">
        <ele>431.5</ele>
        <time>2020-12-31T14:54:53Z</time>
      </trkpt>
      <trkpt lat="41.5683450" lon="-0.9245140">
        <ele>431.6</ele>
        <time>2020-12-31T14:54:55Z</time>
      </trkpt>
      <trkpt lat="41.5683230" lon="-0.9245210">
        <ele>431.7</ele>
        <time>2020-12-31T14:54:56Z</time>
      </trkpt>
      <trkpt lat="41.5683040" lon="-0.9245300">
        <ele>431.7</ele>
        <time>2020-12-31T14:54:58Z</time>
      </trkpt>
      <trkpt lat="41.5682840" lon="-0.9245550">
        <ele>431.8</ele>
        <time>2020-12-31T14:54:59Z</time>
      </trkpt>
      <trkpt lat="41.5682780" lon="-0.9245640">
        <ele>431.8</ele>
        <time>2020-12-31T14:55:00Z</time>
      </trkpt>
      <trkpt lat="41.5682680" lon="-0.9245730">
        <ele>431.9</ele>
        <time>2020-12-31T14:55:02Z</time>
      </trkpt>
      <trkpt lat="41.5682520" lon="-0.9245820">
        <ele>432.0</ele>
        <time>2020-12-31T14:55:03Z</time>
      </trkpt>
      <trkpt lat="41.5682080" lon="-0.9246100">
        <ele>432.1</ele>
        <time>2020-12-31T14:55:05Z</time>
      </trkpt>
      <trkpt lat="41.5681930" lon="-0.9246170">
        <ele>432.2</ele>
        <time>2020-12-31T14:55:06Z</time>
      </trkpt>
      <trkpt lat="41.5681790" lon="-0.9246240">
        <ele>432.2</ele>
        <time>2020-12-31T14:55:07Z</time>
      </trkpt>
      <trkpt lat="41.5681400" lon="-0.9246380">
        <ele>432.4</ele>
        <time>2020-12-31T14:55:09Z</time>
      </trkpt>
      <trkpt lat="41.5681100" lon="-0.9246540">
        <ele>432.5</ele>
        <time>2020-12-31T14:55:10Z</time>
      </trkpt>
      <trkpt lat="41.5680690" lon="-0.9246780">
        <ele>432.7</ele>
        <time>2020-12-31T14:55:12Z</time>
      </trkpt>
      <trkpt lat="41.5680410" lon="-0.9246950">
        <ele>432.8</ele>
        <time>2020-12-31T14:55:13Z</time>
      </trkpt>
      <trkpt lat="41.5680120" lon="-0.9247230">
        <ele>432.9</ele>
        <time>2020-12-31T14:55:15Z</time>
      </trkpt>
      <trkpt lat="41.5680030" lon="-0.9247320">
        <ele>432.9</ele>
        <time>2020-12-31T14:55:16Z</time>
      </trkpt>
      <trkpt lat="41.5679840" lon="-0.9247670">
        <ele>433.2</ele>
        <time>2020-12-31T14:55:17Z</time>
      </trkpt>
      <trkpt lat="41.5679690" lon="-0.9248300">
        <ele>433.3</ele>
        <time>2020-12-31T14:55:19Z</time>
      </trkpt>
      <trkpt lat="41.5679640" lon="-0.9248500">
        <ele>433.3</ele>
        <time>2020-12-31T14:55:20Z</time>
      </trkpt>
      <trkpt lat="41.5679600" lon="-0.9248690">
        <ele>433.3</ele>
        <time>2020-12-31T14:55:21Z</time>
      </trkpt>
      <trkpt lat="41.5679530" lon="-0.9248980">
        <ele>433.3</ele>
        <time>2020-12-31T14:55:22Z</time>
      </trkpt>
      <trkpt lat="41.5679380" lon="-0.9249350">
        <ele>433.3</ele>
        <time>2020-12-31T14:55:24Z</time>
      </trkpt>
      <trkpt lat="41.5679300" lon="-0.9249830">
        <ele>433.3</ele>
        <time>2020-12-31T14:55:25Z</time>
      </trkpt>
      <trkpt lat="41.5679300" lon="-0.9250060">
        <ele>433.2</ele>
        <time>2020-12-31T14:55:26Z</time>
      </trkpt>
      <trkpt lat="41.5679510" lon="-0.9250600">
        <ele>433.0</ele>
        <time>2020-12-31T14:55:27Z</time>
      </trkpt>
      <trkpt lat="41.5679910" lon="-0.9251250">
        <ele>432.6</ele>
        <time>2020-12-31T14:55:29Z</time>
      </trkpt>
      <trkpt lat="41.5680220" lon="-0.9251740">
        <ele>432.3</ele>
        <time>2020-12-31T14:55:30Z</time>
      </trkpt>
      <trkpt lat="41.5680550" lon="-0.9252340">
        <ele>431.9</ele>
        <time>2020-12-31T14:55:31Z</time>
      </trkpt>
      <trkpt lat="41.5680780" lon="-0.9252870">
        <ele>431.5</ele>
        <time>2020-12-31T14:55:32Z</time>
      </trkpt>
      <trkpt lat="41.5681090" lon="-0.9253870">
        <ele>430.7</ele>
        <time>2020-12-31T14:55:34Z</time>
      </trkpt>
      <trkpt lat="41.5681570" lon="-0.9255420">
        <ele>429.3</ele>
        <time>2020-12-31T14:55:36Z</time>
      </trkpt>
      <trkpt lat="41.5681890" lon="-0.9256220">
        <ele>428.5</ele>
        <time>2020-12-31T14:55:37Z</time>
      </trkpt>
      <trkpt lat="41.5682580" lon="-0.9257910">
        <ele>426.9</ele>
        <time>2020-12-31T14:55:39Z</time>
      </trkpt>
      <trkpt lat="41.5683490" lon="-0.9259320">
        <ele>425.6</ele>
        <time>2020-12-31T14:55:41Z</time>
      </trkpt>
      <trkpt lat="41.5683930" lon="-0.9260210">
        <ele>425.0</ele>
        <time>2020-12-31T14:55:43Z</time>
      </trkpt>
      <trkpt lat="41.5684130" lon="-0.9261090">
        <ele>424.4</ele>
        <time>2020-12-31T14:55:44Z</time>
      </trkpt>
      <trkpt lat="41.5684320" lon="-0.9261900">
        <ele>423.7</ele>
        <time>2020-12-31T14:55:45Z</time>
      </trkpt>
      <trkpt lat="41.5684710" lon="-0.9263610">
        <ele>422.1</ele>
        <time>2020-12-31T14:55:47Z</time>
      </trkpt>
      <trkpt lat="41.5685120" lon="-0.9265460">
        <ele>420.4</ele>
        <time>2020-12-31T14:55:49Z</time>
      </trkpt>
      <trkpt lat="41.5685270" lon="-0.9267520">
        <ele>418.8</ele>
        <time>2020-12-31T14:55:51Z</time>
      </trkpt>
      <trkpt lat="41.5685430" lon="-0.9268500">
        <ele>418.2</ele>
        <time>2020-12-31T14:55:52Z</time>
      </trkpt>
      <trkpt lat="41.5685730" lon="-0.9269330">
        <ele>417.6</ele>
        <time>2020-12-31T14:55:53Z</time>
      </trkpt>
      <trkpt lat="41.5686280" lon="-0.9271020">
        <ele>416.5</ele>
        <time>2020-12-31T14:55:55Z</time>
      </trkpt>
      <trkpt lat="41.5686610" lon="-0.9271940">
        <ele>416.0</ele>
        <time>2020-12-31T14:55:56Z</time>
      </trkpt>
      <trkpt lat="41.5686860" lon="-0.9272750">
        <ele>415.4</ele>
        <time>2020-12-31T14:55:57Z</time>
      </trkpt>
      <trkpt lat="41.5686810" lon="-0.9273960">
        <ele>414.7</ele>
        <time>2020-12-31T14:55:59Z</time>
      </trkpt>
      <trkpt lat="41.5686750" lon="-0.9274750">
        <ele>414.2</ele>
        <time>2020-12-31T14:56:00Z</time>
      </trkpt>
      <trkpt lat="41.5686740" lon="-0.9276580">
        <ele>413.2</ele>
        <time>2020-12-31T14:56:02Z</time>
      </trkpt>
      <trkpt lat="41.5687380" lon="-0.9278010">
        <ele>412.4</ele>
        <time>2020-12-31T14:56:04Z</time>
      </trkpt>
      <trkpt lat="41.5688390" lon="-0.9279330">
        <ele>411.7</ele>
        <time>2020-12-31T14:56:06Z</time>
      </trkpt>
      <trkpt lat="41.5689390" lon="-0.9280490">
        <ele>411.3</ele>
        <time>2020-12-31T14:56:08Z</time>
      </trkpt>
      <trkpt lat="41.5690310" lon="-0.9281710">
        <ele>410.9</ele>
        <time>2020-12-31T14:56:10Z</time>
      </trkpt>
      <trkpt lat="41.5690840" lon="-0.9282180">
        <ele>410.6</ele>
        <time>2020-12-31T14:56:11Z</time>
      </trkpt>
      <trkpt lat="41.5691350" lon="-0.9282450">
        <ele>410.3</ele>
        <time>2020-12-31T14:56:12Z</time>
      </trkpt>
      <trkpt lat="41.5691980" lon="-0.9283370">
        <ele>409.8</ele>
        <time>2020-12-31T14:56:14Z</time>
      </trkpt>
      <trkpt lat="41.5692480" lon="-0.9283960">
        <ele>409.5</ele>
        <time>2020-12-31T14:56:15Z</time>
      </trkpt>
      <trkpt lat="41.5693490" lon="-0.9285340">
        <ele>408.7</ele>
        <time>2020-12-31T14:56:17Z</time>
      </trkpt>
      <trkpt lat="41.5694750" lon="-0.9286060">
        <ele>408.4</ele>
        <time>2020-12-31T14:56:19Z</time>
      </trkpt>
      <trkpt lat="41.5695640" lon="-0.9286980">
        <ele>408.4</ele>
        <time>2020-12-31T14:56:21Z</time>
      </trkpt>
      <trkpt lat="41.5696120" lon="-0.9287490">
        <ele>408.5</ele>
        <time>2020-12-31T14:56:22Z</time>
      </trkpt>
      <trkpt lat="41.5697120" lon="-0.9288610">
        <ele>408.4</ele>
        <time>2020-12-31T14:56:24Z</time>
      </trkpt>
      <trkpt lat="41.5697940" lon="-0.9289620">
        <ele>407.8</ele>
        <time>2020-12-31T14:56:26Z</time>
      </trkpt>
      <trkpt lat="41.5698740" lon="-0.9290610">
        <ele>406.8</ele>
        <time>2020-12-31T14:56:28Z</time>
      </trkpt>
      <trkpt lat="41.5699290" lon="-0.9291310">
        <ele>405.9</ele>
        <time>2020-12-31T14:56:29Z</time>
      </trkpt>
      <trkpt lat="41.5700320" lon="-0.9293240">
        <ele>403.9</ele>
        <time>2020-12-31T14:56:31Z</time>
      </trkpt>
      <trkpt lat="41.5701430" lon="-0.9294860">
        <ele>402.6</ele>
        <time>2020-12-31T14:56:33Z</time>
      </trkpt>
      <trkpt lat="41.5702230" lon="-0.9296300">
        <ele>401.9</ele>
        <time>2020-12-31T14:56:35Z</time>
      </trkpt>
      <trkpt lat="41.5703260" lon="-0.9297450">
        <ele>401.8</ele>
        <time>2020-12-31T14:56:37Z</time>
      </trkpt>
      <trkpt lat="41.5703690" lon="-0.9298390">
        <ele>402.3</ele>
        <time>2020-12-31T14:56:39Z</time>
      </trkpt>
      <trkpt lat="41.5704100" lon="-0.9299490">
        <ele>403.0</ele>
        <time>2020-12-31T14:56:41Z</time>
      </trkpt>
      <trkpt lat="41.5704100" lon="-0.9299750">
        <ele>403.1</ele>
        <time>2020-12-31T14:56:42Z</time>
      </trkpt>
      <trkpt lat="41.5703910" lon="-0.9300350">
        <ele>403.3</ele>
        <time>2020-12-31T14:56:44Z</time>
      </trkpt>
      <trkpt lat="41.5703620" lon="-0.9301050">
        <ele>403.3</ele>
        <time>2020-12-31T14:56:46Z</time>
      </trkpt>
      <trkpt lat="41.5703300" lon="-0.9301750">
        <ele>403.1</ele>
        <time>2020-12-31T14:56:48Z</time>
      </trkpt>
      <trkpt lat="41.5703040" lon="-0.9301890">
        <ele>402.9</ele>
        <time>2020-12-31T14:56:49Z</time>
      </trkpt>
      <trkpt lat="41.5702730" lon="-0.9302540">
        <ele>402.6</ele>
        <time>2020-12-31T14:56:50Z</time>
      </trkpt>
      <trkpt lat="41.5702420" lon="-0.9303080">
        <ele>402.2</ele>
        <time>2020-12-31T14:56:52Z</time>
      </trkpt>
      <trkpt lat="41.5702050" lon="-0.9303670">
        <ele>401.9</ele>
        <time>2020-12-31T14:56:53Z</time>
      </trkpt>
      <trkpt lat="41.5701680" lon="-0.9304140">
        <ele>401.5</ele>
        <time>2020-12-31T14:56:55Z</time>
      </trkpt>
      <trkpt lat="41.5701500" lon="-0.9304520">
        <ele>401.2</ele>
        <time>2020-12-31T14:56:57Z</time>
      </trkpt>
      <trkpt lat="41.5701520" lon="-0.9304730">
        <ele>401.1</ele>
        <time>2020-12-31T14:56:58Z</time>
      </trkpt>
      <trkpt lat="41.5701470" lon="-0.9305090">
        <ele>400.8</ele>
        <time>2020-12-31T14:57:00Z</time>
      </trkpt>
      <trkpt lat="41.5701410" lon="-0.9305610">
        <ele>400.4</ele>
        <time>2020-12-31T14:57:01Z</time>
      </trkpt>
      <trkpt lat="41.5701380" lon="-0.9305780">
        <ele>400.2</ele>
        <time>2020-12-31T14:57:02Z</time>
      </trkpt>
      <trkpt lat="41.5701320" lon="-0.9306340">
        <ele>399.7</ele>
        <time>2020-12-31T14:57:03Z</time>
      </trkpt>
      <trkpt lat="41.5701310" lon="-0.9306560">
        <ele>399.4</ele>
        <time>2020-12-31T14:57:04Z</time>
      </trkpt>
      <trkpt lat="41.5701210" lon="-0.9307610">
        <ele>398.2</ele>
        <time>2020-12-31T14:57:06Z</time>
      </trkpt>
      <trkpt lat="41.5701070" lon="-0.9308630">
        <ele>397.0</ele>
        <time>2020-12-31T14:57:07Z</time>
      </trkpt>
      <trkpt lat="41.5700820" lon="-0.9309700">
        <ele>395.6</ele>
        <time>2020-12-31T14:57:08Z</time>
      </trkpt>
      <trkpt lat="41.5700770" lon="-0.9311450">
        <ele>393.7</ele>
        <time>2020-12-31T14:57:10Z</time>
      </trkpt>
      <trkpt lat="41.5701120" lon="-0.9311700">
        <ele>393.1</ele>
        <time>2020-12-31T14:57:11Z</time>
      </trkpt>
      <trkpt lat="41.5701210" lon="-0.9311870">
        <ele>392.9</ele>
        <time>2020-12-31T14:57:12Z</time>
      </trkpt>
      <trkpt lat="41.5701580" lon="-0.9312970">
        <ele>391.5</ele>
        <time>2020-12-31T14:57:14Z</time>
      </trkpt>
      <trkpt lat="41.5702020" lon="-0.9314570">
        <ele>389.7</ele>
        <time>2020-12-31T14:57:16Z</time>
      </trkpt>
      <trkpt lat="41.5702870" lon="-0.9316080">
        <ele>387.6</ele>
        <time>2020-12-31T14:57:18Z</time>
      </trkpt>
      <trkpt lat="41.5703310" lon="-0.9316870">
        <ele>386.5</ele>
        <time>2020-12-31T14:57:19Z</time>
      </trkpt>
      <trkpt lat="41.5703720" lon="-0.9317680">
        <ele>385.5</ele>
        <time>2020-12-31T14:57:20Z</time>
      </trkpt>
      <trkpt lat="41.5704410" lon="-0.9318280">
        <ele>384.5</ele>
        <time>2020-12-31T14:57:21Z</time>
      </trkpt>
      <trkpt lat="41.5705860" lon="-0.9319240">
        <ele>382.5</ele>
        <time>2020-12-31T14:57:23Z</time>
      </trkpt>
      <trkpt lat="41.5707170" lon="-0.9320080">
        <ele>380.8</ele>
        <time>2020-12-31T14:57:25Z</time>
      </trkpt>
      <trkpt lat="41.5707900" lon="-0.9320590">
        <ele>379.8</ele>
        <time>2020-12-31T14:57:26Z</time>
      </trkpt>
      <trkpt lat="41.5709380" lon="-0.9321240">
        <ele>377.9</ele>
        <time>2020-12-31T14:57:28Z</time>
      </trkpt>
      <trkpt lat="41.5710010" lon="-0.9321680">
        <ele>377.0</ele>
        <time>2020-12-31T14:57:29Z</time>
      </trkpt>
      <trkpt lat="41.5710750" lon="-0.9322240">
        <ele>376.0</ele>
        <time>2020-12-31T14:57:30Z</time>
      </trkpt>
      <trkpt lat="41.5712270" lon="-0.9323360">
        <ele>373.9</ele>
        <time>2020-12-31T14:57:32Z</time>
      </trkpt>
      <trkpt lat="41.5713020" lon="-0.9323820">
        <ele>373.1</ele>
        <time>2020-12-31T14:57:33Z</time>
      </trkpt>
      <trkpt lat="41.5713750" lon="-0.9324230">
        <ele>372.4</ele>
        <time>2020-12-31T14:57:34Z</time>
      </trkpt>
      <trkpt lat="41.5714990" lon="-0.9325460">
        <ele>372.1</ele>
        <time>2020-12-31T14:57:36Z</time>
      </trkpt>
      <trkpt lat="41.5715620" lon="-0.9326570">
        <ele>372.9</ele>
        <time>2020-12-31T14:57:38Z</time>
      </trkpt>
      <trkpt lat="41.5715710" lon="-0.9327040">
        <ele>373.4</ele>
        <time>2020-12-31T14:57:40Z</time>
      </trkpt>
      <trkpt lat="41.5715780" lon="-0.9327140">
        <ele>373.6</ele>
        <time>2020-12-31T14:57:41Z</time>
      </trkpt>
      <trkpt lat="41.5715800" lon="-0.9327240">
        <ele>373.8</ele>
        <time>2020-12-31T14:57:43Z</time>
      </trkpt>
      <trkpt lat="41.5715840" lon="-0.9327390">
        <ele>374.0</ele>
        <time>2020-12-31T14:57:44Z</time>
      </trkpt>
      <trkpt lat="41.5715870" lon="-0.9327510">
        <ele>374.2</ele>
        <time>2020-12-31T14:57:45Z</time>
      </trkpt>
      <trkpt lat="41.5715830" lon="-0.9327530">
        <ele>374.3</ele>
        <time>2020-12-31T14:57:46Z</time>
      </trkpt>
      <trkpt lat="41.5715870" lon="-0.9327710">
        <ele>374.6</ele>
        <time>2020-12-31T14:57:47Z</time>
      </trkpt>
      <trkpt lat="41.5715950" lon="-0.9328100">
        <ele>375.2</ele>
        <time>2020-12-31T14:57:49Z</time>
      </trkpt>
      <trkpt lat="41.5716030" lon="-0.9328450">
        <ele>375.8</ele>
        <time>2020-12-31T14:57:50Z</time>
      </trkpt>
      <trkpt lat="41.5716170" lon="-0.9328650">
        <ele>376.2</ele>
        <time>2020-12-31T14:57:51Z</time>
      </trkpt>
      <trkpt lat="41.5716240" lon="-0.9328720">
        <ele>376.4</ele>
        <time>2020-12-31T14:57:53Z</time>
      </trkpt>
      <trkpt lat="41.5716300" lon="-0.9328800">
        <ele>376.6</ele>
        <time>2020-12-31T14:57:54Z</time>
      </trkpt>
      <trkpt lat="41.5716380" lon="-0.9328880">
        <ele>376.8</ele>
        <time>2020-12-31T14:57:55Z</time>
      </trkpt>
      <trkpt lat="41.5716520" lon="-0.9329010">
        <ele>377.1</ele>
        <time>2020-12-31T14:57:56Z</time>
      </trkpt>
      <trkpt lat="41.5716760" lon="-0.9328990">
        <ele>377.4</ele>
        <time>2020-12-31T14:57:58Z</time>
      </trkpt>
      <trkpt lat="41.5716900" lon="-0.9328980">
        <ele>377.6</ele>
        <time>2020-12-31T14:58:00Z</time>
      </trkpt>
      <trkpt lat="41.5717050" lon="-0.9328960">
        <ele>377.8</ele>
        <time>2020-12-31T14:58:02Z</time>
      </trkpt>
      <trkpt lat="41.5717190" lon="-0.9328950">
        <ele>377.9</ele>
        <time>2020-12-31T14:58:04Z</time>
      </trkpt>
      <trkpt lat="41.5717340" lon="-0.9328930">
        <ele>378.1</ele>
        <time>2020-12-31T14:58:05Z</time>
      </trkpt>
      <trkpt lat="41.5717690" lon="-0.9328920">
        <ele>378.3</ele>
        <time>2020-12-31T14:58:06Z</time>
      </trkpt>
      <trkpt lat="41.5718120" lon="-0.9329010">
        <ele>378.4</ele>
        <time>2020-12-31T14:58:08Z</time>
      </trkpt>
      <trkpt lat="41.5718630" lon="-0.9329250">
        <ele>378.4</ele>
        <time>2020-12-31T14:58:09Z</time>
      </trkpt>
      <trkpt lat="41.5719290" lon="-0.9329530">
        <ele>378.3</ele>
        <time>2020-12-31T14:58:10Z</time>
      </trkpt>
      <trkpt lat="41.5719830" lon="-0.9329750">
        <ele>378.1</ele>
        <time>2020-12-31T14:58:12Z</time>
      </trkpt>
      <trkpt lat="41.5720330" lon="-0.9329930">
        <ele>378.0</ele>
        <time>2020-12-31T14:58:13Z</time>
      </trkpt>
      <trkpt lat="41.5720690" lon="-0.9329990">
        <ele>377.9</ele>
        <time>2020-12-31T14:58:14Z</time>
      </trkpt>
      <trkpt lat="41.5721110" lon="-0.9330060">
        <ele>377.8</ele>
        <time>2020-12-31T14:58:15Z</time>
      </trkpt>
      <trkpt lat="41.5721460" lon="-0.9330290">
        <ele>377.7</ele>
        <time>2020-12-31T14:58:16Z</time>
      </trkpt>
      <trkpt lat="41.5721840" lon="-0.9330850">
        <ele>377.6</ele>
        <time>2020-12-31T14:58:17Z</time>
      </trkpt>
      <trkpt lat="41.5722210" lon="-0.9331560">
        <ele>377.4</ele>
        <time>2020-12-31T14:58:19Z</time>
      </trkpt>
      <trkpt lat="41.5722560" lon="-0.9332230">
        <ele>377.3</ele>
        <time>2020-12-31T14:58:21Z</time>
      </trkpt>
      <trkpt lat="41.5722710" lon="-0.9332570">
        <ele>377.2</ele>
        <time>2020-12-31T14:58:22Z</time>
      </trkpt>
      <trkpt lat="41.5723340" lon="-0.9332920">
        <ele>377.0</ele>
        <time>2020-12-31T14:58:23Z</time>
      </trkpt>
      <trkpt lat="41.5723740" lon="-0.9333260">
        <ele>376.9</ele>
        <time>2020-12-31T14:58:24Z</time>
      </trkpt>
      <trkpt lat="41.5724150" lon="-0.9333530">
        <ele>376.8</ele>
        <time>2020-12-31T14:58:25Z</time>
      </trkpt>
      <trkpt lat="41.5724470" lon="-0.9333700">
        <ele>376.4</ele>
        <time>2020-12-31T14:58:27Z</time>
      </trkpt>
      <trkpt lat="41.5724620" lon="-0.9333780">
        <ele>376.2</ele>
        <time>2020-12-31T14:58:28Z</time>
      </trkpt>
      <trkpt lat="41.5724800" lon="-0.9333630">
        <ele>376.5</ele>
        <time>2020-12-31T14:58:29Z</time>
      </trkpt>
      <trkpt lat="41.5725090" lon="-0.9333160">
        <ele>376.7</ele>
        <time>2020-12-31T14:58:31Z</time>
      </trkpt>
      <trkpt lat="41.5725270" lon="-0.9332800">
        <ele>376.6</ele>
        <time>2020-12-31T14:58:32Z</time>
      </trkpt>
      <trkpt lat="41.5725600" lon="-0.9332540">
        <ele>376.6</ele>
        <time>2020-12-31T14:58:33Z</time>
      </trkpt>
      <trkpt lat="41.5726190" lon="-0.9332320">
        <ele>376.5</ele>
        <time>2020-12-31T14:58:34Z</time>
      </trkpt>
      <trkpt lat="41.5726710" lon="-0.9332160">
        <ele>376.1</ele>
        <time>2020-12-31T14:58:36Z</time>
      </trkpt>
      <trkpt lat="41.5727050" lon="-0.9332050">
        <ele>375.8</ele>
        <time>2020-12-31T14:58:37Z</time>
      </trkpt>
      <trkpt lat="41.5727530" lon="-0.9331890">
        <ele>375.5</ele>
        <time>2020-12-31T14:58:38Z</time>
      </trkpt>
      <trkpt lat="41.5727900" lon="-0.9331760">
        <ele>375.0</ele>
        <time>2020-12-31T14:58:40Z</time>
      </trkpt>
      <trkpt lat="41.5728240" lon="-0.9331620">
        <ele>374.7</ele>
        <time>2020-12-31T14:58:41Z</time>
      </trkpt>
      <trkpt lat="41.5728650" lon="-0.9331550">
        <ele>374.4</ele>
        <time>2020-12-31T14:58:42Z</time>
      </trkpt>
      <trkpt lat="41.5729130" lon="-0.9331490">
        <ele>373.9</ele>
        <time>2020-12-31T14:58:44Z</time>
      </trkpt>
      <trkpt lat="41.5729710" lon="-0.9331540">
        <ele>373.6</ele>
        <time>2020-12-31T14:58:46Z</time>
      </trkpt>
      <trkpt lat="41.5730280" lon="-0.9331820">
        <ele>373.3</ele>
        <time>2020-12-31T14:58:48Z</time>
      </trkpt>
      <trkpt lat="41.5730550" lon="-0.9331870">
        <ele>373.0</ele>
        <time>2020-12-31T14:58:49Z</time>
      </trkpt>
      <trkpt lat="41.5731000" lon="-0.9331800">
        <ele>372.8</ele>
        <time>2020-12-31T14:58:51Z</time>
      </trkpt>
      <trkpt lat="41.5731420" lon="-0.9331560">
        <ele>372.5</ele>
        <time>2020-12-31T14:58:52Z</time>
      </trkpt>
      <trkpt lat="41.5731710" lon="-0.9331260">
        <ele>372.3</ele>
        <time>2020-12-31T14:58:53Z</time>
      </trkpt>
      <trkpt lat="41.5732070" lon="-0.9330750">
        <ele>372.0</ele>
        <time>2020-12-31T14:58:55Z</time>
      </trkpt>
      <trkpt lat="41.5732250" lon="-0.9330460">
        <ele>371.5</ele>
        <time>2020-12-31T14:58:56Z</time>
      </trkpt>
      <trkpt lat="41.5732470" lon="-0.9330110">
        <ele>370.9</ele>
        <time>2020-12-31T14:58:57Z</time>
      </trkpt>
      <trkpt lat="41.5735450" lon="-0.9326100">
        <ele>366.4</ele>
        <time>2020-12-31T14:58:59Z</time>
      </trkpt>
      <trkpt lat="41.5736490" lon="-0.9325090">
        <ele>365.3</ele>
        <time>2020-12-31T14:59:00Z</time>
      </trkpt>
      <trkpt lat="41.5738260" lon="-0.9324760">
        <ele>364.4</ele>
        <time>2020-12-31T14:59:02Z</time>
      </trkpt>
      <trkpt lat="41.5739300" lon="-0.9325850">
        <ele>364.7</ele>
        <time>2020-12-31T14:59:04Z</time>
      </trkpt>
      <trkpt lat="41.5739650" lon="-0.9326380">
        <ele>365.2</ele>
        <time>2020-12-31T14:59:05Z</time>
      </trkpt>
      <trkpt lat="41.5740470" lon="-0.9327240">
        <ele>365.3</ele>
        <time>2020-12-31T14:59:07Z</time>
      </trkpt>
      <trkpt lat="41.5740860" lon="-0.9327770">
        <ele>365.3</ele>
        <time>2020-12-31T14:59:08Z</time>
      </trkpt>
      <trkpt lat="41.5741760" lon="-0.9328640">
        <ele>365.2</ele>
        <time>2020-12-31T14:59:10Z</time>
      </trkpt>
      <trkpt lat="41.5742250" lon="-0.9328860">
        <ele>364.8</ele>
        <time>2020-12-31T14:59:11Z</time>
      </trkpt>
      <trkpt lat="41.5742770" lon="-0.9328850">
        <ele>364.1</ele>
        <time>2020-12-31T14:59:12Z</time>
      </trkpt>
      <trkpt lat="41.5743760" lon="-0.9328800">
        <ele>362.9</ele>
        <time>2020-12-31T14:59:14Z</time>
      </trkpt>
      <trkpt lat="41.5744250" lon="-0.9328870">
        <ele>362.4</ele>
        <time>2020-12-31T14:59:15Z</time>
      </trkpt>
      <trkpt lat="41.5745310" lon="-0.9329100">
        <ele>361.2</ele>
        <time>2020-12-31T14:59:17Z</time>
      </trkpt>
      <trkpt lat="41.5745580" lon="-0.9329490">
        <ele>360.9</ele>
        <time>2020-12-31T14:59:18Z</time>
      </trkpt>
      <trkpt lat="41.5745700" lon="-0.9329620">
        <ele>360.8</ele>
        <time>2020-12-31T14:59:19Z</time>
      </trkpt>
      <trkpt lat="41.5746620" lon="-0.9329780">
        <ele>359.8</ele>
        <time>2020-12-31T14:59:21Z</time>
      </trkpt>
      <trkpt lat="41.5746940" lon="-0.9330070">
        <ele>359.6</ele>
        <time>2020-12-31T14:59:22Z</time>
      </trkpt>
      <trkpt lat="41.5747330" lon="-0.9330640">
        <ele>359.2</ele>
        <time>2020-12-31T14:59:23Z</time>
      </trkpt>
      <trkpt lat="41.5748230" lon="-0.9331780">
        <ele>358.4</ele>
        <time>2020-12-31T14:59:25Z</time>
      </trkpt>
      <trkpt lat="41.5749360" lon="-0.9332590">
        <ele>357.4</ele>
        <time>2020-12-31T14:59:27Z</time>
      </trkpt>
      <trkpt lat="41.5750020" lon="-0.9332840">
        <ele>356.6</ele>
        <time>2020-12-31T14:59:28Z</time>
      </trkpt>
      <trkpt lat="41.5751350" lon="-0.9333710">
        <ele>355.0</ele>
        <time>2020-12-31T14:59:30Z</time>
      </trkpt>
      <trkpt lat="41.5752800" lon="-0.9334420">
        <ele>353.7</ele>
        <time>2020-12-31T14:59:32Z</time>
      </trkpt>
      <trkpt lat="41.5753550" lon="-0.9334620">
        <ele>353.1</ele>
        <time>2020-12-31T14:59:33Z</time>
      </trkpt>
      <trkpt lat="41.5755180" lon="-0.9334870">
        <ele>351.5</ele>
        <time>2020-12-31T14:59:35Z</time>
      </trkpt>
      <trkpt lat="41.5755940" lon="-0.9334860">
        <ele>350.8</ele>
        <time>2020-12-31T14:59:36Z</time>
      </trkpt>
      <trkpt lat="41.5756880" lon="-0.9336170">
        <ele>350.2</ele>
        <time>2020-12-31T14:59:38Z</time>
      </trkpt>
      <trkpt lat="41.5757440" lon="-0.9336760">
        <ele>349.7</ele>
        <time>2020-12-31T14:59:39Z</time>
      </trkpt>
      <trkpt lat="41.5757990" lon="-0.9337280">
        <ele>349.4</ele>
        <time>2020-12-31T14:59:40Z</time>
      </trkpt>
      <trkpt lat="41.5759040" lon="-0.9338390">
        <ele>349.0</ele>
        <time>2020-12-31T14:59:42Z</time>
      </trkpt>
      <trkpt lat="41.5760210" lon="-0.9339300">
        <ele>348.5</ele>
        <time>2020-12-31T14:59:44Z</time>
      </trkpt>
      <trkpt lat="41.5761490" lon="-0.9340010">
        <ele>347.4</ele>
        <time>2020-12-31T14:59:46Z</time>
      </trkpt>
      <trkpt lat="41.5762840" lon="-0.9340520">
        <ele>346.6</ele>
        <time>2020-12-31T14:59:48Z</time>
      </trkpt>
      <trkpt lat="41.5763640" lon="-0.9340940">
        <ele>346.2</ele>
        <time>2020-12-31T14:59:50Z</time>
      </trkpt>
      <trkpt lat="41.5764040" lon="-0.9341430">
        <ele>346.3</ele>
        <time>2020-12-31T14:59:52Z</time>
      </trkpt>
      <trkpt lat="41.5764330" lon="-0.9341770">
        <ele>346.0</ele>
        <time>2020-12-31T14:59:53Z</time>
      </trkpt>
      <trkpt lat="41.5764560" lon="-0.9342030">
        <ele>345.8</ele>
        <time>2020-12-31T14:59:54Z</time>
      </trkpt>
      <trkpt lat="41.5765080" lon="-0.9342610">
        <ele>345.6</ele>
        <time>2020-12-31T14:59:56Z</time>
      </trkpt>
      <trkpt lat="41.5765300" lon="-0.9343010">
        <ele>345.4</ele>
        <time>2020-12-31T14:59:58Z</time>
      </trkpt>
      <trkpt lat="41.5765590" lon="-0.9343210">
        <ele>345.2</ele>
        <time>2020-12-31T14:59:59Z</time>
      </trkpt>
      <trkpt lat="41.5766730" lon="-0.9344410">
        <ele>344.8</ele>
        <time>2020-12-31T15:00:01Z</time>
      </trkpt>
      <trkpt lat="41.5767490" lon="-0.9345260">
        <ele>344.4</ele>
        <time>2020-12-31T15:00:02Z</time>
      </trkpt>
      <trkpt lat="41.5768240" lon="-0.9345670">
        <ele>344.1</ele>
        <time>2020-12-31T15:00:03Z</time>
      </trkpt>
      <trkpt lat="41.5769570" lon="-0.9345730">
        <ele>343.6</ele>
        <time>2020-12-31T15:00:05Z</time>
      </trkpt>
      <trkpt lat="41.5770320" lon="-0.9346220">
        <ele>343.2</ele>
        <time>2020-12-31T15:00:06Z</time>
      </trkpt>
      <trkpt lat="41.5771170" lon="-0.9346740">
        <ele>343.0</ele>
        <time>2020-12-31T15:00:07Z</time>
      </trkpt>
      <trkpt lat="41.5772800" lon="-0.9347350">
        <ele>342.1</ele>
        <time>2020-12-31T15:00:09Z</time>
      </trkpt>
      <trkpt lat="41.5773380" lon="-0.9347550">
        <ele>341.7</ele>
        <time>2020-12-31T15:00:10Z</time>
      </trkpt>
      <trkpt lat="41.5774250" lon="-0.9348010">
        <ele>341.1</ele>
        <time>2020-12-31T15:00:12Z</time>
      </trkpt>
      <trkpt lat="41.5775280" lon="-0.9348260">
        <ele>340.1</ele>
        <time>2020-12-31T15:00:14Z</time>
      </trkpt>
      <trkpt lat="41.5775790" lon="-0.9348420">
        <ele>339.2</ele>
        <time>2020-12-31T15:00:15Z</time>
      </trkpt>
      <trkpt lat="41.5776720" lon="-0.9349400">
        <ele>338.0</ele>
        <time>2020-12-31T15:00:17Z</time>
      </trkpt>
      <trkpt lat="41.5777780" lon="-0.9350740">
        <ele>336.6</ele>
        <time>2020-12-31T15:00:19Z</time>
      </trkpt>
      <trkpt lat="41.5778450" lon="-0.9351380">
        <ele>335.5</ele>
        <time>2020-12-31T15:00:20Z</time>
      </trkpt>
      <trkpt lat="41.5779460" lon="-0.9352660">
        <ele>333.8</ele>
        <time>2020-12-31T15:00:22Z</time>
      </trkpt>
      <trkpt lat="41.5780580" lon="-0.9353420">
        <ele>331.8</ele>
        <time>2020-12-31T15:00:24Z</time>
      </trkpt>
      <trkpt lat="41.5782180" lon="-0.9354300">
        <ele>329.8</ele>
        <time>2020-12-31T15:00:26Z</time>
      </trkpt>
      <trkpt lat="41.5782990" lon="-0.9354990">
        <ele>329.0</ele>
        <time>2020-12-31T15:00:27Z</time>
      </trkpt>
      <trkpt lat="41.5783740" lon="-0.9355830">
        <ele>328.1</ele>
        <time>2020-12-31T15:00:28Z</time>
      </trkpt>
      <trkpt lat="41.5784860" lon="-0.9357580">
        <ele>326.7</ele>
        <time>2020-12-31T15:00:30Z</time>
      </trkpt>
      <trkpt lat="41.5785590" lon="-0.9359120">
        <ele>325.5</ele>
        <time>2020-12-31T15:00:32Z</time>
      </trkpt>
      <trkpt lat="41.5786040" lon="-0.9359590">
        <ele>324.5</ele>
        <time>2020-12-31T15:00:33Z</time>
      </trkpt>
      <trkpt lat="41.5787420" lon="-0.9360190">
        <ele>322.5</ele>
        <time>2020-12-31T15:00:35Z</time>
      </trkpt>
      <trkpt lat="41.5788230" lon="-0.9360570">
        <ele>321.1</ele>
        <time>2020-12-31T15:00:36Z</time>
      </trkpt>
      <trkpt lat="41.5788990" lon="-0.9361080">
        <ele>318.9</ele>
        <time>2020-12-31T15:00:37Z</time>
      </trkpt>
      <trkpt lat="41.5790320" lon="-0.9361990">
        <ele>315.5</ele>
        <time>2020-12-31T15:00:39Z</time>
      </trkpt>
      <trkpt lat="41.5791000" lon="-0.9362180">
        <ele>313.9</ele>
        <time>2020-12-31T15:00:40Z</time>
      </trkpt>
      <trkpt lat="41.5792150" lon="-0.9361660">
        <ele>310.8</ele>
        <time>2020-12-31T15:00:42Z</time>
      </trkpt>
      <trkpt lat="41.5792570" lon="-0.9361180">
        <ele>310.2</ele>
        <time>2020-12-31T15:00:43Z</time>
      </trkpt>
      <trkpt lat="41.5792980" lon="-0.9360610">
        <ele>310.1</ele>
        <time>2020-12-31T15:00:44Z</time>
      </trkpt>
      <trkpt lat="41.5793430" lon="-0.9359910">
        <ele>308.7</ele>
        <time>2020-12-31T15:00:45Z</time>
      </trkpt>
      <trkpt lat="41.5794630" lon="-0.9358740">
        <ele>306.8</ele>
        <time>2020-12-31T15:00:47Z</time>
      </trkpt>
      <trkpt lat="41.5794940" lon="-0.9358290">
        <ele>306.0</ele>
        <time>2020-12-31T15:00:48Z</time>
      </trkpt>
      <trkpt lat="41.5795450" lon="-0.9357340">
        <ele>304.2</ele>
        <time>2020-12-31T15:00:50Z</time>
      </trkpt>
      <trkpt lat="41.5795700" lon="-0.9356760">
        <ele>303.6</ele>
        <time>2020-12-31T15:00:51Z</time>
      </trkpt>
      <trkpt lat="41.5795880" lon="-0.9356440">
        <ele>303.4</ele>
        <time>2020-12-31T15:00:52Z</time>
      </trkpt>
      <trkpt lat="41.5795740" lon="-0.9355800">
        <ele>303.7</ele>
        <time>2020-12-31T15:00:54Z</time>
      </trkpt>
      <trkpt lat="41.5795000" lon="-0.9355440">
        <ele>305.6</ele>
        <time>2020-12-31T15:00:56Z</time>
      </trkpt>
      <trkpt lat="41.5794610" lon="-0.9355440">
        <ele>307.3</ele>
        <time>2020-12-31T15:00:57Z</time>
      </trkpt>
      <trkpt lat="41.5793770" lon="-0.9355170">
        <ele>308.7</ele>
        <time>2020-12-31T15:00:59Z</time>
      </trkpt>
      <trkpt lat="41.5793500" lon="-0.9353900">
        <ele>309.4</ele>
        <time>2020-12-31T15:01:01Z</time>
      </trkpt>
      <trkpt lat="41.5793690" lon="-0.9353250">
        <ele>309.2</ele>
        <time>2020-12-31T15:01:02Z</time>
      </trkpt>
      <trkpt lat="41.5794370" lon="-0.9352290">
        <ele>306.9</ele>
        <time>2020-12-31T15:01:04Z</time>
      </trkpt>
      <trkpt lat="41.5794600" lon="-0.9352050">
        <ele>306.7</ele>
        <time>2020-12-31T15:01:05Z</time>
      </trkpt>
      <trkpt lat="41.5794960" lon="-0.9351540">
        <ele>305.8</ele>
        <time>2020-12-31T15:01:07Z</time>
      </trkpt>
      <trkpt lat="41.5795220" lon="-0.9350940">
        <ele>305.0</ele>
        <time>2020-12-31T15:01:08Z</time>
      </trkpt>
      <trkpt lat="41.5795440" lon="-0.9350460">
        <ele>304.1</ele>
        <time>2020-12-31T15:01:09Z</time>
      </trkpt>
      <trkpt lat="41.5795670" lon="-0.9349770">
        <ele>303.3</ele>
        <time>2020-12-31T15:01:10Z</time>
      </trkpt>
      <trkpt lat="41.5795730" lon="-0.9348710">
        <ele>303.3</ele>
        <time>2020-12-31T15:01:12Z</time>
      </trkpt>
      <trkpt lat="41.5795630" lon="-0.9348240">
        <ele>303.3</ele>
        <time>2020-12-31T15:01:13Z</time>
      </trkpt>
      <trkpt lat="41.5795720" lon="-0.9347740">
        <ele>303.2</ele>
        <time>2020-12-31T15:01:15Z</time>
      </trkpt>
      <trkpt lat="41.5796250" lon="-0.9347650">
        <ele>302.5</ele>
        <time>2020-12-31T15:01:16Z</time>
      </trkpt>
      <trkpt lat="41.5797610" lon="-0.9347680">
        <ele>298.6</ele>
        <time>2020-12-31T15:01:18Z</time>
      </trkpt>
      <trkpt lat="41.5798850" lon="-0.9348520">
        <ele>297.2</ele>
        <time>2020-12-31T15:01:20Z</time>
      </trkpt>
      <trkpt lat="41.5800080" lon="-0.9349580">
        <ele>295.9</ele>
        <time>2020-12-31T15:01:22Z</time>
      </trkpt>
      <trkpt lat="41.5800820" lon="-0.9351120">
        <ele>294.9</ele>
        <time>2020-12-31T15:01:24Z</time>
      </trkpt>
      <trkpt lat="41.5801280" lon="-0.9352740">
        <ele>294.0</ele>
        <time>2020-12-31T15:01:26Z</time>
      </trkpt>
      <trkpt lat="41.5801590" lon="-0.9353400">
        <ele>293.6</ele>
        <time>2020-12-31T15:01:27Z</time>
      </trkpt>
      <trkpt lat="41.5801900" lon="-0.9354060">
        <ele>293.3</ele>
        <time>2020-12-31T15:01:28Z</time>
      </trkpt>
      <trkpt lat="41.5802230" lon="-0.9354690">
        <ele>292.9</ele>
        <time>2020-12-31T15:01:29Z</time>
      </trkpt>
      <trkpt lat="41.5802880" lon="-0.9356010">
        <ele>292.2</ele>
        <time>2020-12-31T15:01:31Z</time>
      </trkpt>
      <trkpt lat="41.5803600" lon="-0.9357300">
        <ele>291.3</ele>
        <time>2020-12-31T15:01:33Z</time>
      </trkpt>
      <trkpt lat="41.5803980" lon="-0.9357830">
        <ele>290.7</ele>
        <time>2020-12-31T15:01:34Z</time>
      </trkpt>
      <trkpt lat="41.5804330" lon="-0.9358340">
        <ele>290.2</ele>
        <time>2020-12-31T15:01:35Z</time>
      </trkpt>
      <trkpt lat="41.5804820" lon="-0.9359140">
        <ele>289.2</ele>
        <time>2020-12-31T15:01:37Z</time>
      </trkpt>
      <trkpt lat="41.5805040" lon="-0.9359550">
        <ele>288.6</ele>
        <time>2020-12-31T15:01:38Z</time>
      </trkpt>
      <trkpt lat="41.5805520" lon="-0.9360510">
        <ele>287.2</ele>
        <time>2020-12-31T15:01:40Z</time>
      </trkpt>
      <trkpt lat="41.5806560" lon="-0.9361880">
        <ele>284.9</ele>
        <time>2020-12-31T15:01:42Z</time>
      </trkpt>
      <trkpt lat="41.5807110" lon="-0.9362450">
        <ele>284.0</ele>
        <time>2020-12-31T15:01:43Z</time>
      </trkpt>
      <trkpt lat="41.5807500" lon="-0.9362780">
        <ele>283.6</ele>
        <time>2020-12-31T15:01:44Z</time>
      </trkpt>
      <trkpt lat="41.5807680" lon="-0.9362880">
        <ele>283.4</ele>
        <time>2020-12-31T15:01:45Z</time>
      </trkpt>
      <trkpt lat="41.5808110" lon="-0.9363060">
        <ele>283.1</ele>
        <time>2020-12-31T15:01:47Z</time>
      </trkpt>
      <trkpt lat="41.5808630" lon="-0.9362820">
        <ele>282.9</ele>
        <time>2020-12-31T15:01:48Z</time>
      </trkpt>
      <trkpt lat="41.5809330" lon="-0.9362510">
        <ele>282.8</ele>
        <time>2020-12-31T15:01:49Z</time>
      </trkpt>
      <trkpt lat="41.5809830" lon="-0.9362650">
        <ele>282.6</ele>
        <time>2020-12-31T15:01:50Z</time>
      </trkpt>
      <trkpt lat="41.5810660" lon="-0.9363430">
        <ele>282.4</ele>
        <time>2020-12-31T15:01:52Z</time>
      </trkpt>
      <trkpt lat="41.5811490" lon="-0.9364120">
        <ele>282.2</ele>
        <time>2020-12-31T15:01:54Z</time>
      </trkpt>
      <trkpt lat="41.5812510" lon="-0.9364510">
        <ele>282.0</ele>
        <time>2020-12-31T15:01:56Z</time>
      </trkpt>
      <trkpt lat="41.5813600" lon="-0.9364430">
        <ele>281.8</ele>
        <time>2020-12-31T15:01:58Z</time>
      </trkpt>
      <trkpt lat="41.5814130" lon="-0.9364190">
        <ele>281.7</ele>
        <time>2020-12-31T15:01:59Z</time>
      </trkpt>
      <trkpt lat="41.5814660" lon="-0.9363910">
        <ele>281.6</ele>
        <time>2020-12-31T15:02:00Z</time>
      </trkpt>
      <trkpt lat="41.5815750" lon="-0.9363260">
        <ele>281.4</ele>
        <time>2020-12-31T15:02:02Z</time>
      </trkpt>
      <trkpt lat="41.5816300" lon="-0.9362920">
        <ele>281.4</ele>
        <time>2020-12-31T15:02:03Z</time>
      </trkpt>
      <trkpt lat="41.5817400" lon="-0.9362210">
        <ele>281.2</ele>
        <time>2020-12-31T15:02:05Z</time>
      </trkpt>
      <trkpt lat="41.5817910" lon="-0.9361810">
        <ele>281.2</ele>
        <time>2020-12-31T15:02:06Z</time>
      </trkpt>
      <trkpt lat="41.5818920" lon="-0.9361120">
        <ele>281.1</ele>
        <time>2020-12-31T15:02:08Z</time>
      </trkpt>
      <trkpt lat="41.5819480" lon="-0.9360840">
        <ele>281.0</ele>
        <time>2020-12-31T15:02:09Z</time>
      </trkpt>
      <trkpt lat="41.5820680" lon="-0.9360370">
        <ele>280.6</ele>
        <time>2020-12-31T15:02:11Z</time>
      </trkpt>
      <trkpt lat="41.5821320" lon="-0.9360070">
        <ele>280.4</ele>
        <time>2020-12-31T15:02:12Z</time>
      </trkpt>
      <trkpt lat="41.5822000" lon="-0.9359820">
        <ele>280.2</ele>
        <time>2020-12-31T15:02:13Z</time>
      </trkpt>
      <trkpt lat="41.5823360" lon="-0.9359230">
        <ele>279.9</ele>
        <time>2020-12-31T15:02:15Z</time>
      </trkpt>
      <trkpt lat="41.5824010" lon="-0.9358880">
        <ele>279.7</ele>
        <time>2020-12-31T15:02:16Z</time>
      </trkpt>
      <trkpt lat="41.5824680" lon="-0.9358500">
        <ele>279.6</ele>
        <time>2020-12-31T15:02:17Z</time>
      </trkpt>
      <trkpt lat="41.5825970" lon="-0.9357620">
        <ele>279.3</ele>
        <time>2020-12-31T15:02:19Z</time>
      </trkpt>
      <trkpt lat="41.5826690" lon="-0.9357120">
        <ele>279.2</ele>
        <time>2020-12-31T15:02:20Z</time>
      </trkpt>
      <trkpt lat="41.5828120" lon="-0.9356110">
        <ele>278.9</ele>
        <time>2020-12-31T15:02:22Z</time>
      </trkpt>
      <trkpt lat="41.5829530" lon="-0.9355130">
        <ele>278.7</ele>
        <time>2020-12-31T15:02:24Z</time>
      </trkpt>
      <trkpt lat="41.5830220" lon="-0.9354680">
        <ele>278.5</ele>
        <time>2020-12-31T15:02:25Z</time>
      </trkpt>
      <trkpt lat="41.5831620" lon="-0.9353870">
        <ele>278.2</ele>
        <time>2020-12-31T15:02:27Z</time>
      </trkpt>
      <trkpt lat="41.5833020" lon="-0.9352970">
        <ele>277.7</ele>
        <time>2020-12-31T15:02:29Z</time>
      </trkpt>
      <trkpt lat="41.5834450" lon="-0.9352050">
        <ele>277.1</ele>
        <time>2020-12-31T15:02:31Z</time>
      </trkpt>
      <trkpt lat="41.5835920" lon="-0.9351040">
        <ele>276.4</ele>
        <time>2020-12-31T15:02:33Z</time>
      </trkpt>
      <trkpt lat="41.5837560" lon="-0.9350070">
        <ele>275.7</ele>
        <time>2020-12-31T15:02:35Z</time>
      </trkpt>
      <trkpt lat="41.5838420" lon="-0.9349610">
        <ele>275.4</ele>
        <time>2020-12-31T15:02:36Z</time>
      </trkpt>
      <trkpt lat="41.5840170" lon="-0.9348680">
        <ele>274.7</ele>
        <time>2020-12-31T15:02:38Z</time>
      </trkpt>
      <trkpt lat="41.5841020" lon="-0.9348160">
        <ele>274.4</ele>
        <time>2020-12-31T15:02:39Z</time>
      </trkpt>
      <trkpt lat="41.5841870" lon="-0.9347610">
        <ele>274.2</ele>
        <time>2020-12-31T15:02:40Z</time>
      </trkpt>
      <trkpt lat="41.5843500" lon="-0.9346440">
        <ele>273.6</ele>
        <time>2020-12-31T15:02:42Z</time>
      </trkpt>
      <trkpt lat="41.5845040" lon="-0.9345010">
        <ele>273.0</ele>
        <time>2020-12-31T15:02:44Z</time>
      </trkpt>
      <trkpt lat="41.5846600" lon="-0.9343600">
        <ele>272.4</ele>
        <time>2020-12-31T15:02:46Z</time>
      </trkpt>
      <trkpt lat="41.5847490" lon="-0.9343020">
        <ele>272.1</ele>
        <time>2020-12-31T15:02:47Z</time>
      </trkpt>
      <trkpt lat="41.5848450" lon="-0.9342650">
        <ele>271.9</ele>
        <time>2020-12-31T15:02:48Z</time>
      </trkpt>
      <trkpt lat="41.5849420" lon="-0.9342420">
        <ele>271.8</ele>
        <time>2020-12-31T15:02:49Z</time>
      </trkpt>
      <trkpt lat="41.5851340" lon="-0.9342010">
        <ele>271.5</ele>
        <time>2020-12-31T15:02:51Z</time>
      </trkpt>
      <trkpt lat="41.5853180" lon="-0.9341260">
        <ele>271.1</ele>
        <time>2020-12-31T15:02:53Z</time>
      </trkpt>
      <trkpt lat="41.5854960" lon="-0.9340320">
        <ele>270.7</ele>
        <time>2020-12-31T15:02:55Z</time>
      </trkpt>
      <trkpt lat="41.5856650" lon="-0.9339050">
        <ele>270.2</ele>
        <time>2020-12-31T15:02:57Z</time>
      </trkpt>
      <trkpt lat="41.5858140" lon="-0.9337390">
        <ele>269.5</ele>
        <time>2020-12-31T15:02:59Z</time>
      </trkpt>
      <trkpt lat="41.5858830" lon="-0.9336470">
        <ele>269.0</ele>
        <time>2020-12-31T15:03:00Z</time>
      </trkpt>
      <trkpt lat="41.5859540" lon="-0.9335590">
        <ele>268.5</ele>
        <time>2020-12-31T15:03:01Z</time>
      </trkpt>
      <trkpt lat="41.5861240" lon="-0.9334140">
        <ele>267.4</ele>
        <time>2020-12-31T15:03:03Z</time>
      </trkpt>
      <trkpt lat="41.5862260" lon="-0.9333540">
        <ele>266.9</ele>
        <time>2020-12-31T15:03:04Z</time>
      </trkpt>
      <trkpt lat="41.5863280" lon="-0.9332920">
        <ele>266.5</ele>
        <time>2020-12-31T15:03:05Z</time>
      </trkpt>
      <trkpt lat="41.5864210" lon="-0.9332150">
        <ele>266.2</ele>
        <time>2020-12-31T15:03:06Z</time>
      </trkpt>
      <trkpt lat="41.5865770" lon="-0.9330280">
        <ele>265.9</ele>
        <time>2020-12-31T15:03:08Z</time>
      </trkpt>
      <trkpt lat="41.5866600" lon="-0.9329510">
        <ele>265.9</ele>
        <time>2020-12-31T15:03:09Z</time>
      </trkpt>
      <trkpt lat="41.5868450" lon="-0.9328500">
        <ele>266.4</ele>
        <time>2020-12-31T15:03:11Z</time>
      </trkpt>
      <trkpt lat="41.5870350" lon="-0.9327970">
        <ele>267.2</ele>
        <time>2020-12-31T15:03:13Z</time>
      </trkpt>
      <trkpt lat="41.5871970" lon="-0.9327370">
        <ele>268.2</ele>
        <time>2020-12-31T15:03:15Z</time>
      </trkpt>
      <trkpt lat="41.5872630" lon="-0.9326990">
        <ele>268.7</ele>
        <time>2020-12-31T15:03:16Z</time>
      </trkpt>
      <trkpt lat="41.5873760" lon="-0.9325930">
        <ele>269.6</ele>
        <time>2020-12-31T15:03:18Z</time>
      </trkpt>
      <trkpt lat="41.5874280" lon="-0.9325330">
        <ele>269.9</ele>
        <time>2020-12-31T15:03:19Z</time>
      </trkpt>
      <trkpt lat="41.5875350" lon="-0.9324260">
        <ele>270.3</ele>
        <time>2020-12-31T15:03:21Z</time>
      </trkpt>
      <trkpt lat="41.5875880" lon="-0.9323770">
        <ele>270.5</ele>
        <time>2020-12-31T15:03:22Z</time>
      </trkpt>
      <trkpt lat="41.5877140" lon="-0.9323200">
        <ele>270.9</ele>
        <time>2020-12-31T15:03:24Z</time>
      </trkpt>
      <trkpt lat="41.5878500" lon="-0.9323020">
        <ele>271.1</ele>
        <time>2020-12-31T15:03:26Z</time>
      </trkpt>
      <trkpt lat="41.5879190" lon="-0.9322900">
        <ele>271.2</ele>
        <time>2020-12-31T15:03:27Z</time>
      </trkpt>
      <trkpt lat="41.5880480" lon="-0.9322640">
        <ele>271.4</ele>
        <time>2020-12-31T15:03:29Z</time>
      </trkpt>
      <trkpt lat="41.5881840" lon="-0.9322120">
        <ele>271.6</ele>
        <time>2020-12-31T15:03:31Z</time>
      </trkpt>
      <trkpt lat="41.5882490" lon="-0.9321760">
        <ele>271.6</ele>
        <time>2020-12-31T15:03:32Z</time>
      </trkpt>
      <trkpt lat="41.5883090" lon="-0.9321360">
        <ele>271.7</ele>
        <time>2020-12-31T15:03:33Z</time>
      </trkpt>
      <trkpt lat="41.5883710" lon="-0.9320950">
        <ele>271.8</ele>
        <time>2020-12-31T15:03:34Z</time>
      </trkpt>
      <trkpt lat="41.5885000" lon="-0.9320080">
        <ele>271.9</ele>
        <time>2020-12-31T15:03:36Z</time>
      </trkpt>
      <trkpt lat="41.5885620" lon="-0.9319640">
        <ele>271.9</ele>
        <time>2020-12-31T15:03:37Z</time>
      </trkpt>
      <trkpt lat="41.5886880" lon="-0.9318700">
        <ele>271.9</ele>
        <time>2020-12-31T15:03:39Z</time>
      </trkpt>
      <trkpt lat="41.5887530" lon="-0.9318170">
        <ele>271.9</ele>
        <time>2020-12-31T15:03:40Z</time>
      </trkpt>
      <trkpt lat="41.5888180" lon="-0.9317650">
        <ele>271.9</ele>
        <time>2020-12-31T15:03:41Z</time>
      </trkpt>
      <trkpt lat="41.5888790" lon="-0.9317150">
        <ele>271.9</ele>
        <time>2020-12-31T15:03:42Z</time>
      </trkpt>
      <trkpt lat="41.5889980" lon="-0.9316330">
        <ele>272.0</ele>
        <time>2020-12-31T15:03:44Z</time>
      </trkpt>
      <trkpt lat="41.5891230" lon="-0.9317010">
        <ele>271.8</ele>
        <time>2020-12-31T15:03:46Z</time>
      </trkpt>
      <trkpt lat="41.5892620" lon="-0.9317570">
        <ele>271.1</ele>
        <time>2020-12-31T15:03:48Z</time>
      </trkpt>
      <trkpt lat="41.5894090" lon="-0.9317990">
        <ele>270.4</ele>
        <time>2020-12-31T15:03:50Z</time>
      </trkpt>
      <trkpt lat="41.5895000" lon="-0.9318120">
        <ele>269.9</ele>
        <time>2020-12-31T15:03:51Z</time>
      </trkpt>
      <trkpt lat="41.5895810" lon="-0.9318310">
        <ele>269.6</ele>
        <time>2020-12-31T15:03:52Z</time>
      </trkpt>
      <trkpt lat="41.5897350" lon="-0.9318790">
        <ele>269.0</ele>
        <time>2020-12-31T15:03:54Z</time>
      </trkpt>
      <trkpt lat="41.5898160" lon="-0.9318960">
        <ele>268.8</ele>
        <time>2020-12-31T15:03:55Z</time>
      </trkpt>
      <trkpt lat="41.5898950" lon="-0.9319160">
        <ele>268.5</ele>
        <time>2020-12-31T15:03:56Z</time>
      </trkpt>
      <trkpt lat="41.5899650" lon="-0.9319380">
        <ele>268.3</ele>
        <time>2020-12-31T15:03:57Z</time>
      </trkpt>
      <trkpt lat="41.5900300" lon="-0.9319570">
        <ele>268.2</ele>
        <time>2020-12-31T15:03:58Z</time>
      </trkpt>
      <trkpt lat="41.5901720" lon="-0.9319760">
        <ele>267.8</ele>
        <time>2020-12-31T15:04:00Z</time>
      </trkpt>
      <trkpt lat="41.5903110" lon="-0.9319800">
        <ele>267.6</ele>
        <time>2020-12-31T15:04:02Z</time>
      </trkpt>
      <trkpt lat="41.5903640" lon="-0.9319770">
        <ele>267.5</ele>
        <time>2020-12-31T15:04:03Z</time>
      </trkpt>
      <trkpt lat="41.5904730" lon="-0.9319720">
        <ele>267.3</ele>
        <time>2020-12-31T15:04:05Z</time>
      </trkpt>
      <trkpt lat="41.5906370" lon="-0.9319420">
        <ele>267.1</ele>
        <time>2020-12-31T15:04:07Z</time>
      </trkpt>
      <trkpt lat="41.5907160" lon="-0.9319200">
        <ele>267.0</ele>
        <time>2020-12-31T15:04:08Z</time>
      </trkpt>
      <trkpt lat="41.5908700" lon="-0.9318650">
        <ele>267.0</ele>
        <time>2020-12-31T15:04:10Z</time>
      </trkpt>
      <trkpt lat="41.5909450" lon="-0.9318330">
        <ele>267.0</ele>
        <time>2020-12-31T15:04:11Z</time>
      </trkpt>
      <trkpt lat="41.5910860" lon="-0.9317580">
        <ele>267.1</ele>
        <time>2020-12-31T15:04:13Z</time>
      </trkpt>
      <trkpt lat="41.5912220" lon="-0.9316820">
        <ele>267.2</ele>
        <time>2020-12-31T15:04:15Z</time>
      </trkpt>
      <trkpt lat="41.5912870" lon="-0.9316410">
        <ele>267.3</ele>
        <time>2020-12-31T15:04:16Z</time>
      </trkpt>
      <trkpt lat="41.5914020" lon="-0.9315570">
        <ele>267.5</ele>
        <time>2020-12-31T15:04:18Z</time>
      </trkpt>
      <trkpt lat="41.5914670" lon="-0.9314500">
        <ele>267.8</ele>
        <time>2020-12-31T15:04:20Z</time>
      </trkpt>
      <trkpt lat="41.5914630" lon="-0.9314110">
        <ele>268.1</ele>
        <time>2020-12-31T15:04:21Z</time>
      </trkpt>
      <trkpt lat="41.5914450" lon="-0.9313580">
        <ele>268.3</ele>
        <time>2020-12-31T15:04:22Z</time>
      </trkpt>
      <trkpt lat="41.5914170" lon="-0.9313030">
        <ele>268.5</ele>
        <time>2020-12-31T15:04:23Z</time>
      </trkpt>
      <trkpt lat="41.5914040" lon="-0.9312410">
        <ele>268.7</ele>
        <time>2020-12-31T15:04:24Z</time>
      </trkpt>
      <trkpt lat="41.5913630" lon="-0.9311500">
        <ele>269.1</ele>
        <time>2020-12-31T15:04:26Z</time>
      </trkpt>
      <trkpt lat="41.5913310" lon="-0.9311070">
        <ele>269.3</ele>
        <time>2020-12-31T15:04:27Z</time>
      </trkpt>
      <trkpt lat="41.5913170" lon="-0.9310630">
        <ele>269.4</ele>
        <time>2020-12-31T15:04:29Z</time>
      </trkpt>
      <trkpt lat="41.5913030" lon="-0.9310180">
        <ele>269.7</ele>
        <time>2020-12-31T15:04:30Z</time>
      </trkpt>
      <trkpt lat="41.5912850" lon="-0.9309370">
        <ele>270.0</ele>
        <time>2020-12-31T15:04:31Z</time>
      </trkpt>
      <trkpt lat="41.5912330" lon="-0.9307990">
        <ele>270.7</ele>
        <time>2020-12-31T15:04:33Z</time>
      </trkpt>
      <trkpt lat="41.5912020" lon="-0.9307440">
        <ele>271.1</ele>
        <time>2020-12-31T15:04:34Z</time>
      </trkpt>
      <trkpt lat="41.5911500" lon="-0.9306940">
        <ele>271.4</ele>
        <time>2020-12-31T15:04:36Z</time>
      </trkpt>
      <trkpt lat="41.5910850" lon="-0.9306780">
        <ele>271.7</ele>
        <time>2020-12-31T15:04:38Z</time>
      </trkpt>
      <trkpt lat="41.5910590" lon="-0.9306530">
        <ele>272.6</ele>
        <time>2020-12-31T15:04:39Z</time>
      </trkpt>
      <trkpt lat="41.5910550" lon="-0.9306460">
        <ele>272.7</ele>
        <time>2020-12-31T15:04:40Z</time>
      </trkpt>
      <trkpt lat="41.5910940" lon="-0.9306130">
        <ele>272.9</ele>
        <time>2020-12-31T15:04:41Z</time>
      </trkpt>
      <trkpt lat="41.5911150" lon="-0.9305980">
        <ele>273.0</ele>
        <time>2020-12-31T15:04:42Z</time>
      </trkpt>
      <trkpt lat="41.5912250" lon="-0.9305360">
        <ele>273.4</ele>
        <time>2020-12-31T15:04:44Z</time>
      </trkpt>
      <trkpt lat="41.5912780" lon="-0.9305070">
        <ele>273.5</ele>
        <time>2020-12-31T15:04:45Z</time>
      </trkpt>
      <trkpt lat="41.5913290" lon="-0.9304800">
        <ele>273.6</ele>
        <time>2020-12-31T15:04:46Z</time>
      </trkpt>
      <trkpt lat="41.5914250" lon="-0.9304260">
        <ele>273.8</ele>
        <time>2020-12-31T15:04:48Z</time>
      </trkpt>
      <trkpt lat="41.5914730" lon="-0.9303980">
        <ele>273.9</ele>
        <time>2020-12-31T15:04:49Z</time>
      </trkpt>
      <trkpt lat="41.5915620" lon="-0.9303370">
        <ele>273.9</ele>
        <time>2020-12-31T15:04:51Z</time>
      </trkpt>
      <trkpt lat="41.5916050" lon="-0.9302990">
        <ele>273.8</ele>
        <time>2020-12-31T15:04:52Z</time>
      </trkpt>
      <trkpt lat="41.5916920" lon="-0.9302160">
        <ele>273.7</ele>
        <time>2020-12-31T15:04:54Z</time>
      </trkpt>
      <trkpt lat="41.5917360" lon="-0.9301740">
        <ele>273.7</ele>
        <time>2020-12-31T15:04:55Z</time>
      </trkpt>
      <trkpt lat="41.5918290" lon="-0.9300920">
        <ele>273.5</ele>
        <time>2020-12-31T15:04:57Z</time>
      </trkpt>
      <trkpt lat="41.5919240" lon="-0.9300050">
        <ele>273.4</ele>
        <time>2020-12-31T15:04:59Z</time>
      </trkpt>
      <trkpt lat="41.5919640" lon="-0.9299610">
        <ele>273.3</ele>
        <time>2020-12-31T15:05:00Z</time>
      </trkpt>
      <trkpt lat="41.5920200" lon="-0.9298930">
        <ele>273.2</ele>
        <time>2020-12-31T15:05:02Z</time>
      </trkpt>
      <trkpt lat="41.5920450" lon="-0.9298560">
        <ele>273.1</ele>
        <time>2020-12-31T15:05:03Z</time>
      </trkpt>
      <trkpt lat="41.5920560" lon="-0.9298370">
        <ele>273.1</ele>
        <time>2020-12-31T15:05:04Z</time>
      </trkpt>
      <trkpt lat="41.5921000" lon="-0.9297620">
        <ele>272.9</ele>
        <time>2020-12-31T15:05:06Z</time>
      </trkpt>
      <trkpt lat="41.5921380" lon="-0.9297120">
        <ele>272.8</ele>
        <time>2020-12-31T15:05:07Z</time>
      </trkpt>
      <trkpt lat="41.5921600" lon="-0.9296650">
        <ele>272.8</ele>
        <time>2020-12-31T15:05:08Z</time>
      </trkpt>
      <trkpt lat="41.5922010" lon="-0.9295780">
        <ele>272.9</ele>
        <time>2020-12-31T15:05:10Z</time>
      </trkpt>
      <trkpt lat="41.5922720" lon="-0.9294950">
        <ele>273.0</ele>
        <time>2020-12-31T15:05:12Z</time>
      </trkpt>
      <trkpt lat="41.5923150" lon="-0.9294610">
        <ele>273.1</ele>
        <time>2020-12-31T15:05:13Z</time>
      </trkpt>
      <trkpt lat="41.5924020" lon="-0.9293830">
        <ele>273.2</ele>
        <time>2020-12-31T15:05:15Z</time>
      </trkpt>
      <trkpt lat="41.5925050" lon="-0.9293000">
        <ele>273.4</ele>
        <time>2020-12-31T15:05:17Z</time>
      </trkpt>
      <trkpt lat="41.5925540" lon="-0.9292540">
        <ele>273.5</ele>
        <time>2020-12-31T15:05:18Z</time>
      </trkpt>
      <trkpt lat="41.5925970" lon="-0.9292010">
        <ele>273.6</ele>
        <time>2020-12-31T15:05:19Z</time>
      </trkpt>
      <trkpt lat="41.5926890" lon="-0.9291080">
        <ele>273.7</ele>
        <time>2020-12-31T15:05:21Z</time>
      </trkpt>
      <trkpt lat="41.5927380" lon="-0.9290680">
        <ele>273.9</ele>
        <time>2020-12-31T15:05:22Z</time>
      </trkpt>
      <trkpt lat="41.5928250" lon="-0.9289860">
        <ele>274.1</ele>
        <time>2020-12-31T15:05:24Z</time>
      </trkpt>
      <trkpt lat="41.5928720" lon="-0.9289530">
        <ele>274.2</ele>
        <time>2020-12-31T15:05:25Z</time>
      </trkpt>
      <trkpt lat="41.5929600" lon="-0.9288900">
        <ele>274.4</ele>
        <time>2020-12-31T15:05:27Z</time>
      </trkpt>
      <trkpt lat="41.5930500" lon="-0.9288200">
        <ele>274.6</ele>
        <time>2020-12-31T15:05:29Z</time>
      </trkpt>
      <trkpt lat="41.5930990" lon="-0.9287840">
        <ele>274.6</ele>
        <time>2020-12-31T15:05:30Z</time>
      </trkpt>
      <trkpt lat="41.5931490" lon="-0.9287530">
        <ele>274.7</ele>
        <time>2020-12-31T15:05:31Z</time>
      </trkpt>
      <trkpt lat="41.5932610" lon="-0.9287100">
        <ele>274.7</ele>
        <time>2020-12-31T15:05:33Z</time>
      </trkpt>
      <trkpt lat="41.5933240" lon="-0.9286820">
        <ele>274.6</ele>
        <time>2020-12-31T15:05:34Z</time>
      </trkpt>
      <trkpt lat="41.5934540" lon="-0.9286250">
        <ele>274.6</ele>
        <time>2020-12-31T15:05:36Z</time>
      </trkpt>
      <trkpt lat="41.5935790" lon="-0.9285810">
        <ele>274.5</ele>
        <time>2020-12-31T15:05:38Z</time>
      </trkpt>
      <trkpt lat="41.5936450" lon="-0.9285570">
        <ele>274.5</ele>
        <time>2020-12-31T15:05:39Z</time>
      </trkpt>
      <trkpt lat="41.5937100" lon="-0.9285350">
        <ele>274.4</ele>
        <time>2020-12-31T15:05:40Z</time>
      </trkpt>
      <trkpt lat="41.5938460" lon="-0.9285010">
        <ele>274.3</ele>
        <time>2020-12-31T15:05:42Z</time>
      </trkpt>
      <trkpt lat="41.5939810" lon="-0.9284640">
        <ele>274.2</ele>
        <time>2020-12-31T15:05:44Z</time>
      </trkpt>
      <trkpt lat="41.5940500" lon="-0.9284430">
        <ele>274.2</ele>
        <time>2020-12-31T15:05:45Z</time>
      </trkpt>
      <trkpt lat="41.5941180" lon="-0.9284190">
        <ele>274.1</ele>
        <time>2020-12-31T15:05:46Z</time>
      </trkpt>
      <trkpt lat="41.5942490" lon="-0.9283650">
        <ele>274.0</ele>
        <time>2020-12-31T15:05:48Z</time>
      </trkpt>
      <trkpt lat="41.5943140" lon="-0.9283340">
        <ele>273.9</ele>
        <time>2020-12-31T15:05:49Z</time>
      </trkpt>
      <trkpt lat="41.5944510" lon="-0.9282710">
        <ele>273.7</ele>
        <time>2020-12-31T15:05:51Z</time>
      </trkpt>
      <trkpt lat="41.5945270" lon="-0.9282380">
        <ele>273.6</ele>
        <time>2020-12-31T15:05:52Z</time>
      </trkpt>
      <trkpt lat="41.5945990" lon="-0.9282080">
        <ele>273.5</ele>
        <time>2020-12-31T15:05:53Z</time>
      </trkpt>
      <trkpt lat="41.5947430" lon="-0.9281410">
        <ele>273.3</ele>
        <time>2020-12-31T15:05:55Z</time>
      </trkpt>
      <trkpt lat="41.5948080" lon="-0.9281020">
        <ele>273.3</ele>
        <time>2020-12-31T15:05:56Z</time>
      </trkpt>
      <trkpt lat="41.5949330" lon="-0.9280130">
        <ele>273.1</ele>
        <time>2020-12-31T15:05:58Z</time>
      </trkpt>
      <trkpt lat="41.5950630" lon="-0.9279250">
        <ele>273.0</ele>
        <time>2020-12-31T15:06:00Z</time>
      </trkpt>
      <trkpt lat="41.5951920" lon="-0.9278230">
        <ele>272.9</ele>
        <time>2020-12-31T15:06:02Z</time>
      </trkpt>
      <trkpt lat="41.5952610" lon="-0.9277770">
        <ele>272.8</ele>
        <time>2020-12-31T15:06:03Z</time>
      </trkpt>
      <trkpt lat="41.5954030" lon="-0.9277140">
        <ele>272.7</ele>
        <time>2020-12-31T15:06:05Z</time>
      </trkpt>
      <trkpt lat="41.5954760" lon="-0.9276940">
        <ele>272.5</ele>
        <time>2020-12-31T15:06:06Z</time>
      </trkpt>
      <trkpt lat="41.5955530" lon="-0.9276730">
        <ele>272.4</ele>
        <time>2020-12-31T15:06:07Z</time>
      </trkpt>
      <trkpt lat="41.5957040" lon="-0.9276360">
        <ele>272.2</ele>
        <time>2020-12-31T15:06:09Z</time>
      </trkpt>
      <trkpt lat="41.5958530" lon="-0.9275830">
        <ele>271.8</ele>
        <time>2020-12-31T15:06:11Z</time>
      </trkpt>
      <trkpt lat="41.5959270" lon="-0.9275420">
        <ele>271.7</ele>
        <time>2020-12-31T15:06:12Z</time>
      </trkpt>
      <trkpt lat="41.5960700" lon="-0.9274510">
        <ele>271.3</ele>
        <time>2020-12-31T15:06:14Z</time>
      </trkpt>
      <trkpt lat="41.5961410" lon="-0.9274020">
        <ele>271.1</ele>
        <time>2020-12-31T15:06:15Z</time>
      </trkpt>
      <trkpt lat="41.5962940" lon="-0.9273250">
        <ele>270.6</ele>
        <time>2020-12-31T15:06:17Z</time>
      </trkpt>
      <trkpt lat="41.5963710" lon="-0.9272940">
        <ele>270.4</ele>
        <time>2020-12-31T15:06:18Z</time>
      </trkpt>
      <trkpt lat="41.5965330" lon="-0.9272250">
        <ele>269.9</ele>
        <time>2020-12-31T15:06:20Z</time>
      </trkpt>
      <trkpt lat="41.5966980" lon="-0.9271720">
        <ele>269.4</ele>
        <time>2020-12-31T15:06:22Z</time>
      </trkpt>
      <trkpt lat="41.5967890" lon="-0.9271540">
        <ele>269.1</ele>
        <time>2020-12-31T15:06:23Z</time>
      </trkpt>
      <trkpt lat="41.5968780" lon="-0.9271380">
        <ele>268.8</ele>
        <time>2020-12-31T15:06:24Z</time>
      </trkpt>
      <trkpt lat="41.5970590" lon="-0.9270760">
        <ele>268.4</ele>
        <time>2020-12-31T15:06:26Z</time>
      </trkpt>
      <trkpt lat="41.5971420" lon="-0.9270300">
        <ele>268.4</ele>
        <time>2020-12-31T15:06:27Z</time>
      </trkpt>
      <trkpt lat="41.5972190" lon="-0.9269790">
        <ele>268.3</ele>
        <time>2020-12-31T15:06:28Z</time>
      </trkpt>
      <trkpt lat="41.5973620" lon="-0.9268650">
        <ele>268.2</ele>
        <time>2020-12-31T15:06:30Z</time>
      </trkpt>
      <trkpt lat="41.5974310" lon="-0.9268060">
        <ele>268.1</ele>
        <time>2020-12-31T15:06:31Z</time>
      </trkpt>
      <trkpt lat="41.5975640" lon="-0.9266910">
        <ele>268.0</ele>
        <time>2020-12-31T15:06:33Z</time>
      </trkpt>
      <trkpt lat="41.5976920" lon="-0.9265730">
        <ele>267.9</ele>
        <time>2020-12-31T15:06:35Z</time>
      </trkpt>
      <trkpt lat="41.5977470" lon="-0.9265150">
        <ele>267.8</ele>
        <time>2020-12-31T15:06:36Z</time>
      </trkpt>
      <trkpt lat="41.5978370" lon="-0.9263730">
        <ele>267.8</ele>
        <time>2020-12-31T15:06:38Z</time>
      </trkpt>
      <trkpt lat="41.5978700" lon="-0.9262890">
        <ele>267.9</ele>
        <time>2020-12-31T15:06:39Z</time>
      </trkpt>
      <trkpt lat="41.5979720" lon="-0.9261990">
        <ele>268.0</ele>
        <time>2020-12-31T15:06:41Z</time>
      </trkpt>
      <trkpt lat="41.5980350" lon="-0.9262070">
        <ele>267.9</ele>
        <time>2020-12-31T15:06:42Z</time>
      </trkpt>
      <trkpt lat="41.5981690" lon="-0.9262070">
        <ele>267.8</ele>
        <time>2020-12-31T15:06:44Z</time>
      </trkpt>
      <trkpt lat="41.5982380" lon="-0.9261830">
        <ele>267.8</ele>
        <time>2020-12-31T15:06:45Z</time>
      </trkpt>
      <trkpt lat="41.5983750" lon="-0.9261110">
        <ele>267.6</ele>
        <time>2020-12-31T15:06:47Z</time>
      </trkpt>
      <trkpt lat="41.5984430" lon="-0.9260820">
        <ele>267.6</ele>
        <time>2020-12-31T15:06:48Z</time>
      </trkpt>
      <trkpt lat="41.5985760" lon="-0.9260090">
        <ele>267.5</ele>
        <time>2020-12-31T15:06:50Z</time>
      </trkpt>
      <trkpt lat="41.5986450" lon="-0.9259720">
        <ele>267.4</ele>
        <time>2020-12-31T15:06:51Z</time>
      </trkpt>
      <trkpt lat="41.5987830" lon="-0.9258910">
        <ele>267.2</ele>
        <time>2020-12-31T15:06:53Z</time>
      </trkpt>
      <trkpt lat="41.5988470" lon="-0.9258440">
        <ele>267.1</ele>
        <time>2020-12-31T15:06:54Z</time>
      </trkpt>
      <trkpt lat="41.5989100" lon="-0.9257920">
        <ele>267.1</ele>
        <time>2020-12-31T15:06:55Z</time>
      </trkpt>
      <trkpt lat="41.5989740" lon="-0.9257440">
        <ele>267.0</ele>
        <time>2020-12-31T15:06:56Z</time>
      </trkpt>
      <trkpt lat="41.5991100" lon="-0.9256650">
        <ele>266.8</ele>
        <time>2020-12-31T15:06:58Z</time>
      </trkpt>
      <trkpt lat="41.5992520" lon="-0.9255960">
        <ele>266.5</ele>
        <time>2020-12-31T15:07:00Z</time>
      </trkpt>
      <trkpt lat="41.5993250" lon="-0.9255700">
        <ele>266.4</ele>
        <time>2020-12-31T15:07:01Z</time>
      </trkpt>
      <trkpt lat="41.5994720" lon="-0.9255120">
        <ele>266.1</ele>
        <time>2020-12-31T15:07:03Z</time>
      </trkpt>
      <trkpt lat="41.5996260" lon="-0.9254530">
        <ele>265.8</ele>
        <time>2020-12-31T15:07:05Z</time>
      </trkpt>
      <trkpt lat="41.5997080" lon="-0.9254310">
        <ele>265.7</ele>
        <time>2020-12-31T15:07:06Z</time>
      </trkpt>
      <trkpt lat="41.5998630" lon="-0.9253820">
        <ele>265.5</ele>
        <time>2020-12-31T15:07:08Z</time>
      </trkpt>
      <trkpt lat="41.6000180" lon="-0.9253010">
        <ele>265.3</ele>
        <time>2020-12-31T15:07:10Z</time>
      </trkpt>
      <trkpt lat="41.6000910" lon="-0.9252510">
        <ele>265.3</ele>
        <time>2020-12-31T15:07:11Z</time>
      </trkpt>
      <trkpt lat="41.6002330" lon="-0.9251210">
        <ele>265.3</ele>
        <time>2020-12-31T15:07:13Z</time>
      </trkpt>
      <trkpt lat="41.6002940" lon="-0.9250490">
        <ele>265.3</ele>
        <time>2020-12-31T15:07:14Z</time>
      </trkpt>
      <trkpt lat="41.6003990" lon="-0.9249120">
        <ele>265.4</ele>
        <time>2020-12-31T15:07:16Z</time>
      </trkpt>
      <trkpt lat="41.6004970" lon="-0.9247820">
        <ele>265.5</ele>
        <time>2020-12-31T15:07:18Z</time>
      </trkpt>
      <trkpt lat="41.6005510" lon="-0.9247130">
        <ele>265.4</ele>
        <time>2020-12-31T15:07:19Z</time>
      </trkpt>
      <trkpt lat="41.6006050" lon="-0.9246390">
        <ele>265.3</ele>
        <time>2020-12-31T15:07:20Z</time>
      </trkpt>
      <trkpt lat="41.6007190" lon="-0.9244860">
        <ele>265.0</ele>
        <time>2020-12-31T15:07:22Z</time>
      </trkpt>
      <trkpt lat="41.6008350" lon="-0.9243280">
        <ele>264.8</ele>
        <time>2020-12-31T15:07:24Z</time>
      </trkpt>
      <trkpt lat="41.6009510" lon="-0.9241770">
        <ele>264.6</ele>
        <time>2020-12-31T15:07:26Z</time>
      </trkpt>
      <trkpt lat="41.6010690" lon="-0.9240240">
        <ele>264.3</ele>
        <time>2020-12-31T15:07:28Z</time>
      </trkpt>
      <trkpt lat="41.6011910" lon="-0.9238620">
        <ele>264.1</ele>
        <time>2020-12-31T15:07:30Z</time>
      </trkpt>
      <trkpt lat="41.6012540" lon="-0.9237800">
        <ele>264.0</ele>
        <time>2020-12-31T15:07:31Z</time>
      </trkpt>
      <trkpt lat="41.6013170" lon="-0.9236990">
        <ele>263.8</ele>
        <time>2020-12-31T15:07:32Z</time>
      </trkpt>
      <trkpt lat="41.6014470" lon="-0.9235430">
        <ele>263.4</ele>
        <time>2020-12-31T15:07:34Z</time>
      </trkpt>
      <trkpt lat="41.6015170" lon="-0.9234580">
        <ele>263.2</ele>
        <time>2020-12-31T15:07:35Z</time>
      </trkpt>
      <trkpt lat="41.6016560" lon="-0.9233080">
        <ele>262.9</ele>
        <time>2020-12-31T15:07:37Z</time>
      </trkpt>
      <trkpt lat="41.6017840" lon="-0.9231600">
        <ele>262.6</ele>
        <time>2020-12-31T15:07:39Z</time>
      </trkpt>
      <trkpt lat="41.6018520" lon="-0.9230820">
        <ele>262.4</ele>
        <time>2020-12-31T15:07:40Z</time>
      </trkpt>
      <trkpt lat="41.6019960" lon="-0.9229310">
        <ele>262.2</ele>
        <time>2020-12-31T15:07:42Z</time>
      </trkpt>
      <trkpt lat="41.6020780" lon="-0.9228690">
        <ele>262.0</ele>
        <time>2020-12-31T15:07:43Z</time>
      </trkpt>
      <trkpt lat="41.6021660" lon="-0.9228170">
        <ele>261.9</ele>
        <time>2020-12-31T15:07:44Z</time>
      </trkpt>
      <trkpt lat="41.6023410" lon="-0.9227530">
        <ele>261.8</ele>
        <time>2020-12-31T15:07:46Z</time>
      </trkpt>
      <trkpt lat="41.6025070" lon="-0.9226980">
        <ele>261.8</ele>
        <time>2020-12-31T15:07:48Z</time>
      </trkpt>
      <trkpt lat="41.6025940" lon="-0.9226830">
        <ele>261.8</ele>
        <time>2020-12-31T15:07:49Z</time>
      </trkpt>
      <trkpt lat="41.6026820" lon="-0.9226680">
        <ele>261.9</ele>
        <time>2020-12-31T15:07:50Z</time>
      </trkpt>
      <trkpt lat="41.6028510" lon="-0.9226490">
        <ele>261.8</ele>
        <time>2020-12-31T15:07:52Z</time>
      </trkpt>
      <trkpt lat="41.6030200" lon="-0.9226260">
        <ele>261.6</ele>
        <time>2020-12-31T15:07:54Z</time>
      </trkpt>
      <trkpt lat="41.6031080" lon="-0.9226100">
        <ele>261.6</ele>
        <time>2020-12-31T15:07:55Z</time>
      </trkpt>
      <trkpt lat="41.6032810" lon="-0.9225810">
        <ele>261.7</ele>
        <time>2020-12-31T15:07:57Z</time>
      </trkpt>
      <trkpt lat="41.6033640" lon="-0.9225650">
        <ele>261.7</ele>
        <time>2020-12-31T15:07:58Z</time>
      </trkpt>
      <trkpt lat="41.6034420" lon="-0.9225310">
        <ele>261.7</ele>
        <time>2020-12-31T15:07:59Z</time>
      </trkpt>
      <trkpt lat="41.6035860" lon="-0.9224250">
        <ele>261.8</ele>
        <time>2020-12-31T15:08:01Z</time>
      </trkpt>
      <trkpt lat="41.6036570" lon="-0.9223750">
        <ele>261.8</ele>
        <time>2020-12-31T15:08:02Z</time>
      </trkpt>
      <trkpt lat="41.6038030" lon="-0.9222780">
        <ele>261.8</ele>
        <time>2020-12-31T15:08:04Z</time>
      </trkpt>
      <trkpt lat="41.6039670" lon="-0.9221750">
        <ele>261.8</ele>
        <time>2020-12-31T15:08:06Z</time>
      </trkpt>
      <trkpt lat="41.6041350" lon="-0.9220720">
        <ele>261.7</ele>
        <time>2020-12-31T15:08:08Z</time>
      </trkpt>
      <trkpt lat="41.6042130" lon="-0.9220250">
        <ele>261.7</ele>
        <time>2020-12-31T15:08:09Z</time>
      </trkpt>
      <trkpt lat="41.6042850" lon="-0.9219730">
        <ele>261.6</ele>
        <time>2020-12-31T15:08:10Z</time>
      </trkpt>
      <trkpt lat="41.6043560" lon="-0.9219200">
        <ele>261.6</ele>
        <time>2020-12-31T15:08:11Z</time>
      </trkpt>
      <trkpt lat="41.6044960" lon="-0.9218210">
        <ele>261.5</ele>
        <time>2020-12-31T15:08:13Z</time>
      </trkpt>
      <trkpt lat="41.6045640" lon="-0.9217620">
        <ele>261.5</ele>
        <time>2020-12-31T15:08:14Z</time>
      </trkpt>
      <trkpt lat="41.6047050" lon="-0.9216570">
        <ele>261.5</ele>
        <time>2020-12-31T15:08:16Z</time>
      </trkpt>
      <trkpt lat="41.6048500" lon="-0.9215620">
        <ele>261.4</ele>
        <time>2020-12-31T15:08:18Z</time>
      </trkpt>
      <trkpt lat="41.6049220" lon="-0.9215180">
        <ele>261.3</ele>
        <time>2020-12-31T15:08:19Z</time>
      </trkpt>
      <trkpt lat="41.6050650" lon="-0.9214110">
        <ele>261.2</ele>
        <time>2020-12-31T15:08:21Z</time>
      </trkpt>
      <trkpt lat="41.6052110" lon="-0.9213080">
        <ele>261.1</ele>
        <time>2020-12-31T15:08:23Z</time>
      </trkpt>
      <trkpt lat="41.6052820" lon="-0.9212520">
        <ele>261.1</ele>
        <time>2020-12-31T15:08:24Z</time>
      </trkpt>
      <trkpt lat="41.6054250" lon="-0.9211410">
        <ele>261.0</ele>
        <time>2020-12-31T15:08:26Z</time>
      </trkpt>
      <trkpt lat="41.6054950" lon="-0.9210850">
        <ele>261.0</ele>
        <time>2020-12-31T15:08:27Z</time>
      </trkpt>
      <trkpt lat="41.6056320" lon="-0.9209730">
        <ele>260.9</ele>
        <time>2020-12-31T15:08:29Z</time>
      </trkpt>
      <trkpt lat="41.6057040" lon="-0.9209130">
        <ele>260.9</ele>
        <time>2020-12-31T15:08:30Z</time>
      </trkpt>
      <trkpt lat="41.6058440" lon="-0.9207940">
        <ele>260.7</ele>
        <time>2020-12-31T15:08:32Z</time>
      </trkpt>
      <trkpt lat="41.6059740" lon="-0.9206640">
        <ele>260.5</ele>
        <time>2020-12-31T15:08:34Z</time>
      </trkpt>
      <trkpt lat="41.6060400" lon="-0.9205920">
        <ele>260.4</ele>
        <time>2020-12-31T15:08:35Z</time>
      </trkpt>
      <trkpt lat="41.6061750" lon="-0.9204430">
        <ele>260.0</ele>
        <time>2020-12-31T15:08:37Z</time>
      </trkpt>
      <trkpt lat="41.6063020" lon="-0.9202970">
        <ele>259.5</ele>
        <time>2020-12-31T15:08:39Z</time>
      </trkpt>
      <trkpt lat="41.6064400" lon="-0.9201440">
        <ele>259.1</ele>
        <time>2020-12-31T15:08:41Z</time>
      </trkpt>
      <trkpt lat="41.6065080" lon="-0.9200690">
        <ele>258.9</ele>
        <time>2020-12-31T15:08:42Z</time>
      </trkpt>
      <trkpt lat="41.6065800" lon="-0.9200010">
        <ele>258.7</ele>
        <time>2020-12-31T15:08:43Z</time>
      </trkpt>
      <trkpt lat="41.6067210" lon="-0.9198730">
        <ele>258.5</ele>
        <time>2020-12-31T15:08:45Z</time>
      </trkpt>
      <trkpt lat="41.6067930" lon="-0.9198100">
        <ele>258.3</ele>
        <time>2020-12-31T15:08:46Z</time>
      </trkpt>
      <trkpt lat="41.6069390" lon="-0.9196860">
        <ele>258.2</ele>
        <time>2020-12-31T15:08:48Z</time>
      </trkpt>
      <trkpt lat="41.6070130" lon="-0.9196240">
        <ele>258.1</ele>
        <time>2020-12-31T15:08:49Z</time>
      </trkpt>
      <trkpt lat="41.6071540" lon="-0.9195000">
        <ele>257.8</ele>
        <time>2020-12-31T15:08:51Z</time>
      </trkpt>
      <trkpt lat="41.6072870" lon="-0.9193630">
        <ele>257.5</ele>
        <time>2020-12-31T15:08:53Z</time>
      </trkpt>
      <trkpt lat="41.6074140" lon="-0.9192110">
        <ele>257.2</ele>
        <time>2020-12-31T15:08:55Z</time>
      </trkpt>
      <trkpt lat="41.6075200" lon="-0.9190200">
        <ele>256.8</ele>
        <time>2020-12-31T15:08:57Z</time>
      </trkpt>
      <trkpt lat="41.6075980" lon="-0.9188050">
        <ele>256.6</ele>
        <time>2020-12-31T15:08:59Z</time>
      </trkpt>
      <trkpt lat="41.6077000" lon="-0.9186130">
        <ele>256.4</ele>
        <time>2020-12-31T15:09:01Z</time>
      </trkpt>
      <trkpt lat="41.6077670" lon="-0.9185360">
        <ele>256.3</ele>
        <time>2020-12-31T15:09:02Z</time>
      </trkpt>
      <trkpt lat="41.6078360" lon="-0.9184640">
        <ele>256.2</ele>
        <time>2020-12-31T15:09:03Z</time>
      </trkpt>
      <trkpt lat="41.6079690" lon="-0.9183380">
        <ele>256.2</ele>
        <time>2020-12-31T15:09:05Z</time>
      </trkpt>
      <trkpt lat="41.6081000" lon="-0.9182140">
        <ele>256.0</ele>
        <time>2020-12-31T15:09:07Z</time>
      </trkpt>
      <trkpt lat="41.6082250" lon="-0.9180570">
        <ele>256.0</ele>
        <time>2020-12-31T15:09:09Z</time>
      </trkpt>
      <trkpt lat="41.6082820" lon="-0.9179810">
        <ele>255.9</ele>
        <time>2020-12-31T15:09:10Z</time>
      </trkpt>
      <trkpt lat="41.6083900" lon="-0.9178300">
        <ele>255.9</ele>
        <time>2020-12-31T15:09:12Z</time>
      </trkpt>
      <trkpt lat="41.6084440" lon="-0.9177520">
        <ele>255.9</ele>
        <time>2020-12-31T15:09:13Z</time>
      </trkpt>
      <trkpt lat="41.6085530" lon="-0.9176130">
        <ele>255.9</ele>
        <time>2020-12-31T15:09:15Z</time>
      </trkpt>
      <trkpt lat="41.6086070" lon="-0.9175420">
        <ele>255.8</ele>
        <time>2020-12-31T15:09:16Z</time>
      </trkpt>
      <trkpt lat="41.6087150" lon="-0.9173880">
        <ele>255.6</ele>
        <time>2020-12-31T15:09:18Z</time>
      </trkpt>
      <trkpt lat="41.6088310" lon="-0.9172260">
        <ele>255.4</ele>
        <time>2020-12-31T15:09:20Z</time>
      </trkpt>
      <trkpt lat="41.6088890" lon="-0.9171450">
        <ele>255.3</ele>
        <time>2020-12-31T15:09:21Z</time>
      </trkpt>
      <trkpt lat="41.6090070" lon="-0.9169920">
        <ele>255.1</ele>
        <time>2020-12-31T15:09:23Z</time>
      </trkpt>
      <trkpt lat="41.6091240" lon="-0.9168430">
        <ele>255.1</ele>
        <time>2020-12-31T15:09:25Z</time>
      </trkpt>
      <trkpt lat="41.6091830" lon="-0.9167660">
        <ele>255.0</ele>
        <time>2020-12-31T15:09:26Z</time>
      </trkpt>
      <trkpt lat="41.6092670" lon="-0.9166400">
        <ele>254.8</ele>
        <time>2020-12-31T15:09:27Z</time>
      </trkpt>
      <trkpt lat="41.6094020" lon="-0.9164990">
        <ele>255.0</ele>
        <time>2020-12-31T15:09:29Z</time>
      </trkpt>
      <trkpt lat="41.6094630" lon="-0.9164260">
        <ele>255.1</ele>
        <time>2020-12-31T15:09:30Z</time>
      </trkpt>
      <trkpt lat="41.6095250" lon="-0.9163590">
        <ele>255.2</ele>
        <time>2020-12-31T15:09:31Z</time>
      </trkpt>
      <trkpt lat="41.6096300" lon="-0.9162220">
        <ele>255.4</ele>
        <time>2020-12-31T15:09:33Z</time>
      </trkpt>
      <trkpt lat="41.6097360" lon="-0.9160910">
        <ele>255.7</ele>
        <time>2020-12-31T15:09:35Z</time>
      </trkpt>
      <trkpt lat="41.6097840" lon="-0.9160300">
        <ele>255.8</ele>
        <time>2020-12-31T15:09:36Z</time>
      </trkpt>
      <trkpt lat="41.6098340" lon="-0.9159690">
        <ele>255.9</ele>
        <time>2020-12-31T15:09:37Z</time>
      </trkpt>
      <trkpt lat="41.6099210" lon="-0.9158430">
        <ele>256.1</ele>
        <time>2020-12-31T15:09:39Z</time>
      </trkpt>
      <trkpt lat="41.6099630" lon="-0.9157710">
        <ele>256.2</ele>
        <time>2020-12-31T15:09:40Z</time>
      </trkpt>
      <trkpt lat="41.6100540" lon="-0.9156140">
        <ele>256.3</ele>
        <time>2020-12-31T15:09:42Z</time>
      </trkpt>
      <trkpt lat="41.6100950" lon="-0.9155330">
        <ele>256.3</ele>
        <time>2020-12-31T15:09:43Z</time>
      </trkpt>
      <trkpt lat="41.6101880" lon="-0.9153730">
        <ele>256.2</ele>
        <time>2020-12-31T15:09:45Z</time>
      </trkpt>
      <trkpt lat="41.6102790" lon="-0.9152070">
        <ele>256.1</ele>
        <time>2020-12-31T15:09:47Z</time>
      </trkpt>
      <trkpt lat="41.6103330" lon="-0.9151340">
        <ele>256.1</ele>
        <time>2020-12-31T15:09:48Z</time>
      </trkpt>
      <trkpt lat="41.6103910" lon="-0.9150680">
        <ele>256.0</ele>
        <time>2020-12-31T15:09:49Z</time>
      </trkpt>
      <trkpt lat="41.6105090" lon="-0.9149390">
        <ele>255.9</ele>
        <time>2020-12-31T15:09:51Z</time>
      </trkpt>
      <trkpt lat="41.6105700" lon="-0.9148740">
        <ele>255.9</ele>
        <time>2020-12-31T15:09:52Z</time>
      </trkpt>
      <trkpt lat="41.6106320" lon="-0.9148160">
        <ele>255.8</ele>
        <time>2020-12-31T15:09:53Z</time>
      </trkpt>
      <trkpt lat="41.6107700" lon="-0.9147310">
        <ele>255.9</ele>
        <time>2020-12-31T15:09:55Z</time>
      </trkpt>
      <trkpt lat="41.6108430" lon="-0.9146910">
        <ele>256.0</ele>
        <time>2020-12-31T15:09:56Z</time>
      </trkpt>
      <trkpt lat="41.6109720" lon="-0.9145990">
        <ele>256.4</ele>
        <time>2020-12-31T15:09:58Z</time>
      </trkpt>
      <trkpt lat="41.6110250" lon="-0.9145440">
        <ele>256.7</ele>
        <time>2020-12-31T15:09:59Z</time>
      </trkpt>
      <trkpt lat="41.6111150" lon="-0.9144280">
        <ele>257.2</ele>
        <time>2020-12-31T15:10:01Z</time>
      </trkpt>
      <trkpt lat="41.6111550" lon="-0.9143700">
        <ele>257.5</ele>
        <time>2020-12-31T15:10:02Z</time>
      </trkpt>
      <trkpt lat="41.6111880" lon="-0.9143120">
        <ele>257.8</ele>
        <time>2020-12-31T15:10:03Z</time>
      </trkpt>
      <trkpt lat="41.6112190" lon="-0.9142530">
        <ele>258.0</ele>
        <time>2020-12-31T15:10:04Z</time>
      </trkpt>
      <trkpt lat="41.6112520" lon="-0.9141990">
        <ele>258.3</ele>
        <time>2020-12-31T15:10:05Z</time>
      </trkpt>
      <trkpt lat="41.6112900" lon="-0.9141500">
        <ele>258.6</ele>
        <time>2020-12-31T15:10:06Z</time>
      </trkpt>
      <trkpt lat="41.6113670" lon="-0.9140440">
        <ele>259.2</ele>
        <time>2020-12-31T15:10:08Z</time>
      </trkpt>
      <trkpt lat="41.6114460" lon="-0.9139430">
        <ele>259.7</ele>
        <time>2020-12-31T15:10:10Z</time>
      </trkpt>
      <trkpt lat="41.6114790" lon="-0.9138910">
        <ele>259.9</ele>
        <time>2020-12-31T15:10:11Z</time>
      </trkpt>
      <trkpt lat="41.6115490" lon="-0.9137780">
        <ele>260.3</ele>
        <time>2020-12-31T15:10:13Z</time>
      </trkpt>
      <trkpt lat="41.6115770" lon="-0.9137170">
        <ele>260.5</ele>
        <time>2020-12-31T15:10:14Z</time>
      </trkpt>
      <trkpt lat="41.6116400" lon="-0.9135940">
        <ele>260.9</ele>
        <time>2020-12-31T15:10:16Z</time>
      </trkpt>
      <trkpt lat="41.6116720" lon="-0.9135360">
        <ele>261.0</ele>
        <time>2020-12-31T15:10:17Z</time>
      </trkpt>
      <trkpt lat="41.6117330" lon="-0.9134250">
        <ele>261.4</ele>
        <time>2020-12-31T15:10:19Z</time>
      </trkpt>
      <trkpt lat="41.6117640" lon="-0.9133770">
        <ele>261.6</ele>
        <time>2020-12-31T15:10:20Z</time>
      </trkpt>
      <trkpt lat="41.6118200" lon="-0.9132830">
        <ele>261.9</ele>
        <time>2020-12-31T15:10:22Z</time>
      </trkpt>
      <trkpt lat="41.6118770" lon="-0.9131780">
        <ele>262.3</ele>
        <time>2020-12-31T15:10:24Z</time>
      </trkpt>
      <trkpt lat="41.6119310" lon="-0.9130660">
        <ele>262.7</ele>
        <time>2020-12-31T15:10:26Z</time>
      </trkpt>
      <trkpt lat="41.6119700" lon="-0.9129600">
        <ele>262.9</ele>
        <time>2020-12-31T15:10:28Z</time>
      </trkpt>
      <trkpt lat="41.6119930" lon="-0.9129020">
        <ele>263.1</ele>
        <time>2020-12-31T15:10:29Z</time>
      </trkpt>
      <trkpt lat="41.6120210" lon="-0.9127960">
        <ele>263.2</ele>
        <time>2020-12-31T15:10:31Z</time>
      </trkpt>
      <trkpt lat="41.6120340" lon="-0.9127370">
        <ele>263.1</ele>
        <time>2020-12-31T15:10:32Z</time>
      </trkpt>
      <trkpt lat="41.6120500" lon="-0.9126110">
        <ele>262.8</ele>
        <time>2020-12-31T15:10:34Z</time>
      </trkpt>
      <trkpt lat="41.6120430" lon="-0.9124580">
        <ele>262.0</ele>
        <time>2020-12-31T15:10:36Z</time>
      </trkpt>
      <trkpt lat="41.6120320" lon="-0.9123710">
        <ele>261.3</ele>
        <time>2020-12-31T15:10:37Z</time>
      </trkpt>
      <trkpt lat="41.6119940" lon="-0.9121910">
        <ele>259.7</ele>
        <time>2020-12-31T15:10:39Z</time>
      </trkpt>
      <trkpt lat="41.6119460" lon="-0.9119690">
        <ele>257.8</ele>
        <time>2020-12-31T15:10:41Z</time>
      </trkpt>
      <trkpt lat="41.6119380" lon="-0.9117130">
        <ele>256.3</ele>
        <time>2020-12-31T15:10:43Z</time>
      </trkpt>
      <trkpt lat="41.6120510" lon="-0.9115160">
        <ele>255.5</ele>
        <time>2020-12-31T15:10:45Z</time>
      </trkpt>
      <trkpt lat="41.6121360" lon="-0.9114710">
        <ele>255.3</ele>
        <time>2020-12-31T15:10:46Z</time>
      </trkpt>
      <trkpt lat="41.6122210" lon="-0.9114620">
        <ele>255.2</ele>
        <time>2020-12-31T15:10:47Z</time>
      </trkpt>
      <trkpt lat="41.6123000" lon="-0.9114900">
        <ele>255.0</ele>
        <time>2020-12-31T15:10:48Z</time>
      </trkpt>
      <trkpt lat="41.6124260" lon="-0.9116290">
        <ele>254.4</ele>
        <time>2020-12-31T15:10:50Z</time>
      </trkpt>
      <trkpt lat="41.6124770" lon="-0.9117120">
        <ele>254.1</ele>
        <time>2020-12-31T15:10:51Z</time>
      </trkpt>
      <trkpt lat="41.6125300" lon="-0.9117870">
        <ele>253.9</ele>
        <time>2020-12-31T15:10:52Z</time>
      </trkpt>
      <trkpt lat="41.6125850" lon="-0.9118600">
        <ele>253.7</ele>
        <time>2020-12-31T15:10:53Z</time>
      </trkpt>
      <trkpt lat="41.6127080" lon="-0.9119750">
        <ele>253.7</ele>
        <time>2020-12-31T15:10:55Z</time>
      </trkpt>
      <trkpt lat="41.6127710" lon="-0.9120060">
        <ele>253.8</ele>
        <time>2020-12-31T15:10:56Z</time>
      </trkpt>
      <trkpt lat="41.6128940" lon="-0.9120250">
        <ele>254.0</ele>
        <time>2020-12-31T15:10:58Z</time>
      </trkpt>
      <trkpt lat="41.6129970" lon="-0.9120150">
        <ele>254.2</ele>
        <time>2020-12-31T15:11:00Z</time>
      </trkpt>
      <trkpt lat="41.6130410" lon="-0.9119780">
        <ele>254.2</ele>
        <time>2020-12-31T15:11:01Z</time>
      </trkpt>
      <trkpt lat="41.6131310" lon="-0.9118870">
        <ele>254.2</ele>
        <time>2020-12-31T15:11:03Z</time>
      </trkpt>
      <trkpt lat="41.6131740" lon="-0.9118280">
        <ele>254.1</ele>
        <time>2020-12-31T15:11:04Z</time>
      </trkpt>
      <trkpt lat="41.6132190" lon="-0.9117690">
        <ele>254.0</ele>
        <time>2020-12-31T15:11:05Z</time>
      </trkpt>
      <trkpt lat="41.6133030" lon="-0.9116350">
        <ele>253.7</ele>
        <time>2020-12-31T15:11:07Z</time>
      </trkpt>
      <trkpt lat="41.6133910" lon="-0.9114950">
        <ele>253.5</ele>
        <time>2020-12-31T15:11:09Z</time>
      </trkpt>
      <trkpt lat="41.6134340" lon="-0.9114210">
        <ele>253.4</ele>
        <time>2020-12-31T15:11:10Z</time>
      </trkpt>
      <trkpt lat="41.6135290" lon="-0.9112780">
        <ele>253.4</ele>
        <time>2020-12-31T15:11:12Z</time>
      </trkpt>
      <trkpt lat="41.6135770" lon="-0.9112100">
        <ele>253.4</ele>
        <time>2020-12-31T15:11:13Z</time>
      </trkpt>
      <trkpt lat="41.6136300" lon="-0.9111510">
        <ele>253.4</ele>
        <time>2020-12-31T15:11:14Z</time>
      </trkpt>
      <trkpt lat="41.6137330" lon="-0.9110370">
        <ele>253.4</ele>
        <time>2020-12-31T15:11:16Z</time>
      </trkpt>
      <trkpt lat="41.6138300" lon="-0.9109110">
        <ele>253.4</ele>
        <time>2020-12-31T15:11:18Z</time>
      </trkpt>
      <trkpt lat="41.6139200" lon="-0.9107720">
        <ele>253.4</ele>
        <time>2020-12-31T15:11:20Z</time>
      </trkpt>
      <trkpt lat="41.6139660" lon="-0.9106980">
        <ele>253.5</ele>
        <time>2020-12-31T15:11:21Z</time>
      </trkpt>
      <trkpt lat="41.6140530" lon="-0.9105430">
        <ele>253.6</ele>
        <time>2020-12-31T15:11:23Z</time>
      </trkpt>
      <trkpt lat="41.6140970" lon="-0.9104660">
        <ele>253.7</ele>
        <time>2020-12-31T15:11:24Z</time>
      </trkpt>
      <trkpt lat="41.6141910" lon="-0.9103360">
        <ele>253.8</ele>
        <time>2020-12-31T15:11:26Z</time>
      </trkpt>
      <trkpt lat="41.6142990" lon="-0.9102140">
        <ele>253.9</ele>
        <time>2020-12-31T15:11:28Z</time>
      </trkpt>
      <trkpt lat="41.6144190" lon="-0.9100870">
        <ele>254.1</ele>
        <time>2020-12-31T15:11:30Z</time>
      </trkpt>
      <trkpt lat="41.6144750" lon="-0.9100250">
        <ele>254.2</ele>
        <time>2020-12-31T15:11:31Z</time>
      </trkpt>
      <trkpt lat="41.6145680" lon="-0.9098970">
        <ele>254.3</ele>
        <time>2020-12-31T15:11:33Z</time>
      </trkpt>
      <trkpt lat="41.6146360" lon="-0.9097420">
        <ele>254.4</ele>
        <time>2020-12-31T15:11:35Z</time>
      </trkpt>
      <trkpt lat="41.6147020" lon="-0.9095750">
        <ele>254.4</ele>
        <time>2020-12-31T15:11:37Z</time>
      </trkpt>
      <trkpt lat="41.6147510" lon="-0.9095010">
        <ele>254.5</ele>
        <time>2020-12-31T15:11:38Z</time>
      </trkpt>
      <trkpt lat="41.6148760" lon="-0.9093950">
        <ele>254.6</ele>
        <time>2020-12-31T15:11:40Z</time>
      </trkpt>
      <trkpt lat="41.6149380" lon="-0.9093480">
        <ele>254.6</ele>
        <time>2020-12-31T15:11:41Z</time>
      </trkpt>
      <trkpt lat="41.6149920" lon="-0.9092950">
        <ele>254.6</ele>
        <time>2020-12-31T15:11:42Z</time>
      </trkpt>
      <trkpt lat="41.6150960" lon="-0.9091870">
        <ele>254.3</ele>
        <time>2020-12-31T15:11:44Z</time>
      </trkpt>
      <trkpt lat="41.6151550" lon="-0.9091230">
        <ele>254.1</ele>
        <time>2020-12-31T15:11:45Z</time>
      </trkpt>
      <trkpt lat="41.6152120" lon="-0.9090590">
        <ele>254.0</ele>
        <time>2020-12-31T15:11:46Z</time>
      </trkpt>
      <trkpt lat="41.6152700" lon="-0.9090000">
        <ele>253.8</ele>
        <time>2020-12-31T15:11:47Z</time>
      </trkpt>
      <trkpt lat="41.6153960" lon="-0.9088980">
        <ele>253.7</ele>
        <time>2020-12-31T15:11:49Z</time>
      </trkpt>
      <trkpt lat="41.6154590" lon="-0.9088560">
        <ele>253.7</ele>
        <time>2020-12-31T15:11:50Z</time>
      </trkpt>
      <trkpt lat="41.6155820" lon="-0.9087850">
        <ele>253.7</ele>
        <time>2020-12-31T15:11:52Z</time>
      </trkpt>
      <trkpt lat="41.6156360" lon="-0.9087470">
        <ele>253.6</ele>
        <time>2020-12-31T15:11:53Z</time>
      </trkpt>
      <trkpt lat="41.6156830" lon="-0.9087030">
        <ele>253.6</ele>
        <time>2020-12-31T15:11:54Z</time>
      </trkpt>
      <trkpt lat="41.6157510" lon="-0.9085730">
        <ele>253.4</ele>
        <time>2020-12-31T15:11:56Z</time>
      </trkpt>
      <trkpt lat="41.6158260" lon="-0.9084260">
        <ele>253.2</ele>
        <time>2020-12-31T15:11:58Z</time>
      </trkpt>
      <trkpt lat="41.6158620" lon="-0.9083550">
        <ele>253.1</ele>
        <time>2020-12-31T15:11:59Z</time>
      </trkpt>
      <trkpt lat="41.6159050" lon="-0.9082800">
        <ele>253.0</ele>
        <time>2020-12-31T15:12:00Z</time>
      </trkpt>
      <trkpt lat="41.6159470" lon="-0.9082090">
        <ele>253.0</ele>
        <time>2020-12-31T15:12:01Z</time>
      </trkpt>
      <trkpt lat="41.6160320" lon="-0.9080800">
        <ele>252.9</ele>
        <time>2020-12-31T15:12:03Z</time>
      </trkpt>
      <trkpt lat="41.6161250" lon="-0.9079500">
        <ele>252.8</ele>
        <time>2020-12-31T15:12:05Z</time>
      </trkpt>
      <trkpt lat="41.6162210" lon="-0.9078050">
        <ele>252.7</ele>
        <time>2020-12-31T15:12:07Z</time>
      </trkpt>
      <trkpt lat="41.6162710" lon="-0.9077330">
        <ele>252.6</ele>
        <time>2020-12-31T15:12:08Z</time>
      </trkpt>
      <trkpt lat="41.6163760" lon="-0.9076050">
        <ele>252.6</ele>
        <time>2020-12-31T15:12:10Z</time>
      </trkpt>
      <trkpt lat="41.6164820" lon="-0.9074990">
        <ele>252.6</ele>
        <time>2020-12-31T15:12:12Z</time>
      </trkpt>
      <trkpt lat="41.6165350" lon="-0.9074510">
        <ele>252.5</ele>
        <time>2020-12-31T15:12:13Z</time>
      </trkpt>
      <trkpt lat="41.6165860" lon="-0.9074000">
        <ele>252.5</ele>
        <time>2020-12-31T15:12:14Z</time>
      </trkpt>
      <trkpt lat="41.6166330" lon="-0.9073380">
        <ele>252.4</ele>
        <time>2020-12-31T15:12:15Z</time>
      </trkpt>
      <trkpt lat="41.6166860" lon="-0.9071690">
        <ele>252.2</ele>
        <time>2020-12-31T15:12:17Z</time>
      </trkpt>
      <trkpt lat="41.6167030" lon="-0.9070670">
        <ele>252.1</ele>
        <time>2020-12-31T15:12:18Z</time>
      </trkpt>
      <trkpt lat="41.6167260" lon="-0.9068580">
        <ele>252.2</ele>
        <time>2020-12-31T15:12:20Z</time>
      </trkpt>
      <trkpt lat="41.6167310" lon="-0.9067570">
        <ele>252.4</ele>
        <time>2020-12-31T15:12:21Z</time>
      </trkpt>
      <trkpt lat="41.6167040" lon="-0.9065830">
        <ele>253.0</ele>
        <time>2020-12-31T15:12:23Z</time>
      </trkpt>
      <trkpt lat="41.6166800" lon="-0.9065060">
        <ele>253.4</ele>
        <time>2020-12-31T15:12:24Z</time>
      </trkpt>
      <trkpt lat="41.6166530" lon="-0.9064330">
        <ele>253.8</ele>
        <time>2020-12-31T15:12:25Z</time>
      </trkpt>
      <trkpt lat="41.6166060" lon="-0.9062850">
        <ele>254.6</ele>
        <time>2020-12-31T15:12:27Z</time>
      </trkpt>
      <trkpt lat="41.6165650" lon="-0.9061440">
        <ele>255.4</ele>
        <time>2020-12-31T15:12:29Z</time>
      </trkpt>
      <trkpt lat="41.6165370" lon="-0.9060090">
        <ele>255.9</ele>
        <time>2020-12-31T15:12:31Z</time>
      </trkpt>
      <trkpt lat="41.6165230" lon="-0.9059440">
        <ele>256.0</ele>
        <time>2020-12-31T15:12:32Z</time>
      </trkpt>
      <trkpt lat="41.6165030" lon="-0.9057970">
        <ele>255.9</ele>
        <time>2020-12-31T15:12:34Z</time>
      </trkpt>
      <trkpt lat="41.6164590" lon="-0.9056710">
        <ele>255.8</ele>
        <time>2020-12-31T15:12:36Z</time>
      </trkpt>
      <trkpt lat="41.6164350" lon="-0.9055100">
        <ele>255.7</ele>
        <time>2020-12-31T15:12:38Z</time>
      </trkpt>
      <trkpt lat="41.6164180" lon="-0.9054280">
        <ele>255.7</ele>
        <time>2020-12-31T15:12:39Z</time>
      </trkpt>
      <trkpt lat="41.6163640" lon="-0.9052780">
        <ele>255.7</ele>
        <time>2020-12-31T15:12:41Z</time>
      </trkpt>
      <trkpt lat="41.6163370" lon="-0.9052040">
        <ele>255.8</ele>
        <time>2020-12-31T15:12:42Z</time>
      </trkpt>
      <trkpt lat="41.6163020" lon="-0.9050710">
        <ele>256.0</ele>
        <time>2020-12-31T15:12:44Z</time>
      </trkpt>
      <trkpt lat="41.6162860" lon="-0.9050040">
        <ele>256.1</ele>
        <time>2020-12-31T15:12:45Z</time>
      </trkpt>
      <trkpt lat="41.6162510" lon="-0.9048780">
        <ele>256.3</ele>
        <time>2020-12-31T15:12:47Z</time>
      </trkpt>
      <trkpt lat="41.6162360" lon="-0.9048140">
        <ele>256.5</ele>
        <time>2020-12-31T15:12:48Z</time>
      </trkpt>
      <trkpt lat="41.6162090" lon="-0.9046940">
        <ele>256.8</ele>
        <time>2020-12-31T15:12:50Z</time>
      </trkpt>
      <trkpt lat="41.6161960" lon="-0.9046320">
        <ele>257.0</ele>
        <time>2020-12-31T15:12:51Z</time>
      </trkpt>
      <trkpt lat="41.6161730" lon="-0.9045300">
        <ele>257.3</ele>
        <time>2020-12-31T15:12:53Z</time>
      </trkpt>
      <trkpt lat="41.6161600" lon="-0.9044760">
        <ele>257.4</ele>
        <time>2020-12-31T15:12:54Z</time>
      </trkpt>
      <trkpt lat="41.6161350" lon="-0.9043760">
        <ele>257.8</ele>
        <time>2020-12-31T15:12:56Z</time>
      </trkpt>
      <trkpt lat="41.6160980" lon="-0.9042680">
        <ele>258.1</ele>
        <time>2020-12-31T15:12:58Z</time>
      </trkpt>
      <trkpt lat="41.6160840" lon="-0.9042550">
        <ele>258.1</ele>
        <time>2020-12-31T15:12:59Z</time>
      </trkpt>
      <trkpt lat="41.6160820" lon="-0.9042570">
        <ele>258.1</ele>
        <time>2020-12-31T15:13:00Z</time>
      </trkpt>
      <trkpt lat="41.6160380" lon="-0.9041240">
        <ele>258.4</ele>
        <time>2020-12-31T15:13:02Z</time>
      </trkpt>
      <trkpt lat="41.6159960" lon="-0.9040250">
        <ele>258.7</ele>
        <time>2020-12-31T15:13:04Z</time>
      </trkpt>
      <trkpt lat="41.6159690" lon="-0.9039580">
        <ele>258.8</ele>
        <time>2020-12-31T15:13:05Z</time>
      </trkpt>
      <trkpt lat="41.6159430" lon="-0.9038970">
        <ele>258.9</ele>
        <time>2020-12-31T15:13:06Z</time>
      </trkpt>
      <trkpt lat="41.6159040" lon="-0.9038220">
        <ele>259.1</ele>
        <time>2020-12-31T15:13:08Z</time>
      </trkpt>
      <trkpt lat="41.6158750" lon="-0.9037650">
        <ele>259.3</ele>
        <time>2020-12-31T15:13:09Z</time>
      </trkpt>
      <trkpt lat="41.6158530" lon="-0.9037240">
        <ele>259.4</ele>
        <time>2020-12-31T15:13:10Z</time>
      </trkpt>
      <trkpt lat="41.6158130" lon="-0.9036570">
        <ele>259.7</ele>
        <time>2020-12-31T15:13:12Z</time>
      </trkpt>
      <trkpt lat="41.6157810" lon="-0.9036010">
        <ele>259.9</ele>
        <time>2020-12-31T15:13:13Z</time>
      </trkpt>
      <trkpt lat="41.6157450" lon="-0.9035330">
        <ele>260.2</ele>
        <time>2020-12-31T15:13:15Z</time>
      </trkpt>
      <trkpt lat="41.6157250" lon="-0.9034970">
        <ele>260.3</ele>
        <time>2020-12-31T15:13:16Z</time>
      </trkpt>
      <trkpt lat="41.6157040" lon="-0.9034600">
        <ele>260.3</ele>
        <time>2020-12-31T15:13:17Z</time>
      </trkpt>
      <trkpt lat="41.6156870" lon="-0.9034260">
        <ele>260.4</ele>
        <time>2020-12-31T15:13:18Z</time>
      </trkpt>
      <trkpt lat="41.6156720" lon="-0.9033820">
        <ele>260.4</ele>
        <time>2020-12-31T15:13:19Z</time>
      </trkpt>
      <trkpt lat="41.6156600" lon="-0.9033360">
        <ele>260.6</ele>
        <time>2020-12-31T15:13:21Z</time>
      </trkpt>
      <trkpt lat="41.6156340" lon="-0.9032870">
        <ele>260.9</ele>
        <time>2020-12-31T15:13:22Z</time>
      </trkpt>
      <trkpt lat="41.6156100" lon="-0.9032590">
        <ele>261.1</ele>
        <time>2020-12-31T15:13:23Z</time>
      </trkpt>
      <trkpt lat="41.6155850" lon="-0.9032240">
        <ele>261.4</ele>
        <time>2020-12-31T15:13:24Z</time>
      </trkpt>
      <trkpt lat="41.6155550" lon="-0.9031780">
        <ele>261.7</ele>
        <time>2020-12-31T15:13:26Z</time>
      </trkpt>
      <trkpt lat="41.6155140" lon="-0.9031160">
        <ele>262.2</ele>
        <time>2020-12-31T15:13:28Z</time>
      </trkpt>
      <trkpt lat="41.6154970" lon="-0.9030670">
        <ele>262.5</ele>
        <time>2020-12-31T15:13:29Z</time>
      </trkpt>
      <trkpt lat="41.6154710" lon="-0.9030110">
        <ele>262.9</ele>
        <time>2020-12-31T15:13:31Z</time>
      </trkpt>
      <trkpt lat="41.6154540" lon="-0.9029730">
        <ele>263.2</ele>
        <time>2020-12-31T15:13:32Z</time>
      </trkpt>
      <trkpt lat="41.6154410" lon="-0.9029340">
        <ele>263.5</ele>
        <time>2020-12-31T15:13:33Z</time>
      </trkpt>
      <trkpt lat="41.6154300" lon="-0.9028930">
        <ele>263.8</ele>
        <time>2020-12-31T15:13:34Z</time>
      </trkpt>
      <trkpt lat="41.6154250" lon="-0.9028540">
        <ele>264.1</ele>
        <time>2020-12-31T15:13:35Z</time>
      </trkpt>
      <trkpt lat="41.6154220" lon="-0.9028150">
        <ele>264.3</ele>
        <time>2020-12-31T15:13:37Z</time>
      </trkpt>
      <trkpt lat="41.6154170" lon="-0.9027790">
        <ele>264.6</ele>
        <time>2020-12-31T15:13:38Z</time>
      </trkpt>
      <trkpt lat="41.6154130" lon="-0.9027380">
        <ele>264.9</ele>
        <time>2020-12-31T15:13:39Z</time>
      </trkpt>
      <trkpt lat="41.6154120" lon="-0.9027010">
        <ele>265.1</ele>
        <time>2020-12-31T15:13:40Z</time>
      </trkpt>
      <trkpt lat="41.6154140" lon="-0.9026620">
        <ele>265.4</ele>
        <time>2020-12-31T15:13:41Z</time>
      </trkpt>
      <trkpt lat="41.6154150" lon="-0.9026260">
        <ele>265.7</ele>
        <time>2020-12-31T15:13:42Z</time>
      </trkpt>
      <trkpt lat="41.6154180" lon="-0.9025660">
        <ele>266.1</ele>
        <time>2020-12-31T15:13:44Z</time>
      </trkpt>
      <trkpt lat="41.6154220" lon="-0.9025240">
        <ele>266.5</ele>
        <time>2020-12-31T15:13:45Z</time>
      </trkpt>
      <trkpt lat="41.6154340" lon="-0.9024720">
        <ele>266.9</ele>
        <time>2020-12-31T15:13:47Z</time>
      </trkpt>
      <trkpt lat="41.6154440" lon="-0.9024280">
        <ele>267.2</ele>
        <time>2020-12-31T15:13:48Z</time>
      </trkpt>
      <trkpt lat="41.6154500" lon="-0.9023940">
        <ele>267.5</ele>
        <time>2020-12-31T15:13:49Z</time>
      </trkpt>
      <trkpt lat="41.6154610" lon="-0.9023340">
        <ele>268.0</ele>
        <time>2020-12-31T15:13:51Z</time>
      </trkpt>
      <trkpt lat="41.6154650" lon="-0.9023000">
        <ele>268.3</ele>
        <time>2020-12-31T15:13:52Z</time>
      </trkpt>
      <trkpt lat="41.6154700" lon="-0.9022540">
        <ele>268.6</ele>
        <time>2020-12-31T15:13:54Z</time>
      </trkpt>
      <trkpt lat="41.6154780" lon="-0.9022050">
        <ele>269.0</ele>
        <time>2020-12-31T15:13:55Z</time>
      </trkpt>
      <trkpt lat="41.6154810" lon="-0.9021740">
        <ele>269.2</ele>
        <time>2020-12-31T15:13:56Z</time>
      </trkpt>
      <trkpt lat="41.6154840" lon="-0.9021350">
        <ele>269.5</ele>
        <time>2020-12-31T15:13:58Z</time>
      </trkpt>
      <trkpt lat="41.6154890" lon="-0.9020980">
        <ele>269.8</ele>
        <time>2020-12-31T15:13:59Z</time>
      </trkpt>
      <trkpt lat="41.6154970" lon="-0.9020600">
        <ele>270.1</ele>
        <time>2020-12-31T15:14:00Z</time>
      </trkpt>
      <trkpt lat="41.6155080" lon="-0.9020240">
        <ele>270.4</ele>
        <time>2020-12-31T15:14:02Z</time>
      </trkpt>
      <trkpt lat="41.6155170" lon="-0.9019890">
        <ele>270.7</ele>
        <time>2020-12-31T15:14:03Z</time>
      </trkpt>
      <trkpt lat="41.6155190" lon="-0.9019460">
        <ele>271.1</ele>
        <time>2020-12-31T15:14:04Z</time>
      </trkpt>
      <trkpt lat="41.6155190" lon="-0.9019330">
        <ele>271.2</ele>
        <time>2020-12-31T15:14:05Z</time>
      </trkpt>
      <trkpt lat="41.6155240" lon="-0.9018980">
        <ele>271.5</ele>
        <time>2020-12-31T15:14:06Z</time>
      </trkpt>
      <trkpt lat="41.6155300" lon="-0.9018490">
        <ele>271.8</ele>
        <time>2020-12-31T15:14:08Z</time>
      </trkpt>
      <trkpt lat="41.6155370" lon="-0.9018150">
        <ele>272.1</ele>
        <time>2020-12-31T15:14:09Z</time>
      </trkpt>
      <trkpt lat="41.6155410" lon="-0.9018020">
        <ele>272.2</ele>
        <time>2020-12-31T15:14:10Z</time>
      </trkpt>
      <trkpt lat="41.6155540" lon="-0.9017630">
        <ele>272.5</ele>
        <time>2020-12-31T15:14:11Z</time>
      </trkpt>
      <trkpt lat="41.6155560" lon="-0.9017510">
        <ele>272.6</ele>
        <time>2020-12-31T15:14:12Z</time>
      </trkpt>
      <trkpt lat="41.6155650" lon="-0.9017110">
        <ele>272.9</ele>
        <time>2020-12-31T15:14:14Z</time>
      </trkpt>
      <trkpt lat="41.6155680" lon="-0.9016960">
        <ele>273.1</ele>
        <time>2020-12-31T15:14:15Z</time>
      </trkpt>
      <trkpt lat="41.6155780" lon="-0.9016580">
        <ele>273.4</ele>
        <time>2020-12-31T15:14:17Z</time>
      </trkpt>
      <trkpt lat="41.6155880" lon="-0.9016220">
        <ele>273.6</ele>
        <time>2020-12-31T15:14:18Z</time>
      </trkpt>
      <trkpt lat="41.6156020" lon="-0.9015860">
        <ele>273.9</ele>
        <time>2020-12-31T15:14:19Z</time>
      </trkpt>
      <trkpt lat="41.6156060" lon="-0.9015760">
        <ele>274.0</ele>
        <time>2020-12-31T15:14:20Z</time>
      </trkpt>
      <trkpt lat="41.6156210" lon="-0.9015430">
        <ele>274.3</ele>
        <time>2020-12-31T15:14:22Z</time>
      </trkpt>
      <trkpt lat="41.6156380" lon="-0.9015130">
        <ele>274.5</ele>
        <time>2020-12-31T15:14:23Z</time>
      </trkpt>
      <trkpt lat="41.6156460" lon="-0.9014680">
        <ele>274.8</ele>
        <time>2020-12-31T15:14:25Z</time>
      </trkpt>
      <trkpt lat="41.6156480" lon="-0.9014480">
        <ele>275.0</ele>
        <time>2020-12-31T15:14:26Z</time>
      </trkpt>
      <trkpt lat="41.6156620" lon="-0.9014030">
        <ele>275.3</ele>
        <time>2020-12-31T15:14:28Z</time>
      </trkpt>
      <trkpt lat="41.6156810" lon="-0.9013670">
        <ele>275.6</ele>
        <time>2020-12-31T15:14:30Z</time>
      </trkpt>
      <trkpt lat="41.6156880" lon="-0.9013370">
        <ele>275.8</ele>
        <time>2020-12-31T15:14:31Z</time>
      </trkpt>
      <trkpt lat="41.6156900" lon="-0.9012980">
        <ele>276.1</ele>
        <time>2020-12-31T15:14:33Z</time>
      </trkpt>
      <trkpt lat="41.6156890" lon="-0.9012540">
        <ele>276.4</ele>
        <time>2020-12-31T15:14:34Z</time>
      </trkpt>
      <trkpt lat="41.6156890" lon="-0.9012380">
        <ele>276.5</ele>
        <time>2020-12-31T15:14:35Z</time>
      </trkpt>
      <trkpt lat="41.6156930" lon="-0.9011950">
        <ele>276.8</ele>
        <time>2020-12-31T15:14:36Z</time>
      </trkpt>
      <trkpt lat="41.6156930" lon="-0.9011810">
        <ele>276.9</ele>
        <time>2020-12-31T15:14:37Z</time>
      </trkpt>
      <trkpt lat="41.6157030" lon="-0.9011370">
        <ele>277.2</ele>
        <time>2020-12-31T15:14:39Z</time>
      </trkpt>
      <trkpt lat="41.6157050" lon="-0.9011260">
        <ele>277.3</ele>
        <time>2020-12-31T15:14:40Z</time>
      </trkpt>
      <trkpt lat="41.6157150" lon="-0.9011010">
        <ele>277.5</ele>
        <time>2020-12-31T15:14:42Z</time>
      </trkpt>
      <trkpt lat="41.6157220" lon="-0.9010690">
        <ele>277.7</ele>
        <time>2020-12-31T15:14:44Z</time>
      </trkpt>
      <trkpt lat="41.6157280" lon="-0.9010320">
        <ele>278.0</ele>
        <time>2020-12-31T15:14:45Z</time>
      </trkpt>
      <trkpt lat="41.6157350" lon="-0.9009770">
        <ele>278.4</ele>
        <time>2020-12-31T15:14:47Z</time>
      </trkpt>
      <trkpt lat="41.6157370" lon="-0.9009600">
        <ele>278.5</ele>
        <time>2020-12-31T15:14:48Z</time>
      </trkpt>
      <trkpt lat="41.6157400" lon="-0.9009420">
        <ele>278.6</ele>
        <time>2020-12-31T15:14:49Z</time>
      </trkpt>
      <trkpt lat="41.6157420" lon="-0.9009040">
        <ele>278.9</ele>
        <time>2020-12-31T15:14:50Z</time>
      </trkpt>
      <trkpt lat="41.6157450" lon="-0.9008710">
        <ele>279.1</ele>
        <time>2020-12-31T15:14:52Z</time>
      </trkpt>
      <trkpt lat="41.6157550" lon="-0.9008210">
        <ele>279.5</ele>
        <time>2020-12-31T15:14:54Z</time>
      </trkpt>
      <trkpt lat="41.6157580" lon="-0.9007750">
        <ele>279.9</ele>
        <time>2020-12-31T15:14:55Z</time>
      </trkpt>
      <trkpt lat="41.6157580" lon="-0.9007620">
        <ele>280.0</ele>
        <time>2020-12-31T15:14:56Z</time>
      </trkpt>
      <trkpt lat="41.6157630" lon="-0.9007290">
        <ele>280.2</ele>
        <time>2020-12-31T15:14:57Z</time>
      </trkpt>
      <trkpt lat="41.6157730" lon="-0.9006920">
        <ele>280.5</ele>
        <time>2020-12-31T15:14:59Z</time>
      </trkpt>
      <trkpt lat="41.6157780" lon="-0.9006690">
        <ele>280.7</ele>
        <time>2020-12-31T15:15:00Z</time>
      </trkpt>
      <trkpt lat="41.6157820" lon="-0.9006460">
        <ele>280.9</ele>
        <time>2020-12-31T15:15:01Z</time>
      </trkpt>
      <trkpt lat="41.6157920" lon="-0.9006020">
        <ele>281.2</ele>
        <time>2020-12-31T15:15:03Z</time>
      </trkpt>
      <trkpt lat="41.6157960" lon="-0.9005860">
        <ele>281.4</ele>
        <time>2020-12-31T15:15:04Z</time>
      </trkpt>
      <trkpt lat="41.6158020" lon="-0.9005500">
        <ele>281.7</ele>
        <time>2020-12-31T15:15:06Z</time>
      </trkpt>
      <trkpt lat="41.6158070" lon="-0.9005270">
        <ele>281.9</ele>
        <time>2020-12-31T15:15:07Z</time>
      </trkpt>
      <trkpt lat="41.6158190" lon="-0.9004980">
        <ele>282.1</ele>
        <time>2020-12-31T15:15:09Z</time>
      </trkpt>
      <trkpt lat="41.6158270" lon="-0.9004580">
        <ele>282.4</ele>
        <time>2020-12-31T15:15:10Z</time>
      </trkpt>
      <trkpt lat="41.6158280" lon="-0.9004450">
        <ele>282.6</ele>
        <time>2020-12-31T15:15:11Z</time>
      </trkpt>
      <trkpt lat="41.6158400" lon="-0.9004080">
        <ele>282.9</ele>
        <time>2020-12-31T15:15:13Z</time>
      </trkpt>
      <trkpt lat="41.6158420" lon="-0.9003930">
        <ele>283.0</ele>
        <time>2020-12-31T15:15:14Z</time>
      </trkpt>
      <trkpt lat="41.6158410" lon="-0.9003750">
        <ele>283.1</ele>
        <time>2020-12-31T15:15:15Z</time>
      </trkpt>
      <trkpt lat="41.6158480" lon="-0.9003460">
        <ele>283.4</ele>
        <time>2020-12-31T15:15:17Z</time>
      </trkpt>
      <trkpt lat="41.6158520" lon="-0.9003240">
        <ele>283.5</ele>
        <time>2020-12-31T15:15:18Z</time>
      </trkpt>
      <trkpt lat="41.6158520" lon="-0.9003060">
        <ele>283.7</ele>
        <time>2020-12-31T15:15:19Z</time>
      </trkpt>
      <trkpt lat="41.6158590" lon="-0.9002670">
        <ele>284.0</ele>
        <time>2020-12-31T15:15:20Z</time>
      </trkpt>
      <trkpt lat="41.6158620" lon="-0.9002510">
        <ele>284.1</ele>
        <time>2020-12-31T15:15:21Z</time>
      </trkpt>
      <trkpt lat="41.6158720" lon="-0.9002090">
        <ele>284.5</ele>
        <time>2020-12-31T15:15:23Z</time>
      </trkpt>
      <trkpt lat="41.6158740" lon="-0.9001960">
        <ele>284.6</ele>
        <time>2020-12-31T15:15:24Z</time>
      </trkpt>
      <trkpt lat="41.6158760" lon="-0.9001770">
        <ele>284.7</ele>
        <time>2020-12-31T15:15:25Z</time>
      </trkpt>
      <trkpt lat="41.6158800" lon="-0.9001480">
        <ele>284.9</ele>
        <time>2020-12-31T15:15:27Z</time>
      </trkpt>
      <trkpt lat="41.6158830" lon="-0.9001080">
        <ele>285.2</ele>
        <time>2020-12-31T15:15:28Z</time>
      </trkpt>
      <trkpt lat="41.6158830" lon="-0.9000950">
        <ele>285.3</ele>
        <time>2020-12-31T15:15:29Z</time>
      </trkpt>
      <trkpt lat="41.6158860" lon="-0.9000560">
        <ele>285.5</ele>
        <time>2020-12-31T15:15:31Z</time>
      </trkpt>
      <trkpt lat="41.6158870" lon="-0.9000300">
        <ele>285.7</ele>
        <time>2020-12-31T15:15:32Z</time>
      </trkpt>
      <trkpt lat="41.6158940" lon="-0.8999940">
        <ele>285.9</ele>
        <time>2020-12-31T15:15:34Z</time>
      </trkpt>
      <trkpt lat="41.6159020" lon="-0.8999580">
        <ele>286.1</ele>
        <time>2020-12-31T15:15:35Z</time>
      </trkpt>
      <trkpt lat="41.6159070" lon="-0.8999240">
        <ele>286.1</ele>
        <time>2020-12-31T15:15:36Z</time>
      </trkpt>
      <trkpt lat="41.6159130" lon="-0.8998800">
        <ele>286.2</ele>
        <time>2020-12-31T15:15:38Z</time>
      </trkpt>
      <trkpt lat="41.6159190" lon="-0.8998240">
        <ele>286.2</ele>
        <time>2020-12-31T15:15:40Z</time>
      </trkpt>
      <trkpt lat="41.6159220" lon="-0.8997840">
        <ele>286.2</ele>
        <time>2020-12-31T15:15:41Z</time>
      </trkpt>
      <trkpt lat="41.6159230" lon="-0.8997690">
        <ele>286.2</ele>
        <time>2020-12-31T15:15:42Z</time>
      </trkpt>
      <trkpt lat="41.6159260" lon="-0.8997260">
        <ele>286.2</ele>
        <time>2020-12-31T15:15:44Z</time>
      </trkpt>
      <trkpt lat="41.6159300" lon="-0.8996860">
        <ele>286.2</ele>
        <time>2020-12-31T15:15:45Z</time>
      </trkpt>
      <trkpt lat="41.6159350" lon="-0.8996560">
        <ele>286.2</ele>
        <time>2020-12-31T15:15:46Z</time>
      </trkpt>
      <trkpt lat="41.6159440" lon="-0.8996090">
        <ele>286.1</ele>
        <time>2020-12-31T15:15:48Z</time>
      </trkpt>
      <trkpt lat="41.6159530" lon="-0.8995720">
        <ele>286.1</ele>
        <time>2020-12-31T15:15:49Z</time>
      </trkpt>
      <trkpt lat="41.6159630" lon="-0.8995280">
        <ele>286.0</ele>
        <time>2020-12-31T15:15:50Z</time>
      </trkpt>
      <trkpt lat="41.6159660" lon="-0.8995130">
        <ele>286.0</ele>
        <time>2020-12-31T15:15:51Z</time>
      </trkpt>
      <trkpt lat="41.6159770" lon="-0.8994730">
        <ele>286.0</ele>
        <time>2020-12-31T15:15:53Z</time>
      </trkpt>
      <trkpt lat="41.6159800" lon="-0.8994380">
        <ele>285.9</ele>
        <time>2020-12-31T15:15:54Z</time>
      </trkpt>
      <trkpt lat="41.6160020" lon="-0.8993480">
        <ele>285.7</ele>
        <time>2020-12-31T15:15:56Z</time>
      </trkpt>
      <trkpt lat="41.6160380" lon="-0.8992430">
        <ele>285.5</ele>
        <time>2020-12-31T15:15:58Z</time>
      </trkpt>
      <trkpt lat="41.6160600" lon="-0.8991820">
        <ele>285.4</ele>
        <time>2020-12-31T15:16:00Z</time>
      </trkpt>
      <trkpt lat="41.6160890" lon="-0.8990730">
        <ele>285.2</ele>
        <time>2020-12-31T15:16:02Z</time>
      </trkpt>
      <trkpt lat="41.6160990" lon="-0.8990100">
        <ele>285.0</ele>
        <time>2020-12-31T15:16:03Z</time>
      </trkpt>
      <trkpt lat="41.6161300" lon="-0.8988830">
        <ele>284.6</ele>
        <time>2020-12-31T15:16:05Z</time>
      </trkpt>
      <trkpt lat="41.6161480" lon="-0.8988140">
        <ele>284.4</ele>
        <time>2020-12-31T15:16:06Z</time>
      </trkpt>
      <trkpt lat="41.6161870" lon="-0.8986720">
        <ele>283.9</ele>
        <time>2020-12-31T15:16:08Z</time>
      </trkpt>
      <trkpt lat="41.6162070" lon="-0.8985990">
        <ele>283.6</ele>
        <time>2020-12-31T15:16:09Z</time>
      </trkpt>
      <trkpt lat="41.6162470" lon="-0.8984460">
        <ele>283.1</ele>
        <time>2020-12-31T15:16:11Z</time>
      </trkpt>
      <trkpt lat="41.6162860" lon="-0.8982750">
        <ele>282.6</ele>
        <time>2020-12-31T15:16:13Z</time>
      </trkpt>
      <trkpt lat="41.6163050" lon="-0.8981870">
        <ele>282.4</ele>
        <time>2020-12-31T15:16:14Z</time>
      </trkpt>
      <trkpt lat="41.6163230" lon="-0.8980970">
        <ele>282.2</ele>
        <time>2020-12-31T15:16:15Z</time>
      </trkpt>
      <trkpt lat="41.6163480" lon="-0.8979120">
        <ele>281.9</ele>
        <time>2020-12-31T15:16:17Z</time>
      </trkpt>
      <trkpt lat="41.6163610" lon="-0.8978230">
        <ele>281.8</ele>
        <time>2020-12-31T15:16:18Z</time>
      </trkpt>
      <trkpt lat="41.6163810" lon="-0.8976470">
        <ele>281.7</ele>
        <time>2020-12-31T15:16:20Z</time>
      </trkpt>
      <trkpt lat="41.6163940" lon="-0.8975590">
        <ele>281.6</ele>
        <time>2020-12-31T15:16:21Z</time>
      </trkpt>
      <trkpt lat="41.6164180" lon="-0.8973820">
        <ele>281.6</ele>
        <time>2020-12-31T15:16:23Z</time>
      </trkpt>
      <trkpt lat="41.6164200" lon="-0.8972980">
        <ele>281.7</ele>
        <time>2020-12-31T15:16:24Z</time>
      </trkpt>
      <trkpt lat="41.6163750" lon="-0.8971620">
        <ele>281.8</ele>
        <time>2020-12-31T15:16:26Z</time>
      </trkpt>
      <trkpt lat="41.6163580" lon="-0.8971020">
        <ele>281.8</ele>
        <time>2020-12-31T15:16:27Z</time>
      </trkpt>
      <trkpt lat="41.6163380" lon="-0.8970460">
        <ele>281.9</ele>
        <time>2020-12-31T15:16:28Z</time>
      </trkpt>
      <trkpt lat="41.6163430" lon="-0.8969530">
        <ele>282.1</ele>
        <time>2020-12-31T15:16:30Z</time>
      </trkpt>
      <trkpt lat="41.6163800" lon="-0.8968590">
        <ele>282.0</ele>
        <time>2020-12-31T15:16:32Z</time>
      </trkpt>
      <trkpt lat="41.6164090" lon="-0.8968040">
        <ele>282.0</ele>
        <time>2020-12-31T15:16:33Z</time>
      </trkpt>
      <trkpt lat="41.6164660" lon="-0.8966980">
        <ele>281.9</ele>
        <time>2020-12-31T15:16:35Z</time>
      </trkpt>
      <trkpt lat="41.6164700" lon="-0.8966610">
        <ele>281.9</ele>
        <time>2020-12-31T15:16:37Z</time>
      </trkpt>
      <trkpt lat="41.6164790" lon="-0.8965840">
        <ele>281.9</ele>
        <time>2020-12-31T15:16:39Z</time>
      </trkpt>
      <trkpt lat="41.6164580" lon="-0.8965450">
        <ele>281.9</ele>
        <time>2020-12-31T15:16:40Z</time>
      </trkpt>
      <trkpt lat="41.6164210" lon="-0.8965120">
        <ele>281.9</ele>
        <time>2020-12-31T15:16:41Z</time>
      </trkpt>
      <trkpt lat="41.6163750" lon="-0.8964280">
        <ele>281.8</ele>
        <time>2020-12-31T15:16:43Z</time>
      </trkpt>
      <trkpt lat="41.6163390" lon="-0.8963620">
        <ele>281.8</ele>
        <time>2020-12-31T15:16:44Z</time>
      </trkpt>
      <trkpt lat="41.6163040" lon="-0.8962810">
        <ele>281.8</ele>
        <time>2020-12-31T15:16:46Z</time>
      </trkpt>
      <trkpt lat="41.6162380" lon="-0.8961740">
        <ele>281.7</ele>
        <time>2020-12-31T15:16:48Z</time>
      </trkpt>
      <trkpt lat="41.6162200" lon="-0.8961110">
        <ele>281.7</ele>
        <time>2020-12-31T15:16:49Z</time>
      </trkpt>
      <trkpt lat="41.6162090" lon="-0.8960430">
        <ele>281.6</ele>
        <time>2020-12-31T15:16:50Z</time>
      </trkpt>
      <trkpt lat="41.6162080" lon="-0.8959070">
        <ele>281.5</ele>
        <time>2020-12-31T15:16:52Z</time>
      </trkpt>
      <trkpt lat="41.6162110" lon="-0.8958360">
        <ele>281.4</ele>
        <time>2020-12-31T15:16:53Z</time>
      </trkpt>
      <trkpt lat="41.6162190" lon="-0.8956900">
        <ele>281.2</ele>
        <time>2020-12-31T15:16:55Z</time>
      </trkpt>
      <trkpt lat="41.6162230" lon="-0.8956140">
        <ele>281.0</ele>
        <time>2020-12-31T15:16:56Z</time>
      </trkpt>
      <trkpt lat="41.6162320" lon="-0.8954630">
        <ele>280.7</ele>
        <time>2020-12-31T15:16:58Z</time>
      </trkpt>
      <trkpt lat="41.6162400" lon="-0.8953860">
        <ele>280.5</ele>
        <time>2020-12-31T15:16:59Z</time>
      </trkpt>
      <trkpt lat="41.6162540" lon="-0.8952530">
        <ele>280.1</ele>
        <time>2020-12-31T15:17:01Z</time>
      </trkpt>
      <trkpt lat="41.6162620" lon="-0.8951840">
        <ele>279.9</ele>
        <time>2020-12-31T15:17:02Z</time>
      </trkpt>
      <trkpt lat="41.6162720" lon="-0.8951020">
        <ele>279.6</ele>
        <time>2020-12-31T15:17:03Z</time>
      </trkpt>
      <trkpt lat="41.6162910" lon="-0.8949180">
        <ele>279.1</ele>
        <time>2020-12-31T15:17:05Z</time>
      </trkpt>
      <trkpt lat="41.6163020" lon="-0.8948180">
        <ele>278.8</ele>
        <time>2020-12-31T15:17:06Z</time>
      </trkpt>
      <trkpt lat="41.6163080" lon="-0.8947170">
        <ele>278.6</ele>
        <time>2020-12-31T15:17:07Z</time>
      </trkpt>
      <trkpt lat="41.6163030" lon="-0.8945220">
        <ele>278.1</ele>
        <time>2020-12-31T15:17:09Z</time>
      </trkpt>
      <trkpt lat="41.6162800" lon="-0.8943350">
        <ele>277.4</ele>
        <time>2020-12-31T15:17:11Z</time>
      </trkpt>
      <trkpt lat="41.6162620" lon="-0.8942400">
        <ele>276.8</ele>
        <time>2020-12-31T15:17:12Z</time>
      </trkpt>
      <trkpt lat="41.6162380" lon="-0.8941460">
        <ele>276.3</ele>
        <time>2020-12-31T15:17:13Z</time>
      </trkpt>
      <trkpt lat="41.6161640" lon="-0.8939790">
        <ele>275.1</ele>
        <time>2020-12-31T15:17:15Z</time>
      </trkpt>
      <trkpt lat="41.6160960" lon="-0.8937880">
        <ele>274.0</ele>
        <time>2020-12-31T15:17:17Z</time>
      </trkpt>
      <trkpt lat="41.6160260" lon="-0.8936020">
        <ele>272.9</ele>
        <time>2020-12-31T15:17:19Z</time>
      </trkpt>
      <trkpt lat="41.6159890" lon="-0.8935060">
        <ele>272.3</ele>
        <time>2020-12-31T15:17:20Z</time>
      </trkpt>
      <trkpt lat="41.6159510" lon="-0.8934090">
        <ele>271.5</ele>
        <time>2020-12-31T15:17:21Z</time>
      </trkpt>
      <trkpt lat="41.6158620" lon="-0.8932010">
        <ele>269.8</ele>
        <time>2020-12-31T15:17:23Z</time>
      </trkpt>
      <trkpt lat="41.6157550" lon="-0.8929700">
        <ele>267.9</ele>
        <time>2020-12-31T15:17:25Z</time>
      </trkpt>
      <trkpt lat="41.6156470" lon="-0.8927340">
        <ele>266.4</ele>
        <time>2020-12-31T15:17:27Z</time>
      </trkpt>
      <trkpt lat="41.6155310" lon="-0.8925040">
        <ele>265.5</ele>
        <time>2020-12-31T15:17:29Z</time>
      </trkpt>
      <trkpt lat="41.6154270" lon="-0.8922820">
        <ele>265.1</ele>
        <time>2020-12-31T15:17:31Z</time>
      </trkpt>
      <trkpt lat="41.6153820" lon="-0.8921740">
        <ele>264.9</ele>
        <time>2020-12-31T15:17:32Z</time>
      </trkpt>
      <trkpt lat="41.6153440" lon="-0.8920660">
        <ele>264.8</ele>
        <time>2020-12-31T15:17:33Z</time>
      </trkpt>
      <trkpt lat="41.6152870" lon="-0.8918540">
        <ele>264.6</ele>
        <time>2020-12-31T15:17:35Z</time>
      </trkpt>
      <trkpt lat="41.6152660" lon="-0.8917500">
        <ele>264.5</ele>
        <time>2020-12-31T15:17:36Z</time>
      </trkpt>
      <trkpt lat="41.6152280" lon="-0.8915440">
        <ele>264.4</ele>
        <time>2020-12-31T15:17:38Z</time>
      </trkpt>
      <trkpt lat="41.6151720" lon="-0.8913730">
        <ele>264.3</ele>
        <time>2020-12-31T15:17:40Z</time>
      </trkpt>
      <trkpt lat="41.6151530" lon="-0.8913050">
        <ele>264.3</ele>
        <time>2020-12-31T15:17:41Z</time>
      </trkpt>
      <trkpt lat="41.6151360" lon="-0.8911880">
        <ele>263.9</ele>
        <time>2020-12-31T15:17:43Z</time>
      </trkpt>
      <trkpt lat="41.6151380" lon="-0.8911430">
        <ele>263.8</ele>
        <time>2020-12-31T15:17:44Z</time>
      </trkpt>
      <trkpt lat="41.6151490" lon="-0.8910470">
        <ele>263.5</ele>
        <time>2020-12-31T15:17:46Z</time>
      </trkpt>
      <trkpt lat="41.6151400" lon="-0.8909590">
        <ele>263.2</ele>
        <time>2020-12-31T15:17:47Z</time>
      </trkpt>
      <trkpt lat="41.6150750" lon="-0.8908290">
        <ele>262.9</ele>
        <time>2020-12-31T15:17:49Z</time>
      </trkpt>
      <trkpt lat="41.6150200" lon="-0.8907510">
        <ele>262.7</ele>
        <time>2020-12-31T15:17:50Z</time>
      </trkpt>
      <trkpt lat="41.6149520" lon="-0.8906310">
        <ele>262.3</ele>
        <time>2020-12-31T15:17:52Z</time>
      </trkpt>
      <trkpt lat="41.6149370" lon="-0.8905390">
        <ele>262.0</ele>
        <time>2020-12-31T15:17:53Z</time>
      </trkpt>
      <trkpt lat="41.6149330" lon="-0.8903490">
        <ele>261.5</ele>
        <time>2020-12-31T15:17:55Z</time>
      </trkpt>
      <trkpt lat="41.6149400" lon="-0.8902550">
        <ele>261.3</ele>
        <time>2020-12-31T15:17:56Z</time>
      </trkpt>
      <trkpt lat="41.6149790" lon="-0.8900640">
        <ele>260.9</ele>
        <time>2020-12-31T15:17:58Z</time>
      </trkpt>
      <trkpt lat="41.6150090" lon="-0.8899880">
        <ele>260.8</ele>
        <time>2020-12-31T15:17:59Z</time>
      </trkpt>
      <trkpt lat="41.6151130" lon="-0.8898600">
        <ele>260.7</ele>
        <time>2020-12-31T15:18:01Z</time>
      </trkpt>
      <trkpt lat="41.6151650" lon="-0.8897950">
        <ele>260.6</ele>
        <time>2020-12-31T15:18:02Z</time>
      </trkpt>
      <trkpt lat="41.6152120" lon="-0.8897170">
        <ele>260.5</ele>
        <time>2020-12-31T15:18:04Z</time>
      </trkpt>
      <trkpt lat="41.6152320" lon="-0.8896920">
        <ele>260.5</ele>
        <time>2020-12-31T15:18:05Z</time>
      </trkpt>
      <trkpt lat="41.6152740" lon="-0.8896440">
        <ele>260.5</ele>
        <time>2020-12-31T15:18:06Z</time>
      </trkpt>
      <trkpt lat="41.6153540" lon="-0.8895060">
        <ele>260.4</ele>
        <time>2020-12-31T15:18:08Z</time>
      </trkpt>
      <trkpt lat="41.6153750" lon="-0.8893240">
        <ele>260.3</ele>
        <time>2020-12-31T15:18:10Z</time>
      </trkpt>
      <trkpt lat="41.6153930" lon="-0.8892390">
        <ele>260.3</ele>
        <time>2020-12-31T15:18:11Z</time>
      </trkpt>
      <trkpt lat="41.6154520" lon="-0.8890770">
        <ele>260.2</ele>
        <time>2020-12-31T15:18:13Z</time>
      </trkpt>
      <trkpt lat="41.6155130" lon="-0.8889180">
        <ele>260.1</ele>
        <time>2020-12-31T15:18:15Z</time>
      </trkpt>
      <trkpt lat="41.6155790" lon="-0.8887720">
        <ele>260.1</ele>
        <time>2020-12-31T15:18:17Z</time>
      </trkpt>
      <trkpt lat="41.6156020" lon="-0.8886950">
        <ele>260.1</ele>
        <time>2020-12-31T15:18:18Z</time>
      </trkpt>
      <trkpt lat="41.6156400" lon="-0.8885550">
        <ele>260.0</ele>
        <time>2020-12-31T15:18:20Z</time>
      </trkpt>
      <trkpt lat="41.6156520" lon="-0.8884860">
        <ele>260.0</ele>
        <time>2020-12-31T15:18:21Z</time>
      </trkpt>
      <trkpt lat="41.6156570" lon="-0.8884090">
        <ele>259.9</ele>
        <time>2020-12-31T15:18:22Z</time>
      </trkpt>
      <trkpt lat="41.6156920" lon="-0.8882400">
        <ele>259.8</ele>
        <time>2020-12-31T15:18:24Z</time>
      </trkpt>
      <trkpt lat="41.6157160" lon="-0.8881550">
        <ele>259.7</ele>
        <time>2020-12-31T15:18:25Z</time>
      </trkpt>
      <trkpt lat="41.6157620" lon="-0.8879840">
        <ele>259.7</ele>
        <time>2020-12-31T15:18:27Z</time>
      </trkpt>
      <trkpt lat="41.6157990" lon="-0.8879040">
        <ele>259.6</ele>
        <time>2020-12-31T15:18:28Z</time>
      </trkpt>
      <trkpt lat="41.6158180" lon="-0.8878140">
        <ele>259.6</ele>
        <time>2020-12-31T15:18:29Z</time>
      </trkpt>
      <trkpt lat="41.6158590" lon="-0.8876390">
        <ele>259.6</ele>
        <time>2020-12-31T15:18:31Z</time>
      </trkpt>
      <trkpt lat="41.6159180" lon="-0.8874750">
        <ele>259.5</ele>
        <time>2020-12-31T15:18:33Z</time>
      </trkpt>
      <trkpt lat="41.6159820" lon="-0.8873200">
        <ele>259.5</ele>
        <time>2020-12-31T15:18:35Z</time>
      </trkpt>
      <trkpt lat="41.6160230" lon="-0.8871810">
        <ele>259.5</ele>
        <time>2020-12-31T15:18:37Z</time>
      </trkpt>
      <trkpt lat="41.6160420" lon="-0.8871250">
        <ele>259.5</ele>
        <time>2020-12-31T15:18:38Z</time>
      </trkpt>
      <trkpt lat="41.6160730" lon="-0.8870180">
        <ele>259.5</ele>
        <time>2020-12-31T15:18:40Z</time>
      </trkpt>
      <trkpt lat="41.6160820" lon="-0.8869080">
        <ele>259.5</ele>
        <time>2020-12-31T15:18:42Z</time>
      </trkpt>
      <trkpt lat="41.6161090" lon="-0.8867970">
        <ele>259.5</ele>
        <time>2020-12-31T15:18:44Z</time>
      </trkpt>
      <trkpt lat="41.6161240" lon="-0.8867170">
        <ele>259.4</ele>
        <time>2020-12-31T15:18:45Z</time>
      </trkpt>
      <trkpt lat="41.6161400" lon="-0.8866390">
        <ele>259.4</ele>
        <time>2020-12-31T15:18:46Z</time>
      </trkpt>
      <trkpt lat="41.6161710" lon="-0.8864870">
        <ele>259.2</ele>
        <time>2020-12-31T15:18:48Z</time>
      </trkpt>
      <trkpt lat="41.6161950" lon="-0.8864050">
        <ele>259.1</ele>
        <time>2020-12-31T15:18:49Z</time>
      </trkpt>
      <trkpt lat="41.6162240" lon="-0.8862990">
        <ele>259.0</ele>
        <time>2020-12-31T15:18:50Z</time>
      </trkpt>
      <trkpt lat="41.6162720" lon="-0.8861030">
        <ele>258.8</ele>
        <time>2020-12-31T15:18:52Z</time>
      </trkpt>
      <trkpt lat="41.6163310" lon="-0.8859220">
        <ele>258.6</ele>
        <time>2020-12-31T15:18:54Z</time>
      </trkpt>
      <trkpt lat="41.6163810" lon="-0.8857350">
        <ele>258.4</ele>
        <time>2020-12-31T15:18:56Z</time>
      </trkpt>
      <trkpt lat="41.6164310" lon="-0.8855650">
        <ele>257.9</ele>
        <time>2020-12-31T15:18:58Z</time>
      </trkpt>
      <trkpt lat="41.6164650" lon="-0.8854780">
        <ele>257.7</ele>
        <time>2020-12-31T15:18:59Z</time>
      </trkpt>
      <trkpt lat="41.6165070" lon="-0.8852740">
        <ele>257.0</ele>
        <time>2020-12-31T15:19:01Z</time>
      </trkpt>
      <trkpt lat="41.6165400" lon="-0.8850690">
        <ele>256.2</ele>
        <time>2020-12-31T15:19:03Z</time>
      </trkpt>
      <trkpt lat="41.6165670" lon="-0.8849750">
        <ele>255.9</ele>
        <time>2020-12-31T15:19:04Z</time>
      </trkpt>
      <trkpt lat="41.6166460" lon="-0.8847910">
        <ele>255.2</ele>
        <time>2020-12-31T15:19:06Z</time>
      </trkpt>
      <trkpt lat="41.6166770" lon="-0.8846940">
        <ele>254.8</ele>
        <time>2020-12-31T15:19:07Z</time>
      </trkpt>
      <trkpt lat="41.6167440" lon="-0.8844920">
        <ele>253.9</ele>
        <time>2020-12-31T15:19:09Z</time>
      </trkpt>
      <trkpt lat="41.6167790" lon="-0.8842670">
        <ele>253.1</ele>
        <time>2020-12-31T15:19:11Z</time>
      </trkpt>
      <trkpt lat="41.6168410" lon="-0.8840550">
        <ele>252.4</ele>
        <time>2020-12-31T15:19:13Z</time>
      </trkpt>
      <trkpt lat="41.6168630" lon="-0.8839440">
        <ele>252.0</ele>
        <time>2020-12-31T15:19:14Z</time>
      </trkpt>
      <trkpt lat="41.6169070" lon="-0.8837340">
        <ele>251.4</ele>
        <time>2020-12-31T15:19:16Z</time>
      </trkpt>
      <trkpt lat="41.6169380" lon="-0.8836530">
        <ele>251.3</ele>
        <time>2020-12-31T15:19:17Z</time>
      </trkpt>
      <trkpt lat="41.6169720" lon="-0.8834590">
        <ele>250.8</ele>
        <time>2020-12-31T15:19:19Z</time>
      </trkpt>
      <trkpt lat="41.6169390" lon="-0.8832330">
        <ele>250.5</ele>
        <time>2020-12-31T15:19:21Z</time>
      </trkpt>
      <trkpt lat="41.6169120" lon="-0.8830140">
        <ele>250.5</ele>
        <time>2020-12-31T15:19:23Z</time>
      </trkpt>
      <trkpt lat="41.6168660" lon="-0.8828020">
        <ele>250.6</ele>
        <time>2020-12-31T15:19:25Z</time>
      </trkpt>
      <trkpt lat="41.6168370" lon="-0.8827020">
        <ele>250.7</ele>
        <time>2020-12-31T15:19:26Z</time>
      </trkpt>
      <trkpt lat="41.6167600" lon="-0.8825340">
        <ele>250.9</ele>
        <time>2020-12-31T15:19:28Z</time>
      </trkpt>
      <trkpt lat="41.6167240" lon="-0.8824580">
        <ele>251.1</ele>
        <time>2020-12-31T15:19:29Z</time>
      </trkpt>
      <trkpt lat="41.6166370" lon="-0.8823560">
        <ele>251.3</ele>
        <time>2020-12-31T15:19:31Z</time>
      </trkpt>
      <trkpt lat="41.6165640" lon="-0.8822790">
        <ele>251.4</ele>
        <time>2020-12-31T15:19:33Z</time>
      </trkpt>
      <trkpt lat="41.6165380" lon="-0.8822360">
        <ele>251.5</ele>
        <time>2020-12-31T15:19:34Z</time>
      </trkpt>
      <trkpt lat="41.6165160" lon="-0.8821810">
        <ele>251.5</ele>
        <time>2020-12-31T15:19:35Z</time>
      </trkpt>
      <trkpt lat="41.6164860" lon="-0.8820540">
        <ele>251.5</ele>
        <time>2020-12-31T15:19:37Z</time>
      </trkpt>
      <trkpt lat="41.6164600" lon="-0.8819210">
        <ele>251.6</ele>
        <time>2020-12-31T15:19:39Z</time>
      </trkpt>
      <trkpt lat="41.6164440" lon="-0.8818540">
        <ele>251.6</ele>
        <time>2020-12-31T15:19:40Z</time>
      </trkpt>
      <trkpt lat="41.6164110" lon="-0.8817240">
        <ele>251.5</ele>
        <time>2020-12-31T15:19:42Z</time>
      </trkpt>
      <trkpt lat="41.6163900" lon="-0.8816600">
        <ele>251.4</ele>
        <time>2020-12-31T15:19:43Z</time>
      </trkpt>
      <trkpt lat="41.6163450" lon="-0.8815400">
        <ele>251.3</ele>
        <time>2020-12-31T15:19:45Z</time>
      </trkpt>
      <trkpt lat="41.6162840" lon="-0.8814260">
        <ele>251.1</ele>
        <time>2020-12-31T15:19:47Z</time>
      </trkpt>
      <trkpt lat="41.6162250" lon="-0.8813140">
        <ele>250.8</ele>
        <time>2020-12-31T15:19:49Z</time>
      </trkpt>
      <trkpt lat="41.6161970" lon="-0.8812600">
        <ele>250.7</ele>
        <time>2020-12-31T15:19:50Z</time>
      </trkpt>
      <trkpt lat="41.6161710" lon="-0.8812040">
        <ele>250.6</ele>
        <time>2020-12-31T15:19:51Z</time>
      </trkpt>
      <trkpt lat="41.6161190" lon="-0.8810770">
        <ele>250.3</ele>
        <time>2020-12-31T15:19:53Z</time>
      </trkpt>
      <trkpt lat="41.6160860" lon="-0.8810070">
        <ele>250.1</ele>
        <time>2020-12-31T15:19:54Z</time>
      </trkpt>
      <trkpt lat="41.6160590" lon="-0.8808530">
        <ele>249.8</ele>
        <time>2020-12-31T15:19:56Z</time>
      </trkpt>
      <trkpt lat="41.6161070" lon="-0.8807060">
        <ele>249.5</ele>
        <time>2020-12-31T15:19:58Z</time>
      </trkpt>
      <trkpt lat="41.6161470" lon="-0.8806410">
        <ele>249.3</ele>
        <time>2020-12-31T15:19:59Z</time>
      </trkpt>
      <trkpt lat="41.6161860" lon="-0.8805710">
        <ele>249.1</ele>
        <time>2020-12-31T15:20:00Z</time>
      </trkpt>
      <trkpt lat="41.6162500" lon="-0.8804200">
        <ele>248.7</ele>
        <time>2020-12-31T15:20:02Z</time>
      </trkpt>
      <trkpt lat="41.6162800" lon="-0.8803410">
        <ele>248.5</ele>
        <time>2020-12-31T15:20:03Z</time>
      </trkpt>
      <trkpt lat="41.6163350" lon="-0.8801770">
        <ele>248.2</ele>
        <time>2020-12-31T15:20:05Z</time>
      </trkpt>
      <trkpt lat="41.6163920" lon="-0.8800220">
        <ele>247.9</ele>
        <time>2020-12-31T15:20:07Z</time>
      </trkpt>
      <trkpt lat="41.6164210" lon="-0.8799440">
        <ele>247.8</ele>
        <time>2020-12-31T15:20:08Z</time>
      </trkpt>
      <trkpt lat="41.6164830" lon="-0.8797870">
        <ele>247.5</ele>
        <time>2020-12-31T15:20:10Z</time>
      </trkpt>
      <trkpt lat="41.6165130" lon="-0.8797060">
        <ele>247.4</ele>
        <time>2020-12-31T15:20:11Z</time>
      </trkpt>
      <trkpt lat="41.6165740" lon="-0.8795440">
        <ele>247.1</ele>
        <time>2020-12-31T15:20:13Z</time>
      </trkpt>
      <trkpt lat="41.6166320" lon="-0.8793820">
        <ele>246.8</ele>
        <time>2020-12-31T15:20:15Z</time>
      </trkpt>
      <trkpt lat="41.6166930" lon="-0.8792240">
        <ele>246.5</ele>
        <time>2020-12-31T15:20:17Z</time>
      </trkpt>
      <trkpt lat="41.6167630" lon="-0.8790700">
        <ele>246.3</ele>
        <time>2020-12-31T15:20:19Z</time>
      </trkpt>
      <trkpt lat="41.6168430" lon="-0.8789240">
        <ele>246.0</ele>
        <time>2020-12-31T15:20:21Z</time>
      </trkpt>
      <trkpt lat="41.6168840" lon="-0.8788530">
        <ele>245.8</ele>
        <time>2020-12-31T15:20:22Z</time>
      </trkpt>
      <trkpt lat="41.6169210" lon="-0.8787800">
        <ele>245.6</ele>
        <time>2020-12-31T15:20:23Z</time>
      </trkpt>
      <trkpt lat="41.6169570" lon="-0.8786970">
        <ele>245.5</ele>
        <time>2020-12-31T15:20:24Z</time>
      </trkpt>
      <trkpt lat="41.6170100" lon="-0.8785100">
        <ele>245.2</ele>
        <time>2020-12-31T15:20:26Z</time>
      </trkpt>
      <trkpt lat="41.6170490" lon="-0.8783320">
        <ele>245.1</ele>
        <time>2020-12-31T15:20:28Z</time>
      </trkpt>
      <trkpt lat="41.6170860" lon="-0.8781650">
        <ele>245.0</ele>
        <time>2020-12-31T15:20:30Z</time>
      </trkpt>
      <trkpt lat="41.6171240" lon="-0.8779940">
        <ele>244.9</ele>
        <time>2020-12-31T15:20:32Z</time>
      </trkpt>
      <trkpt lat="41.6171610" lon="-0.8778280">
        <ele>244.7</ele>
        <time>2020-12-31T15:20:34Z</time>
      </trkpt>
      <trkpt lat="41.6172020" lon="-0.8776790">
        <ele>244.6</ele>
        <time>2020-12-31T15:20:36Z</time>
      </trkpt>
      <trkpt lat="41.6172360" lon="-0.8776110">
        <ele>244.5</ele>
        <time>2020-12-31T15:20:37Z</time>
      </trkpt>
      <trkpt lat="41.6173190" lon="-0.8774890">
        <ele>244.2</ele>
        <time>2020-12-31T15:20:39Z</time>
      </trkpt>
      <trkpt lat="41.6173980" lon="-0.8773540">
        <ele>243.6</ele>
        <time>2020-12-31T15:20:41Z</time>
      </trkpt>
      <trkpt lat="41.6174400" lon="-0.8772780">
        <ele>243.3</ele>
        <time>2020-12-31T15:20:42Z</time>
      </trkpt>
      <trkpt lat="41.6175280" lon="-0.8771220">
        <ele>242.7</ele>
        <time>2020-12-31T15:20:44Z</time>
      </trkpt>
      <trkpt lat="41.6176070" lon="-0.8769600">
        <ele>242.2</ele>
        <time>2020-12-31T15:20:46Z</time>
      </trkpt>
      <trkpt lat="41.6176420" lon="-0.8768870">
        <ele>242.0</ele>
        <time>2020-12-31T15:20:47Z</time>
      </trkpt>
      <trkpt lat="41.6176920" lon="-0.8767580">
        <ele>241.6</ele>
        <time>2020-12-31T15:20:49Z</time>
      </trkpt>
      <trkpt lat="41.6177100" lon="-0.8766970">
        <ele>241.4</ele>
        <time>2020-12-31T15:20:50Z</time>
      </trkpt>
      <trkpt lat="41.6176860" lon="-0.8765750">
        <ele>241.2</ele>
        <time>2020-12-31T15:20:52Z</time>
      </trkpt>
      <trkpt lat="41.6176490" lon="-0.8765260">
        <ele>241.1</ele>
        <time>2020-12-31T15:20:53Z</time>
      </trkpt>
      <trkpt lat="41.6175950" lon="-0.8764010">
        <ele>240.9</ele>
        <time>2020-12-31T15:20:55Z</time>
      </trkpt>
      <trkpt lat="41.6175870" lon="-0.8763260">
        <ele>240.7</ele>
        <time>2020-12-31T15:20:56Z</time>
      </trkpt>
      <trkpt lat="41.6176230" lon="-0.8761720">
        <ele>240.4</ele>
        <time>2020-12-31T15:20:58Z</time>
      </trkpt>
      <trkpt lat="41.6177080" lon="-0.8760360">
        <ele>239.9</ele>
        <time>2020-12-31T15:21:00Z</time>
      </trkpt>
      <trkpt lat="41.6177940" lon="-0.8759140">
        <ele>239.8</ele>
        <time>2020-12-31T15:21:02Z</time>
      </trkpt>
      <trkpt lat="41.6178200" lon="-0.8757510">
        <ele>239.8</ele>
        <time>2020-12-31T15:21:04Z</time>
      </trkpt>
      <trkpt lat="41.6178320" lon="-0.8756670">
        <ele>239.7</ele>
        <time>2020-12-31T15:21:05Z</time>
      </trkpt>
      <trkpt lat="41.6178430" lon="-0.8755830">
        <ele>239.7</ele>
        <time>2020-12-31T15:21:06Z</time>
      </trkpt>
      <trkpt lat="41.6178550" lon="-0.8754970">
        <ele>239.7</ele>
        <time>2020-12-31T15:21:07Z</time>
      </trkpt>
      <trkpt lat="41.6178770" lon="-0.8753300">
        <ele>239.7</ele>
        <time>2020-12-31T15:21:09Z</time>
      </trkpt>
      <trkpt lat="41.6178910" lon="-0.8752470">
        <ele>239.8</ele>
        <time>2020-12-31T15:21:10Z</time>
      </trkpt>
      <trkpt lat="41.6179070" lon="-0.8750830">
        <ele>239.9</ele>
        <time>2020-12-31T15:21:12Z</time>
      </trkpt>
      <trkpt lat="41.6179330" lon="-0.8749220">
        <ele>240.0</ele>
        <time>2020-12-31T15:21:14Z</time>
      </trkpt>
      <trkpt lat="41.6179530" lon="-0.8747580">
        <ele>240.1</ele>
        <time>2020-12-31T15:21:16Z</time>
      </trkpt>
      <trkpt lat="41.6179750" lon="-0.8745960">
        <ele>240.0</ele>
        <time>2020-12-31T15:21:18Z</time>
      </trkpt>
      <trkpt lat="41.6179870" lon="-0.8745150">
        <ele>240.0</ele>
        <time>2020-12-31T15:21:19Z</time>
      </trkpt>
      <trkpt lat="41.6179970" lon="-0.8744310">
        <ele>240.1</ele>
        <time>2020-12-31T15:21:20Z</time>
      </trkpt>
      <trkpt lat="41.6180090" lon="-0.8743480">
        <ele>240.1</ele>
        <time>2020-12-31T15:21:21Z</time>
      </trkpt>
      <trkpt lat="41.6180190" lon="-0.8742650">
        <ele>240.1</ele>
        <time>2020-12-31T15:21:22Z</time>
      </trkpt>
      <trkpt lat="41.6180370" lon="-0.8741070">
        <ele>240.2</ele>
        <time>2020-12-31T15:21:24Z</time>
      </trkpt>
      <trkpt lat="41.6180490" lon="-0.8740300">
        <ele>240.2</ele>
        <time>2020-12-31T15:21:25Z</time>
      </trkpt>
      <trkpt lat="41.6180740" lon="-0.8738800">
        <ele>240.3</ele>
        <time>2020-12-31T15:21:27Z</time>
      </trkpt>
      <trkpt lat="41.6180840" lon="-0.8738030">
        <ele>240.4</ele>
        <time>2020-12-31T15:21:28Z</time>
      </trkpt>
      <trkpt lat="41.6180930" lon="-0.8737250">
        <ele>240.4</ele>
        <time>2020-12-31T15:21:29Z</time>
      </trkpt>
      <trkpt lat="41.6181110" lon="-0.8735800">
        <ele>240.4</ele>
        <time>2020-12-31T15:21:31Z</time>
      </trkpt>
      <trkpt lat="41.6181270" lon="-0.8734340">
        <ele>240.5</ele>
        <time>2020-12-31T15:21:33Z</time>
      </trkpt>
      <trkpt lat="41.6181380" lon="-0.8733610">
        <ele>240.5</ele>
        <time>2020-12-31T15:21:34Z</time>
      </trkpt>
      <trkpt lat="41.6181480" lon="-0.8732870">
        <ele>240.5</ele>
        <time>2020-12-31T15:21:35Z</time>
      </trkpt>
      <trkpt lat="41.6181650" lon="-0.8731340">
        <ele>240.5</ele>
        <time>2020-12-31T15:21:37Z</time>
      </trkpt>
      <trkpt lat="41.6181690" lon="-0.8730550">
        <ele>240.6</ele>
        <time>2020-12-31T15:21:38Z</time>
      </trkpt>
      <trkpt lat="41.6181830" lon="-0.8728990">
        <ele>240.6</ele>
        <time>2020-12-31T15:21:40Z</time>
      </trkpt>
      <trkpt lat="41.6181910" lon="-0.8728190">
        <ele>240.7</ele>
        <time>2020-12-31T15:21:41Z</time>
      </trkpt>
      <trkpt lat="41.6181980" lon="-0.8727420">
        <ele>240.7</ele>
        <time>2020-12-31T15:21:42Z</time>
      </trkpt>
      <trkpt lat="41.6182070" lon="-0.8726680">
        <ele>240.7</ele>
        <time>2020-12-31T15:21:43Z</time>
      </trkpt>
      <trkpt lat="41.6182120" lon="-0.8725940">
        <ele>240.8</ele>
        <time>2020-12-31T15:21:44Z</time>
      </trkpt>
      <trkpt lat="41.6181950" lon="-0.8724470">
        <ele>240.8</ele>
        <time>2020-12-31T15:21:46Z</time>
      </trkpt>
      <trkpt lat="41.6181370" lon="-0.8723300">
        <ele>240.8</ele>
        <time>2020-12-31T15:21:48Z</time>
      </trkpt>
      <trkpt lat="41.6181170" lon="-0.8722650">
        <ele>240.9</ele>
        <time>2020-12-31T15:21:49Z</time>
      </trkpt>
      <trkpt lat="41.6181130" lon="-0.8721320">
        <ele>240.9</ele>
        <time>2020-12-31T15:21:51Z</time>
      </trkpt>
      <trkpt lat="41.6181360" lon="-0.8720080">
        <ele>240.9</ele>
        <time>2020-12-31T15:21:53Z</time>
      </trkpt>
      <trkpt lat="41.6181520" lon="-0.8719490">
        <ele>240.9</ele>
        <time>2020-12-31T15:21:54Z</time>
      </trkpt>
      <trkpt lat="41.6181660" lon="-0.8718470">
        <ele>240.9</ele>
        <time>2020-12-31T15:21:56Z</time>
      </trkpt>
      <trkpt lat="41.6181760" lon="-0.8717830">
        <ele>240.8</ele>
        <time>2020-12-31T15:21:57Z</time>
      </trkpt>
      <trkpt lat="41.6181840" lon="-0.8717060">
        <ele>240.9</ele>
        <time>2020-12-31T15:21:59Z</time>
      </trkpt>
      <trkpt lat="41.6181670" lon="-0.8716690">
        <ele>241.0</ele>
        <time>2020-12-31T15:22:00Z</time>
      </trkpt>
      <trkpt lat="41.6181110" lon="-0.8715520">
        <ele>241.0</ele>
        <time>2020-12-31T15:22:02Z</time>
      </trkpt>
      <trkpt lat="41.6180830" lon="-0.8714990">
        <ele>241.1</ele>
        <time>2020-12-31T15:22:03Z</time>
      </trkpt>
      <trkpt lat="41.6180670" lon="-0.8714740">
        <ele>241.1</ele>
        <time>2020-12-31T15:22:04Z</time>
      </trkpt>
      <trkpt lat="41.6180050" lon="-0.8713740">
        <ele>241.1</ele>
        <time>2020-12-31T15:22:06Z</time>
      </trkpt>
      <trkpt lat="41.6179530" lon="-0.8712540">
        <ele>241.2</ele>
        <time>2020-12-31T15:22:08Z</time>
      </trkpt>
      <trkpt lat="41.6178900" lon="-0.8711390">
        <ele>241.2</ele>
        <time>2020-12-31T15:22:10Z</time>
      </trkpt>
      <trkpt lat="41.6178320" lon="-0.8710200">
        <ele>241.3</ele>
        <time>2020-12-31T15:22:12Z</time>
      </trkpt>
      <trkpt lat="41.6177710" lon="-0.8709010">
        <ele>241.3</ele>
        <time>2020-12-31T15:22:14Z</time>
      </trkpt>
      <trkpt lat="41.6177410" lon="-0.8708390">
        <ele>241.3</ele>
        <time>2020-12-31T15:22:15Z</time>
      </trkpt>
      <trkpt lat="41.6177100" lon="-0.8707780">
        <ele>241.3</ele>
        <time>2020-12-31T15:22:16Z</time>
      </trkpt>
      <trkpt lat="41.6176500" lon="-0.8706600">
        <ele>241.3</ele>
        <time>2020-12-31T15:22:18Z</time>
      </trkpt>
      <trkpt lat="41.6175890" lon="-0.8705370">
        <ele>241.4</ele>
        <time>2020-12-31T15:22:20Z</time>
      </trkpt>
      <trkpt lat="41.6175240" lon="-0.8704220">
        <ele>241.4</ele>
        <time>2020-12-31T15:22:22Z</time>
      </trkpt>
      <trkpt lat="41.6174660" lon="-0.8703010">
        <ele>241.5</ele>
        <time>2020-12-31T15:22:24Z</time>
      </trkpt>
      <trkpt lat="41.6174400" lon="-0.8702410">
        <ele>241.6</ele>
        <time>2020-12-31T15:22:25Z</time>
      </trkpt>
      <trkpt lat="41.6173830" lon="-0.8701280">
        <ele>241.7</ele>
        <time>2020-12-31T15:22:27Z</time>
      </trkpt>
      <trkpt lat="41.6173300" lon="-0.8700090">
        <ele>241.7</ele>
        <time>2020-12-31T15:22:29Z</time>
      </trkpt>
      <trkpt lat="41.6172700" lon="-0.8698980">
        <ele>241.8</ele>
        <time>2020-12-31T15:22:31Z</time>
      </trkpt>
      <trkpt lat="41.6172410" lon="-0.8698450">
        <ele>241.8</ele>
        <time>2020-12-31T15:22:32Z</time>
      </trkpt>
      <trkpt lat="41.6171800" lon="-0.8697420">
        <ele>241.8</ele>
        <time>2020-12-31T15:22:34Z</time>
      </trkpt>
      <trkpt lat="41.6171490" lon="-0.8696880">
        <ele>241.8</ele>
        <time>2020-12-31T15:22:35Z</time>
      </trkpt>
      <trkpt lat="41.6170870" lon="-0.8695840">
        <ele>241.9</ele>
        <time>2020-12-31T15:22:37Z</time>
      </trkpt>
      <trkpt lat="41.6170290" lon="-0.8694870">
        <ele>241.9</ele>
        <time>2020-12-31T15:22:39Z</time>
      </trkpt>
      <trkpt lat="41.6169740" lon="-0.8693910">
        <ele>242.0</ele>
        <time>2020-12-31T15:22:41Z</time>
      </trkpt>
      <trkpt lat="41.6169450" lon="-0.8693450">
        <ele>242.0</ele>
        <time>2020-12-31T15:22:42Z</time>
      </trkpt>
      <trkpt lat="41.6168930" lon="-0.8692740">
        <ele>242.0</ele>
        <time>2020-12-31T15:22:44Z</time>
      </trkpt>
      <trkpt lat="41.6168180" lon="-0.8692400">
        <ele>242.1</ele>
        <time>2020-12-31T15:22:46Z</time>
      </trkpt>
      <trkpt lat="41.6167560" lon="-0.8692400">
        <ele>242.2</ele>
        <time>2020-12-31T15:22:48Z</time>
      </trkpt>
      <trkpt lat="41.6166970" lon="-0.8692970">
        <ele>242.2</ele>
        <time>2020-12-31T15:22:49Z</time>
      </trkpt>
      <trkpt lat="41.6166730" lon="-0.8693580">
        <ele>242.3</ele>
        <time>2020-12-31T15:22:50Z</time>
      </trkpt>
      <trkpt lat="41.6166420" lon="-0.8694860">
        <ele>242.5</ele>
        <time>2020-12-31T15:22:52Z</time>
      </trkpt>
      <trkpt lat="41.6166240" lon="-0.8695440">
        <ele>242.5</ele>
        <time>2020-12-31T15:22:53Z</time>
      </trkpt>
      <trkpt lat="41.6166300" lon="-0.8695710">
        <ele>242.5</ele>
        <time>2020-12-31T15:22:54Z</time>
      </trkpt>
      <trkpt lat="41.6166080" lon="-0.8696150">
        <ele>242.6</ele>
        <time>2020-12-31T15:22:56Z</time>
      </trkpt>
      <trkpt lat="41.6165520" lon="-0.8696600">
        <ele>242.7</ele>
        <time>2020-12-31T15:22:57Z</time>
      </trkpt>
      <trkpt lat="41.6164840" lon="-0.8697200">
        <ele>242.8</ele>
        <time>2020-12-31T15:22:58Z</time>
      </trkpt>
      <trkpt lat="41.6164350" lon="-0.8697540">
        <ele>242.9</ele>
        <time>2020-12-31T15:22:59Z</time>
      </trkpt>
      <trkpt lat="41.6163780" lon="-0.8697990">
        <ele>243.0</ele>
        <time>2020-12-31T15:23:01Z</time>
      </trkpt>
      <trkpt lat="41.6163220" lon="-0.8698530">
        <ele>243.1</ele>
        <time>2020-12-31T15:23:02Z</time>
      </trkpt>
      <trkpt lat="41.6162810" lon="-0.8698950">
        <ele>243.2</ele>
        <time>2020-12-31T15:23:04Z</time>
      </trkpt>
      <trkpt lat="41.6162310" lon="-0.8699330">
        <ele>243.3</ele>
        <time>2020-12-31T15:23:05Z</time>
      </trkpt>
      <trkpt lat="41.6161650" lon="-0.8699980">
        <ele>243.5</ele>
        <time>2020-12-31T15:23:07Z</time>
      </trkpt>
      <trkpt lat="41.6161340" lon="-0.8700490">
        <ele>243.6</ele>
        <time>2020-12-31T15:23:08Z</time>
      </trkpt>
      <trkpt lat="41.6161120" lon="-0.8700940">
        <ele>243.6</ele>
        <time>2020-12-31T15:23:09Z</time>
      </trkpt>
      <trkpt lat="41.6160500" lon="-0.8701370">
        <ele>243.7</ele>
        <time>2020-12-31T15:23:11Z</time>
      </trkpt>
      <trkpt lat="41.6159940" lon="-0.8701530">
        <ele>243.9</ele>
        <time>2020-12-31T15:23:12Z</time>
      </trkpt>
      <trkpt lat="41.6159500" lon="-0.8701730">
        <ele>243.9</ele>
        <time>2020-12-31T15:23:13Z</time>
      </trkpt>
      <trkpt lat="41.6158900" lon="-0.8702150">
        <ele>244.1</ele>
        <time>2020-12-31T15:23:15Z</time>
      </trkpt>
      <trkpt lat="41.6158580" lon="-0.8702300">
        <ele>244.1</ele>
        <time>2020-12-31T15:23:16Z</time>
      </trkpt>
      <trkpt lat="41.6158640" lon="-0.8702340">
        <ele>244.1</ele>
        <time>2020-12-31T15:23:18Z</time>
      </trkpt>
      <trkpt lat="41.6158840" lon="-0.8702230">
        <ele>244.2</ele>
        <time>2020-12-31T15:23:19Z</time>
      </trkpt>
      <trkpt lat="41.6159040" lon="-0.8702110">
        <ele>244.2</ele>
        <time>2020-12-31T15:23:20Z</time>
      </trkpt>
      <trkpt lat="41.6159060" lon="-0.8702090">
        <ele>244.2</ele>
        <time>2020-12-31T15:23:21Z</time>
      </trkpt>
      <trkpt lat="41.6159100" lon="-0.8702060">
        <ele>244.3</ele>
        <time>2020-12-31T15:23:23Z</time>
      </trkpt>
      <trkpt lat="41.6159150" lon="-0.8702090">
        <ele>244.3</ele>
        <time>2020-12-31T15:23:25Z</time>
      </trkpt>
      <trkpt lat="41.6159160" lon="-0.8702110">
        <ele>244.3</ele>
        <time>2020-12-31T15:23:27Z</time>
      </trkpt>
      <trkpt lat="41.6159150" lon="-0.8702200">
        <ele>244.5</ele>
        <time>2020-12-31T13:12:39Z</time>
      </trkpt>
      <trkpt lat="41.6159160" lon="-0.8702170">
        <ele>244.5</ele>
        <time>2020-12-31T13:12:41Z</time>
      </trkpt>
      <trkpt lat="41.6159130" lon="-0.8702270">
        <ele>244.5</ele>
        <time>2020-12-31T13:12:43Z</time>
      </trkpt>
      <trkpt lat="41.6159210" lon="-0.8702000">
        <ele>244.4</ele>
        <time>2020-12-31T13:12:45Z</time>
      </trkpt>
      <trkpt lat="41.6159190" lon="-0.8701970">
        <ele>244.4</ele>
        <time>2020-12-31T13:12:46Z</time>
      </trkpt>
      <trkpt lat="41.6159160" lon="-0.8702090">
        <ele>244.4</ele>
        <time>2020-12-31T13:12:48Z</time>
      </trkpt>
      <trkpt lat="41.6159150" lon="-0.8702190">
        <ele>244.4</ele>
        <time>2020-12-31T13:12:50Z</time>
      </trkpt>
      <trkpt lat="41.6159080" lon="-0.8702200">
        <ele>244.4</ele>
        <time>2020-12-31T13:12:52Z</time>
      </trkpt>
      <trkpt lat="41.6159040" lon="-0.8702210">
        <ele>244.4</ele>
        <time>2020-12-31T13:12:53Z</time>
      </trkpt>
      <trkpt lat="41.6159020" lon="-0.8702210">
        <ele>244.4</ele>
        <time>2020-12-31T13:12:55Z</time>
      </trkpt>
      <trkpt lat="41.6159010" lon="-0.8702230">
        <ele>244.4</ele>
        <time>2020-12-31T13:12:56Z</time>
      </trkpt>
      <trkpt lat="41.6159100" lon="-0.8701980">
        <ele>244.4</ele>
        <time>2020-12-31T13:13:10Z</time>
      </trkpt>
      <trkpt lat="41.6159360" lon="-0.8701830">
        <ele>244.3</ele>
        <time>2020-12-31T13:13:11Z</time>
      </trkpt>
      <trkpt lat="41.6159660" lon="-0.8701440">
        <ele>244.3</ele>
        <time>2020-12-31T13:13:13Z</time>
      </trkpt>
      <trkpt lat="41.6159670" lon="-0.8700970">
        <ele>244.2</ele>
        <time>2020-12-31T13:13:14Z</time>
      </trkpt>
      <trkpt lat="41.6159630" lon="-0.8700640">
        <ele>244.2</ele>
        <time>2020-12-31T13:13:15Z</time>
      </trkpt>
      <trkpt lat="41.6159450" lon="-0.8700110">
        <ele>244.1</ele>
        <time>2020-12-31T13:13:17Z</time>
      </trkpt>
      <trkpt lat="41.6159570" lon="-0.8699770">
        <ele>244.1</ele>
        <time>2020-12-31T13:13:18Z</time>
      </trkpt>
      <trkpt lat="41.6159980" lon="-0.8699250">
        <ele>244.0</ele>
        <time>2020-12-31T13:13:20Z</time>
      </trkpt>
      <trkpt lat="41.6160460" lon="-0.8698880">
        <ele>243.9</ele>
        <time>2020-12-31T13:13:22Z</time>
      </trkpt>
      <trkpt lat="41.6160890" lon="-0.8698490">
        <ele>243.8</ele>
        <time>2020-12-31T13:13:24Z</time>
      </trkpt>
      <trkpt lat="41.6161160" lon="-0.8698410">
        <ele>243.7</ele>
        <time>2020-12-31T13:13:25Z</time>
      </trkpt>
      <trkpt lat="41.6161510" lon="-0.8698470">
        <ele>243.6</ele>
        <time>2020-12-31T13:13:26Z</time>
      </trkpt>
      <trkpt lat="41.6162260" lon="-0.8698010">
        <ele>243.4</ele>
        <time>2020-12-31T13:13:28Z</time>
      </trkpt>
      <trkpt lat="41.6162640" lon="-0.8697520">
        <ele>243.3</ele>
        <time>2020-12-31T13:13:29Z</time>
      </trkpt>
      <trkpt lat="41.6163060" lon="-0.8697090">
        <ele>243.2</ele>
        <time>2020-12-31T13:13:30Z</time>
      </trkpt>
      <trkpt lat="41.6163950" lon="-0.8696200">
        <ele>242.9</ele>
        <time>2020-12-31T13:13:32Z</time>
      </trkpt>
      <trkpt lat="41.6164850" lon="-0.8695290">
        <ele>242.6</ele>
        <time>2020-12-31T13:13:34Z</time>
      </trkpt>
      <trkpt lat="41.6165320" lon="-0.8694910">
        <ele>242.5</ele>
        <time>2020-12-31T13:13:35Z</time>
      </trkpt>
      <trkpt lat="41.6166180" lon="-0.8693990">
        <ele>242.2</ele>
        <time>2020-12-31T13:13:37Z</time>
      </trkpt>
      <trkpt lat="41.6166600" lon="-0.8693480">
        <ele>242.1</ele>
        <time>2020-12-31T13:13:38Z</time>
      </trkpt>
      <trkpt lat="41.6167010" lon="-0.8692940">
        <ele>242.0</ele>
        <time>2020-12-31T13:13:39Z</time>
      </trkpt>
      <trkpt lat="41.6167940" lon="-0.8692240">
        <ele>241.8</ele>
        <time>2020-12-31T13:13:41Z</time>
      </trkpt>
      <trkpt lat="41.6168760" lon="-0.8691680">
        <ele>241.4</ele>
        <time>2020-12-31T13:13:43Z</time>
      </trkpt>
      <trkpt lat="41.6169270" lon="-0.8691400">
        <ele>241.0</ele>
        <time>2020-12-31T13:13:45Z</time>
      </trkpt>
      <trkpt lat="41.6169440" lon="-0.8691350">
        <ele>240.7</ele>
        <time>2020-12-31T13:13:47Z</time>
      </trkpt>
      <trkpt lat="41.6169490" lon="-0.8691290">
        <ele>240.4</ele>
        <time>2020-12-31T13:13:48Z</time>
      </trkpt>
      <trkpt lat="41.6169510" lon="-0.8691220">
        <ele>240.1</ele>
        <time>2020-12-31T13:13:50Z</time>
      </trkpt>
      <trkpt lat="41.6169500" lon="-0.8691220">
        <ele>239.9</ele>
        <time>2020-12-31T13:13:51Z</time>
      </trkpt>
      <trkpt lat="41.6169490" lon="-0.8691250">
        <ele>239.6</ele>
        <time>2020-12-31T13:13:52Z</time>
      </trkpt>
      <trkpt lat="41.6169480" lon="-0.8691260">
        <ele>239.3</ele>
        <time>2020-12-31T13:13:54Z</time>
      </trkpt>
      <trkpt lat="41.6169480" lon="-0.8691260">
        <ele>239.0</ele>
        <time>2020-12-31T13:13:55Z</time>
      </trkpt>
      <trkpt lat="41.6169470" lon="-0.8691270">
        <ele>238.7</ele>
        <time>2020-12-31T13:13:56Z</time>
      </trkpt>
      <trkpt lat="41.6169390" lon="-0.8691290">
        <ele>238.4</ele>
        <time>2020-12-31T13:13:58Z</time>
      </trkpt>
      <trkpt lat="41.6169440" lon="-0.8691020">
        <ele>238.1</ele>
        <time>2020-12-31T13:13:59Z</time>
      </trkpt>
      <trkpt lat="41.6169820" lon="-0.8690280">
        <ele>237.7</ele>
        <time>2020-12-31T13:14:01Z</time>
      </trkpt>
      <trkpt lat="41.6170290" lon="-0.8689580">
        <ele>237.4</ele>
        <time>2020-12-31T13:14:02Z</time>
      </trkpt>
      <trkpt lat="41.6170570" lon="-0.8688890">
        <ele>237.0</ele>
        <time>2020-12-31T13:14:04Z</time>
      </trkpt>
      <trkpt lat="41.6171030" lon="-0.8688090">
        <ele>236.7</ele>
        <time>2020-12-31T13:14:05Z</time>
      </trkpt>
      <trkpt lat="41.6171430" lon="-0.8687780">
        <ele>236.5</ele>
        <time>2020-12-31T13:14:06Z</time>
      </trkpt>
      <trkpt lat="41.6171940" lon="-0.8687080">
        <ele>236.2</ele>
        <time>2020-12-31T13:14:08Z</time>
      </trkpt>
      <trkpt lat="41.6172330" lon="-0.8686810">
        <ele>235.8</ele>
        <time>2020-12-31T13:14:09Z</time>
      </trkpt>
      <trkpt lat="41.6172700" lon="-0.8686880">
        <ele>235.8</ele>
        <time>2020-12-31T13:14:10Z</time>
      </trkpt>
      <trkpt lat="41.6172820" lon="-0.8686210">
        <ele>235.8</ele>
        <time>2020-12-31T13:14:12Z</time>
      </trkpt>
      <trkpt lat="41.6172640" lon="-0.8685750">
        <ele>235.8</ele>
        <time>2020-12-31T13:14:13Z</time>
      </trkpt>
      <trkpt lat="41.6172380" lon="-0.8684860">
        <ele>235.9</ele>
        <time>2020-12-31T13:14:15Z</time>
      </trkpt>
      <trkpt lat="41.6172290" lon="-0.8683960">
        <ele>235.9</ele>
        <time>2020-12-31T13:14:17Z</time>
      </trkpt>
      <trkpt lat="41.6172030" lon="-0.8682980">
        <ele>235.9</ele>
        <time>2020-12-31T13:14:18Z</time>
      </trkpt>
      <trkpt lat="41.6171880" lon="-0.8682400">
        <ele>235.9</ele>
        <time>2020-12-31T13:14:19Z</time>
      </trkpt>
      <trkpt lat="41.6171880" lon="-0.8681070">
        <ele>235.9</ele>
        <time>2020-12-31T13:14:21Z</time>
      </trkpt>
      <trkpt lat="41.6171800" lon="-0.8679590">
        <ele>235.8</ele>
        <time>2020-12-31T13:14:23Z</time>
      </trkpt>
      <trkpt lat="41.6171720" lon="-0.8678980">
        <ele>235.8</ele>
        <time>2020-12-31T13:14:24Z</time>
      </trkpt>
      <trkpt lat="41.6171340" lon="-0.8677650">
        <ele>235.7</ele>
        <time>2020-12-31T13:14:26Z</time>
      </trkpt>
      <trkpt lat="41.6171170" lon="-0.8676750">
        <ele>235.6</ele>
        <time>2020-12-31T13:14:27Z</time>
      </trkpt>
      <trkpt lat="41.6171020" lon="-0.8675860">
        <ele>235.5</ele>
        <time>2020-12-31T13:14:28Z</time>
      </trkpt>
      <trkpt lat="41.6170890" lon="-0.8675000">
        <ele>235.5</ele>
        <time>2020-12-31T13:14:29Z</time>
      </trkpt>
      <trkpt lat="41.6170670" lon="-0.8673410">
        <ele>235.3</ele>
        <time>2020-12-31T13:14:31Z</time>
      </trkpt>
      <trkpt lat="41.6170320" lon="-0.8672150">
        <ele>235.2</ele>
        <time>2020-12-31T13:14:33Z</time>
      </trkpt>
      <trkpt lat="41.6170140" lon="-0.8671440">
        <ele>235.1</ele>
        <time>2020-12-31T13:14:34Z</time>
      </trkpt>
      <trkpt lat="41.6169940" lon="-0.8670710">
        <ele>235.0</ele>
        <time>2020-12-31T13:14:35Z</time>
      </trkpt>
      <trkpt lat="41.6169540" lon="-0.8669190">
        <ele>234.9</ele>
        <time>2020-12-31T13:14:37Z</time>
      </trkpt>
      <trkpt lat="41.6169130" lon="-0.8667420">
        <ele>234.7</ele>
        <time>2020-12-31T13:14:39Z</time>
      </trkpt>
      <trkpt lat="41.6168850" lon="-0.8666640">
        <ele>234.7</ele>
        <time>2020-12-31T13:14:40Z</time>
      </trkpt>
      <trkpt lat="41.6168620" lon="-0.8664970">
        <ele>234.7</ele>
        <time>2020-12-31T13:14:42Z</time>
      </trkpt>
      <trkpt lat="41.6168500" lon="-0.8663320">
        <ele>234.7</ele>
        <time>2020-12-31T13:14:44Z</time>
      </trkpt>
      <trkpt lat="41.6168350" lon="-0.8661750">
        <ele>234.9</ele>
        <time>2020-12-31T13:14:46Z</time>
      </trkpt>
      <trkpt lat="41.6168330" lon="-0.8660990">
        <ele>235.0</ele>
        <time>2020-12-31T13:14:47Z</time>
      </trkpt>
      <trkpt lat="41.6168350" lon="-0.8659610">
        <ele>235.3</ele>
        <time>2020-12-31T13:14:49Z</time>
      </trkpt>
      <trkpt lat="41.6168350" lon="-0.8658960">
        <ele>235.3</ele>
        <time>2020-12-31T13:14:50Z</time>
      </trkpt>
      <trkpt lat="41.6168320" lon="-0.8658310">
        <ele>235.4</ele>
        <time>2020-12-31T13:14:51Z</time>
      </trkpt>
      <trkpt lat="41.6168200" lon="-0.8657020">
        <ele>235.5</ele>
        <time>2020-12-31T13:14:53Z</time>
      </trkpt>
      <trkpt lat="41.6168140" lon="-0.8656360">
        <ele>235.6</ele>
        <time>2020-12-31T13:14:54Z</time>
      </trkpt>
      <trkpt lat="41.6168030" lon="-0.8654870">
        <ele>235.6</ele>
        <time>2020-12-31T13:14:56Z</time>
      </trkpt>
      <trkpt lat="41.6167860" lon="-0.8653410">
        <ele>235.5</ele>
        <time>2020-12-31T13:14:58Z</time>
      </trkpt>
      <trkpt lat="41.6167780" lon="-0.8651950">
        <ele>235.5</ele>
        <time>2020-12-31T13:15:00Z</time>
      </trkpt>
      <trkpt lat="41.6167740" lon="-0.8651220">
        <ele>235.4</ele>
        <time>2020-12-31T13:15:01Z</time>
      </trkpt>
      <trkpt lat="41.6167760" lon="-0.8650500">
        <ele>235.4</ele>
        <time>2020-12-31T13:15:02Z</time>
      </trkpt>
      <trkpt lat="41.6167800" lon="-0.8649010">
        <ele>235.4</ele>
        <time>2020-12-31T13:15:04Z</time>
      </trkpt>
      <trkpt lat="41.6167780" lon="-0.8648250">
        <ele>235.3</ele>
        <time>2020-12-31T13:15:05Z</time>
      </trkpt>
      <trkpt lat="41.6167600" lon="-0.8646770">
        <ele>235.3</ele>
        <time>2020-12-31T13:15:07Z</time>
      </trkpt>
      <trkpt lat="41.6167450" lon="-0.8646050">
        <ele>235.3</ele>
        <time>2020-12-31T13:15:08Z</time>
      </trkpt>
      <trkpt lat="41.6167120" lon="-0.8644630">
        <ele>235.3</ele>
        <time>2020-12-31T13:15:10Z</time>
      </trkpt>
      <trkpt lat="41.6166620" lon="-0.8643260">
        <ele>235.3</ele>
        <time>2020-12-31T13:15:12Z</time>
      </trkpt>
      <trkpt lat="41.6166500" lon="-0.8641940">
        <ele>235.3</ele>
        <time>2020-12-31T13:15:14Z</time>
      </trkpt>
      <trkpt lat="41.6166850" lon="-0.8641040">
        <ele>235.3</ele>
        <time>2020-12-31T13:15:16Z</time>
      </trkpt>
      <trkpt lat="41.6166820" lon="-0.8640340">
        <ele>235.3</ele>
        <time>2020-12-31T13:15:17Z</time>
      </trkpt>
      <trkpt lat="41.6166690" lon="-0.8639000">
        <ele>235.2</ele>
        <time>2020-12-31T13:15:19Z</time>
      </trkpt>
      <trkpt lat="41.6166500" lon="-0.8637630">
        <ele>235.1</ele>
        <time>2020-12-31T13:15:21Z</time>
      </trkpt>
      <trkpt lat="41.6166400" lon="-0.8636960">
        <ele>235.1</ele>
        <time>2020-12-31T13:15:22Z</time>
      </trkpt>
      <trkpt lat="41.6166310" lon="-0.8636290">
        <ele>235.1</ele>
        <time>2020-12-31T13:15:23Z</time>
      </trkpt>
      <trkpt lat="41.6166200" lon="-0.8634910">
        <ele>235.1</ele>
        <time>2020-12-31T13:15:25Z</time>
      </trkpt>
      <trkpt lat="41.6166210" lon="-0.8634160">
        <ele>235.1</ele>
        <time>2020-12-31T13:15:26Z</time>
      </trkpt>
      <trkpt lat="41.6166220" lon="-0.8632640">
        <ele>235.1</ele>
        <time>2020-12-31T13:15:28Z</time>
      </trkpt>
      <trkpt lat="41.6166220" lon="-0.8631880">
        <ele>235.1</ele>
        <time>2020-12-31T13:15:29Z</time>
      </trkpt>
      <trkpt lat="41.6166230" lon="-0.8630400">
        <ele>235.1</ele>
        <time>2020-12-31T13:15:31Z</time>
      </trkpt>
      <trkpt lat="41.6166190" lon="-0.8629680">
        <ele>235.1</ele>
        <time>2020-12-31T13:15:32Z</time>
      </trkpt>
      <trkpt lat="41.6166010" lon="-0.8628280">
        <ele>235.2</ele>
        <time>2020-12-31T13:15:34Z</time>
      </trkpt>
      <trkpt lat="41.6166050" lon="-0.8627540">
        <ele>235.2</ele>
        <time>2020-12-31T13:15:35Z</time>
      </trkpt>
      <trkpt lat="41.6165960" lon="-0.8626050">
        <ele>235.3</ele>
        <time>2020-12-31T13:15:37Z</time>
      </trkpt>
      <trkpt lat="41.6165840" lon="-0.8625340">
        <ele>235.4</ele>
        <time>2020-12-31T13:15:38Z</time>
      </trkpt>
      <trkpt lat="41.6165310" lon="-0.8624080">
        <ele>235.4</ele>
        <time>2020-12-31T13:15:40Z</time>
      </trkpt>
      <trkpt lat="41.6164640" lon="-0.8622880">
        <ele>235.4</ele>
        <time>2020-12-31T13:15:42Z</time>
      </trkpt>
      <trkpt lat="41.6164290" lon="-0.8622380">
        <ele>235.4</ele>
        <time>2020-12-31T13:15:43Z</time>
      </trkpt>
      <trkpt lat="41.6163580" lon="-0.8621450">
        <ele>235.4</ele>
        <time>2020-12-31T13:15:45Z</time>
      </trkpt>
      <trkpt lat="41.6163130" lon="-0.8621070">
        <ele>235.4</ele>
        <time>2020-12-31T13:15:46Z</time>
      </trkpt>
      <trkpt lat="41.6162230" lon="-0.8620470">
        <ele>235.4</ele>
        <time>2020-12-31T13:15:48Z</time>
      </trkpt>
      <trkpt lat="41.6161680" lon="-0.8620240">
        <ele>235.4</ele>
        <time>2020-12-31T13:15:49Z</time>
      </trkpt>
      <trkpt lat="41.6160660" lon="-0.8619830">
        <ele>235.3</ele>
        <time>2020-12-31T13:15:51Z</time>
      </trkpt>
      <trkpt lat="41.6159850" lon="-0.8619510">
        <ele>235.3</ele>
        <time>2020-12-31T13:15:53Z</time>
      </trkpt>
      <trkpt lat="41.6158890" lon="-0.8619140">
        <ele>235.3</ele>
        <time>2020-12-31T13:15:55Z</time>
      </trkpt>
      <trkpt lat="41.6158070" lon="-0.8618760">
        <ele>235.3</ele>
        <time>2020-12-31T13:15:57Z</time>
      </trkpt>
      <trkpt lat="41.6157260" lon="-0.8618470">
        <ele>235.4</ele>
        <time>2020-12-31T13:15:59Z</time>
      </trkpt>
      <trkpt lat="41.6156910" lon="-0.8618300">
        <ele>235.4</ele>
        <time>2020-12-31T13:16:01Z</time>
      </trkpt>
      <trkpt lat="41.6156850" lon="-0.8618220">
        <ele>235.4</ele>
        <time>2020-12-31T13:16:03Z</time>
      </trkpt>
      <trkpt lat="41.6156980" lon="-0.8618090">
        <ele>235.4</ele>
        <time>2020-12-31T13:16:04Z</time>
      </trkpt>
      <trkpt lat="41.6157140" lon="-0.8617430">
        <ele>235.3</ele>
        <time>2020-12-31T13:16:06Z</time>
      </trkpt>
      <trkpt lat="41.6157180" lon="-0.8616900">
        <ele>235.3</ele>
        <time>2020-12-31T13:16:07Z</time>
      </trkpt>
      <trkpt lat="41.6157250" lon="-0.8616350">
        <ele>235.3</ele>
        <time>2020-12-31T13:16:09Z</time>
      </trkpt>
      <trkpt lat="41.6157260" lon="-0.8616130">
        <ele>235.3</ele>
        <time>2020-12-31T13:16:10Z</time>
      </trkpt>
      <trkpt lat="41.6157330" lon="-0.8616080">
        <ele>235.3</ele>
        <time>2020-12-31T13:16:11Z</time>
      </trkpt>
      <trkpt lat="41.6157660" lon="-0.8616300">
        <ele>235.2</ele>
        <time>2020-12-31T13:16:13Z</time>
      </trkpt>
      <trkpt lat="41.6158070" lon="-0.8616480">
        <ele>235.2</ele>
        <time>2020-12-31T13:16:14Z</time>
      </trkpt>
      <trkpt lat="41.6158470" lon="-0.8616650">
        <ele>234.7</ele>
        <time>2020-12-31T13:16:15Z</time>
      </trkpt>
      <trkpt lat="41.6158790" lon="-0.8616910">
        <ele>234.6</ele>
        <time>2020-12-31T13:16:16Z</time>
      </trkpt>
      <trkpt lat="41.6159210" lon="-0.8617080">
        <ele>234.5</ele>
        <time>2020-12-31T13:16:17Z</time>
      </trkpt>
      <trkpt lat="41.6159420" lon="-0.8616790">
        <ele>234.5</ele>
        <time>2020-12-31T13:16:19Z</time>
      </trkpt>
      <trkpt lat="41.6159260" lon="-0.8616470">
        <ele>234.5</ele>
        <time>2020-12-31T13:16:20Z</time>
      </trkpt>
      <trkpt lat="41.6159000" lon="-0.8616180">
        <ele>234.5</ele>
        <time>2020-12-31T13:16:21Z</time>
      </trkpt>
      <trkpt lat="41.6158320" lon="-0.8615930">
        <ele>234.4</ele>
        <time>2020-12-31T13:16:23Z</time>
      </trkpt>
      <trkpt lat="41.6157780" lon="-0.8615560">
        <ele>234.4</ele>
        <time>2020-12-31T13:16:25Z</time>
      </trkpt>
      <trkpt lat="41.6157470" lon="-0.8614880">
        <ele>234.4</ele>
        <time>2020-12-31T13:16:27Z</time>
      </trkpt>
      <trkpt lat="41.6157280" lon="-0.8614430">
        <ele>234.4</ele>
        <time>2020-12-31T13:16:28Z</time>
      </trkpt>
      <trkpt lat="41.6157250" lon="-0.8613970">
        <ele>234.4</ele>
        <time>2020-12-31T13:16:29Z</time>
      </trkpt>
      <trkpt lat="41.6157540" lon="-0.8613680">
        <ele>234.4</ele>
        <time>2020-12-31T13:16:31Z</time>
      </trkpt>
      <trkpt lat="41.6157660" lon="-0.8613640">
        <ele>234.4</ele>
        <time>2020-12-31T13:16:32Z</time>
      </trkpt>
      <trkpt lat="41.6157800" lon="-0.8613530">
        <ele>234.4</ele>
        <time>2020-12-31T13:16:33Z</time>
      </trkpt>
      <trkpt lat="41.6157880" lon="-0.8613380">
        <ele>234.4</ele>
        <time>2020-12-31T13:16:34Z</time>
      </trkpt>
      <trkpt lat="41.6157970" lon="-0.8613140">
        <ele>234.4</ele>
        <time>2020-12-31T13:16:35Z</time>
      </trkpt>
      <trkpt lat="41.6158210" lon="-0.8612520">
        <ele>234.4</ele>
        <time>2020-12-31T13:16:37Z</time>
      </trkpt>
      <trkpt lat="41.6158350" lon="-0.8612050">
        <ele>234.4</ele>
        <time>2020-12-31T13:16:38Z</time>
      </trkpt>
      <trkpt lat="41.6158400" lon="-0.8611850">
        <ele>234.4</ele>
        <time>2020-12-31T13:16:39Z</time>
      </trkpt>
      <trkpt lat="41.6158480" lon="-0.8611290">
        <ele>234.4</ele>
        <time>2020-12-31T13:16:41Z</time>
      </trkpt>
      <trkpt lat="41.6158550" lon="-0.8610930">
        <ele>234.4</ele>
        <time>2020-12-31T13:16:42Z</time>
      </trkpt>
      <trkpt lat="41.6158780" lon="-0.8610670">
        <ele>234.4</ele>
        <time>2020-12-31T13:16:43Z</time>
      </trkpt>
      <trkpt lat="41.6159040" lon="-0.8610200">
        <ele>234.4</ele>
        <time>2020-12-31T13:16:45Z</time>
      </trkpt>
      <trkpt lat="41.6159130" lon="-0.8609870">
        <ele>234.4</ele>
        <time>2020-12-31T13:16:46Z</time>
      </trkpt>
      <trkpt lat="41.6159310" lon="-0.8609090">
        <ele>234.4</ele>
        <time>2020-12-31T13:16:48Z</time>
      </trkpt>
      <trkpt lat="41.6159550" lon="-0.8608730">
        <ele>234.4</ele>
        <time>2020-12-31T13:16:50Z</time>
      </trkpt>
      <trkpt lat="41.6159670" lon="-0.8608800">
        <ele>234.4</ele>
        <time>2020-12-31T13:16:51Z</time>
      </trkpt>
      <trkpt lat="41.6159780" lon="-0.8608870">
        <ele>234.4</ele>
        <time>2020-12-31T13:16:52Z</time>
      </trkpt>
      <trkpt lat="41.6159730" lon="-0.8609020">
        <ele>234.4</ele>
        <time>2020-12-31T13:16:54Z</time>
      </trkpt>
      <trkpt lat="41.6159630" lon="-0.8609070">
        <ele>234.4</ele>
        <time>2020-12-31T13:16:55Z</time>
      </trkpt>
      <trkpt lat="41.6159490" lon="-0.8609230">
        <ele>234.4</ele>
        <time>2020-12-31T13:16:57Z</time>
      </trkpt>
      <trkpt lat="41.6159440" lon="-0.8609440">
        <ele>234.4</ele>
        <time>2020-12-31T13:16:58Z</time>
      </trkpt>
      <trkpt lat="41.6159400" lon="-0.8609620">
        <ele>234.4</ele>
        <time>2020-12-31T13:16:59Z</time>
      </trkpt>
      <trkpt lat="41.6159310" lon="-0.8609760">
        <ele>234.4</ele>
        <time>2020-12-31T13:17:00Z</time>
      </trkpt>
      <trkpt lat="41.6159260" lon="-0.8609880">
        <ele>234.4</ele>
        <time>2020-12-31T13:17:02Z</time>
      </trkpt>
      <trkpt lat="41.6159220" lon="-0.8609980">
        <ele>234.4</ele>
        <time>2020-12-31T13:17:03Z</time>
      </trkpt>
      <trkpt lat="41.6159130" lon="-0.8610190">
        <ele>234.4</ele>
        <time>2020-12-31T13:17:04Z</time>
      </trkpt>
      <trkpt lat="41.6158940" lon="-0.8610440">
        <ele>234.4</ele>
        <time>2020-12-31T13:17:06Z</time>
      </trkpt>
      <trkpt lat="41.6158800" lon="-0.8610630">
        <ele>234.4</ele>
        <time>2020-12-31T13:17:07Z</time>
      </trkpt>
      <trkpt lat="41.6158600" lon="-0.8611170">
        <ele>234.5</ele>
        <time>2020-12-31T13:17:09Z</time>
      </trkpt>
      <trkpt lat="41.6158450" lon="-0.8611500">
        <ele>234.5</ele>
        <time>2020-12-31T13:17:10Z</time>
      </trkpt>
      <trkpt lat="41.6158340" lon="-0.8611880">
        <ele>234.5</ele>
        <time>2020-12-31T13:17:11Z</time>
      </trkpt>
      <trkpt lat="41.6158200" lon="-0.8612480">
        <ele>234.5</ele>
        <time>2020-12-31T13:17:12Z</time>
      </trkpt>
      <trkpt lat="41.6158050" lon="-0.8613040">
        <ele>234.5</ele>
        <time>2020-12-31T13:17:14Z</time>
      </trkpt>
      <trkpt lat="41.6157980" lon="-0.8613550">
        <ele>234.5</ele>
        <time>2020-12-31T13:17:15Z</time>
      </trkpt>
      <trkpt lat="41.6157960" lon="-0.8613980">
        <ele>234.5</ele>
        <time>2020-12-31T13:17:16Z</time>
      </trkpt>
      <trkpt lat="41.6157970" lon="-0.8614520">
        <ele>234.5</ele>
        <time>2020-12-31T13:17:18Z</time>
      </trkpt>
      <trkpt lat="41.6157950" lon="-0.8615100">
        <ele>234.5</ele>
        <time>2020-12-31T13:17:19Z</time>
      </trkpt>
      <trkpt lat="41.6158120" lon="-0.8615670">
        <ele>234.5</ele>
        <time>2020-12-31T13:17:21Z</time>
      </trkpt>
      <trkpt lat="41.6158590" lon="-0.8615600">
        <ele>234.5</ele>
        <time>2020-12-31T13:17:23Z</time>
      </trkpt>
      <trkpt lat="41.6158980" lon="-0.8615720">
        <ele>234.5</ele>
        <time>2020-12-31T13:17:24Z</time>
      </trkpt>
      <trkpt lat="41.6159390" lon="-0.8616240">
        <ele>234.5</ele>
        <time>2020-12-31T13:17:26Z</time>
      </trkpt>
      <trkpt lat="41.6159010" lon="-0.8616620">
        <ele>234.6</ele>
        <time>2020-12-31T13:17:28Z</time>
      </trkpt>
      <trkpt lat="41.6158690" lon="-0.8616640">
        <ele>234.7</ele>
        <time>2020-12-31T13:17:29Z</time>
      </trkpt>
      <trkpt lat="41.6158210" lon="-0.8616420">
        <ele>234.8</ele>
        <time>2020-12-31T13:17:31Z</time>
      </trkpt>
      <trkpt lat="41.6157780" lon="-0.8616240">
        <ele>234.9</ele>
        <time>2020-12-31T13:17:32Z</time>
      </trkpt>
      <trkpt lat="41.6157350" lon="-0.8616060">
        <ele>235.1</ele>
        <time>2020-12-31T13:17:34Z</time>
      </trkpt>
      <trkpt lat="41.6157110" lon="-0.8615950">
        <ele>235.1</ele>
        <time>2020-12-31T13:17:35Z</time>
      </trkpt>
      <trkpt lat="41.6156710" lon="-0.8616080">
        <ele>235.2</ele>
        <time>2020-12-31T13:17:37Z</time>
      </trkpt>
      <trkpt lat="41.6156670" lon="-0.8616530">
        <ele>235.2</ele>
        <time>2020-12-31T13:17:38Z</time>
      </trkpt>
      <trkpt lat="41.6156650" lon="-0.8616910">
        <ele>235.3</ele>
        <time>2020-12-31T13:17:39Z</time>
      </trkpt>
      <trkpt lat="41.6156600" lon="-0.8617370">
        <ele>235.3</ele>
        <time>2020-12-31T13:17:40Z</time>
      </trkpt>
      <trkpt lat="41.6156540" lon="-0.8617830">
        <ele>235.4</ele>
        <time>2020-12-31T13:17:42Z</time>
      </trkpt>
      <trkpt lat="41.6156540" lon="-0.8618110">
        <ele>235.4</ele>
        <time>2020-12-31T13:17:43Z</time>
      </trkpt>
      <trkpt lat="41.6156850" lon="-0.8618500">
        <ele>235.4</ele>
        <time>2020-12-31T13:17:45Z</time>
      </trkpt>
      <trkpt lat="41.6157150" lon="-0.8618500">
        <ele>235.4</ele>
        <time>2020-12-31T13:17:46Z</time>
      </trkpt>
      <trkpt lat="41.6157690" lon="-0.8618710">
        <ele>235.3</ele>
        <time>2020-12-31T13:17:48Z</time>
      </trkpt>
      <trkpt lat="41.6158010" lon="-0.8618890">
        <ele>235.3</ele>
        <time>2020-12-31T13:17:49Z</time>
      </trkpt>
      <trkpt lat="41.6158460" lon="-0.8618960">
        <ele>235.3</ele>
        <time>2020-12-31T13:17:51Z</time>
      </trkpt>
      <trkpt lat="41.6158740" lon="-0.8619100">
        <ele>235.3</ele>
        <time>2020-12-31T13:17:52Z</time>
      </trkpt>
      <trkpt lat="41.6159200" lon="-0.8619340">
        <ele>235.3</ele>
        <time>2020-12-31T13:17:53Z</time>
      </trkpt>
      <trkpt lat="41.6159640" lon="-0.8619660">
        <ele>235.3</ele>
        <time>2020-12-31T13:17:54Z</time>
      </trkpt>
      <trkpt lat="41.6160020" lon="-0.8620160">
        <ele>235.3</ele>
        <time>2020-12-31T13:17:56Z</time>
      </trkpt>
      <trkpt lat="41.6160260" lon="-0.8620590">
        <ele>235.3</ele>
        <time>2020-12-31T13:17:57Z</time>
      </trkpt>
      <trkpt lat="41.6160570" lon="-0.8621210">
        <ele>235.3</ele>
        <time>2020-12-31T13:17:59Z</time>
      </trkpt>
      <trkpt lat="41.6160820" lon="-0.8621530">
        <ele>235.3</ele>
        <time>2020-12-31T13:18:00Z</time>
      </trkpt>
      <trkpt lat="41.6161130" lon="-0.8621900">
        <ele>235.3</ele>
        <time>2020-12-31T13:18:02Z</time>
      </trkpt>
      <trkpt lat="41.6161390" lon="-0.8622190">
        <ele>235.4</ele>
        <time>2020-12-31T13:18:03Z</time>
      </trkpt>
      <trkpt lat="41.6161700" lon="-0.8622490">
        <ele>235.4</ele>
        <time>2020-12-31T13:18:04Z</time>
      </trkpt>
      <trkpt lat="41.6161940" lon="-0.8622780">
        <ele>235.4</ele>
        <time>2020-12-31T13:18:05Z</time>
      </trkpt>
      <trkpt lat="41.6162350" lon="-0.8623220">
        <ele>235.4</ele>
        <time>2020-12-31T13:18:07Z</time>
      </trkpt>
      <trkpt lat="41.6162610" lon="-0.8623680">
        <ele>235.4</ele>
        <time>2020-12-31T13:18:09Z</time>
      </trkpt>
      <trkpt lat="41.6162980" lon="-0.8623740">
        <ele>235.4</ele>
        <time>2020-12-31T13:18:10Z</time>
      </trkpt>
      <trkpt lat="41.6163270" lon="-0.8623710">
        <ele>235.4</ele>
        <time>2020-12-31T13:18:11Z</time>
      </trkpt>
      <trkpt lat="41.6163220" lon="-0.8623680">
        <ele>235.4</ele>
        <time>2020-12-31T13:18:13Z</time>
      </trkpt>
      <trkpt lat="41.6163110" lon="-0.8623620">
        <ele>235.4</ele>
        <time>2020-12-31T13:18:14Z</time>
      </trkpt>
      <trkpt lat="41.6163070" lon="-0.8623590">
        <ele>235.4</ele>
        <time>2020-12-31T13:18:15Z</time>
      </trkpt>
      <trkpt lat="41.6163060" lon="-0.8623580">
        <ele>235.4</ele>
        <time>2020-12-31T13:18:16Z</time>
      </trkpt>
      <trkpt lat="41.6163050" lon="-0.8623570">
        <ele>235.4</ele>
        <time>2020-12-31T13:18:18Z</time>
      </trkpt>
      <trkpt lat="41.6163040" lon="-0.8623570">
        <ele>235.4</ele>
        <time>2020-12-31T13:18:20Z</time>
      </trkpt>
      <trkpt lat="41.6163020" lon="-0.8623570">
        <ele>235.4</ele>
        <time>2020-12-31T13:18:27Z</time>
      </trkpt>
      <trkpt lat="41.6163030" lon="-0.8623590">
        <ele>235.4</ele>
        <time>2020-12-31T13:18:28Z</time>
      </trkpt>
      <trkpt lat="41.6162990" lon="-0.8623590">
        <ele>235.4</ele>
        <time>2020-12-31T13:18:30Z</time>
      </trkpt>
      <trkpt lat="41.6162950" lon="-0.8623610">
        <ele>235.4</ele>
        <time>2020-12-31T13:18:31Z</time>
      </trkpt>
      <trkpt lat="41.6162920" lon="-0.8623620">
        <ele>235.4</ele>
        <time>2020-12-31T13:18:33Z</time>
      </trkpt>
      <trkpt lat="41.6162890" lon="-0.8623620">
        <ele>235.4</ele>
        <time>2020-12-31T13:18:34Z</time>
      </trkpt>
      <trkpt lat="41.6162850" lon="-0.8623600">
        <ele>235.4</ele>
        <time>2020-12-31T13:18:35Z</time>
      </trkpt>
      <trkpt lat="41.6162830" lon="-0.8623620">
        <ele>235.4</ele>
        <time>2020-12-31T13:18:36Z</time>
      </trkpt>
      <trkpt lat="41.6162830" lon="-0.8623640">
        <ele>235.4</ele>
        <time>2020-12-31T13:18:38Z</time>
      </trkpt>
      <trkpt lat="41.6162840" lon="-0.8623650">
        <ele>235.4</ele>
        <time>2020-12-31T13:18:39Z</time>
      </trkpt>
      <trkpt lat="41.6162870" lon="-0.8623650">
        <ele>235.4</ele>
        <time>2020-12-31T13:18:40Z</time>
      </trkpt>
      <trkpt lat="41.6162870" lon="-0.8623640">
        <ele>235.4</ele>
        <time>2020-12-31T13:18:42Z</time>
      </trkpt>
      <trkpt lat="41.6162880" lon="-0.8623630">
        <ele>235.4</ele>
        <time>2020-12-31T13:18:43Z</time>
      </trkpt>
      <trkpt lat="41.6162830" lon="-0.8623700">
        <ele>235.4</ele>
        <time>2020-12-31T13:18:45Z</time>
      </trkpt>
      <trkpt lat="41.6162840" lon="-0.8623710">
        <ele>235.4</ele>
        <time>2020-12-31T13:18:47Z</time>
      </trkpt>
      <trkpt lat="41.6162800" lon="-0.8623780">
        <ele>235.4</ele>
        <time>2020-12-31T13:19:01Z</time>
      </trkpt>
      <trkpt lat="41.6162800" lon="-0.8623800">
        <ele>235.4</ele>
        <time>2020-12-31T13:19:02Z</time>
      </trkpt>
      <trkpt lat="41.6162800" lon="-0.8623770">
        <ele>235.4</ele>
        <time>2020-12-31T13:19:04Z</time>
      </trkpt>
      <trkpt lat="41.6162810" lon="-0.8623830">
        <ele>235.4</ele>
        <time>2020-12-31T13:19:06Z</time>
      </trkpt>
      <trkpt lat="41.6162750" lon="-0.8623840">
        <ele>235.4</ele>
        <time>2020-12-31T13:19:07Z</time>
      </trkpt>
      <trkpt lat="41.6162690" lon="-0.8623870">
        <ele>235.4</ele>
        <time>2020-12-31T13:19:08Z</time>
      </trkpt>
      <trkpt lat="41.6162530" lon="-0.8623940">
        <ele>235.4</ele>
        <time>2020-12-31T13:19:10Z</time>
      </trkpt>
      <trkpt lat="41.6162510" lon="-0.8623920">
        <ele>235.4</ele>
        <time>2020-12-31T13:19:11Z</time>
      </trkpt>
      <trkpt lat="41.6162530" lon="-0.8623920">
        <ele>235.4</ele>
        <time>2020-12-31T13:19:13Z</time>
      </trkpt>
      <trkpt lat="41.6162540" lon="-0.8623940">
        <ele>235.4</ele>
        <time>2020-12-31T13:19:14Z</time>
      </trkpt>
      <trkpt lat="41.6162550" lon="-0.8623950">
        <ele>235.4</ele>
        <time>2020-12-31T13:19:15Z</time>
      </trkpt>
      <trkpt lat="41.6162540" lon="-0.8623950">
        <ele>235.4</ele>
        <time>2020-12-31T13:19:17Z</time>
      </trkpt>
      <trkpt lat="41.6162540" lon="-0.8623950">
        <ele>235.4</ele>
        <time>2020-12-31T13:19:18Z</time>
      </trkpt>
      <trkpt lat="41.6162540" lon="-0.8623950">
        <ele>235.4</ele>
        <time>2020-12-31T13:19:20Z</time>
      </trkpt>
      <trkpt lat="41.6162630" lon="-0.8623600">
        <ele>235.4</ele>
        <time>2020-12-31T13:21:45Z</time>
      </trkpt>
      <trkpt lat="41.6162660" lon="-0.8623580">
        <ele>235.4</ele>
        <time>2020-12-31T13:21:47Z</time>
      </trkpt>
      <trkpt lat="41.6162680" lon="-0.8623580">
        <ele>235.4</ele>
        <time>2020-12-31T13:21:49Z</time>
      </trkpt>
      <trkpt lat="41.6162730" lon="-0.8623550">
        <ele>235.4</ele>
        <time>2020-12-31T13:21:51Z</time>
      </trkpt>
      <trkpt lat="41.6162790" lon="-0.8623490">
        <ele>235.4</ele>
        <time>2020-12-31T13:21:53Z</time>
      </trkpt>
      <trkpt lat="41.6162820" lon="-0.8623460">
        <ele>235.4</ele>
        <time>2020-12-31T13:21:54Z</time>
      </trkpt>
      <trkpt lat="41.6162820" lon="-0.8623450">
        <ele>235.4</ele>
        <time>2020-12-31T13:21:56Z</time>
      </trkpt>
      <trkpt lat="41.6162810" lon="-0.8623450">
        <ele>235.4</ele>
        <time>2020-12-31T13:21:58Z</time>
      </trkpt>
      <trkpt lat="41.6162810" lon="-0.8623450">
        <ele>235.4</ele>
        <time>2020-12-31T13:22:00Z</time>
      </trkpt>
      <trkpt lat="41.6162810" lon="-0.8623450">
        <ele>235.4</ele>
        <time>2020-12-31T13:22:02Z</time>
      </trkpt>
      <trkpt lat="41.6162810" lon="-0.8623450">
        <ele>235.4</ele>
        <time>2020-12-31T13:22:04Z</time>
      </trkpt>
      <trkpt lat="41.6162970" lon="-0.8623940">
        <ele>235.4</ele>
        <time>2020-12-31T13:23:57Z</time>
      </trkpt>
      <trkpt lat="41.6162870" lon="-0.8624210">
        <ele>235.4</ele>
        <time>2020-12-31T13:23:58Z</time>
      </trkpt>
      <trkpt lat="41.6162590" lon="-0.8624490">
        <ele>235.4</ele>
        <time>2020-12-31T13:24:00Z</time>
      </trkpt>
      <trkpt lat="41.6162440" lon="-0.8624200">
        <ele>235.4</ele>
        <time>2020-12-31T13:24:01Z</time>
      </trkpt>
      <trkpt lat="41.6162420" lon="-0.8624050">
        <ele>235.4</ele>
        <time>2020-12-31T13:24:02Z</time>
      </trkpt>
      <trkpt lat="41.6162480" lon="-0.8623710">
        <ele>235.4</ele>
        <time>2020-12-31T13:24:03Z</time>
      </trkpt>
      <trkpt lat="41.6162680" lon="-0.8623510">
        <ele>235.4</ele>
        <time>2020-12-31T13:24:05Z</time>
      </trkpt>
      <trkpt lat="41.6162710" lon="-0.8623610">
        <ele>235.4</ele>
        <time>2020-12-31T13:24:06Z</time>
      </trkpt>
      <trkpt lat="41.6162700" lon="-0.8623740">
        <ele>235.4</ele>
        <time>2020-12-31T13:24:08Z</time>
      </trkpt>
      <trkpt lat="41.6162690" lon="-0.8623760">
        <ele>235.4</ele>
        <time>2020-12-31T13:24:09Z</time>
      </trkpt>
      <trkpt lat="41.6162680" lon="-0.8623760">
        <ele>235.4</ele>
        <time>2020-12-31T13:24:11Z</time>
      </trkpt>
      <trkpt lat="41.6162680" lon="-0.8623750">
        <ele>235.4</ele>
        <time>2020-12-31T13:24:12Z</time>
      </trkpt>
      <trkpt lat="41.6162680" lon="-0.8623750">
        <ele>235.4</ele>
        <time>2020-12-31T13:24:13Z</time>
      </trkpt>
      <trkpt lat="41.6162690" lon="-0.8623760">
        <ele>235.4</ele>
        <time>2020-12-31T13:24:15Z</time>
      </trkpt>
      <trkpt lat="41.6162980" lon="-0.8624100">
        <ele>235.4</ele>
        <time>2020-12-31T13:24:50Z</time>
      </trkpt>
      <trkpt lat="41.6163050" lon="-0.8624240">
        <ele>235.4</ele>
        <time>2020-12-31T13:24:51Z</time>
      </trkpt>
      <trkpt lat="41.6163210" lon="-0.8624400">
        <ele>235.4</ele>
        <time>2020-12-31T13:24:52Z</time>
      </trkpt>
      <trkpt lat="41.6163510" lon="-0.8624740">
        <ele>235.3</ele>
        <time>2020-12-31T13:24:53Z</time>
      </trkpt>
      <trkpt lat="41.6163640" lon="-0.8624930">
        <ele>235.3</ele>
        <time>2020-12-31T13:24:54Z</time>
      </trkpt>
      <trkpt lat="41.6163860" lon="-0.8625390">
        <ele>235.3</ele>
        <time>2020-12-31T13:24:56Z</time>
      </trkpt>
      <trkpt lat="41.6164050" lon="-0.8625760">
        <ele>235.3</ele>
        <time>2020-12-31T13:24:57Z</time>
      </trkpt>
      <trkpt lat="41.6164160" lon="-0.8626170">
        <ele>235.3</ele>
        <time>2020-12-31T13:24:58Z</time>
      </trkpt>
      <trkpt lat="41.6164150" lon="-0.8626280">
        <ele>235.3</ele>
        <time>2020-12-31T13:24:59Z</time>
      </trkpt>
      <trkpt lat="41.6164260" lon="-0.8626680">
        <ele>235.2</ele>
        <time>2020-12-31T13:25:00Z</time>
      </trkpt>
      <trkpt lat="41.6164300" lon="-0.8626810">
        <ele>235.2</ele>
        <time>2020-12-31T13:25:01Z</time>
      </trkpt>
      <trkpt lat="41.6164440" lon="-0.8627210">
        <ele>235.2</ele>
        <time>2020-12-31T13:25:02Z</time>
      </trkpt>
      <trkpt lat="41.6164500" lon="-0.8627400">
        <ele>235.2</ele>
        <time>2020-12-31T13:25:03Z</time>
      </trkpt>
      <trkpt lat="41.6164590" lon="-0.8627720">
        <ele>235.1</ele>
        <time>2020-12-31T13:25:04Z</time>
      </trkpt>
      <trkpt lat="41.6164700" lon="-0.8628120">
        <ele>235.1</ele>
        <time>2020-12-31T13:25:06Z</time>
      </trkpt>
      <trkpt lat="41.6165150" lon="-0.8629410">
        <ele>235.1</ele>
        <time>2020-12-31T13:25:07Z</time>
      </trkpt>
      <trkpt lat="41.6165820" lon="-0.8631410">
        <ele>235.1</ele>
        <time>2020-12-31T13:25:09Z</time>
      </trkpt>
      <trkpt lat="41.6165830" lon="-0.8632160">
        <ele>235.1</ele>
        <time>2020-12-31T13:25:10Z</time>
      </trkpt>
      <trkpt lat="41.6165910" lon="-0.8633660">
        <ele>235.1</ele>
        <time>2020-12-31T13:25:12Z</time>
      </trkpt>
      <trkpt lat="41.6166050" lon="-0.8635090">
        <ele>235.1</ele>
        <time>2020-12-31T13:25:14Z</time>
      </trkpt>
      <trkpt lat="41.6166330" lon="-0.8636750">
        <ele>235.1</ele>
        <time>2020-12-31T13:25:16Z</time>
      </trkpt>
      <trkpt lat="41.6166590" lon="-0.8638350">
        <ele>235.2</ele>
        <time>2020-12-31T13:25:18Z</time>
      </trkpt>
      <trkpt lat="41.6166770" lon="-0.8639810">
        <ele>235.3</ele>
        <time>2020-12-31T13:25:20Z</time>
      </trkpt>
      <trkpt lat="41.6166860" lon="-0.8641190">
        <ele>235.3</ele>
        <time>2020-12-31T13:25:22Z</time>
      </trkpt>
      <trkpt lat="41.6167050" lon="-0.8642180">
        <ele>235.3</ele>
        <time>2020-12-31T13:25:24Z</time>
      </trkpt>
      <trkpt lat="41.6167180" lon="-0.8642940">
        <ele>235.3</ele>
        <time>2020-12-31T13:25:25Z</time>
      </trkpt>
      <trkpt lat="41.6167250" lon="-0.8644390">
        <ele>235.3</ele>
        <time>2020-12-31T13:25:27Z</time>
      </trkpt>
      <trkpt lat="41.6167280" lon="-0.8645120">
        <ele>235.3</ele>
        <time>2020-12-31T13:25:28Z</time>
      </trkpt>
      <trkpt lat="41.6167370" lon="-0.8646530">
        <ele>235.3</ele>
        <time>2020-12-31T13:25:30Z</time>
      </trkpt>
      <trkpt lat="41.6167550" lon="-0.8647890">
        <ele>235.3</ele>
        <time>2020-12-31T13:25:32Z</time>
      </trkpt>
      <trkpt lat="41.6167690" lon="-0.8649280">
        <ele>235.4</ele>
        <time>2020-12-31T13:25:34Z</time>
      </trkpt>
      <trkpt lat="41.6167730" lon="-0.8649960">
        <ele>235.4</ele>
        <time>2020-12-31T13:25:35Z</time>
      </trkpt>
      <trkpt lat="41.6167730" lon="-0.8650660">
        <ele>235.4</ele>
        <time>2020-12-31T13:25:36Z</time>
      </trkpt>
      <trkpt lat="41.6167840" lon="-0.8651970">
        <ele>235.5</ele>
        <time>2020-12-31T13:25:38Z</time>
      </trkpt>
      <trkpt lat="41.6167940" lon="-0.8653330">
        <ele>235.5</ele>
        <time>2020-12-31T13:25:40Z</time>
      </trkpt>
      <trkpt lat="41.6167940" lon="-0.8654030">
        <ele>235.5</ele>
        <time>2020-12-31T13:25:41Z</time>
      </trkpt>
      <trkpt lat="41.6167960" lon="-0.8654720">
        <ele>235.6</ele>
        <time>2020-12-31T13:25:42Z</time>
      </trkpt>
      <trkpt lat="41.6168080" lon="-0.8656090">
        <ele>235.6</ele>
        <time>2020-12-31T13:25:44Z</time>
      </trkpt>
      <trkpt lat="41.6168200" lon="-0.8657430">
        <ele>235.5</ele>
        <time>2020-12-31T13:25:46Z</time>
      </trkpt>
      <trkpt lat="41.6168300" lon="-0.8658870">
        <ele>235.4</ele>
        <time>2020-12-31T13:25:48Z</time>
      </trkpt>
      <trkpt lat="41.6168410" lon="-0.8660380">
        <ele>235.1</ele>
        <time>2020-12-31T13:25:50Z</time>
      </trkpt>
      <trkpt lat="41.6168450" lon="-0.8662020">
        <ele>234.9</ele>
        <time>2020-12-31T13:25:52Z</time>
      </trkpt>
      <trkpt lat="41.6168470" lon="-0.8662870">
        <ele>234.8</ele>
        <time>2020-12-31T13:25:53Z</time>
      </trkpt>
      <trkpt lat="41.6168640" lon="-0.8664500">
        <ele>234.7</ele>
        <time>2020-12-31T13:25:55Z</time>
      </trkpt>
      <trkpt lat="41.6168740" lon="-0.8665300">
        <ele>234.7</ele>
        <time>2020-12-31T13:25:56Z</time>
      </trkpt>
      <trkpt lat="41.6168990" lon="-0.8666800">
        <ele>234.7</ele>
        <time>2020-12-31T13:25:58Z</time>
      </trkpt>
      <trkpt lat="41.6169240" lon="-0.8667450">
        <ele>234.7</ele>
        <time>2020-12-31T13:25:59Z</time>
      </trkpt>
      <trkpt lat="41.6169530" lon="-0.8668100">
        <ele>234.8</ele>
        <time>2020-12-31T13:26:00Z</time>
      </trkpt>
      <trkpt lat="41.6169920" lon="-0.8669500">
        <ele>234.9</ele>
        <time>2020-12-31T13:26:02Z</time>
      </trkpt>
      <trkpt lat="41.6170040" lon="-0.8670270">
        <ele>235.0</ele>
        <time>2020-12-31T13:26:03Z</time>
      </trkpt>
      <trkpt lat="41.6170330" lon="-0.8671660">
        <ele>235.1</ele>
        <time>2020-12-31T13:26:05Z</time>
      </trkpt>
      <trkpt lat="41.6170430" lon="-0.8672270">
        <ele>235.1</ele>
        <time>2020-12-31T13:26:06Z</time>
      </trkpt>
      <trkpt lat="41.6170560" lon="-0.8672860">
        <ele>235.2</ele>
        <time>2020-12-31T13:26:07Z</time>
      </trkpt>
      <trkpt lat="41.6170760" lon="-0.8674070">
        <ele>235.3</ele>
        <time>2020-12-31T13:26:09Z</time>
      </trkpt>
      <trkpt lat="41.6170800" lon="-0.8674610">
        <ele>235.4</ele>
        <time>2020-12-31T13:26:10Z</time>
      </trkpt>
      <trkpt lat="41.6170700" lon="-0.8675010">
        <ele>235.4</ele>
        <time>2020-12-31T13:26:11Z</time>
      </trkpt>
      <trkpt lat="41.6170420" lon="-0.8675540">
        <ele>235.5</ele>
        <time>2020-12-31T13:26:12Z</time>
      </trkpt>
      <trkpt lat="41.6169640" lon="-0.8675790">
        <ele>235.7</ele>
        <time>2020-12-31T13:26:14Z</time>
      </trkpt>
      <trkpt lat="41.6168770" lon="-0.8675460">
        <ele>235.9</ele>
        <time>2020-12-31T13:26:16Z</time>
      </trkpt>
      <trkpt lat="41.6168270" lon="-0.8674980">
        <ele>236.2</ele>
        <time>2020-12-31T13:26:17Z</time>
      </trkpt>
      <trkpt lat="41.6167860" lon="-0.8674680">
        <ele>236.2</ele>
        <time>2020-12-31T13:26:18Z</time>
      </trkpt>
      <trkpt lat="41.6166930" lon="-0.8674260">
        <ele>236.3</ele>
        <time>2020-12-31T13:26:20Z</time>
      </trkpt>
      <trkpt lat="41.6166450" lon="-0.8674120">
        <ele>236.4</ele>
        <time>2020-12-31T13:26:21Z</time>
      </trkpt>
      <trkpt lat="41.6165970" lon="-0.8674040">
        <ele>236.4</ele>
        <time>2020-12-31T13:26:22Z</time>
      </trkpt>
      <trkpt lat="41.6164990" lon="-0.8673950">
        <ele>236.5</ele>
        <time>2020-12-31T13:26:24Z</time>
      </trkpt>
      <trkpt lat="41.6164010" lon="-0.8673910">
        <ele>236.7</ele>
        <time>2020-12-31T13:26:26Z</time>
      </trkpt>
      <trkpt lat="41.6163510" lon="-0.8673910">
        <ele>236.8</ele>
        <time>2020-12-31T13:26:27Z</time>
      </trkpt>
      <trkpt lat="41.6163030" lon="-0.8673830">
        <ele>236.9</ele>
        <time>2020-12-31T13:26:28Z</time>
      </trkpt>
      <trkpt lat="41.6162540" lon="-0.8673770">
        <ele>237.1</ele>
        <time>2020-12-31T13:26:29Z</time>
      </trkpt>
      <trkpt lat="41.6161620" lon="-0.8673700">
        <ele>237.2</ele>
        <time>2020-12-31T13:26:31Z</time>
      </trkpt>
      <trkpt lat="41.6160660" lon="-0.8673640">
        <ele>237.5</ele>
        <time>2020-12-31T13:26:33Z</time>
      </trkpt>
      <trkpt lat="41.6160210" lon="-0.8673550">
        <ele>237.6</ele>
        <time>2020-12-31T13:26:34Z</time>
      </trkpt>
      <trkpt lat="41.6159840" lon="-0.8673520">
        <ele>237.7</ele>
        <time>2020-12-31T13:26:35Z</time>
      </trkpt>
      <trkpt lat="41.6159050" lon="-0.8673430">
        <ele>238.0</ele>
        <time>2020-12-31T13:26:37Z</time>
      </trkpt>
      <trkpt lat="41.6158620" lon="-0.8673400">
        <ele>238.0</ele>
        <time>2020-12-31T13:26:38Z</time>
      </trkpt>
      <trkpt lat="41.6157730" lon="-0.8673350">
        <ele>238.2</ele>
        <time>2020-12-31T13:26:40Z</time>
      </trkpt>
      <trkpt lat="41.6156730" lon="-0.8673670">
        <ele>238.4</ele>
        <time>2020-12-31T13:26:42Z</time>
      </trkpt>
      <trkpt lat="41.6156240" lon="-0.8673890">
        <ele>238.4</ele>
        <time>2020-12-31T13:26:43Z</time>
      </trkpt>
      <trkpt lat="41.6155160" lon="-0.8674280">
        <ele>238.5</ele>
        <time>2020-12-31T13:26:45Z</time>
      </trkpt>
      <trkpt lat="41.6154110" lon="-0.8674830">
        <ele>238.5</ele>
        <time>2020-12-31T13:26:47Z</time>
      </trkpt>
      <trkpt lat="41.6153010" lon="-0.8674970">
        <ele>238.6</ele>
        <time>2020-12-31T13:26:49Z</time>
      </trkpt>
      <trkpt lat="41.6151880" lon="-0.8675090">
        <ele>238.7</ele>
        <time>2020-12-31T13:26:51Z</time>
      </trkpt>
      <trkpt lat="41.6150790" lon="-0.8675460">
        <ele>238.8</ele>
        <time>2020-12-31T13:26:53Z</time>
      </trkpt>
      <trkpt lat="41.6150280" lon="-0.8675640">
        <ele>238.8</ele>
        <time>2020-12-31T13:26:54Z</time>
      </trkpt>
      <trkpt lat="41.6149780" lon="-0.8675780">
        <ele>238.9</ele>
        <time>2020-12-31T13:26:55Z</time>
      </trkpt>
      <trkpt lat="41.6148790" lon="-0.8675970">
        <ele>238.9</ele>
        <time>2020-12-31T13:26:57Z</time>
      </trkpt>
      <trkpt lat="41.6147880" lon="-0.8675680">
        <ele>238.7</ele>
        <time>2020-12-31T13:26:59Z</time>
      </trkpt>
      <trkpt lat="41.6147540" lon="-0.8675400">
        <ele>238.7</ele>
        <time>2020-12-31T13:27:00Z</time>
      </trkpt>
      <trkpt lat="41.6147310" lon="-0.8674630">
        <ele>238.7</ele>
        <time>2020-12-31T13:27:02Z</time>
      </trkpt>
      <trkpt lat="41.6146560" lon="-0.8673330">
        <ele>238.7</ele>
        <time>2020-12-31T13:27:04Z</time>
      </trkpt>
      <trkpt lat="41.6146210" lon="-0.8672590">
        <ele>238.7</ele>
        <time>2020-12-31T13:27:05Z</time>
      </trkpt>
      <trkpt lat="41.6145200" lon="-0.8672030">
        <ele>238.4</ele>
        <time>2020-12-31T13:27:07Z</time>
      </trkpt>
      <trkpt lat="41.6144110" lon="-0.8672520">
        <ele>238.3</ele>
        <time>2020-12-31T13:27:09Z</time>
      </trkpt>
      <trkpt lat="41.6143610" lon="-0.8672420">
        <ele>238.3</ele>
        <time>2020-12-31T13:27:10Z</time>
      </trkpt>
      <trkpt lat="41.6142680" lon="-0.8672460">
        <ele>238.4</ele>
        <time>2020-12-31T13:27:12Z</time>
      </trkpt>
      <trkpt lat="41.6142290" lon="-0.8672510">
        <ele>238.4</ele>
        <time>2020-12-31T13:27:13Z</time>
      </trkpt>
      <trkpt lat="41.6141800" lon="-0.8672630">
        <ele>238.5</ele>
        <time>2020-12-31T13:27:14Z</time>
      </trkpt>
      <trkpt lat="41.6140990" lon="-0.8672950">
        <ele>238.6</ele>
        <time>2020-12-31T13:27:16Z</time>
      </trkpt>
      <trkpt lat="41.6140490" lon="-0.8673100">
        <ele>238.7</ele>
        <time>2020-12-31T13:27:17Z</time>
      </trkpt>
      <trkpt lat="41.6139560" lon="-0.8673490">
        <ele>238.8</ele>
        <time>2020-12-31T13:27:19Z</time>
      </trkpt>
      <trkpt lat="41.6139090" lon="-0.8673670">
        <ele>238.9</ele>
        <time>2020-12-31T13:27:20Z</time>
      </trkpt>
      <trkpt lat="41.6138120" lon="-0.8673470">
        <ele>239.1</ele>
        <time>2020-12-31T13:27:22Z</time>
      </trkpt>
      <trkpt lat="41.6137290" lon="-0.8673590">
        <ele>239.3</ele>
        <time>2020-12-31T13:27:24Z</time>
      </trkpt>
      <trkpt lat="41.6136360" lon="-0.8673830">
        <ele>239.6</ele>
        <time>2020-12-31T13:27:26Z</time>
      </trkpt>
      <trkpt lat="41.6135640" lon="-0.8674170">
        <ele>239.8</ele>
        <time>2020-12-31T13:27:28Z</time>
      </trkpt>
      <trkpt lat="41.6135210" lon="-0.8674560">
        <ele>240.0</ele>
        <time>2020-12-31T13:27:29Z</time>
      </trkpt>
      <trkpt lat="41.6134840" lon="-0.8674920">
        <ele>240.1</ele>
        <time>2020-12-31T13:27:30Z</time>
      </trkpt>
      <trkpt lat="41.6133990" lon="-0.8674120">
        <ele>240.4</ele>
        <time>2020-12-31T13:27:32Z</time>
      </trkpt>
      <trkpt lat="41.6133550" lon="-0.8673830">
        <ele>240.5</ele>
        <time>2020-12-31T13:27:33Z</time>
      </trkpt>
      <trkpt lat="41.6133050" lon="-0.8673800">
        <ele>240.6</ele>
        <time>2020-12-31T13:27:34Z</time>
      </trkpt>
      <trkpt lat="41.6132130" lon="-0.8674120">
        <ele>240.8</ele>
        <time>2020-12-31T13:27:36Z</time>
      </trkpt>
      <trkpt lat="41.6131680" lon="-0.8674360">
        <ele>240.8</ele>
        <time>2020-12-31T13:27:37Z</time>
      </trkpt>
      <trkpt lat="41.6130710" lon="-0.8674860">
        <ele>241.1</ele>
        <time>2020-12-31T13:27:39Z</time>
      </trkpt>
      <trkpt lat="41.6130180" lon="-0.8674880">
        <ele>241.2</ele>
        <time>2020-12-31T13:27:40Z</time>
      </trkpt>
      <trkpt lat="41.6129220" lon="-0.8675090">
        <ele>241.4</ele>
        <time>2020-12-31T13:27:42Z</time>
      </trkpt>
      <trkpt lat="41.6128290" lon="-0.8675290">
        <ele>241.7</ele>
        <time>2020-12-31T13:27:44Z</time>
      </trkpt>
      <trkpt lat="41.6127580" lon="-0.8675370">
        <ele>241.9</ele>
        <time>2020-12-31T13:27:46Z</time>
      </trkpt>
      <trkpt lat="41.6127160" lon="-0.8675430">
        <ele>242.0</ele>
        <time>2020-12-31T13:27:47Z</time>
      </trkpt>
      <trkpt lat="41.6126310" lon="-0.8675400">
        <ele>242.3</ele>
        <time>2020-12-31T13:27:49Z</time>
      </trkpt>
      <trkpt lat="41.6125490" lon="-0.8675330">
        <ele>242.5</ele>
        <time>2020-12-31T13:27:50Z</time>
      </trkpt>
      <trkpt lat="41.6125130" lon="-0.8675230">
        <ele>242.6</ele>
        <time>2020-12-31T13:27:51Z</time>
      </trkpt>
      <trkpt lat="41.6124690" lon="-0.8675290">
        <ele>242.7</ele>
        <time>2020-12-31T13:27:53Z</time>
      </trkpt>
      <trkpt lat="41.6124130" lon="-0.8675400">
        <ele>242.9</ele>
        <time>2020-12-31T13:27:54Z</time>
      </trkpt>
      <trkpt lat="41.6123680" lon="-0.8675490">
        <ele>243.0</ele>
        <time>2020-12-31T13:27:55Z</time>
      </trkpt>
      <trkpt lat="41.6122990" lon="-0.8675680">
        <ele>243.2</ele>
        <time>2020-12-31T13:27:57Z</time>
      </trkpt>
      <trkpt lat="41.6122450" lon="-0.8675840">
        <ele>243.4</ele>
        <time>2020-12-31T13:27:58Z</time>
      </trkpt>
      <trkpt lat="41.6121620" lon="-0.8676030">
        <ele>243.6</ele>
        <time>2020-12-31T13:28:00Z</time>
      </trkpt>
      <trkpt lat="41.6121050" lon="-0.8676180">
        <ele>243.7</ele>
        <time>2020-12-31T13:28:01Z</time>
      </trkpt>
      <trkpt lat="41.6120680" lon="-0.8676600">
        <ele>243.9</ele>
        <time>2020-12-31T13:28:02Z</time>
      </trkpt>
      <trkpt lat="41.6120130" lon="-0.8676820">
        <ele>244.0</ele>
        <time>2020-12-31T13:28:04Z</time>
      </trkpt>
      <trkpt lat="41.6119370" lon="-0.8676720">
        <ele>244.2</ele>
        <time>2020-12-31T13:28:05Z</time>
      </trkpt>
      <trkpt lat="41.6118450" lon="-0.8676890">
        <ele>244.4</ele>
        <time>2020-12-31T13:28:07Z</time>
      </trkpt>
      <trkpt lat="41.6117750" lon="-0.8677100">
        <ele>244.6</ele>
        <time>2020-12-31T13:28:09Z</time>
      </trkpt>
      <trkpt lat="41.6117100" lon="-0.8677140">
        <ele>244.8</ele>
        <time>2020-12-31T13:28:10Z</time>
      </trkpt>
      <trkpt lat="41.6116570" lon="-0.8677440">
        <ele>244.9</ele>
        <time>2020-12-31T13:28:12Z</time>
      </trkpt>
      <trkpt lat="41.6116110" lon="-0.8677760">
        <ele>245.0</ele>
        <time>2020-12-31T13:28:13Z</time>
      </trkpt>
      <trkpt lat="41.6115000" lon="-0.8677720">
        <ele>245.3</ele>
        <time>2020-12-31T13:28:15Z</time>
      </trkpt>
      <trkpt lat="41.6114730" lon="-0.8677460">
        <ele>245.4</ele>
        <time>2020-12-31T13:28:16Z</time>
      </trkpt>
      <trkpt lat="41.6114270" lon="-0.8677270">
        <ele>245.5</ele>
        <time>2020-12-31T13:28:17Z</time>
      </trkpt>
      <trkpt lat="41.6113710" lon="-0.8677210">
        <ele>245.6</ele>
        <time>2020-12-31T13:28:19Z</time>
      </trkpt>
      <trkpt lat="41.6113040" lon="-0.8677210">
        <ele>245.7</ele>
        <time>2020-12-31T13:28:20Z</time>
      </trkpt>
      <trkpt lat="41.6112320" lon="-0.8677020">
        <ele>245.9</ele>
        <time>2020-12-31T13:28:21Z</time>
      </trkpt>
      <trkpt lat="41.6111720" lon="-0.8676840">
        <ele>246.0</ele>
        <time>2020-12-31T13:28:23Z</time>
      </trkpt>
      <trkpt lat="41.6110880" lon="-0.8676880">
        <ele>246.2</ele>
        <time>2020-12-31T13:28:25Z</time>
      </trkpt>
      <trkpt lat="41.6110280" lon="-0.8677110">
        <ele>246.4</ele>
        <time>2020-12-31T13:28:26Z</time>
      </trkpt>
      <trkpt lat="41.6109740" lon="-0.8677310">
        <ele>246.5</ele>
        <time>2020-12-31T13:28:27Z</time>
      </trkpt>
      <trkpt lat="41.6109330" lon="-0.8677460">
        <ele>246.6</ele>
        <time>2020-12-31T13:28:29Z</time>
      </trkpt>
      <trkpt lat="41.6108900" lon="-0.8677630">
        <ele>246.7</ele>
        <time>2020-12-31T13:28:30Z</time>
      </trkpt>
      <trkpt lat="41.6108330" lon="-0.8677810">
        <ele>246.9</ele>
        <time>2020-12-31T13:28:31Z</time>
      </trkpt>
      <trkpt lat="41.6107490" lon="-0.8678180">
        <ele>247.1</ele>
        <time>2020-12-31T13:28:33Z</time>
      </trkpt>
      <trkpt lat="41.6107080" lon="-0.8678510">
        <ele>247.3</ele>
        <time>2020-12-31T13:28:34Z</time>
      </trkpt>
      <trkpt lat="41.6106630" lon="-0.8678760">
        <ele>247.4</ele>
        <time>2020-12-31T13:28:35Z</time>
      </trkpt>
      <trkpt lat="41.6106090" lon="-0.8678850">
        <ele>247.6</ele>
        <time>2020-12-31T13:28:37Z</time>
      </trkpt>
      <trkpt lat="41.6105660" lon="-0.8678520">
        <ele>247.8</ele>
        <time>2020-12-31T13:28:38Z</time>
      </trkpt>
      <trkpt lat="41.6105360" lon="-0.8677620">
        <ele>248.0</ele>
        <time>2020-12-31T13:28:39Z</time>
      </trkpt>
      <trkpt lat="41.6105020" lon="-0.8677230">
        <ele>248.1</ele>
        <time>2020-12-31T13:28:40Z</time>
      </trkpt>
      <trkpt lat="41.6104530" lon="-0.8677100">
        <ele>248.2</ele>
        <time>2020-12-31T13:28:42Z</time>
      </trkpt>
      <trkpt lat="41.6104060" lon="-0.8677230">
        <ele>248.3</ele>
        <time>2020-12-31T13:28:43Z</time>
      </trkpt>
      <trkpt lat="41.6103330" lon="-0.8677700">
        <ele>248.5</ele>
        <time>2020-12-31T13:28:45Z</time>
      </trkpt>
      <trkpt lat="41.6102850" lon="-0.8677850">
        <ele>248.6</ele>
        <time>2020-12-31T13:28:46Z</time>
      </trkpt>
      <trkpt lat="41.6102580" lon="-0.8677860">
        <ele>248.6</ele>
        <time>2020-12-31T13:28:47Z</time>
      </trkpt>
      <trkpt lat="41.6102270" lon="-0.8677840">
        <ele>248.7</ele>
        <time>2020-12-31T13:28:48Z</time>
      </trkpt>
      <trkpt lat="41.6101890" lon="-0.8677810">
        <ele>248.8</ele>
        <time>2020-12-31T13:28:50Z</time>
      </trkpt>
      <trkpt lat="41.6101460" lon="-0.8677810">
        <ele>248.9</ele>
        <time>2020-12-31T13:28:51Z</time>
      </trkpt>
      <trkpt lat="41.6100870" lon="-0.8677830">
        <ele>249.1</ele>
        <time>2020-12-31T13:28:52Z</time>
      </trkpt>
      <trkpt lat="41.6100410" lon="-0.8677980">
        <ele>249.2</ele>
        <time>2020-12-31T13:28:53Z</time>
      </trkpt>
      <trkpt lat="41.6099610" lon="-0.8678400">
        <ele>249.6</ele>
        <time>2020-12-31T13:28:55Z</time>
      </trkpt>
      <trkpt lat="41.6099240" lon="-0.8678750">
        <ele>249.8</ele>
        <time>2020-12-31T13:28:56Z</time>
      </trkpt>
      <trkpt lat="41.6098850" lon="-0.8679120">
        <ele>249.9</ele>
        <time>2020-12-31T13:28:57Z</time>
      </trkpt>
      <trkpt lat="41.6098420" lon="-0.8679550">
        <ele>250.2</ele>
        <time>2020-12-31T13:28:58Z</time>
      </trkpt>
      <trkpt lat="41.6097940" lon="-0.8680120">
        <ele>250.5</ele>
        <time>2020-12-31T13:29:00Z</time>
      </trkpt>
      <trkpt lat="41.6097740" lon="-0.8680690">
        <ele>250.8</ele>
        <time>2020-12-31T13:29:01Z</time>
      </trkpt>
      <trkpt lat="41.6097520" lon="-0.8681060">
        <ele>251.0</ele>
        <time>2020-12-31T13:29:02Z</time>
      </trkpt>
      <trkpt lat="41.6097250" lon="-0.8681460">
        <ele>251.2</ele>
        <time>2020-12-31T13:29:03Z</time>
      </trkpt>
      <trkpt lat="41.6096850" lon="-0.8682040">
        <ele>251.5</ele>
        <time>2020-12-31T13:29:05Z</time>
      </trkpt>
      <trkpt lat="41.6096560" lon="-0.8682530">
        <ele>251.8</ele>
        <time>2020-12-31T13:29:06Z</time>
      </trkpt>
      <trkpt lat="41.6096310" lon="-0.8682930">
        <ele>252.1</ele>
        <time>2020-12-31T13:29:07Z</time>
      </trkpt>
      <trkpt lat="41.6095790" lon="-0.8683510">
        <ele>252.5</ele>
        <time>2020-12-31T13:29:09Z</time>
      </trkpt>
      <trkpt lat="41.6095330" lon="-0.8683830">
        <ele>252.9</ele>
        <time>2020-12-31T13:29:10Z</time>
      </trkpt>
      <trkpt lat="41.6095000" lon="-0.8683700">
        <ele>253.2</ele>
        <time>2020-12-31T13:29:11Z</time>
      </trkpt>
      <trkpt lat="41.6094630" lon="-0.8683550">
        <ele>254.5</ele>
        <time>2020-12-31T13:29:13Z</time>
      </trkpt>
      <trkpt lat="41.6094270" lon="-0.8683390">
        <ele>254.3</ele>
        <time>2020-12-31T13:29:14Z</time>
      </trkpt>
      <trkpt lat="41.6093960" lon="-0.8683210">
        <ele>254.5</ele>
        <time>2020-12-31T13:29:15Z</time>
      </trkpt>
      <trkpt lat="41.6093680" lon="-0.8683000">
        <ele>254.6</ele>
        <time>2020-12-31T13:29:16Z</time>
      </trkpt>
      <trkpt lat="41.6093610" lon="-0.8682920">
        <ele>254.6</ele>
        <time>2020-12-31T13:29:17Z</time>
      </trkpt>
      <trkpt lat="41.6093550" lon="-0.8682750">
        <ele>254.7</ele>
        <time>2020-12-31T13:29:18Z</time>
      </trkpt>
      <trkpt lat="41.6093280" lon="-0.8682550">
        <ele>254.8</ele>
        <time>2020-12-31T13:29:20Z</time>
      </trkpt>
      <trkpt lat="41.6092990" lon="-0.8682550">
        <ele>254.8</ele>
        <time>2020-12-31T13:29:21Z</time>
      </trkpt>
      <trkpt lat="41.6092340" lon="-0.8682470">
        <ele>254.8</ele>
        <time>2020-12-31T13:29:23Z</time>
      </trkpt>
      <trkpt lat="41.6091220" lon="-0.8682020">
        <ele>254.5</ele>
        <time>2020-12-31T13:29:24Z</time>
      </trkpt>
      <trkpt lat="41.6090590" lon="-0.8681660">
        <ele>254.3</ele>
        <time>2020-12-31T13:29:25Z</time>
      </trkpt>
      <trkpt lat="41.6089340" lon="-0.8680730">
        <ele>254.4</ele>
        <time>2020-12-31T13:29:27Z</time>
      </trkpt>
      <trkpt lat="41.6088450" lon="-0.8680410">
        <ele>254.6</ele>
        <time>2020-12-31T13:29:29Z</time>
      </trkpt>
      <trkpt lat="41.6088000" lon="-0.8680520">
        <ele>254.6</ele>
        <time>2020-12-31T13:29:30Z</time>
      </trkpt>
      <trkpt lat="41.6087220" lon="-0.8680800">
        <ele>254.8</ele>
        <time>2020-12-31T13:29:32Z</time>
      </trkpt>
      <trkpt lat="41.6086780" lon="-0.8681080">
        <ele>254.9</ele>
        <time>2020-12-31T13:29:33Z</time>
      </trkpt>
      <trkpt lat="41.6085970" lon="-0.8681410">
        <ele>255.1</ele>
        <time>2020-12-31T13:29:34Z</time>
      </trkpt>
      <trkpt lat="41.6085520" lon="-0.8681490">
        <ele>255.2</ele>
        <time>2020-12-31T13:29:35Z</time>
      </trkpt>
      <trkpt lat="41.6084990" lon="-0.8681300">
        <ele>255.4</ele>
        <time>2020-12-31T13:29:37Z</time>
      </trkpt>
      <trkpt lat="41.6084350" lon="-0.8681520">
        <ele>255.6</ele>
        <time>2020-12-31T13:29:38Z</time>
      </trkpt>
      <trkpt lat="41.6083880" lon="-0.8681710">
        <ele>255.9</ele>
        <time>2020-12-31T13:29:39Z</time>
      </trkpt>
      <trkpt lat="41.6083540" lon="-0.8681760">
        <ele>256.0</ele>
        <time>2020-12-31T13:29:40Z</time>
      </trkpt>
      <trkpt lat="41.6083170" lon="-0.8681600">
        <ele>256.2</ele>
        <time>2020-12-31T13:29:42Z</time>
      </trkpt>
      <trkpt lat="41.6082730" lon="-0.8681270">
        <ele>256.4</ele>
        <time>2020-12-31T13:29:43Z</time>
      </trkpt>
      <trkpt lat="41.6082350" lon="-0.8681040">
        <ele>256.6</ele>
        <time>2020-12-31T13:29:44Z</time>
      </trkpt>
      <trkpt lat="41.6082010" lon="-0.8681040">
        <ele>256.8</ele>
        <time>2020-12-31T13:29:45Z</time>
      </trkpt>
      <trkpt lat="41.6081520" lon="-0.8680950">
        <ele>257.1</ele>
        <time>2020-12-31T13:29:46Z</time>
      </trkpt>
      <trkpt lat="41.6080970" lon="-0.8680920">
        <ele>257.4</ele>
        <time>2020-12-31T13:29:48Z</time>
      </trkpt>
      <trkpt lat="41.6080110" lon="-0.8681060">
        <ele>258.0</ele>
        <time>2020-12-31T13:29:49Z</time>
      </trkpt>
      <trkpt lat="41.6079530" lon="-0.8681530">
        <ele>258.5</ele>
        <time>2020-12-31T13:29:51Z</time>
      </trkpt>
      <trkpt lat="41.6078740" lon="-0.8681620">
        <ele>259.3</ele>
        <time>2020-12-31T13:29:52Z</time>
      </trkpt>
      <trkpt lat="41.6078090" lon="-0.8681630">
        <ele>260.0</ele>
        <time>2020-12-31T13:29:53Z</time>
      </trkpt>
      <trkpt lat="41.6077580" lon="-0.8681750">
        <ele>260.7</ele>
        <time>2020-12-31T13:29:55Z</time>
      </trkpt>
      <trkpt lat="41.6077220" lon="-0.8682060">
        <ele>261.3</ele>
        <time>2020-12-31T13:29:57Z</time>
      </trkpt>
      <trkpt lat="41.6076960" lon="-0.8682460">
        <ele>261.8</ele>
        <time>2020-12-31T13:29:58Z</time>
      </trkpt>
      <trkpt lat="41.6076870" lon="-0.8682580">
        <ele>261.9</ele>
        <time>2020-12-31T13:29:59Z</time>
      </trkpt>
      <trkpt lat="41.6076660" lon="-0.8682820">
        <ele>262.2</ele>
        <time>2020-12-31T13:30:00Z</time>
      </trkpt>
      <trkpt lat="41.6076330" lon="-0.8683280">
        <ele>262.7</ele>
        <time>2020-12-31T13:30:02Z</time>
      </trkpt>
      <trkpt lat="41.6076140" lon="-0.8683560">
        <ele>263.0</ele>
        <time>2020-12-31T13:30:03Z</time>
      </trkpt>
      <trkpt lat="41.6075950" lon="-0.8683880">
        <ele>263.2</ele>
        <time>2020-12-31T13:30:04Z</time>
      </trkpt>
      <trkpt lat="41.6075690" lon="-0.8684260">
        <ele>263.5</ele>
        <time>2020-12-31T13:30:05Z</time>
      </trkpt>
      <trkpt lat="41.6075600" lon="-0.8684400">
        <ele>263.6</ele>
        <time>2020-12-31T13:30:06Z</time>
      </trkpt>
      <trkpt lat="41.6075400" lon="-0.8684790">
        <ele>263.9</ele>
        <time>2020-12-31T13:30:08Z</time>
      </trkpt>
      <trkpt lat="41.6075210" lon="-0.8685250">
        <ele>264.2</ele>
        <time>2020-12-31T13:30:10Z</time>
      </trkpt>
      <trkpt lat="41.6075070" lon="-0.8685620">
        <ele>264.4</ele>
        <time>2020-12-31T13:30:11Z</time>
      </trkpt>
      <trkpt lat="41.6074920" lon="-0.8686200">
        <ele>264.6</ele>
        <time>2020-12-31T13:30:13Z</time>
      </trkpt>
      <trkpt lat="41.6074810" lon="-0.8686770">
        <ele>264.8</ele>
        <time>2020-12-31T13:30:14Z</time>
      </trkpt>
      <trkpt lat="41.6074750" lon="-0.8687230">
        <ele>265.0</ele>
        <time>2020-12-31T13:30:15Z</time>
      </trkpt>
      <trkpt lat="41.6074730" lon="-0.8687880">
        <ele>265.1</ele>
        <time>2020-12-31T13:30:17Z</time>
      </trkpt>
      <trkpt lat="41.6074730" lon="-0.8688390">
        <ele>265.2</ele>
        <time>2020-12-31T13:30:18Z</time>
      </trkpt>
      <trkpt lat="41.6074730" lon="-0.8688790">
        <ele>265.2</ele>
        <time>2020-12-31T13:30:19Z</time>
      </trkpt>
      <trkpt lat="41.6074690" lon="-0.8689210">
        <ele>265.3</ele>
        <time>2020-12-31T13:30:20Z</time>
      </trkpt>
      <trkpt lat="41.6074590" lon="-0.8689720">
        <ele>265.4</ele>
        <time>2020-12-31T13:30:21Z</time>
      </trkpt>
      <trkpt lat="41.6074430" lon="-0.8690230">
        <ele>265.4</ele>
        <time>2020-12-31T13:30:23Z</time>
      </trkpt>
      <trkpt lat="41.6074220" lon="-0.8690740">
        <ele>265.3</ele>
        <time>2020-12-31T13:30:24Z</time>
      </trkpt>
      <trkpt lat="41.6073960" lon="-0.8691240">
        <ele>265.2</ele>
        <time>2020-12-31T13:30:25Z</time>
      </trkpt>
      <trkpt lat="41.6073740" lon="-0.8691620">
        <ele>265.1</ele>
        <time>2020-12-31T13:30:26Z</time>
      </trkpt>
      <trkpt lat="41.6073450" lon="-0.8692210">
        <ele>265.0</ele>
        <time>2020-12-31T13:30:28Z</time>
      </trkpt>
      <trkpt lat="41.6073180" lon="-0.8692720">
        <ele>264.8</ele>
        <time>2020-12-31T13:30:29Z</time>
      </trkpt>
      <trkpt lat="41.6072640" lon="-0.8693510">
        <ele>264.7</ele>
        <time>2020-12-31T13:30:30Z</time>
      </trkpt>
      <trkpt lat="41.6072230" lon="-0.8694090">
        <ele>264.6</ele>
        <time>2020-12-31T13:30:31Z</time>
      </trkpt>
      <trkpt lat="41.6071860" lon="-0.8694690">
        <ele>264.5</ele>
        <time>2020-12-31T13:30:32Z</time>
      </trkpt>
      <trkpt lat="41.6071240" lon="-0.8695870">
        <ele>264.5</ele>
        <time>2020-12-31T13:30:34Z</time>
      </trkpt>
      <trkpt lat="41.6070950" lon="-0.8696430">
        <ele>264.6</ele>
        <time>2020-12-31T13:30:35Z</time>
      </trkpt>
      <trkpt lat="41.6070330" lon="-0.8697450">
        <ele>264.8</ele>
        <time>2020-12-31T13:30:37Z</time>
      </trkpt>
      <trkpt lat="41.6069770" lon="-0.8698420">
        <ele>265.0</ele>
        <time>2020-12-31T13:30:39Z</time>
      </trkpt>
      <trkpt lat="41.6069660" lon="-0.8698650">
        <ele>265.0</ele>
        <time>2020-12-31T13:30:40Z</time>
      </trkpt>
      <trkpt lat="41.6069330" lon="-0.8699190">
        <ele>265.1</ele>
        <time>2020-12-31T13:30:42Z</time>
      </trkpt>
      <trkpt lat="41.6068850" lon="-0.8699910">
        <ele>265.2</ele>
        <time>2020-12-31T13:30:43Z</time>
      </trkpt>
      <trkpt lat="41.6068390" lon="-0.8700580">
        <ele>265.3</ele>
        <time>2020-12-31T13:30:45Z</time>
      </trkpt>
      <trkpt lat="41.6068010" lon="-0.8701190">
        <ele>265.4</ele>
        <time>2020-12-31T13:30:46Z</time>
      </trkpt>
      <trkpt lat="41.6067420" lon="-0.8702040">
        <ele>265.5</ele>
        <time>2020-12-31T13:30:48Z</time>
      </trkpt>
      <trkpt lat="41.6067150" lon="-0.8702800">
        <ele>265.6</ele>
        <time>2020-12-31T13:30:50Z</time>
      </trkpt>
      <trkpt lat="41.6067410" lon="-0.8703320">
        <ele>265.7</ele>
        <time>2020-12-31T13:30:51Z</time>
      </trkpt>
      <trkpt lat="41.6067110" lon="-0.8703960">
        <ele>265.8</ele>
        <time>2020-12-31T13:30:52Z</time>
      </trkpt>
      <trkpt lat="41.6066750" lon="-0.8704550">
        <ele>265.7</ele>
        <time>2020-12-31T13:30:53Z</time>
      </trkpt>
      <trkpt lat="41.6065900" lon="-0.8704530">
        <ele>265.5</ele>
        <time>2020-12-31T13:30:55Z</time>
      </trkpt>
      <trkpt lat="41.6065450" lon="-0.8704060">
        <ele>265.4</ele>
        <time>2020-12-31T13:30:56Z</time>
      </trkpt>
      <trkpt lat="41.6064760" lon="-0.8703200">
        <ele>265.2</ele>
        <time>2020-12-31T13:30:57Z</time>
      </trkpt>
      <trkpt lat="41.6064010" lon="-0.8702310">
        <ele>265.0</ele>
        <time>2020-12-31T13:30:59Z</time>
      </trkpt>
      <trkpt lat="41.6063600" lon="-0.8701990">
        <ele>265.0</ele>
        <time>2020-12-31T13:31:00Z</time>
      </trkpt>
      <trkpt lat="41.6062780" lon="-0.8701170">
        <ele>264.9</ele>
        <time>2020-12-31T13:31:02Z</time>
      </trkpt>
      <trkpt lat="41.6062000" lon="-0.8700310">
        <ele>264.9</ele>
        <time>2020-12-31T13:31:04Z</time>
      </trkpt>
      <trkpt lat="41.6061560" lon="-0.8699920">
        <ele>264.9</ele>
        <time>2020-12-31T13:31:05Z</time>
      </trkpt>
      <trkpt lat="41.6060780" lon="-0.8699140">
        <ele>265.1</ele>
        <time>2020-12-31T13:31:07Z</time>
      </trkpt>
      <trkpt lat="41.6060180" lon="-0.8698400">
        <ele>265.4</ele>
        <time>2020-12-31T13:31:09Z</time>
      </trkpt>
      <trkpt lat="41.6059890" lon="-0.8698080">
        <ele>265.5</ele>
        <time>2020-12-31T13:31:10Z</time>
      </trkpt>
      <trkpt lat="41.6059310" lon="-0.8697480">
        <ele>265.8</ele>
        <time>2020-12-31T13:31:12Z</time>
      </trkpt>
      <trkpt lat="41.6058700" lon="-0.8696700">
        <ele>266.2</ele>
        <time>2020-12-31T13:31:14Z</time>
      </trkpt>
      <trkpt lat="41.6058090" lon="-0.8696120">
        <ele>266.6</ele>
        <time>2020-12-31T13:31:15Z</time>
      </trkpt>
      <trkpt lat="41.6057870" lon="-0.8695540">
        <ele>266.9</ele>
        <time>2020-12-31T13:31:17Z</time>
      </trkpt>
      <trkpt lat="41.6057720" lon="-0.8695020">
        <ele>267.0</ele>
        <time>2020-12-31T13:31:18Z</time>
      </trkpt>
      <trkpt lat="41.6057580" lon="-0.8694520">
        <ele>267.1</ele>
        <time>2020-12-31T13:31:19Z</time>
      </trkpt>
      <trkpt lat="41.6057310" lon="-0.8693870">
        <ele>267.2</ele>
        <time>2020-12-31T13:31:21Z</time>
      </trkpt>
      <trkpt lat="41.6057110" lon="-0.8693350">
        <ele>267.3</ele>
        <time>2020-12-31T13:31:22Z</time>
      </trkpt>
      <trkpt lat="41.6056860" lon="-0.8692870">
        <ele>267.3</ele>
        <time>2020-12-31T13:31:23Z</time>
      </trkpt>
      <trkpt lat="41.6056150" lon="-0.8691900">
        <ele>267.4</ele>
        <time>2020-12-31T13:31:25Z</time>
      </trkpt>
      <trkpt lat="41.6055770" lon="-0.8691330">
        <ele>267.4</ele>
        <time>2020-12-31T13:31:26Z</time>
      </trkpt>
      <trkpt lat="41.6054920" lon="-0.8690210">
        <ele>267.3</ele>
        <time>2020-12-31T13:31:28Z</time>
      </trkpt>
      <trkpt lat="41.6053990" lon="-0.8689140">
        <ele>267.3</ele>
        <time>2020-12-31T13:31:30Z</time>
      </trkpt>
      <trkpt lat="41.6053510" lon="-0.8688620">
        <ele>267.4</ele>
        <time>2020-12-31T13:31:31Z</time>
      </trkpt>
      <trkpt lat="41.6053130" lon="-0.8688020">
        <ele>267.5</ele>
        <time>2020-12-31T13:31:32Z</time>
      </trkpt>
      <trkpt lat="41.6052330" lon="-0.8687050">
        <ele>267.7</ele>
        <time>2020-12-31T13:31:34Z</time>
      </trkpt>
      <trkpt lat="41.6051570" lon="-0.8686150">
        <ele>268.1</ele>
        <time>2020-12-31T13:31:36Z</time>
      </trkpt>
      <trkpt lat="41.6051240" lon="-0.8685660">
        <ele>268.3</ele>
        <time>2020-12-31T13:31:37Z</time>
      </trkpt>
      <trkpt lat="41.6050700" lon="-0.8684950">
        <ele>268.9</ele>
        <time>2020-12-31T13:31:39Z</time>
      </trkpt>
      <trkpt lat="41.6050470" lon="-0.8684680">
        <ele>269.1</ele>
        <time>2020-12-31T13:31:40Z</time>
      </trkpt>
      <trkpt lat="41.6049830" lon="-0.8683950">
        <ele>269.8</ele>
        <time>2020-12-31T13:31:42Z</time>
      </trkpt>
      <trkpt lat="41.6049340" lon="-0.8683400">
        <ele>270.4</ele>
        <time>2020-12-31T13:31:44Z</time>
      </trkpt>
      <trkpt lat="41.6048720" lon="-0.8682710">
        <ele>271.1</ele>
        <time>2020-12-31T13:31:45Z</time>
      </trkpt>
      <trkpt lat="41.6048540" lon="-0.8682450">
        <ele>271.3</ele>
        <time>2020-12-31T13:31:46Z</time>
      </trkpt>
      <trkpt lat="41.6048270" lon="-0.8682160">
        <ele>271.6</ele>
        <time>2020-12-31T13:31:47Z</time>
      </trkpt>
      <trkpt lat="41.6048000" lon="-0.8681840">
        <ele>271.9</ele>
        <time>2020-12-31T13:31:48Z</time>
      </trkpt>
      <trkpt lat="41.6047630" lon="-0.8681460">
        <ele>272.2</ele>
        <time>2020-12-31T13:31:49Z</time>
      </trkpt>
      <trkpt lat="41.6047250" lon="-0.8681060">
        <ele>272.6</ele>
        <time>2020-12-31T13:31:51Z</time>
      </trkpt>
      <trkpt lat="41.6046920" lon="-0.8680670">
        <ele>272.9</ele>
        <time>2020-12-31T13:31:52Z</time>
      </trkpt>
      <trkpt lat="41.6046590" lon="-0.8680290">
        <ele>273.2</ele>
        <time>2020-12-31T13:31:53Z</time>
      </trkpt>
      <trkpt lat="41.6046320" lon="-0.8679970">
        <ele>273.5</ele>
        <time>2020-12-31T13:31:54Z</time>
      </trkpt>
      <trkpt lat="41.6046060" lon="-0.8679650">
        <ele>273.7</ele>
        <time>2020-12-31T13:31:55Z</time>
      </trkpt>
      <trkpt lat="41.6045650" lon="-0.8679160">
        <ele>274.2</ele>
        <time>2020-12-31T13:31:57Z</time>
      </trkpt>
      <trkpt lat="41.6045430" lon="-0.8678930">
        <ele>274.4</ele>
        <time>2020-12-31T13:31:58Z</time>
      </trkpt>
      <trkpt lat="41.6045130" lon="-0.8678580">
        <ele>274.7</ele>
        <time>2020-12-31T13:31:59Z</time>
      </trkpt>
      <trkpt lat="41.6044920" lon="-0.8678330">
        <ele>275.0</ele>
        <time>2020-12-31T13:32:01Z</time>
      </trkpt>
      <trkpt lat="41.6044720" lon="-0.8678090">
        <ele>275.2</ele>
        <time>2020-12-31T13:32:02Z</time>
      </trkpt>
      <trkpt lat="41.6044450" lon="-0.8677750">
        <ele>275.5</ele>
        <time>2020-12-31T13:32:03Z</time>
      </trkpt>
      <trkpt lat="41.6044130" lon="-0.8677380">
        <ele>275.9</ele>
        <time>2020-12-31T13:32:05Z</time>
      </trkpt>
      <trkpt lat="41.6043820" lon="-0.8676990">
        <ele>276.2</ele>
        <time>2020-12-31T13:32:06Z</time>
      </trkpt>
      <trkpt lat="41.6043700" lon="-0.8676830">
        <ele>276.4</ele>
        <time>2020-12-31T13:32:07Z</time>
      </trkpt>
      <trkpt lat="41.6043410" lon="-0.8676350">
        <ele>276.8</ele>
        <time>2020-12-31T13:32:09Z</time>
      </trkpt>
      <trkpt lat="41.6043150" lon="-0.8676010">
        <ele>277.1</ele>
        <time>2020-12-31T13:32:10Z</time>
      </trkpt>
      <trkpt lat="41.6043050" lon="-0.8675910">
        <ele>277.2</ele>
        <time>2020-12-31T13:32:11Z</time>
      </trkpt>
      <trkpt lat="41.6042820" lon="-0.8675600">
        <ele>277.5</ele>
        <time>2020-12-31T13:32:12Z</time>
      </trkpt>
      <trkpt lat="41.6042570" lon="-0.8675220">
        <ele>277.8</ele>
        <time>2020-12-31T13:32:14Z</time>
      </trkpt>
      <trkpt lat="41.6042470" lon="-0.8675090">
        <ele>277.9</ele>
        <time>2020-12-31T13:32:15Z</time>
      </trkpt>
      <trkpt lat="41.6042250" lon="-0.8674820">
        <ele>278.2</ele>
        <time>2020-12-31T13:32:16Z</time>
      </trkpt>
      <trkpt lat="41.6041980" lon="-0.8674490">
        <ele>278.5</ele>
        <time>2020-12-31T13:32:18Z</time>
      </trkpt>
      <trkpt lat="41.6041770" lon="-0.8674260">
        <ele>278.7</ele>
        <time>2020-12-31T13:32:19Z</time>
      </trkpt>
      <trkpt lat="41.6041470" lon="-0.8673860">
        <ele>279.1</ele>
        <time>2020-12-31T13:32:21Z</time>
      </trkpt>
      <trkpt lat="41.6041360" lon="-0.8673730">
        <ele>279.2</ele>
        <time>2020-12-31T13:32:22Z</time>
      </trkpt>
      <trkpt lat="41.6041250" lon="-0.8673590">
        <ele>279.3</ele>
        <time>2020-12-31T13:32:23Z</time>
      </trkpt>
      <trkpt lat="41.6041010" lon="-0.8673350">
        <ele>279.6</ele>
        <time>2020-12-31T13:32:24Z</time>
      </trkpt>
      <trkpt lat="41.6040900" lon="-0.8673250">
        <ele>279.7</ele>
        <time>2020-12-31T13:32:25Z</time>
      </trkpt>
      <trkpt lat="41.6040740" lon="-0.8673050">
        <ele>279.8</ele>
        <time>2020-12-31T13:32:26Z</time>
      </trkpt>
      <trkpt lat="41.6040540" lon="-0.8672750">
        <ele>280.1</ele>
        <time>2020-12-31T13:32:28Z</time>
      </trkpt>
      <trkpt lat="41.6040350" lon="-0.8672450">
        <ele>280.3</ele>
        <time>2020-12-31T13:32:29Z</time>
      </trkpt>
      <trkpt lat="41.6040050" lon="-0.8672040">
        <ele>280.6</ele>
        <time>2020-12-31T13:32:31Z</time>
      </trkpt>
      <trkpt lat="41.6039700" lon="-0.8671700">
        <ele>280.9</ele>
        <time>2020-12-31T13:32:32Z</time>
      </trkpt>
      <trkpt lat="41.6039560" lon="-0.8671560">
        <ele>281.0</ele>
        <time>2020-12-31T13:32:33Z</time>
      </trkpt>
      <trkpt lat="41.6039280" lon="-0.8671200">
        <ele>281.3</ele>
        <time>2020-12-31T13:32:34Z</time>
      </trkpt>
      <trkpt lat="41.6039190" lon="-0.8671080">
        <ele>281.4</ele>
        <time>2020-12-31T13:32:35Z</time>
      </trkpt>
      <trkpt lat="41.6038910" lon="-0.8670800">
        <ele>281.6</ele>
        <time>2020-12-31T13:32:37Z</time>
      </trkpt>
      <trkpt lat="41.6038670" lon="-0.8670590">
        <ele>281.7</ele>
        <time>2020-12-31T13:32:38Z</time>
      </trkpt>
      <trkpt lat="41.6038310" lon="-0.8670290">
        <ele>282.0</ele>
        <time>2020-12-31T13:32:40Z</time>
      </trkpt>
      <trkpt lat="41.6038050" lon="-0.8670110">
        <ele>282.1</ele>
        <time>2020-12-31T13:32:41Z</time>
      </trkpt>
      <trkpt lat="41.6037750" lon="-0.8669880">
        <ele>282.3</ele>
        <time>2020-12-31T13:32:42Z</time>
      </trkpt>
      <trkpt lat="41.6037450" lon="-0.8669650">
        <ele>282.5</ele>
        <time>2020-12-31T13:32:43Z</time>
      </trkpt>
      <trkpt lat="41.6037220" lon="-0.8669460">
        <ele>282.6</ele>
        <time>2020-12-31T13:32:44Z</time>
      </trkpt>
      <trkpt lat="41.6036980" lon="-0.8669250">
        <ele>282.8</ele>
        <time>2020-12-31T13:32:45Z</time>
      </trkpt>
      <trkpt lat="41.6036670" lon="-0.8668910">
        <ele>283.0</ele>
        <time>2020-12-31T13:32:47Z</time>
      </trkpt>
      <trkpt lat="41.6036570" lon="-0.8668790">
        <ele>283.0</ele>
        <time>2020-12-31T13:32:48Z</time>
      </trkpt>
      <trkpt lat="41.6036360" lon="-0.8668540">
        <ele>283.2</ele>
        <time>2020-12-31T13:32:49Z</time>
      </trkpt>
      <trkpt lat="41.6036140" lon="-0.8668310">
        <ele>283.3</ele>
        <time>2020-12-31T13:32:50Z</time>
      </trkpt>
      <trkpt lat="41.6035930" lon="-0.8668120">
        <ele>283.5</ele>
        <time>2020-12-31T13:32:51Z</time>
      </trkpt>
      <trkpt lat="41.6035540" lon="-0.8667740">
        <ele>283.7</ele>
        <time>2020-12-31T13:32:53Z</time>
      </trkpt>
      <trkpt lat="41.6035230" lon="-0.8667450">
        <ele>283.9</ele>
        <time>2020-12-31T13:32:54Z</time>
      </trkpt>
      <trkpt lat="41.6035120" lon="-0.8667360">
        <ele>283.9</ele>
        <time>2020-12-31T13:32:55Z</time>
      </trkpt>
      <trkpt lat="41.6034860" lon="-0.8667180">
        <ele>284.0</ele>
        <time>2020-12-31T13:32:56Z</time>
      </trkpt>
      <trkpt lat="41.6034610" lon="-0.8667040">
        <ele>284.2</ele>
        <time>2020-12-31T13:32:57Z</time>
      </trkpt>
      <trkpt lat="41.6034190" lon="-0.8666860">
        <ele>284.3</ele>
        <time>2020-12-31T13:32:59Z</time>
      </trkpt>
      <trkpt lat="41.6033770" lon="-0.8666730">
        <ele>284.4</ele>
        <time>2020-12-31T13:33:00Z</time>
      </trkpt>
      <trkpt lat="41.6033440" lon="-0.8666700">
        <ele>284.5</ele>
        <time>2020-12-31T13:33:01Z</time>
      </trkpt>
      <trkpt lat="41.6032890" lon="-0.8666650">
        <ele>284.7</ele>
        <time>2020-12-31T13:33:03Z</time>
      </trkpt>
      <trkpt lat="41.6032490" lon="-0.8666650">
        <ele>284.7</ele>
        <time>2020-12-31T13:33:04Z</time>
      </trkpt>
      <trkpt lat="41.6032090" lon="-0.8666690">
        <ele>284.8</ele>
        <time>2020-12-31T13:33:05Z</time>
      </trkpt>
      <trkpt lat="41.6031710" lon="-0.8666730">
        <ele>284.9</ele>
        <time>2020-12-31T13:33:06Z</time>
      </trkpt>
      <trkpt lat="41.6031180" lon="-0.8666800">
        <ele>285.1</ele>
        <time>2020-12-31T13:33:08Z</time>
      </trkpt>
      <trkpt lat="41.6030710" lon="-0.8666890">
        <ele>285.2</ele>
        <time>2020-12-31T13:33:09Z</time>
      </trkpt>
      <trkpt lat="41.6029990" lon="-0.8667040">
        <ele>285.3</ele>
        <time>2020-12-31T13:33:11Z</time>
      </trkpt>
      <trkpt lat="41.6029480" lon="-0.8667150">
        <ele>285.4</ele>
        <time>2020-12-31T13:33:13Z</time>
      </trkpt>
      <trkpt lat="41.6029020" lon="-0.8667220">
        <ele>285.5</ele>
        <time>2020-12-31T13:33:14Z</time>
      </trkpt>
      <trkpt lat="41.6028810" lon="-0.8667240">
        <ele>285.5</ele>
        <time>2020-12-31T13:33:15Z</time>
      </trkpt>
      <trkpt lat="41.6028320" lon="-0.8667280">
        <ele>285.6</ele>
        <time>2020-12-31T13:33:16Z</time>
      </trkpt>
      <trkpt lat="41.6027780" lon="-0.8667350">
        <ele>285.7</ele>
        <time>2020-12-31T13:33:18Z</time>
      </trkpt>
      <trkpt lat="41.6027210" lon="-0.8667470">
        <ele>285.8</ele>
        <time>2020-12-31T13:33:19Z</time>
      </trkpt>
      <trkpt lat="41.6026620" lon="-0.8667510">
        <ele>285.9</ele>
        <time>2020-12-31T13:33:20Z</time>
      </trkpt>
      <trkpt lat="41.6026040" lon="-0.8667570">
        <ele>286.0</ele>
        <time>2020-12-31T13:33:22Z</time>
      </trkpt>
      <trkpt lat="41.6025560" lon="-0.8667640">
        <ele>286.1</ele>
        <time>2020-12-31T13:33:23Z</time>
      </trkpt>
      <trkpt lat="41.6024940" lon="-0.8667750">
        <ele>286.2</ele>
        <time>2020-12-31T13:33:25Z</time>
      </trkpt>
      <trkpt lat="41.6024370" lon="-0.8667770">
        <ele>286.3</ele>
        <time>2020-12-31T13:33:26Z</time>
      </trkpt>
      <trkpt lat="41.6023790" lon="-0.8667790">
        <ele>286.4</ele>
        <time>2020-12-31T13:33:27Z</time>
      </trkpt>
      <trkpt lat="41.6023330" lon="-0.8667800">
        <ele>286.6</ele>
        <time>2020-12-31T13:33:28Z</time>
      </trkpt>
      <trkpt lat="41.6022930" lon="-0.8667820">
        <ele>286.7</ele>
        <time>2020-12-31T13:33:29Z</time>
      </trkpt>
      <trkpt lat="41.6022340" lon="-0.8667900">
        <ele>286.9</ele>
        <time>2020-12-31T13:33:30Z</time>
      </trkpt>
      <trkpt lat="41.6021910" lon="-0.8668050">
        <ele>287.1</ele>
        <time>2020-12-31T13:33:31Z</time>
      </trkpt>
      <trkpt lat="41.6021480" lon="-0.8668210">
        <ele>287.3</ele>
        <time>2020-12-31T13:33:33Z</time>
      </trkpt>
      <trkpt lat="41.6021160" lon="-0.8668290">
        <ele>287.5</ele>
        <time>2020-12-31T13:33:34Z</time>
      </trkpt>
      <trkpt lat="41.6020860" lon="-0.8668380">
        <ele>287.7</ele>
        <time>2020-12-31T13:33:35Z</time>
      </trkpt>
      <trkpt lat="41.6020580" lon="-0.8668460">
        <ele>287.8</ele>
        <time>2020-12-31T13:33:36Z</time>
      </trkpt>
      <trkpt lat="41.6020180" lon="-0.8668470">
        <ele>288.1</ele>
        <time>2020-12-31T13:33:37Z</time>
      </trkpt>
      <trkpt lat="41.6019820" lon="-0.8668360">
        <ele>288.3</ele>
        <time>2020-12-31T13:33:38Z</time>
      </trkpt>
      <trkpt lat="41.6019270" lon="-0.8668220">
        <ele>288.6</ele>
        <time>2020-12-31T13:33:40Z</time>
      </trkpt>
      <trkpt lat="41.6018940" lon="-0.8668290">
        <ele>288.9</ele>
        <time>2020-12-31T13:33:41Z</time>
      </trkpt>
      <trkpt lat="41.6018520" lon="-0.8668600">
        <ele>289.1</ele>
        <time>2020-12-31T13:33:43Z</time>
      </trkpt>
      <trkpt lat="41.6018160" lon="-0.8669020">
        <ele>289.3</ele>
        <time>2020-12-31T13:33:44Z</time>
      </trkpt>
      <trkpt lat="41.6017710" lon="-0.8669520">
        <ele>289.8</ele>
        <time>2020-12-31T13:33:46Z</time>
      </trkpt>
      <trkpt lat="41.6017450" lon="-0.8669840">
        <ele>289.6</ele>
        <time>2020-12-31T13:33:47Z</time>
      </trkpt>
      <trkpt lat="41.6017040" lon="-0.8670280">
        <ele>290.1</ele>
        <time>2020-12-31T13:33:48Z</time>
      </trkpt>
      <trkpt lat="41.6016700" lon="-0.8670630">
        <ele>290.3</ele>
        <time>2020-12-31T13:33:50Z</time>
      </trkpt>
      <trkpt lat="41.6016440" lon="-0.8670840">
        <ele>290.5</ele>
        <time>2020-12-31T13:33:51Z</time>
      </trkpt>
      <trkpt lat="41.6016190" lon="-0.8671040">
        <ele>290.4</ele>
        <time>2020-12-31T13:33:52Z</time>
      </trkpt>
      <trkpt lat="41.6015870" lon="-0.8671300">
        <ele>290.6</ele>
        <time>2020-12-31T13:33:53Z</time>
      </trkpt>
      <trkpt lat="41.6015540" lon="-0.8671590">
        <ele>290.7</ele>
        <time>2020-12-31T13:33:55Z</time>
      </trkpt>
      <trkpt lat="41.6015140" lon="-0.8671870">
        <ele>291.2</ele>
        <time>2020-12-31T13:33:56Z</time>
      </trkpt>
      <trkpt lat="41.6014480" lon="-0.8672340">
        <ele>291.7</ele>
        <time>2020-12-31T13:33:57Z</time>
      </trkpt>
      <trkpt lat="41.6014000" lon="-0.8672680">
        <ele>291.8</ele>
        <time>2020-12-31T13:33:58Z</time>
      </trkpt>
      <trkpt lat="41.6013550" lon="-0.8673040">
        <ele>292.1</ele>
        <time>2020-12-31T13:33:59Z</time>
      </trkpt>
      <trkpt lat="41.6013000" lon="-0.8673410">
        <ele>292.3</ele>
        <time>2020-12-31T13:34:01Z</time>
      </trkpt>
      <trkpt lat="41.6012760" lon="-0.8673150">
        <ele>292.2</ele>
        <time>2020-12-31T13:34:02Z</time>
      </trkpt>
      <trkpt lat="41.6012300" lon="-0.8673750">
        <ele>292.4</ele>
        <time>2020-12-31T13:34:04Z</time>
      </trkpt>
      <trkpt lat="41.6011960" lon="-0.8674120">
        <ele>292.6</ele>
        <time>2020-12-31T13:34:05Z</time>
      </trkpt>
      <trkpt lat="41.6011590" lon="-0.8674400">
        <ele>292.8</ele>
        <time>2020-12-31T13:34:06Z</time>
      </trkpt>
      <trkpt lat="41.6010800" lon="-0.8674960">
        <ele>293.2</ele>
        <time>2020-12-31T13:34:08Z</time>
      </trkpt>
      <trkpt lat="41.6010250" lon="-0.8675350">
        <ele>293.4</ele>
        <time>2020-12-31T13:34:09Z</time>
      </trkpt>
      <trkpt lat="41.6009770" lon="-0.8675640">
        <ele>293.4</ele>
        <time>2020-12-31T13:34:10Z</time>
      </trkpt>
      <trkpt lat="41.6009290" lon="-0.8675940">
        <ele>293.5</ele>
        <time>2020-12-31T13:34:11Z</time>
      </trkpt>
      <trkpt lat="41.6008290" lon="-0.8676610">
        <ele>293.4</ele>
        <time>2020-12-31T13:34:13Z</time>
      </trkpt>
      <trkpt lat="41.6007840" lon="-0.8676900">
        <ele>293.3</ele>
        <time>2020-12-31T13:34:14Z</time>
      </trkpt>
      <trkpt lat="41.6007530" lon="-0.8677110">
        <ele>293.2</ele>
        <time>2020-12-31T13:34:15Z</time>
      </trkpt>
      <trkpt lat="41.6007170" lon="-0.8677340">
        <ele>293.0</ele>
        <time>2020-12-31T13:34:16Z</time>
      </trkpt>
      <trkpt lat="41.6006820" lon="-0.8677670">
        <ele>292.9</ele>
        <time>2020-12-31T13:34:17Z</time>
      </trkpt>
      <trkpt lat="41.6006330" lon="-0.8678090">
        <ele>292.7</ele>
        <time>2020-12-31T13:34:19Z</time>
      </trkpt>
      <trkpt lat="41.6005820" lon="-0.8678630">
        <ele>292.6</ele>
        <time>2020-12-31T13:34:20Z</time>
      </trkpt>
      <trkpt lat="41.6005320" lon="-0.8678910">
        <ele>292.7</ele>
        <time>2020-12-31T13:34:22Z</time>
      </trkpt>
      <trkpt lat="41.6005070" lon="-0.8679020">
        <ele>292.7</ele>
        <time>2020-12-31T13:34:23Z</time>
      </trkpt>
      <trkpt lat="41.6004750" lon="-0.8679640">
        <ele>292.7</ele>
        <time>2020-12-31T13:34:25Z</time>
      </trkpt>
      <trkpt lat="41.6004430" lon="-0.8680280">
        <ele>292.7</ele>
        <time>2020-12-31T13:34:26Z</time>
      </trkpt>
      <trkpt lat="41.6004100" lon="-0.8680960">
        <ele>292.8</ele>
        <time>2020-12-31T13:34:27Z</time>
      </trkpt>
      <trkpt lat="41.6003750" lon="-0.8681810">
        <ele>292.9</ele>
        <time>2020-12-31T13:34:29Z</time>
      </trkpt>
      <trkpt lat="41.6003550" lon="-0.8682310">
        <ele>293.0</ele>
        <time>2020-12-31T13:34:30Z</time>
      </trkpt>
      <trkpt lat="41.6003340" lon="-0.8682880">
        <ele>293.3</ele>
        <time>2020-12-31T13:34:31Z</time>
      </trkpt>
      <trkpt lat="41.6003190" lon="-0.8683380">
        <ele>293.6</ele>
        <time>2020-12-31T13:34:33Z</time>
      </trkpt>
      <trkpt lat="41.6003080" lon="-0.8683850">
        <ele>293.8</ele>
        <time>2020-12-31T13:34:34Z</time>
      </trkpt>
      <trkpt lat="41.6002970" lon="-0.8684330">
        <ele>294.1</ele>
        <time>2020-12-31T13:34:35Z</time>
      </trkpt>
      <trkpt lat="41.6002870" lon="-0.8684720">
        <ele>294.3</ele>
        <time>2020-12-31T13:34:36Z</time>
      </trkpt>
      <trkpt lat="41.6002670" lon="-0.8685300">
        <ele>294.7</ele>
        <time>2020-12-31T13:34:38Z</time>
      </trkpt>
      <trkpt lat="41.6002580" lon="-0.8685460">
        <ele>294.9</ele>
        <time>2020-12-31T13:34:39Z</time>
      </trkpt>
      <trkpt lat="41.6002490" lon="-0.8685610">
        <ele>295.0</ele>
        <time>2020-12-31T13:34:41Z</time>
      </trkpt>
      <trkpt lat="41.6002400" lon="-0.8685770">
        <ele>295.1</ele>
        <time>2020-12-31T13:34:42Z</time>
      </trkpt>
      <trkpt lat="41.6002310" lon="-0.8685920">
        <ele>295.3</ele>
        <time>2020-12-31T13:34:43Z</time>
      </trkpt>
      <trkpt lat="41.6002160" lon="-0.8686420">
        <ele>295.6</ele>
        <time>2020-12-31T13:34:44Z</time>
      </trkpt>
      <trkpt lat="41.6001960" lon="-0.8687050">
        <ele>296.1</ele>
        <time>2020-12-31T13:34:45Z</time>
      </trkpt>
      <trkpt lat="41.6001680" lon="-0.8687890">
        <ele>296.8</ele>
        <time>2020-12-31T13:34:47Z</time>
      </trkpt>
      <trkpt lat="41.6001540" lon="-0.8688500">
        <ele>297.2</ele>
        <time>2020-12-31T13:34:48Z</time>
      </trkpt>
      <trkpt lat="41.6001370" lon="-0.8689130">
        <ele>297.6</ele>
        <time>2020-12-31T13:34:49Z</time>
      </trkpt>
      <trkpt lat="41.6001210" lon="-0.8689700">
        <ele>298.0</ele>
        <time>2020-12-31T13:34:51Z</time>
      </trkpt>
      <trkpt lat="41.6001050" lon="-0.8690220">
        <ele>298.4</ele>
        <time>2020-12-31T13:34:52Z</time>
      </trkpt>
      <trkpt lat="41.6000920" lon="-0.8690740">
        <ele>298.8</ele>
        <time>2020-12-31T13:34:53Z</time>
      </trkpt>
      <trkpt lat="41.6000770" lon="-0.8691280">
        <ele>299.2</ele>
        <time>2020-12-31T13:34:54Z</time>
      </trkpt>
      <trkpt lat="41.6000620" lon="-0.8691900">
        <ele>299.6</ele>
        <time>2020-12-31T13:34:55Z</time>
      </trkpt>
      <trkpt lat="41.6000470" lon="-0.8692390">
        <ele>300.0</ele>
        <time>2020-12-31T13:34:56Z</time>
      </trkpt>
      <trkpt lat="41.6000320" lon="-0.8693010">
        <ele>300.5</ele>
        <time>2020-12-31T13:34:58Z</time>
      </trkpt>
      <trkpt lat="41.6000080" lon="-0.8693550">
        <ele>300.9</ele>
        <time>2020-12-31T13:34:59Z</time>
      </trkpt>
      <trkpt lat="41.5999830" lon="-0.8694130">
        <ele>301.4</ele>
        <time>2020-12-31T13:35:01Z</time>
      </trkpt>
      <trkpt lat="41.5999410" lon="-0.8694690">
        <ele>302.0</ele>
        <time>2020-12-31T13:35:03Z</time>
      </trkpt>
      <trkpt lat="41.5999120" lon="-0.8695020">
        <ele>302.4</ele>
        <time>2020-12-31T13:35:04Z</time>
      </trkpt>
      <trkpt lat="41.5998720" lon="-0.8695260">
        <ele>302.9</ele>
        <time>2020-12-31T13:35:05Z</time>
      </trkpt>
      <trkpt lat="41.5998300" lon="-0.8695580">
        <ele>303.4</ele>
        <time>2020-12-31T13:35:06Z</time>
      </trkpt>
      <trkpt lat="41.5998120" lon="-0.8695990">
        <ele>303.7</ele>
        <time>2020-12-31T13:35:08Z</time>
      </trkpt>
      <trkpt lat="41.5997970" lon="-0.8696350">
        <ele>304.0</ele>
        <time>2020-12-31T13:35:09Z</time>
      </trkpt>
      <trkpt lat="41.5997760" lon="-0.8696650">
        <ele>304.3</ele>
        <time>2020-12-31T13:35:10Z</time>
      </trkpt>
      <trkpt lat="41.5997480" lon="-0.8696870">
        <ele>304.6</ele>
        <time>2020-12-31T13:35:11Z</time>
      </trkpt>
      <trkpt lat="41.5997260" lon="-0.8697190">
        <ele>304.9</ele>
        <time>2020-12-31T13:35:12Z</time>
      </trkpt>
      <trkpt lat="41.5997070" lon="-0.8697700">
        <ele>305.2</ele>
        <time>2020-12-31T13:35:14Z</time>
      </trkpt>
      <trkpt lat="41.5996910" lon="-0.8698060">
        <ele>305.5</ele>
        <time>2020-12-31T13:35:15Z</time>
      </trkpt>
      <trkpt lat="41.5996690" lon="-0.8698460">
        <ele>305.8</ele>
        <time>2020-12-31T13:35:16Z</time>
      </trkpt>
      <trkpt lat="41.5996480" lon="-0.8698890">
        <ele>306.0</ele>
        <time>2020-12-31T13:35:18Z</time>
      </trkpt>
      <trkpt lat="41.5996400" lon="-0.8699060">
        <ele>306.1</ele>
        <time>2020-12-31T13:35:19Z</time>
      </trkpt>
      <trkpt lat="41.5996240" lon="-0.8699370">
        <ele>306.3</ele>
        <time>2020-12-31T13:35:20Z</time>
      </trkpt>
      <trkpt lat="41.5996110" lon="-0.8699780">
        <ele>306.5</ele>
        <time>2020-12-31T13:35:21Z</time>
      </trkpt>
      <trkpt lat="41.5996060" lon="-0.8699930">
        <ele>306.6</ele>
        <time>2020-12-31T13:35:22Z</time>
      </trkpt>
      <trkpt lat="41.5995900" lon="-0.8700400">
        <ele>306.8</ele>
        <time>2020-12-31T13:35:23Z</time>
      </trkpt>
      <trkpt lat="41.5995840" lon="-0.8700570">
        <ele>306.8</ele>
        <time>2020-12-31T13:35:24Z</time>
      </trkpt>
      <trkpt lat="41.5995720" lon="-0.8700930">
        <ele>306.9</ele>
        <time>2020-12-31T13:35:26Z</time>
      </trkpt>
      <trkpt lat="41.5995600" lon="-0.8701290">
        <ele>307.0</ele>
        <time>2020-12-31T13:35:27Z</time>
      </trkpt>
      <trkpt lat="41.5995470" lon="-0.8701610">
        <ele>307.1</ele>
        <time>2020-12-31T13:35:28Z</time>
      </trkpt>
      <trkpt lat="41.5995330" lon="-0.8702010">
        <ele>307.2</ele>
        <time>2020-12-31T13:35:29Z</time>
      </trkpt>
      <trkpt lat="41.5995190" lon="-0.8702490">
        <ele>307.3</ele>
        <time>2020-12-31T13:35:30Z</time>
      </trkpt>
      <trkpt lat="41.5995130" lon="-0.8702620">
        <ele>307.4</ele>
        <time>2020-12-31T13:35:31Z</time>
      </trkpt>
      <trkpt lat="41.5994900" lon="-0.8703120">
        <ele>307.5</ele>
        <time>2020-12-31T13:35:33Z</time>
      </trkpt>
      <trkpt lat="41.5994820" lon="-0.8703310">
        <ele>307.5</ele>
        <time>2020-12-31T13:35:34Z</time>
      </trkpt>
      <trkpt lat="41.5994740" lon="-0.8703490">
        <ele>307.5</ele>
        <time>2020-12-31T13:35:35Z</time>
      </trkpt>
      <trkpt lat="41.5994640" lon="-0.8703720">
        <ele>307.6</ele>
        <time>2020-12-31T13:35:36Z</time>
      </trkpt>
      <trkpt lat="41.5994450" lon="-0.8704050">
        <ele>307.7</ele>
        <time>2020-12-31T13:35:38Z</time>
      </trkpt>
      <trkpt lat="41.5994270" lon="-0.8704430">
        <ele>307.7</ele>
        <time>2020-12-31T13:35:39Z</time>
      </trkpt>
      <trkpt lat="41.5994220" lon="-0.8704530">
        <ele>307.8</ele>
        <time>2020-12-31T13:35:40Z</time>
      </trkpt>
      <trkpt lat="41.5993990" lon="-0.8705040">
        <ele>307.9</ele>
        <time>2020-12-31T13:35:42Z</time>
      </trkpt>
      <trkpt lat="41.5993830" lon="-0.8705310">
        <ele>307.9</ele>
        <time>2020-12-31T13:35:43Z</time>
      </trkpt>
      <trkpt lat="41.5993670" lon="-0.8705600">
        <ele>308.0</ele>
        <time>2020-12-31T13:35:45Z</time>
      </trkpt>
      <trkpt lat="41.5993470" lon="-0.8706110">
        <ele>308.1</ele>
        <time>2020-12-31T13:35:46Z</time>
      </trkpt>
      <trkpt lat="41.5993380" lon="-0.8706330">
        <ele>308.1</ele>
        <time>2020-12-31T13:35:47Z</time>
      </trkpt>
      <trkpt lat="41.5993220" lon="-0.8706710">
        <ele>308.2</ele>
        <time>2020-12-31T13:35:48Z</time>
      </trkpt>
      <trkpt lat="41.5993080" lon="-0.8707050">
        <ele>308.3</ele>
        <time>2020-12-31T13:35:49Z</time>
      </trkpt>
      <trkpt lat="41.5992850" lon="-0.8707610">
        <ele>308.4</ele>
        <time>2020-12-31T13:35:51Z</time>
      </trkpt>
      <trkpt lat="41.5992700" lon="-0.8707980">
        <ele>308.4</ele>
        <time>2020-12-31T13:35:52Z</time>
      </trkpt>
      <trkpt lat="41.5992560" lon="-0.8708380">
        <ele>308.4</ele>
        <time>2020-12-31T13:35:53Z</time>
      </trkpt>
      <trkpt lat="41.5992370" lon="-0.8708880">
        <ele>308.4</ele>
        <time>2020-12-31T13:35:54Z</time>
      </trkpt>
      <trkpt lat="41.5992300" lon="-0.8709060">
        <ele>308.4</ele>
        <time>2020-12-31T13:35:55Z</time>
      </trkpt>
      <trkpt lat="41.5992080" lon="-0.8709460">
        <ele>308.4</ele>
        <time>2020-12-31T13:35:57Z</time>
      </trkpt>
      <trkpt lat="41.5992000" lon="-0.8709580">
        <ele>308.4</ele>
        <time>2020-12-31T13:35:58Z</time>
      </trkpt>
      <trkpt lat="41.5991770" lon="-0.8709840">
        <ele>308.4</ele>
        <time>2020-12-31T13:35:59Z</time>
      </trkpt>
      <trkpt lat="41.5991410" lon="-0.8710050">
        <ele>308.4</ele>
        <time>2020-12-31T13:36:00Z</time>
      </trkpt>
      <trkpt lat="41.5991290" lon="-0.8710100">
        <ele>308.4</ele>
        <time>2020-12-31T13:36:01Z</time>
      </trkpt>
      <trkpt lat="41.5990990" lon="-0.8710200">
        <ele>308.4</ele>
        <time>2020-12-31T13:36:03Z</time>
      </trkpt>
      <trkpt lat="41.5990360" lon="-0.8710160">
        <ele>308.4</ele>
        <time>2020-12-31T13:36:05Z</time>
      </trkpt>
      <trkpt lat="41.5989820" lon="-0.8710010">
        <ele>308.4</ele>
        <time>2020-12-31T13:36:07Z</time>
      </trkpt>
      <trkpt lat="41.5989330" lon="-0.8709790">
        <ele>308.5</ele>
        <time>2020-12-31T13:36:08Z</time>
      </trkpt>
      <trkpt lat="41.5988700" lon="-0.8709400">
        <ele>308.6</ele>
        <time>2020-12-31T13:36:10Z</time>
      </trkpt>
      <trkpt lat="41.5988280" lon="-0.8709130">
        <ele>308.8</ele>
        <time>2020-12-31T13:36:11Z</time>
      </trkpt>
      <trkpt lat="41.5987520" lon="-0.8708830">
        <ele>309.1</ele>
        <time>2020-12-31T13:36:13Z</time>
      </trkpt>
      <trkpt lat="41.5987150" lon="-0.8708740">
        <ele>309.3</ele>
        <time>2020-12-31T13:36:14Z</time>
      </trkpt>
      <trkpt lat="41.5986750" lon="-0.8708790">
        <ele>309.5</ele>
        <time>2020-12-31T13:36:15Z</time>
      </trkpt>
      <trkpt lat="41.5986270" lon="-0.8708940">
        <ele>309.7</ele>
        <time>2020-12-31T13:36:17Z</time>
      </trkpt>
      <trkpt lat="41.5985950" lon="-0.8709160">
        <ele>309.9</ele>
        <time>2020-12-31T13:36:18Z</time>
      </trkpt>
      <trkpt lat="41.5985650" lon="-0.8709390">
        <ele>310.1</ele>
        <time>2020-12-31T13:36:19Z</time>
      </trkpt>
      <trkpt lat="41.5985270" lon="-0.8709660">
        <ele>310.3</ele>
        <time>2020-12-31T13:36:21Z</time>
      </trkpt>
      <trkpt lat="41.5985090" lon="-0.8709860">
        <ele>310.4</ele>
        <time>2020-12-31T13:36:22Z</time>
      </trkpt>
      <trkpt lat="41.5984810" lon="-0.8710100">
        <ele>310.6</ele>
        <time>2020-12-31T13:36:24Z</time>
      </trkpt>
      <trkpt lat="41.5984570" lon="-0.8710300">
        <ele>310.7</ele>
        <time>2020-12-31T13:36:25Z</time>
      </trkpt>
      <trkpt lat="41.5984230" lon="-0.8710460">
        <ele>310.9</ele>
        <time>2020-12-31T13:36:26Z</time>
      </trkpt>
      <trkpt lat="41.5984130" lon="-0.8710510">
        <ele>310.9</ele>
        <time>2020-12-31T13:36:27Z</time>
      </trkpt>
      <trkpt lat="41.5983870" lon="-0.8710610">
        <ele>311.0</ele>
        <time>2020-12-31T13:36:28Z</time>
      </trkpt>
      <trkpt lat="41.5983580" lon="-0.8710720">
        <ele>311.1</ele>
        <time>2020-12-31T13:36:30Z</time>
      </trkpt>
      <trkpt lat="41.5983300" lon="-0.8710900">
        <ele>311.2</ele>
        <time>2020-12-31T13:36:31Z</time>
      </trkpt>
      <trkpt lat="41.5983200" lon="-0.8710970">
        <ele>311.3</ele>
        <time>2020-12-31T13:36:32Z</time>
      </trkpt>
      <trkpt lat="41.5982810" lon="-0.8711160">
        <ele>311.4</ele>
        <time>2020-12-31T13:36:34Z</time>
      </trkpt>
      <trkpt lat="41.5982550" lon="-0.8711280">
        <ele>311.5</ele>
        <time>2020-12-31T13:36:35Z</time>
      </trkpt>
      <trkpt lat="41.5982050" lon="-0.8711560">
        <ele>311.7</ele>
        <time>2020-12-31T13:36:37Z</time>
      </trkpt>
      <trkpt lat="41.5981690" lon="-0.8711760">
        <ele>311.8</ele>
        <time>2020-12-31T13:36:38Z</time>
      </trkpt>
      <trkpt lat="41.5981320" lon="-0.8711940">
        <ele>311.9</ele>
        <time>2020-12-31T13:36:39Z</time>
      </trkpt>
      <trkpt lat="41.5980840" lon="-0.8712180">
        <ele>312.0</ele>
        <time>2020-12-31T13:36:40Z</time>
      </trkpt>
      <trkpt lat="41.5980270" lon="-0.8712400">
        <ele>312.2</ele>
        <time>2020-12-31T13:36:42Z</time>
      </trkpt>
      <trkpt lat="41.5979950" lon="-0.8712550">
        <ele>312.3</ele>
        <time>2020-12-31T13:36:43Z</time>
      </trkpt>
      <trkpt lat="41.5979530" lon="-0.8712730">
        <ele>312.3</ele>
        <time>2020-12-31T13:36:44Z</time>
      </trkpt>
      <trkpt lat="41.5979090" lon="-0.8712980">
        <ele>312.4</ele>
        <time>2020-12-31T13:36:46Z</time>
      </trkpt>
      <trkpt lat="41.5978810" lon="-0.8713150">
        <ele>312.5</ele>
        <time>2020-12-31T13:36:47Z</time>
      </trkpt>
      <trkpt lat="41.5978510" lon="-0.8713330">
        <ele>312.5</ele>
        <time>2020-12-31T13:36:48Z</time>
      </trkpt>
      <trkpt lat="41.5978130" lon="-0.8713680">
        <ele>312.6</ele>
        <time>2020-12-31T13:36:50Z</time>
      </trkpt>
      <trkpt lat="41.5977860" lon="-0.8713880">
        <ele>312.6</ele>
        <time>2020-12-31T13:36:51Z</time>
      </trkpt>
      <trkpt lat="41.5977540" lon="-0.8714180">
        <ele>312.6</ele>
        <time>2020-12-31T13:36:52Z</time>
      </trkpt>
      <trkpt lat="41.5977260" lon="-0.8714520">
        <ele>312.6</ele>
        <time>2020-12-31T13:36:53Z</time>
      </trkpt>
      <trkpt lat="41.5976850" lon="-0.8715050">
        <ele>312.6</ele>
        <time>2020-12-31T13:36:55Z</time>
      </trkpt>
      <trkpt lat="41.5976550" lon="-0.8715510">
        <ele>312.6</ele>
        <time>2020-12-31T13:36:56Z</time>
      </trkpt>
      <trkpt lat="41.5976350" lon="-0.8715900">
        <ele>312.5</ele>
        <time>2020-12-31T13:36:57Z</time>
      </trkpt>
      <trkpt lat="41.5976030" lon="-0.8716500">
        <ele>312.4</ele>
        <time>2020-12-31T13:36:58Z</time>
      </trkpt>
      <trkpt lat="41.5975770" lon="-0.8716870">
        <ele>312.3</ele>
        <time>2020-12-31T13:36:59Z</time>
      </trkpt>
      <trkpt lat="41.5975490" lon="-0.8717240">
        <ele>312.2</ele>
        <time>2020-12-31T13:37:01Z</time>
      </trkpt>
      <trkpt lat="41.5975140" lon="-0.8717510">
        <ele>312.0</ele>
        <time>2020-12-31T13:37:02Z</time>
      </trkpt>
      <trkpt lat="41.5974620" lon="-0.8717450">
        <ele>311.8</ele>
        <time>2020-12-31T13:37:03Z</time>
      </trkpt>
      <trkpt lat="41.5973590" lon="-0.8717160">
        <ele>311.4</ele>
        <time>2020-12-31T13:37:05Z</time>
      </trkpt>
      <trkpt lat="41.5973500" lon="-0.8716830">
        <ele>311.3</ele>
        <time>2020-12-31T13:37:06Z</time>
      </trkpt>
      <trkpt lat="41.5973290" lon="-0.8716610">
        <ele>311.2</ele>
        <time>2020-12-31T13:37:08Z</time>
      </trkpt>
      <trkpt lat="41.5973020" lon="-0.8716490">
        <ele>311.2</ele>
        <time>2020-12-31T13:37:09Z</time>
      </trkpt>
      <trkpt lat="41.5972950" lon="-0.8716440">
        <ele>311.2</ele>
        <time>2020-12-31T13:37:10Z</time>
      </trkpt>
      <trkpt lat="41.5972800" lon="-0.8716430">
        <ele>311.1</ele>
        <time>2020-12-31T13:37:11Z</time>
      </trkpt>
      <trkpt lat="41.5972630" lon="-0.8716460">
        <ele>311.1</ele>
        <time>2020-12-31T13:37:13Z</time>
      </trkpt>
      <trkpt lat="41.5972170" lon="-0.8716490">
        <ele>311.1</ele>
        <time>2020-12-31T13:37:15Z</time>
      </trkpt>
      <trkpt lat="41.5971680" lon="-0.8716510">
        <ele>311.1</ele>
        <time>2020-12-31T13:37:16Z</time>
      </trkpt>
      <trkpt lat="41.5970950" lon="-0.8716450">
        <ele>311.3</ele>
        <time>2020-12-31T13:37:18Z</time>
      </trkpt>
      <trkpt lat="41.5970280" lon="-0.8716420">
        <ele>311.5</ele>
        <time>2020-12-31T13:37:19Z</time>
      </trkpt>
      <trkpt lat="41.5969580" lon="-0.8716400">
        <ele>311.7</ele>
        <time>2020-12-31T13:37:21Z</time>
      </trkpt>
      <trkpt lat="41.5968930" lon="-0.8716460">
        <ele>312.0</ele>
        <time>2020-12-31T13:37:22Z</time>
      </trkpt>
      <trkpt lat="41.5968510" lon="-0.8716520">
        <ele>312.2</ele>
        <time>2020-12-31T13:37:23Z</time>
      </trkpt>
      <trkpt lat="41.5967850" lon="-0.8716630">
        <ele>312.5</ele>
        <time>2020-12-31T13:37:24Z</time>
      </trkpt>
      <trkpt lat="41.5967400" lon="-0.8716750">
        <ele>312.7</ele>
        <time>2020-12-31T13:37:25Z</time>
      </trkpt>
      <trkpt lat="41.5966950" lon="-0.8716890">
        <ele>312.9</ele>
        <time>2020-12-31T13:37:26Z</time>
      </trkpt>
      <trkpt lat="41.5966400" lon="-0.8717030">
        <ele>313.0</ele>
        <time>2020-12-31T13:37:28Z</time>
      </trkpt>
      <trkpt lat="41.5966020" lon="-0.8717090">
        <ele>313.1</ele>
        <time>2020-12-31T13:37:29Z</time>
      </trkpt>
      <trkpt lat="41.5965390" lon="-0.8717180">
        <ele>313.3</ele>
        <time>2020-12-31T13:37:31Z</time>
      </trkpt>
      <trkpt lat="41.5964930" lon="-0.8717300">
        <ele>313.3</ele>
        <time>2020-12-31T13:37:32Z</time>
      </trkpt>
      <trkpt lat="41.5964360" lon="-0.8717260">
        <ele>313.4</ele>
        <time>2020-12-31T13:37:33Z</time>
      </trkpt>
      <trkpt lat="41.5963790" lon="-0.8717080">
        <ele>313.5</ele>
        <time>2020-12-31T13:37:34Z</time>
      </trkpt>
      <trkpt lat="41.5963330" lon="-0.8716890">
        <ele>313.5</ele>
        <time>2020-12-31T13:37:35Z</time>
      </trkpt>
      <trkpt lat="41.5962490" lon="-0.8716360">
        <ele>313.6</ele>
        <time>2020-12-31T13:37:37Z</time>
      </trkpt>
      <trkpt lat="41.5961810" lon="-0.8715870">
        <ele>313.7</ele>
        <time>2020-12-31T13:37:38Z</time>
      </trkpt>
      <trkpt lat="41.5960470" lon="-0.8715190">
        <ele>313.6</ele>
        <time>2020-12-31T13:37:40Z</time>
      </trkpt>
      <trkpt lat="41.5959700" lon="-0.8715120">
        <ele>313.6</ele>
        <time>2020-12-31T13:37:41Z</time>
      </trkpt>
      <trkpt lat="41.5958980" lon="-0.8715060">
        <ele>313.5</ele>
        <time>2020-12-31T13:37:43Z</time>
      </trkpt>
      <trkpt lat="41.5957990" lon="-0.8715510">
        <ele>314.2</ele>
        <time>2020-12-31T13:37:44Z</time>
      </trkpt>
      <trkpt lat="41.5957540" lon="-0.8715780">
        <ele>314.5</ele>
        <time>2020-12-31T13:37:45Z</time>
      </trkpt>
      <trkpt lat="41.5956990" lon="-0.8716210">
        <ele>315.0</ele>
        <time>2020-12-31T13:37:46Z</time>
      </trkpt>
      <trkpt lat="41.5956290" lon="-0.8716590">
        <ele>315.6</ele>
        <time>2020-12-31T13:37:48Z</time>
      </trkpt>
      <trkpt lat="41.5955580" lon="-0.8716720">
        <ele>316.3</ele>
        <time>2020-12-31T13:37:50Z</time>
      </trkpt>
      <trkpt lat="41.5955270" lon="-0.8716740">
        <ele>316.6</ele>
        <time>2020-12-31T13:37:51Z</time>
      </trkpt>
      <trkpt lat="41.5954890" lon="-0.8716760">
        <ele>317.0</ele>
        <time>2020-12-31T13:37:52Z</time>
      </trkpt>
      <trkpt lat="41.5954460" lon="-0.8716790">
        <ele>317.4</ele>
        <time>2020-12-31T13:37:54Z</time>
      </trkpt>
      <trkpt lat="41.5954120" lon="-0.8716890">
        <ele>317.8</ele>
        <time>2020-12-31T13:37:55Z</time>
      </trkpt>
      <trkpt lat="41.5954010" lon="-0.8716920">
        <ele>317.9</ele>
        <time>2020-12-31T13:37:56Z</time>
      </trkpt>
      <trkpt lat="41.5953790" lon="-0.8717010">
        <ele>318.1</ele>
        <time>2020-12-31T13:37:57Z</time>
      </trkpt>
      <trkpt lat="41.5953550" lon="-0.8717060">
        <ele>318.4</ele>
        <time>2020-12-31T13:37:59Z</time>
      </trkpt>
      <trkpt lat="41.5953260" lon="-0.8717080">
        <ele>318.7</ele>
        <time>2020-12-31T13:38:00Z</time>
      </trkpt>
      <trkpt lat="41.5952970" lon="-0.8717090">
        <ele>318.9</ele>
        <time>2020-12-31T13:38:01Z</time>
      </trkpt>
      <trkpt lat="41.5952550" lon="-0.8717010">
        <ele>319.4</ele>
        <time>2020-12-31T13:38:03Z</time>
      </trkpt>
      <trkpt lat="41.5952210" lon="-0.8717010">
        <ele>319.7</ele>
        <time>2020-12-31T13:38:04Z</time>
      </trkpt>
      <trkpt lat="41.5951890" lon="-0.8717060">
        <ele>320.0</ele>
        <time>2020-12-31T13:38:05Z</time>
      </trkpt>
      <trkpt lat="41.5951540" lon="-0.8717150">
        <ele>320.4</ele>
        <time>2020-12-31T13:38:06Z</time>
      </trkpt>
      <trkpt lat="41.5951190" lon="-0.8717270">
        <ele>320.8</ele>
        <time>2020-12-31T13:38:07Z</time>
      </trkpt>
      <trkpt lat="41.5950770" lon="-0.8717420">
        <ele>321.4</ele>
        <time>2020-12-31T13:38:08Z</time>
      </trkpt>
      <trkpt lat="41.5950310" lon="-0.8717480">
        <ele>322.0</ele>
        <time>2020-12-31T13:38:10Z</time>
      </trkpt>
      <trkpt lat="41.5950150" lon="-0.8717450">
        <ele>322.3</ele>
        <time>2020-12-31T13:38:11Z</time>
      </trkpt>
      <trkpt lat="41.5949990" lon="-0.8717430">
        <ele>322.5</ele>
        <time>2020-12-31T13:38:12Z</time>
      </trkpt>
      <trkpt lat="41.5949830" lon="-0.8717330">
        <ele>322.8</ele>
        <time>2020-12-31T13:38:13Z</time>
      </trkpt>
      <trkpt lat="41.5949680" lon="-0.8717240">
        <ele>323.0</ele>
        <time>2020-12-31T13:38:14Z</time>
      </trkpt>
      <trkpt lat="41.5949280" lon="-0.8717240">
        <ele>323.7</ele>
        <time>2020-12-31T13:38:16Z</time>
      </trkpt>
      <trkpt lat="41.5949150" lon="-0.8717310">
        <ele>323.9</ele>
        <time>2020-12-31T13:38:17Z</time>
      </trkpt>
      <trkpt lat="41.5949030" lon="-0.8717380">
        <ele>324.1</ele>
        <time>2020-12-31T13:38:18Z</time>
      </trkpt>
      <trkpt lat="41.5948760" lon="-0.8717850">
        <ele>324.8</ele>
        <time>2020-12-31T13:38:20Z</time>
      </trkpt>
      <trkpt lat="41.5948700" lon="-0.8718030">
        <ele>325.0</ele>
        <time>2020-12-31T13:38:21Z</time>
      </trkpt>
      <trkpt lat="41.5948650" lon="-0.8718220">
        <ele>325.3</ele>
        <time>2020-12-31T13:38:22Z</time>
      </trkpt>
      <trkpt lat="41.5948510" lon="-0.8718620">
        <ele>325.8</ele>
        <time>2020-12-31T13:38:23Z</time>
      </trkpt>
      <trkpt lat="41.5948450" lon="-0.8718750">
        <ele>326.0</ele>
        <time>2020-12-31T13:38:24Z</time>
      </trkpt>
      <trkpt lat="41.5948350" lon="-0.8719010">
        <ele>326.3</ele>
        <time>2020-12-31T13:38:25Z</time>
      </trkpt>
      <trkpt lat="41.5948260" lon="-0.8719220">
        <ele>326.5</ele>
        <time>2020-12-31T13:38:27Z</time>
      </trkpt>
      <trkpt lat="41.5948130" lon="-0.8719580">
        <ele>326.9</ele>
        <time>2020-12-31T13:38:28Z</time>
      </trkpt>
      <trkpt lat="41.5948090" lon="-0.8719680">
        <ele>327.0</ele>
        <time>2020-12-31T13:38:29Z</time>
      </trkpt>
      <trkpt lat="41.5947860" lon="-0.8720170">
        <ele>327.5</ele>
        <time>2020-12-31T13:38:30Z</time>
      </trkpt>
      <trkpt lat="41.5947750" lon="-0.8720370">
        <ele>327.7</ele>
        <time>2020-12-31T13:38:31Z</time>
      </trkpt>
      <trkpt lat="41.5947530" lon="-0.8720620">
        <ele>328.0</ele>
        <time>2020-12-31T13:38:32Z</time>
      </trkpt>
      <trkpt lat="41.5947240" lon="-0.8720930">
        <ele>328.4</ele>
        <time>2020-12-31T13:38:34Z</time>
      </trkpt>
      <trkpt lat="41.5947160" lon="-0.8721030">
        <ele>328.5</ele>
        <time>2020-12-31T13:38:35Z</time>
      </trkpt>
      <trkpt lat="41.5946800" lon="-0.8721260">
        <ele>328.9</ele>
        <time>2020-12-31T13:38:37Z</time>
      </trkpt>
      <trkpt lat="41.5946520" lon="-0.8721350">
        <ele>329.1</ele>
        <time>2020-12-31T13:38:38Z</time>
      </trkpt>
      <trkpt lat="41.5946240" lon="-0.8721440">
        <ele>329.3</ele>
        <time>2020-12-31T13:38:39Z</time>
      </trkpt>
      <trkpt lat="41.5945960" lon="-0.8721530">
        <ele>329.5</ele>
        <time>2020-12-31T13:38:41Z</time>
      </trkpt>
      <trkpt lat="41.5945690" lon="-0.8721570">
        <ele>329.7</ele>
        <time>2020-12-31T13:38:42Z</time>
      </trkpt>
      <trkpt lat="41.5945420" lon="-0.8721560">
        <ele>329.9</ele>
        <time>2020-12-31T13:38:43Z</time>
      </trkpt>
      <trkpt lat="41.5945010" lon="-0.8721550">
        <ele>330.2</ele>
        <time>2020-12-31T13:38:45Z</time>
      </trkpt>
      <trkpt lat="41.5944730" lon="-0.8721490">
        <ele>330.4</ele>
        <time>2020-12-31T13:38:46Z</time>
      </trkpt>
      <trkpt lat="41.5944390" lon="-0.8721410">
        <ele>330.7</ele>
        <time>2020-12-31T13:38:47Z</time>
      </trkpt>
      <trkpt lat="41.5944260" lon="-0.8721380">
        <ele>330.8</ele>
        <time>2020-12-31T13:38:48Z</time>
      </trkpt>
      <trkpt lat="41.5943970" lon="-0.8721310">
        <ele>331.0</ele>
        <time>2020-12-31T13:38:49Z</time>
      </trkpt>
      <trkpt lat="41.5943420" lon="-0.8721210">
        <ele>331.4</ele>
        <time>2020-12-31T13:38:51Z</time>
      </trkpt>
      <trkpt lat="41.5943230" lon="-0.8721160">
        <ele>331.6</ele>
        <time>2020-12-31T13:38:52Z</time>
      </trkpt>
      <trkpt lat="41.5943040" lon="-0.8721110">
        <ele>331.8</ele>
        <time>2020-12-31T13:38:53Z</time>
      </trkpt>
      <trkpt lat="41.5942670" lon="-0.8721080">
        <ele>332.1</ele>
        <time>2020-12-31T13:38:55Z</time>
      </trkpt>
      <trkpt lat="41.5942380" lon="-0.8721100">
        <ele>332.3</ele>
        <time>2020-12-31T13:38:56Z</time>
      </trkpt>
      <trkpt lat="41.5941870" lon="-0.8721040">
        <ele>332.8</ele>
        <time>2020-12-31T13:38:58Z</time>
      </trkpt>
      <trkpt lat="41.5941690" lon="-0.8720990">
        <ele>333.0</ele>
        <time>2020-12-31T13:38:59Z</time>
      </trkpt>
      <trkpt lat="41.5941520" lon="-0.8720950">
        <ele>333.1</ele>
        <time>2020-12-31T13:39:00Z</time>
      </trkpt>
      <trkpt lat="41.5941130" lon="-0.8720900">
        <ele>333.5</ele>
        <time>2020-12-31T13:39:02Z</time>
      </trkpt>
      <trkpt lat="41.5941000" lon="-0.8720870">
        <ele>333.6</ele>
        <time>2020-12-31T13:39:03Z</time>
      </trkpt>
      <trkpt lat="41.5940740" lon="-0.8720780">
        <ele>333.8</ele>
        <time>2020-12-31T13:39:04Z</time>
      </trkpt>
      <trkpt lat="41.5940530" lon="-0.8720750">
        <ele>333.9</ele>
        <time>2020-12-31T13:39:05Z</time>
      </trkpt>
      <trkpt lat="41.5940200" lon="-0.8720740">
        <ele>334.1</ele>
        <time>2020-12-31T13:39:07Z</time>
      </trkpt>
      <trkpt lat="41.5939920" lon="-0.8720730">
        <ele>334.3</ele>
        <time>2020-12-31T13:39:08Z</time>
      </trkpt>
      <trkpt lat="41.5939600" lon="-0.8720760">
        <ele>334.4</ele>
        <time>2020-12-31T13:39:09Z</time>
      </trkpt>
      <trkpt lat="41.5939220" lon="-0.8720810">
        <ele>334.6</ele>
        <time>2020-12-31T13:39:11Z</time>
      </trkpt>
      <trkpt lat="41.5939080" lon="-0.8720840">
        <ele>334.6</ele>
        <time>2020-12-31T13:39:12Z</time>
      </trkpt>
      <trkpt lat="41.5938770" lon="-0.8720910">
        <ele>334.7</ele>
        <time>2020-12-31T13:39:13Z</time>
      </trkpt>
      <trkpt lat="41.5938430" lon="-0.8721040">
        <ele>334.7</ele>
        <time>2020-12-31T13:39:15Z</time>
      </trkpt>
      <trkpt lat="41.5938330" lon="-0.8721070">
        <ele>334.7</ele>
        <time>2020-12-31T13:39:16Z</time>
      </trkpt>
      <trkpt lat="41.5938160" lon="-0.8721140">
        <ele>334.7</ele>
        <time>2020-12-31T13:39:17Z</time>
      </trkpt>
      <trkpt lat="41.5937870" lon="-0.8721370">
        <ele>334.7</ele>
        <time>2020-12-31T13:39:19Z</time>
      </trkpt>
      <trkpt lat="41.5937580" lon="-0.8721570">
        <ele>334.6</ele>
        <time>2020-12-31T13:39:20Z</time>
      </trkpt>
      <trkpt lat="41.5937470" lon="-0.8721630">
        <ele>334.6</ele>
        <time>2020-12-31T13:39:21Z</time>
      </trkpt>
      <trkpt lat="41.5937210" lon="-0.8721860">
        <ele>334.5</ele>
        <time>2020-12-31T13:39:22Z</time>
      </trkpt>
      <trkpt lat="41.5937110" lon="-0.8721930">
        <ele>334.5</ele>
        <time>2020-12-31T13:39:23Z</time>
      </trkpt>
      <trkpt lat="41.5936840" lon="-0.8722130">
        <ele>334.4</ele>
        <time>2020-12-31T13:39:24Z</time>
      </trkpt>
      <trkpt lat="41.5936620" lon="-0.8722440">
        <ele>334.3</ele>
        <time>2020-12-31T13:39:26Z</time>
      </trkpt>
      <trkpt lat="41.5936460" lon="-0.8722730">
        <ele>334.2</ele>
        <time>2020-12-31T13:39:27Z</time>
      </trkpt>
      <trkpt lat="41.5936300" lon="-0.8723130">
        <ele>334.0</ele>
        <time>2020-12-31T13:39:29Z</time>
      </trkpt>
      <trkpt lat="41.5936070" lon="-0.8723470">
        <ele>333.9</ele>
        <time>2020-12-31T13:39:30Z</time>
      </trkpt>
      <trkpt lat="41.5935990" lon="-0.8723570">
        <ele>333.8</ele>
        <time>2020-12-31T13:39:31Z</time>
      </trkpt>
      <trkpt lat="41.5935800" lon="-0.8723770">
        <ele>333.7</ele>
        <time>2020-12-31T13:39:32Z</time>
      </trkpt>
      <trkpt lat="41.5935400" lon="-0.8724080">
        <ele>333.5</ele>
        <time>2020-12-31T13:39:34Z</time>
      </trkpt>
      <trkpt lat="41.5935130" lon="-0.8724310">
        <ele>333.3</ele>
        <time>2020-12-31T13:39:35Z</time>
      </trkpt>
      <trkpt lat="41.5934900" lon="-0.8724570">
        <ele>333.2</ele>
        <time>2020-12-31T13:39:36Z</time>
      </trkpt>
      <trkpt lat="41.5934590" lon="-0.8724920">
        <ele>333.0</ele>
        <time>2020-12-31T13:39:38Z</time>
      </trkpt>
      <trkpt lat="41.5934380" lon="-0.8725190">
        <ele>332.9</ele>
        <time>2020-12-31T13:39:39Z</time>
      </trkpt>
      <trkpt lat="41.5934180" lon="-0.8725450">
        <ele>332.8</ele>
        <time>2020-12-31T13:39:40Z</time>
      </trkpt>
      <trkpt lat="41.5933100" lon="-0.8726560">
        <ele>333.1</ele>
        <time>2020-12-31T13:39:42Z</time>
      </trkpt>
      <trkpt lat="41.5932410" lon="-0.8727260">
        <ele>333.4</ele>
        <time>2020-12-31T13:39:44Z</time>
      </trkpt>
      <trkpt lat="41.5931870" lon="-0.8728000">
        <ele>333.6</ele>
        <time>2020-12-31T13:39:45Z</time>
      </trkpt>
      <trkpt lat="41.5931120" lon="-0.8728820">
        <ele>333.9</ele>
        <time>2020-12-31T13:39:47Z</time>
      </trkpt>
      <trkpt lat="41.5930530" lon="-0.8729280">
        <ele>334.1</ele>
        <time>2020-12-31T13:39:49Z</time>
      </trkpt>
      <trkpt lat="41.5929970" lon="-0.8729580">
        <ele>334.2</ele>
        <time>2020-12-31T13:39:50Z</time>
      </trkpt>
      <trkpt lat="41.5929270" lon="-0.8729900">
        <ele>334.3</ele>
        <time>2020-12-31T13:39:52Z</time>
      </trkpt>
      <trkpt lat="41.5928840" lon="-0.8730060">
        <ele>334.3</ele>
        <time>2020-12-31T13:39:53Z</time>
      </trkpt>
      <trkpt lat="41.5928400" lon="-0.8730210">
        <ele>334.3</ele>
        <time>2020-12-31T13:39:54Z</time>
      </trkpt>
      <trkpt lat="41.5927870" lon="-0.8730410">
        <ele>334.3</ele>
        <time>2020-12-31T13:39:55Z</time>
      </trkpt>
      <trkpt lat="41.5927400" lon="-0.8730650">
        <ele>334.4</ele>
        <time>2020-12-31T13:39:57Z</time>
      </trkpt>
      <trkpt lat="41.5927030" lon="-0.8730940">
        <ele>334.3</ele>
        <time>2020-12-31T13:39:58Z</time>
      </trkpt>
      <trkpt lat="41.5926700" lon="-0.8731290">
        <ele>334.3</ele>
        <time>2020-12-31T13:39:59Z</time>
      </trkpt>
      <trkpt lat="41.5926430" lon="-0.8731590">
        <ele>334.3</ele>
        <time>2020-12-31T13:40:00Z</time>
      </trkpt>
      <trkpt lat="41.5926150" lon="-0.8731850">
        <ele>334.3</ele>
        <time>2020-12-31T13:40:01Z</time>
      </trkpt>
      <trkpt lat="41.5925740" lon="-0.8732270">
        <ele>334.2</ele>
        <time>2020-12-31T13:40:03Z</time>
      </trkpt>
      <trkpt lat="41.5925210" lon="-0.8732770">
        <ele>334.2</ele>
        <time>2020-12-31T13:40:05Z</time>
      </trkpt>
      <trkpt lat="41.5925050" lon="-0.8733090">
        <ele>334.3</ele>
        <time>2020-12-31T13:40:06Z</time>
      </trkpt>
      <trkpt lat="41.5924770" lon="-0.8733230">
        <ele>334.3</ele>
        <time>2020-12-31T13:40:07Z</time>
      </trkpt>
      <trkpt lat="41.5924670" lon="-0.8733260">
        <ele>334.3</ele>
        <time>2020-12-31T13:40:08Z</time>
      </trkpt>
      <trkpt lat="41.5923960" lon="-0.8733280">
        <ele>334.5</ele>
        <time>2020-12-31T13:40:10Z</time>
      </trkpt>
      <trkpt lat="41.5923540" lon="-0.8733440">
        <ele>334.6</ele>
        <time>2020-12-31T13:40:12Z</time>
      </trkpt>
      <trkpt lat="41.5923300" lon="-0.8733390">
        <ele>334.7</ele>
        <time>2020-12-31T13:40:13Z</time>
      </trkpt>
      <trkpt lat="41.5922940" lon="-0.8733280">
        <ele>334.8</ele>
        <time>2020-12-31T13:40:14Z</time>
      </trkpt>
      <trkpt lat="41.5922580" lon="-0.8733210">
        <ele>335.0</ele>
        <time>2020-12-31T13:40:16Z</time>
      </trkpt>
      <trkpt lat="41.5922210" lon="-0.8733190">
        <ele>335.2</ele>
        <time>2020-12-31T13:40:17Z</time>
      </trkpt>
      <trkpt lat="41.5921850" lon="-0.8733220">
        <ele>335.3</ele>
        <time>2020-12-31T13:40:18Z</time>
      </trkpt>
      <trkpt lat="41.5921390" lon="-0.8733380">
        <ele>335.5</ele>
        <time>2020-12-31T13:40:20Z</time>
      </trkpt>
      <trkpt lat="41.5920940" lon="-0.8733530">
        <ele>335.8</ele>
        <time>2020-12-31T13:40:21Z</time>
      </trkpt>
      <trkpt lat="41.5920530" lon="-0.8733730">
        <ele>336.0</ele>
        <time>2020-12-31T13:40:22Z</time>
      </trkpt>
      <trkpt lat="41.5919890" lon="-0.8733970">
        <ele>336.3</ele>
        <time>2020-12-31T13:40:24Z</time>
      </trkpt>
      <trkpt lat="41.5919420" lon="-0.8734190">
        <ele>336.5</ele>
        <time>2020-12-31T13:40:25Z</time>
      </trkpt>
      <trkpt lat="41.5919070" lon="-0.8734380">
        <ele>336.8</ele>
        <time>2020-12-31T13:40:26Z</time>
      </trkpt>
      <trkpt lat="41.5918950" lon="-0.8734440">
        <ele>336.8</ele>
        <time>2020-12-31T13:40:27Z</time>
      </trkpt>
      <trkpt lat="41.5918610" lon="-0.8734750">
        <ele>337.1</ele>
        <time>2020-12-31T13:40:29Z</time>
      </trkpt>
      <trkpt lat="41.5918470" lon="-0.8734900">
        <ele>337.2</ele>
        <time>2020-12-31T13:40:30Z</time>
      </trkpt>
      <trkpt lat="41.5918230" lon="-0.8735130">
        <ele>337.4</ele>
        <time>2020-12-31T13:40:31Z</time>
      </trkpt>
      <trkpt lat="41.5917960" lon="-0.8735320">
        <ele>337.6</ele>
        <time>2020-12-31T13:40:33Z</time>
      </trkpt>
      <trkpt lat="41.5917710" lon="-0.8735510">
        <ele>337.8</ele>
        <time>2020-12-31T13:40:34Z</time>
      </trkpt>
      <trkpt lat="41.5917330" lon="-0.8735780">
        <ele>338.1</ele>
        <time>2020-12-31T13:40:36Z</time>
      </trkpt>
      <trkpt lat="41.5917090" lon="-0.8736190">
        <ele>338.3</ele>
        <time>2020-12-31T13:40:37Z</time>
      </trkpt>
      <trkpt lat="41.5916970" lon="-0.8736300">
        <ele>338.4</ele>
        <time>2020-12-31T13:40:38Z</time>
      </trkpt>
      <trkpt lat="41.5916770" lon="-0.8736450">
        <ele>338.5</ele>
        <time>2020-12-31T13:40:39Z</time>
      </trkpt>
      <trkpt lat="41.5916480" lon="-0.8736590">
        <ele>338.6</ele>
        <time>2020-12-31T13:40:41Z</time>
      </trkpt>
      <trkpt lat="41.5916330" lon="-0.8736740">
        <ele>338.7</ele>
        <time>2020-12-31T13:40:42Z</time>
      </trkpt>
      <trkpt lat="41.5916110" lon="-0.8736910">
        <ele>338.7</ele>
        <time>2020-12-31T13:40:44Z</time>
      </trkpt>
      <trkpt lat="41.5916060" lon="-0.8737010">
        <ele>338.7</ele>
        <time>2020-12-31T13:40:45Z</time>
      </trkpt>
      <trkpt lat="41.5916150" lon="-0.8736870">
        <ele>338.7</ele>
        <time>2020-12-31T13:40:47Z</time>
      </trkpt>
      <trkpt lat="41.5916190" lon="-0.8736830">
        <ele>338.7</ele>
        <time>2020-12-31T13:40:48Z</time>
      </trkpt>
      <trkpt lat="41.5916210" lon="-0.8736800">
        <ele>338.7</ele>
        <time>2020-12-31T13:40:50Z</time>
      </trkpt>
      <trkpt lat="41.5916210" lon="-0.8736790">
        <ele>338.7</ele>
        <time>2020-12-31T13:40:51Z</time>
      </trkpt>
      <trkpt lat="41.5916210" lon="-0.8736790">
        <ele>338.7</ele>
        <time>2020-12-31T13:40:52Z</time>
      </trkpt>
      <trkpt lat="41.5916220" lon="-0.8736780">
        <ele>338.7</ele>
        <time>2020-12-31T13:40:54Z</time>
      </trkpt>
      <trkpt lat="41.5916000" lon="-0.8737080">
        <ele>338.8</ele>
        <time>2020-12-31T13:42:17Z</time>
      </trkpt>
      <trkpt lat="41.5915730" lon="-0.8737240">
        <ele>338.7</ele>
        <time>2020-12-31T13:42:18Z</time>
      </trkpt>
      <trkpt lat="41.5915460" lon="-0.8737390">
        <ele>338.7</ele>
        <time>2020-12-31T13:42:20Z</time>
      </trkpt>
      <trkpt lat="41.5915140" lon="-0.8737580">
        <ele>338.7</ele>
        <time>2020-12-31T13:42:21Z</time>
      </trkpt>
      <trkpt lat="41.5914810" lon="-0.8737720">
        <ele>338.6</ele>
        <time>2020-12-31T13:42:22Z</time>
      </trkpt>
      <trkpt lat="41.5913950" lon="-0.8737740">
        <ele>338.6</ele>
        <time>2020-12-31T13:42:23Z</time>
      </trkpt>
      <trkpt lat="41.5912780" lon="-0.8737730">
        <ele>338.9</ele>
        <time>2020-12-31T13:42:25Z</time>
      </trkpt>
      <trkpt lat="41.5912120" lon="-0.8737780">
        <ele>339.2</ele>
        <time>2020-12-31T13:42:27Z</time>
      </trkpt>
      <trkpt lat="41.5911930" lon="-0.8737790">
        <ele>339.3</ele>
        <time>2020-12-31T13:42:28Z</time>
      </trkpt>
      <trkpt lat="41.5911420" lon="-0.8738020">
        <ele>339.7</ele>
        <time>2020-12-31T13:42:30Z</time>
      </trkpt>
      <trkpt lat="41.5911090" lon="-0.8738250">
        <ele>339.9</ele>
        <time>2020-12-31T13:42:31Z</time>
      </trkpt>
      <trkpt lat="41.5910840" lon="-0.8738410">
        <ele>340.1</ele>
        <time>2020-12-31T13:42:32Z</time>
      </trkpt>
      <trkpt lat="41.5910520" lon="-0.8738670">
        <ele>340.3</ele>
        <time>2020-12-31T13:42:34Z</time>
      </trkpt>
      <trkpt lat="41.5910300" lon="-0.8738920">
        <ele>340.4</ele>
        <time>2020-12-31T13:42:35Z</time>
      </trkpt>
      <trkpt lat="41.5910090" lon="-0.8739180">
        <ele>340.6</ele>
        <time>2020-12-31T13:42:36Z</time>
      </trkpt>
      <trkpt lat="41.5909880" lon="-0.8739390">
        <ele>340.7</ele>
        <time>2020-12-31T13:42:37Z</time>
      </trkpt>
      <trkpt lat="41.5909590" lon="-0.8739740">
        <ele>340.8</ele>
        <time>2020-12-31T13:42:39Z</time>
      </trkpt>
      <trkpt lat="41.5909310" lon="-0.8740080">
        <ele>340.9</ele>
        <time>2020-12-31T13:42:41Z</time>
      </trkpt>
      <trkpt lat="41.5908950" lon="-0.8740430">
        <ele>340.9</ele>
        <time>2020-12-31T13:42:43Z</time>
      </trkpt>
      <trkpt lat="41.5908710" lon="-0.8740640">
        <ele>340.9</ele>
        <time>2020-12-31T13:42:44Z</time>
      </trkpt>
      <trkpt lat="41.5908460" lon="-0.8741000">
        <ele>341.0</ele>
        <time>2020-12-31T13:42:45Z</time>
      </trkpt>
      <trkpt lat="41.5908370" lon="-0.8741150">
        <ele>341.0</ele>
        <time>2020-12-31T13:42:46Z</time>
      </trkpt>
      <trkpt lat="41.5908040" lon="-0.8741510">
        <ele>341.1</ele>
        <time>2020-12-31T13:42:47Z</time>
      </trkpt>
      <trkpt lat="41.5907740" lon="-0.8741720">
        <ele>341.1</ele>
        <time>2020-12-31T13:42:49Z</time>
      </trkpt>
      <trkpt lat="41.5907650" lon="-0.8741780">
        <ele>341.1</ele>
        <time>2020-12-31T13:42:50Z</time>
      </trkpt>
      <trkpt lat="41.5907360" lon="-0.8741980">
        <ele>341.2</ele>
        <time>2020-12-31T13:42:51Z</time>
      </trkpt>
      <trkpt lat="41.5907090" lon="-0.8742090">
        <ele>341.3</ele>
        <time>2020-12-31T13:42:52Z</time>
      </trkpt>
      <trkpt lat="41.5906660" lon="-0.8742240">
        <ele>341.5</ele>
        <time>2020-12-31T13:42:53Z</time>
      </trkpt>
      <trkpt lat="41.5906480" lon="-0.8742290">
        <ele>341.6</ele>
        <time>2020-12-31T13:42:54Z</time>
      </trkpt>
      <trkpt lat="41.5906070" lon="-0.8742290">
        <ele>341.8</ele>
        <time>2020-12-31T13:42:56Z</time>
      </trkpt>
      <trkpt lat="41.5905750" lon="-0.8742260">
        <ele>341.9</ele>
        <time>2020-12-31T13:42:57Z</time>
      </trkpt>
      <trkpt lat="41.5905460" lon="-0.8742180">
        <ele>342.1</ele>
        <time>2020-12-31T13:42:58Z</time>
      </trkpt>
      <trkpt lat="41.5905180" lon="-0.8742100">
        <ele>342.2</ele>
        <time>2020-12-31T13:42:59Z</time>
      </trkpt>
      <trkpt lat="41.5904760" lon="-0.8741870">
        <ele>342.5</ele>
        <time>2020-12-31T13:43:01Z</time>
      </trkpt>
      <trkpt lat="41.5904360" lon="-0.8741690">
        <ele>342.7</ele>
        <time>2020-12-31T13:43:02Z</time>
      </trkpt>
      <trkpt lat="41.5904200" lon="-0.8741630">
        <ele>342.8</ele>
        <time>2020-12-31T13:43:03Z</time>
      </trkpt>
      <trkpt lat="41.5903930" lon="-0.8741510">
        <ele>343.0</ele>
        <time>2020-12-31T13:43:04Z</time>
      </trkpt>
      <trkpt lat="41.5903490" lon="-0.8741330">
        <ele>343.2</ele>
        <time>2020-12-31T13:43:05Z</time>
      </trkpt>
      <trkpt lat="41.5903190" lon="-0.8741260">
        <ele>343.4</ele>
        <time>2020-12-31T13:43:06Z</time>
      </trkpt>
      <trkpt lat="41.5902770" lon="-0.8741130">
        <ele>343.7</ele>
        <time>2020-12-31T13:43:08Z</time>
      </trkpt>
      <trkpt lat="41.5902300" lon="-0.8741030">
        <ele>344.0</ele>
        <time>2020-12-31T13:43:09Z</time>
      </trkpt>
      <trkpt lat="41.5901880" lon="-0.8740960">
        <ele>344.2</ele>
        <time>2020-12-31T13:43:11Z</time>
      </trkpt>
      <trkpt lat="41.5901500" lon="-0.8740910">
        <ele>344.4</ele>
        <time>2020-12-31T13:43:12Z</time>
      </trkpt>
      <trkpt lat="41.5901050" lon="-0.8740860">
        <ele>344.7</ele>
        <time>2020-12-31T13:43:14Z</time>
      </trkpt>
      <trkpt lat="41.5900730" lon="-0.8740810">
        <ele>344.9</ele>
        <time>2020-12-31T13:43:15Z</time>
      </trkpt>
      <trkpt lat="41.5900360" lon="-0.8740770">
        <ele>345.1</ele>
        <time>2020-12-31T13:43:16Z</time>
      </trkpt>
      <trkpt lat="41.5900030" lon="-0.8740790">
        <ele>345.3</ele>
        <time>2020-12-31T13:43:17Z</time>
      </trkpt>
      <trkpt lat="41.5899680" lon="-0.8740790">
        <ele>345.5</ele>
        <time>2020-12-31T13:43:18Z</time>
      </trkpt>
      <trkpt lat="41.5899330" lon="-0.8740840">
        <ele>345.6</ele>
        <time>2020-12-31T13:43:19Z</time>
      </trkpt>
      <trkpt lat="41.5898740" lon="-0.8740980">
        <ele>345.9</ele>
        <time>2020-12-31T13:43:21Z</time>
      </trkpt>
      <trkpt lat="41.5898300" lon="-0.8741150">
        <ele>346.0</ele>
        <time>2020-12-31T13:43:22Z</time>
      </trkpt>
      <trkpt lat="41.5897870" lon="-0.8741350">
        <ele>346.1</ele>
        <time>2020-12-31T13:43:24Z</time>
      </trkpt>
      <trkpt lat="41.5897470" lon="-0.8741650">
        <ele>346.2</ele>
        <time>2020-12-31T13:43:25Z</time>
      </trkpt>
      <trkpt lat="41.5897110" lon="-0.8742050">
        <ele>346.2</ele>
        <time>2020-12-31T13:43:27Z</time>
      </trkpt>
      <trkpt lat="41.5896860" lon="-0.8742220">
        <ele>346.2</ele>
        <time>2020-12-31T13:43:28Z</time>
      </trkpt>
      <trkpt lat="41.5896460" lon="-0.8742480">
        <ele>346.1</ele>
        <time>2020-12-31T13:43:30Z</time>
      </trkpt>
      <trkpt lat="41.5896140" lon="-0.8742690">
        <ele>346.0</ele>
        <time>2020-12-31T13:43:31Z</time>
      </trkpt>
      <trkpt lat="41.5895740" lon="-0.8743010">
        <ele>345.8</ele>
        <time>2020-12-31T13:43:32Z</time>
      </trkpt>
      <trkpt lat="41.5895300" lon="-0.8743290">
        <ele>345.6</ele>
        <time>2020-12-31T13:43:34Z</time>
      </trkpt>
      <trkpt lat="41.5894960" lon="-0.8743860">
        <ele>345.3</ele>
        <time>2020-12-31T13:43:36Z</time>
      </trkpt>
      <trkpt lat="41.5894340" lon="-0.8744820">
        <ele>345.0</ele>
        <time>2020-12-31T13:43:37Z</time>
      </trkpt>
      <trkpt lat="41.5893900" lon="-0.8745680">
        <ele>344.9</ele>
        <time>2020-12-31T13:43:38Z</time>
      </trkpt>
      <trkpt lat="41.5892550" lon="-0.8748250">
        <ele>344.7</ele>
        <time>2020-12-31T13:43:40Z</time>
      </trkpt>
      <trkpt lat="41.5892020" lon="-0.8749630">
        <ele>344.9</ele>
        <time>2020-12-31T13:43:41Z</time>
      </trkpt>
      <trkpt lat="41.5891630" lon="-0.8751540">
        <ele>345.8</ele>
        <time>2020-12-31T13:43:43Z</time>
      </trkpt>
      <trkpt lat="41.5891520" lon="-0.8752180">
        <ele>346.2</ele>
        <time>2020-12-31T13:43:44Z</time>
      </trkpt>
      <trkpt lat="41.5891390" lon="-0.8752570">
        <ele>346.5</ele>
        <time>2020-12-31T13:43:45Z</time>
      </trkpt>
      <trkpt lat="41.5891320" lon="-0.8752700">
        <ele>346.6</ele>
        <time>2020-12-31T13:43:46Z</time>
      </trkpt>
      <trkpt lat="41.5891200" lon="-0.8753290">
        <ele>346.9</ele>
        <time>2020-12-31T13:43:48Z</time>
      </trkpt>
      <trkpt lat="41.5891080" lon="-0.8753780">
        <ele>347.2</ele>
        <time>2020-12-31T13:43:49Z</time>
      </trkpt>
      <trkpt lat="41.5890970" lon="-0.8754210">
        <ele>347.4</ele>
        <time>2020-12-31T13:43:50Z</time>
      </trkpt>
      <trkpt lat="41.5890810" lon="-0.8754960">
        <ele>347.6</ele>
        <time>2020-12-31T13:43:52Z</time>
      </trkpt>
      <trkpt lat="41.5890700" lon="-0.8755440">
        <ele>347.6</ele>
        <time>2020-12-31T13:43:53Z</time>
      </trkpt>
      <trkpt lat="41.5890580" lon="-0.8755890">
        <ele>347.6</ele>
        <time>2020-12-31T13:43:55Z</time>
      </trkpt>
      <trkpt lat="41.5890460" lon="-0.8756490">
        <ele>347.5</ele>
        <time>2020-12-31T13:43:56Z</time>
      </trkpt>
      <trkpt lat="41.5890290" lon="-0.8757100">
        <ele>347.2</ele>
        <time>2020-12-31T13:43:58Z</time>
      </trkpt>
      <trkpt lat="41.5890130" lon="-0.8757860">
        <ele>346.7</ele>
        <time>2020-12-31T13:44:00Z</time>
      </trkpt>
      <trkpt lat="41.5890020" lon="-0.8758450">
        <ele>346.3</ele>
        <time>2020-12-31T13:44:01Z</time>
      </trkpt>
      <trkpt lat="41.5889930" lon="-0.8759490">
        <ele>345.3</ele>
        <time>2020-12-31T13:44:03Z</time>
      </trkpt>
      <trkpt lat="41.5889850" lon="-0.8760020">
        <ele>344.7</ele>
        <time>2020-12-31T13:44:04Z</time>
      </trkpt>
      <trkpt lat="41.5889870" lon="-0.8760580">
        <ele>344.1</ele>
        <time>2020-12-31T13:44:06Z</time>
      </trkpt>
      <trkpt lat="41.5889950" lon="-0.8761570">
        <ele>343.1</ele>
        <time>2020-12-31T13:44:07Z</time>
      </trkpt>
      <trkpt lat="41.5889980" lon="-0.8762620">
        <ele>342.2</ele>
        <time>2020-12-31T13:44:08Z</time>
      </trkpt>
      <trkpt lat="41.5889980" lon="-0.8765100">
        <ele>341.0</ele>
        <time>2020-12-31T13:44:10Z</time>
      </trkpt>
      <trkpt lat="41.5889870" lon="-0.8766310">
        <ele>340.8</ele>
        <time>2020-12-31T13:44:11Z</time>
      </trkpt>
      <trkpt lat="41.5889380" lon="-0.8768610">
        <ele>341.1</ele>
        <time>2020-12-31T13:44:13Z</time>
      </trkpt>
      <trkpt lat="41.5889120" lon="-0.8769670">
        <ele>341.5</ele>
        <time>2020-12-31T13:44:14Z</time>
      </trkpt>
      <trkpt lat="41.5888950" lon="-0.8771610">
        <ele>342.2</ele>
        <time>2020-12-31T13:44:16Z</time>
      </trkpt>
      <trkpt lat="41.5889280" lon="-0.8773330">
        <ele>343.2</ele>
        <time>2020-12-31T13:44:18Z</time>
      </trkpt>
      <trkpt lat="41.5889480" lon="-0.8774110">
        <ele>343.8</ele>
        <time>2020-12-31T13:44:19Z</time>
      </trkpt>
      <trkpt lat="41.5889480" lon="-0.8774840">
        <ele>344.4</ele>
        <time>2020-12-31T13:44:20Z</time>
      </trkpt>
      <trkpt lat="41.5889100" lon="-0.8775710">
        <ele>345.2</ele>
        <time>2020-12-31T13:44:22Z</time>
      </trkpt>
      <trkpt lat="41.5888840" lon="-0.8776250">
        <ele>345.8</ele>
        <time>2020-12-31T13:44:24Z</time>
      </trkpt>
      <trkpt lat="41.5888710" lon="-0.8776650">
        <ele>346.1</ele>
        <time>2020-12-31T13:44:25Z</time>
      </trkpt>
      <trkpt lat="41.5888640" lon="-0.8776780">
        <ele>346.3</ele>
        <time>2020-12-31T13:44:26Z</time>
      </trkpt>
      <trkpt lat="41.5888540" lon="-0.8777220">
        <ele>346.7</ele>
        <time>2020-12-31T13:44:27Z</time>
      </trkpt>
      <trkpt lat="41.5888530" lon="-0.8777440">
        <ele>346.8</ele>
        <time>2020-12-31T13:44:28Z</time>
      </trkpt>
      <trkpt lat="41.5888370" lon="-0.8777720">
        <ele>347.1</ele>
        <time>2020-12-31T13:44:29Z</time>
      </trkpt>
      <trkpt lat="41.5888180" lon="-0.8778060">
        <ele>347.4</ele>
        <time>2020-12-31T13:44:31Z</time>
      </trkpt>
      <trkpt lat="41.5888000" lon="-0.8778400">
        <ele>347.7</ele>
        <time>2020-12-31T13:44:32Z</time>
      </trkpt>
      <trkpt lat="41.5887840" lon="-0.8778730">
        <ele>347.9</ele>
        <time>2020-12-31T13:44:33Z</time>
      </trkpt>
      <trkpt lat="41.5887710" lon="-0.8779070">
        <ele>348.1</ele>
        <time>2020-12-31T13:44:34Z</time>
      </trkpt>
      <trkpt lat="41.5887590" lon="-0.8779560">
        <ele>348.3</ele>
        <time>2020-12-31T13:44:36Z</time>
      </trkpt>
      <trkpt lat="41.5887520" lon="-0.8780110">
        <ele>348.5</ele>
        <time>2020-12-31T13:44:37Z</time>
      </trkpt>
      <trkpt lat="41.5887290" lon="-0.8780910">
        <ele>348.6</ele>
        <time>2020-12-31T13:44:39Z</time>
      </trkpt>
      <trkpt lat="41.5887110" lon="-0.8781340">
        <ele>348.7</ele>
        <time>2020-12-31T13:44:40Z</time>
      </trkpt>
      <trkpt lat="41.5886970" lon="-0.8781750">
        <ele>348.8</ele>
        <time>2020-12-31T13:44:41Z</time>
      </trkpt>
      <trkpt lat="41.5886850" lon="-0.8782170">
        <ele>348.9</ele>
        <time>2020-12-31T13:44:42Z</time>
      </trkpt>
      <trkpt lat="41.5886680" lon="-0.8782870">
        <ele>349.0</ele>
        <time>2020-12-31T13:44:44Z</time>
      </trkpt>
      <trkpt lat="41.5886510" lon="-0.8783420">
        <ele>349.1</ele>
        <time>2020-12-31T13:44:45Z</time>
      </trkpt>
      <trkpt lat="41.5886360" lon="-0.8783810">
        <ele>349.1</ele>
        <time>2020-12-31T13:44:46Z</time>
      </trkpt>
      <trkpt lat="41.5886130" lon="-0.8784270">
        <ele>349.2</ele>
        <time>2020-12-31T13:44:47Z</time>
      </trkpt>
      <trkpt lat="41.5885890" lon="-0.8784660">
        <ele>349.4</ele>
        <time>2020-12-31T13:44:48Z</time>
      </trkpt>
      <trkpt lat="41.5885660" lon="-0.8785090">
        <ele>349.5</ele>
        <time>2020-12-31T13:44:50Z</time>
      </trkpt>
      <trkpt lat="41.5885460" lon="-0.8785490">
        <ele>349.6</ele>
        <time>2020-12-31T13:44:51Z</time>
      </trkpt>
      <trkpt lat="41.5885280" lon="-0.8785880">
        <ele>349.8</ele>
        <time>2020-12-31T13:44:52Z</time>
      </trkpt>
      <trkpt lat="41.5885080" lon="-0.8786290">
        <ele>349.9</ele>
        <time>2020-12-31T13:44:53Z</time>
      </trkpt>
      <trkpt lat="41.5884900" lon="-0.8786670">
        <ele>350.0</ele>
        <time>2020-12-31T13:44:54Z</time>
      </trkpt>
      <trkpt lat="41.5884710" lon="-0.8787050">
        <ele>350.2</ele>
        <time>2020-12-31T13:44:55Z</time>
      </trkpt>
      <trkpt lat="41.5884490" lon="-0.8787500">
        <ele>350.3</ele>
        <time>2020-12-31T13:44:57Z</time>
      </trkpt>
      <trkpt lat="41.5884170" lon="-0.8788020">
        <ele>350.5</ele>
        <time>2020-12-31T13:44:59Z</time>
      </trkpt>
      <trkpt lat="41.5883970" lon="-0.8788440">
        <ele>350.6</ele>
        <time>2020-12-31T13:45:00Z</time>
      </trkpt>
      <trkpt lat="41.5883750" lon="-0.8788830">
        <ele>350.7</ele>
        <time>2020-12-31T13:45:01Z</time>
      </trkpt>
      <trkpt lat="41.5883590" lon="-0.8789120">
        <ele>350.8</ele>
        <time>2020-12-31T13:45:02Z</time>
      </trkpt>
      <trkpt lat="41.5883380" lon="-0.8789360">
        <ele>350.9</ele>
        <time>2020-12-31T13:45:03Z</time>
      </trkpt>
      <trkpt lat="41.5883160" lon="-0.8789570">
        <ele>351.0</ele>
        <time>2020-12-31T13:45:04Z</time>
      </trkpt>
      <trkpt lat="41.5882840" lon="-0.8789860">
        <ele>351.1</ele>
        <time>2020-12-31T13:45:06Z</time>
      </trkpt>
      <trkpt lat="41.5882680" lon="-0.8790050">
        <ele>351.2</ele>
        <time>2020-12-31T13:45:07Z</time>
      </trkpt>
      <trkpt lat="41.5882620" lon="-0.8790210">
        <ele>351.2</ele>
        <time>2020-12-31T13:45:08Z</time>
      </trkpt>
      <trkpt lat="41.5882540" lon="-0.8790330">
        <ele>351.3</ele>
        <time>2020-12-31T13:45:09Z</time>
      </trkpt>
      <trkpt lat="41.5882380" lon="-0.8790470">
        <ele>351.3</ele>
        <time>2020-12-31T13:45:10Z</time>
      </trkpt>
      <trkpt lat="41.5882150" lon="-0.8790750">
        <ele>351.4</ele>
        <time>2020-12-31T13:45:12Z</time>
      </trkpt>
      <trkpt lat="41.5881890" lon="-0.8791260">
        <ele>351.5</ele>
        <time>2020-12-31T13:45:13Z</time>
      </trkpt>
      <trkpt lat="41.5881720" lon="-0.8791740">
        <ele>351.6</ele>
        <time>2020-12-31T13:45:14Z</time>
      </trkpt>
      <trkpt lat="41.5881370" lon="-0.8792420">
        <ele>351.7</ele>
        <time>2020-12-31T13:45:16Z</time>
      </trkpt>
      <trkpt lat="41.5880980" lon="-0.8792910">
        <ele>351.8</ele>
        <time>2020-12-31T13:45:17Z</time>
      </trkpt>
      <trkpt lat="41.5880670" lon="-0.8793300">
        <ele>351.8</ele>
        <time>2020-12-31T13:45:18Z</time>
      </trkpt>
      <trkpt lat="41.5880370" lon="-0.8793690">
        <ele>351.8</ele>
        <time>2020-12-31T13:45:19Z</time>
      </trkpt>
      <trkpt lat="41.5880040" lon="-0.8794090">
        <ele>351.8</ele>
        <time>2020-12-31T13:45:20Z</time>
      </trkpt>
      <trkpt lat="41.5879170" lon="-0.8794600">
        <ele>351.8</ele>
        <time>2020-12-31T13:45:22Z</time>
      </trkpt>
      <trkpt lat="41.5878130" lon="-0.8794880">
        <ele>351.8</ele>
        <time>2020-12-31T13:45:24Z</time>
      </trkpt>
      <trkpt lat="41.5877670" lon="-0.8794980">
        <ele>351.8</ele>
        <time>2020-12-31T13:45:25Z</time>
      </trkpt>
      <trkpt lat="41.5877290" lon="-0.8794970">
        <ele>351.8</ele>
        <time>2020-12-31T13:45:26Z</time>
      </trkpt>
      <trkpt lat="41.5876720" lon="-0.8795010">
        <ele>351.8</ele>
        <time>2020-12-31T13:45:28Z</time>
      </trkpt>
      <trkpt lat="41.5876180" lon="-0.8795080">
        <ele>351.8</ele>
        <time>2020-12-31T13:45:29Z</time>
      </trkpt>
      <trkpt lat="41.5875740" lon="-0.8795130">
        <ele>351.8</ele>
        <time>2020-12-31T13:45:30Z</time>
      </trkpt>
      <trkpt lat="41.5875040" lon="-0.8795390">
        <ele>351.7</ele>
        <time>2020-12-31T13:45:32Z</time>
      </trkpt>
      <trkpt lat="41.5874550" lon="-0.8795850">
        <ele>351.7</ele>
        <time>2020-12-31T13:45:34Z</time>
      </trkpt>
      <trkpt lat="41.5874250" lon="-0.8796490">
        <ele>351.7</ele>
        <time>2020-12-31T13:45:36Z</time>
      </trkpt>
      <trkpt lat="41.5874000" lon="-0.8797210">
        <ele>351.8</ele>
        <time>2020-12-31T13:45:37Z</time>
      </trkpt>
      <trkpt lat="41.5873820" lon="-0.8797660">
        <ele>351.8</ele>
        <time>2020-12-31T13:45:38Z</time>
      </trkpt>
      <trkpt lat="41.5873600" lon="-0.8798120">
        <ele>352.0</ele>
        <time>2020-12-31T13:45:39Z</time>
      </trkpt>
      <trkpt lat="41.5873360" lon="-0.8798540">
        <ele>352.1</ele>
        <time>2020-12-31T13:45:40Z</time>
      </trkpt>
      <trkpt lat="41.5873080" lon="-0.8798900">
        <ele>352.2</ele>
        <time>2020-12-31T13:45:41Z</time>
      </trkpt>
      <trkpt lat="41.5872710" lon="-0.8799350">
        <ele>352.4</ele>
        <time>2020-12-31T13:45:43Z</time>
      </trkpt>
      <trkpt lat="41.5872410" lon="-0.8799690">
        <ele>352.5</ele>
        <time>2020-12-31T13:45:44Z</time>
      </trkpt>
      <trkpt lat="41.5872100" lon="-0.8800050">
        <ele>352.7</ele>
        <time>2020-12-31T13:45:45Z</time>
      </trkpt>
      <trkpt lat="41.5871580" lon="-0.8800700">
        <ele>352.9</ele>
        <time>2020-12-31T13:45:47Z</time>
      </trkpt>
      <trkpt lat="41.5871300" lon="-0.8801080">
        <ele>353.0</ele>
        <time>2020-12-31T13:45:48Z</time>
      </trkpt>
      <trkpt lat="41.5871000" lon="-0.8801590">
        <ele>353.1</ele>
        <time>2020-12-31T13:45:49Z</time>
      </trkpt>
      <trkpt lat="41.5870720" lon="-0.8802070">
        <ele>353.3</ele>
        <time>2020-12-31T13:45:50Z</time>
      </trkpt>
      <trkpt lat="41.5870420" lon="-0.8802580">
        <ele>353.4</ele>
        <time>2020-12-31T13:45:51Z</time>
      </trkpt>
      <trkpt lat="41.5870000" lon="-0.8803180">
        <ele>353.5</ele>
        <time>2020-12-31T13:45:53Z</time>
      </trkpt>
      <trkpt lat="41.5869690" lon="-0.8803580">
        <ele>353.6</ele>
        <time>2020-12-31T13:45:54Z</time>
      </trkpt>
      <trkpt lat="41.5869370" lon="-0.8803950">
        <ele>353.7</ele>
        <time>2020-12-31T13:45:55Z</time>
      </trkpt>
      <trkpt lat="41.5868800" lon="-0.8804530">
        <ele>354.0</ele>
        <time>2020-12-31T13:45:57Z</time>
      </trkpt>
      <trkpt lat="41.5868440" lon="-0.8804990">
        <ele>354.1</ele>
        <time>2020-12-31T13:45:58Z</time>
      </trkpt>
      <trkpt lat="41.5868170" lon="-0.8805390">
        <ele>354.3</ele>
        <time>2020-12-31T13:45:59Z</time>
      </trkpt>
      <trkpt lat="41.5868010" lon="-0.8805890">
        <ele>354.5</ele>
        <time>2020-12-31T13:46:00Z</time>
      </trkpt>
      <trkpt lat="41.5867890" lon="-0.8806440">
        <ele>354.7</ele>
        <time>2020-12-31T13:46:02Z</time>
      </trkpt>
      <trkpt lat="41.5867770" lon="-0.8806970">
        <ele>354.9</ele>
        <time>2020-12-31T13:46:03Z</time>
      </trkpt>
      <trkpt lat="41.5867700" lon="-0.8807370">
        <ele>355.1</ele>
        <time>2020-12-31T13:46:04Z</time>
      </trkpt>
      <trkpt lat="41.5867650" lon="-0.8807720">
        <ele>355.3</ele>
        <time>2020-12-31T13:46:05Z</time>
      </trkpt>
      <trkpt lat="41.5867530" lon="-0.8808210">
        <ele>355.5</ele>
        <time>2020-12-31T13:46:06Z</time>
      </trkpt>
      <trkpt lat="41.5867360" lon="-0.8808860">
        <ele>355.9</ele>
        <time>2020-12-31T13:46:08Z</time>
      </trkpt>
      <trkpt lat="41.5867140" lon="-0.8809500">
        <ele>356.3</ele>
        <time>2020-12-31T13:46:10Z</time>
      </trkpt>
      <trkpt lat="41.5866990" lon="-0.8809950">
        <ele>356.5</ele>
        <time>2020-12-31T13:46:11Z</time>
      </trkpt>
      <trkpt lat="41.5866750" lon="-0.8810520">
        <ele>356.9</ele>
        <time>2020-12-31T13:46:12Z</time>
      </trkpt>
      <trkpt lat="41.5866570" lon="-0.8811080">
        <ele>357.2</ele>
        <time>2020-12-31T13:46:14Z</time>
      </trkpt>
      <trkpt lat="41.5866470" lon="-0.8811570">
        <ele>357.5</ele>
        <time>2020-12-31T13:46:15Z</time>
      </trkpt>
      <trkpt lat="41.5866450" lon="-0.8812040">
        <ele>357.7</ele>
        <time>2020-12-31T13:46:16Z</time>
      </trkpt>
      <trkpt lat="41.5866420" lon="-0.8812480">
        <ele>357.9</ele>
        <time>2020-12-31T13:46:17Z</time>
      </trkpt>
      <trkpt lat="41.5866220" lon="-0.8813220">
        <ele>358.2</ele>
        <time>2020-12-31T13:46:18Z</time>
      </trkpt>
      <trkpt lat="41.5866070" lon="-0.8813710">
        <ele>358.4</ele>
        <time>2020-12-31T13:46:20Z</time>
      </trkpt>
      <trkpt lat="41.5865880" lon="-0.8814330">
        <ele>358.6</ele>
        <time>2020-12-31T13:46:21Z</time>
      </trkpt>
      <trkpt lat="41.5865810" lon="-0.8814750">
        <ele>358.7</ele>
        <time>2020-12-31T13:46:22Z</time>
      </trkpt>
      <trkpt lat="41.5865700" lon="-0.8815190">
        <ele>358.8</ele>
        <time>2020-12-31T13:46:23Z</time>
      </trkpt>
      <trkpt lat="41.5865520" lon="-0.8815840">
        <ele>359.0</ele>
        <time>2020-12-31T13:46:24Z</time>
      </trkpt>
      <trkpt lat="41.5865240" lon="-0.8816490">
        <ele>359.1</ele>
        <time>2020-12-31T13:46:26Z</time>
      </trkpt>
      <trkpt lat="41.5864930" lon="-0.8816900">
        <ele>359.2</ele>
        <time>2020-12-31T13:46:27Z</time>
      </trkpt>
      <trkpt lat="41.5864580" lon="-0.8817370">
        <ele>359.3</ele>
        <time>2020-12-31T13:46:28Z</time>
      </trkpt>
      <trkpt lat="41.5864240" lon="-0.8818030">
        <ele>359.4</ele>
        <time>2020-12-31T13:46:30Z</time>
      </trkpt>
      <trkpt lat="41.5864120" lon="-0.8818520">
        <ele>359.4</ele>
        <time>2020-12-31T13:46:31Z</time>
      </trkpt>
      <trkpt lat="41.5864020" lon="-0.8819080">
        <ele>359.4</ele>
        <time>2020-12-31T13:46:32Z</time>
      </trkpt>
      <trkpt lat="41.5863960" lon="-0.8819650">
        <ele>359.4</ele>
        <time>2020-12-31T13:46:33Z</time>
      </trkpt>
      <trkpt lat="41.5864040" lon="-0.8820410">
        <ele>359.4</ele>
        <time>2020-12-31T13:46:35Z</time>
      </trkpt>
      <trkpt lat="41.5864170" lon="-0.8820790">
        <ele>359.3</ele>
        <time>2020-12-31T13:46:36Z</time>
      </trkpt>
      <trkpt lat="41.5864280" lon="-0.8821220">
        <ele>359.3</ele>
        <time>2020-12-31T13:46:37Z</time>
      </trkpt>
      <trkpt lat="41.5864310" lon="-0.8821470">
        <ele>359.3</ele>
        <time>2020-12-31T13:46:38Z</time>
      </trkpt>
      <trkpt lat="41.5864270" lon="-0.8823110">
        <ele>359.1</ele>
        <time>2020-12-31T13:46:40Z</time>
      </trkpt>
      <trkpt lat="41.5863940" lon="-0.8824600">
        <ele>359.1</ele>
        <time>2020-12-31T13:46:42Z</time>
      </trkpt>
      <trkpt lat="41.5863620" lon="-0.8825090">
        <ele>359.1</ele>
        <time>2020-12-31T13:46:44Z</time>
      </trkpt>
      <trkpt lat="41.5863350" lon="-0.8825590">
        <ele>359.2</ele>
        <time>2020-12-31T13:46:45Z</time>
      </trkpt>
      <trkpt lat="41.5863120" lon="-0.8825950">
        <ele>359.2</ele>
        <time>2020-12-31T13:46:46Z</time>
      </trkpt>
      <trkpt lat="41.5862860" lon="-0.8826350">
        <ele>359.3</ele>
        <time>2020-12-31T13:46:47Z</time>
      </trkpt>
      <trkpt lat="41.5862530" lon="-0.8826730">
        <ele>359.4</ele>
        <time>2020-12-31T13:46:48Z</time>
      </trkpt>
      <trkpt lat="41.5862120" lon="-0.8827120">
        <ele>359.5</ele>
        <time>2020-12-31T13:46:49Z</time>
      </trkpt>
      <trkpt lat="41.5861770" lon="-0.8827440">
        <ele>359.5</ele>
        <time>2020-12-31T13:46:50Z</time>
      </trkpt>
      <trkpt lat="41.5861320" lon="-0.8827820">
        <ele>359.7</ele>
        <time>2020-12-31T13:46:52Z</time>
      </trkpt>
      <trkpt lat="41.5860930" lon="-0.8828150">
        <ele>359.7</ele>
        <time>2020-12-31T13:46:53Z</time>
      </trkpt>
      <trkpt lat="41.5860650" lon="-0.8828380">
        <ele>359.8</ele>
        <time>2020-12-31T13:46:54Z</time>
      </trkpt>
      <trkpt lat="41.5860390" lon="-0.8828640">
        <ele>359.9</ele>
        <time>2020-12-31T13:46:55Z</time>
      </trkpt>
      <trkpt lat="41.5860050" lon="-0.8829020">
        <ele>359.9</ele>
        <time>2020-12-31T13:46:57Z</time>
      </trkpt>
      <trkpt lat="41.5859890" lon="-0.8829470">
        <ele>359.9</ele>
        <time>2020-12-31T13:46:58Z</time>
      </trkpt>
      <trkpt lat="41.5859960" lon="-0.8830490">
        <ele>359.9</ele>
        <time>2020-12-31T13:47:00Z</time>
      </trkpt>
      <trkpt lat="41.5860120" lon="-0.8831140">
        <ele>359.9</ele>
        <time>2020-12-31T13:47:01Z</time>
      </trkpt>
      <trkpt lat="41.5860200" lon="-0.8831670">
        <ele>359.8</ele>
        <time>2020-12-31T13:47:02Z</time>
      </trkpt>
      <trkpt lat="41.5860250" lon="-0.8832210">
        <ele>359.7</ele>
        <time>2020-12-31T13:47:03Z</time>
      </trkpt>
      <trkpt lat="41.5860350" lon="-0.8833000">
        <ele>359.6</ele>
        <time>2020-12-31T13:47:05Z</time>
      </trkpt>
      <trkpt lat="41.5860400" lon="-0.8833360">
        <ele>359.6</ele>
        <time>2020-12-31T13:47:06Z</time>
      </trkpt>
      <trkpt lat="41.5860310" lon="-0.8834310">
        <ele>359.5</ele>
        <time>2020-12-31T13:47:07Z</time>
      </trkpt>
      <trkpt lat="41.5860090" lon="-0.8834900">
        <ele>359.5</ele>
        <time>2020-12-31T13:47:08Z</time>
      </trkpt>
      <trkpt lat="41.5859660" lon="-0.8836490">
        <ele>359.7</ele>
        <time>2020-12-31T13:47:10Z</time>
      </trkpt>
      <trkpt lat="41.5859360" lon="-0.8837420">
        <ele>359.9</ele>
        <time>2020-12-31T13:47:12Z</time>
      </trkpt>
      <trkpt lat="41.5859540" lon="-0.8837750">
        <ele>360.0</ele>
        <time>2020-12-31T13:47:13Z</time>
      </trkpt>
      <trkpt lat="41.5858980" lon="-0.8838250">
        <ele>360.3</ele>
        <time>2020-12-31T13:47:15Z</time>
      </trkpt>
      <trkpt lat="41.5858230" lon="-0.8838530">
        <ele>360.6</ele>
        <time>2020-12-31T13:47:16Z</time>
      </trkpt>
      <trkpt lat="41.5857660" lon="-0.8838580">
        <ele>360.8</ele>
        <time>2020-12-31T13:47:17Z</time>
      </trkpt>
      <trkpt lat="41.5857140" lon="-0.8838470">
        <ele>361.1</ele>
        <time>2020-12-31T13:47:19Z</time>
      </trkpt>
      <trkpt lat="41.5856540" lon="-0.8838430">
        <ele>361.4</ele>
        <time>2020-12-31T13:47:20Z</time>
      </trkpt>
      <trkpt lat="41.5856020" lon="-0.8838550">
        <ele>361.7</ele>
        <time>2020-12-31T13:47:22Z</time>
      </trkpt>
      <trkpt lat="41.5855570" lon="-0.8838700">
        <ele>361.9</ele>
        <time>2020-12-31T13:47:23Z</time>
      </trkpt>
      <trkpt lat="41.5855160" lon="-0.8838790">
        <ele>362.2</ele>
        <time>2020-12-31T13:47:24Z</time>
      </trkpt>
      <trkpt lat="41.5854550" lon="-0.8838710">
        <ele>362.5</ele>
        <time>2020-12-31T13:47:26Z</time>
      </trkpt>
      <trkpt lat="41.5854200" lon="-0.8838540">
        <ele>362.7</ele>
        <time>2020-12-31T13:47:27Z</time>
      </trkpt>
      <trkpt lat="41.5853850" lon="-0.8838360">
        <ele>363.0</ele>
        <time>2020-12-31T13:47:28Z</time>
      </trkpt>
      <trkpt lat="41.5853520" lon="-0.8838210">
        <ele>363.2</ele>
        <time>2020-12-31T13:47:29Z</time>
      </trkpt>
      <trkpt lat="41.5853160" lon="-0.8838120">
        <ele>363.4</ele>
        <time>2020-12-31T13:47:31Z</time>
      </trkpt>
      <trkpt lat="41.5852810" lon="-0.8838080">
        <ele>363.6</ele>
        <time>2020-12-31T13:47:32Z</time>
      </trkpt>
      <trkpt lat="41.5852510" lon="-0.8838080">
        <ele>363.7</ele>
        <time>2020-12-31T13:47:33Z</time>
      </trkpt>
      <trkpt lat="41.5852110" lon="-0.8838050">
        <ele>363.9</ele>
        <time>2020-12-31T13:47:35Z</time>
      </trkpt>
      <trkpt lat="41.5851830" lon="-0.8838020">
        <ele>364.0</ele>
        <time>2020-12-31T13:47:36Z</time>
      </trkpt>
      <trkpt lat="41.5851520" lon="-0.8837980">
        <ele>364.2</ele>
        <time>2020-12-31T13:47:37Z</time>
      </trkpt>
      <trkpt lat="41.5851080" lon="-0.8838140">
        <ele>364.3</ele>
        <time>2020-12-31T13:47:39Z</time>
      </trkpt>
      <trkpt lat="41.5850840" lon="-0.8838360">
        <ele>364.4</ele>
        <time>2020-12-31T13:47:40Z</time>
      </trkpt>
      <trkpt lat="41.5850550" lon="-0.8838710">
        <ele>364.5</ele>
        <time>2020-12-31T13:47:41Z</time>
      </trkpt>
      <trkpt lat="41.5850230" lon="-0.8839130">
        <ele>364.6</ele>
        <time>2020-12-31T13:47:42Z</time>
      </trkpt>
      <trkpt lat="41.5849940" lon="-0.8839440">
        <ele>364.6</ele>
        <time>2020-12-31T13:47:43Z</time>
      </trkpt>
      <trkpt lat="41.5849590" lon="-0.8839790">
        <ele>364.7</ele>
        <time>2020-12-31T13:47:44Z</time>
      </trkpt>
      <trkpt lat="41.5849230" lon="-0.8840110">
        <ele>364.8</ele>
        <time>2020-12-31T13:47:45Z</time>
      </trkpt>
      <trkpt lat="41.5848910" lon="-0.8840400">
        <ele>364.9</ele>
        <time>2020-12-31T13:47:46Z</time>
      </trkpt>
      <trkpt lat="41.5848560" lon="-0.8840770">
        <ele>364.9</ele>
        <time>2020-12-31T13:47:48Z</time>
      </trkpt>
      <trkpt lat="41.5848320" lon="-0.8841040">
        <ele>364.9</ele>
        <time>2020-12-31T13:47:49Z</time>
      </trkpt>
      <trkpt lat="41.5848100" lon="-0.8841440">
        <ele>364.9</ele>
        <time>2020-12-31T13:47:51Z</time>
      </trkpt>
      <trkpt lat="41.5847940" lon="-0.8841770">
        <ele>364.8</ele>
        <time>2020-12-31T13:47:52Z</time>
      </trkpt>
      <trkpt lat="41.5847780" lon="-0.8842170">
        <ele>364.7</ele>
        <time>2020-12-31T13:47:53Z</time>
      </trkpt>
      <trkpt lat="41.5847550" lon="-0.8842550">
        <ele>364.6</ele>
        <time>2020-12-31T13:47:54Z</time>
      </trkpt>
      <trkpt lat="41.5847330" lon="-0.8842910">
        <ele>364.4</ele>
        <time>2020-12-31T13:47:55Z</time>
      </trkpt>
      <trkpt lat="41.5846860" lon="-0.8843680">
        <ele>363.8</ele>
        <time>2020-12-31T13:47:57Z</time>
      </trkpt>
      <trkpt lat="41.5846120" lon="-0.8845230">
        <ele>362.8</ele>
        <time>2020-12-31T13:47:59Z</time>
      </trkpt>
      <trkpt lat="41.5845780" lon="-0.8846040">
        <ele>362.4</ele>
        <time>2020-12-31T13:48:00Z</time>
      </trkpt>
      <trkpt lat="41.5845780" lon="-0.8846500">
        <ele>362.2</ele>
        <time>2020-12-31T13:48:01Z</time>
      </trkpt>
      <trkpt lat="41.5845640" lon="-0.8847010">
        <ele>362.1</ele>
        <time>2020-12-31T13:48:03Z</time>
      </trkpt>
      <trkpt lat="41.5845230" lon="-0.8849880">
        <ele>361.8</ele>
        <time>2020-12-31T13:48:04Z</time>
      </trkpt>
      <trkpt lat="41.5845120" lon="-0.8850540">
        <ele>361.7</ele>
        <time>2020-12-31T13:48:05Z</time>
      </trkpt>
      <trkpt lat="41.5844890" lon="-0.8851520">
        <ele>361.5</ele>
        <time>2020-12-31T13:48:06Z</time>
      </trkpt>
      <trkpt lat="41.5844710" lon="-0.8852410">
        <ele>361.3</ele>
        <time>2020-12-31T13:48:07Z</time>
      </trkpt>
      <trkpt lat="41.5844330" lon="-0.8853940">
        <ele>360.8</ele>
        <time>2020-12-31T13:48:09Z</time>
      </trkpt>
      <trkpt lat="41.5843990" lon="-0.8854660">
        <ele>360.6</ele>
        <time>2020-12-31T13:48:10Z</time>
      </trkpt>
      <trkpt lat="41.5843560" lon="-0.8855340">
        <ele>360.3</ele>
        <time>2020-12-31T13:48:11Z</time>
      </trkpt>
      <trkpt lat="41.5842690" lon="-0.8856560">
        <ele>359.9</ele>
        <time>2020-12-31T13:48:13Z</time>
      </trkpt>
      <trkpt lat="41.5842370" lon="-0.8857320">
        <ele>359.7</ele>
        <time>2020-12-31T13:48:14Z</time>
      </trkpt>
      <trkpt lat="41.5841770" lon="-0.8858830">
        <ele>359.2</ele>
        <time>2020-12-31T13:48:16Z</time>
      </trkpt>
      <trkpt lat="41.5841430" lon="-0.8859520">
        <ele>359.0</ele>
        <time>2020-12-31T13:48:17Z</time>
      </trkpt>
      <trkpt lat="41.5841000" lon="-0.8860260">
        <ele>358.9</ele>
        <time>2020-12-31T13:48:18Z</time>
      </trkpt>
      <trkpt lat="41.5840090" lon="-0.8861750">
        <ele>358.8</ele>
        <time>2020-12-31T13:48:20Z</time>
      </trkpt>
      <trkpt lat="41.5839130" lon="-0.8862820">
        <ele>359.0</ele>
        <time>2020-12-31T13:48:22Z</time>
      </trkpt>
      <trkpt lat="41.5838330" lon="-0.8863460">
        <ele>359.4</ele>
        <time>2020-12-31T13:48:24Z</time>
      </trkpt>
      <trkpt lat="41.5837760" lon="-0.8863550">
        <ele>359.6</ele>
        <time>2020-12-31T13:48:26Z</time>
      </trkpt>
      <trkpt lat="41.5836990" lon="-0.8863700">
        <ele>360.1</ele>
        <time>2020-12-31T13:48:28Z</time>
      </trkpt>
      <trkpt lat="41.5836680" lon="-0.8863720">
        <ele>360.3</ele>
        <time>2020-12-31T13:48:29Z</time>
      </trkpt>
      <trkpt lat="41.5836280" lon="-0.8863640">
        <ele>360.6</ele>
        <time>2020-12-31T13:48:30Z</time>
      </trkpt>
      <trkpt lat="41.5835890" lon="-0.8863540">
        <ele>360.8</ele>
        <time>2020-12-31T13:48:32Z</time>
      </trkpt>
      <trkpt lat="41.5835480" lon="-0.8863660">
        <ele>361.1</ele>
        <time>2020-12-31T13:48:33Z</time>
      </trkpt>
      <trkpt lat="41.5835320" lon="-0.8863730">
        <ele>361.3</ele>
        <time>2020-12-31T13:48:34Z</time>
      </trkpt>
      <trkpt lat="41.5835040" lon="-0.8863900">
        <ele>361.5</ele>
        <time>2020-12-31T13:48:35Z</time>
      </trkpt>
      <trkpt lat="41.5834650" lon="-0.8864250">
        <ele>361.7</ele>
        <time>2020-12-31T13:48:37Z</time>
      </trkpt>
      <trkpt lat="41.5834150" lon="-0.8864910">
        <ele>362.0</ele>
        <time>2020-12-31T13:48:39Z</time>
      </trkpt>
      <trkpt lat="41.5833800" lon="-0.8865360">
        <ele>362.0</ele>
        <time>2020-12-31T13:48:40Z</time>
      </trkpt>
      <trkpt lat="41.5833300" lon="-0.8865880">
        <ele>362.1</ele>
        <time>2020-12-31T13:48:41Z</time>
      </trkpt>
      <trkpt lat="41.5832910" lon="-0.8866300">
        <ele>362.1</ele>
        <time>2020-12-31T13:48:42Z</time>
      </trkpt>
      <trkpt lat="41.5832950" lon="-0.8866830">
        <ele>362.2</ele>
        <time>2020-12-31T13:48:44Z</time>
      </trkpt>
      <trkpt lat="41.5832460" lon="-0.8867310">
        <ele>362.3</ele>
        <time>2020-12-31T13:48:45Z</time>
      </trkpt>
      <trkpt lat="41.5831990" lon="-0.8867690">
        <ele>362.4</ele>
        <time>2020-12-31T13:48:46Z</time>
      </trkpt>
      <trkpt lat="41.5831600" lon="-0.8868080">
        <ele>362.5</ele>
        <time>2020-12-31T13:48:48Z</time>
      </trkpt>
      <trkpt lat="41.5831260" lon="-0.8868530">
        <ele>362.5</ele>
        <time>2020-12-31T13:48:49Z</time>
      </trkpt>
      <trkpt lat="41.5831010" lon="-0.8868980">
        <ele>362.6</ele>
        <time>2020-12-31T13:48:50Z</time>
      </trkpt>
      <trkpt lat="41.5830880" lon="-0.8869430">
        <ele>362.5</ele>
        <time>2020-12-31T13:48:52Z</time>
      </trkpt>
      <trkpt lat="41.5831020" lon="-0.8870070">
        <ele>362.4</ele>
        <time>2020-12-31T13:48:53Z</time>
      </trkpt>
      <trkpt lat="41.5831340" lon="-0.8870640">
        <ele>362.3</ele>
        <time>2020-12-31T13:48:55Z</time>
      </trkpt>
      <trkpt lat="41.5831710" lon="-0.8871100">
        <ele>362.1</ele>
        <time>2020-12-31T13:48:56Z</time>
      </trkpt>
      <trkpt lat="41.5832090" lon="-0.8871660">
        <ele>361.8</ele>
        <time>2020-12-31T13:48:58Z</time>
      </trkpt>
      <trkpt lat="41.5832370" lon="-0.8872290">
        <ele>361.5</ele>
        <time>2020-12-31T13:48:59Z</time>
      </trkpt>
      <trkpt lat="41.5832550" lon="-0.8872730">
        <ele>361.3</ele>
        <time>2020-12-31T13:49:00Z</time>
      </trkpt>
      <trkpt lat="41.5832860" lon="-0.8873400">
        <ele>361.0</ele>
        <time>2020-12-31T13:49:02Z</time>
      </trkpt>
      <trkpt lat="41.5833280" lon="-0.8874440">
        <ele>360.5</ele>
        <time>2020-12-31T13:49:03Z</time>
      </trkpt>
      <trkpt lat="41.5833850" lon="-0.8875790">
        <ele>359.8</ele>
        <time>2020-12-31T13:49:05Z</time>
      </trkpt>
      <trkpt lat="41.5834200" lon="-0.8876380">
        <ele>359.4</ele>
        <time>2020-12-31T13:49:06Z</time>
      </trkpt>
      <trkpt lat="41.5834610" lon="-0.8876870">
        <ele>359.0</ele>
        <time>2020-12-31T13:49:07Z</time>
      </trkpt>
      <trkpt lat="41.5835500" lon="-0.8877780">
        <ele>358.3</ele>
        <time>2020-12-31T13:49:09Z</time>
      </trkpt>
      <trkpt lat="41.5836280" lon="-0.8879020">
        <ele>357.5</ele>
        <time>2020-12-31T13:49:11Z</time>
      </trkpt>
      <trkpt lat="41.5836720" lon="-0.8879670">
        <ele>357.1</ele>
        <time>2020-12-31T13:49:12Z</time>
      </trkpt>
      <trkpt lat="41.5837470" lon="-0.8881090">
        <ele>356.4</ele>
        <time>2020-12-31T13:49:14Z</time>
      </trkpt>
      <trkpt lat="41.5837980" lon="-0.8881540">
        <ele>356.0</ele>
        <time>2020-12-31T13:49:15Z</time>
      </trkpt>
      <trkpt lat="41.5839110" lon="-0.8881900">
        <ele>355.3</ele>
        <time>2020-12-31T13:49:17Z</time>
      </trkpt>
      <trkpt lat="41.5839580" lon="-0.8881900">
        <ele>355.0</ele>
        <time>2020-12-31T13:49:18Z</time>
      </trkpt>
      <trkpt lat="41.5839880" lon="-0.8882060">
        <ele>354.8</ele>
        <time>2020-12-31T13:49:19Z</time>
      </trkpt>
      <trkpt lat="41.5840120" lon="-0.8883160">
        <ele>354.5</ele>
        <time>2020-12-31T13:49:21Z</time>
      </trkpt>
      <trkpt lat="41.5839660" lon="-0.8883990">
        <ele>354.6</ele>
        <time>2020-12-31T13:49:23Z</time>
      </trkpt>
      <trkpt lat="41.5839370" lon="-0.8883950">
        <ele>354.7</ele>
        <time>2020-12-31T13:49:24Z</time>
      </trkpt>
      <trkpt lat="41.5838470" lon="-0.8883650">
        <ele>354.8</ele>
        <time>2020-12-31T13:49:25Z</time>
      </trkpt>
      <trkpt lat="41.5838090" lon="-0.8883920">
        <ele>354.9</ele>
        <time>2020-12-31T13:49:26Z</time>
      </trkpt>
      <trkpt lat="41.5837830" lon="-0.8884130">
        <ele>354.9</ele>
        <time>2020-12-31T13:49:28Z</time>
      </trkpt>
      <trkpt lat="41.5837570" lon="-0.8884320">
        <ele>354.9</ele>
        <time>2020-12-31T13:49:29Z</time>
      </trkpt>
      <trkpt lat="41.5836900" lon="-0.8884820">
        <ele>354.8</ele>
        <time>2020-12-31T13:49:31Z</time>
      </trkpt>
      <trkpt lat="41.5836580" lon="-0.8885220">
        <ele>354.8</ele>
        <time>2020-12-31T13:49:32Z</time>
      </trkpt>
      <trkpt lat="41.5836280" lon="-0.8885720">
        <ele>354.8</ele>
        <time>2020-12-31T13:49:33Z</time>
      </trkpt>
      <trkpt lat="41.5835730" lon="-0.8886970">
        <ele>354.6</ele>
        <time>2020-12-31T13:49:35Z</time>
      </trkpt>
      <trkpt lat="41.5835130" lon="-0.8888190">
        <ele>354.6</ele>
        <time>2020-12-31T13:49:37Z</time>
      </trkpt>
      <trkpt lat="41.5834860" lon="-0.8888800">
        <ele>354.6</ele>
        <time>2020-12-31T13:49:38Z</time>
      </trkpt>
      <trkpt lat="41.5833930" lon="-0.8889570">
        <ele>354.8</ele>
        <time>2020-12-31T13:49:40Z</time>
      </trkpt>
      <trkpt lat="41.5833390" lon="-0.8889670">
        <ele>354.8</ele>
        <time>2020-12-31T13:49:41Z</time>
      </trkpt>
      <trkpt lat="41.5832510" lon="-0.8890070">
        <ele>355.0</ele>
        <time>2020-12-31T13:49:43Z</time>
      </trkpt>
      <trkpt lat="41.5832310" lon="-0.8890540">
        <ele>355.0</ele>
        <time>2020-12-31T13:49:44Z</time>
      </trkpt>
      <trkpt lat="41.5832030" lon="-0.8890990">
        <ele>355.1</ele>
        <time>2020-12-31T13:49:45Z</time>
      </trkpt>
      <trkpt lat="41.5831730" lon="-0.8891560">
        <ele>355.2</ele>
        <time>2020-12-31T13:49:47Z</time>
      </trkpt>
      <trkpt lat="41.5831380" lon="-0.8892160">
        <ele>355.2</ele>
        <time>2020-12-31T13:49:48Z</time>
      </trkpt>
      <trkpt lat="41.5831050" lon="-0.8892680">
        <ele>355.3</ele>
        <time>2020-12-31T13:49:49Z</time>
      </trkpt>
      <trkpt lat="41.5830390" lon="-0.8893580">
        <ele>355.5</ele>
        <time>2020-12-31T13:49:51Z</time>
      </trkpt>
      <trkpt lat="41.5829970" lon="-0.8893480">
        <ele>355.6</ele>
        <time>2020-12-31T13:49:52Z</time>
      </trkpt>
      <trkpt lat="41.5829380" lon="-0.8893640">
        <ele>355.8</ele>
        <time>2020-12-31T13:49:54Z</time>
      </trkpt>
      <trkpt lat="41.5828970" lon="-0.8893960">
        <ele>355.9</ele>
        <time>2020-12-31T13:49:55Z</time>
      </trkpt>
      <trkpt lat="41.5828630" lon="-0.8894280">
        <ele>356.0</ele>
        <time>2020-12-31T13:49:56Z</time>
      </trkpt>
      <trkpt lat="41.5828310" lon="-0.8894570">
        <ele>356.1</ele>
        <time>2020-12-31T13:49:57Z</time>
      </trkpt>
      <trkpt lat="41.5827750" lon="-0.8895070">
        <ele>356.2</ele>
        <time>2020-12-31T13:49:59Z</time>
      </trkpt>
      <trkpt lat="41.5827280" lon="-0.8895930">
        <ele>356.2</ele>
        <time>2020-12-31T13:50:01Z</time>
      </trkpt>
      <trkpt lat="41.5826970" lon="-0.8896710">
        <ele>356.3</ele>
        <time>2020-12-31T13:50:02Z</time>
      </trkpt>
      <trkpt lat="41.5826210" lon="-0.8898020">
        <ele>356.3</ele>
        <time>2020-12-31T13:50:04Z</time>
      </trkpt>
      <trkpt lat="41.5825440" lon="-0.8899280">
        <ele>356.5</ele>
        <time>2020-12-31T13:50:06Z</time>
      </trkpt>
      <trkpt lat="41.5824940" lon="-0.8899820">
        <ele>356.7</ele>
        <time>2020-12-31T13:50:07Z</time>
      </trkpt>
      <trkpt lat="41.5824430" lon="-0.8900250">
        <ele>357.0</ele>
        <time>2020-12-31T13:50:08Z</time>
      </trkpt>
      <trkpt lat="41.5824070" lon="-0.8900580">
        <ele>357.1</ele>
        <time>2020-12-31T13:50:09Z</time>
      </trkpt>
      <trkpt lat="41.5823610" lon="-0.8900850">
        <ele>357.3</ele>
        <time>2020-12-31T13:50:10Z</time>
      </trkpt>
      <trkpt lat="41.5823140" lon="-0.8900950">
        <ele>357.5</ele>
        <time>2020-12-31T13:50:11Z</time>
      </trkpt>
      <trkpt lat="41.5822640" lon="-0.8901050">
        <ele>357.6</ele>
        <time>2020-12-31T13:50:13Z</time>
      </trkpt>
      <trkpt lat="41.5822150" lon="-0.8901300">
        <ele>357.8</ele>
        <time>2020-12-31T13:50:14Z</time>
      </trkpt>
      <trkpt lat="41.5821430" lon="-0.8901650">
        <ele>358.0</ele>
        <time>2020-12-31T13:50:16Z</time>
      </trkpt>
      <trkpt lat="41.5820660" lon="-0.8901910">
        <ele>358.2</ele>
        <time>2020-12-31T13:50:18Z</time>
      </trkpt>
      <trkpt lat="41.5820240" lon="-0.8902180">
        <ele>358.3</ele>
        <time>2020-12-31T13:50:19Z</time>
      </trkpt>
      <trkpt lat="41.5819710" lon="-0.8902330">
        <ele>358.5</ele>
        <time>2020-12-31T13:50:21Z</time>
      </trkpt>
      <trkpt lat="41.5819190" lon="-0.8902450">
        <ele>358.7</ele>
        <time>2020-12-31T13:50:22Z</time>
      </trkpt>
      <trkpt lat="41.5818850" lon="-0.8902680">
        <ele>358.8</ele>
        <time>2020-12-31T13:50:23Z</time>
      </trkpt>
      <trkpt lat="41.5818520" lon="-0.8903010">
        <ele>359.0</ele>
        <time>2020-12-31T13:50:24Z</time>
      </trkpt>
      <trkpt lat="41.5818240" lon="-0.8903400">
        <ele>359.1</ele>
        <time>2020-12-31T13:50:25Z</time>
      </trkpt>
      <trkpt lat="41.5817880" lon="-0.8903850">
        <ele>359.3</ele>
        <time>2020-12-31T13:50:27Z</time>
      </trkpt>
      <trkpt lat="41.5817560" lon="-0.8904090">
        <ele>359.4</ele>
        <time>2020-12-31T13:50:28Z</time>
      </trkpt>
      <trkpt lat="41.5817230" lon="-0.8904350">
        <ele>359.5</ele>
        <time>2020-12-31T13:50:29Z</time>
      </trkpt>
      <trkpt lat="41.5816710" lon="-0.8905000">
        <ele>359.8</ele>
        <time>2020-12-31T13:50:31Z</time>
      </trkpt>
      <trkpt lat="41.5816330" lon="-0.8905590">
        <ele>360.0</ele>
        <time>2020-12-31T13:50:33Z</time>
      </trkpt>
      <trkpt lat="41.5816110" lon="-0.8905920">
        <ele>360.1</ele>
        <time>2020-12-31T13:50:34Z</time>
      </trkpt>
      <trkpt lat="41.5815860" lon="-0.8906260">
        <ele>360.3</ele>
        <time>2020-12-31T13:50:35Z</time>
      </trkpt>
      <trkpt lat="41.5815560" lon="-0.8906600">
        <ele>360.5</ele>
        <time>2020-12-31T13:50:36Z</time>
      </trkpt>
      <trkpt lat="41.5815280" lon="-0.8906920">
        <ele>360.6</ele>
        <time>2020-12-31T13:50:37Z</time>
      </trkpt>
      <trkpt lat="41.5814960" lon="-0.8907220">
        <ele>360.9</ele>
        <time>2020-12-31T13:50:38Z</time>
      </trkpt>
      <trkpt lat="41.5814560" lon="-0.8907460">
        <ele>361.1</ele>
        <time>2020-12-31T13:50:40Z</time>
      </trkpt>
      <trkpt lat="41.5814180" lon="-0.8907650">
        <ele>361.4</ele>
        <time>2020-12-31T13:50:41Z</time>
      </trkpt>
      <trkpt lat="41.5813860" lon="-0.8907800">
        <ele>361.7</ele>
        <time>2020-12-31T13:50:42Z</time>
      </trkpt>
      <trkpt lat="41.5813480" lon="-0.8907900">
        <ele>362.0</ele>
        <time>2020-12-31T13:50:43Z</time>
      </trkpt>
      <trkpt lat="41.5813360" lon="-0.8907930">
        <ele>362.1</ele>
        <time>2020-12-31T13:50:44Z</time>
      </trkpt>
      <trkpt lat="41.5812990" lon="-0.8908080">
        <ele>362.5</ele>
        <time>2020-12-31T13:50:46Z</time>
      </trkpt>
      <trkpt lat="41.5812720" lon="-0.8908200">
        <ele>362.8</ele>
        <time>2020-12-31T13:50:47Z</time>
      </trkpt>
      <trkpt lat="41.5812390" lon="-0.8908300">
        <ele>363.2</ele>
        <time>2020-12-31T13:50:49Z</time>
      </trkpt>
      <trkpt lat="41.5812070" lon="-0.8908360">
        <ele>363.5</ele>
        <time>2020-12-31T13:50:50Z</time>
      </trkpt>
      <trkpt lat="41.5811630" lon="-0.8908360">
        <ele>364.0</ele>
        <time>2020-12-31T13:50:52Z</time>
      </trkpt>
      <trkpt lat="41.5811490" lon="-0.8908340">
        <ele>364.1</ele>
        <time>2020-12-31T13:50:53Z</time>
      </trkpt>
      <trkpt lat="41.5811360" lon="-0.8908310">
        <ele>364.2</ele>
        <time>2020-12-31T13:50:54Z</time>
      </trkpt>
      <trkpt lat="41.5810990" lon="-0.8908290">
        <ele>364.4</ele>
        <time>2020-12-31T13:50:55Z</time>
      </trkpt>
      <trkpt lat="41.5810830" lon="-0.8908320">
        <ele>364.5</ele>
        <time>2020-12-31T13:50:56Z</time>
      </trkpt>
      <trkpt lat="41.5810540" lon="-0.8908420">
        <ele>364.6</ele>
        <time>2020-12-31T13:50:58Z</time>
      </trkpt>
      <trkpt lat="41.5810230" lon="-0.8908530">
        <ele>364.7</ele>
        <time>2020-12-31T13:50:59Z</time>
      </trkpt>
      <trkpt lat="41.5809890" lon="-0.8908710">
        <ele>364.7</ele>
        <time>2020-12-31T13:51:00Z</time>
      </trkpt>
      <trkpt lat="41.5809610" lon="-0.8908890">
        <ele>364.7</ele>
        <time>2020-12-31T13:51:01Z</time>
      </trkpt>
      <trkpt lat="41.5809090" lon="-0.8909250">
        <ele>364.6</ele>
        <time>2020-12-31T13:51:02Z</time>
      </trkpt>
      <trkpt lat="41.5808610" lon="-0.8909640">
        <ele>364.5</ele>
        <time>2020-12-31T13:51:03Z</time>
      </trkpt>
      <trkpt lat="41.5807640" lon="-0.8910660">
        <ele>364.3</ele>
        <time>2020-12-31T13:51:05Z</time>
      </trkpt>
      <trkpt lat="41.5807190" lon="-0.8911200">
        <ele>364.2</ele>
        <time>2020-12-31T13:51:07Z</time>
      </trkpt>
      <trkpt lat="41.5806930" lon="-0.8911500">
        <ele>364.2</ele>
        <time>2020-12-31T13:51:09Z</time>
      </trkpt>
      <trkpt lat="41.5806810" lon="-0.8911700">
        <ele>364.2</ele>
        <time>2020-12-31T13:51:10Z</time>
      </trkpt>
      <trkpt lat="41.5806530" lon="-0.8912140">
        <ele>364.1</ele>
        <time>2020-12-31T13:51:11Z</time>
      </trkpt>
      <trkpt lat="41.5806170" lon="-0.8912570">
        <ele>364.1</ele>
        <time>2020-12-31T13:51:13Z</time>
      </trkpt>
      <trkpt lat="41.5805870" lon="-0.8912900">
        <ele>364.1</ele>
        <time>2020-12-31T13:51:14Z</time>
      </trkpt>
      <trkpt lat="41.5805500" lon="-0.8913230">
        <ele>364.2</ele>
        <time>2020-12-31T13:51:15Z</time>
      </trkpt>
      <trkpt lat="41.5805030" lon="-0.8913470">
        <ele>364.2</ele>
        <time>2020-12-31T13:51:16Z</time>
      </trkpt>
      <trkpt lat="41.5804600" lon="-0.8913590">
        <ele>364.4</ele>
        <time>2020-12-31T13:51:18Z</time>
      </trkpt>
      <trkpt lat="41.5804040" lon="-0.8913790">
        <ele>364.5</ele>
        <time>2020-12-31T13:51:19Z</time>
      </trkpt>
      <trkpt lat="41.5803720" lon="-0.8913880">
        <ele>365.0</ele>
        <time>2020-12-31T13:51:20Z</time>
      </trkpt>
      <trkpt lat="41.5803310" lon="-0.8914010">
        <ele>365.8</ele>
        <time>2020-12-31T13:51:22Z</time>
      </trkpt>
      <trkpt lat="41.5802960" lon="-0.8914190">
        <ele>366.5</ele>
        <time>2020-12-31T13:51:23Z</time>
      </trkpt>
      <trkpt lat="41.5802630" lon="-0.8914380">
        <ele>367.2</ele>
        <time>2020-12-31T13:51:25Z</time>
      </trkpt>
      <trkpt lat="41.5802490" lon="-0.8914470">
        <ele>367.6</ele>
        <time>2020-12-31T13:51:26Z</time>
      </trkpt>
      <trkpt lat="41.5802040" lon="-0.8914720">
        <ele>368.7</ele>
        <time>2020-12-31T13:51:28Z</time>
      </trkpt>
      <trkpt lat="41.5801710" lon="-0.8914870">
        <ele>369.5</ele>
        <time>2020-12-31T13:51:29Z</time>
      </trkpt>
      <trkpt lat="41.5801610" lon="-0.8914870">
        <ele>369.8</ele>
        <time>2020-12-31T13:51:30Z</time>
      </trkpt>
      <trkpt lat="41.5801190" lon="-0.8914840">
        <ele>370.7</ele>
        <time>2020-12-31T13:51:32Z</time>
      </trkpt>
      <trkpt lat="41.5801050" lon="-0.8914820">
        <ele>371.1</ele>
        <time>2020-12-31T13:51:33Z</time>
      </trkpt>
      <trkpt lat="41.5800910" lon="-0.8914800">
        <ele>371.4</ele>
        <time>2020-12-31T13:51:34Z</time>
      </trkpt>
      <trkpt lat="41.5800690" lon="-0.8914780">
        <ele>371.9</ele>
        <time>2020-12-31T13:51:35Z</time>
      </trkpt>
      <trkpt lat="41.5800520" lon="-0.8914780">
        <ele>372.2</ele>
        <time>2020-12-31T13:51:37Z</time>
      </trkpt>
      <trkpt lat="41.5800270" lon="-0.8914790">
        <ele>372.8</ele>
        <time>2020-12-31T13:51:38Z</time>
      </trkpt>
      <trkpt lat="41.5800140" lon="-0.8914800">
        <ele>373.0</ele>
        <time>2020-12-31T13:51:39Z</time>
      </trkpt>
      <trkpt lat="41.5799990" lon="-0.8914850">
        <ele>373.4</ele>
        <time>2020-12-31T13:51:40Z</time>
      </trkpt>
      <trkpt lat="41.5799810" lon="-0.8914870">
        <ele>373.8</ele>
        <time>2020-12-31T13:51:42Z</time>
      </trkpt>
      <trkpt lat="41.5799660" lon="-0.8914820">
        <ele>374.1</ele>
        <time>2020-12-31T13:51:43Z</time>
      </trkpt>
      <trkpt lat="41.5799480" lon="-0.8914790">
        <ele>374.4</ele>
        <time>2020-12-31T13:51:44Z</time>
      </trkpt>
      <trkpt lat="41.5799310" lon="-0.8914800">
        <ele>374.8</ele>
        <time>2020-12-31T13:51:46Z</time>
      </trkpt>
      <trkpt lat="41.5799170" lon="-0.8914810">
        <ele>375.0</ele>
        <time>2020-12-31T13:51:47Z</time>
      </trkpt>
      <trkpt lat="41.5798910" lon="-0.8914870">
        <ele>375.5</ele>
        <time>2020-12-31T13:51:48Z</time>
      </trkpt>
      <trkpt lat="41.5798800" lon="-0.8914910">
        <ele>375.7</ele>
        <time>2020-12-31T13:51:49Z</time>
      </trkpt>
      <trkpt lat="41.5798530" lon="-0.8915050">
        <ele>376.3</ele>
        <time>2020-12-31T13:51:51Z</time>
      </trkpt>
      <trkpt lat="41.5798450" lon="-0.8915090">
        <ele>376.4</ele>
        <time>2020-12-31T13:51:52Z</time>
      </trkpt>
      <trkpt lat="41.5798120" lon="-0.8915270">
        <ele>377.1</ele>
        <time>2020-12-31T13:51:54Z</time>
      </trkpt>
      <trkpt lat="41.5797980" lon="-0.8915360">
        <ele>377.4</ele>
        <time>2020-12-31T13:51:55Z</time>
      </trkpt>
      <trkpt lat="41.5797860" lon="-0.8915490">
        <ele>377.6</ele>
        <time>2020-12-31T13:51:56Z</time>
      </trkpt>
      <trkpt lat="41.5797770" lon="-0.8915660">
        <ele>377.9</ele>
        <time>2020-12-31T13:51:57Z</time>
      </trkpt>
      <trkpt lat="41.5797690" lon="-0.8915850">
        <ele>378.2</ele>
        <time>2020-12-31T13:51:58Z</time>
      </trkpt>
      <trkpt lat="41.5797600" lon="-0.8916100">
        <ele>378.6</ele>
        <time>2020-12-31T13:52:00Z</time>
      </trkpt>
      <trkpt lat="41.5797550" lon="-0.8916270">
        <ele>378.8</ele>
        <time>2020-12-31T13:52:01Z</time>
      </trkpt>
      <trkpt lat="41.5797480" lon="-0.8916420">
        <ele>379.1</ele>
        <time>2020-12-31T13:52:02Z</time>
      </trkpt>
      <trkpt lat="41.5797360" lon="-0.8916590">
        <ele>379.3</ele>
        <time>2020-12-31T13:52:04Z</time>
      </trkpt>
      <trkpt lat="41.5797240" lon="-0.8916700">
        <ele>379.6</ele>
        <time>2020-12-31T13:52:05Z</time>
      </trkpt>
      <trkpt lat="41.5797120" lon="-0.8916780">
        <ele>379.8</ele>
        <time>2020-12-31T13:52:06Z</time>
      </trkpt>
      <trkpt lat="41.5796990" lon="-0.8916860">
        <ele>380.0</ele>
        <time>2020-12-31T13:52:07Z</time>
      </trkpt>
      <trkpt lat="41.5796840" lon="-0.8916950">
        <ele>380.3</ele>
        <time>2020-12-31T13:52:08Z</time>
      </trkpt>
      <trkpt lat="41.5796540" lon="-0.8917030">
        <ele>380.7</ele>
        <time>2020-12-31T13:52:09Z</time>
      </trkpt>
      <trkpt lat="41.5796390" lon="-0.8917050">
        <ele>380.9</ele>
        <time>2020-12-31T13:52:11Z</time>
      </trkpt>
      <trkpt lat="41.5796240" lon="-0.8917060">
        <ele>381.1</ele>
        <time>2020-12-31T13:52:12Z</time>
      </trkpt>
      <trkpt lat="41.5796090" lon="-0.8917070">
        <ele>381.3</ele>
        <time>2020-12-31T13:52:13Z</time>
      </trkpt>
      <trkpt lat="41.5795780" lon="-0.8917090">
        <ele>381.7</ele>
        <time>2020-12-31T13:52:14Z</time>
      </trkpt>
      <trkpt lat="41.5795670" lon="-0.8917090">
        <ele>381.8</ele>
        <time>2020-12-31T13:52:15Z</time>
      </trkpt>
      <trkpt lat="41.5795420" lon="-0.8917220">
        <ele>382.1</ele>
        <time>2020-12-31T13:52:17Z</time>
      </trkpt>
      <trkpt lat="41.5795230" lon="-0.8917330">
        <ele>382.4</ele>
        <time>2020-12-31T13:52:19Z</time>
      </trkpt>
      <trkpt lat="41.5795060" lon="-0.8917400">
        <ele>382.6</ele>
        <time>2020-12-31T13:52:20Z</time>
      </trkpt>
      <trkpt lat="41.5794880" lon="-0.8917420">
        <ele>382.8</ele>
        <time>2020-12-31T13:52:21Z</time>
      </trkpt>
      <trkpt lat="41.5794710" lon="-0.8917390">
        <ele>383.0</ele>
        <time>2020-12-31T13:52:22Z</time>
      </trkpt>
      <trkpt lat="41.5794530" lon="-0.8917370">
        <ele>383.3</ele>
        <time>2020-12-31T13:52:23Z</time>
      </trkpt>
      <trkpt lat="41.5794190" lon="-0.8917400">
        <ele>383.7</ele>
        <time>2020-12-31T13:52:25Z</time>
      </trkpt>
      <trkpt lat="41.5794120" lon="-0.8917400">
        <ele>383.8</ele>
        <time>2020-12-31T13:52:26Z</time>
      </trkpt>
      <trkpt lat="41.5793800" lon="-0.8917420">
        <ele>384.3</ele>
        <time>2020-12-31T13:52:28Z</time>
      </trkpt>
      <trkpt lat="41.5793710" lon="-0.8917420">
        <ele>384.4</ele>
        <time>2020-12-31T13:52:29Z</time>
      </trkpt>
      <trkpt lat="41.5793330" lon="-0.8917520">
        <ele>384.9</ele>
        <time>2020-12-31T13:52:31Z</time>
      </trkpt>
      <trkpt lat="41.5793210" lon="-0.8917570">
        <ele>385.1</ele>
        <time>2020-12-31T13:52:32Z</time>
      </trkpt>
      <trkpt lat="41.5793050" lon="-0.8917670">
        <ele>385.4</ele>
        <time>2020-12-31T13:52:34Z</time>
      </trkpt>
      <trkpt lat="41.5792880" lon="-0.8917790">
        <ele>385.6</ele>
        <time>2020-12-31T13:52:35Z</time>
      </trkpt>
      <trkpt lat="41.5792640" lon="-0.8918140">
        <ele>386.1</ele>
        <time>2020-12-31T13:52:37Z</time>
      </trkpt>
      <trkpt lat="41.5792530" lon="-0.8918320">
        <ele>386.3</ele>
        <time>2020-12-31T13:52:38Z</time>
      </trkpt>
      <trkpt lat="41.5792280" lon="-0.8918620">
        <ele>386.7</ele>
        <time>2020-12-31T13:52:40Z</time>
      </trkpt>
      <trkpt lat="41.5792030" lon="-0.8918940">
        <ele>387.1</ele>
        <time>2020-12-31T13:52:42Z</time>
      </trkpt>
      <trkpt lat="41.5791960" lon="-0.8919040">
        <ele>387.2</ele>
        <time>2020-12-31T13:52:43Z</time>
      </trkpt>
      <trkpt lat="41.5791870" lon="-0.8919200">
        <ele>387.4</ele>
        <time>2020-12-31T13:52:44Z</time>
      </trkpt>
      <trkpt lat="41.5791740" lon="-0.8919350">
        <ele>387.5</ele>
        <time>2020-12-31T13:52:45Z</time>
      </trkpt>
      <trkpt lat="41.5791490" lon="-0.8919590">
        <ele>387.8</ele>
        <time>2020-12-31T13:52:46Z</time>
      </trkpt>
      <trkpt lat="41.5791390" lon="-0.8919680">
        <ele>387.9</ele>
        <time>2020-12-31T13:52:47Z</time>
      </trkpt>
      <trkpt lat="41.5791190" lon="-0.8919810">
        <ele>388.1</ele>
        <time>2020-12-31T13:52:48Z</time>
      </trkpt>
      <trkpt lat="41.5791020" lon="-0.8919920">
        <ele>388.3</ele>
        <time>2020-12-31T13:52:50Z</time>
      </trkpt>
      <trkpt lat="41.5790860" lon="-0.8920010">
        <ele>388.4</ele>
        <time>2020-12-31T13:52:51Z</time>
      </trkpt>
      <trkpt lat="41.5790700" lon="-0.8920080">
        <ele>388.6</ele>
        <time>2020-12-31T13:52:52Z</time>
      </trkpt>
      <trkpt lat="41.5790430" lon="-0.8920270">
        <ele>388.8</ele>
        <time>2020-12-31T13:52:53Z</time>
      </trkpt>
      <trkpt lat="41.5790330" lon="-0.8920360">
        <ele>388.8</ele>
        <time>2020-12-31T13:52:54Z</time>
      </trkpt>
      <trkpt lat="41.5790090" lon="-0.8920460">
        <ele>389.0</ele>
        <time>2020-12-31T13:52:56Z</time>
      </trkpt>
      <trkpt lat="41.5789790" lon="-0.8920670">
        <ele>389.2</ele>
        <time>2020-12-31T13:52:58Z</time>
      </trkpt>
      <trkpt lat="41.5789530" lon="-0.8920840">
        <ele>389.3</ele>
        <time>2020-12-31T13:52:59Z</time>
      </trkpt>
      <trkpt lat="41.5789320" lon="-0.8920920">
        <ele>389.4</ele>
        <time>2020-12-31T13:53:00Z</time>
      </trkpt>
      <trkpt lat="41.5788970" lon="-0.8921050">
        <ele>389.6</ele>
        <time>2020-12-31T13:53:02Z</time>
      </trkpt>
      <trkpt lat="41.5788580" lon="-0.8921170">
        <ele>389.8</ele>
        <time>2020-12-31T13:53:03Z</time>
      </trkpt>
      <trkpt lat="41.5788420" lon="-0.8921190">
        <ele>389.8</ele>
        <time>2020-12-31T13:53:04Z</time>
      </trkpt>
      <trkpt lat="41.5788120" lon="-0.8921210">
        <ele>389.9</ele>
        <time>2020-12-31T13:53:05Z</time>
      </trkpt>
      <trkpt lat="41.5787870" lon="-0.8921250">
        <ele>389.9</ele>
        <time>2020-12-31T13:53:06Z</time>
      </trkpt>
      <trkpt lat="41.5787660" lon="-0.8921280">
        <ele>389.9</ele>
        <time>2020-12-31T13:53:08Z</time>
      </trkpt>
      <trkpt lat="41.5787330" lon="-0.8921290">
        <ele>390.0</ele>
        <time>2020-12-31T13:53:09Z</time>
      </trkpt>
      <trkpt lat="41.5787220" lon="-0.8921290">
        <ele>390.0</ele>
        <time>2020-12-31T13:53:10Z</time>
      </trkpt>
      <trkpt lat="41.5787080" lon="-0.8921260">
        <ele>390.0</ele>
        <time>2020-12-31T13:53:11Z</time>
      </trkpt>
      <trkpt lat="41.5786950" lon="-0.8921200">
        <ele>390.0</ele>
        <time>2020-12-31T13:53:12Z</time>
      </trkpt>
      <trkpt lat="41.5786810" lon="-0.8921160">
        <ele>390.1</ele>
        <time>2020-12-31T13:53:13Z</time>
      </trkpt>
      <trkpt lat="41.5786590" lon="-0.8921110">
        <ele>390.1</ele>
        <time>2020-12-31T13:53:14Z</time>
      </trkpt>
      <trkpt lat="41.5786280" lon="-0.8920980">
        <ele>390.1</ele>
        <time>2020-12-31T13:53:15Z</time>
      </trkpt>
      <trkpt lat="41.5786190" lon="-0.8920920">
        <ele>390.1</ele>
        <time>2020-12-31T13:53:16Z</time>
      </trkpt>
      <trkpt lat="41.5785830" lon="-0.8920840">
        <ele>390.2</ele>
        <time>2020-12-31T13:53:18Z</time>
      </trkpt>
      <trkpt lat="41.5785710" lon="-0.8920860">
        <ele>390.2</ele>
        <time>2020-12-31T13:53:19Z</time>
      </trkpt>
      <trkpt lat="41.5785260" lon="-0.8921110">
        <ele>390.2</ele>
        <time>2020-12-31T13:53:20Z</time>
      </trkpt>
      <trkpt lat="41.5784180" lon="-0.8921810">
        <ele>390.0</ele>
        <time>2020-12-31T13:53:22Z</time>
      </trkpt>
      <trkpt lat="41.5783170" lon="-0.8922650">
        <ele>389.6</ele>
        <time>2020-12-31T13:53:24Z</time>
      </trkpt>
      <trkpt lat="41.5782960" lon="-0.8922540">
        <ele>389.5</ele>
        <time>2020-12-31T13:53:25Z</time>
      </trkpt>
      <trkpt lat="41.5782360" lon="-0.8922550">
        <ele>389.4</ele>
        <time>2020-12-31T13:53:27Z</time>
      </trkpt>
      <trkpt lat="41.5782280" lon="-0.8922590">
        <ele>389.4</ele>
        <time>2020-12-31T13:53:28Z</time>
      </trkpt>
      <trkpt lat="41.5781850" lon="-0.8922680">
        <ele>389.3</ele>
        <time>2020-12-31T13:53:30Z</time>
      </trkpt>
      <trkpt lat="41.5781560" lon="-0.8922800">
        <ele>389.3</ele>
        <time>2020-12-31T13:53:31Z</time>
      </trkpt>
      <trkpt lat="41.5781210" lon="-0.8922860">
        <ele>389.3</ele>
        <time>2020-12-31T13:53:33Z</time>
      </trkpt>
      <trkpt lat="41.5780950" lon="-0.8922960">
        <ele>389.4</ele>
        <time>2020-12-31T13:53:34Z</time>
      </trkpt>
      <trkpt lat="41.5780620" lon="-0.8923200">
        <ele>389.4</ele>
        <time>2020-12-31T13:53:36Z</time>
      </trkpt>
      <trkpt lat="41.5780360" lon="-0.8923360">
        <ele>389.4</ele>
        <time>2020-12-31T13:53:37Z</time>
      </trkpt>
      <trkpt lat="41.5780010" lon="-0.8923500">
        <ele>389.5</ele>
        <time>2020-12-31T13:53:39Z</time>
      </trkpt>
      <trkpt lat="41.5779730" lon="-0.8923610">
        <ele>389.5</ele>
        <time>2020-12-31T13:53:40Z</time>
      </trkpt>
      <trkpt lat="41.5779400" lon="-0.8923930">
        <ele>389.3</ele>
        <time>2020-12-31T13:53:41Z</time>
      </trkpt>
      <trkpt lat="41.5778970" lon="-0.8924650">
        <ele>388.6</ele>
        <time>2020-12-31T13:53:43Z</time>
      </trkpt>
      <trkpt lat="41.5778770" lon="-0.8925110">
        <ele>387.9</ele>
        <time>2020-12-31T13:53:44Z</time>
      </trkpt>
      <trkpt lat="41.5778430" lon="-0.8925720">
        <ele>386.7</ele>
        <time>2020-12-31T13:53:45Z</time>
      </trkpt>
      <trkpt lat="41.5778160" lon="-0.8926270">
        <ele>385.4</ele>
        <time>2020-12-31T13:53:47Z</time>
      </trkpt>
      <trkpt lat="41.5778080" lon="-0.8926570">
        <ele>384.7</ele>
        <time>2020-12-31T13:53:48Z</time>
      </trkpt>
      <trkpt lat="41.5777880" lon="-0.8926890">
        <ele>383.8</ele>
        <time>2020-12-31T13:53:50Z</time>
      </trkpt>
      <trkpt lat="41.5777690" lon="-0.8927310">
        <ele>382.8</ele>
        <time>2020-12-31T13:53:51Z</time>
      </trkpt>
      <trkpt lat="41.5777620" lon="-0.8927440">
        <ele>382.5</ele>
        <time>2020-12-31T13:53:52Z</time>
      </trkpt>
      <trkpt lat="41.5775990" lon="-0.8929940">
        <ele>378.7</ele>
        <time>2020-12-31T13:53:53Z</time>
      </trkpt>
      <trkpt lat="41.5774510" lon="-0.8932180">
        <ele>375.2</ele>
        <time>2020-12-31T13:53:54Z</time>
      </trkpt>
      <trkpt lat="41.5773030" lon="-0.8934420">
        <ele>373.7</ele>
        <time>2020-12-31T13:53:56Z</time>
      </trkpt>
      <trkpt lat="41.5772110" lon="-0.8935250">
        <ele>374.0</ele>
        <time>2020-12-31T13:53:57Z</time>
      </trkpt>
      <trkpt lat="41.5771370" lon="-0.8935880">
        <ele>374.5</ele>
        <time>2020-12-31T13:53:58Z</time>
      </trkpt>
      <trkpt lat="41.5770340" lon="-0.8936470">
        <ele>375.5</ele>
        <time>2020-12-31T13:54:00Z</time>
      </trkpt>
      <trkpt lat="41.5770100" lon="-0.8936550">
        <ele>375.7</ele>
        <time>2020-12-31T13:54:01Z</time>
      </trkpt>
      <trkpt lat="41.5769680" lon="-0.8936780">
        <ele>376.1</ele>
        <time>2020-12-31T13:54:03Z</time>
      </trkpt>
      <trkpt lat="41.5769230" lon="-0.8937080">
        <ele>376.5</ele>
        <time>2020-12-31T13:54:04Z</time>
      </trkpt>
      <trkpt lat="41.5768930" lon="-0.8937300">
        <ele>376.6</ele>
        <time>2020-12-31T13:54:05Z</time>
      </trkpt>
      <trkpt lat="41.5768460" lon="-0.8937640">
        <ele>376.9</ele>
        <time>2020-12-31T13:54:07Z</time>
      </trkpt>
      <trkpt lat="41.5768160" lon="-0.8937890">
        <ele>376.9</ele>
        <time>2020-12-31T13:54:08Z</time>
      </trkpt>
      <trkpt lat="41.5767890" lon="-0.8938130">
        <ele>377.0</ele>
        <time>2020-12-31T13:54:09Z</time>
      </trkpt>
      <trkpt lat="41.5767560" lon="-0.8938390">
        <ele>377.0</ele>
        <time>2020-12-31T13:54:10Z</time>
      </trkpt>
      <trkpt lat="41.5767100" lon="-0.8938750">
        <ele>376.9</ele>
        <time>2020-12-31T13:54:12Z</time>
      </trkpt>
      <trkpt lat="41.5766820" lon="-0.8939030">
        <ele>376.9</ele>
        <time>2020-12-31T13:54:13Z</time>
      </trkpt>
      <trkpt lat="41.5766490" lon="-0.8939370">
        <ele>376.7</ele>
        <time>2020-12-31T13:54:14Z</time>
      </trkpt>
      <trkpt lat="41.5766140" lon="-0.8939710">
        <ele>376.5</ele>
        <time>2020-12-31T13:54:15Z</time>
      </trkpt>
      <trkpt lat="41.5765830" lon="-0.8940190">
        <ele>376.3</ele>
        <time>2020-12-31T13:54:16Z</time>
      </trkpt>
      <trkpt lat="41.5765660" lon="-0.8940730">
        <ele>376.0</ele>
        <time>2020-12-31T13:54:17Z</time>
      </trkpt>
      <trkpt lat="41.5765580" lon="-0.8941290">
        <ele>375.7</ele>
        <time>2020-12-31T13:54:18Z</time>
      </trkpt>
      <trkpt lat="41.5765600" lon="-0.8941910">
        <ele>375.4</ele>
        <time>2020-12-31T13:54:19Z</time>
      </trkpt>
      <trkpt lat="41.5765760" lon="-0.8942560">
        <ele>375.1</ele>
        <time>2020-12-31T13:54:21Z</time>
      </trkpt>
      <trkpt lat="41.5766030" lon="-0.8943160">
        <ele>374.7</ele>
        <time>2020-12-31T13:54:22Z</time>
      </trkpt>
      <trkpt lat="41.5766510" lon="-0.8943870">
        <ele>374.2</ele>
        <time>2020-12-31T13:54:23Z</time>
      </trkpt>
      <trkpt lat="41.5766780" lon="-0.8944560">
        <ele>373.9</ele>
        <time>2020-12-31T13:54:24Z</time>
      </trkpt>
      <trkpt lat="41.5767110" lon="-0.8946220">
        <ele>373.3</ele>
        <time>2020-12-31T13:54:26Z</time>
      </trkpt>
      <trkpt lat="41.5767460" lon="-0.8947950">
        <ele>373.3</ele>
        <time>2020-12-31T13:54:28Z</time>
      </trkpt>
      <trkpt lat="41.5767900" lon="-0.8949510">
        <ele>373.6</ele>
        <time>2020-12-31T13:54:30Z</time>
      </trkpt>
      <trkpt lat="41.5767960" lon="-0.8950810">
        <ele>373.5</ele>
        <time>2020-12-31T13:54:32Z</time>
      </trkpt>
      <trkpt lat="41.5767200" lon="-0.8951470">
        <ele>373.7</ele>
        <time>2020-12-31T13:54:34Z</time>
      </trkpt>
      <trkpt lat="41.5766710" lon="-0.8951600">
        <ele>373.9</ele>
        <time>2020-12-31T13:54:35Z</time>
      </trkpt>
      <trkpt lat="41.5766200" lon="-0.8951170">
        <ele>374.2</ele>
        <time>2020-12-31T13:54:36Z</time>
      </trkpt>
      <trkpt lat="41.5765700" lon="-0.8951220">
        <ele>374.5</ele>
        <time>2020-12-31T13:54:38Z</time>
      </trkpt>
      <trkpt lat="41.5765280" lon="-0.8951510">
        <ele>374.8</ele>
        <time>2020-12-31T13:54:39Z</time>
      </trkpt>
      <trkpt lat="41.5764950" lon="-0.8951890">
        <ele>375.1</ele>
        <time>2020-12-31T13:54:40Z</time>
      </trkpt>
      <trkpt lat="41.5764670" lon="-0.8952350">
        <ele>375.4</ele>
        <time>2020-12-31T13:54:41Z</time>
      </trkpt>
      <trkpt lat="41.5764410" lon="-0.8952670">
        <ele>375.7</ele>
        <time>2020-12-31T13:54:42Z</time>
      </trkpt>
      <trkpt lat="41.5764100" lon="-0.8953050">
        <ele>376.0</ele>
        <time>2020-12-31T13:54:43Z</time>
      </trkpt>
      <trkpt lat="41.5763840" lon="-0.8953350">
        <ele>376.3</ele>
        <time>2020-12-31T13:54:45Z</time>
      </trkpt>
      <trkpt lat="41.5763650" lon="-0.8953710">
        <ele>376.5</ele>
        <time>2020-12-31T13:54:46Z</time>
      </trkpt>
      <trkpt lat="41.5763450" lon="-0.8954090">
        <ele>376.8</ele>
        <time>2020-12-31T13:54:47Z</time>
      </trkpt>
      <trkpt lat="41.5763200" lon="-0.8954470">
        <ele>377.1</ele>
        <time>2020-12-31T13:54:48Z</time>
      </trkpt>
      <trkpt lat="41.5763110" lon="-0.8954620">
        <ele>377.2</ele>
        <time>2020-12-31T13:54:49Z</time>
      </trkpt>
      <trkpt lat="41.5762950" lon="-0.8955090">
        <ele>377.5</ele>
        <time>2020-12-31T13:54:51Z</time>
      </trkpt>
      <trkpt lat="41.5762820" lon="-0.8955420">
        <ele>377.7</ele>
        <time>2020-12-31T13:54:52Z</time>
      </trkpt>
      <trkpt lat="41.5762660" lon="-0.8955840">
        <ele>378.0</ele>
        <time>2020-12-31T13:54:54Z</time>
      </trkpt>
      <trkpt lat="41.5762530" lon="-0.8956180">
        <ele>378.2</ele>
        <time>2020-12-31T13:54:55Z</time>
      </trkpt>
      <trkpt lat="41.5762400" lon="-0.8956490">
        <ele>378.3</ele>
        <time>2020-12-31T13:54:56Z</time>
      </trkpt>
      <trkpt lat="41.5762280" lon="-0.8956800">
        <ele>378.5</ele>
        <time>2020-12-31T13:54:58Z</time>
      </trkpt>
      <trkpt lat="41.5762160" lon="-0.8957190">
        <ele>378.7</ele>
        <time>2020-12-31T13:54:59Z</time>
      </trkpt>
      <trkpt lat="41.5761940" lon="-0.8957680">
        <ele>379.0</ele>
        <time>2020-12-31T13:55:01Z</time>
      </trkpt>
      <trkpt lat="41.5761780" lon="-0.8958100">
        <ele>379.3</ele>
        <time>2020-12-31T13:55:02Z</time>
      </trkpt>
      <trkpt lat="41.5761720" lon="-0.8958460">
        <ele>379.5</ele>
        <time>2020-12-31T13:55:03Z</time>
      </trkpt>
      <trkpt lat="41.5761570" lon="-0.8958920">
        <ele>379.7</ele>
        <time>2020-12-31T13:55:05Z</time>
      </trkpt>
      <trkpt lat="41.5761450" lon="-0.8959300">
        <ele>379.9</ele>
        <time>2020-12-31T13:55:06Z</time>
      </trkpt>
      <trkpt lat="41.5761220" lon="-0.8959890">
        <ele>380.3</ele>
        <time>2020-12-31T13:55:08Z</time>
      </trkpt>
      <trkpt lat="41.5761150" lon="-0.8960090">
        <ele>380.4</ele>
        <time>2020-12-31T13:55:09Z</time>
      </trkpt>
      <trkpt lat="41.5761090" lon="-0.8960290">
        <ele>380.4</ele>
        <time>2020-12-31T13:55:10Z</time>
      </trkpt>
      <trkpt lat="41.5760960" lon="-0.8960750">
        <ele>380.7</ele>
        <time>2020-12-31T13:55:12Z</time>
      </trkpt>
      <trkpt lat="41.5760790" lon="-0.8961150">
        <ele>380.9</ele>
        <time>2020-12-31T13:55:13Z</time>
      </trkpt>
      <trkpt lat="41.5760630" lon="-0.8961450">
        <ele>381.0</ele>
        <time>2020-12-31T13:55:14Z</time>
      </trkpt>
      <trkpt lat="41.5760410" lon="-0.8961860">
        <ele>381.3</ele>
        <time>2020-12-31T13:55:15Z</time>
      </trkpt>
      <trkpt lat="41.5760180" lon="-0.8962300">
        <ele>381.5</ele>
        <time>2020-12-31T13:55:17Z</time>
      </trkpt>
      <trkpt lat="41.5760000" lon="-0.8962830">
        <ele>381.8</ele>
        <time>2020-12-31T13:55:19Z</time>
      </trkpt>
      <trkpt lat="41.5759830" lon="-0.8963180">
        <ele>382.0</ele>
        <time>2020-12-31T13:55:20Z</time>
      </trkpt>
      <trkpt lat="41.5759710" lon="-0.8963420">
        <ele>382.1</ele>
        <time>2020-12-31T13:55:21Z</time>
      </trkpt>
      <trkpt lat="41.5759580" lon="-0.8963670">
        <ele>382.3</ele>
        <time>2020-12-31T13:55:23Z</time>
      </trkpt>
      <trkpt lat="41.5759580" lon="-0.8963800">
        <ele>382.4</ele>
        <time>2020-12-31T13:55:24Z</time>
      </trkpt>
      <trkpt lat="41.5759550" lon="-0.8963930">
        <ele>382.5</ele>
        <time>2020-12-31T13:55:25Z</time>
      </trkpt>
      <trkpt lat="41.5759450" lon="-0.8964270">
        <ele>382.7</ele>
        <time>2020-12-31T13:55:27Z</time>
      </trkpt>
      <trkpt lat="41.5759240" lon="-0.8964670">
        <ele>383.0</ele>
        <time>2020-12-31T13:55:28Z</time>
      </trkpt>
      <trkpt lat="41.5758890" lon="-0.8965210">
        <ele>383.5</ele>
        <time>2020-12-31T13:55:30Z</time>
      </trkpt>
      <trkpt lat="41.5758650" lon="-0.8965520">
        <ele>383.8</ele>
        <time>2020-12-31T13:55:31Z</time>
      </trkpt>
      <trkpt lat="41.5758430" lon="-0.8965880">
        <ele>384.2</ele>
        <time>2020-12-31T13:55:32Z</time>
      </trkpt>
      <trkpt lat="41.5758120" lon="-0.8966400">
        <ele>384.7</ele>
        <time>2020-12-31T13:55:34Z</time>
      </trkpt>
      <trkpt lat="41.5758010" lon="-0.8966560">
        <ele>384.9</ele>
        <time>2020-12-31T13:55:35Z</time>
      </trkpt>
      <trkpt lat="41.5757910" lon="-0.8966730">
        <ele>385.1</ele>
        <time>2020-12-31T13:55:36Z</time>
      </trkpt>
      <trkpt lat="41.5757650" lon="-0.8967060">
        <ele>385.4</ele>
        <time>2020-12-31T13:55:38Z</time>
      </trkpt>
      <trkpt lat="41.5757450" lon="-0.8967380">
        <ele>385.8</ele>
        <time>2020-12-31T13:55:39Z</time>
      </trkpt>
      <trkpt lat="41.5757380" lon="-0.8967510">
        <ele>385.9</ele>
        <time>2020-12-31T13:55:40Z</time>
      </trkpt>
      <trkpt lat="41.5757160" lon="-0.8967990">
        <ele>386.4</ele>
        <time>2020-12-31T13:55:42Z</time>
      </trkpt>
      <trkpt lat="41.5757100" lon="-0.8968150">
        <ele>386.5</ele>
        <time>2020-12-31T13:55:43Z</time>
      </trkpt>
      <trkpt lat="41.5757050" lon="-0.8968310">
        <ele>386.6</ele>
        <time>2020-12-31T13:55:44Z</time>
      </trkpt>
      <trkpt lat="41.5756900" lon="-0.8968860">
        <ele>387.1</ele>
        <time>2020-12-31T13:55:46Z</time>
      </trkpt>
      <trkpt lat="41.5756860" lon="-0.8969050">
        <ele>387.2</ele>
        <time>2020-12-31T13:55:47Z</time>
      </trkpt>
      <trkpt lat="41.5756820" lon="-0.8969230">
        <ele>387.4</ele>
        <time>2020-12-31T13:55:48Z</time>
      </trkpt>
      <trkpt lat="41.5756770" lon="-0.8969630">
        <ele>387.7</ele>
        <time>2020-12-31T13:55:49Z</time>
      </trkpt>
      <trkpt lat="41.5756760" lon="-0.8969760">
        <ele>387.7</ele>
        <time>2020-12-31T13:55:50Z</time>
      </trkpt>
      <trkpt lat="41.5756730" lon="-0.8969980">
        <ele>387.9</ele>
        <time>2020-12-31T13:55:51Z</time>
      </trkpt>
      <trkpt lat="41.5756690" lon="-0.8970240">
        <ele>388.1</ele>
        <time>2020-12-31T13:55:53Z</time>
      </trkpt>
      <trkpt lat="41.5756620" lon="-0.8970530">
        <ele>388.3</ele>
        <time>2020-12-31T13:55:54Z</time>
      </trkpt>
      <trkpt lat="41.5756530" lon="-0.8970970">
        <ele>388.5</ele>
        <time>2020-12-31T13:55:56Z</time>
      </trkpt>
      <trkpt lat="41.5756460" lon="-0.8971380">
        <ele>388.8</ele>
        <time>2020-12-31T13:55:57Z</time>
      </trkpt>
      <trkpt lat="41.5756430" lon="-0.8971520">
        <ele>388.9</ele>
        <time>2020-12-31T13:55:58Z</time>
      </trkpt>
      <trkpt lat="41.5756360" lon="-0.8971800">
        <ele>389.1</ele>
        <time>2020-12-31T13:55:59Z</time>
      </trkpt>
      <trkpt lat="41.5756250" lon="-0.8972120">
        <ele>389.3</ele>
        <time>2020-12-31T13:56:01Z</time>
      </trkpt>
      <trkpt lat="41.5756130" lon="-0.8972440">
        <ele>389.5</ele>
        <time>2020-12-31T13:56:03Z</time>
      </trkpt>
      <trkpt lat="41.5755990" lon="-0.8972770">
        <ele>389.7</ele>
        <time>2020-12-31T13:56:04Z</time>
      </trkpt>
      <trkpt lat="41.5755770" lon="-0.8973240">
        <ele>390.0</ele>
        <time>2020-12-31T13:56:06Z</time>
      </trkpt>
      <trkpt lat="41.5755550" lon="-0.8973580">
        <ele>390.2</ele>
        <time>2020-12-31T13:56:07Z</time>
      </trkpt>
      <trkpt lat="41.5755500" lon="-0.8973700">
        <ele>390.3</ele>
        <time>2020-12-31T13:56:08Z</time>
      </trkpt>
      <trkpt lat="41.5755420" lon="-0.8973940">
        <ele>390.4</ele>
        <time>2020-12-31T13:56:09Z</time>
      </trkpt>
      <trkpt lat="41.5755360" lon="-0.8974100">
        <ele>390.5</ele>
        <time>2020-12-31T13:56:11Z</time>
      </trkpt>
      <trkpt lat="41.5755340" lon="-0.8974170">
        <ele>390.5</ele>
        <time>2020-12-31T13:56:13Z</time>
      </trkpt>
      <trkpt lat="41.5755280" lon="-0.8974290">
        <ele>390.6</ele>
        <time>2020-12-31T13:56:14Z</time>
      </trkpt>
      <trkpt lat="41.5755230" lon="-0.8974440">
        <ele>390.7</ele>
        <time>2020-12-31T13:56:15Z</time>
      </trkpt>
      <trkpt lat="41.5755080" lon="-0.8974800">
        <ele>390.9</ele>
        <time>2020-12-31T13:56:17Z</time>
      </trkpt>
      <trkpt lat="41.5754910" lon="-0.8975220">
        <ele>391.1</ele>
        <time>2020-12-31T13:56:19Z</time>
      </trkpt>
      <trkpt lat="41.5754730" lon="-0.8975690">
        <ele>391.3</ele>
        <time>2020-12-31T13:56:20Z</time>
      </trkpt>
      <trkpt lat="41.5754450" lon="-0.8976140">
        <ele>391.5</ele>
        <time>2020-12-31T13:56:22Z</time>
      </trkpt>
      <trkpt lat="41.5754340" lon="-0.8976320">
        <ele>391.6</ele>
        <time>2020-12-31T13:56:23Z</time>
      </trkpt>
      <trkpt lat="41.5754100" lon="-0.8976780">
        <ele>391.8</ele>
        <time>2020-12-31T13:56:24Z</time>
      </trkpt>
      <trkpt lat="41.5754010" lon="-0.8976940">
        <ele>391.9</ele>
        <time>2020-12-31T13:56:25Z</time>
      </trkpt>
      <trkpt lat="41.5753770" lon="-0.8977410">
        <ele>392.1</ele>
        <time>2020-12-31T13:56:27Z</time>
      </trkpt>
      <trkpt lat="41.5753640" lon="-0.8977760">
        <ele>392.2</ele>
        <time>2020-12-31T13:56:28Z</time>
      </trkpt>
      <trkpt lat="41.5753500" lon="-0.8978080">
        <ele>392.3</ele>
        <time>2020-12-31T13:56:29Z</time>
      </trkpt>
      <trkpt lat="41.5753270" lon="-0.8978560">
        <ele>392.5</ele>
        <time>2020-12-31T13:56:30Z</time>
      </trkpt>
      <trkpt lat="41.5753170" lon="-0.8978760">
        <ele>392.5</ele>
        <time>2020-12-31T13:56:31Z</time>
      </trkpt>
      <trkpt lat="41.5753000" lon="-0.8979120">
        <ele>392.6</ele>
        <time>2020-12-31T13:56:32Z</time>
      </trkpt>
      <trkpt lat="41.5752830" lon="-0.8979520">
        <ele>392.7</ele>
        <time>2020-12-31T13:56:34Z</time>
      </trkpt>
      <trkpt lat="41.5752650" lon="-0.8979900">
        <ele>392.8</ele>
        <time>2020-12-31T13:56:35Z</time>
      </trkpt>
      <trkpt lat="41.5752450" lon="-0.8980420">
        <ele>393.0</ele>
        <time>2020-12-31T13:56:36Z</time>
      </trkpt>
      <trkpt lat="41.5752360" lon="-0.8980630">
        <ele>393.0</ele>
        <time>2020-12-31T13:56:37Z</time>
      </trkpt>
      <trkpt lat="41.5752150" lon="-0.8981020">
        <ele>393.1</ele>
        <time>2020-12-31T13:56:39Z</time>
      </trkpt>
      <trkpt lat="41.5751950" lon="-0.8981520">
        <ele>393.2</ele>
        <time>2020-12-31T13:56:41Z</time>
      </trkpt>
      <trkpt lat="41.5751840" lon="-0.8981870">
        <ele>393.3</ele>
        <time>2020-12-31T13:56:42Z</time>
      </trkpt>
      <trkpt lat="41.5751720" lon="-0.8982410">
        <ele>393.4</ele>
        <time>2020-12-31T13:56:44Z</time>
      </trkpt>
      <trkpt lat="41.5751690" lon="-0.8982700">
        <ele>393.4</ele>
        <time>2020-12-31T13:56:45Z</time>
      </trkpt>
      <trkpt lat="41.5751630" lon="-0.8983240">
        <ele>393.5</ele>
        <time>2020-12-31T13:56:47Z</time>
      </trkpt>
      <trkpt lat="41.5751550" lon="-0.8983640">
        <ele>393.6</ele>
        <time>2020-12-31T13:56:48Z</time>
      </trkpt>
      <trkpt lat="41.5751510" lon="-0.8983730">
        <ele>393.6</ele>
        <time>2020-12-31T13:56:49Z</time>
      </trkpt>
      <trkpt lat="41.5751320" lon="-0.8984080">
        <ele>393.7</ele>
        <time>2020-12-31T13:56:51Z</time>
      </trkpt>
      <trkpt lat="41.5751250" lon="-0.8984170">
        <ele>393.7</ele>
        <time>2020-12-31T13:56:52Z</time>
      </trkpt>
      <trkpt lat="41.5750930" lon="-0.8984340">
        <ele>393.8</ele>
        <time>2020-12-31T13:56:53Z</time>
      </trkpt>
      <trkpt lat="41.5750830" lon="-0.8984370">
        <ele>393.8</ele>
        <time>2020-12-31T13:56:54Z</time>
      </trkpt>
      <trkpt lat="41.5750550" lon="-0.8984490">
        <ele>393.8</ele>
        <time>2020-12-31T13:56:55Z</time>
      </trkpt>
      <trkpt lat="41.5750260" lon="-0.8984650">
        <ele>393.9</ele>
        <time>2020-12-31T13:56:56Z</time>
      </trkpt>
      <trkpt lat="41.5749930" lon="-0.8984790">
        <ele>393.9</ele>
        <time>2020-12-31T13:56:57Z</time>
      </trkpt>
      <trkpt lat="41.5749830" lon="-0.8984830">
        <ele>393.9</ele>
        <time>2020-12-31T13:56:58Z</time>
      </trkpt>
      <trkpt lat="41.5749470" lon="-0.8984990">
        <ele>394.0</ele>
        <time>2020-12-31T13:57:00Z</time>
      </trkpt>
      <trkpt lat="41.5749300" lon="-0.8985060">
        <ele>394.0</ele>
        <time>2020-12-31T13:57:01Z</time>
      </trkpt>
      <trkpt lat="41.5748940" lon="-0.8985230">
        <ele>394.0</ele>
        <time>2020-12-31T13:57:02Z</time>
      </trkpt>
      <trkpt lat="41.5748340" lon="-0.8985580">
        <ele>394.1</ele>
        <time>2020-12-31T13:57:04Z</time>
      </trkpt>
      <trkpt lat="41.5747890" lon="-0.8985970">
        <ele>394.2</ele>
        <time>2020-12-31T13:57:05Z</time>
      </trkpt>
      <trkpt lat="41.5747530" lon="-0.8986690">
        <ele>394.3</ele>
        <time>2020-12-31T13:57:07Z</time>
      </trkpt>
      <trkpt lat="41.5747070" lon="-0.8987630">
        <ele>394.5</ele>
        <time>2020-12-31T13:57:08Z</time>
      </trkpt>
      <trkpt lat="41.5746710" lon="-0.8987540">
        <ele>394.6</ele>
        <time>2020-12-31T13:57:09Z</time>
      </trkpt>
      <trkpt lat="41.5745590" lon="-0.8988260">
        <ele>394.9</ele>
        <time>2020-12-31T13:57:11Z</time>
      </trkpt>
      <trkpt lat="41.5744600" lon="-0.8988760">
        <ele>395.2</ele>
        <time>2020-12-31T13:57:13Z</time>
      </trkpt>
      <trkpt lat="41.5744300" lon="-0.8988980">
        <ele>395.3</ele>
        <time>2020-12-31T13:57:14Z</time>
      </trkpt>
      <trkpt lat="41.5743840" lon="-0.8989290">
        <ele>395.4</ele>
        <time>2020-12-31T13:57:16Z</time>
      </trkpt>
      <trkpt lat="41.5743400" lon="-0.8989740">
        <ele>395.5</ele>
        <time>2020-12-31T13:57:17Z</time>
      </trkpt>
      <trkpt lat="41.5743010" lon="-0.8990330">
        <ele>395.6</ele>
        <time>2020-12-31T13:57:18Z</time>
      </trkpt>
      <trkpt lat="41.5742640" lon="-0.8991460">
        <ele>395.6</ele>
        <time>2020-12-31T13:57:20Z</time>
      </trkpt>
      <trkpt lat="41.5742650" lon="-0.8993080">
        <ele>395.3</ele>
        <time>2020-12-31T13:57:22Z</time>
      </trkpt>
      <trkpt lat="41.5742710" lon="-0.8993870">
        <ele>395.2</ele>
        <time>2020-12-31T13:57:23Z</time>
      </trkpt>
      <trkpt lat="41.5742690" lon="-0.8995430">
        <ele>395.0</ele>
        <time>2020-12-31T13:57:25Z</time>
      </trkpt>
      <trkpt lat="41.5742680" lon="-0.8996860">
        <ele>395.0</ele>
        <time>2020-12-31T13:57:27Z</time>
      </trkpt>
      <trkpt lat="41.5742620" lon="-0.8997730">
        <ele>395.0</ele>
        <time>2020-12-31T13:57:29Z</time>
      </trkpt>
      <trkpt lat="41.5742530" lon="-0.8997690">
        <ele>395.0</ele>
        <time>2020-12-31T13:57:30Z</time>
      </trkpt>
      <trkpt lat="41.5742450" lon="-0.8998080">
        <ele>395.0</ele>
        <time>2020-12-31T13:57:31Z</time>
      </trkpt>
      <trkpt lat="41.5742280" lon="-0.8998540">
        <ele>395.0</ele>
        <time>2020-12-31T13:57:32Z</time>
      </trkpt>
      <trkpt lat="41.5742100" lon="-0.8998860">
        <ele>395.0</ele>
        <time>2020-12-31T13:57:33Z</time>
      </trkpt>
      <trkpt lat="41.5741950" lon="-0.8999180">
        <ele>395.0</ele>
        <time>2020-12-31T13:57:34Z</time>
      </trkpt>
      <trkpt lat="41.5741750" lon="-0.8999570">
        <ele>394.9</ele>
        <time>2020-12-31T13:57:35Z</time>
      </trkpt>
      <trkpt lat="41.5741560" lon="-0.8999850">
        <ele>394.8</ele>
        <time>2020-12-31T13:57:37Z</time>
      </trkpt>
      <trkpt lat="41.5741360" lon="-0.9000190">
        <ele>394.8</ele>
        <time>2020-12-31T13:57:38Z</time>
      </trkpt>
      <trkpt lat="41.5741210" lon="-0.9000520">
        <ele>394.7</ele>
        <time>2020-12-31T13:57:39Z</time>
      </trkpt>
      <trkpt lat="41.5741040" lon="-0.9000890">
        <ele>394.7</ele>
        <time>2020-12-31T13:57:40Z</time>
      </trkpt>
      <trkpt lat="41.5740810" lon="-0.9001600">
        <ele>394.7</ele>
        <time>2020-12-31T13:57:41Z</time>
      </trkpt>
      <trkpt lat="41.5740520" lon="-0.9002460">
        <ele>394.8</ele>
        <time>2020-12-31T13:57:43Z</time>
      </trkpt>
      <trkpt lat="41.5740300" lon="-0.9003100">
        <ele>394.9</ele>
        <time>2020-12-31T13:57:44Z</time>
      </trkpt>
      <trkpt lat="41.5740180" lon="-0.9003970">
        <ele>395.1</ele>
        <time>2020-12-31T13:57:46Z</time>
      </trkpt>
      <trkpt lat="41.5740100" lon="-0.9004690">
        <ele>395.4</ele>
        <time>2020-12-31T13:57:47Z</time>
      </trkpt>
      <trkpt lat="41.5740000" lon="-0.9005240">
        <ele>395.5</ele>
        <time>2020-12-31T13:57:48Z</time>
      </trkpt>
      <trkpt lat="41.5739800" lon="-0.9005960">
        <ele>395.8</ele>
        <time>2020-12-31T13:57:49Z</time>
      </trkpt>
      <trkpt lat="41.5739530" lon="-0.9006850">
        <ele>396.2</ele>
        <time>2020-12-31T13:57:50Z</time>
      </trkpt>
      <trkpt lat="41.5739370" lon="-0.9007660">
        <ele>396.7</ele>
        <time>2020-12-31T13:57:52Z</time>
      </trkpt>
      <trkpt lat="41.5739200" lon="-0.9008410">
        <ele>397.3</ele>
        <time>2020-12-31T13:57:53Z</time>
      </trkpt>
      <trkpt lat="41.5739060" lon="-0.9008890">
        <ele>397.8</ele>
        <time>2020-12-31T13:57:54Z</time>
      </trkpt>
      <trkpt lat="41.5738940" lon="-0.9009350">
        <ele>398.3</ele>
        <time>2020-12-31T13:57:56Z</time>
      </trkpt>
      <trkpt lat="41.5739010" lon="-0.9009670">
        <ele>398.7</ele>
        <time>2020-12-31T13:57:57Z</time>
      </trkpt>
      <trkpt lat="41.5739090" lon="-0.9009920">
        <ele>398.9</ele>
        <time>2020-12-31T13:57:59Z</time>
      </trkpt>
      <trkpt lat="41.5739080" lon="-0.9009980">
        <ele>399.0</ele>
        <time>2020-12-31T13:58:01Z</time>
      </trkpt>
      <trkpt lat="41.5739110" lon="-0.9010270">
        <ele>399.3</ele>
        <time>2020-12-31T13:58:03Z</time>
      </trkpt>
      <trkpt lat="41.5739070" lon="-0.9010360">
        <ele>399.4</ele>
        <time>2020-12-31T13:58:04Z</time>
      </trkpt>
      <trkpt lat="41.5738980" lon="-0.9010560">
        <ele>399.7</ele>
        <time>2020-12-31T13:58:05Z</time>
      </trkpt>
      <trkpt lat="41.5738920" lon="-0.9010890">
        <ele>400.1</ele>
        <time>2020-12-31T13:58:07Z</time>
      </trkpt>
      <trkpt lat="41.5738940" lon="-0.9010870">
        <ele>400.1</ele>
        <time>2020-12-31T13:58:08Z</time>
      </trkpt>
      <trkpt lat="41.5738980" lon="-0.9010750">
        <ele>400.2</ele>
        <time>2020-12-31T13:58:10Z</time>
      </trkpt>
      <trkpt lat="41.5738990" lon="-0.9010800">
        <ele>400.3</ele>
        <time>2020-12-31T13:58:11Z</time>
      </trkpt>
      <trkpt lat="41.5738940" lon="-0.9010890">
        <ele>400.4</ele>
        <time>2020-12-31T13:58:12Z</time>
      </trkpt>
      <trkpt lat="41.5738880" lon="-0.9011090">
        <ele>400.6</ele>
        <time>2020-12-31T13:58:13Z</time>
      </trkpt>
      <trkpt lat="41.5738900" lon="-0.9011450">
        <ele>400.9</ele>
        <time>2020-12-31T13:58:15Z</time>
      </trkpt>
      <trkpt lat="41.5738880" lon="-0.9011880">
        <ele>401.3</ele>
        <time>2020-12-31T13:58:16Z</time>
      </trkpt>
      <trkpt lat="41.5738860" lon="-0.9012040">
        <ele>401.4</ele>
        <time>2020-12-31T13:58:17Z</time>
      </trkpt>
      <trkpt lat="41.5738790" lon="-0.9012510">
        <ele>401.7</ele>
        <time>2020-12-31T13:58:18Z</time>
      </trkpt>
      <trkpt lat="41.5738710" lon="-0.9013130">
        <ele>402.1</ele>
        <time>2020-12-31T13:58:20Z</time>
      </trkpt>
      <trkpt lat="41.5738580" lon="-0.9013940">
        <ele>402.5</ele>
        <time>2020-12-31T13:58:22Z</time>
      </trkpt>
      <trkpt lat="41.5738540" lon="-0.9014380">
        <ele>402.7</ele>
        <time>2020-12-31T13:58:23Z</time>
      </trkpt>
      <trkpt lat="41.5738510" lon="-0.9015250">
        <ele>403.0</ele>
        <time>2020-12-31T13:58:25Z</time>
      </trkpt>
      <trkpt lat="41.5738460" lon="-0.9015750">
        <ele>403.2</ele>
        <time>2020-12-31T13:58:26Z</time>
      </trkpt>
      <trkpt lat="41.5738380" lon="-0.9016270">
        <ele>403.4</ele>
        <time>2020-12-31T13:58:27Z</time>
      </trkpt>
      <trkpt lat="41.5738320" lon="-0.9016860">
        <ele>403.6</ele>
        <time>2020-12-31T13:58:29Z</time>
      </trkpt>
      <trkpt lat="41.5738340" lon="-0.9017240">
        <ele>403.7</ele>
        <time>2020-12-31T13:58:30Z</time>
      </trkpt>
      <trkpt lat="41.5738360" lon="-0.9017880">
        <ele>403.9</ele>
        <time>2020-12-31T13:58:31Z</time>
      </trkpt>
      <trkpt lat="41.5738350" lon="-0.9018440">
        <ele>404.0</ele>
        <time>2020-12-31T13:58:33Z</time>
      </trkpt>
      <trkpt lat="41.5738320" lon="-0.9019080">
        <ele>404.2</ele>
        <time>2020-12-31T13:58:35Z</time>
      </trkpt>
      <trkpt lat="41.5738360" lon="-0.9019500">
        <ele>404.3</ele>
        <time>2020-12-31T13:58:36Z</time>
      </trkpt>
      <trkpt lat="41.5738400" lon="-0.9020000">
        <ele>404.4</ele>
        <time>2020-12-31T13:58:37Z</time>
      </trkpt>
      <trkpt lat="41.5738440" lon="-0.9020620">
        <ele>404.5</ele>
        <time>2020-12-31T13:58:39Z</time>
      </trkpt>
      <trkpt lat="41.5738450" lon="-0.9021340">
        <ele>404.6</ele>
        <time>2020-12-31T13:58:41Z</time>
      </trkpt>
      <trkpt lat="41.5738460" lon="-0.9021920">
        <ele>404.7</ele>
        <time>2020-12-31T13:58:42Z</time>
      </trkpt>
      <trkpt lat="41.5738480" lon="-0.9022590">
        <ele>404.8</ele>
        <time>2020-12-31T13:58:44Z</time>
      </trkpt>
      <trkpt lat="41.5738490" lon="-0.9023090">
        <ele>404.8</ele>
        <time>2020-12-31T13:58:45Z</time>
      </trkpt>
      <trkpt lat="41.5738440" lon="-0.9023600">
        <ele>405.0</ele>
        <time>2020-12-31T13:58:46Z</time>
      </trkpt>
      <trkpt lat="41.5738420" lon="-0.9024110">
        <ele>405.1</ele>
        <time>2020-12-31T13:58:47Z</time>
      </trkpt>
      <trkpt lat="41.5738360" lon="-0.9024690">
        <ele>405.3</ele>
        <time>2020-12-31T13:58:49Z</time>
      </trkpt>
      <trkpt lat="41.5738320" lon="-0.9025350">
        <ele>405.5</ele>
        <time>2020-12-31T13:58:50Z</time>
      </trkpt>
      <trkpt lat="41.5738260" lon="-0.9026010">
        <ele>405.7</ele>
        <time>2020-12-31T13:58:52Z</time>
      </trkpt>
      <trkpt lat="41.5738280" lon="-0.9026540">
        <ele>405.9</ele>
        <time>2020-12-31T13:58:53Z</time>
      </trkpt>
      <trkpt lat="41.5738400" lon="-0.9026940">
        <ele>406.0</ele>
        <time>2020-12-31T13:58:54Z</time>
      </trkpt>
      <trkpt lat="41.5738560" lon="-0.9027420">
        <ele>406.1</ele>
        <time>2020-12-31T13:58:55Z</time>
      </trkpt>
      <trkpt lat="41.5738680" lon="-0.9027960">
        <ele>406.3</ele>
        <time>2020-12-31T13:58:56Z</time>
      </trkpt>
      <trkpt lat="41.5738770" lon="-0.9028420">
        <ele>406.4</ele>
        <time>2020-12-31T13:58:58Z</time>
      </trkpt>
      <trkpt lat="41.5738870" lon="-0.9028880">
        <ele>406.4</ele>
        <time>2020-12-31T13:58:59Z</time>
      </trkpt>
      <trkpt lat="41.5739020" lon="-0.9029420">
        <ele>406.5</ele>
        <time>2020-12-31T13:59:00Z</time>
      </trkpt>
      <trkpt lat="41.5739120" lon="-0.9029900">
        <ele>406.6</ele>
        <time>2020-12-31T13:59:01Z</time>
      </trkpt>
      <trkpt lat="41.5739250" lon="-0.9030350">
        <ele>406.7</ele>
        <time>2020-12-31T13:59:02Z</time>
      </trkpt>
      <trkpt lat="41.5739360" lon="-0.9030760">
        <ele>406.8</ele>
        <time>2020-12-31T13:59:03Z</time>
      </trkpt>
      <trkpt lat="41.5739470" lon="-0.9031380">
        <ele>406.9</ele>
        <time>2020-12-31T13:59:05Z</time>
      </trkpt>
      <trkpt lat="41.5739590" lon="-0.9031880">
        <ele>407.0</ele>
        <time>2020-12-31T13:59:06Z</time>
      </trkpt>
      <trkpt lat="41.5739650" lon="-0.9032450">
        <ele>407.1</ele>
        <time>2020-12-31T13:59:07Z</time>
      </trkpt>
      <trkpt lat="41.5739700" lon="-0.9033110">
        <ele>407.1</ele>
        <time>2020-12-31T13:59:09Z</time>
      </trkpt>
      <trkpt lat="41.5739620" lon="-0.9033560">
        <ele>407.1</ele>
        <time>2020-12-31T13:59:10Z</time>
      </trkpt>
      <trkpt lat="41.5739360" lon="-0.9034850">
        <ele>406.9</ele>
        <time>2020-12-31T13:59:12Z</time>
      </trkpt>
      <trkpt lat="41.5739150" lon="-0.9035580">
        <ele>406.8</ele>
        <time>2020-12-31T13:59:13Z</time>
      </trkpt>
      <trkpt lat="41.5738550" lon="-0.9036760">
        <ele>406.8</ele>
        <time>2020-12-31T13:59:15Z</time>
      </trkpt>
      <trkpt lat="41.5738270" lon="-0.9037170">
        <ele>406.9</ele>
        <time>2020-12-31T13:59:16Z</time>
      </trkpt>
      <trkpt lat="41.5737990" lon="-0.9037450">
        <ele>407.0</ele>
        <time>2020-12-31T13:59:17Z</time>
      </trkpt>
      <trkpt lat="41.5737620" lon="-0.9037570">
        <ele>407.2</ele>
        <time>2020-12-31T13:59:18Z</time>
      </trkpt>
      <trkpt lat="41.5737220" lon="-0.9037610">
        <ele>407.5</ele>
        <time>2020-12-31T13:59:20Z</time>
      </trkpt>
      <trkpt lat="41.5736610" lon="-0.9037300">
        <ele>407.8</ele>
        <time>2020-12-31T13:59:22Z</time>
      </trkpt>
      <trkpt lat="41.5736260" lon="-0.9036980">
        <ele>407.8</ele>
        <time>2020-12-31T13:59:23Z</time>
      </trkpt>
      <trkpt lat="41.5735930" lon="-0.9036520">
        <ele>407.9</ele>
        <time>2020-12-31T13:59:24Z</time>
      </trkpt>
      <trkpt lat="41.5735640" lon="-0.9036150">
        <ele>407.9</ele>
        <time>2020-12-31T13:59:25Z</time>
      </trkpt>
      <trkpt lat="41.5735330" lon="-0.9035630">
        <ele>408.0</ele>
        <time>2020-12-31T13:59:26Z</time>
      </trkpt>
      <trkpt lat="41.5735080" lon="-0.9035270">
        <ele>408.0</ele>
        <time>2020-12-31T13:59:27Z</time>
      </trkpt>
      <trkpt lat="41.5734740" lon="-0.9034890">
        <ele>407.9</ele>
        <time>2020-12-31T13:59:29Z</time>
      </trkpt>
      <trkpt lat="41.5734350" lon="-0.9034550">
        <ele>407.8</ele>
        <time>2020-12-31T13:59:30Z</time>
      </trkpt>
      <trkpt lat="41.5733730" lon="-0.9033940">
        <ele>407.6</ele>
        <time>2020-12-31T13:59:31Z</time>
      </trkpt>
      <trkpt lat="41.5732820" lon="-0.9032950">
        <ele>407.2</ele>
        <time>2020-12-31T13:59:33Z</time>
      </trkpt>
      <trkpt lat="41.5732350" lon="-0.9032370">
        <ele>407.0</ele>
        <time>2020-12-31T13:59:34Z</time>
      </trkpt>
      <trkpt lat="41.5731410" lon="-0.9031020">
        <ele>406.9</ele>
        <time>2020-12-31T13:59:36Z</time>
      </trkpt>
      <trkpt lat="41.5730970" lon="-0.9030360">
        <ele>406.9</ele>
        <time>2020-12-31T13:59:37Z</time>
      </trkpt>
      <trkpt lat="41.5730130" lon="-0.9029410">
        <ele>407.0</ele>
        <time>2020-12-31T13:59:39Z</time>
      </trkpt>
      <trkpt lat="41.5729330" lon="-0.9028720">
        <ele>407.1</ele>
        <time>2020-12-31T13:59:41Z</time>
      </trkpt>
      <trkpt lat="41.5728580" lon="-0.9028260">
        <ele>407.2</ele>
        <time>2020-12-31T13:59:43Z</time>
      </trkpt>
      <trkpt lat="41.5728030" lon="-0.9028100">
        <ele>407.2</ele>
        <time>2020-12-31T13:59:44Z</time>
      </trkpt>
      <trkpt lat="41.5726870" lon="-0.9028300">
        <ele>407.4</ele>
        <time>2020-12-31T13:59:46Z</time>
      </trkpt>
      <trkpt lat="41.5726390" lon="-0.9028620">
        <ele>407.5</ele>
        <time>2020-12-31T13:59:47Z</time>
      </trkpt>
      <trkpt lat="41.5725680" lon="-0.9029120">
        <ele>407.5</ele>
        <time>2020-12-31T13:59:49Z</time>
      </trkpt>
      <trkpt lat="41.5725040" lon="-0.9029300">
        <ele>406.7</ele>
        <time>2020-12-31T13:59:51Z</time>
      </trkpt>
      <trkpt lat="41.5724560" lon="-0.9029440">
        <ele>406.1</ele>
        <time>2020-12-31T13:59:52Z</time>
      </trkpt>
      <trkpt lat="41.5724110" lon="-0.9029560">
        <ele>405.6</ele>
        <time>2020-12-31T13:59:53Z</time>
      </trkpt>
      <trkpt lat="41.5723760" lon="-0.9029600">
        <ele>405.3</ele>
        <time>2020-12-31T13:59:55Z</time>
      </trkpt>
      <trkpt lat="41.5723450" lon="-0.9029670">
        <ele>404.9</ele>
        <time>2020-12-31T13:59:56Z</time>
      </trkpt>
      <trkpt lat="41.5723160" lon="-0.9029710">
        <ele>404.6</ele>
        <time>2020-12-31T13:59:57Z</time>
      </trkpt>
      <trkpt lat="41.5722810" lon="-0.9029790">
        <ele>404.3</ele>
        <time>2020-12-31T13:59:58Z</time>
      </trkpt>
      <trkpt lat="41.5722520" lon="-0.9029900">
        <ele>404.0</ele>
        <time>2020-12-31T13:59:59Z</time>
      </trkpt>
      <trkpt lat="41.5721960" lon="-0.9030050">
        <ele>403.4</ele>
        <time>2020-12-31T14:00:01Z</time>
      </trkpt>
      <trkpt lat="41.5721550" lon="-0.9030120">
        <ele>403.0</ele>
        <time>2020-12-31T14:00:02Z</time>
      </trkpt>
      <trkpt lat="41.5721220" lon="-0.9030270">
        <ele>403.3</ele>
        <time>2020-12-31T14:00:04Z</time>
      </trkpt>
      <trkpt lat="41.5720930" lon="-0.9030320">
        <ele>403.6</ele>
        <time>2020-12-31T14:00:05Z</time>
      </trkpt>
      <trkpt lat="41.5720450" lon="-0.9030310">
        <ele>404.1</ele>
        <time>2020-12-31T14:00:07Z</time>
      </trkpt>
      <trkpt lat="41.5720170" lon="-0.9030270">
        <ele>404.5</ele>
        <time>2020-12-31T14:00:08Z</time>
      </trkpt>
      <trkpt lat="41.5720070" lon="-0.9030260">
        <ele>404.7</ele>
        <time>2020-12-31T14:00:09Z</time>
      </trkpt>
      <trkpt lat="41.5719740" lon="-0.9030330">
        <ele>405.1</ele>
        <time>2020-12-31T14:00:10Z</time>
      </trkpt>
      <trkpt lat="41.5719470" lon="-0.9030510">
        <ele>405.4</ele>
        <time>2020-12-31T14:00:12Z</time>
      </trkpt>
      <trkpt lat="41.5719030" lon="-0.9030720">
        <ele>405.6</ele>
        <time>2020-12-31T14:00:13Z</time>
      </trkpt>
      <trkpt lat="41.5718560" lon="-0.9030930">
        <ele>405.9</ele>
        <time>2020-12-31T14:00:15Z</time>
      </trkpt>
      <trkpt lat="41.5718190" lon="-0.9031060">
        <ele>406.2</ele>
        <time>2020-12-31T14:00:16Z</time>
      </trkpt>
      <trkpt lat="41.5717690" lon="-0.9030920">
        <ele>406.5</ele>
        <time>2020-12-31T14:00:17Z</time>
      </trkpt>
      <trkpt lat="41.5716460" lon="-0.9030640">
        <ele>406.7</ele>
        <time>2020-12-31T14:00:19Z</time>
      </trkpt>
      <trkpt lat="41.5715160" lon="-0.9031440">
        <ele>405.2</ele>
        <time>2020-12-31T14:00:21Z</time>
      </trkpt>
      <trkpt lat="41.5714640" lon="-0.9032160">
        <ele>404.5</ele>
        <time>2020-12-31T14:00:22Z</time>
      </trkpt>
      <trkpt lat="41.5714290" lon="-0.9032970">
        <ele>404.0</ele>
        <time>2020-12-31T14:00:23Z</time>
      </trkpt>
      <trkpt lat="41.5713820" lon="-0.9034550">
        <ele>403.3</ele>
        <time>2020-12-31T14:00:25Z</time>
      </trkpt>
      <trkpt lat="41.5713250" lon="-0.9035570">
        <ele>402.9</ele>
        <time>2020-12-31T14:00:27Z</time>
      </trkpt>
      <trkpt lat="41.5713030" lon="-0.9035990">
        <ele>402.7</ele>
        <time>2020-12-31T14:00:28Z</time>
      </trkpt>
      <trkpt lat="41.5712560" lon="-0.9036060">
        <ele>402.4</ele>
        <time>2020-12-31T14:00:30Z</time>
      </trkpt>
      <trkpt lat="41.5712320" lon="-0.9035850">
        <ele>402.2</ele>
        <time>2020-12-31T14:00:31Z</time>
      </trkpt>
      <trkpt lat="41.5712010" lon="-0.9035560">
        <ele>401.9</ele>
        <time>2020-12-31T14:00:32Z</time>
      </trkpt>
      <trkpt lat="41.5711580" lon="-0.9035270">
        <ele>401.5</ele>
        <time>2020-12-31T14:00:33Z</time>
      </trkpt>
      <trkpt lat="41.5710650" lon="-0.9034440">
        <ele>400.2</ele>
        <time>2020-12-31T14:00:35Z</time>
      </trkpt>
      <trkpt lat="41.5710220" lon="-0.9034020">
        <ele>399.4</ele>
        <time>2020-12-31T14:00:36Z</time>
      </trkpt>
      <trkpt lat="41.5709720" lon="-0.9033830">
        <ele>398.6</ele>
        <time>2020-12-31T14:00:37Z</time>
      </trkpt>
      <trkpt lat="41.5708740" lon="-0.9034300">
        <ele>397.0</ele>
        <time>2020-12-31T14:00:39Z</time>
      </trkpt>
      <trkpt lat="41.5708230" lon="-0.9034590">
        <ele>396.3</ele>
        <time>2020-12-31T14:00:40Z</time>
      </trkpt>
      <trkpt lat="41.5707570" lon="-0.9034840">
        <ele>395.6</ele>
        <time>2020-12-31T14:00:41Z</time>
      </trkpt>
      <trkpt lat="41.5706700" lon="-0.9035120">
        <ele>395.1</ele>
        <time>2020-12-31T14:00:43Z</time>
      </trkpt>
      <trkpt lat="41.5706590" lon="-0.9035250">
        <ele>395.0</ele>
        <time>2020-12-31T14:00:44Z</time>
      </trkpt>
      <trkpt lat="41.5705950" lon="-0.9035340">
        <ele>394.8</ele>
        <time>2020-12-31T14:00:46Z</time>
      </trkpt>
      <trkpt lat="41.5705460" lon="-0.9035580">
        <ele>394.8</ele>
        <time>2020-12-31T14:00:47Z</time>
      </trkpt>
      <trkpt lat="41.5705070" lon="-0.9035800">
        <ele>394.9</ele>
        <time>2020-12-31T14:00:48Z</time>
      </trkpt>
      <trkpt lat="41.5704510" lon="-0.9036210">
        <ele>395.0</ele>
        <time>2020-12-31T14:00:50Z</time>
      </trkpt>
      <trkpt lat="41.5704280" lon="-0.9036600">
        <ele>395.1</ele>
        <time>2020-12-31T14:00:51Z</time>
      </trkpt>
      <trkpt lat="41.5703800" lon="-0.9037100">
        <ele>395.3</ele>
        <time>2020-12-31T14:00:53Z</time>
      </trkpt>
      <trkpt lat="41.5703420" lon="-0.9037370">
        <ele>395.5</ele>
        <time>2020-12-31T14:00:54Z</time>
      </trkpt>
      <trkpt lat="41.5703030" lon="-0.9037700">
        <ele>395.7</ele>
        <time>2020-12-31T14:00:56Z</time>
      </trkpt>
      <trkpt lat="41.5702780" lon="-0.9038030">
        <ele>395.9</ele>
        <time>2020-12-31T14:00:57Z</time>
      </trkpt>
      <trkpt lat="41.5702520" lon="-0.9038670">
        <ele>396.2</ele>
        <time>2020-12-31T14:00:59Z</time>
      </trkpt>
      <trkpt lat="41.5702310" lon="-0.9039120">
        <ele>396.4</ele>
        <time>2020-12-31T14:01:00Z</time>
      </trkpt>
      <trkpt lat="41.5702200" lon="-0.9039390">
        <ele>396.6</ele>
        <time>2020-12-31T14:01:01Z</time>
      </trkpt>
      <trkpt lat="41.5702000" lon="-0.9039730">
        <ele>396.8</ele>
        <time>2020-12-31T14:01:03Z</time>
      </trkpt>
      <trkpt lat="41.5701800" lon="-0.9040160">
        <ele>397.0</ele>
        <time>2020-12-31T14:01:05Z</time>
      </trkpt>
      <trkpt lat="41.5701680" lon="-0.9040450">
        <ele>397.2</ele>
        <time>2020-12-31T14:01:06Z</time>
      </trkpt>
      <trkpt lat="41.5701500" lon="-0.9040860">
        <ele>397.4</ele>
        <time>2020-12-31T14:01:08Z</time>
      </trkpt>
      <trkpt lat="41.5701310" lon="-0.9041130">
        <ele>397.5</ele>
        <time>2020-12-31T14:01:09Z</time>
      </trkpt>
      <trkpt lat="41.5700950" lon="-0.9041610">
        <ele>397.7</ele>
        <time>2020-12-31T14:01:11Z</time>
      </trkpt>
      <trkpt lat="41.5700720" lon="-0.9041970">
        <ele>397.7</ele>
        <time>2020-12-31T14:01:12Z</time>
      </trkpt>
      <trkpt lat="41.5700320" lon="-0.9042800">
        <ele>397.7</ele>
        <time>2020-12-31T14:01:14Z</time>
      </trkpt>
      <trkpt lat="41.5700080" lon="-0.9043290">
        <ele>397.6</ele>
        <time>2020-12-31T14:01:15Z</time>
      </trkpt>
      <trkpt lat="41.5699840" lon="-0.9043820">
        <ele>397.5</ele>
        <time>2020-12-31T14:01:16Z</time>
      </trkpt>
      <trkpt lat="41.5699460" lon="-0.9044550">
        <ele>397.3</ele>
        <time>2020-12-31T14:01:18Z</time>
      </trkpt>
      <trkpt lat="41.5699200" lon="-0.9045190">
        <ele>397.1</ele>
        <time>2020-12-31T14:01:19Z</time>
      </trkpt>
      <trkpt lat="41.5698900" lon="-0.9045980">
        <ele>396.8</ele>
        <time>2020-12-31T14:01:20Z</time>
      </trkpt>
      <trkpt lat="41.5698130" lon="-0.9047400">
        <ele>396.2</ele>
        <time>2020-12-31T14:01:22Z</time>
      </trkpt>
      <trkpt lat="41.5697640" lon="-0.9047940">
        <ele>395.8</ele>
        <time>2020-12-31T14:01:23Z</time>
      </trkpt>
      <trkpt lat="41.5697160" lon="-0.9048370">
        <ele>395.6</ele>
        <time>2020-12-31T14:01:24Z</time>
      </trkpt>
      <trkpt lat="41.5696670" lon="-0.9048830">
        <ele>395.3</ele>
        <time>2020-12-31T14:01:25Z</time>
      </trkpt>
      <trkpt lat="41.5696060" lon="-0.9049220">
        <ele>395.2</ele>
        <time>2020-12-31T14:01:26Z</time>
      </trkpt>
      <trkpt lat="41.5694660" lon="-0.9049900">
        <ele>395.3</ele>
        <time>2020-12-31T14:01:28Z</time>
      </trkpt>
      <trkpt lat="41.5694200" lon="-0.9050260">
        <ele>395.5</ele>
        <time>2020-12-31T14:01:29Z</time>
      </trkpt>
      <trkpt lat="41.5693600" lon="-0.9050570">
        <ele>395.9</ele>
        <time>2020-12-31T14:01:31Z</time>
      </trkpt>
      <trkpt lat="41.5693330" lon="-0.9050870">
        <ele>396.2</ele>
        <time>2020-12-31T14:01:32Z</time>
      </trkpt>
      <trkpt lat="41.5693030" lon="-0.9051110">
        <ele>396.5</ele>
        <time>2020-12-31T14:01:33Z</time>
      </trkpt>
      <trkpt lat="41.5692690" lon="-0.9051230">
        <ele>396.7</ele>
        <time>2020-12-31T14:01:34Z</time>
      </trkpt>
      <trkpt lat="41.5692230" lon="-0.9051530">
        <ele>397.2</ele>
        <time>2020-12-31T14:01:36Z</time>
      </trkpt>
      <trkpt lat="41.5691900" lon="-0.9051880">
        <ele>397.6</ele>
        <time>2020-12-31T14:01:37Z</time>
      </trkpt>
      <trkpt lat="41.5691630" lon="-0.9052040">
        <ele>397.9</ele>
        <time>2020-12-31T14:01:38Z</time>
      </trkpt>
      <trkpt lat="41.5691220" lon="-0.9052190">
        <ele>398.3</ele>
        <time>2020-12-31T14:01:40Z</time>
      </trkpt>
      <trkpt lat="41.5690970" lon="-0.9052420">
        <ele>398.7</ele>
        <time>2020-12-31T14:01:41Z</time>
      </trkpt>
      <trkpt lat="41.5690730" lon="-0.9052660">
        <ele>399.0</ele>
        <time>2020-12-31T14:01:43Z</time>
      </trkpt>
      <trkpt lat="41.5690470" lon="-0.9052980">
        <ele>399.4</ele>
        <time>2020-12-31T14:01:44Z</time>
      </trkpt>
      <trkpt lat="41.5690260" lon="-0.9053290">
        <ele>399.7</ele>
        <time>2020-12-31T14:01:46Z</time>
      </trkpt>
      <trkpt lat="41.5690140" lon="-0.9053600">
        <ele>400.0</ele>
        <time>2020-12-31T14:01:47Z</time>
      </trkpt>
      <trkpt lat="41.5689980" lon="-0.9054080">
        <ele>400.4</ele>
        <time>2020-12-31T14:01:49Z</time>
      </trkpt>
      <trkpt lat="41.5689780" lon="-0.9054630">
        <ele>400.8</ele>
        <time>2020-12-31T14:01:50Z</time>
      </trkpt>
      <trkpt lat="41.5689490" lon="-0.9055200">
        <ele>401.1</ele>
        <time>2020-12-31T14:01:52Z</time>
      </trkpt>
      <trkpt lat="41.5689300" lon="-0.9055660">
        <ele>401.3</ele>
        <time>2020-12-31T14:01:53Z</time>
      </trkpt>
      <trkpt lat="41.5689130" lon="-0.9056160">
        <ele>401.5</ele>
        <time>2020-12-31T14:01:54Z</time>
      </trkpt>
      <trkpt lat="41.5688820" lon="-0.9056650">
        <ele>401.7</ele>
        <time>2020-12-31T14:01:56Z</time>
      </trkpt>
      <trkpt lat="41.5688580" lon="-0.9056770">
        <ele>401.9</ele>
        <time>2020-12-31T14:01:57Z</time>
      </trkpt>
      <trkpt lat="41.5688210" lon="-0.9056830">
        <ele>402.1</ele>
        <time>2020-12-31T14:01:59Z</time>
      </trkpt>
      <trkpt lat="41.5687880" lon="-0.9056930">
        <ele>402.3</ele>
        <time>2020-12-31T14:02:00Z</time>
      </trkpt>
      <trkpt lat="41.5687790" lon="-0.9056960">
        <ele>402.3</ele>
        <time>2020-12-31T14:02:01Z</time>
      </trkpt>
      <trkpt lat="41.5687550" lon="-0.9057120">
        <ele>402.5</ele>
        <time>2020-12-31T14:02:02Z</time>
      </trkpt>
      <trkpt lat="41.5687200" lon="-0.9057380">
        <ele>402.8</ele>
        <time>2020-12-31T14:02:04Z</time>
      </trkpt>
      <trkpt lat="41.5686910" lon="-0.9057660">
        <ele>403.0</ele>
        <time>2020-12-31T14:02:06Z</time>
      </trkpt>
      <trkpt lat="41.5686640" lon="-0.9058050">
        <ele>403.3</ele>
        <time>2020-12-31T14:02:07Z</time>
      </trkpt>
      <trkpt lat="41.5686410" lon="-0.9058250">
        <ele>403.5</ele>
        <time>2020-12-31T14:02:09Z</time>
      </trkpt>
      <trkpt lat="41.5686170" lon="-0.9058450">
        <ele>403.7</ele>
        <time>2020-12-31T14:02:10Z</time>
      </trkpt>
      <trkpt lat="41.5685910" lon="-0.9058790">
        <ele>403.9</ele>
        <time>2020-12-31T14:02:11Z</time>
      </trkpt>
      <trkpt lat="41.5685840" lon="-0.9058910">
        <ele>404.0</ele>
        <time>2020-12-31T14:02:12Z</time>
      </trkpt>
      <trkpt lat="41.5685710" lon="-0.9059200">
        <ele>404.2</ele>
        <time>2020-12-31T14:02:13Z</time>
      </trkpt>
      <trkpt lat="41.5685570" lon="-0.9059570">
        <ele>404.4</ele>
        <time>2020-12-31T14:02:15Z</time>
      </trkpt>
      <trkpt lat="41.5685430" lon="-0.9059980">
        <ele>404.7</ele>
        <time>2020-12-31T14:02:16Z</time>
      </trkpt>
      <trkpt lat="41.5685390" lon="-0.9060080">
        <ele>404.8</ele>
        <time>2020-12-31T14:02:17Z</time>
      </trkpt>
      <trkpt lat="41.5685270" lon="-0.9060320">
        <ele>404.9</ele>
        <time>2020-12-31T14:02:18Z</time>
      </trkpt>
      <trkpt lat="41.5685090" lon="-0.9060510">
        <ele>405.1</ele>
        <time>2020-12-31T14:02:20Z</time>
      </trkpt>
      <trkpt lat="41.5684800" lon="-0.9060790">
        <ele>405.4</ele>
        <time>2020-12-31T14:02:21Z</time>
      </trkpt>
      <trkpt lat="41.5684520" lon="-0.9061100">
        <ele>405.6</ele>
        <time>2020-12-31T14:02:23Z</time>
      </trkpt>
      <trkpt lat="41.5684250" lon="-0.9061600">
        <ele>405.9</ele>
        <time>2020-12-31T14:02:25Z</time>
      </trkpt>
      <trkpt lat="41.5684040" lon="-0.9061960">
        <ele>406.0</ele>
        <time>2020-12-31T14:02:27Z</time>
      </trkpt>
      <trkpt lat="41.5683860" lon="-0.9062260">
        <ele>406.1</ele>
        <time>2020-12-31T14:02:28Z</time>
      </trkpt>
      <trkpt lat="41.5683670" lon="-0.9062440">
        <ele>406.2</ele>
        <time>2020-12-31T14:02:29Z</time>
      </trkpt>
      <trkpt lat="41.5683450" lon="-0.9062520">
        <ele>406.3</ele>
        <time>2020-12-31T14:02:31Z</time>
      </trkpt>
      <trkpt lat="41.5683150" lon="-0.9062370">
        <ele>406.4</ele>
        <time>2020-12-31T14:02:32Z</time>
      </trkpt>
      <trkpt lat="41.5683050" lon="-0.9062270">
        <ele>406.4</ele>
        <time>2020-12-31T14:02:33Z</time>
      </trkpt>
      <trkpt lat="41.5682750" lon="-0.9061970">
        <ele>406.4</ele>
        <time>2020-12-31T14:02:35Z</time>
      </trkpt>
      <trkpt lat="41.5682640" lon="-0.9061890">
        <ele>406.4</ele>
        <time>2020-12-31T14:02:36Z</time>
      </trkpt>
      <trkpt lat="41.5682490" lon="-0.9061790">
        <ele>406.4</ele>
        <time>2020-12-31T14:02:37Z</time>
      </trkpt>
      <trkpt lat="41.5682260" lon="-0.9061450">
        <ele>406.4</ele>
        <time>2020-12-31T14:02:39Z</time>
      </trkpt>
      <trkpt lat="41.5681950" lon="-0.9061090">
        <ele>406.3</ele>
        <time>2020-12-31T14:02:41Z</time>
      </trkpt>
      <trkpt lat="41.5681850" lon="-0.9060990">
        <ele>406.3</ele>
        <time>2020-12-31T14:02:42Z</time>
      </trkpt>
      <trkpt lat="41.5681750" lon="-0.9060890">
        <ele>406.2</ele>
        <time>2020-12-31T14:02:43Z</time>
      </trkpt>
      <trkpt lat="41.5681650" lon="-0.9060790">
        <ele>406.1</ele>
        <time>2020-12-31T14:02:44Z</time>
      </trkpt>
      <trkpt lat="41.5681540" lon="-0.9060690">
        <ele>406.1</ele>
        <time>2020-12-31T14:02:46Z</time>
      </trkpt>
      <trkpt lat="41.5681440" lon="-0.9060590">
        <ele>406.0</ele>
        <time>2020-12-31T14:02:48Z</time>
      </trkpt>
      <trkpt lat="41.5681340" lon="-0.9060490">
        <ele>405.9</ele>
        <time>2020-12-31T14:02:59Z</time>
      </trkpt>
      <trkpt lat="41.5681240" lon="-0.9060390">
        <ele>405.8</ele>
        <time>2020-12-31T14:03:00Z</time>
      </trkpt>
      <trkpt lat="41.5680250" lon="-0.9059490">
        <ele>405.0</ele>
        <time>2020-12-31T14:03:02Z</time>
      </trkpt>
      <trkpt lat="41.5678900" lon="-0.9058660">
        <ele>404.1</ele>
        <time>2020-12-31T14:03:04Z</time>
      </trkpt>
      <trkpt lat="41.5678260" lon="-0.9058610">
        <ele>403.9</ele>
        <time>2020-12-31T14:03:05Z</time>
      </trkpt>
      <trkpt lat="41.5677320" lon="-0.9059270">
        <ele>403.6</ele>
        <time>2020-12-31T14:03:07Z</time>
      </trkpt>
      <trkpt lat="41.5677310" lon="-0.9059390">
        <ele>403.6</ele>
        <time>2020-12-31T14:03:08Z</time>
      </trkpt>
      <trkpt lat="41.5676770" lon="-0.9059510">
        <ele>403.6</ele>
        <time>2020-12-31T14:03:10Z</time>
      </trkpt>
      <trkpt lat="41.5676420" lon="-0.9059830">
        <ele>403.6</ele>
        <time>2020-12-31T14:03:11Z</time>
      </trkpt>
      <trkpt lat="41.5676270" lon="-0.9060300">
        <ele>403.5</ele>
        <time>2020-12-31T14:03:12Z</time>
      </trkpt>
      <trkpt lat="41.5676150" lon="-0.9060920">
        <ele>403.5</ele>
        <time>2020-12-31T14:03:14Z</time>
      </trkpt>
      <trkpt lat="41.5676140" lon="-0.9061450">
        <ele>403.4</ele>
        <time>2020-12-31T14:03:15Z</time>
      </trkpt>
      <trkpt lat="41.5676310" lon="-0.9062110">
        <ele>403.2</ele>
        <time>2020-12-31T14:03:17Z</time>
      </trkpt>
      <trkpt lat="41.5676540" lon="-0.9062510">
        <ele>403.1</ele>
        <time>2020-12-31T14:03:18Z</time>
      </trkpt>
      <trkpt lat="41.5676770" lon="-0.9062940">
        <ele>402.9</ele>
        <time>2020-12-31T14:03:19Z</time>
      </trkpt>
      <trkpt lat="41.5676930" lon="-0.9063570">
        <ele>402.6</ele>
        <time>2020-12-31T14:03:20Z</time>
      </trkpt>
      <trkpt lat="41.5677030" lon="-0.9064230">
        <ele>402.3</ele>
        <time>2020-12-31T14:03:21Z</time>
      </trkpt>
      <trkpt lat="41.5676910" lon="-0.9065810">
        <ele>401.6</ele>
        <time>2020-12-31T14:03:23Z</time>
      </trkpt>
      <trkpt lat="41.5676730" lon="-0.9066940">
        <ele>400.7</ele>
        <time>2020-12-31T14:03:25Z</time>
      </trkpt>
      <trkpt lat="41.5676450" lon="-0.9067050">
        <ele>400.4</ele>
        <time>2020-12-31T14:03:26Z</time>
      </trkpt>
      <trkpt lat="41.5675770" lon="-0.9066920">
        <ele>399.5</ele>
        <time>2020-12-31T14:03:27Z</time>
      </trkpt>
      <trkpt lat="41.5674450" lon="-0.9066790">
        <ele>397.9</ele>
        <time>2020-12-31T14:03:29Z</time>
      </trkpt>
      <trkpt lat="41.5673790" lon="-0.9066890">
        <ele>397.1</ele>
        <time>2020-12-31T14:03:30Z</time>
      </trkpt>
      <trkpt lat="41.5672320" lon="-0.9066750">
        <ele>395.7</ele>
        <time>2020-12-31T14:03:32Z</time>
      </trkpt>
      <trkpt lat="41.5671460" lon="-0.9066990">
        <ele>395.1</ele>
        <time>2020-12-31T14:03:33Z</time>
      </trkpt>
      <trkpt lat="41.5669950" lon="-0.9067100">
        <ele>394.2</ele>
        <time>2020-12-31T14:03:35Z</time>
      </trkpt>
      <trkpt lat="41.5669270" lon="-0.9067050">
        <ele>393.8</ele>
        <time>2020-12-31T14:03:36Z</time>
      </trkpt>
      <trkpt lat="41.5667920" lon="-0.9067490">
        <ele>393.5</ele>
        <time>2020-12-31T14:03:38Z</time>
      </trkpt>
      <trkpt lat="41.5667370" lon="-0.9067590">
        <ele>393.6</ele>
        <time>2020-12-31T14:03:39Z</time>
      </trkpt>
      <trkpt lat="41.5666490" lon="-0.9067910">
        <ele>393.9</ele>
        <time>2020-12-31T14:03:41Z</time>
      </trkpt>
      <trkpt lat="41.5666040" lon="-0.9068240">
        <ele>394.3</ele>
        <time>2020-12-31T14:03:43Z</time>
      </trkpt>
      <trkpt lat="41.5665490" lon="-0.9068360">
        <ele>394.7</ele>
        <time>2020-12-31T14:03:45Z</time>
      </trkpt>
      <trkpt lat="41.5665150" lon="-0.9068220">
        <ele>395.0</ele>
        <time>2020-12-31T14:03:46Z</time>
      </trkpt>
      <trkpt lat="41.5664510" lon="-0.9068230">
        <ele>395.4</ele>
        <time>2020-12-31T14:03:47Z</time>
      </trkpt>
      <trkpt lat="41.5664100" lon="-0.9068320">
        <ele>395.6</ele>
        <time>2020-12-31T14:03:49Z</time>
      </trkpt>
      <trkpt lat="41.5663880" lon="-0.9068470">
        <ele>395.8</ele>
        <time>2020-12-31T14:03:50Z</time>
      </trkpt>
      <trkpt lat="41.5663510" lon="-0.9068830">
        <ele>396.0</ele>
        <time>2020-12-31T14:03:51Z</time>
      </trkpt>
      <trkpt lat="41.5663040" lon="-0.9069210">
        <ele>396.2</ele>
        <time>2020-12-31T14:03:53Z</time>
      </trkpt>
      <trkpt lat="41.5662650" lon="-0.9069150">
        <ele>396.3</ele>
        <time>2020-12-31T14:03:54Z</time>
      </trkpt>
      <trkpt lat="41.5662240" lon="-0.9068830">
        <ele>396.5</ele>
        <time>2020-12-31T14:03:55Z</time>
      </trkpt>
      <trkpt lat="41.5661800" lon="-0.9068760">
        <ele>396.7</ele>
        <time>2020-12-31T14:03:56Z</time>
      </trkpt>
      <trkpt lat="41.5661460" lon="-0.9068790">
        <ele>396.8</ele>
        <time>2020-12-31T14:03:57Z</time>
      </trkpt>
      <trkpt lat="41.5661100" lon="-0.9068790">
        <ele>396.9</ele>
        <time>2020-12-31T14:03:59Z</time>
      </trkpt>
      <trkpt lat="41.5660770" lon="-0.9068760">
        <ele>397.0</ele>
        <time>2020-12-31T14:04:00Z</time>
      </trkpt>
      <trkpt lat="41.5660400" lon="-0.9068580">
        <ele>397.1</ele>
        <time>2020-12-31T14:04:02Z</time>
      </trkpt>
      <trkpt lat="41.5660140" lon="-0.9068420">
        <ele>397.1</ele>
        <time>2020-12-31T14:04:03Z</time>
      </trkpt>
      <trkpt lat="41.5659810" lon="-0.9068250">
        <ele>397.1</ele>
        <time>2020-12-31T14:04:04Z</time>
      </trkpt>
      <trkpt lat="41.5659170" lon="-0.9068040">
        <ele>397.1</ele>
        <time>2020-12-31T14:04:06Z</time>
      </trkpt>
      <trkpt lat="41.5658550" lon="-0.9068150">
        <ele>397.0</ele>
        <time>2020-12-31T14:04:07Z</time>
      </trkpt>
      <trkpt lat="41.5658010" lon="-0.9068380">
        <ele>396.9</ele>
        <time>2020-12-31T14:04:08Z</time>
      </trkpt>
      <trkpt lat="41.5657210" lon="-0.9068780">
        <ele>396.8</ele>
        <time>2020-12-31T14:04:10Z</time>
      </trkpt>
      <trkpt lat="41.5656960" lon="-0.9068920">
        <ele>396.8</ele>
        <time>2020-12-31T14:04:11Z</time>
      </trkpt>
      <trkpt lat="41.5656590" lon="-0.9069440">
        <ele>396.8</ele>
        <time>2020-12-31T14:04:12Z</time>
      </trkpt>
      <trkpt lat="41.5656230" lon="-0.9069680">
        <ele>396.9</ele>
        <time>2020-12-31T14:04:14Z</time>
      </trkpt>
      <trkpt lat="41.5655800" lon="-0.9069870">
        <ele>396.9</ele>
        <time>2020-12-31T14:04:15Z</time>
      </trkpt>
      <trkpt lat="41.5655290" lon="-0.9069860">
        <ele>397.0</ele>
        <time>2020-12-31T14:04:17Z</time>
      </trkpt>
      <trkpt lat="41.5654870" lon="-0.9069800">
        <ele>396.9</ele>
        <time>2020-12-31T14:04:18Z</time>
      </trkpt>
      <trkpt lat="41.5654570" lon="-0.9069740">
        <ele>396.9</ele>
        <time>2020-12-31T14:04:19Z</time>
      </trkpt>
      <trkpt lat="41.5654230" lon="-0.9069620">
        <ele>396.8</ele>
        <time>2020-12-31T14:04:20Z</time>
      </trkpt>
      <trkpt lat="41.5653940" lon="-0.9069510">
        <ele>396.7</ele>
        <time>2020-12-31T14:04:21Z</time>
      </trkpt>
      <trkpt lat="41.5653480" lon="-0.9069350">
        <ele>396.3</ele>
        <time>2020-12-31T14:04:23Z</time>
      </trkpt>
      <trkpt lat="41.5653140" lon="-0.9069300">
        <ele>396.0</ele>
        <time>2020-12-31T14:04:24Z</time>
      </trkpt>
      <trkpt lat="41.5652590" lon="-0.9069660">
        <ele>395.3</ele>
        <time>2020-12-31T14:04:26Z</time>
      </trkpt>
      <trkpt lat="41.5652120" lon="-0.9070080">
        <ele>394.3</ele>
        <time>2020-12-31T14:04:28Z</time>
      </trkpt>
      <trkpt lat="41.5651810" lon="-0.9070290">
        <ele>393.8</ele>
        <time>2020-12-31T14:04:29Z</time>
      </trkpt>
      <trkpt lat="41.5651540" lon="-0.9070560">
        <ele>393.2</ele>
        <time>2020-12-31T14:04:30Z</time>
      </trkpt>
      <trkpt lat="41.5651040" lon="-0.9070860">
        <ele>392.3</ele>
        <time>2020-12-31T14:04:31Z</time>
      </trkpt>
      <trkpt lat="41.5650530" lon="-0.9071070">
        <ele>391.5</ele>
        <time>2020-12-31T14:04:32Z</time>
      </trkpt>
      <trkpt lat="41.5650280" lon="-0.9071130">
        <ele>391.2</ele>
        <time>2020-12-31T14:04:33Z</time>
      </trkpt>
      <trkpt lat="41.5649620" lon="-0.9071160">
        <ele>390.5</ele>
        <time>2020-12-31T14:04:35Z</time>
      </trkpt>
      <trkpt lat="41.5649000" lon="-0.9071260">
        <ele>389.9</ele>
        <time>2020-12-31T14:04:37Z</time>
      </trkpt>
      <trkpt lat="41.5646040" lon="-0.9072000">
        <ele>388.5</ele>
        <time>2020-12-31T14:04:38Z</time>
      </trkpt>
      <trkpt lat="41.5645640" lon="-0.9072260">
        <ele>388.4</ele>
        <time>2020-12-31T14:04:39Z</time>
      </trkpt>
      <trkpt lat="41.5644480" lon="-0.9073470">
        <ele>388.4</ele>
        <time>2020-12-31T14:04:41Z</time>
      </trkpt>
      <trkpt lat="41.5643580" lon="-0.9074400">
        <ele>388.7</ele>
        <time>2020-12-31T14:04:43Z</time>
      </trkpt>
      <trkpt lat="41.5642870" lon="-0.9074570">
        <ele>388.8</ele>
        <time>2020-12-31T14:04:45Z</time>
      </trkpt>
      <trkpt lat="41.5642430" lon="-0.9074540">
        <ele>388.6</ele>
        <time>2020-12-31T14:04:46Z</time>
      </trkpt>
      <trkpt lat="41.5642060" lon="-0.9074360">
        <ele>388.3</ele>
        <time>2020-12-31T14:04:48Z</time>
      </trkpt>
      <trkpt lat="41.5641670" lon="-0.9074120">
        <ele>388.3</ele>
        <time>2020-12-31T14:04:49Z</time>
      </trkpt>
      <trkpt lat="41.5640930" lon="-0.9074060">
        <ele>388.2</ele>
        <time>2020-12-31T14:04:51Z</time>
      </trkpt>
      <trkpt lat="41.5640470" lon="-0.9074270">
        <ele>388.3</ele>
        <time>2020-12-31T14:04:52Z</time>
      </trkpt>
      <trkpt lat="41.5640100" lon="-0.9074620">
        <ele>388.5</ele>
        <time>2020-12-31T14:04:53Z</time>
      </trkpt>
      <trkpt lat="41.5639700" lon="-0.9074960">
        <ele>388.8</ele>
        <time>2020-12-31T14:04:54Z</time>
      </trkpt>
      <trkpt lat="41.5639330" lon="-0.9075130">
        <ele>388.9</ele>
        <time>2020-12-31T14:04:55Z</time>
      </trkpt>
      <trkpt lat="41.5638940" lon="-0.9075290">
        <ele>389.1</ele>
        <time>2020-12-31T14:04:56Z</time>
      </trkpt>
      <trkpt lat="41.5638590" lon="-0.9075320">
        <ele>389.5</ele>
        <time>2020-12-31T14:04:57Z</time>
      </trkpt>
      <trkpt lat="41.5638210" lon="-0.9075230">
        <ele>389.4</ele>
        <time>2020-12-31T14:04:59Z</time>
      </trkpt>
      <trkpt lat="41.5637940" lon="-0.9075110">
        <ele>389.6</ele>
        <time>2020-12-31T14:05:00Z</time>
      </trkpt>
      <trkpt lat="41.5637860" lon="-0.9075080">
        <ele>389.7</ele>
        <time>2020-12-31T14:05:01Z</time>
      </trkpt>
      <trkpt lat="41.5637570" lon="-0.9075090">
        <ele>389.9</ele>
        <time>2020-12-31T14:05:02Z</time>
      </trkpt>
      <trkpt lat="41.5637470" lon="-0.9075090">
        <ele>389.9</ele>
        <time>2020-12-31T14:05:03Z</time>
      </trkpt>
      <trkpt lat="41.5637190" lon="-0.9075020">
        <ele>390.1</ele>
        <time>2020-12-31T14:05:04Z</time>
      </trkpt>
      <trkpt lat="41.5636770" lon="-0.9074950">
        <ele>390.3</ele>
        <time>2020-12-31T14:05:06Z</time>
      </trkpt>
      <trkpt lat="41.5636610" lon="-0.9074930">
        <ele>390.6</ele>
        <time>2020-12-31T14:05:07Z</time>
      </trkpt>
      <trkpt lat="41.5636340" lon="-0.9074860">
        <ele>390.7</ele>
        <time>2020-12-31T14:05:08Z</time>
      </trkpt>
      <trkpt lat="41.5635920" lon="-0.9074690">
        <ele>391.0</ele>
        <time>2020-12-31T14:05:10Z</time>
      </trkpt>
      <trkpt lat="41.5635600" lon="-0.9074340">
        <ele>391.1</ele>
        <time>2020-12-31T14:05:12Z</time>
      </trkpt>
      <trkpt lat="41.5635350" lon="-0.9074030">
        <ele>391.4</ele>
        <time>2020-12-31T14:05:13Z</time>
      </trkpt>
      <trkpt lat="41.5635270" lon="-0.9073940">
        <ele>391.3</ele>
        <time>2020-12-31T14:05:14Z</time>
      </trkpt>
      <trkpt lat="41.5635010" lon="-0.9073620">
        <ele>391.5</ele>
        <time>2020-12-31T14:05:15Z</time>
      </trkpt>
      <trkpt lat="41.5634920" lon="-0.9073530">
        <ele>391.3</ele>
        <time>2020-12-31T14:05:16Z</time>
      </trkpt>
      <trkpt lat="41.5634690" lon="-0.9073190">
        <ele>391.6</ele>
        <time>2020-12-31T14:05:17Z</time>
      </trkpt>
      <trkpt lat="41.5634590" lon="-0.9073090">
        <ele>391.4</ele>
        <time>2020-12-31T14:05:18Z</time>
      </trkpt>
      <trkpt lat="41.5634360" lon="-0.9072840">
        <ele>391.6</ele>
        <time>2020-12-31T14:05:20Z</time>
      </trkpt>
      <trkpt lat="41.5634100" lon="-0.9072690">
        <ele>391.6</ele>
        <time>2020-12-31T14:05:21Z</time>
      </trkpt>
      <trkpt lat="41.5633770" lon="-0.9072560">
        <ele>391.9</ele>
        <time>2020-12-31T14:05:22Z</time>
      </trkpt>
      <trkpt lat="41.5633650" lon="-0.9072510">
        <ele>391.9</ele>
        <time>2020-12-31T14:05:23Z</time>
      </trkpt>
      <trkpt lat="41.5633200" lon="-0.9072280">
        <ele>392.0</ele>
        <time>2020-12-31T14:05:25Z</time>
      </trkpt>
      <trkpt lat="41.5632840" lon="-0.9072090">
        <ele>392.5</ele>
        <time>2020-12-31T14:05:26Z</time>
      </trkpt>
      <trkpt lat="41.5632730" lon="-0.9072020">
        <ele>392.5</ele>
        <time>2020-12-31T14:05:27Z</time>
      </trkpt>
      <trkpt lat="41.5632400" lon="-0.9071760">
        <ele>392.6</ele>
        <time>2020-12-31T14:05:28Z</time>
      </trkpt>
      <trkpt lat="41.5632280" lon="-0.9071670">
        <ele>392.6</ele>
        <time>2020-12-31T14:05:29Z</time>
      </trkpt>
      <trkpt lat="41.5631830" lon="-0.9071460">
        <ele>393.1</ele>
        <time>2020-12-31T14:05:31Z</time>
      </trkpt>
      <trkpt lat="41.5631680" lon="-0.9071420">
        <ele>392.9</ele>
        <time>2020-12-31T14:05:32Z</time>
      </trkpt>
      <trkpt lat="41.5631530" lon="-0.9071370">
        <ele>393.2</ele>
        <time>2020-12-31T14:05:33Z</time>
      </trkpt>
      <trkpt lat="41.5631350" lon="-0.9071300">
        <ele>393.2</ele>
        <time>2020-12-31T14:05:34Z</time>
      </trkpt>
      <trkpt lat="41.5630980" lon="-0.9071100">
        <ele>393.5</ele>
        <time>2020-12-31T14:05:36Z</time>
      </trkpt>
      <trkpt lat="41.5630700" lon="-0.9070980">
        <ele>393.6</ele>
        <time>2020-12-31T14:05:37Z</time>
      </trkpt>
      <trkpt lat="41.5630220" lon="-0.9070740">
        <ele>394.3</ele>
        <time>2020-12-31T14:05:39Z</time>
      </trkpt>
      <trkpt lat="41.5629830" lon="-0.9070600">
        <ele>394.6</ele>
        <time>2020-12-31T14:05:40Z</time>
      </trkpt>
      <trkpt lat="41.5629400" lon="-0.9070230">
        <ele>394.7</ele>
        <time>2020-12-31T14:05:42Z</time>
      </trkpt>
      <trkpt lat="41.5629270" lon="-0.9070080">
        <ele>394.8</ele>
        <time>2020-12-31T14:05:43Z</time>
      </trkpt>
      <trkpt lat="41.5629130" lon="-0.9069930">
        <ele>394.8</ele>
        <time>2020-12-31T14:05:44Z</time>
      </trkpt>
      <trkpt lat="41.5628720" lon="-0.9069780">
        <ele>395.1</ele>
        <time>2020-12-31T14:05:46Z</time>
      </trkpt>
      <trkpt lat="41.5628500" lon="-0.9069850">
        <ele>395.4</ele>
        <time>2020-12-31T14:05:47Z</time>
      </trkpt>
      <trkpt lat="41.5628310" lon="-0.9069950">
        <ele>395.8</ele>
        <time>2020-12-31T14:05:49Z</time>
      </trkpt>
      <trkpt lat="41.5628150" lon="-0.9070090">
        <ele>395.8</ele>
        <time>2020-12-31T14:05:50Z</time>
      </trkpt>
      <trkpt lat="41.5628020" lon="-0.9070210">
        <ele>396.5</ele>
        <time>2020-12-31T14:05:51Z</time>
      </trkpt>
      <trkpt lat="41.5627910" lon="-0.9070340">
        <ele>396.5</ele>
        <time>2020-12-31T14:05:52Z</time>
      </trkpt>
      <trkpt lat="41.5627790" lon="-0.9070540">
        <ele>396.5</ele>
        <time>2020-12-31T14:05:53Z</time>
      </trkpt>
      <trkpt lat="41.5627690" lon="-0.9070890">
        <ele>397.1</ele>
        <time>2020-12-31T14:05:55Z</time>
      </trkpt>
      <trkpt lat="41.5627670" lon="-0.9071040">
        <ele>397.3</ele>
        <time>2020-12-31T14:05:56Z</time>
      </trkpt>
      <trkpt lat="41.5627680" lon="-0.9071430">
        <ele>397.4</ele>
        <time>2020-12-31T14:05:57Z</time>
      </trkpt>
      <trkpt lat="41.5627650" lon="-0.9071720">
        <ele>397.6</ele>
        <time>2020-12-31T14:05:58Z</time>
      </trkpt>
      <trkpt lat="41.5627460" lon="-0.9072110">
        <ele>397.8</ele>
        <time>2020-12-31T14:06:00Z</time>
      </trkpt>
      <trkpt lat="41.5627330" lon="-0.9072390">
        <ele>398.4</ele>
        <time>2020-12-31T14:06:01Z</time>
      </trkpt>
      <trkpt lat="41.5627170" lon="-0.9072810">
        <ele>398.7</ele>
        <time>2020-12-31T14:06:03Z</time>
      </trkpt>
      <trkpt lat="41.5627010" lon="-0.9073110">
        <ele>399.0</ele>
        <time>2020-12-31T14:06:04Z</time>
      </trkpt>
      <trkpt lat="41.5626910" lon="-0.9073290">
        <ele>399.2</ele>
        <time>2020-12-31T14:06:05Z</time>
      </trkpt>
      <trkpt lat="41.5626830" lon="-0.9073440">
        <ele>399.3</ele>
        <time>2020-12-31T14:06:06Z</time>
      </trkpt>
      <trkpt lat="41.5626660" lon="-0.9073720">
        <ele>399.8</ele>
        <time>2020-12-31T14:06:07Z</time>
      </trkpt>
      <trkpt lat="41.5626470" lon="-0.9074110">
        <ele>400.0</ele>
        <time>2020-12-31T14:06:09Z</time>
      </trkpt>
      <trkpt lat="41.5626410" lon="-0.9074240">
        <ele>400.3</ele>
        <time>2020-12-31T14:06:10Z</time>
      </trkpt>
      <trkpt lat="41.5626340" lon="-0.9074530">
        <ele>400.6</ele>
        <time>2020-12-31T14:06:11Z</time>
      </trkpt>
      <trkpt lat="41.5626290" lon="-0.9074700">
        <ele>400.6</ele>
        <time>2020-12-31T14:06:12Z</time>
      </trkpt>
      <trkpt lat="41.5626210" lon="-0.9075090">
        <ele>400.8</ele>
        <time>2020-12-31T14:06:14Z</time>
      </trkpt>
      <trkpt lat="41.5626170" lon="-0.9075210">
        <ele>400.8</ele>
        <time>2020-12-31T14:06:15Z</time>
      </trkpt>
      <trkpt lat="41.5626080" lon="-0.9075400">
        <ele>401.3</ele>
        <time>2020-12-31T14:06:16Z</time>
      </trkpt>
      <trkpt lat="41.5625930" lon="-0.9075640">
        <ele>401.3</ele>
        <time>2020-12-31T14:06:18Z</time>
      </trkpt>
      <trkpt lat="41.5625790" lon="-0.9075760">
        <ele>401.5</ele>
        <time>2020-12-31T14:06:19Z</time>
      </trkpt>
      <trkpt lat="41.5625690" lon="-0.9075880">
        <ele>401.8</ele>
        <time>2020-12-31T14:06:20Z</time>
      </trkpt>
      <trkpt lat="41.5625450" lon="-0.9076140">
        <ele>402.2</ele>
        <time>2020-12-31T14:06:21Z</time>
      </trkpt>
      <trkpt lat="41.5625360" lon="-0.9076230">
        <ele>402.3</ele>
        <time>2020-12-31T14:06:22Z</time>
      </trkpt>
      <trkpt lat="41.5625170" lon="-0.9076350">
        <ele>402.3</ele>
        <time>2020-12-31T14:06:24Z</time>
      </trkpt>
      <trkpt lat="41.5625070" lon="-0.9076460">
        <ele>402.7</ele>
        <time>2020-12-31T14:06:25Z</time>
      </trkpt>
      <trkpt lat="41.5624970" lon="-0.9076570">
        <ele>402.7</ele>
        <time>2020-12-31T14:06:26Z</time>
      </trkpt>
      <trkpt lat="41.5624850" lon="-0.9076810">
        <ele>402.8</ele>
        <time>2020-12-31T14:06:28Z</time>
      </trkpt>
      <trkpt lat="41.5624800" lon="-0.9077060">
        <ele>403.1</ele>
        <time>2020-12-31T14:06:29Z</time>
      </trkpt>
      <trkpt lat="41.5624780" lon="-0.9077280">
        <ele>403.1</ele>
        <time>2020-12-31T14:06:30Z</time>
      </trkpt>
      <trkpt lat="41.5624780" lon="-0.9077540">
        <ele>403.2</ele>
        <time>2020-12-31T14:06:31Z</time>
      </trkpt>
      <trkpt lat="41.5624850" lon="-0.9077800">
        <ele>403.0</ele>
        <time>2020-12-31T14:06:33Z</time>
      </trkpt>
      <trkpt lat="41.5624850" lon="-0.9078190">
        <ele>403.0</ele>
        <time>2020-12-31T14:06:35Z</time>
      </trkpt>
      <trkpt lat="41.5624840" lon="-0.9078300">
        <ele>403.0</ele>
        <time>2020-12-31T14:06:36Z</time>
      </trkpt>
      <trkpt lat="41.5624820" lon="-0.9078460">
        <ele>403.1</ele>
        <time>2020-12-31T14:06:37Z</time>
      </trkpt>
      <trkpt lat="41.5624760" lon="-0.9078680">
        <ele>403.4</ele>
        <time>2020-12-31T14:06:39Z</time>
      </trkpt>
      <trkpt lat="41.5624660" lon="-0.9078850">
        <ele>403.4</ele>
        <time>2020-12-31T14:06:40Z</time>
      </trkpt>
      <trkpt lat="41.5624520" lon="-0.9078960">
        <ele>403.4</ele>
        <time>2020-12-31T14:06:41Z</time>
      </trkpt>
      <trkpt lat="41.5624390" lon="-0.9078960">
        <ele>403.7</ele>
        <time>2020-12-31T14:06:42Z</time>
      </trkpt>
      <trkpt lat="41.5624120" lon="-0.9078900">
        <ele>403.9</ele>
        <time>2020-12-31T14:06:44Z</time>
      </trkpt>
      <trkpt lat="41.5623990" lon="-0.9078890">
        <ele>403.9</ele>
        <time>2020-12-31T14:06:45Z</time>
      </trkpt>
      <trkpt lat="41.5623630" lon="-0.9078900">
        <ele>404.1</ele>
        <time>2020-12-31T14:06:47Z</time>
      </trkpt>
      <trkpt lat="41.5623340" lon="-0.9078980">
        <ele>404.4</ele>
        <time>2020-12-31T14:06:48Z</time>
      </trkpt>
      <trkpt lat="41.5623250" lon="-0.9079020">
        <ele>404.4</ele>
        <time>2020-12-31T14:06:49Z</time>
      </trkpt>
      <trkpt lat="41.5622970" lon="-0.9079250">
        <ele>404.7</ele>
        <time>2020-12-31T14:06:51Z</time>
      </trkpt>
      <trkpt lat="41.5622900" lon="-0.9079300">
        <ele>404.7</ele>
        <time>2020-12-31T14:06:52Z</time>
      </trkpt>
      <trkpt lat="41.5622770" lon="-0.9079300">
        <ele>404.9</ele>
        <time>2020-12-31T14:06:53Z</time>
      </trkpt>
      <trkpt lat="41.5622620" lon="-0.9079300">
        <ele>404.9</ele>
        <time>2020-12-31T14:06:54Z</time>
      </trkpt>
      <trkpt lat="41.5622290" lon="-0.9079160">
        <ele>405.2</ele>
        <time>2020-12-31T14:06:56Z</time>
      </trkpt>
      <trkpt lat="41.5622180" lon="-0.9079130">
        <ele>405.5</ele>
        <time>2020-12-31T14:06:57Z</time>
      </trkpt>
      <trkpt lat="41.5621860" lon="-0.9079060">
        <ele>405.7</ele>
        <time>2020-12-31T14:06:59Z</time>
      </trkpt>
      <trkpt lat="41.5621670" lon="-0.9078960">
        <ele>405.7</ele>
        <time>2020-12-31T14:07:00Z</time>
      </trkpt>
      <trkpt lat="41.5621390" lon="-0.9078820">
        <ele>406.0</ele>
        <time>2020-12-31T14:07:02Z</time>
      </trkpt>
      <trkpt lat="41.5621130" lon="-0.9078710">
        <ele>406.3</ele>
        <time>2020-12-31T14:07:03Z</time>
      </trkpt>
      <trkpt lat="41.5621030" lon="-0.9078660">
        <ele>406.3</ele>
        <time>2020-12-31T14:07:04Z</time>
      </trkpt>
      <trkpt lat="41.5620840" lon="-0.9078540">
        <ele>406.6</ele>
        <time>2020-12-31T14:07:06Z</time>
      </trkpt>
      <trkpt lat="41.5620620" lon="-0.9078370">
        <ele>406.9</ele>
        <time>2020-12-31T14:07:08Z</time>
      </trkpt>
      <trkpt lat="41.5620530" lon="-0.9078310">
        <ele>406.8</ele>
        <time>2020-12-31T14:07:09Z</time>
      </trkpt>
      <trkpt lat="41.5620450" lon="-0.9078270">
        <ele>406.9</ele>
        <time>2020-12-31T14:07:10Z</time>
      </trkpt>
      <trkpt lat="41.5620380" lon="-0.9078210">
        <ele>406.9</ele>
        <time>2020-12-31T14:07:11Z</time>
      </trkpt>
      <trkpt lat="41.5620310" lon="-0.9078170">
        <ele>407.1</ele>
        <time>2020-12-31T14:07:12Z</time>
      </trkpt>
      <trkpt lat="41.5620140" lon="-0.9078060">
        <ele>407.2</ele>
        <time>2020-12-31T14:07:14Z</time>
      </trkpt>
      <trkpt lat="41.5620050" lon="-0.9078020">
        <ele>407.2</ele>
        <time>2020-12-31T14:07:15Z</time>
      </trkpt>
      <trkpt lat="41.5619970" lon="-0.9077970">
        <ele>407.4</ele>
        <time>2020-12-31T14:07:16Z</time>
      </trkpt>
      <trkpt lat="41.5619880" lon="-0.9077910">
        <ele>407.5</ele>
        <time>2020-12-31T14:07:17Z</time>
      </trkpt>
      <trkpt lat="41.5619790" lon="-0.9077840">
        <ele>407.4</ele>
        <time>2020-12-31T14:07:18Z</time>
      </trkpt>
      <trkpt lat="41.5619650" lon="-0.9077720">
        <ele>407.7</ele>
        <time>2020-12-31T14:07:20Z</time>
      </trkpt>
      <trkpt lat="41.5619490" lon="-0.9077650">
        <ele>407.7</ele>
        <time>2020-12-31T14:07:21Z</time>
      </trkpt>
      <trkpt lat="41.5619310" lon="-0.9077580">
        <ele>408.0</ele>
        <time>2020-12-31T14:07:22Z</time>
      </trkpt>
      <trkpt lat="41.5619030" lon="-0.9077510">
        <ele>408.3</ele>
        <time>2020-12-31T14:07:23Z</time>
      </trkpt>
      <trkpt lat="41.5618810" lon="-0.9077520">
        <ele>408.3</ele>
        <time>2020-12-31T14:07:24Z</time>
      </trkpt>
      <trkpt lat="41.5618580" lon="-0.9077600">
        <ele>408.6</ele>
        <time>2020-12-31T14:07:26Z</time>
      </trkpt>
      <trkpt lat="41.5618310" lon="-0.9077610">
        <ele>408.9</ele>
        <time>2020-12-31T14:07:28Z</time>
      </trkpt>
      <trkpt lat="41.5618240" lon="-0.9077570">
        <ele>408.9</ele>
        <time>2020-12-31T14:07:29Z</time>
      </trkpt>
      <trkpt lat="41.5618120" lon="-0.9077520">
        <ele>408.9</ele>
        <time>2020-12-31T14:07:31Z</time>
      </trkpt>
      <trkpt lat="41.5617960" lon="-0.9077550">
        <ele>409.1</ele>
        <time>2020-12-31T14:07:32Z</time>
      </trkpt>
      <trkpt lat="41.5617800" lon="-0.9077510">
        <ele>409.1</ele>
        <time>2020-12-31T14:07:33Z</time>
      </trkpt>
      <trkpt lat="41.5617600" lon="-0.9077480">
        <ele>409.3</ele>
        <time>2020-12-31T14:07:35Z</time>
      </trkpt>
      <trkpt lat="41.5617660" lon="-0.9077470">
        <ele>409.3</ele>
        <time>2020-12-31T14:07:36Z</time>
      </trkpt>
      <trkpt lat="41.5617780" lon="-0.9077510">
        <ele>409.1</ele>
        <time>2020-12-31T14:07:38Z</time>
      </trkpt>
      <trkpt lat="41.5617800" lon="-0.9077480">
        <ele>409.1</ele>
        <time>2020-12-31T14:07:40Z</time>
      </trkpt>
      <trkpt lat="41.5617800" lon="-0.9077470">
        <ele>409.2</ele>
        <time>2020-12-31T14:07:41Z</time>
      </trkpt>
      <trkpt lat="41.5617810" lon="-0.9077460">
        <ele>409.2</ele>
        <time>2020-12-31T14:07:43Z</time>
      </trkpt>
      <trkpt lat="41.5617780" lon="-0.9077440">
        <ele>409.1</ele>
        <time>2020-12-31T14:11:20Z</time>
      </trkpt>
      <trkpt lat="41.5617530" lon="-0.9077550">
        <ele>409.4</ele>
        <time>2020-12-31T14:11:21Z</time>
      </trkpt>
      <trkpt lat="41.5617200" lon="-0.9077780">
        <ele>409.6</ele>
        <time>2020-12-31T14:11:23Z</time>
      </trkpt>
      <trkpt lat="41.5616440" lon="-0.9078610">
        <ele>410.2</ele>
        <time>2020-12-31T14:11:24Z</time>
      </trkpt>
      <trkpt lat="41.5615850" lon="-0.9079910">
        <ele>410.6</ele>
        <time>2020-12-31T14:11:26Z</time>
      </trkpt>
      <trkpt lat="41.5615500" lon="-0.9081210">
        <ele>411.2</ele>
        <time>2020-12-31T14:11:28Z</time>
      </trkpt>
      <trkpt lat="41.5615190" lon="-0.9081990">
        <ele>411.2</ele>
        <time>2020-12-31T14:11:30Z</time>
      </trkpt>
      <trkpt lat="41.5614880" lon="-0.9082430">
        <ele>411.5</ele>
        <time>2020-12-31T14:11:31Z</time>
      </trkpt>
      <trkpt lat="41.5614730" lon="-0.9082900">
        <ele>411.7</ele>
        <time>2020-12-31T14:11:32Z</time>
      </trkpt>
      <trkpt lat="41.5614540" lon="-0.9083290">
        <ele>411.7</ele>
        <time>2020-12-31T14:11:33Z</time>
      </trkpt>
      <trkpt lat="41.5614280" lon="-0.9083520">
        <ele>411.9</ele>
        <time>2020-12-31T14:11:34Z</time>
      </trkpt>
      <trkpt lat="41.5613880" lon="-0.9083620">
        <ele>412.5</ele>
        <time>2020-12-31T14:11:36Z</time>
      </trkpt>
      <trkpt lat="41.5613520" lon="-0.9083620">
        <ele>412.8</ele>
        <time>2020-12-31T14:11:37Z</time>
      </trkpt>
      <trkpt lat="41.5612930" lon="-0.9083650">
        <ele>413.4</ele>
        <time>2020-12-31T14:11:39Z</time>
      </trkpt>
      <trkpt lat="41.5612490" lon="-0.9083690">
        <ele>413.7</ele>
        <time>2020-12-31T14:11:40Z</time>
      </trkpt>
      <trkpt lat="41.5612020" lon="-0.9083790">
        <ele>413.9</ele>
        <time>2020-12-31T14:11:41Z</time>
      </trkpt>
      <trkpt lat="41.5611500" lon="-0.9083980">
        <ele>414.6</ele>
        <time>2020-12-31T14:11:42Z</time>
      </trkpt>
      <trkpt lat="41.5611050" lon="-0.9084250">
        <ele>414.9</ele>
        <time>2020-12-31T14:11:44Z</time>
      </trkpt>
      <trkpt lat="41.5610650" lon="-0.9084530">
        <ele>415.5</ele>
        <time>2020-12-31T14:11:45Z</time>
      </trkpt>
      <trkpt lat="41.5610200" lon="-0.9084880">
        <ele>415.8</ele>
        <time>2020-12-31T14:11:46Z</time>
      </trkpt>
      <trkpt lat="41.5609680" lon="-0.9085290">
        <ele>416.2</ele>
        <time>2020-12-31T14:11:48Z</time>
      </trkpt>
      <trkpt lat="41.5609190" lon="-0.9085780">
        <ele>416.4</ele>
        <time>2020-12-31T14:11:49Z</time>
      </trkpt>
      <trkpt lat="41.5608840" lon="-0.9086220">
        <ele>416.6</ele>
        <time>2020-12-31T14:11:50Z</time>
      </trkpt>
      <trkpt lat="41.5608600" lon="-0.9086680">
        <ele>416.7</ele>
        <time>2020-12-31T14:11:52Z</time>
      </trkpt>
      <trkpt lat="41.5608420" lon="-0.9087250">
        <ele>416.8</ele>
        <time>2020-12-31T14:11:53Z</time>
      </trkpt>
      <trkpt lat="41.5608300" lon="-0.9087910">
        <ele>416.9</ele>
        <time>2020-12-31T14:11:54Z</time>
      </trkpt>
      <trkpt lat="41.5608250" lon="-0.9088380">
        <ele>416.9</ele>
        <time>2020-12-31T14:11:55Z</time>
      </trkpt>
      <trkpt lat="41.5608240" lon="-0.9089150">
        <ele>416.9</ele>
        <time>2020-12-31T14:11:57Z</time>
      </trkpt>
      <trkpt lat="41.5608260" lon="-0.9089700">
        <ele>416.9</ele>
        <time>2020-12-31T14:11:58Z</time>
      </trkpt>
      <trkpt lat="41.5608250" lon="-0.9090300">
        <ele>416.9</ele>
        <time>2020-12-31T14:11:59Z</time>
      </trkpt>
      <trkpt lat="41.5608220" lon="-0.9090940">
        <ele>416.9</ele>
        <time>2020-12-31T14:12:01Z</time>
      </trkpt>
      <trkpt lat="41.5608190" lon="-0.9091680">
        <ele>416.8</ele>
        <time>2020-12-31T14:12:03Z</time>
      </trkpt>
      <trkpt lat="41.5608180" lon="-0.9092160">
        <ele>416.8</ele>
        <time>2020-12-31T14:12:04Z</time>
      </trkpt>
      <trkpt lat="41.5608120" lon="-0.9092740">
        <ele>416.8</ele>
        <time>2020-12-31T14:12:05Z</time>
      </trkpt>
      <trkpt lat="41.5608050" lon="-0.9093200">
        <ele>416.9</ele>
        <time>2020-12-31T14:12:06Z</time>
      </trkpt>
      <trkpt lat="41.5607960" lon="-0.9093610">
        <ele>416.9</ele>
        <time>2020-12-31T14:12:07Z</time>
      </trkpt>
      <trkpt lat="41.5607670" lon="-0.9094110">
        <ele>416.9</ele>
        <time>2020-12-31T14:12:08Z</time>
      </trkpt>
      <trkpt lat="41.5606900" lon="-0.9094750">
        <ele>416.9</ele>
        <time>2020-12-31T14:12:10Z</time>
      </trkpt>
      <trkpt lat="41.5606320" lon="-0.9095040">
        <ele>416.9</ele>
        <time>2020-12-31T14:12:11Z</time>
      </trkpt>
      <trkpt lat="41.5605100" lon="-0.9095280">
        <ele>416.7</ele>
        <time>2020-12-31T14:12:13Z</time>
      </trkpt>
      <trkpt lat="41.5603900" lon="-0.9094610">
        <ele>416.8</ele>
        <time>2020-12-31T14:12:15Z</time>
      </trkpt>
      <trkpt lat="41.5603200" lon="-0.9094060">
        <ele>416.8</ele>
        <time>2020-12-31T14:12:16Z</time>
      </trkpt>
      <trkpt lat="41.5601440" lon="-0.9093470">
        <ele>416.5</ele>
        <time>2020-12-31T14:12:18Z</time>
      </trkpt>
      <trkpt lat="41.5599850" lon="-0.9092890">
        <ele>415.2</ele>
        <time>2020-12-31T14:12:20Z</time>
      </trkpt>
      <trkpt lat="41.5598510" lon="-0.9092080">
        <ele>413.3</ele>
        <time>2020-12-31T14:12:22Z</time>
      </trkpt>
      <trkpt lat="41.5597870" lon="-0.9092370">
        <ele>412.3</ele>
        <time>2020-12-31T14:12:23Z</time>
      </trkpt>
      <trkpt lat="41.5597190" lon="-0.9092980">
        <ele>410.4</ele>
        <time>2020-12-31T14:12:24Z</time>
      </trkpt>
      <trkpt lat="41.5595690" lon="-0.9094390">
        <ele>407.9</ele>
        <time>2020-12-31T14:12:26Z</time>
      </trkpt>
      <trkpt lat="41.5594390" lon="-0.9095480">
        <ele>406.0</ele>
        <time>2020-12-31T14:12:28Z</time>
      </trkpt>
      <trkpt lat="41.5593630" lon="-0.9095600">
        <ele>405.2</ele>
        <time>2020-12-31T14:12:30Z</time>
      </trkpt>
      <trkpt lat="41.5593660" lon="-0.9096050">
        <ele>405.2</ele>
        <time>2020-12-31T14:12:31Z</time>
      </trkpt>
      <trkpt lat="41.5593680" lon="-0.9096240">
        <ele>405.4</ele>
        <time>2020-12-31T14:12:32Z</time>
      </trkpt>
      <trkpt lat="41.5593970" lon="-0.9097010">
        <ele>405.6</ele>
        <time>2020-12-31T14:12:34Z</time>
      </trkpt>
      <trkpt lat="41.5594140" lon="-0.9097670">
        <ele>405.7</ele>
        <time>2020-12-31T14:12:35Z</time>
      </trkpt>
      <trkpt lat="41.5593780" lon="-0.9097900">
        <ele>405.8</ele>
        <time>2020-12-31T14:12:36Z</time>
      </trkpt>
      <trkpt lat="41.5593850" lon="-0.9098420">
        <ele>405.8</ele>
        <time>2020-12-31T14:12:37Z</time>
      </trkpt>
      <trkpt lat="41.5594280" lon="-0.9099210">
        <ele>406.0</ele>
        <time>2020-12-31T14:12:39Z</time>
      </trkpt>
      <trkpt lat="41.5594820" lon="-0.9100120">
        <ele>406.2</ele>
        <time>2020-12-31T14:12:41Z</time>
      </trkpt>
      <trkpt lat="41.5595050" lon="-0.9100560">
        <ele>406.3</ele>
        <time>2020-12-31T14:12:42Z</time>
      </trkpt>
      <trkpt lat="41.5595250" lon="-0.9100990">
        <ele>406.4</ele>
        <time>2020-12-31T14:12:43Z</time>
      </trkpt>
      <trkpt lat="41.5595520" lon="-0.9101580">
        <ele>406.5</ele>
        <time>2020-12-31T14:12:44Z</time>
      </trkpt>
      <trkpt lat="41.5595720" lon="-0.9102060">
        <ele>406.6</ele>
        <time>2020-12-31T14:12:46Z</time>
      </trkpt>
      <trkpt lat="41.5596100" lon="-0.9102920">
        <ele>406.8</ele>
        <time>2020-12-31T14:12:48Z</time>
      </trkpt>
      <trkpt lat="41.5596280" lon="-0.9103330">
        <ele>406.8</ele>
        <time>2020-12-31T14:12:49Z</time>
      </trkpt>
      <trkpt lat="41.5596530" lon="-0.9103910">
        <ele>407.0</ele>
        <time>2020-12-31T14:12:50Z</time>
      </trkpt>
      <trkpt lat="41.5596690" lon="-0.9104350">
        <ele>407.0</ele>
        <time>2020-12-31T14:12:51Z</time>
      </trkpt>
      <trkpt lat="41.5596930" lon="-0.9104920">
        <ele>407.1</ele>
        <time>2020-12-31T14:12:52Z</time>
      </trkpt>
      <trkpt lat="41.5597170" lon="-0.9105440">
        <ele>407.2</ele>
        <time>2020-12-31T14:12:54Z</time>
      </trkpt>
      <trkpt lat="41.5597440" lon="-0.9106010">
        <ele>407.3</ele>
        <time>2020-12-31T14:12:55Z</time>
      </trkpt>
      <trkpt lat="41.5597670" lon="-0.9106590">
        <ele>407.4</ele>
        <time>2020-12-31T14:12:56Z</time>
      </trkpt>
      <trkpt lat="41.5597900" lon="-0.9107160">
        <ele>407.5</ele>
        <time>2020-12-31T14:12:57Z</time>
      </trkpt>
      <trkpt lat="41.5598180" lon="-0.9107940">
        <ele>407.7</ele>
        <time>2020-12-31T14:12:58Z</time>
      </trkpt>
      <trkpt lat="41.5598470" lon="-0.9108670">
        <ele>407.9</ele>
        <time>2020-12-31T14:13:00Z</time>
      </trkpt>
      <trkpt lat="41.5598710" lon="-0.9109310">
        <ele>408.1</ele>
        <time>2020-12-31T14:13:01Z</time>
      </trkpt>
      <trkpt lat="41.5598910" lon="-0.9109810">
        <ele>408.3</ele>
        <time>2020-12-31T14:13:02Z</time>
      </trkpt>
      <trkpt lat="41.5599120" lon="-0.9110330">
        <ele>408.5</ele>
        <time>2020-12-31T14:13:03Z</time>
      </trkpt>
      <trkpt lat="41.5599330" lon="-0.9110870">
        <ele>408.7</ele>
        <time>2020-12-31T14:13:05Z</time>
      </trkpt>
      <trkpt lat="41.5599530" lon="-0.9111360">
        <ele>408.8</ele>
        <time>2020-12-31T14:13:06Z</time>
      </trkpt>
      <trkpt lat="41.5599780" lon="-0.9111970">
        <ele>409.0</ele>
        <time>2020-12-31T14:13:07Z</time>
      </trkpt>
      <trkpt lat="41.5600090" lon="-0.9112390">
        <ele>409.2</ele>
        <time>2020-12-31T14:13:09Z</time>
      </trkpt>
      <trkpt lat="41.5600260" lon="-0.9112910">
        <ele>409.4</ele>
        <time>2020-12-31T14:13:10Z</time>
      </trkpt>
      <trkpt lat="41.5600470" lon="-0.9113660">
        <ele>409.6</ele>
        <time>2020-12-31T14:13:11Z</time>
      </trkpt>
      <trkpt lat="41.5600630" lon="-0.9114390">
        <ele>409.8</ele>
        <time>2020-12-31T14:13:13Z</time>
      </trkpt>
      <trkpt lat="41.5600690" lon="-0.9115010">
        <ele>409.9</ele>
        <time>2020-12-31T14:13:14Z</time>
      </trkpt>
      <trkpt lat="41.5600750" lon="-0.9115740">
        <ele>410.1</ele>
        <time>2020-12-31T14:13:15Z</time>
      </trkpt>
      <trkpt lat="41.5600790" lon="-0.9116490">
        <ele>410.1</ele>
        <time>2020-12-31T14:13:16Z</time>
      </trkpt>
      <trkpt lat="41.5600810" lon="-0.9117030">
        <ele>410.2</ele>
        <time>2020-12-31T14:13:18Z</time>
      </trkpt>
      <trkpt lat="41.5600840" lon="-0.9117680">
        <ele>410.2</ele>
        <time>2020-12-31T14:13:19Z</time>
      </trkpt>
      <trkpt lat="41.5600870" lon="-0.9118250">
        <ele>410.3</ele>
        <time>2020-12-31T14:13:20Z</time>
      </trkpt>
      <trkpt lat="41.5600970" lon="-0.9119460">
        <ele>410.3</ele>
        <time>2020-12-31T14:13:22Z</time>
      </trkpt>
      <trkpt lat="41.5601030" lon="-0.9120770">
        <ele>410.4</ele>
        <time>2020-12-31T14:13:24Z</time>
      </trkpt>
      <trkpt lat="41.5601030" lon="-0.9122160">
        <ele>410.5</ele>
        <time>2020-12-31T14:13:26Z</time>
      </trkpt>
      <trkpt lat="41.5600910" lon="-0.9123650">
        <ele>410.6</ele>
        <time>2020-12-31T14:13:28Z</time>
      </trkpt>
      <trkpt lat="41.5600750" lon="-0.9125030">
        <ele>410.7</ele>
        <time>2020-12-31T14:13:30Z</time>
      </trkpt>
      <trkpt lat="41.5600810" lon="-0.9126010">
        <ele>410.5</ele>
        <time>2020-12-31T14:13:32Z</time>
      </trkpt>
      <trkpt lat="41.5601240" lon="-0.9126380">
        <ele>410.7</ele>
        <time>2020-12-31T14:13:33Z</time>
      </trkpt>
      <trkpt lat="41.5601670" lon="-0.9127250">
        <ele>410.8</ele>
        <time>2020-12-31T14:13:35Z</time>
      </trkpt>
      <trkpt lat="41.5601990" lon="-0.9128110">
        <ele>410.7</ele>
        <time>2020-12-31T14:13:36Z</time>
      </trkpt>
      <trkpt lat="41.5602520" lon="-0.9129140">
        <ele>410.8</ele>
        <time>2020-12-31T14:13:38Z</time>
      </trkpt>
      <trkpt lat="41.5602840" lon="-0.9129740">
        <ele>410.8</ele>
        <time>2020-12-31T14:13:39Z</time>
      </trkpt>
      <trkpt lat="41.5603190" lon="-0.9130420">
        <ele>410.5</ele>
        <time>2020-12-31T14:13:40Z</time>
      </trkpt>
      <trkpt lat="41.5604000" lon="-0.9131690">
        <ele>409.5</ele>
        <time>2020-12-31T14:13:42Z</time>
      </trkpt>
      <trkpt lat="41.5604780" lon="-0.9133040">
        <ele>408.0</ele>
        <time>2020-12-31T14:13:44Z</time>
      </trkpt>
      <trkpt lat="41.5605170" lon="-0.9133770">
        <ele>406.9</ele>
        <time>2020-12-31T14:13:45Z</time>
      </trkpt>
      <trkpt lat="41.5606110" lon="-0.9135010">
        <ele>405.1</ele>
        <time>2020-12-31T14:13:47Z</time>
      </trkpt>
      <trkpt lat="41.5607120" lon="-0.9136290">
        <ele>403.6</ele>
        <time>2020-12-31T14:13:49Z</time>
      </trkpt>
      <trkpt lat="41.5608280" lon="-0.9137380">
        <ele>402.6</ele>
        <time>2020-12-31T14:13:51Z</time>
      </trkpt>
      <trkpt lat="41.5609110" lon="-0.9138840">
        <ele>401.6</ele>
        <time>2020-12-31T14:13:53Z</time>
      </trkpt>
      <trkpt lat="41.5609520" lon="-0.9139490">
        <ele>401.6</ele>
        <time>2020-12-31T14:13:54Z</time>
      </trkpt>
      <trkpt lat="41.5609900" lon="-0.9140100">
        <ele>401.6</ele>
        <time>2020-12-31T14:13:55Z</time>
      </trkpt>
      <trkpt lat="41.5610490" lon="-0.9140560">
        <ele>401.4</ele>
        <time>2020-12-31T14:13:56Z</time>
      </trkpt>
      <trkpt lat="41.5611840" lon="-0.9141200">
        <ele>400.9</ele>
        <time>2020-12-31T14:13:58Z</time>
      </trkpt>
      <trkpt lat="41.5613270" lon="-0.9141870">
        <ele>400.4</ele>
        <time>2020-12-31T14:14:00Z</time>
      </trkpt>
      <trkpt lat="41.5614750" lon="-0.9142470">
        <ele>400.0</ele>
        <time>2020-12-31T14:14:02Z</time>
      </trkpt>
      <trkpt lat="41.5616160" lon="-0.9142990">
        <ele>399.6</ele>
        <time>2020-12-31T14:14:04Z</time>
      </trkpt>
      <trkpt lat="41.5617520" lon="-0.9143480">
        <ele>399.2</ele>
        <time>2020-12-31T14:14:06Z</time>
      </trkpt>
      <trkpt lat="41.5618240" lon="-0.9143690">
        <ele>399.0</ele>
        <time>2020-12-31T14:14:07Z</time>
      </trkpt>
      <trkpt lat="41.5618920" lon="-0.9143950">
        <ele>398.7</ele>
        <time>2020-12-31T14:14:08Z</time>
      </trkpt>
      <trkpt lat="41.5620280" lon="-0.9144180">
        <ele>398.2</ele>
        <time>2020-12-31T14:14:10Z</time>
      </trkpt>
      <trkpt lat="41.5621620" lon="-0.9144180">
        <ele>397.7</ele>
        <time>2020-12-31T14:14:12Z</time>
      </trkpt>
      <trkpt lat="41.5622960" lon="-0.9143830">
        <ele>397.2</ele>
        <time>2020-12-31T14:14:14Z</time>
      </trkpt>
      <trkpt lat="41.5624270" lon="-0.9143290">
        <ele>396.7</ele>
        <time>2020-12-31T14:14:16Z</time>
      </trkpt>
      <trkpt lat="41.5624950" lon="-0.9143130">
        <ele>396.5</ele>
        <time>2020-12-31T14:14:17Z</time>
      </trkpt>
      <trkpt lat="41.5625630" lon="-0.9143040">
        <ele>396.3</ele>
        <time>2020-12-31T14:14:18Z</time>
      </trkpt>
      <trkpt lat="41.5627010" lon="-0.9142990">
        <ele>395.9</ele>
        <time>2020-12-31T14:14:20Z</time>
      </trkpt>
      <trkpt lat="41.5627690" lon="-0.9143100">
        <ele>395.8</ele>
        <time>2020-12-31T14:14:21Z</time>
      </trkpt>
      <trkpt lat="41.5628390" lon="-0.9143260">
        <ele>395.6</ele>
        <time>2020-12-31T14:14:22Z</time>
      </trkpt>
      <trkpt lat="41.5629700" lon="-0.9143810">
        <ele>395.3</ele>
        <time>2020-12-31T14:14:24Z</time>
      </trkpt>
      <trkpt lat="41.5630990" lon="-0.9144170">
        <ele>395.0</ele>
        <time>2020-12-31T14:14:26Z</time>
      </trkpt>
      <trkpt lat="41.5631690" lon="-0.9144180">
        <ele>394.9</ele>
        <time>2020-12-31T14:14:27Z</time>
      </trkpt>
      <trkpt lat="41.5633080" lon="-0.9143830">
        <ele>394.6</ele>
        <time>2020-12-31T14:14:29Z</time>
      </trkpt>
      <trkpt lat="41.5634410" lon="-0.9143660">
        <ele>394.4</ele>
        <time>2020-12-31T14:14:31Z</time>
      </trkpt>
      <trkpt lat="41.5635080" lon="-0.9143660">
        <ele>394.4</ele>
        <time>2020-12-31T14:14:32Z</time>
      </trkpt>
      <trkpt lat="41.5635790" lon="-0.9143730">
        <ele>394.3</ele>
        <time>2020-12-31T14:14:33Z</time>
      </trkpt>
      <trkpt lat="41.5637070" lon="-0.9144120">
        <ele>394.1</ele>
        <time>2020-12-31T14:14:35Z</time>
      </trkpt>
      <trkpt lat="41.5638270" lon="-0.9144860">
        <ele>394.0</ele>
        <time>2020-12-31T14:14:37Z</time>
      </trkpt>
      <trkpt lat="41.5639330" lon="-0.9145950">
        <ele>393.9</ele>
        <time>2020-12-31T14:14:39Z</time>
      </trkpt>
      <trkpt lat="41.5640280" lon="-0.9147130">
        <ele>393.7</ele>
        <time>2020-12-31T14:14:41Z</time>
      </trkpt>
      <trkpt lat="41.5640720" lon="-0.9147730">
        <ele>393.6</ele>
        <time>2020-12-31T14:14:42Z</time>
      </trkpt>
      <trkpt lat="41.5641190" lon="-0.9148320">
        <ele>393.5</ele>
        <time>2020-12-31T14:14:43Z</time>
      </trkpt>
      <trkpt lat="41.5641700" lon="-0.9148870">
        <ele>393.4</ele>
        <time>2020-12-31T14:14:44Z</time>
      </trkpt>
      <trkpt lat="41.5642760" lon="-0.9149930">
        <ele>393.2</ele>
        <time>2020-12-31T14:14:46Z</time>
      </trkpt>
      <trkpt lat="41.5643320" lon="-0.9150410">
        <ele>393.1</ele>
        <time>2020-12-31T14:14:47Z</time>
      </trkpt>
      <trkpt lat="41.5644500" lon="-0.9151280">
        <ele>392.9</ele>
        <time>2020-12-31T14:14:49Z</time>
      </trkpt>
      <trkpt lat="41.5645060" lon="-0.9151690">
        <ele>392.8</ele>
        <time>2020-12-31T14:14:50Z</time>
      </trkpt>
      <trkpt lat="41.5645610" lon="-0.9152080">
        <ele>392.6</ele>
        <time>2020-12-31T14:14:51Z</time>
      </trkpt>
      <trkpt lat="41.5646210" lon="-0.9152420">
        <ele>392.5</ele>
        <time>2020-12-31T14:14:52Z</time>
      </trkpt>
      <trkpt lat="41.5647450" lon="-0.9152990">
        <ele>392.2</ele>
        <time>2020-12-31T14:14:54Z</time>
      </trkpt>
      <trkpt lat="41.5648120" lon="-0.9153240">
        <ele>391.9</ele>
        <time>2020-12-31T14:14:55Z</time>
      </trkpt>
      <trkpt lat="41.5649400" lon="-0.9153660">
        <ele>391.5</ele>
        <time>2020-12-31T14:14:57Z</time>
      </trkpt>
      <trkpt lat="41.5650730" lon="-0.9153690">
        <ele>391.1</ele>
        <time>2020-12-31T14:14:59Z</time>
      </trkpt>
      <trkpt lat="41.5651410" lon="-0.9153670">
        <ele>390.9</ele>
        <time>2020-12-31T14:15:00Z</time>
      </trkpt>
      <trkpt lat="41.5652080" lon="-0.9153650">
        <ele>390.8</ele>
        <time>2020-12-31T14:15:01Z</time>
      </trkpt>
      <trkpt lat="41.5653380" lon="-0.9153450">
        <ele>390.3</ele>
        <time>2020-12-31T14:15:03Z</time>
      </trkpt>
      <trkpt lat="41.5654500" lon="-0.9152650">
        <ele>389.9</ele>
        <time>2020-12-31T14:15:05Z</time>
      </trkpt>
      <trkpt lat="41.5654950" lon="-0.9152070">
        <ele>389.6</ele>
        <time>2020-12-31T14:15:06Z</time>
      </trkpt>
      <trkpt lat="41.5655780" lon="-0.9150810">
        <ele>389.3</ele>
        <time>2020-12-31T14:15:08Z</time>
      </trkpt>
      <trkpt lat="41.5656230" lon="-0.9150180">
        <ele>389.1</ele>
        <time>2020-12-31T14:15:09Z</time>
      </trkpt>
      <trkpt lat="41.5656770" lon="-0.9149730">
        <ele>389.0</ele>
        <time>2020-12-31T14:15:10Z</time>
      </trkpt>
      <trkpt lat="41.5657990" lon="-0.9149360">
        <ele>388.8</ele>
        <time>2020-12-31T14:15:12Z</time>
      </trkpt>
      <trkpt lat="41.5659190" lon="-0.9149530">
        <ele>388.7</ele>
        <time>2020-12-31T14:15:14Z</time>
      </trkpt>
      <trkpt lat="41.5659750" lon="-0.9149480">
        <ele>388.6</ele>
        <time>2020-12-31T14:15:15Z</time>
      </trkpt>
      <trkpt lat="41.5660810" lon="-0.9149050">
        <ele>388.5</ele>
        <time>2020-12-31T14:15:17Z</time>
      </trkpt>
      <trkpt lat="41.5661290" lon="-0.9148630">
        <ele>388.4</ele>
        <time>2020-12-31T14:15:18Z</time>
      </trkpt>
      <trkpt lat="41.5662160" lon="-0.9147640">
        <ele>388.2</ele>
        <time>2020-12-31T14:15:20Z</time>
      </trkpt>
      <trkpt lat="41.5662980" lon="-0.9146340">
        <ele>387.7</ele>
        <time>2020-12-31T14:15:22Z</time>
      </trkpt>
      <trkpt lat="41.5663410" lon="-0.9145640">
        <ele>387.4</ele>
        <time>2020-12-31T14:15:23Z</time>
      </trkpt>
      <trkpt lat="41.5663860" lon="-0.9144930">
        <ele>387.1</ele>
        <time>2020-12-31T14:15:24Z</time>
      </trkpt>
      <trkpt lat="41.5664320" lon="-0.9144230">
        <ele>386.7</ele>
        <time>2020-12-31T14:15:25Z</time>
      </trkpt>
      <trkpt lat="41.5665260" lon="-0.9142790">
        <ele>386.1</ele>
        <time>2020-12-31T14:15:27Z</time>
      </trkpt>
      <trkpt lat="41.5665750" lon="-0.9142080">
        <ele>385.8</ele>
        <time>2020-12-31T14:15:28Z</time>
      </trkpt>
      <trkpt lat="41.5666820" lon="-0.9140600">
        <ele>385.1</ele>
        <time>2020-12-31T14:15:30Z</time>
      </trkpt>
      <trkpt lat="41.5667480" lon="-0.9139910">
        <ele>384.7</ele>
        <time>2020-12-31T14:15:31Z</time>
      </trkpt>
      <trkpt lat="41.5668690" lon="-0.9138380">
        <ele>384.1</ele>
        <time>2020-12-31T14:15:33Z</time>
      </trkpt>
      <trkpt lat="41.5669360" lon="-0.9137780">
        <ele>383.9</ele>
        <time>2020-12-31T14:15:34Z</time>
      </trkpt>
      <trkpt lat="41.5670880" lon="-0.9137330">
        <ele>383.4</ele>
        <time>2020-12-31T14:15:36Z</time>
      </trkpt>
      <trkpt lat="41.5671640" lon="-0.9137390">
        <ele>383.3</ele>
        <time>2020-12-31T14:15:37Z</time>
      </trkpt>
      <trkpt lat="41.5673190" lon="-0.9137470">
        <ele>382.9</ele>
        <time>2020-12-31T14:15:39Z</time>
      </trkpt>
      <trkpt lat="41.5674000" lon="-0.9137440">
        <ele>382.7</ele>
        <time>2020-12-31T14:15:40Z</time>
      </trkpt>
      <trkpt lat="41.5674810" lon="-0.9137470">
        <ele>382.4</ele>
        <time>2020-12-31T14:15:41Z</time>
      </trkpt>
      <trkpt lat="41.5676370" lon="-0.9137700">
        <ele>381.8</ele>
        <time>2020-12-31T14:15:43Z</time>
      </trkpt>
      <trkpt lat="41.5678050" lon="-0.9137910">
        <ele>381.1</ele>
        <time>2020-12-31T14:15:45Z</time>
      </trkpt>
      <trkpt lat="41.5678870" lon="-0.9138050">
        <ele>380.8</ele>
        <time>2020-12-31T14:15:46Z</time>
      </trkpt>
      <trkpt lat="41.5679680" lon="-0.9138210">
        <ele>380.4</ele>
        <time>2020-12-31T14:15:47Z</time>
      </trkpt>
      <trkpt lat="41.5681360" lon="-0.9138440">
        <ele>379.7</ele>
        <time>2020-12-31T14:15:49Z</time>
      </trkpt>
      <trkpt lat="41.5683130" lon="-0.9138650">
        <ele>379.0</ele>
        <time>2020-12-31T14:15:51Z</time>
      </trkpt>
      <trkpt lat="41.5683990" lon="-0.9138750">
        <ele>378.6</ele>
        <time>2020-12-31T14:15:52Z</time>
      </trkpt>
      <trkpt lat="41.5685690" lon="-0.9139050">
        <ele>378.0</ele>
        <time>2020-12-31T14:15:54Z</time>
      </trkpt>
      <trkpt lat="41.5686550" lon="-0.9139250">
        <ele>377.6</ele>
        <time>2020-12-31T14:15:55Z</time>
      </trkpt>
      <trkpt lat="41.5688250" lon="-0.9139690">
        <ele>376.9</ele>
        <time>2020-12-31T14:15:57Z</time>
      </trkpt>
      <trkpt lat="41.5689920" lon="-0.9140370">
        <ele>376.0</ele>
        <time>2020-12-31T14:15:59Z</time>
      </trkpt>
      <trkpt lat="41.5690670" lon="-0.9140680">
        <ele>375.7</ele>
        <time>2020-12-31T14:16:00Z</time>
      </trkpt>
      <trkpt lat="41.5691360" lon="-0.9140970">
        <ele>375.4</ele>
        <time>2020-12-31T14:16:01Z</time>
      </trkpt>
      <trkpt lat="41.5692830" lon="-0.9141510">
        <ele>374.7</ele>
        <time>2020-12-31T14:16:03Z</time>
      </trkpt>
      <trkpt lat="41.5694290" lon="-0.9142010">
        <ele>374.0</ele>
        <time>2020-12-31T14:16:05Z</time>
      </trkpt>
      <trkpt lat="41.5695070" lon="-0.9142300">
        <ele>373.7</ele>
        <time>2020-12-31T14:16:06Z</time>
      </trkpt>
      <trkpt lat="41.5695830" lon="-0.9142610">
        <ele>373.4</ele>
        <time>2020-12-31T14:16:07Z</time>
      </trkpt>
      <trkpt lat="41.5697360" lon="-0.9143150">
        <ele>372.8</ele>
        <time>2020-12-31T14:16:09Z</time>
      </trkpt>
      <trkpt lat="41.5698150" lon="-0.9143360">
        <ele>372.5</ele>
        <time>2020-12-31T14:16:10Z</time>
      </trkpt>
      <trkpt lat="41.5699700" lon="-0.9143850">
        <ele>372.0</ele>
        <time>2020-12-31T14:16:12Z</time>
      </trkpt>
      <trkpt lat="41.5700480" lon="-0.9144100">
        <ele>371.7</ele>
        <time>2020-12-31T14:16:13Z</time>
      </trkpt>
      <trkpt lat="41.5701270" lon="-0.9144380">
        <ele>371.4</ele>
        <time>2020-12-31T14:16:14Z</time>
      </trkpt>
      <trkpt lat="41.5702830" lon="-0.9144930">
        <ele>370.9</ele>
        <time>2020-12-31T14:16:16Z</time>
      </trkpt>
      <trkpt lat="41.5704360" lon="-0.9145460">
        <ele>370.5</ele>
        <time>2020-12-31T14:16:18Z</time>
      </trkpt>
      <trkpt lat="41.5705890" lon="-0.9146000">
        <ele>370.2</ele>
        <time>2020-12-31T14:16:20Z</time>
      </trkpt>
      <trkpt lat="41.5707380" lon="-0.9146490">
        <ele>369.9</ele>
        <time>2020-12-31T14:16:22Z</time>
      </trkpt>
      <trkpt lat="41.5708100" lon="-0.9146740">
        <ele>369.8</ele>
        <time>2020-12-31T14:16:23Z</time>
      </trkpt>
      <trkpt lat="41.5709480" lon="-0.9147390">
        <ele>369.7</ele>
        <time>2020-12-31T14:16:25Z</time>
      </trkpt>
      <trkpt lat="41.5710170" lon="-0.9147770">
        <ele>369.7</ele>
        <time>2020-12-31T14:16:26Z</time>
      </trkpt>
      <trkpt lat="41.5710840" lon="-0.9148220">
        <ele>369.7</ele>
        <time>2020-12-31T14:16:27Z</time>
      </trkpt>
      <trkpt lat="41.5711510" lon="-0.9148750">
        <ele>369.7</ele>
        <time>2020-12-31T14:16:28Z</time>
      </trkpt>
      <trkpt lat="41.5712690" lon="-0.9150030">
        <ele>369.8</ele>
        <time>2020-12-31T14:16:30Z</time>
      </trkpt>
      <trkpt lat="41.5713690" lon="-0.9151450">
        <ele>369.7</ele>
        <time>2020-12-31T14:16:32Z</time>
      </trkpt>
      <trkpt lat="41.5714240" lon="-0.9152020">
        <ele>369.7</ele>
        <time>2020-12-31T14:16:33Z</time>
      </trkpt>
      <trkpt lat="41.5714900" lon="-0.9152380">
        <ele>369.7</ele>
        <time>2020-12-31T14:16:34Z</time>
      </trkpt>
      <trkpt lat="41.5715590" lon="-0.9152630">
        <ele>369.7</ele>
        <time>2020-12-31T14:16:35Z</time>
      </trkpt>
      <trkpt lat="41.5716850" lon="-0.9153180">
        <ele>369.7</ele>
        <time>2020-12-31T14:16:37Z</time>
      </trkpt>
      <trkpt lat="41.5718010" lon="-0.9153720">
        <ele>369.8</ele>
        <time>2020-12-31T14:16:39Z</time>
      </trkpt>
      <trkpt lat="41.5718510" lon="-0.9153900">
        <ele>369.8</ele>
        <time>2020-12-31T14:16:40Z</time>
      </trkpt>
      <trkpt lat="41.5719150" lon="-0.9154140">
        <ele>369.8</ele>
        <time>2020-12-31T14:16:42Z</time>
      </trkpt>
      <trkpt lat="41.5719330" lon="-0.9154410">
        <ele>369.9</ele>
        <time>2020-12-31T14:16:43Z</time>
      </trkpt>
      <trkpt lat="41.5719290" lon="-0.9155120">
        <ele>370.2</ele>
        <time>2020-12-31T14:16:45Z</time>
      </trkpt>
      <trkpt lat="41.5719070" lon="-0.9155750">
        <ele>370.4</ele>
        <time>2020-12-31T14:16:47Z</time>
      </trkpt>
      <trkpt lat="41.5718880" lon="-0.9156440">
        <ele>370.6</ele>
        <time>2020-12-31T14:16:48Z</time>
      </trkpt>
      <trkpt lat="41.5718600" lon="-0.9156930">
        <ele>370.7</ele>
        <time>2020-12-31T14:16:49Z</time>
      </trkpt>
      <trkpt lat="41.5718370" lon="-0.9157430">
        <ele>370.9</ele>
        <time>2020-12-31T14:16:50Z</time>
      </trkpt>
      <trkpt lat="41.5718100" lon="-0.9157830">
        <ele>371.0</ele>
        <time>2020-12-31T14:16:52Z</time>
      </trkpt>
      <trkpt lat="41.5717710" lon="-0.9158390">
        <ele>371.2</ele>
        <time>2020-12-31T14:16:53Z</time>
      </trkpt>
      <trkpt lat="41.5717360" lon="-0.9158940">
        <ele>371.3</ele>
        <time>2020-12-31T14:16:55Z</time>
      </trkpt>
      <trkpt lat="41.5717110" lon="-0.9159510">
        <ele>371.4</ele>
        <time>2020-12-31T14:16:56Z</time>
      </trkpt>
      <trkpt lat="41.5716830" lon="-0.9160310">
        <ele>371.5</ele>
        <time>2020-12-31T14:16:58Z</time>
      </trkpt>
      <trkpt lat="41.5716680" lon="-0.9160890">
        <ele>371.6</ele>
        <time>2020-12-31T14:16:59Z</time>
      </trkpt>
      <trkpt lat="41.5716480" lon="-0.9161560">
        <ele>371.7</ele>
        <time>2020-12-31T14:17:00Z</time>
      </trkpt>
      <trkpt lat="41.5716300" lon="-0.9162060">
        <ele>371.8</ele>
        <time>2020-12-31T14:17:01Z</time>
      </trkpt>
      <trkpt lat="41.5716120" lon="-0.9162480">
        <ele>371.9</ele>
        <time>2020-12-31T14:17:02Z</time>
      </trkpt>
      <trkpt lat="41.5715760" lon="-0.9163170">
        <ele>372.0</ele>
        <time>2020-12-31T14:17:04Z</time>
      </trkpt>
      <trkpt lat="41.5715490" lon="-0.9163640">
        <ele>372.1</ele>
        <time>2020-12-31T14:17:05Z</time>
      </trkpt>
      <trkpt lat="41.5715150" lon="-0.9163990">
        <ele>372.3</ele>
        <time>2020-12-31T14:17:06Z</time>
      </trkpt>
      <trkpt lat="41.5714670" lon="-0.9164440">
        <ele>372.4</ele>
        <time>2020-12-31T14:17:08Z</time>
      </trkpt>
      <trkpt lat="41.5714290" lon="-0.9164770">
        <ele>372.6</ele>
        <time>2020-12-31T14:17:09Z</time>
      </trkpt>
      <trkpt lat="41.5713930" lon="-0.9165060">
        <ele>372.7</ele>
        <time>2020-12-31T14:17:10Z</time>
      </trkpt>
      <trkpt lat="41.5713520" lon="-0.9165390">
        <ele>372.8</ele>
        <time>2020-12-31T14:17:11Z</time>
      </trkpt>
      <trkpt lat="41.5713210" lon="-0.9165660">
        <ele>372.9</ele>
        <time>2020-12-31T14:17:12Z</time>
      </trkpt>
      <trkpt lat="41.5712600" lon="-0.9166150">
        <ele>373.2</ele>
        <time>2020-12-31T14:17:14Z</time>
      </trkpt>
      <trkpt lat="41.5712270" lon="-0.9166410">
        <ele>373.3</ele>
        <time>2020-12-31T14:17:15Z</time>
      </trkpt>
      <trkpt lat="41.5711750" lon="-0.9166870">
        <ele>373.6</ele>
        <time>2020-12-31T14:17:17Z</time>
      </trkpt>
      <trkpt lat="41.5711370" lon="-0.9167150">
        <ele>373.7</ele>
        <time>2020-12-31T14:17:18Z</time>
      </trkpt>
      <trkpt lat="41.5710970" lon="-0.9167430">
        <ele>373.9</ele>
        <time>2020-12-31T14:17:19Z</time>
      </trkpt>
      <trkpt lat="41.5710460" lon="-0.9167790">
        <ele>374.1</ele>
        <time>2020-12-31T14:17:20Z</time>
      </trkpt>
      <trkpt lat="41.5709990" lon="-0.9168130">
        <ele>374.3</ele>
        <time>2020-12-31T14:17:22Z</time>
      </trkpt>
      <trkpt lat="41.5709370" lon="-0.9168590">
        <ele>374.6</ele>
        <time>2020-12-31T14:17:24Z</time>
      </trkpt>
      <trkpt lat="41.5708990" lon="-0.9168870">
        <ele>374.7</ele>
        <time>2020-12-31T14:17:25Z</time>
      </trkpt>
      <trkpt lat="41.5708500" lon="-0.9169280">
        <ele>374.9</ele>
        <time>2020-12-31T14:17:27Z</time>
      </trkpt>
      <trkpt lat="41.5707980" lon="-0.9169610">
        <ele>375.1</ele>
        <time>2020-12-31T14:17:28Z</time>
      </trkpt>
      <trkpt lat="41.5707410" lon="-0.9169960">
        <ele>375.3</ele>
        <time>2020-12-31T14:17:30Z</time>
      </trkpt>
      <trkpt lat="41.5706920" lon="-0.9170310">
        <ele>375.5</ele>
        <time>2020-12-31T14:17:31Z</time>
      </trkpt>
      <trkpt lat="41.5706560" lon="-0.9170540">
        <ele>375.6</ele>
        <time>2020-12-31T14:17:32Z</time>
      </trkpt>
      <trkpt lat="41.5705880" lon="-0.9170970">
        <ele>375.8</ele>
        <time>2020-12-31T14:17:34Z</time>
      </trkpt>
      <trkpt lat="41.5705280" lon="-0.9171570">
        <ele>376.0</ele>
        <time>2020-12-31T14:17:36Z</time>
      </trkpt>
      <trkpt lat="41.5704960" lon="-0.9171900">
        <ele>376.1</ele>
        <time>2020-12-31T14:17:37Z</time>
      </trkpt>
      <trkpt lat="41.5704500" lon="-0.9172460">
        <ele>376.3</ele>
        <time>2020-12-31T14:17:39Z</time>
      </trkpt>
      <trkpt lat="41.5704180" lon="-0.9172970">
        <ele>376.4</ele>
        <time>2020-12-31T14:17:40Z</time>
      </trkpt>
      <trkpt lat="41.5703930" lon="-0.9173360">
        <ele>376.5</ele>
        <time>2020-12-31T14:17:41Z</time>
      </trkpt>
      <trkpt lat="41.5703450" lon="-0.9174150">
        <ele>376.7</ele>
        <time>2020-12-31T14:17:43Z</time>
      </trkpt>
      <trkpt lat="41.5703220" lon="-0.9174500">
        <ele>376.8</ele>
        <time>2020-12-31T14:17:44Z</time>
      </trkpt>
      <trkpt lat="41.5702980" lon="-0.9174890">
        <ele>376.9</ele>
        <time>2020-12-31T14:17:45Z</time>
      </trkpt>
      <trkpt lat="41.5702610" lon="-0.9175500">
        <ele>377.1</ele>
        <time>2020-12-31T14:17:47Z</time>
      </trkpt>
      <trkpt lat="41.5702340" lon="-0.9175900">
        <ele>377.2</ele>
        <time>2020-12-31T14:17:48Z</time>
      </trkpt>
      <trkpt lat="41.5702070" lon="-0.9176260">
        <ele>377.3</ele>
        <time>2020-12-31T14:17:49Z</time>
      </trkpt>
      <trkpt lat="41.5701600" lon="-0.9176770">
        <ele>377.5</ele>
        <time>2020-12-31T14:17:51Z</time>
      </trkpt>
      <trkpt lat="41.5701300" lon="-0.9177120">
        <ele>377.7</ele>
        <time>2020-12-31T14:17:52Z</time>
      </trkpt>
      <trkpt lat="41.5701040" lon="-0.9177440">
        <ele>377.8</ele>
        <time>2020-12-31T14:17:53Z</time>
      </trkpt>
      <trkpt lat="41.5700760" lon="-0.9177730">
        <ele>377.9</ele>
        <time>2020-12-31T14:17:54Z</time>
      </trkpt>
      <trkpt lat="41.5700460" lon="-0.9178020">
        <ele>378.0</ele>
        <time>2020-12-31T14:17:55Z</time>
      </trkpt>
      <trkpt lat="41.5700160" lon="-0.9178350">
        <ele>378.1</ele>
        <time>2020-12-31T14:17:56Z</time>
      </trkpt>
      <trkpt lat="41.5699890" lon="-0.9178640">
        <ele>378.3</ele>
        <time>2020-12-31T14:17:57Z</time>
      </trkpt>
      <trkpt lat="41.5699660" lon="-0.9178910">
        <ele>378.4</ele>
        <time>2020-12-31T14:17:58Z</time>
      </trkpt>
      <trkpt lat="41.5699420" lon="-0.9179200">
        <ele>378.5</ele>
        <time>2020-12-31T14:17:59Z</time>
      </trkpt>
      <trkpt lat="41.5698900" lon="-0.9179800">
        <ele>378.7</ele>
        <time>2020-12-31T14:18:01Z</time>
      </trkpt>
      <trkpt lat="41.5698380" lon="-0.9180310">
        <ele>378.9</ele>
        <time>2020-12-31T14:18:03Z</time>
      </trkpt>
      <trkpt lat="41.5698100" lon="-0.9180660">
        <ele>379.1</ele>
        <time>2020-12-31T14:18:04Z</time>
      </trkpt>
      <trkpt lat="41.5697730" lon="-0.9181150">
        <ele>379.3</ele>
        <time>2020-12-31T14:18:06Z</time>
      </trkpt>
      <trkpt lat="41.5697480" lon="-0.9181470">
        <ele>379.4</ele>
        <time>2020-12-31T14:18:07Z</time>
      </trkpt>
      <trkpt lat="41.5697220" lon="-0.9181830">
        <ele>379.5</ele>
        <time>2020-12-31T14:18:08Z</time>
      </trkpt>
      <trkpt lat="41.5696970" lon="-0.9182190">
        <ele>379.7</ele>
        <time>2020-12-31T14:18:09Z</time>
      </trkpt>
      <trkpt lat="41.5696590" lon="-0.9182820">
        <ele>379.9</ele>
        <time>2020-12-31T14:18:11Z</time>
      </trkpt>
      <trkpt lat="41.5696360" lon="-0.9183180">
        <ele>380.1</ele>
        <time>2020-12-31T14:18:12Z</time>
      </trkpt>
      <trkpt lat="41.5696090" lon="-0.9183650">
        <ele>380.3</ele>
        <time>2020-12-31T14:18:13Z</time>
      </trkpt>
      <trkpt lat="41.5695800" lon="-0.9184270">
        <ele>380.5</ele>
        <time>2020-12-31T14:18:15Z</time>
      </trkpt>
      <trkpt lat="41.5695660" lon="-0.9184860">
        <ele>380.7</ele>
        <time>2020-12-31T14:18:16Z</time>
      </trkpt>
      <trkpt lat="41.5695450" lon="-0.9185470">
        <ele>381.0</ele>
        <time>2020-12-31T14:18:18Z</time>
      </trkpt>
      <trkpt lat="41.5695200" lon="-0.9186110">
        <ele>381.3</ele>
        <time>2020-12-31T14:18:20Z</time>
      </trkpt>
      <trkpt lat="41.5695010" lon="-0.9186560">
        <ele>381.5</ele>
        <time>2020-12-31T14:18:21Z</time>
      </trkpt>
      <trkpt lat="41.5694880" lon="-0.9186940">
        <ele>381.6</ele>
        <time>2020-12-31T14:18:22Z</time>
      </trkpt>
      <trkpt lat="41.5694710" lon="-0.9187380">
        <ele>381.9</ele>
        <time>2020-12-31T14:18:23Z</time>
      </trkpt>
      <trkpt lat="41.5694580" lon="-0.9187720">
        <ele>382.0</ele>
        <time>2020-12-31T14:18:24Z</time>
      </trkpt>
      <trkpt lat="41.5694420" lon="-0.9188200">
        <ele>382.2</ele>
        <time>2020-12-31T14:18:25Z</time>
      </trkpt>
      <trkpt lat="41.5694250" lon="-0.9188640">
        <ele>382.5</ele>
        <time>2020-12-31T14:18:27Z</time>
      </trkpt>
      <trkpt lat="41.5694030" lon="-0.9189090">
        <ele>382.7</ele>
        <time>2020-12-31T14:18:28Z</time>
      </trkpt>
      <trkpt lat="41.5693850" lon="-0.9189500">
        <ele>382.9</ele>
        <time>2020-12-31T14:18:29Z</time>
      </trkpt>
      <trkpt lat="41.5693640" lon="-0.9189950">
        <ele>383.1</ele>
        <time>2020-12-31T14:18:30Z</time>
      </trkpt>
      <trkpt lat="41.5693480" lon="-0.9190350">
        <ele>383.3</ele>
        <time>2020-12-31T14:18:31Z</time>
      </trkpt>
      <trkpt lat="41.5693330" lon="-0.9190880">
        <ele>383.5</ele>
        <time>2020-12-31T14:18:33Z</time>
      </trkpt>
      <trkpt lat="41.5693330" lon="-0.9191350">
        <ele>383.7</ele>
        <time>2020-12-31T14:18:34Z</time>
      </trkpt>
      <trkpt lat="41.5693330" lon="-0.9191730">
        <ele>383.9</ele>
        <time>2020-12-31T14:18:35Z</time>
      </trkpt>
      <trkpt lat="41.5693250" lon="-0.9192200">
        <ele>384.1</ele>
        <time>2020-12-31T14:18:36Z</time>
      </trkpt>
      <trkpt lat="41.5693100" lon="-0.9192820">
        <ele>384.3</ele>
        <time>2020-12-31T14:18:38Z</time>
      </trkpt>
      <trkpt lat="41.5693030" lon="-0.9193250">
        <ele>384.5</ele>
        <time>2020-12-31T14:18:39Z</time>
      </trkpt>
      <trkpt lat="41.5693040" lon="-0.9193960">
        <ele>384.7</ele>
        <time>2020-12-31T14:18:41Z</time>
      </trkpt>
      <trkpt lat="41.5693060" lon="-0.9194420">
        <ele>384.9</ele>
        <time>2020-12-31T14:18:42Z</time>
      </trkpt>
      <trkpt lat="41.5693130" lon="-0.9194970">
        <ele>385.1</ele>
        <time>2020-12-31T14:18:44Z</time>
      </trkpt>
      <trkpt lat="41.5693200" lon="-0.9195440">
        <ele>385.3</ele>
        <time>2020-12-31T14:18:45Z</time>
      </trkpt>
      <trkpt lat="41.5693280" lon="-0.9195990">
        <ele>385.5</ele>
        <time>2020-12-31T14:18:46Z</time>
      </trkpt>
      <trkpt lat="41.5693380" lon="-0.9196710">
        <ele>385.8</ele>
        <time>2020-12-31T14:18:48Z</time>
      </trkpt>
      <trkpt lat="41.5693410" lon="-0.9197220">
        <ele>386.0</ele>
        <time>2020-12-31T14:18:49Z</time>
      </trkpt>
      <trkpt lat="41.5693490" lon="-0.9197790">
        <ele>386.2</ele>
        <time>2020-12-31T14:18:50Z</time>
      </trkpt>
      <trkpt lat="41.5693540" lon="-0.9198260">
        <ele>386.4</ele>
        <time>2020-12-31T14:18:51Z</time>
      </trkpt>
      <trkpt lat="41.5693530" lon="-0.9198890">
        <ele>386.5</ele>
        <time>2020-12-31T14:18:53Z</time>
      </trkpt>
      <trkpt lat="41.5693440" lon="-0.9199350">
        <ele>386.7</ele>
        <time>2020-12-31T14:18:54Z</time>
      </trkpt>
      <trkpt lat="41.5693310" lon="-0.9199660">
        <ele>386.7</ele>
        <time>2020-12-31T14:18:55Z</time>
      </trkpt>
      <trkpt lat="41.5693040" lon="-0.9199990">
        <ele>386.8</ele>
        <time>2020-12-31T14:18:57Z</time>
      </trkpt>
      <trkpt lat="41.5692690" lon="-0.9200290">
        <ele>386.9</ele>
        <time>2020-12-31T14:18:58Z</time>
      </trkpt>
      <trkpt lat="41.5692560" lon="-0.9200390">
        <ele>387.0</ele>
        <time>2020-12-31T14:18:59Z</time>
      </trkpt>
      <trkpt lat="41.5692260" lon="-0.9200530">
        <ele>387.0</ele>
        <time>2020-12-31T14:19:00Z</time>
      </trkpt>
      <trkpt lat="41.5691870" lon="-0.9200710">
        <ele>387.1</ele>
        <time>2020-12-31T14:19:01Z</time>
      </trkpt>
      <trkpt lat="41.5691540" lon="-0.9200880">
        <ele>387.2</ele>
        <time>2020-12-31T14:19:02Z</time>
      </trkpt>
      <trkpt lat="41.5691210" lon="-0.9200990">
        <ele>387.2</ele>
        <time>2020-12-31T14:19:03Z</time>
      </trkpt>
      <trkpt lat="41.5690870" lon="-0.9201010">
        <ele>387.3</ele>
        <time>2020-12-31T14:19:04Z</time>
      </trkpt>
      <trkpt lat="41.5690310" lon="-0.9201140">
        <ele>387.4</ele>
        <time>2020-12-31T14:19:06Z</time>
      </trkpt>
      <trkpt lat="41.5689720" lon="-0.9201060">
        <ele>387.5</ele>
        <time>2020-12-31T14:19:08Z</time>
      </trkpt>
      <trkpt lat="41.5689250" lon="-0.9201200">
        <ele>387.6</ele>
        <time>2020-12-31T14:19:09Z</time>
      </trkpt>
      <trkpt lat="41.5688880" lon="-0.9201500">
        <ele>387.7</ele>
        <time>2020-12-31T14:19:11Z</time>
      </trkpt>
      <trkpt lat="41.5688510" lon="-0.9201820">
        <ele>387.7</ele>
        <time>2020-12-31T14:19:12Z</time>
      </trkpt>
      <trkpt lat="41.5688200" lon="-0.9202080">
        <ele>387.8</ele>
        <time>2020-12-31T14:19:13Z</time>
      </trkpt>
      <trkpt lat="41.5687970" lon="-0.9202370">
        <ele>387.9</ele>
        <time>2020-12-31T14:19:14Z</time>
      </trkpt>
      <trkpt lat="41.5687470" lon="-0.9202930">
        <ele>388.0</ele>
        <time>2020-12-31T14:19:16Z</time>
      </trkpt>
      <trkpt lat="41.5687020" lon="-0.9203410">
        <ele>388.1</ele>
        <time>2020-12-31T14:19:17Z</time>
      </trkpt>
      <trkpt lat="41.5686600" lon="-0.9203870">
        <ele>388.2</ele>
        <time>2020-12-31T14:19:19Z</time>
      </trkpt>
      <trkpt lat="41.5686250" lon="-0.9204270">
        <ele>388.4</ele>
        <time>2020-12-31T14:19:20Z</time>
      </trkpt>
      <trkpt lat="41.5685980" lon="-0.9204600">
        <ele>388.5</ele>
        <time>2020-12-31T14:19:22Z</time>
      </trkpt>
      <trkpt lat="41.5685700" lon="-0.9204960">
        <ele>388.6</ele>
        <time>2020-12-31T14:19:23Z</time>
      </trkpt>
      <trkpt lat="41.5685440" lon="-0.9205340">
        <ele>388.7</ele>
        <time>2020-12-31T14:19:24Z</time>
      </trkpt>
      <trkpt lat="41.5685130" lon="-0.9205710">
        <ele>388.8</ele>
        <time>2020-12-31T14:19:25Z</time>
      </trkpt>
      <trkpt lat="41.5684800" lon="-0.9206040">
        <ele>389.0</ele>
        <time>2020-12-31T14:19:26Z</time>
      </trkpt>
      <trkpt lat="41.5684510" lon="-0.9206280">
        <ele>389.1</ele>
        <time>2020-12-31T14:19:28Z</time>
      </trkpt>
      <trkpt lat="41.5684210" lon="-0.9206530">
        <ele>389.2</ele>
        <time>2020-12-31T14:19:29Z</time>
      </trkpt>
      <trkpt lat="41.5683920" lon="-0.9206810">
        <ele>389.3</ele>
        <time>2020-12-31T14:19:30Z</time>
      </trkpt>
      <trkpt lat="41.5683640" lon="-0.9207040">
        <ele>389.5</ele>
        <time>2020-12-31T14:19:31Z</time>
      </trkpt>
      <trkpt lat="41.5683250" lon="-0.9207350">
        <ele>389.6</ele>
        <time>2020-12-31T14:19:32Z</time>
      </trkpt>
      <trkpt lat="41.5682780" lon="-0.9207650">
        <ele>389.8</ele>
        <time>2020-12-31T14:19:34Z</time>
      </trkpt>
      <trkpt lat="41.5682460" lon="-0.9207850">
        <ele>389.9</ele>
        <time>2020-12-31T14:19:35Z</time>
      </trkpt>
      <trkpt lat="41.5682110" lon="-0.9208100">
        <ele>390.1</ele>
        <time>2020-12-31T14:19:36Z</time>
      </trkpt>
      <trkpt lat="41.5681690" lon="-0.9208370">
        <ele>390.3</ele>
        <time>2020-12-31T14:19:38Z</time>
      </trkpt>
      <trkpt lat="41.5681330" lon="-0.9208570">
        <ele>390.5</ele>
        <time>2020-12-31T14:19:39Z</time>
      </trkpt>
      <trkpt lat="41.5681000" lon="-0.9208750">
        <ele>390.6</ele>
        <time>2020-12-31T14:19:40Z</time>
      </trkpt>
      <trkpt lat="41.5680620" lon="-0.9208960">
        <ele>390.8</ele>
        <time>2020-12-31T14:19:41Z</time>
      </trkpt>
      <trkpt lat="41.5680080" lon="-0.9209250">
        <ele>391.0</ele>
        <time>2020-12-31T14:19:43Z</time>
      </trkpt>
      <trkpt lat="41.5679710" lon="-0.9209400">
        <ele>391.2</ele>
        <time>2020-12-31T14:19:44Z</time>
      </trkpt>
      <trkpt lat="41.5679350" lon="-0.9209550">
        <ele>391.4</ele>
        <time>2020-12-31T14:19:45Z</time>
      </trkpt>
      <trkpt lat="41.5678980" lon="-0.9209660">
        <ele>391.5</ele>
        <time>2020-12-31T14:19:46Z</time>
      </trkpt>
      <trkpt lat="41.5678580" lon="-0.9209730">
        <ele>391.7</ele>
        <time>2020-12-31T14:19:47Z</time>
      </trkpt>
      <trkpt lat="41.5678190" lon="-0.9209820">
        <ele>391.8</ele>
        <time>2020-12-31T14:19:48Z</time>
      </trkpt>
      <trkpt lat="41.5677720" lon="-0.9209920">
        <ele>392.0</ele>
        <time>2020-12-31T14:19:50Z</time>
      </trkpt>
      <trkpt lat="41.5677350" lon="-0.9209950">
        <ele>392.1</ele>
        <time>2020-12-31T14:19:51Z</time>
      </trkpt>
      <trkpt lat="41.5676960" lon="-0.9209990">
        <ele>392.2</ele>
        <time>2020-12-31T14:19:52Z</time>
      </trkpt>
      <trkpt lat="41.5676650" lon="-0.9210040">
        <ele>392.3</ele>
        <time>2020-12-31T14:19:53Z</time>
      </trkpt>
      <trkpt lat="41.5676320" lon="-0.9210020">
        <ele>392.4</ele>
        <time>2020-12-31T14:19:54Z</time>
      </trkpt>
      <trkpt lat="41.5676000" lon="-0.9210040">
        <ele>392.5</ele>
        <time>2020-12-31T14:19:55Z</time>
      </trkpt>
      <trkpt lat="41.5675540" lon="-0.9210060">
        <ele>392.7</ele>
        <time>2020-12-31T14:19:56Z</time>
      </trkpt>
      <trkpt lat="41.5675180" lon="-0.9210110">
        <ele>392.8</ele>
        <time>2020-12-31T14:19:58Z</time>
      </trkpt>
      <trkpt lat="41.5674820" lon="-0.9210170">
        <ele>393.0</ele>
        <time>2020-12-31T14:19:59Z</time>
      </trkpt>
      <trkpt lat="41.5674470" lon="-0.9210210">
        <ele>393.1</ele>
        <time>2020-12-31T14:20:00Z</time>
      </trkpt>
      <trkpt lat="41.5674080" lon="-0.9210220">
        <ele>393.2</ele>
        <time>2020-12-31T14:20:01Z</time>
      </trkpt>
      <trkpt lat="41.5673590" lon="-0.9210230">
        <ele>393.4</ele>
        <time>2020-12-31T14:20:02Z</time>
      </trkpt>
      <trkpt lat="41.5673240" lon="-0.9210250">
        <ele>393.5</ele>
        <time>2020-12-31T14:20:04Z</time>
      </trkpt>
      <trkpt lat="41.5672810" lon="-0.9210240">
        <ele>393.7</ele>
        <time>2020-12-31T14:20:05Z</time>
      </trkpt>
      <trkpt lat="41.5672300" lon="-0.9210200">
        <ele>393.9</ele>
        <time>2020-12-31T14:20:07Z</time>
      </trkpt>
      <trkpt lat="41.5671870" lon="-0.9210110">
        <ele>394.0</ele>
        <time>2020-12-31T14:20:08Z</time>
      </trkpt>
      <trkpt lat="41.5671380" lon="-0.9210110">
        <ele>394.2</ele>
        <time>2020-12-31T14:20:10Z</time>
      </trkpt>
      <trkpt lat="41.5670990" lon="-0.9210100">
        <ele>394.3</ele>
        <time>2020-12-31T14:20:11Z</time>
      </trkpt>
      <trkpt lat="41.5670590" lon="-0.9210110">
        <ele>394.4</ele>
        <time>2020-12-31T14:20:12Z</time>
      </trkpt>
      <trkpt lat="41.5670230" lon="-0.9210100">
        <ele>394.6</ele>
        <time>2020-12-31T14:20:13Z</time>
      </trkpt>
      <trkpt lat="41.5669680" lon="-0.9210110">
        <ele>394.7</ele>
        <time>2020-12-31T14:20:15Z</time>
      </trkpt>
      <trkpt lat="41.5669280" lon="-0.9210150">
        <ele>394.9</ele>
        <time>2020-12-31T14:20:16Z</time>
      </trkpt>
      <trkpt lat="41.5668860" lon="-0.9210160">
        <ele>395.0</ele>
        <time>2020-12-31T14:20:17Z</time>
      </trkpt>
      <trkpt lat="41.5668500" lon="-0.9210150">
        <ele>395.2</ele>
        <time>2020-12-31T14:20:18Z</time>
      </trkpt>
      <trkpt lat="41.5668110" lon="-0.9210110">
        <ele>395.3</ele>
        <time>2020-12-31T14:20:19Z</time>
      </trkpt>
      <trkpt lat="41.5667720" lon="-0.9210110">
        <ele>395.5</ele>
        <time>2020-12-31T14:20:21Z</time>
      </trkpt>
      <trkpt lat="41.5667360" lon="-0.9210100">
        <ele>395.7</ele>
        <time>2020-12-31T14:20:22Z</time>
      </trkpt>
      <trkpt lat="41.5667030" lon="-0.9210090">
        <ele>395.8</ele>
        <time>2020-12-31T14:20:23Z</time>
      </trkpt>
      <trkpt lat="41.5666690" lon="-0.9210100">
        <ele>396.0</ele>
        <time>2020-12-31T14:20:24Z</time>
      </trkpt>
      <trkpt lat="41.5666350" lon="-0.9210090">
        <ele>396.2</ele>
        <time>2020-12-31T14:20:25Z</time>
      </trkpt>
      <trkpt lat="41.5665820" lon="-0.9210080">
        <ele>396.5</ele>
        <time>2020-12-31T14:20:27Z</time>
      </trkpt>
      <trkpt lat="41.5665350" lon="-0.9210070">
        <ele>396.7</ele>
        <time>2020-12-31T14:20:28Z</time>
      </trkpt>
      <trkpt lat="41.5664720" lon="-0.9210040">
        <ele>397.1</ele>
        <time>2020-12-31T14:20:30Z</time>
      </trkpt>
      <trkpt lat="41.5664180" lon="-0.9210090">
        <ele>397.4</ele>
        <time>2020-12-31T14:20:32Z</time>
      </trkpt>
      <trkpt lat="41.5663660" lon="-0.9210110">
        <ele>397.7</ele>
        <time>2020-12-31T14:20:33Z</time>
      </trkpt>
      <trkpt lat="41.5663320" lon="-0.9210070">
        <ele>397.9</ele>
        <time>2020-12-31T14:20:34Z</time>
      </trkpt>
      <trkpt lat="41.5662930" lon="-0.9210060">
        <ele>398.0</ele>
        <time>2020-12-31T14:20:36Z</time>
      </trkpt>
      <trkpt lat="41.5662560" lon="-0.9210080">
        <ele>398.2</ele>
        <time>2020-12-31T14:20:37Z</time>
      </trkpt>
      <trkpt lat="41.5662210" lon="-0.9210090">
        <ele>398.3</ele>
        <time>2020-12-31T14:20:38Z</time>
      </trkpt>
      <trkpt lat="41.5661860" lon="-0.9210100">
        <ele>398.5</ele>
        <time>2020-12-31T14:20:39Z</time>
      </trkpt>
      <trkpt lat="41.5661510" lon="-0.9210110">
        <ele>398.6</ele>
        <time>2020-12-31T14:20:40Z</time>
      </trkpt>
      <trkpt lat="41.5661140" lon="-0.9210100">
        <ele>398.8</ele>
        <time>2020-12-31T14:20:41Z</time>
      </trkpt>
      <trkpt lat="41.5660660" lon="-0.9210070">
        <ele>398.9</ele>
        <time>2020-12-31T14:20:43Z</time>
      </trkpt>
      <trkpt lat="41.5660180" lon="-0.9210020">
        <ele>399.1</ele>
        <time>2020-12-31T14:20:44Z</time>
      </trkpt>
      <trkpt lat="41.5659830" lon="-0.9209970">
        <ele>399.3</ele>
        <time>2020-12-31T14:20:45Z</time>
      </trkpt>
      <trkpt lat="41.5659440" lon="-0.9209890">
        <ele>399.4</ele>
        <time>2020-12-31T14:20:46Z</time>
      </trkpt>
      <trkpt lat="41.5659090" lon="-0.9209870">
        <ele>399.6</ele>
        <time>2020-12-31T14:20:48Z</time>
      </trkpt>
      <trkpt lat="41.5658680" lon="-0.9209830">
        <ele>399.7</ele>
        <time>2020-12-31T14:20:49Z</time>
      </trkpt>
      <trkpt lat="41.5658210" lon="-0.9209810">
        <ele>399.9</ele>
        <time>2020-12-31T14:20:50Z</time>
      </trkpt>
      <trkpt lat="41.5657670" lon="-0.9209870">
        <ele>400.2</ele>
        <time>2020-12-31T14:20:52Z</time>
      </trkpt>
      <trkpt lat="41.5657380" lon="-0.9209910">
        <ele>400.3</ele>
        <time>2020-12-31T14:20:54Z</time>
      </trkpt>
      <trkpt lat="41.5657290" lon="-0.9209910">
        <ele>400.3</ele>
        <time>2020-12-31T14:20:55Z</time>
      </trkpt>
      <trkpt lat="41.5656960" lon="-0.9209900">
        <ele>400.5</ele>
        <time>2020-12-31T14:20:56Z</time>
      </trkpt>
      <trkpt lat="41.5656650" lon="-0.9209960">
        <ele>400.6</ele>
        <time>2020-12-31T14:20:57Z</time>
      </trkpt>
      <trkpt lat="41.5656080" lon="-0.9210080">
        <ele>400.9</ele>
        <time>2020-12-31T14:20:59Z</time>
      </trkpt>
      <trkpt lat="41.5655680" lon="-0.9210200">
        <ele>401.0</ele>
        <time>2020-12-31T14:21:00Z</time>
      </trkpt>
      <trkpt lat="41.5655290" lon="-0.9210300">
        <ele>401.2</ele>
        <time>2020-12-31T14:21:01Z</time>
      </trkpt>
      <trkpt lat="41.5654970" lon="-0.9210390">
        <ele>401.3</ele>
        <time>2020-12-31T14:21:02Z</time>
      </trkpt>
      <trkpt lat="41.5654630" lon="-0.9210490">
        <ele>401.4</ele>
        <time>2020-12-31T14:21:03Z</time>
      </trkpt>
      <trkpt lat="41.5654130" lon="-0.9210620">
        <ele>401.6</ele>
        <time>2020-12-31T14:21:04Z</time>
      </trkpt>
      <trkpt lat="41.5653650" lon="-0.9210680">
        <ele>401.8</ele>
        <time>2020-12-31T14:21:06Z</time>
      </trkpt>
      <trkpt lat="41.5653250" lon="-0.9210780">
        <ele>402.0</ele>
        <time>2020-12-31T14:21:07Z</time>
      </trkpt>
      <trkpt lat="41.5652850" lon="-0.9210900">
        <ele>402.3</ele>
        <time>2020-12-31T14:21:08Z</time>
      </trkpt>
      <trkpt lat="41.5652180" lon="-0.9211050">
        <ele>402.7</ele>
        <time>2020-12-31T14:21:10Z</time>
      </trkpt>
      <trkpt lat="41.5651860" lon="-0.9211130">
        <ele>402.8</ele>
        <time>2020-12-31T14:21:11Z</time>
      </trkpt>
      <trkpt lat="41.5651340" lon="-0.9211260">
        <ele>403.1</ele>
        <time>2020-12-31T14:21:12Z</time>
      </trkpt>
      <trkpt lat="41.5650790" lon="-0.9211340">
        <ele>403.3</ele>
        <time>2020-12-31T14:21:14Z</time>
      </trkpt>
      <trkpt lat="41.5650380" lon="-0.9211360">
        <ele>403.5</ele>
        <time>2020-12-31T14:21:15Z</time>
      </trkpt>
      <trkpt lat="41.5649760" lon="-0.9211410">
        <ele>403.6</ele>
        <time>2020-12-31T14:21:17Z</time>
      </trkpt>
      <trkpt lat="41.5649210" lon="-0.9211430">
        <ele>403.8</ele>
        <time>2020-12-31T14:21:18Z</time>
      </trkpt>
      <trkpt lat="41.5648760" lon="-0.9211480">
        <ele>403.8</ele>
        <time>2020-12-31T14:21:20Z</time>
      </trkpt>
      <trkpt lat="41.5648300" lon="-0.9211510">
        <ele>403.9</ele>
        <time>2020-12-31T14:21:21Z</time>
      </trkpt>
      <trkpt lat="41.5647670" lon="-0.9211500">
        <ele>404.0</ele>
        <time>2020-12-31T14:21:23Z</time>
      </trkpt>
      <trkpt lat="41.5647230" lon="-0.9211440">
        <ele>404.0</ele>
        <time>2020-12-31T14:21:24Z</time>
      </trkpt>
      <trkpt lat="41.5646620" lon="-0.9211240">
        <ele>404.1</ele>
        <time>2020-12-31T14:21:26Z</time>
      </trkpt>
      <trkpt lat="41.5646100" lon="-0.9210970">
        <ele>404.1</ele>
        <time>2020-12-31T14:21:27Z</time>
      </trkpt>
      <trkpt lat="41.5645570" lon="-0.9210560">
        <ele>404.1</ele>
        <time>2020-12-31T14:21:28Z</time>
      </trkpt>
      <trkpt lat="41.5645010" lon="-0.9210020">
        <ele>404.2</ele>
        <time>2020-12-31T14:21:30Z</time>
      </trkpt>
      <trkpt lat="41.5644690" lon="-0.9209640">
        <ele>404.2</ele>
        <time>2020-12-31T14:21:31Z</time>
      </trkpt>
      <trkpt lat="41.5644190" lon="-0.9209050">
        <ele>404.2</ele>
        <time>2020-12-31T14:21:32Z</time>
      </trkpt>
      <trkpt lat="41.5643760" lon="-0.9208490">
        <ele>404.2</ele>
        <time>2020-12-31T14:21:34Z</time>
      </trkpt>
      <trkpt lat="41.5643260" lon="-0.9207900">
        <ele>404.2</ele>
        <time>2020-12-31T14:21:35Z</time>
      </trkpt>
      <trkpt lat="41.5642900" lon="-0.9207500">
        <ele>404.2</ele>
        <time>2020-12-31T14:21:36Z</time>
      </trkpt>
      <trkpt lat="41.5642520" lon="-0.9207160">
        <ele>404.2</ele>
        <time>2020-12-31T14:21:37Z</time>
      </trkpt>
      <trkpt lat="41.5642050" lon="-0.9206770">
        <ele>404.3</ele>
        <time>2020-12-31T14:21:39Z</time>
      </trkpt>
      <trkpt lat="41.5641540" lon="-0.9206290">
        <ele>404.3</ele>
        <time>2020-12-31T14:21:40Z</time>
      </trkpt>
      <trkpt lat="41.5641170" lon="-0.9205920">
        <ele>404.4</ele>
        <time>2020-12-31T14:21:41Z</time>
      </trkpt>
      <trkpt lat="41.5640620" lon="-0.9205770">
        <ele>404.4</ele>
        <time>2020-12-31T14:21:43Z</time>
      </trkpt>
      <trkpt lat="41.5640160" lon="-0.9205250">
        <ele>404.5</ele>
        <time>2020-12-31T14:21:44Z</time>
      </trkpt>
      <trkpt lat="41.5639720" lon="-0.9204820">
        <ele>404.5</ele>
        <time>2020-12-31T14:21:45Z</time>
      </trkpt>
      <trkpt lat="41.5639180" lon="-0.9204400">
        <ele>404.6</ele>
        <time>2020-12-31T14:21:46Z</time>
      </trkpt>
      <trkpt lat="41.5638590" lon="-0.9203960">
        <ele>404.7</ele>
        <time>2020-12-31T14:21:48Z</time>
      </trkpt>
      <trkpt lat="41.5637970" lon="-0.9203540">
        <ele>404.7</ele>
        <time>2020-12-31T14:21:50Z</time>
      </trkpt>
      <trkpt lat="41.5637480" lon="-0.9203080">
        <ele>404.7</ele>
        <time>2020-12-31T14:21:51Z</time>
      </trkpt>
      <trkpt lat="41.5637180" lon="-0.9202600">
        <ele>404.7</ele>
        <time>2020-12-31T14:21:52Z</time>
      </trkpt>
      <trkpt lat="41.5636890" lon="-0.9201900">
        <ele>404.7</ele>
        <time>2020-12-31T14:21:53Z</time>
      </trkpt>
      <trkpt lat="41.5636730" lon="-0.9201190">
        <ele>404.7</ele>
        <time>2020-12-31T14:21:55Z</time>
      </trkpt>
      <trkpt lat="41.5636620" lon="-0.9200490">
        <ele>404.7</ele>
        <time>2020-12-31T14:21:56Z</time>
      </trkpt>
      <trkpt lat="41.5636600" lon="-0.9199540">
        <ele>404.6</ele>
        <time>2020-12-31T14:21:57Z</time>
      </trkpt>
      <trkpt lat="41.5636540" lon="-0.9198810">
        <ele>404.6</ele>
        <time>2020-12-31T14:21:58Z</time>
      </trkpt>
      <trkpt lat="41.5636410" lon="-0.9198090">
        <ele>404.6</ele>
        <time>2020-12-31T14:21:59Z</time>
      </trkpt>
      <trkpt lat="41.5635940" lon="-0.9196720">
        <ele>404.5</ele>
        <time>2020-12-31T14:22:01Z</time>
      </trkpt>
      <trkpt lat="41.5635370" lon="-0.9195500">
        <ele>404.5</ele>
        <time>2020-12-31T14:22:03Z</time>
      </trkpt>
      <trkpt lat="41.5634660" lon="-0.9194710">
        <ele>404.4</ele>
        <time>2020-12-31T14:22:05Z</time>
      </trkpt>
      <trkpt lat="41.5633910" lon="-0.9193540">
        <ele>404.4</ele>
        <time>2020-12-31T14:22:07Z</time>
      </trkpt>
      <trkpt lat="41.5633440" lon="-0.9192870">
        <ele>404.4</ele>
        <time>2020-12-31T14:22:09Z</time>
      </trkpt>
      <trkpt lat="41.5632700" lon="-0.9191750">
        <ele>404.3</ele>
        <time>2020-12-31T14:22:10Z</time>
      </trkpt>
      <trkpt lat="41.5632220" lon="-0.9191190">
        <ele>404.3</ele>
        <time>2020-12-31T14:22:11Z</time>
      </trkpt>
      <trkpt lat="41.5631310" lon="-0.9190290">
        <ele>404.3</ele>
        <time>2020-12-31T14:22:13Z</time>
      </trkpt>
      <trkpt lat="41.5630770" lon="-0.9189930">
        <ele>404.4</ele>
        <time>2020-12-31T14:22:14Z</time>
      </trkpt>
      <trkpt lat="41.5629810" lon="-0.9189240">
        <ele>404.5</ele>
        <time>2020-12-31T14:22:16Z</time>
      </trkpt>
      <trkpt lat="41.5629350" lon="-0.9188860">
        <ele>404.5</ele>
        <time>2020-12-31T14:22:17Z</time>
      </trkpt>
      <trkpt lat="41.5628400" lon="-0.9188120">
        <ele>404.6</ele>
        <time>2020-12-31T14:22:19Z</time>
      </trkpt>
      <trkpt lat="41.5627440" lon="-0.9187390">
        <ele>404.7</ele>
        <time>2020-12-31T14:22:21Z</time>
      </trkpt>
      <trkpt lat="41.5626500" lon="-0.9186680">
        <ele>404.8</ele>
        <time>2020-12-31T14:22:23Z</time>
      </trkpt>
      <trkpt lat="41.5625530" lon="-0.9186130">
        <ele>404.9</ele>
        <time>2020-12-31T14:22:25Z</time>
      </trkpt>
      <trkpt lat="41.5624510" lon="-0.9185750">
        <ele>405.0</ele>
        <time>2020-12-31T14:22:27Z</time>
      </trkpt>
      <trkpt lat="41.5623480" lon="-0.9185480">
        <ele>405.1</ele>
        <time>2020-12-31T14:22:29Z</time>
      </trkpt>
      <trkpt lat="41.5622420" lon="-0.9185420">
        <ele>405.2</ele>
        <time>2020-12-31T14:22:31Z</time>
      </trkpt>
      <trkpt lat="41.5621350" lon="-0.9185510">
        <ele>405.4</ele>
        <time>2020-12-31T14:22:33Z</time>
      </trkpt>
      <trkpt lat="41.5620290" lon="-0.9185740">
        <ele>405.5</ele>
        <time>2020-12-31T14:22:35Z</time>
      </trkpt>
      <trkpt lat="41.5619800" lon="-0.9185870">
        <ele>405.6</ele>
        <time>2020-12-31T14:22:36Z</time>
      </trkpt>
      <trkpt lat="41.5619300" lon="-0.9185960">
        <ele>405.6</ele>
        <time>2020-12-31T14:22:37Z</time>
      </trkpt>
      <trkpt lat="41.5618310" lon="-0.9186280">
        <ele>405.7</ele>
        <time>2020-12-31T14:22:39Z</time>
      </trkpt>
      <trkpt lat="41.5617820" lon="-0.9186470">
        <ele>405.8</ele>
        <time>2020-12-31T14:22:40Z</time>
      </trkpt>
      <trkpt lat="41.5616850" lon="-0.9186940">
        <ele>405.9</ele>
        <time>2020-12-31T14:22:42Z</time>
      </trkpt>
      <trkpt lat="41.5616360" lon="-0.9187180">
        <ele>406.0</ele>
        <time>2020-12-31T14:22:43Z</time>
      </trkpt>
      <trkpt lat="41.5615440" lon="-0.9187630">
        <ele>406.1</ele>
        <time>2020-12-31T14:22:45Z</time>
      </trkpt>
      <trkpt lat="41.5615000" lon="-0.9187860">
        <ele>406.2</ele>
        <time>2020-12-31T14:22:46Z</time>
      </trkpt>
      <trkpt lat="41.5614110" lon="-0.9188320">
        <ele>406.3</ele>
        <time>2020-12-31T14:22:48Z</time>
      </trkpt>
      <trkpt lat="41.5613680" lon="-0.9188580">
        <ele>406.4</ele>
        <time>2020-12-31T14:22:49Z</time>
      </trkpt>
      <trkpt lat="41.5612840" lon="-0.9189090">
        <ele>406.5</ele>
        <time>2020-12-31T14:22:51Z</time>
      </trkpt>
      <trkpt lat="41.5612050" lon="-0.9189660">
        <ele>406.6</ele>
        <time>2020-12-31T14:22:53Z</time>
      </trkpt>
      <trkpt lat="41.5611620" lon="-0.9189940">
        <ele>406.7</ele>
        <time>2020-12-31T14:22:54Z</time>
      </trkpt>
      <trkpt lat="41.5610800" lon="-0.9190490">
        <ele>406.8</ele>
        <time>2020-12-31T14:22:56Z</time>
      </trkpt>
      <trkpt lat="41.5610020" lon="-0.9191180">
        <ele>406.9</ele>
        <time>2020-12-31T14:22:58Z</time>
      </trkpt>
      <trkpt lat="41.5609290" lon="-0.9191910">
        <ele>406.9</ele>
        <time>2020-12-31T14:23:00Z</time>
      </trkpt>
      <trkpt lat="41.5608540" lon="-0.9192720">
        <ele>406.9</ele>
        <time>2020-12-31T14:23:02Z</time>
      </trkpt>
      <trkpt lat="41.5607870" lon="-0.9193710">
        <ele>406.9</ele>
        <time>2020-12-31T14:23:04Z</time>
      </trkpt>
      <trkpt lat="41.5607620" lon="-0.9194210">
        <ele>407.0</ele>
        <time>2020-12-31T14:23:05Z</time>
      </trkpt>
      <trkpt lat="41.5607150" lon="-0.9195250">
        <ele>407.0</ele>
        <time>2020-12-31T14:23:07Z</time>
      </trkpt>
      <trkpt lat="41.5606610" lon="-0.9196310">
        <ele>407.1</ele>
        <time>2020-12-31T14:23:09Z</time>
      </trkpt>
      <trkpt lat="41.5606340" lon="-0.9196800">
        <ele>407.2</ele>
        <time>2020-12-31T14:23:10Z</time>
      </trkpt>
      <trkpt lat="41.5605820" lon="-0.9197600">
        <ele>407.2</ele>
        <time>2020-12-31T14:23:12Z</time>
      </trkpt>
      <trkpt lat="41.5605460" lon="-0.9198050">
        <ele>407.2</ele>
        <time>2020-12-31T14:23:13Z</time>
      </trkpt>
      <trkpt lat="41.5604730" lon="-0.9198890">
        <ele>407.0</ele>
        <time>2020-12-31T14:23:15Z</time>
      </trkpt>
      <trkpt lat="41.5604310" lon="-0.9199370">
        <ele>407.0</ele>
        <time>2020-12-31T14:23:16Z</time>
      </trkpt>
      <trkpt lat="41.5603480" lon="-0.9200350">
        <ele>406.8</ele>
        <time>2020-12-31T14:23:18Z</time>
      </trkpt>
      <trkpt lat="41.5603070" lon="-0.9200850">
        <ele>406.8</ele>
        <time>2020-12-31T14:23:19Z</time>
      </trkpt>
      <trkpt lat="41.5602670" lon="-0.9201320">
        <ele>406.7</ele>
        <time>2020-12-31T14:23:20Z</time>
      </trkpt>
      <trkpt lat="41.5601790" lon="-0.9202100">
        <ele>406.7</ele>
        <time>2020-12-31T14:23:22Z</time>
      </trkpt>
      <trkpt lat="41.5600770" lon="-0.9202640">
        <ele>406.8</ele>
        <time>2020-12-31T14:23:24Z</time>
      </trkpt>
      <trkpt lat="41.5599730" lon="-0.9202920">
        <ele>407.0</ele>
        <time>2020-12-31T14:23:26Z</time>
      </trkpt>
      <trkpt lat="41.5598860" lon="-0.9203410">
        <ele>407.2</ele>
        <time>2020-12-31T14:23:28Z</time>
      </trkpt>
      <trkpt lat="41.5598470" lon="-0.9203650">
        <ele>407.2</ele>
        <time>2020-12-31T14:23:29Z</time>
      </trkpt>
      <trkpt lat="41.5598150" lon="-0.9203840">
        <ele>407.3</ele>
        <time>2020-12-31T14:23:30Z</time>
      </trkpt>
      <trkpt lat="41.5597720" lon="-0.9204060">
        <ele>407.4</ele>
        <time>2020-12-31T14:23:31Z</time>
      </trkpt>
      <trkpt lat="41.5596780" lon="-0.9204410">
        <ele>407.5</ele>
        <time>2020-12-31T14:23:33Z</time>
      </trkpt>
      <trkpt lat="41.5596310" lon="-0.9204540">
        <ele>407.6</ele>
        <time>2020-12-31T14:23:34Z</time>
      </trkpt>
      <trkpt lat="41.5595380" lon="-0.9204760">
        <ele>407.7</ele>
        <time>2020-12-31T14:23:36Z</time>
      </trkpt>
      <trkpt lat="41.5594880" lon="-0.9204860">
        <ele>407.8</ele>
        <time>2020-12-31T14:23:37Z</time>
      </trkpt>
      <trkpt lat="41.5593930" lon="-0.9205070">
        <ele>407.9</ele>
        <time>2020-12-31T14:23:39Z</time>
      </trkpt>
      <trkpt lat="41.5593440" lon="-0.9205100">
        <ele>407.9</ele>
        <time>2020-12-31T14:23:40Z</time>
      </trkpt>
      <trkpt lat="41.5592940" lon="-0.9205120">
        <ele>408.0</ele>
        <time>2020-12-31T14:23:41Z</time>
      </trkpt>
      <trkpt lat="41.5591920" lon="-0.9205130">
        <ele>408.1</ele>
        <time>2020-12-31T14:23:43Z</time>
      </trkpt>
      <trkpt lat="41.5591080" lon="-0.9205030">
        <ele>408.2</ele>
        <time>2020-12-31T14:23:45Z</time>
      </trkpt>
      <trkpt lat="41.5590360" lon="-0.9204900">
        <ele>408.3</ele>
        <time>2020-12-31T14:23:47Z</time>
      </trkpt>
      <trkpt lat="41.5589770" lon="-0.9205160">
        <ele>408.4</ele>
        <time>2020-12-31T14:23:49Z</time>
      </trkpt>
      <trkpt lat="41.5589530" lon="-0.9205690">
        <ele>408.5</ele>
        <time>2020-12-31T14:23:51Z</time>
      </trkpt>
      <trkpt lat="41.5589590" lon="-0.9206250">
        <ele>408.8</ele>
        <time>2020-12-31T14:23:52Z</time>
      </trkpt>
      <trkpt lat="41.5589680" lon="-0.9206710">
        <ele>408.9</ele>
        <time>2020-12-31T14:23:53Z</time>
      </trkpt>
      <trkpt lat="41.5589900" lon="-0.9207180">
        <ele>409.0</ele>
        <time>2020-12-31T14:23:54Z</time>
      </trkpt>
      <trkpt lat="41.5590260" lon="-0.9207760">
        <ele>409.1</ele>
        <time>2020-12-31T14:23:55Z</time>
      </trkpt>
      <trkpt lat="41.5590590" lon="-0.9208450">
        <ele>409.1</ele>
        <time>2020-12-31T14:23:57Z</time>
      </trkpt>
      <trkpt lat="41.5590760" lon="-0.9209150">
        <ele>409.0</ele>
        <time>2020-12-31T14:23:58Z</time>
      </trkpt>
      <trkpt lat="41.5590830" lon="-0.9210130">
        <ele>408.9</ele>
        <time>2020-12-31T14:23:59Z</time>
      </trkpt>
      <trkpt lat="41.5590770" lon="-0.9211480">
        <ele>408.7</ele>
        <time>2020-12-31T14:24:01Z</time>
      </trkpt>
      <trkpt lat="41.5590790" lon="-0.9212160">
        <ele>408.6</ele>
        <time>2020-12-31T14:24:02Z</time>
      </trkpt>
      <trkpt lat="41.5590860" lon="-0.9212850">
        <ele>408.5</ele>
        <time>2020-12-31T14:24:03Z</time>
      </trkpt>
      <trkpt lat="41.5590980" lon="-0.9213550">
        <ele>408.3</ele>
        <time>2020-12-31T14:24:04Z</time>
      </trkpt>
      <trkpt lat="41.5591340" lon="-0.9214920">
        <ele>407.9</ele>
        <time>2020-12-31T14:24:06Z</time>
      </trkpt>
      <trkpt lat="41.5591550" lon="-0.9215640">
        <ele>407.7</ele>
        <time>2020-12-31T14:24:07Z</time>
      </trkpt>
      <trkpt lat="41.5591790" lon="-0.9216320">
        <ele>407.4</ele>
        <time>2020-12-31T14:24:09Z</time>
      </trkpt>
      <trkpt lat="41.5591860" lon="-0.9216690">
        <ele>407.3</ele>
        <time>2020-12-31T14:24:10Z</time>
      </trkpt>
      <trkpt lat="41.5592570" lon="-0.9218470">
        <ele>406.9</ele>
        <time>2020-12-31T14:24:12Z</time>
      </trkpt>
      <trkpt lat="41.5593160" lon="-0.9219930">
        <ele>406.6</ele>
        <time>2020-12-31T14:24:13Z</time>
      </trkpt>
      <trkpt lat="41.5593750" lon="-0.9221400">
        <ele>406.4</ele>
        <time>2020-12-31T14:24:15Z</time>
      </trkpt>
      <trkpt lat="41.5594170" lon="-0.9222100">
        <ele>406.3</ele>
        <time>2020-12-31T14:24:16Z</time>
      </trkpt>
      <trkpt lat="41.5595040" lon="-0.9223210">
        <ele>406.1</ele>
        <time>2020-12-31T14:24:18Z</time>
      </trkpt>
      <trkpt lat="41.5595490" lon="-0.9223750">
        <ele>406.1</ele>
        <time>2020-12-31T14:24:19Z</time>
      </trkpt>
      <trkpt lat="41.5595980" lon="-0.9224250">
        <ele>406.0</ele>
        <time>2020-12-31T14:24:20Z</time>
      </trkpt>
      <trkpt lat="41.5596930" lon="-0.9225190">
        <ele>405.9</ele>
        <time>2020-12-31T14:24:22Z</time>
      </trkpt>
      <trkpt lat="41.5597440" lon="-0.9225600">
        <ele>405.9</ele>
        <time>2020-12-31T14:24:23Z</time>
      </trkpt>
      <trkpt lat="41.5598530" lon="-0.9226360">
        <ele>405.7</ele>
        <time>2020-12-31T14:24:25Z</time>
      </trkpt>
      <trkpt lat="41.5599690" lon="-0.9227140">
        <ele>405.5</ele>
        <time>2020-12-31T14:24:27Z</time>
      </trkpt>
      <trkpt lat="41.5600290" lon="-0.9227540">
        <ele>405.5</ele>
        <time>2020-12-31T14:24:28Z</time>
      </trkpt>
      <trkpt lat="41.5601490" lon="-0.9228160">
        <ele>405.3</ele>
        <time>2020-12-31T14:24:30Z</time>
      </trkpt>
      <trkpt lat="41.5602690" lon="-0.9228680">
        <ele>405.3</ele>
        <time>2020-12-31T14:24:32Z</time>
      </trkpt>
      <trkpt lat="41.5603760" lon="-0.9229130">
        <ele>405.2</ele>
        <time>2020-12-31T14:24:34Z</time>
      </trkpt>
      <trkpt lat="41.5604260" lon="-0.9229340">
        <ele>405.2</ele>
        <time>2020-12-31T14:24:35Z</time>
      </trkpt>
      <trkpt lat="41.5605280" lon="-0.9229770">
        <ele>405.1</ele>
        <time>2020-12-31T14:24:37Z</time>
      </trkpt>
      <trkpt lat="41.5606370" lon="-0.9229810">
        <ele>405.0</ele>
        <time>2020-12-31T14:24:39Z</time>
      </trkpt>
      <trkpt lat="41.5606900" lon="-0.9229780">
        <ele>405.0</ele>
        <time>2020-12-31T14:24:40Z</time>
      </trkpt>
      <trkpt lat="41.5607460" lon="-0.9229630">
        <ele>404.9</ele>
        <time>2020-12-31T14:24:41Z</time>
      </trkpt>
      <trkpt lat="41.5608590" lon="-0.9229370">
        <ele>405.0</ele>
        <time>2020-12-31T14:24:43Z</time>
      </trkpt>
      <trkpt lat="41.5609680" lon="-0.9229320">
        <ele>405.2</ele>
        <time>2020-12-31T14:24:45Z</time>
      </trkpt>
      <trkpt lat="41.5610180" lon="-0.9229410">
        <ele>405.3</ele>
        <time>2020-12-31T14:24:46Z</time>
      </trkpt>
      <trkpt lat="41.5610610" lon="-0.9229650">
        <ele>405.6</ele>
        <time>2020-12-31T14:24:47Z</time>
      </trkpt>
      <trkpt lat="41.5611180" lon="-0.9230110">
        <ele>406.0</ele>
        <time>2020-12-31T14:24:49Z</time>
      </trkpt>
      <trkpt lat="41.5611700" lon="-0.9230450">
        <ele>406.4</ele>
        <time>2020-12-31T14:24:51Z</time>
      </trkpt>
      <trkpt lat="41.5612120" lon="-0.9230740">
        <ele>406.8</ele>
        <time>2020-12-31T14:24:53Z</time>
      </trkpt>
      <trkpt lat="41.5612360" lon="-0.9230850">
        <ele>407.0</ele>
        <time>2020-12-31T14:24:54Z</time>
      </trkpt>
      <trkpt lat="41.5612470" lon="-0.9230860">
        <ele>407.0</ele>
        <time>2020-12-31T14:24:55Z</time>
      </trkpt>
      <trkpt lat="41.5612590" lon="-0.9230880">
        <ele>407.1</ele>
        <time>2020-12-31T14:24:56Z</time>
      </trkpt>
      <trkpt lat="41.5613030" lon="-0.9231090">
        <ele>407.5</ele>
        <time>2020-12-31T14:24:58Z</time>
      </trkpt>
      <trkpt lat="41.5613310" lon="-0.9231160">
        <ele>407.6</ele>
        <time>2020-12-31T14:24:59Z</time>
      </trkpt>
      <trkpt lat="41.5613670" lon="-0.9231250">
        <ele>407.7</ele>
        <time>2020-12-31T14:25:00Z</time>
      </trkpt>
      <trkpt lat="41.5614120" lon="-0.9231340">
        <ele>407.7</ele>
        <time>2020-12-31T14:25:01Z</time>
      </trkpt>
      <trkpt lat="41.5615070" lon="-0.9231700">
        <ele>407.5</ele>
        <time>2020-12-31T14:25:03Z</time>
      </trkpt>
      <trkpt lat="41.5615610" lon="-0.9232060">
        <ele>407.3</ele>
        <time>2020-12-31T14:25:04Z</time>
      </trkpt>
      <trkpt lat="41.5616670" lon="-0.9232900">
        <ele>406.9</ele>
        <time>2020-12-31T14:25:06Z</time>
      </trkpt>
      <trkpt lat="41.5617150" lon="-0.9233440">
        <ele>406.8</ele>
        <time>2020-12-31T14:25:07Z</time>
      </trkpt>
      <trkpt lat="41.5617550" lon="-0.9234020">
        <ele>406.8</ele>
        <time>2020-12-31T14:25:08Z</time>
      </trkpt>
      <trkpt lat="41.5618310" lon="-0.9234850">
        <ele>406.7</ele>
        <time>2020-12-31T14:25:10Z</time>
      </trkpt>
      <trkpt lat="41.5618680" lon="-0.9234830">
        <ele>406.6</ele>
        <time>2020-12-31T14:25:11Z</time>
      </trkpt>
      <trkpt lat="41.5619450" lon="-0.9234900">
        <ele>406.2</ele>
        <time>2020-12-31T14:25:13Z</time>
      </trkpt>
      <trkpt lat="41.5619820" lon="-0.9234770">
        <ele>406.0</ele>
        <time>2020-12-31T14:25:14Z</time>
      </trkpt>
      <trkpt lat="41.5620170" lon="-0.9234600">
        <ele>405.7</ele>
        <time>2020-12-31T14:25:15Z</time>
      </trkpt>
      <trkpt lat="41.5620500" lon="-0.9232610">
        <ele>404.1</ele>
        <time>2020-12-31T14:25:17Z</time>
      </trkpt>
      <trkpt lat="41.5620620" lon="-0.9231490">
        <ele>403.2</ele>
        <time>2020-12-31T14:25:18Z</time>
      </trkpt>
      <trkpt lat="41.5620710" lon="-0.9230280">
        <ele>402.5</ele>
        <time>2020-12-31T14:25:19Z</time>
      </trkpt>
      <trkpt lat="41.5621180" lon="-0.9228250">
        <ele>401.6</ele>
        <time>2020-12-31T14:25:21Z</time>
      </trkpt>
      <trkpt lat="41.5622280" lon="-0.9228090">
        <ele>400.8</ele>
        <time>2020-12-31T14:25:23Z</time>
      </trkpt>
      <trkpt lat="41.5622950" lon="-0.9229540">
        <ele>399.6</ele>
        <time>2020-12-31T14:25:25Z</time>
      </trkpt>
      <trkpt lat="41.5623240" lon="-0.9230410">
        <ele>399.0</ele>
        <time>2020-12-31T14:25:26Z</time>
      </trkpt>
      <trkpt lat="41.5623810" lon="-0.9231020">
        <ele>398.3</ele>
        <time>2020-12-31T14:25:27Z</time>
      </trkpt>
      <trkpt lat="41.5625030" lon="-0.9232090">
        <ele>397.1</ele>
        <time>2020-12-31T14:25:29Z</time>
      </trkpt>
      <trkpt lat="41.5626240" lon="-0.9233540">
        <ele>395.9</ele>
        <time>2020-12-31T14:25:31Z</time>
      </trkpt>
      <trkpt lat="41.5627360" lon="-0.9235150">
        <ele>394.6</ele>
        <time>2020-12-31T14:25:33Z</time>
      </trkpt>
      <trkpt lat="41.5628340" lon="-0.9236200">
        <ele>393.3</ele>
        <time>2020-12-31T14:25:35Z</time>
      </trkpt>
      <trkpt lat="41.5628920" lon="-0.9238230">
        <ele>391.6</ele>
        <time>2020-12-31T14:25:37Z</time>
      </trkpt>
      <trkpt lat="41.5629950" lon="-0.9239780">
        <ele>390.1</ele>
        <time>2020-12-31T14:25:39Z</time>
      </trkpt>
      <trkpt lat="41.5630670" lon="-0.9241470">
        <ele>388.8</ele>
        <time>2020-12-31T14:25:41Z</time>
      </trkpt>
      <trkpt lat="41.5631370" lon="-0.9243290">
        <ele>387.6</ele>
        <time>2020-12-31T14:25:43Z</time>
      </trkpt>
      <trkpt lat="41.5632200" lon="-0.9244740">
        <ele>386.6</ele>
        <time>2020-12-31T14:25:45Z</time>
      </trkpt>
      <trkpt lat="41.5632560" lon="-0.9246380">
        <ele>385.8</ele>
        <time>2020-12-31T14:25:47Z</time>
      </trkpt>
      <trkpt lat="41.5632630" lon="-0.9248090">
        <ele>384.9</ele>
        <time>2020-12-31T14:25:49Z</time>
      </trkpt>
      <trkpt lat="41.5632910" lon="-0.9248900">
        <ele>384.5</ele>
        <time>2020-12-31T14:25:50Z</time>
      </trkpt>
      <trkpt lat="41.5633040" lon="-0.9250630">
        <ele>383.6</ele>
        <time>2020-12-31T14:25:52Z</time>
      </trkpt>
      <trkpt lat="41.5632910" lon="-0.9252470">
        <ele>383.0</ele>
        <time>2020-12-31T14:25:54Z</time>
      </trkpt>
      <trkpt lat="41.5632870" lon="-0.9253340">
        <ele>382.8</ele>
        <time>2020-12-31T14:25:55Z</time>
      </trkpt>
      <trkpt lat="41.5633180" lon="-0.9254100">
        <ele>382.6</ele>
        <time>2020-12-31T14:25:56Z</time>
      </trkpt>
      <trkpt lat="41.5633950" lon="-0.9255410">
        <ele>382.1</ele>
        <time>2020-12-31T14:25:58Z</time>
      </trkpt>
      <trkpt lat="41.5634310" lon="-0.9255980">
        <ele>381.9</ele>
        <time>2020-12-31T14:25:59Z</time>
      </trkpt>
      <trkpt lat="41.5634910" lon="-0.9256120">
        <ele>381.6</ele>
        <time>2020-12-31T14:26:00Z</time>
      </trkpt>
      <trkpt lat="41.5635340" lon="-0.9256470">
        <ele>381.4</ele>
        <time>2020-12-31T14:26:01Z</time>
      </trkpt>
      <trkpt lat="41.5635770" lon="-0.9256990">
        <ele>381.1</ele>
        <time>2020-12-31T14:26:02Z</time>
      </trkpt>
      <trkpt lat="41.5636360" lon="-0.9257190">
        <ele>380.8</ele>
        <time>2020-12-31T14:26:03Z</time>
      </trkpt>
      <trkpt lat="41.5636900" lon="-0.9257830">
        <ele>380.4</ele>
        <time>2020-12-31T14:26:05Z</time>
      </trkpt>
      <trkpt lat="41.5636850" lon="-0.9258240">
        <ele>380.2</ele>
        <time>2020-12-31T14:26:06Z</time>
      </trkpt>
      <trkpt lat="41.5636920" lon="-0.9259120">
        <ele>379.8</ele>
        <time>2020-12-31T14:26:08Z</time>
      </trkpt>
      <trkpt lat="41.5637140" lon="-0.9259620">
        <ele>379.5</ele>
        <time>2020-12-31T14:26:09Z</time>
      </trkpt>
      <trkpt lat="41.5637440" lon="-0.9260220">
        <ele>379.1</ele>
        <time>2020-12-31T14:26:10Z</time>
      </trkpt>
      <trkpt lat="41.5637540" lon="-0.9261750">
        <ele>378.4</ele>
        <time>2020-12-31T14:26:12Z</time>
      </trkpt>
      <trkpt lat="41.5637510" lon="-0.9263250">
        <ele>377.9</ele>
        <time>2020-12-31T14:26:14Z</time>
      </trkpt>
      <trkpt lat="41.5637800" lon="-0.9263850">
        <ele>377.7</ele>
        <time>2020-12-31T14:26:15Z</time>
      </trkpt>
      <trkpt lat="41.5638230" lon="-0.9264440">
        <ele>377.4</ele>
        <time>2020-12-31T14:26:16Z</time>
      </trkpt>
      <trkpt lat="41.5638950" lon="-0.9265380">
        <ele>376.8</ele>
        <time>2020-12-31T14:26:18Z</time>
      </trkpt>
      <trkpt lat="41.5639380" lon="-0.9266720">
        <ele>376.0</ele>
        <time>2020-12-31T14:26:20Z</time>
      </trkpt>
      <trkpt lat="41.5639750" lon="-0.9267270">
        <ele>375.4</ele>
        <time>2020-12-31T14:26:22Z</time>
      </trkpt>
      <trkpt lat="41.5639870" lon="-0.9267620">
        <ele>375.1</ele>
        <time>2020-12-31T14:26:23Z</time>
      </trkpt>
      <trkpt lat="41.5639720" lon="-0.9269020">
        <ele>373.9</ele>
        <time>2020-12-31T14:26:25Z</time>
      </trkpt>
      <trkpt lat="41.5639830" lon="-0.9269700">
        <ele>373.3</ele>
        <time>2020-12-31T14:26:26Z</time>
      </trkpt>
      <trkpt lat="41.5640010" lon="-0.9271070">
        <ele>372.4</ele>
        <time>2020-12-31T14:26:28Z</time>
      </trkpt>
      <trkpt lat="41.5640630" lon="-0.9272270">
        <ele>371.6</ele>
        <time>2020-12-31T14:26:30Z</time>
      </trkpt>
      <trkpt lat="41.5641030" lon="-0.9273680">
        <ele>370.8</ele>
        <time>2020-12-31T14:26:32Z</time>
      </trkpt>
      <trkpt lat="41.5641470" lon="-0.9275180">
        <ele>370.1</ele>
        <time>2020-12-31T14:26:34Z</time>
      </trkpt>
      <trkpt lat="41.5641890" lon="-0.9276140">
        <ele>369.7</ele>
        <time>2020-12-31T14:26:36Z</time>
      </trkpt>
      <trkpt lat="41.5641810" lon="-0.9277000">
        <ele>369.2</ele>
        <time>2020-12-31T14:26:38Z</time>
      </trkpt>
      <trkpt lat="41.5641890" lon="-0.9277610">
        <ele>368.9</ele>
        <time>2020-12-31T14:26:39Z</time>
      </trkpt>
      <trkpt lat="41.5642270" lon="-0.9278140">
        <ele>368.4</ele>
        <time>2020-12-31T14:26:40Z</time>
      </trkpt>
      <trkpt lat="41.5642840" lon="-0.9279440">
        <ele>367.5</ele>
        <time>2020-12-31T14:26:42Z</time>
      </trkpt>
      <trkpt lat="41.5643190" lon="-0.9279940">
        <ele>367.0</ele>
        <time>2020-12-31T14:26:43Z</time>
      </trkpt>
      <trkpt lat="41.5643390" lon="-0.9280230">
        <ele>366.8</ele>
        <time>2020-12-31T14:26:44Z</time>
      </trkpt>
      <trkpt lat="41.5643440" lon="-0.9281220">
        <ele>366.1</ele>
        <time>2020-12-31T14:26:46Z</time>
      </trkpt>
      <trkpt lat="41.5643650" lon="-0.9281900">
        <ele>365.6</ele>
        <time>2020-12-31T14:26:47Z</time>
      </trkpt>
      <trkpt lat="41.5643880" lon="-0.9283350">
        <ele>364.7</ele>
        <time>2020-12-31T14:26:49Z</time>
      </trkpt>
      <trkpt lat="41.5643820" lon="-0.9284100">
        <ele>364.2</ele>
        <time>2020-12-31T14:26:50Z</time>
      </trkpt>
      <trkpt lat="41.5643840" lon="-0.9284820">
        <ele>363.8</ele>
        <time>2020-12-31T14:26:51Z</time>
      </trkpt>
      <trkpt lat="41.5644280" lon="-0.9285640">
        <ele>363.2</ele>
        <time>2020-12-31T14:26:53Z</time>
      </trkpt>
      <trkpt lat="41.5644510" lon="-0.9285850">
        <ele>362.9</ele>
        <time>2020-12-31T14:26:54Z</time>
      </trkpt>
      <trkpt lat="41.5644740" lon="-0.9286470">
        <ele>362.5</ele>
        <time>2020-12-31T14:26:56Z</time>
      </trkpt>
      <trkpt lat="41.5644770" lon="-0.9287030">
        <ele>362.0</ele>
        <time>2020-12-31T14:26:57Z</time>
      </trkpt>
      <trkpt lat="41.5644640" lon="-0.9287690">
        <ele>361.5</ele>
        <time>2020-12-31T14:26:58Z</time>
      </trkpt>
      <trkpt lat="41.5644560" lon="-0.9288310">
        <ele>361.0</ele>
        <time>2020-12-31T14:26:59Z</time>
      </trkpt>
      <trkpt lat="41.5644700" lon="-0.9288940">
        <ele>360.4</ele>
        <time>2020-12-31T14:27:00Z</time>
      </trkpt>
      <trkpt lat="41.5644930" lon="-0.9290370">
        <ele>359.4</ele>
        <time>2020-12-31T14:27:02Z</time>
      </trkpt>
      <trkpt lat="41.5645340" lon="-0.9291990">
        <ele>358.3</ele>
        <time>2020-12-31T14:27:04Z</time>
      </trkpt>
      <trkpt lat="41.5645600" lon="-0.9293430">
        <ele>357.4</ele>
        <time>2020-12-31T14:27:06Z</time>
      </trkpt>
      <trkpt lat="41.5645720" lon="-0.9294080">
        <ele>357.0</ele>
        <time>2020-12-31T14:27:07Z</time>
      </trkpt>
      <trkpt lat="41.5645640" lon="-0.9294430">
        <ele>356.7</ele>
        <time>2020-12-31T14:27:08Z</time>
      </trkpt>
      <trkpt lat="41.5645490" lon="-0.9295100">
        <ele>356.1</ele>
        <time>2020-12-31T14:27:10Z</time>
      </trkpt>
      <trkpt lat="41.5645670" lon="-0.9295700">
        <ele>355.6</ele>
        <time>2020-12-31T14:27:11Z</time>
      </trkpt>
      <trkpt lat="41.5645840" lon="-0.9296240">
        <ele>355.1</ele>
        <time>2020-12-31T14:27:13Z</time>
      </trkpt>
      <trkpt lat="41.5645990" lon="-0.9296820">
        <ele>354.6</ele>
        <time>2020-12-31T14:27:14Z</time>
      </trkpt>
      <trkpt lat="41.5646180" lon="-0.9297540">
        <ele>354.1</ele>
        <time>2020-12-31T14:27:15Z</time>
      </trkpt>
      <trkpt lat="41.5646490" lon="-0.9298410">
        <ele>353.5</ele>
        <time>2020-12-31T14:27:17Z</time>
      </trkpt>
      <trkpt lat="41.5646690" lon="-0.9299430">
        <ele>353.0</ele>
        <time>2020-12-31T14:27:19Z</time>
      </trkpt>
      <trkpt lat="41.5646780" lon="-0.9300140">
        <ele>352.6</ele>
        <time>2020-12-31T14:27:20Z</time>
      </trkpt>
      <trkpt lat="41.5647040" lon="-0.9300770">
        <ele>352.4</ele>
        <time>2020-12-31T14:27:21Z</time>
      </trkpt>
      <trkpt lat="41.5647330" lon="-0.9301280">
        <ele>352.1</ele>
        <time>2020-12-31T14:27:22Z</time>
      </trkpt>
      <trkpt lat="41.5647380" lon="-0.9301320">
        <ele>352.1</ele>
        <time>2020-12-31T14:27:23Z</time>
      </trkpt>
      <trkpt lat="41.5647570" lon="-0.9301570">
        <ele>351.9</ele>
        <time>2020-12-31T14:27:25Z</time>
      </trkpt>
      <trkpt lat="41.5647930" lon="-0.9302020">
        <ele>351.7</ele>
        <time>2020-12-31T14:27:27Z</time>
      </trkpt>
      <trkpt lat="41.5648120" lon="-0.9302610">
        <ele>351.4</ele>
        <time>2020-12-31T14:27:28Z</time>
      </trkpt>
      <trkpt lat="41.5647990" lon="-0.9303160">
        <ele>351.1</ele>
        <time>2020-12-31T14:27:29Z</time>
      </trkpt>
      <trkpt lat="41.5648290" lon="-0.9303910">
        <ele>350.7</ele>
        <time>2020-12-31T14:27:30Z</time>
      </trkpt>
      <trkpt lat="41.5648610" lon="-0.9304320">
        <ele>350.4</ele>
        <time>2020-12-31T14:27:31Z</time>
      </trkpt>
      <trkpt lat="41.5649160" lon="-0.9305260">
        <ele>349.8</ele>
        <time>2020-12-31T14:27:33Z</time>
      </trkpt>
      <trkpt lat="41.5649460" lon="-0.9305760">
        <ele>349.5</ele>
        <time>2020-12-31T14:27:34Z</time>
      </trkpt>
      <trkpt lat="41.5649700" lon="-0.9306290">
        <ele>349.3</ele>
        <time>2020-12-31T14:27:35Z</time>
      </trkpt>
      <trkpt lat="41.5649420" lon="-0.9306640">
        <ele>349.0</ele>
        <time>2020-12-31T14:27:36Z</time>
      </trkpt>
      <trkpt lat="41.5649500" lon="-0.9306970">
        <ele>348.9</ele>
        <time>2020-12-31T14:27:37Z</time>
      </trkpt>
      <trkpt lat="41.5649270" lon="-0.9308210">
        <ele>348.2</ele>
        <time>2020-12-31T14:27:39Z</time>
      </trkpt>
      <trkpt lat="41.5649250" lon="-0.9309600">
        <ele>347.4</ele>
        <time>2020-12-31T14:27:41Z</time>
      </trkpt>
      <trkpt lat="41.5649180" lon="-0.9310250">
        <ele>347.1</ele>
        <time>2020-12-31T14:27:42Z</time>
      </trkpt>
      <trkpt lat="41.5649210" lon="-0.9310960">
        <ele>346.8</ele>
        <time>2020-12-31T14:27:43Z</time>
      </trkpt>
      <trkpt lat="41.5648830" lon="-0.9312330">
        <ele>346.2</ele>
        <time>2020-12-31T14:27:45Z</time>
      </trkpt>
      <trkpt lat="41.5648770" lon="-0.9312980">
        <ele>345.9</ele>
        <time>2020-12-31T14:27:46Z</time>
      </trkpt>
      <trkpt lat="41.5648670" lon="-0.9313250">
        <ele>345.8</ele>
        <time>2020-12-31T14:27:47Z</time>
      </trkpt>
      <trkpt lat="41.5648830" lon="-0.9313640">
        <ele>345.6</ele>
        <time>2020-12-31T14:27:49Z</time>
      </trkpt>
      <trkpt lat="41.5648880" lon="-0.9314180">
        <ele>345.3</ele>
        <time>2020-12-31T14:27:50Z</time>
      </trkpt>
      <trkpt lat="41.5648980" lon="-0.9315780">
        <ele>344.5</ele>
        <time>2020-12-31T14:27:52Z</time>
      </trkpt>
      <trkpt lat="41.5649140" lon="-0.9317260">
        <ele>343.9</ele>
        <time>2020-12-31T14:27:54Z</time>
      </trkpt>
      <trkpt lat="41.5649240" lon="-0.9318700">
        <ele>343.4</ele>
        <time>2020-12-31T14:27:56Z</time>
      </trkpt>
      <trkpt lat="41.5649150" lon="-0.9319980">
        <ele>342.9</ele>
        <time>2020-12-31T14:27:58Z</time>
      </trkpt>
      <trkpt lat="41.5649070" lon="-0.9320650">
        <ele>342.7</ele>
        <time>2020-12-31T14:27:59Z</time>
      </trkpt>
      <trkpt lat="41.5649170" lon="-0.9321840">
        <ele>342.3</ele>
        <time>2020-12-31T14:28:01Z</time>
      </trkpt>
      <trkpt lat="41.5649240" lon="-0.9322480">
        <ele>342.1</ele>
        <time>2020-12-31T14:28:02Z</time>
      </trkpt>
      <trkpt lat="41.5649370" lon="-0.9323820">
        <ele>341.7</ele>
        <time>2020-12-31T14:28:04Z</time>
      </trkpt>
      <trkpt lat="41.5649510" lon="-0.9324520">
        <ele>341.5</ele>
        <time>2020-12-31T14:28:05Z</time>
      </trkpt>
      <trkpt lat="41.5649700" lon="-0.9325220">
        <ele>341.3</ele>
        <time>2020-12-31T14:28:06Z</time>
      </trkpt>
      <trkpt lat="41.5649900" lon="-0.9325930">
        <ele>341.1</ele>
        <time>2020-12-31T14:28:08Z</time>
      </trkpt>
      <trkpt lat="41.5650080" lon="-0.9326770">
        <ele>340.8</ele>
        <time>2020-12-31T14:28:10Z</time>
      </trkpt>
      <trkpt lat="41.5650450" lon="-0.9327700">
        <ele>340.4</ele>
        <time>2020-12-31T14:28:12Z</time>
      </trkpt>
      <trkpt lat="41.5650830" lon="-0.9328450">
        <ele>340.0</ele>
        <time>2020-12-31T14:28:13Z</time>
      </trkpt>
      <trkpt lat="41.5651530" lon="-0.9328820">
        <ele>339.6</ele>
        <time>2020-12-31T14:28:15Z</time>
      </trkpt>
      <trkpt lat="41.5651890" lon="-0.9329080">
        <ele>339.3</ele>
        <time>2020-12-31T14:28:16Z</time>
      </trkpt>
      <trkpt lat="41.5652170" lon="-0.9329770">
        <ele>339.0</ele>
        <time>2020-12-31T14:28:18Z</time>
      </trkpt>
      <trkpt lat="41.5652090" lon="-0.9330380">
        <ele>338.7</ele>
        <time>2020-12-31T14:28:19Z</time>
      </trkpt>
      <trkpt lat="41.5652180" lon="-0.9330540">
        <ele>338.6</ele>
        <time>2020-12-31T14:28:20Z</time>
      </trkpt>
      <trkpt lat="41.5652220" lon="-0.9330650">
        <ele>338.5</ele>
        <time>2020-12-31T14:28:22Z</time>
      </trkpt>
      <trkpt lat="41.5652260" lon="-0.9330750">
        <ele>338.5</ele>
        <time>2020-12-31T14:28:23Z</time>
      </trkpt>
      <trkpt lat="41.5652300" lon="-0.9330860">
        <ele>338.4</ele>
        <time>2020-12-31T14:28:24Z</time>
      </trkpt>
      <trkpt lat="41.5652480" lon="-0.9331320">
        <ele>338.2</ele>
        <time>2020-12-31T14:28:26Z</time>
      </trkpt>
      <trkpt lat="41.5652620" lon="-0.9331760">
        <ele>338.0</ele>
        <time>2020-12-31T14:28:27Z</time>
      </trkpt>
      <trkpt lat="41.5652690" lon="-0.9331890">
        <ele>337.9</ele>
        <time>2020-12-31T14:28:28Z</time>
      </trkpt>
      <trkpt lat="41.5652960" lon="-0.9332150">
        <ele>337.7</ele>
        <time>2020-12-31T14:28:29Z</time>
      </trkpt>
      <trkpt lat="41.5652890" lon="-0.9332740">
        <ele>337.5</ele>
        <time>2020-12-31T14:28:31Z</time>
      </trkpt>
      <trkpt lat="41.5652800" lon="-0.9332910">
        <ele>337.4</ele>
        <time>2020-12-31T14:28:32Z</time>
      </trkpt>
      <trkpt lat="41.5652700" lon="-0.9333080">
        <ele>337.3</ele>
        <time>2020-12-31T14:28:33Z</time>
      </trkpt>
      <trkpt lat="41.5652690" lon="-0.9333440">
        <ele>337.1</ele>
        <time>2020-12-31T14:28:34Z</time>
      </trkpt>
      <trkpt lat="41.5652970" lon="-0.9333860">
        <ele>336.8</ele>
        <time>2020-12-31T14:28:36Z</time>
      </trkpt>
      <trkpt lat="41.5653270" lon="-0.9334400">
        <ele>336.4</ele>
        <time>2020-12-31T14:28:38Z</time>
      </trkpt>
      <trkpt lat="41.5653400" lon="-0.9334770">
        <ele>336.2</ele>
        <time>2020-12-31T14:28:39Z</time>
      </trkpt>
      <trkpt lat="41.5653420" lon="-0.9334900">
        <ele>336.1</ele>
        <time>2020-12-31T14:28:40Z</time>
      </trkpt>
      <trkpt lat="41.5653520" lon="-0.9335340">
        <ele>335.9</ele>
        <time>2020-12-31T14:28:42Z</time>
      </trkpt>
      <trkpt lat="41.5653550" lon="-0.9335460">
        <ele>335.8</ele>
        <time>2020-12-31T14:28:43Z</time>
      </trkpt>
      <trkpt lat="41.5653800" lon="-0.9335840">
        <ele>335.5</ele>
        <time>2020-12-31T14:28:45Z</time>
      </trkpt>
      <trkpt lat="41.5654020" lon="-0.9336310">
        <ele>335.1</ele>
        <time>2020-12-31T14:28:46Z</time>
      </trkpt>
      <trkpt lat="41.5654070" lon="-0.9336780">
        <ele>334.7</ele>
        <time>2020-12-31T14:28:47Z</time>
      </trkpt>
      <trkpt lat="41.5654000" lon="-0.9337310">
        <ele>334.4</ele>
        <time>2020-12-31T14:28:48Z</time>
      </trkpt>
      <trkpt lat="41.5653800" lon="-0.9337840">
        <ele>333.9</ele>
        <time>2020-12-31T14:28:50Z</time>
      </trkpt>
      <trkpt lat="41.5653680" lon="-0.9338230">
        <ele>333.6</ele>
        <time>2020-12-31T14:28:51Z</time>
      </trkpt>
      <trkpt lat="41.5653900" lon="-0.9339080">
        <ele>333.0</ele>
        <time>2020-12-31T14:28:53Z</time>
      </trkpt>
      <trkpt lat="41.5654020" lon="-0.9339720">
        <ele>332.6</ele>
        <time>2020-12-31T14:28:54Z</time>
      </trkpt>
      <trkpt lat="41.5653820" lon="-0.9340310">
        <ele>332.3</ele>
        <time>2020-12-31T14:28:55Z</time>
      </trkpt>
      <trkpt lat="41.5653110" lon="-0.9341180">
        <ele>331.6</ele>
        <time>2020-12-31T14:28:57Z</time>
      </trkpt>
      <trkpt lat="41.5652380" lon="-0.9342100">
        <ele>331.1</ele>
        <time>2020-12-31T14:28:59Z</time>
      </trkpt>
      <trkpt lat="41.5652040" lon="-0.9342590">
        <ele>330.9</ele>
        <time>2020-12-31T14:29:00Z</time>
      </trkpt>
      <trkpt lat="41.5651700" lon="-0.9342990">
        <ele>330.8</ele>
        <time>2020-12-31T14:29:01Z</time>
      </trkpt>
      <trkpt lat="41.5651160" lon="-0.9343700">
        <ele>330.6</ele>
        <time>2020-12-31T14:29:03Z</time>
      </trkpt>
      <trkpt lat="41.5651150" lon="-0.9343750">
        <ele>330.6</ele>
        <time>2020-12-31T14:29:04Z</time>
      </trkpt>
      <trkpt lat="41.5650870" lon="-0.9344260">
        <ele>330.6</ele>
        <time>2020-12-31T14:29:06Z</time>
      </trkpt>
      <trkpt lat="41.5650890" lon="-0.9344660">
        <ele>330.6</ele>
        <time>2020-12-31T14:29:07Z</time>
      </trkpt>
      <trkpt lat="41.5650700" lon="-0.9345120">
        <ele>330.7</ele>
        <time>2020-12-31T14:29:08Z</time>
      </trkpt>
      <trkpt lat="41.5650520" lon="-0.9345460">
        <ele>330.8</ele>
        <time>2020-12-31T14:29:09Z</time>
      </trkpt>
      <trkpt lat="41.5650470" lon="-0.9345550">
        <ele>330.8</ele>
        <time>2020-12-31T14:29:10Z</time>
      </trkpt>
      <trkpt lat="41.5650260" lon="-0.9345800">
        <ele>330.8</ele>
        <time>2020-12-31T14:29:12Z</time>
      </trkpt>
      <trkpt lat="41.5649890" lon="-0.9346420">
        <ele>330.7</ele>
        <time>2020-12-31T14:29:14Z</time>
      </trkpt>
      <trkpt lat="41.5648940" lon="-0.9346860">
        <ele>330.3</ele>
        <time>2020-12-31T14:29:15Z</time>
      </trkpt>
      <trkpt lat="41.5648420" lon="-0.9347160">
        <ele>330.0</ele>
        <time>2020-12-31T14:29:16Z</time>
      </trkpt>
      <trkpt lat="41.5647610" lon="-0.9347800">
        <ele>329.2</ele>
        <time>2020-12-31T14:29:18Z</time>
      </trkpt>
      <trkpt lat="41.5647700" lon="-0.9348680">
        <ele>328.6</ele>
        <time>2020-12-31T14:29:20Z</time>
      </trkpt>
      <trkpt lat="41.5647750" lon="-0.9349100">
        <ele>328.3</ele>
        <time>2020-12-31T14:29:21Z</time>
      </trkpt>
      <trkpt lat="41.5647880" lon="-0.9349770">
        <ele>327.8</ele>
        <time>2020-12-31T14:29:22Z</time>
      </trkpt>
      <trkpt lat="41.5648100" lon="-0.9351110">
        <ele>326.8</ele>
        <time>2020-12-31T14:29:24Z</time>
      </trkpt>
      <trkpt lat="41.5648050" lon="-0.9351780">
        <ele>326.4</ele>
        <time>2020-12-31T14:29:25Z</time>
      </trkpt>
      <trkpt lat="41.5648010" lon="-0.9352390">
        <ele>326.0</ele>
        <time>2020-12-31T14:29:26Z</time>
      </trkpt>
      <trkpt lat="41.5648090" lon="-0.9353080">
        <ele>325.6</ele>
        <time>2020-12-31T14:29:27Z</time>
      </trkpt>
      <trkpt lat="41.5648240" lon="-0.9354360">
        <ele>324.9</ele>
        <time>2020-12-31T14:29:29Z</time>
      </trkpt>
      <trkpt lat="41.5648370" lon="-0.9354630">
        <ele>324.7</ele>
        <time>2020-12-31T14:29:30Z</time>
      </trkpt>
      <trkpt lat="41.5648440" lon="-0.9354840">
        <ele>324.6</ele>
        <time>2020-12-31T14:29:31Z</time>
      </trkpt>
      <trkpt lat="41.5648620" lon="-0.9355170">
        <ele>324.3</ele>
        <time>2020-12-31T14:29:32Z</time>
      </trkpt>
      <trkpt lat="41.5648820" lon="-0.9355800">
        <ele>324.0</ele>
        <time>2020-12-31T14:29:34Z</time>
      </trkpt>
      <trkpt lat="41.5649200" lon="-0.9356790">
        <ele>323.6</ele>
        <time>2020-12-31T14:29:36Z</time>
      </trkpt>
      <trkpt lat="41.5649230" lon="-0.9357670">
        <ele>323.3</ele>
        <time>2020-12-31T14:29:38Z</time>
      </trkpt>
      <trkpt lat="41.5649250" lon="-0.9358130">
        <ele>323.2</ele>
        <time>2020-12-31T14:29:39Z</time>
      </trkpt>
      <trkpt lat="41.5649360" lon="-0.9358600">
        <ele>323.1</ele>
        <time>2020-12-31T14:29:40Z</time>
      </trkpt>
      <trkpt lat="41.5649280" lon="-0.9359090">
        <ele>323.0</ele>
        <time>2020-12-31T14:29:42Z</time>
      </trkpt>
      <trkpt lat="41.5649130" lon="-0.9360440">
        <ele>322.8</ele>
        <time>2020-12-31T14:29:44Z</time>
      </trkpt>
      <trkpt lat="41.5649060" lon="-0.9361810">
        <ele>322.6</ele>
        <time>2020-12-31T14:29:46Z</time>
      </trkpt>
      <trkpt lat="41.5649620" lon="-0.9362810">
        <ele>322.3</ele>
        <time>2020-12-31T14:29:48Z</time>
      </trkpt>
      <trkpt lat="41.5649740" lon="-0.9363390">
        <ele>322.2</ele>
        <time>2020-12-31T14:29:49Z</time>
      </trkpt>
      <trkpt lat="41.5649680" lon="-0.9364470">
        <ele>322.1</ele>
        <time>2020-12-31T14:29:51Z</time>
      </trkpt>
      <trkpt lat="41.5649440" lon="-0.9365030">
        <ele>322.0</ele>
        <time>2020-12-31T14:29:52Z</time>
      </trkpt>
      <trkpt lat="41.5649330" lon="-0.9365770">
        <ele>321.8</ele>
        <time>2020-12-31T14:29:53Z</time>
      </trkpt>
      <trkpt lat="41.5649520" lon="-0.9366750">
        <ele>321.7</ele>
        <time>2020-12-31T14:29:55Z</time>
      </trkpt>
      <trkpt lat="41.5649380" lon="-0.9367380">
        <ele>321.6</ele>
        <time>2020-12-31T14:29:56Z</time>
      </trkpt>
      <trkpt lat="41.5648990" lon="-0.9367930">
        <ele>321.5</ele>
        <time>2020-12-31T14:29:58Z</time>
      </trkpt>
      <trkpt lat="41.5649050" lon="-0.9368990">
        <ele>321.3</ele>
        <time>2020-12-31T14:30:00Z</time>
      </trkpt>
      <trkpt lat="41.5649220" lon="-0.9369480">
        <ele>321.2</ele>
        <time>2020-12-31T14:30:01Z</time>
      </trkpt>
      <trkpt lat="41.5649390" lon="-0.9370680">
        <ele>320.9</ele>
        <time>2020-12-31T14:30:03Z</time>
      </trkpt>
      <trkpt lat="41.5649000" lon="-0.9371180">
        <ele>320.7</ele>
        <time>2020-12-31T14:30:05Z</time>
      </trkpt>
      <trkpt lat="41.5648710" lon="-0.9371860">
        <ele>320.6</ele>
        <time>2020-12-31T14:30:06Z</time>
      </trkpt>
      <trkpt lat="41.5648210" lon="-0.9372070">
        <ele>320.4</ele>
        <time>2020-12-31T14:30:07Z</time>
      </trkpt>
      <trkpt lat="41.5647950" lon="-0.9372500">
        <ele>320.3</ele>
        <time>2020-12-31T14:30:09Z</time>
      </trkpt>
      <trkpt lat="41.5647760" lon="-0.9373300">
        <ele>320.0</ele>
        <time>2020-12-31T14:30:10Z</time>
      </trkpt>
      <trkpt lat="41.5647590" lon="-0.9373960">
        <ele>319.8</ele>
        <time>2020-12-31T14:30:11Z</time>
      </trkpt>
      <trkpt lat="41.5647430" lon="-0.9374470">
        <ele>319.7</ele>
        <time>2020-12-31T14:30:12Z</time>
      </trkpt>
      <trkpt lat="41.5647260" lon="-0.9374910">
        <ele>319.6</ele>
        <time>2020-12-31T14:30:14Z</time>
      </trkpt>
      <trkpt lat="41.5647020" lon="-0.9375400">
        <ele>319.5</ele>
        <time>2020-12-31T14:30:15Z</time>
      </trkpt>
      <trkpt lat="41.5646790" lon="-0.9375910">
        <ele>319.4</ele>
        <time>2020-12-31T14:30:16Z</time>
      </trkpt>
      <trkpt lat="41.5646560" lon="-0.9376380">
        <ele>319.4</ele>
        <time>2020-12-31T14:30:17Z</time>
      </trkpt>
      <trkpt lat="41.5646340" lon="-0.9376900">
        <ele>319.3</ele>
        <time>2020-12-31T14:30:18Z</time>
      </trkpt>
      <trkpt lat="41.5646120" lon="-0.9377460">
        <ele>319.3</ele>
        <time>2020-12-31T14:30:19Z</time>
      </trkpt>
      <trkpt lat="41.5645800" lon="-0.9378430">
        <ele>319.2</ele>
        <time>2020-12-31T14:30:21Z</time>
      </trkpt>
      <trkpt lat="41.5646040" lon="-0.9378750">
        <ele>319.2</ele>
        <time>2020-12-31T14:30:23Z</time>
      </trkpt>
      <trkpt lat="41.5646060" lon="-0.9378880">
        <ele>319.1</ele>
        <time>2020-12-31T14:30:24Z</time>
      </trkpt>
      <trkpt lat="41.5646100" lon="-0.9378870">
        <ele>319.1</ele>
        <time>2020-12-31T14:30:25Z</time>
      </trkpt>
      <trkpt lat="41.5646180" lon="-0.9379160">
        <ele>319.0</ele>
        <time>2020-12-31T14:30:27Z</time>
      </trkpt>
      <trkpt lat="41.5646380" lon="-0.9379450">
        <ele>318.9</ele>
        <time>2020-12-31T14:30:28Z</time>
      </trkpt>
      <trkpt lat="41.5646260" lon="-0.9379920">
        <ele>318.8</ele>
        <time>2020-12-31T14:30:30Z</time>
      </trkpt>
      <trkpt lat="41.5646140" lon="-0.9380050">
        <ele>318.7</ele>
        <time>2020-12-31T14:30:31Z</time>
      </trkpt>
      <trkpt lat="41.5645870" lon="-0.9380390">
        <ele>318.5</ele>
        <time>2020-12-31T14:30:32Z</time>
      </trkpt>
      <trkpt lat="41.5645440" lon="-0.9380820">
        <ele>318.2</ele>
        <time>2020-12-31T14:30:33Z</time>
      </trkpt>
      <trkpt lat="41.5645020" lon="-0.9381560">
        <ele>317.8</ele>
        <time>2020-12-31T14:30:35Z</time>
      </trkpt>
      <trkpt lat="41.5644880" lon="-0.9382130">
        <ele>317.6</ele>
        <time>2020-12-31T14:30:36Z</time>
      </trkpt>
      <trkpt lat="41.5644710" lon="-0.9383020">
        <ele>317.3</ele>
        <time>2020-12-31T14:30:38Z</time>
      </trkpt>
      <trkpt lat="41.5644550" lon="-0.9383660">
        <ele>317.1</ele>
        <time>2020-12-31T14:30:39Z</time>
      </trkpt>
      <trkpt lat="41.5644320" lon="-0.9384510">
        <ele>316.8</ele>
        <time>2020-12-31T14:30:41Z</time>
      </trkpt>
      <trkpt lat="41.5644070" lon="-0.9384720">
        <ele>316.7</ele>
        <time>2020-12-31T14:30:42Z</time>
      </trkpt>
      <trkpt lat="41.5643800" lon="-0.9385040">
        <ele>316.5</ele>
        <time>2020-12-31T14:30:43Z</time>
      </trkpt>
      <trkpt lat="41.5643620" lon="-0.9385460">
        <ele>316.4</ele>
        <time>2020-12-31T14:30:45Z</time>
      </trkpt>
      <trkpt lat="41.5643570" lon="-0.9385660">
        <ele>316.3</ele>
        <time>2020-12-31T14:30:46Z</time>
      </trkpt>
      <trkpt lat="41.5643500" lon="-0.9386320">
        <ele>316.1</ele>
        <time>2020-12-31T14:30:48Z</time>
      </trkpt>
      <trkpt lat="41.5643420" lon="-0.9386760">
        <ele>315.9</ele>
        <time>2020-12-31T14:30:49Z</time>
      </trkpt>
      <trkpt lat="41.5643430" lon="-0.9387260">
        <ele>315.7</ele>
        <time>2020-12-31T14:30:50Z</time>
      </trkpt>
      <trkpt lat="41.5643460" lon="-0.9388250">
        <ele>315.4</ele>
        <time>2020-12-31T14:30:52Z</time>
      </trkpt>
      <trkpt lat="41.5643450" lon="-0.9388720">
        <ele>315.2</ele>
        <time>2020-12-31T14:30:53Z</time>
      </trkpt>
      <trkpt lat="41.5643480" lon="-0.9389140">
        <ele>315.1</ele>
        <time>2020-12-31T14:30:54Z</time>
      </trkpt>
      <trkpt lat="41.5643510" lon="-0.9389500">
        <ele>314.9</ele>
        <time>2020-12-31T14:30:55Z</time>
      </trkpt>
      <trkpt lat="41.5643520" lon="-0.9389810">
        <ele>314.8</ele>
        <time>2020-12-31T14:30:56Z</time>
      </trkpt>
      <trkpt lat="41.5643470" lon="-0.9390280">
        <ele>314.7</ele>
        <time>2020-12-31T14:30:58Z</time>
      </trkpt>
      <trkpt lat="41.5643360" lon="-0.9390910">
        <ele>314.5</ele>
        <time>2020-12-31T14:30:59Z</time>
      </trkpt>
      <trkpt lat="41.5643330" lon="-0.9391400">
        <ele>314.4</ele>
        <time>2020-12-31T14:31:01Z</time>
      </trkpt>
      <trkpt lat="41.5643410" lon="-0.9391910">
        <ele>314.2</ele>
        <time>2020-12-31T14:31:02Z</time>
      </trkpt>
      <trkpt lat="41.5643500" lon="-0.9392420">
        <ele>314.1</ele>
        <time>2020-12-31T14:31:03Z</time>
      </trkpt>
      <trkpt lat="41.5643660" lon="-0.9392870">
        <ele>314.0</ele>
        <time>2020-12-31T14:31:05Z</time>
      </trkpt>
      <trkpt lat="41.5643840" lon="-0.9393370">
        <ele>313.9</ele>
        <time>2020-12-31T14:31:06Z</time>
      </trkpt>
      <trkpt lat="41.5644010" lon="-0.9394030">
        <ele>313.7</ele>
        <time>2020-12-31T14:31:08Z</time>
      </trkpt>
      <trkpt lat="41.5644070" lon="-0.9394410">
        <ele>313.7</ele>
        <time>2020-12-31T14:31:09Z</time>
      </trkpt>
      <trkpt lat="41.5644210" lon="-0.9394690">
        <ele>313.6</ele>
        <time>2020-12-31T14:31:10Z</time>
      </trkpt>
      <trkpt lat="41.5644280" lon="-0.9394850">
        <ele>313.6</ele>
        <time>2020-12-31T14:31:12Z</time>
      </trkpt>
      <trkpt lat="41.5644360" lon="-0.9395020">
        <ele>313.5</ele>
        <time>2020-12-31T14:31:13Z</time>
      </trkpt>
      <trkpt lat="41.5644430" lon="-0.9395190">
        <ele>313.5</ele>
        <time>2020-12-31T14:31:14Z</time>
      </trkpt>
      <trkpt lat="41.5644490" lon="-0.9395570">
        <ele>313.4</ele>
        <time>2020-12-31T14:31:15Z</time>
      </trkpt>
      <trkpt lat="41.5644540" lon="-0.9395900">
        <ele>313.4</ele>
        <time>2020-12-31T14:31:16Z</time>
      </trkpt>
      <trkpt lat="41.5644570" lon="-0.9396480">
        <ele>313.3</ele>
        <time>2020-12-31T14:31:18Z</time>
      </trkpt>
      <trkpt lat="41.5644480" lon="-0.9397090">
        <ele>313.1</ele>
        <time>2020-12-31T14:31:20Z</time>
      </trkpt>
      <trkpt lat="41.5644630" lon="-0.9397550">
        <ele>313.0</ele>
        <time>2020-12-31T14:31:21Z</time>
      </trkpt>
      <trkpt lat="41.5644660" lon="-0.9398050">
        <ele>312.9</ele>
        <time>2020-12-31T14:31:22Z</time>
      </trkpt>
      <trkpt lat="41.5644460" lon="-0.9398940">
        <ele>312.8</ele>
        <time>2020-12-31T14:31:24Z</time>
      </trkpt>
      <trkpt lat="41.5644400" lon="-0.9399560">
        <ele>312.6</ele>
        <time>2020-12-31T14:31:25Z</time>
      </trkpt>
      <trkpt lat="41.5644440" lon="-0.9399880">
        <ele>312.6</ele>
        <time>2020-12-31T14:31:26Z</time>
      </trkpt>
      <trkpt lat="41.5644490" lon="-0.9400090">
        <ele>312.5</ele>
        <time>2020-12-31T14:31:28Z</time>
      </trkpt>
      <trkpt lat="41.5644640" lon="-0.9400440">
        <ele>312.4</ele>
        <time>2020-12-31T14:31:29Z</time>
      </trkpt>
      <trkpt lat="41.5644770" lon="-0.9400770">
        <ele>312.4</ele>
        <time>2020-12-31T14:31:30Z</time>
      </trkpt>
      <trkpt lat="41.5644910" lon="-0.9401130">
        <ele>312.3</ele>
        <time>2020-12-31T14:31:31Z</time>
      </trkpt>
      <trkpt lat="41.5644970" lon="-0.9401500">
        <ele>312.2</ele>
        <time>2020-12-31T14:31:32Z</time>
      </trkpt>
      <trkpt lat="41.5645000" lon="-0.9401640">
        <ele>312.1</ele>
        <time>2020-12-31T14:31:33Z</time>
      </trkpt>
      <trkpt lat="41.5645140" lon="-0.9401990">
        <ele>312.1</ele>
        <time>2020-12-31T14:31:34Z</time>
      </trkpt>
      <trkpt lat="41.5645270" lon="-0.9402400">
        <ele>311.9</ele>
        <time>2020-12-31T14:31:36Z</time>
      </trkpt>
      <trkpt lat="41.5645370" lon="-0.9402730">
        <ele>311.9</ele>
        <time>2020-12-31T14:31:37Z</time>
      </trkpt>
      <trkpt lat="41.5645400" lon="-0.9402870">
        <ele>311.8</ele>
        <time>2020-12-31T14:31:39Z</time>
      </trkpt>
      <trkpt lat="41.5645410" lon="-0.9402950">
        <ele>311.8</ele>
        <time>2020-12-31T14:31:40Z</time>
      </trkpt>
      <trkpt lat="41.5645410" lon="-0.9402940">
        <ele>311.8</ele>
        <time>2020-12-31T14:31:42Z</time>
      </trkpt>
      <trkpt lat="41.5645400" lon="-0.9402930">
        <ele>311.8</ele>
        <time>2020-12-31T14:31:43Z</time>
      </trkpt>
      <trkpt lat="41.5645400" lon="-0.9402920">
        <ele>311.8</ele>
        <time>2020-12-31T14:31:44Z</time>
      </trkpt>
      <trkpt lat="41.5645410" lon="-0.9402950">
        <ele>311.8</ele>
        <time>2020-12-31T14:31:46Z</time>
      </trkpt>
      <trkpt lat="41.5645400" lon="-0.9402940">
        <ele>311.8</ele>
        <time>2020-12-31T14:31:47Z</time>
      </trkpt>
      <trkpt lat="41.5645420" lon="-0.9403010">
        <ele>311.8</ele>
        <time>2020-12-31T14:31:49Z</time>
      </trkpt>
      <trkpt lat="41.5645420" lon="-0.9403010">
        <ele>311.8</ele>
        <time>2020-12-31T14:31:50Z</time>
      </trkpt>
      <trkpt lat="41.5645420" lon="-0.9403020">
        <ele>311.8</ele>
        <time>2020-12-31T14:31:51Z</time>
      </trkpt>
      <trkpt lat="41.5645420" lon="-0.9403060">
        <ele>311.8</ele>
        <time>2020-12-31T14:31:53Z</time>
      </trkpt>
      <trkpt lat="41.5645420" lon="-0.9403110">
        <ele>311.8</ele>
        <time>2020-12-31T14:31:55Z</time>
      </trkpt>
      <trkpt lat="41.5645420" lon="-0.9403180">
        <ele>311.7</ele>
        <time>2020-12-31T14:31:56Z</time>
      </trkpt>
      <trkpt lat="41.5645440" lon="-0.9403250">
        <ele>311.7</ele>
        <time>2020-12-31T14:31:57Z</time>
      </trkpt>
      <trkpt lat="41.5645460" lon="-0.9403300">
        <ele>311.7</ele>
        <time>2020-12-31T14:31:58Z</time>
      </trkpt>
      <trkpt lat="41.5645460" lon="-0.9403380">
        <ele>311.7</ele>
        <time>2020-12-31T14:32:00Z</time>
      </trkpt>
      <trkpt lat="41.5645470" lon="-0.9403530">
        <ele>311.7</ele>
        <time>2020-12-31T14:32:01Z</time>
      </trkpt>
      <trkpt lat="41.5645480" lon="-0.9403570">
        <ele>311.7</ele>
        <time>2020-12-31T14:32:02Z</time>
      </trkpt>
      <trkpt lat="41.5645500" lon="-0.9403650">
        <ele>311.6</ele>
        <time>2020-12-31T14:32:03Z</time>
      </trkpt>
      <trkpt lat="41.5645520" lon="-0.9403710">
        <ele>311.6</ele>
        <time>2020-12-31T14:32:05Z</time>
      </trkpt>
      <trkpt lat="41.5645540" lon="-0.9403770">
        <ele>311.6</ele>
        <time>2020-12-31T14:32:06Z</time>
      </trkpt>
      <trkpt lat="41.5645610" lon="-0.9404080">
        <ele>311.5</ele>
        <time>2020-12-31T14:32:08Z</time>
      </trkpt>
      <trkpt lat="41.5645630" lon="-0.9404200">
        <ele>311.5</ele>
        <time>2020-12-31T14:32:09Z</time>
      </trkpt>
      <trkpt lat="41.5645630" lon="-0.9404350">
        <ele>311.5</ele>
        <time>2020-12-31T14:32:10Z</time>
      </trkpt>
      <trkpt lat="41.5645610" lon="-0.9404540">
        <ele>311.5</ele>
        <time>2020-12-31T14:32:11Z</time>
      </trkpt>
      <trkpt lat="41.5645560" lon="-0.9404760">
        <ele>311.5</ele>
        <time>2020-12-31T14:32:13Z</time>
      </trkpt>
      <trkpt lat="41.5645520" lon="-0.9404860">
        <ele>311.5</ele>
        <time>2020-12-31T14:32:14Z</time>
      </trkpt>
      <trkpt lat="41.5645490" lon="-0.9405000">
        <ele>311.4</ele>
        <time>2020-12-31T14:32:15Z</time>
      </trkpt>
      <trkpt lat="41.5645440" lon="-0.9405170">
        <ele>311.4</ele>
        <time>2020-12-31T14:32:17Z</time>
      </trkpt>
      <trkpt lat="41.5645310" lon="-0.9405200">
        <ele>311.4</ele>
        <time>2020-12-31T14:32:18Z</time>
      </trkpt>
      <trkpt lat="41.5645180" lon="-0.9405150">
        <ele>312.1</ele>
        <time>2020-12-31T14:32:19Z</time>
      </trkpt>
      <trkpt lat="41.5645060" lon="-0.9405090">
        <ele>312.2</ele>
        <time>2020-12-31T14:32:21Z</time>
      </trkpt>
      <trkpt lat="41.5644980" lon="-0.9405010">
        <ele>312.3</ele>
        <time>2020-12-31T14:32:22Z</time>
      </trkpt>
      <trkpt lat="41.5644910" lon="-0.9404890">
        <ele>312.5</ele>
        <time>2020-12-31T14:32:23Z</time>
      </trkpt>
      <trkpt lat="41.5644820" lon="-0.9404650">
        <ele>312.7</ele>
        <time>2020-12-31T14:32:25Z</time>
      </trkpt>
      <trkpt lat="41.5644800" lon="-0.9404530">
        <ele>312.9</ele>
        <time>2020-12-31T14:32:26Z</time>
      </trkpt>
      <trkpt lat="41.5644770" lon="-0.9404420">
        <ele>313.0</ele>
        <time>2020-12-31T14:32:27Z</time>
      </trkpt>
      <trkpt lat="41.5644740" lon="-0.9404180">
        <ele>313.3</ele>
        <time>2020-12-31T14:32:29Z</time>
      </trkpt>
      <trkpt lat="41.5644700" lon="-0.9404000">
        <ele>313.6</ele>
        <time>2020-12-31T14:32:31Z</time>
      </trkpt>
      <trkpt lat="41.5644650" lon="-0.9403860">
        <ele>313.8</ele>
        <time>2020-12-31T14:32:32Z</time>
      </trkpt>
      <trkpt lat="41.5644550" lon="-0.9403790">
        <ele>314.1</ele>
        <time>2020-12-31T14:32:33Z</time>
      </trkpt>
      <trkpt lat="41.5644440" lon="-0.9403730">
        <ele>314.3</ele>
        <time>2020-12-31T14:32:35Z</time>
      </trkpt>
      <trkpt lat="41.5644340" lon="-0.9403620">
        <ele>314.6</ele>
        <time>2020-12-31T14:32:36Z</time>
      </trkpt>
      <trkpt lat="41.5644270" lon="-0.9403530">
        <ele>314.8</ele>
        <time>2020-12-31T14:32:37Z</time>
      </trkpt>
      <trkpt lat="41.5644210" lon="-0.9403450">
        <ele>315.0</ele>
        <time>2020-12-31T14:32:39Z</time>
      </trkpt>
      <trkpt lat="41.5644190" lon="-0.9403430">
        <ele>315.0</ele>
        <time>2020-12-31T14:32:40Z</time>
      </trkpt>
      <trkpt lat="41.5644180" lon="-0.9403320">
        <ele>315.2</ele>
        <time>2020-12-31T14:32:42Z</time>
      </trkpt>
      <trkpt lat="41.5644190" lon="-0.9403210">
        <ele>315.4</ele>
        <time>2020-12-31T14:32:43Z</time>
      </trkpt>
      <trkpt lat="41.5644180" lon="-0.9403170">
        <ele>315.5</ele>
        <time>2020-12-31T14:32:44Z</time>
      </trkpt>
      <trkpt lat="41.5644170" lon="-0.9403150">
        <ele>315.5</ele>
        <time>2020-12-31T14:32:45Z</time>
      </trkpt>
      <trkpt lat="41.5644140" lon="-0.9403050">
        <ele>315.7</ele>
        <time>2020-12-31T14:32:46Z</time>
      </trkpt>
      <trkpt lat="41.5644090" lon="-0.9402770">
        <ele>316.1</ele>
        <time>2020-12-31T14:32:48Z</time>
      </trkpt>
      <trkpt lat="41.5644080" lon="-0.9402650">
        <ele>316.3</ele>
        <time>2020-12-31T14:32:49Z</time>
      </trkpt>
      <trkpt lat="41.5644060" lon="-0.9402540">
        <ele>316.5</ele>
        <time>2020-12-31T14:32:50Z</time>
      </trkpt>
      <trkpt lat="41.5644070" lon="-0.9402340">
        <ele>316.8</ele>
        <time>2020-12-31T14:32:52Z</time>
      </trkpt>
      <trkpt lat="41.5644080" lon="-0.9402230">
        <ele>316.9</ele>
        <time>2020-12-31T14:32:53Z</time>
      </trkpt>
      <trkpt lat="41.5644090" lon="-0.9402130">
        <ele>317.1</ele>
        <time>2020-12-31T14:32:54Z</time>
      </trkpt>
      <trkpt lat="41.5644080" lon="-0.9402020">
        <ele>317.2</ele>
        <time>2020-12-31T14:32:55Z</time>
      </trkpt>
      <trkpt lat="41.5644040" lon="-0.9401850">
        <ele>317.4</ele>
        <time>2020-12-31T14:32:57Z</time>
      </trkpt>
      <trkpt lat="41.5644040" lon="-0.9401740">
        <ele>317.6</ele>
        <time>2020-12-31T14:32:58Z</time>
      </trkpt>
      <trkpt lat="41.5644040" lon="-0.9401640">
        <ele>317.7</ele>
        <time>2020-12-31T14:32:59Z</time>
      </trkpt>
      <trkpt lat="41.5644050" lon="-0.9401450">
        <ele>317.9</ele>
        <time>2020-12-31T14:33:01Z</time>
      </trkpt>
      <trkpt lat="41.5644060" lon="-0.9401280">
        <ele>318.1</ele>
        <time>2020-12-31T14:33:02Z</time>
      </trkpt>
      <trkpt lat="41.5644090" lon="-0.9401090">
        <ele>318.2</ele>
        <time>2020-12-31T14:33:04Z</time>
      </trkpt>
      <trkpt lat="41.5644090" lon="-0.9400970">
        <ele>318.3</ele>
        <time>2020-12-31T14:33:05Z</time>
      </trkpt>
      <trkpt lat="41.5644100" lon="-0.9400830">
        <ele>318.5</ele>
        <time>2020-12-31T14:33:06Z</time>
      </trkpt>
      <trkpt lat="41.5644090" lon="-0.9400560">
        <ele>318.7</ele>
        <time>2020-12-31T14:33:08Z</time>
      </trkpt>
      <trkpt lat="41.5644070" lon="-0.9400370">
        <ele>318.8</ele>
        <time>2020-12-31T14:33:09Z</time>
      </trkpt>
      <trkpt lat="41.5643950" lon="-0.9400030">
        <ele>319.0</ele>
        <time>2020-12-31T14:33:10Z</time>
      </trkpt>
      <trkpt lat="41.5643890" lon="-0.9399910">
        <ele>319.1</ele>
        <time>2020-12-31T14:33:12Z</time>
      </trkpt>
      <trkpt lat="41.5643820" lon="-0.9399800">
        <ele>319.2</ele>
        <time>2020-12-31T14:33:13Z</time>
      </trkpt>
      <trkpt lat="41.5643760" lon="-0.9399680">
        <ele>319.3</ele>
        <time>2020-12-31T14:33:14Z</time>
      </trkpt>
      <trkpt lat="41.5643700" lon="-0.9399570">
        <ele>319.3</ele>
        <time>2020-12-31T14:33:15Z</time>
      </trkpt>
      <trkpt lat="41.5643650" lon="-0.9399400">
        <ele>319.4</ele>
        <time>2020-12-31T14:33:17Z</time>
      </trkpt>
      <trkpt lat="41.5643620" lon="-0.9399250">
        <ele>319.5</ele>
        <time>2020-12-31T14:33:18Z</time>
      </trkpt>
      <trkpt lat="41.5643590" lon="-0.9399100">
        <ele>319.5</ele>
        <time>2020-12-31T14:33:19Z</time>
      </trkpt>
      <trkpt lat="41.5643560" lon="-0.9398890">
        <ele>319.6</ele>
        <time>2020-12-31T14:33:20Z</time>
      </trkpt>
      <trkpt lat="41.5643550" lon="-0.9398730">
        <ele>319.7</ele>
        <time>2020-12-31T14:33:22Z</time>
      </trkpt>
      <trkpt lat="41.5643520" lon="-0.9398590">
        <ele>319.7</ele>
        <time>2020-12-31T14:33:23Z</time>
      </trkpt>
      <trkpt lat="41.5643490" lon="-0.9398480">
        <ele>319.8</ele>
        <time>2020-12-31T14:33:24Z</time>
      </trkpt>
      <trkpt lat="41.5643530" lon="-0.9398570">
        <ele>319.8</ele>
        <time>2020-12-31T14:33:26Z</time>
      </trkpt>
      <trkpt lat="41.5643570" lon="-0.9398430">
        <ele>319.9</ele>
        <time>2020-12-31T14:33:27Z</time>
      </trkpt>
      <trkpt lat="41.5643600" lon="-0.9398210">
        <ele>319.9</ele>
        <time>2020-12-31T14:33:29Z</time>
      </trkpt>
      <trkpt lat="41.5643530" lon="-0.9397820">
        <ele>320.0</ele>
        <time>2020-12-31T14:33:30Z</time>
      </trkpt>
      <trkpt lat="41.5643490" lon="-0.9397710">
        <ele>320.1</ele>
        <time>2020-12-31T14:33:31Z</time>
      </trkpt>
      <trkpt lat="41.5643380" lon="-0.9397280">
        <ele>320.2</ele>
        <time>2020-12-31T14:33:33Z</time>
      </trkpt>
      <trkpt lat="41.5643340" lon="-0.9397150">
        <ele>320.2</ele>
        <time>2020-12-31T14:33:34Z</time>
      </trkpt>
      <trkpt lat="41.5643210" lon="-0.9396660">
        <ele>320.4</ele>
        <time>2020-12-31T14:33:36Z</time>
      </trkpt>
      <trkpt lat="41.5643180" lon="-0.9396500">
        <ele>320.4</ele>
        <time>2020-12-31T14:33:37Z</time>
      </trkpt>
      <trkpt lat="41.5643120" lon="-0.9396130">
        <ele>320.5</ele>
        <time>2020-12-31T14:33:38Z</time>
      </trkpt>
      <trkpt lat="41.5643050" lon="-0.9395740">
        <ele>320.6</ele>
        <time>2020-12-31T14:33:39Z</time>
      </trkpt>
      <trkpt lat="41.5642930" lon="-0.9395340">
        <ele>320.8</ele>
        <time>2020-12-31T14:33:41Z</time>
      </trkpt>
      <trkpt lat="41.5642860" lon="-0.9394900">
        <ele>320.9</ele>
        <time>2020-12-31T14:33:42Z</time>
      </trkpt>
      <trkpt lat="41.5642760" lon="-0.9394340">
        <ele>321.1</ele>
        <time>2020-12-31T14:33:43Z</time>
      </trkpt>
      <trkpt lat="41.5642710" lon="-0.9394110">
        <ele>321.2</ele>
        <time>2020-12-31T14:33:44Z</time>
      </trkpt>
      <trkpt lat="41.5642670" lon="-0.9393690">
        <ele>321.3</ele>
        <time>2020-12-31T14:33:45Z</time>
      </trkpt>
      <trkpt lat="41.5642590" lon="-0.9393280">
        <ele>321.5</ele>
        <time>2020-12-31T14:33:47Z</time>
      </trkpt>
      <trkpt lat="41.5642450" lon="-0.9392670">
        <ele>321.7</ele>
        <time>2020-12-31T14:33:48Z</time>
      </trkpt>
      <trkpt lat="41.5642390" lon="-0.9392160">
        <ele>321.9</ele>
        <time>2020-12-31T14:33:49Z</time>
      </trkpt>
      <trkpt lat="41.5642280" lon="-0.9391090">
        <ele>322.3</ele>
        <time>2020-12-31T14:33:51Z</time>
      </trkpt>
      <trkpt lat="41.5642200" lon="-0.9390230">
        <ele>322.7</ele>
        <time>2020-12-31T14:33:52Z</time>
      </trkpt>
      <trkpt lat="41.5642080" lon="-0.9389340">
        <ele>323.0</ele>
        <time>2020-12-31T14:33:54Z</time>
      </trkpt>
      <trkpt lat="41.5641970" lon="-0.9388740">
        <ele>323.3</ele>
        <time>2020-12-31T14:33:55Z</time>
      </trkpt>
      <trkpt lat="41.5641900" lon="-0.9388140">
        <ele>323.5</ele>
        <time>2020-12-31T14:33:56Z</time>
      </trkpt>
      <trkpt lat="41.5641830" lon="-0.9387540">
        <ele>323.7</ele>
        <time>2020-12-31T14:33:57Z</time>
      </trkpt>
      <trkpt lat="41.5641710" lon="-0.9386910">
        <ele>324.0</ele>
        <time>2020-12-31T14:33:58Z</time>
      </trkpt>
      <trkpt lat="41.5641600" lon="-0.9385990">
        <ele>324.4</ele>
        <time>2020-12-31T14:34:00Z</time>
      </trkpt>
      <trkpt lat="41.5641730" lon="-0.9385140">
        <ele>324.7</ele>
        <time>2020-12-31T14:34:02Z</time>
      </trkpt>
      <trkpt lat="41.5641750" lon="-0.9384580">
        <ele>325.0</ele>
        <time>2020-12-31T14:34:03Z</time>
      </trkpt>
      <trkpt lat="41.5641750" lon="-0.9384080">
        <ele>325.2</ele>
        <time>2020-12-31T14:34:05Z</time>
      </trkpt>
      <trkpt lat="41.5641700" lon="-0.9383670">
        <ele>325.3</ele>
        <time>2020-12-31T14:34:06Z</time>
      </trkpt>
      <trkpt lat="41.5641670" lon="-0.9383260">
        <ele>325.5</ele>
        <time>2020-12-31T14:34:07Z</time>
      </trkpt>
      <trkpt lat="41.5641660" lon="-0.9382750">
        <ele>325.7</ele>
        <time>2020-12-31T14:34:08Z</time>
      </trkpt>
      <trkpt lat="41.5641690" lon="-0.9382300">
        <ele>325.9</ele>
        <time>2020-12-31T14:34:09Z</time>
      </trkpt>
      <trkpt lat="41.5642030" lon="-0.9381480">
        <ele>326.3</ele>
        <time>2020-12-31T14:34:11Z</time>
      </trkpt>
      <trkpt lat="41.5642430" lon="-0.9380950">
        <ele>326.6</ele>
        <time>2020-12-31T14:34:13Z</time>
      </trkpt>
      <trkpt lat="41.5642570" lon="-0.9380580">
        <ele>326.7</ele>
        <time>2020-12-31T14:34:14Z</time>
      </trkpt>
      <trkpt lat="41.5642840" lon="-0.9380130">
        <ele>327.0</ele>
        <time>2020-12-31T14:34:16Z</time>
      </trkpt>
      <trkpt lat="41.5643060" lon="-0.9379700">
        <ele>327.1</ele>
        <time>2020-12-31T14:34:17Z</time>
      </trkpt>
      <trkpt lat="41.5643360" lon="-0.9379040">
        <ele>327.4</ele>
        <time>2020-12-31T14:34:19Z</time>
      </trkpt>
      <trkpt lat="41.5643530" lon="-0.9378600">
        <ele>327.5</ele>
        <time>2020-12-31T14:34:20Z</time>
      </trkpt>
      <trkpt lat="41.5643700" lon="-0.9378290">
        <ele>327.6</ele>
        <time>2020-12-31T14:34:21Z</time>
      </trkpt>
      <trkpt lat="41.5643960" lon="-0.9377800">
        <ele>327.8</ele>
        <time>2020-12-31T14:34:23Z</time>
      </trkpt>
      <trkpt lat="41.5644240" lon="-0.9377310">
        <ele>328.0</ele>
        <time>2020-12-31T14:34:24Z</time>
      </trkpt>
      <trkpt lat="41.5644430" lon="-0.9376980">
        <ele>328.1</ele>
        <time>2020-12-31T14:34:25Z</time>
      </trkpt>
      <trkpt lat="41.5644730" lon="-0.9376370">
        <ele>328.3</ele>
        <time>2020-12-31T14:34:27Z</time>
      </trkpt>
      <trkpt lat="41.5645190" lon="-0.9375490">
        <ele>328.6</ele>
        <time>2020-12-31T14:34:29Z</time>
      </trkpt>
      <trkpt lat="41.5645510" lon="-0.9374520">
        <ele>328.9</ele>
        <time>2020-12-31T14:34:31Z</time>
      </trkpt>
      <trkpt lat="41.5645690" lon="-0.9373990">
        <ele>329.0</ele>
        <time>2020-12-31T14:34:32Z</time>
      </trkpt>
      <trkpt lat="41.5645880" lon="-0.9373530">
        <ele>329.2</ele>
        <time>2020-12-31T14:34:33Z</time>
      </trkpt>
      <trkpt lat="41.5646090" lon="-0.9373020">
        <ele>329.3</ele>
        <time>2020-12-31T14:34:34Z</time>
      </trkpt>
      <trkpt lat="41.5646370" lon="-0.9372460">
        <ele>329.5</ele>
        <time>2020-12-31T14:34:35Z</time>
      </trkpt>
      <trkpt lat="41.5646830" lon="-0.9371790">
        <ele>329.7</ele>
        <time>2020-12-31T14:34:37Z</time>
      </trkpt>
      <trkpt lat="41.5647150" lon="-0.9371240">
        <ele>329.9</ele>
        <time>2020-12-31T14:34:39Z</time>
      </trkpt>
      <trkpt lat="41.5647330" lon="-0.9370720">
        <ele>330.0</ele>
        <time>2020-12-31T14:34:40Z</time>
      </trkpt>
      <trkpt lat="41.5647340" lon="-0.9370120">
        <ele>330.2</ele>
        <time>2020-12-31T14:34:41Z</time>
      </trkpt>
      <trkpt lat="41.5647160" lon="-0.9369650">
        <ele>330.3</ele>
        <time>2020-12-31T14:34:42Z</time>
      </trkpt>
      <trkpt lat="41.5647020" lon="-0.9369250">
        <ele>330.4</ele>
        <time>2020-12-31T14:34:43Z</time>
      </trkpt>
      <trkpt lat="41.5647000" lon="-0.9368770">
        <ele>330.5</ele>
        <time>2020-12-31T14:34:45Z</time>
      </trkpt>
      <trkpt lat="41.5647160" lon="-0.9368310">
        <ele>330.7</ele>
        <time>2020-12-31T14:34:46Z</time>
      </trkpt>
      <trkpt lat="41.5647410" lon="-0.9368010">
        <ele>330.8</ele>
        <time>2020-12-31T14:34:47Z</time>
      </trkpt>
      <trkpt lat="41.5647650" lon="-0.9367790">
        <ele>330.9</ele>
        <time>2020-12-31T14:34:48Z</time>
      </trkpt>
      <trkpt lat="41.5647820" lon="-0.9367530">
        <ele>331.0</ele>
        <time>2020-12-31T14:34:49Z</time>
      </trkpt>
      <trkpt lat="41.5648140" lon="-0.9366940">
        <ele>331.1</ele>
        <time>2020-12-31T14:34:51Z</time>
      </trkpt>
      <trkpt lat="41.5648400" lon="-0.9366420">
        <ele>331.2</ele>
        <time>2020-12-31T14:34:52Z</time>
      </trkpt>
      <trkpt lat="41.5648380" lon="-0.9365920">
        <ele>331.3</ele>
        <time>2020-12-31T14:34:54Z</time>
      </trkpt>
      <trkpt lat="41.5648370" lon="-0.9365720">
        <ele>331.4</ele>
        <time>2020-12-31T14:34:55Z</time>
      </trkpt>
      <trkpt lat="41.5648290" lon="-0.9365210">
        <ele>331.4</ele>
        <time>2020-12-31T14:34:56Z</time>
      </trkpt>
      <trkpt lat="41.5648260" lon="-0.9364940">
        <ele>331.5</ele>
        <time>2020-12-31T14:34:58Z</time>
      </trkpt>
      <trkpt lat="41.5648220" lon="-0.9364680">
        <ele>331.5</ele>
        <time>2020-12-31T14:34:59Z</time>
      </trkpt>
      <trkpt lat="41.5648190" lon="-0.9364420">
        <ele>331.6</ele>
        <time>2020-12-31T14:35:00Z</time>
      </trkpt>
      <trkpt lat="41.5648240" lon="-0.9363680">
        <ele>331.7</ele>
        <time>2020-12-31T14:35:02Z</time>
      </trkpt>
      <trkpt lat="41.5648300" lon="-0.9362920">
        <ele>331.8</ele>
        <time>2020-12-31T14:35:03Z</time>
      </trkpt>
      <trkpt lat="41.5648350" lon="-0.9362390">
        <ele>331.9</ele>
        <time>2020-12-31T14:35:04Z</time>
      </trkpt>
      <trkpt lat="41.5648380" lon="-0.9361860">
        <ele>332.1</ele>
        <time>2020-12-31T14:35:05Z</time>
      </trkpt>
      <trkpt lat="41.5648380" lon="-0.9361380">
        <ele>332.2</ele>
        <time>2020-12-31T14:35:06Z</time>
      </trkpt>
      <trkpt lat="41.5648240" lon="-0.9360640">
        <ele>332.5</ele>
        <time>2020-12-31T14:35:07Z</time>
      </trkpt>
      <trkpt lat="41.5648130" lon="-0.9359890">
        <ele>332.8</ele>
        <time>2020-12-31T14:35:09Z</time>
      </trkpt>
      <trkpt lat="41.5648090" lon="-0.9359280">
        <ele>333.0</ele>
        <time>2020-12-31T14:35:10Z</time>
      </trkpt>
      <trkpt lat="41.5648000" lon="-0.9358530">
        <ele>333.3</ele>
        <time>2020-12-31T14:35:12Z</time>
      </trkpt>
      <trkpt lat="41.5647870" lon="-0.9358030">
        <ele>333.5</ele>
        <time>2020-12-31T14:35:13Z</time>
      </trkpt>
      <trkpt lat="41.5647750" lon="-0.9357510">
        <ele>333.7</ele>
        <time>2020-12-31T14:35:14Z</time>
      </trkpt>
      <trkpt lat="41.5647650" lon="-0.9357040">
        <ele>333.9</ele>
        <time>2020-12-31T14:35:15Z</time>
      </trkpt>
      <trkpt lat="41.5647530" lon="-0.9356490">
        <ele>334.1</ele>
        <time>2020-12-31T14:35:17Z</time>
      </trkpt>
      <trkpt lat="41.5647380" lon="-0.9355940">
        <ele>334.3</ele>
        <time>2020-12-31T14:35:18Z</time>
      </trkpt>
      <trkpt lat="41.5647210" lon="-0.9355410">
        <ele>334.6</ele>
        <time>2020-12-31T14:35:19Z</time>
      </trkpt>
      <trkpt lat="41.5647040" lon="-0.9354780">
        <ele>334.8</ele>
        <time>2020-12-31T14:35:21Z</time>
      </trkpt>
      <trkpt lat="41.5646870" lon="-0.9354110">
        <ele>335.1</ele>
        <time>2020-12-31T14:35:22Z</time>
      </trkpt>
      <trkpt lat="41.5646740" lon="-0.9353630">
        <ele>335.3</ele>
        <time>2020-12-31T14:35:23Z</time>
      </trkpt>
      <trkpt lat="41.5646560" lon="-0.9352860">
        <ele>335.6</ele>
        <time>2020-12-31T14:35:25Z</time>
      </trkpt>
      <trkpt lat="41.5646550" lon="-0.9352270">
        <ele>335.8</ele>
        <time>2020-12-31T14:35:26Z</time>
      </trkpt>
      <trkpt lat="41.5646460" lon="-0.9351390">
        <ele>336.1</ele>
        <time>2020-12-31T14:35:28Z</time>
      </trkpt>
      <trkpt lat="41.5646260" lon="-0.9350840">
        <ele>336.3</ele>
        <time>2020-12-31T14:35:29Z</time>
      </trkpt>
      <trkpt lat="41.5646070" lon="-0.9350510">
        <ele>336.4</ele>
        <time>2020-12-31T14:35:30Z</time>
      </trkpt>
      <trkpt lat="41.5645900" lon="-0.9349980">
        <ele>336.6</ele>
        <time>2020-12-31T14:35:31Z</time>
      </trkpt>
      <trkpt lat="41.5645850" lon="-0.9349770">
        <ele>336.7</ele>
        <time>2020-12-31T14:35:32Z</time>
      </trkpt>
      <trkpt lat="41.5645760" lon="-0.9349260">
        <ele>336.9</ele>
        <time>2020-12-31T14:35:34Z</time>
      </trkpt>
      <trkpt lat="41.5645670" lon="-0.9348780">
        <ele>337.1</ele>
        <time>2020-12-31T14:35:35Z</time>
      </trkpt>
      <trkpt lat="41.5645580" lon="-0.9348390">
        <ele>337.2</ele>
        <time>2020-12-31T14:35:36Z</time>
      </trkpt>
      <trkpt lat="41.5645500" lon="-0.9347910">
        <ele>337.3</ele>
        <time>2020-12-31T14:35:37Z</time>
      </trkpt>
      <trkpt lat="41.5645420" lon="-0.9347370">
        <ele>337.5</ele>
        <time>2020-12-31T14:35:39Z</time>
      </trkpt>
      <trkpt lat="41.5645340" lon="-0.9347000">
        <ele>337.6</ele>
        <time>2020-12-31T14:35:40Z</time>
      </trkpt>
      <trkpt lat="41.5645160" lon="-0.9346510">
        <ele>337.7</ele>
        <time>2020-12-31T14:35:42Z</time>
      </trkpt>
      <trkpt lat="41.5644940" lon="-0.9346000">
        <ele>337.8</ele>
        <time>2020-12-31T14:35:43Z</time>
      </trkpt>
      <trkpt lat="41.5644520" lon="-0.9345390">
        <ele>338.0</ele>
        <time>2020-12-31T14:35:45Z</time>
      </trkpt>
      <trkpt lat="41.5644210" lon="-0.9345090">
        <ele>338.1</ele>
        <time>2020-12-31T14:35:46Z</time>
      </trkpt>
      <trkpt lat="41.5644110" lon="-0.9345000">
        <ele>338.1</ele>
        <time>2020-12-31T14:35:47Z</time>
      </trkpt>
      <trkpt lat="41.5643860" lon="-0.9344800">
        <ele>338.1</ele>
        <time>2020-12-31T14:35:48Z</time>
      </trkpt>
      <trkpt lat="41.5643600" lon="-0.9344530">
        <ele>338.1</ele>
        <time>2020-12-31T14:35:49Z</time>
      </trkpt>
      <trkpt lat="41.5643230" lon="-0.9344110">
        <ele>338.2</ele>
        <time>2020-12-31T14:35:51Z</time>
      </trkpt>
      <trkpt lat="41.5643010" lon="-0.9343660">
        <ele>338.2</ele>
        <time>2020-12-31T14:35:53Z</time>
      </trkpt>
      <trkpt lat="41.5642940" lon="-0.9343500">
        <ele>338.2</ele>
        <time>2020-12-31T14:35:54Z</time>
      </trkpt>
      <trkpt lat="41.5642870" lon="-0.9343070">
        <ele>338.3</ele>
        <time>2020-12-31T14:35:55Z</time>
      </trkpt>
      <trkpt lat="41.5642640" lon="-0.9342180">
        <ele>338.3</ele>
        <time>2020-12-31T14:35:56Z</time>
      </trkpt>
      <trkpt lat="41.5642140" lon="-0.9340900">
        <ele>338.4</ele>
        <time>2020-12-31T14:35:58Z</time>
      </trkpt>
      <trkpt lat="41.5642180" lon="-0.9340260">
        <ele>338.5</ele>
        <time>2020-12-31T14:35:59Z</time>
      </trkpt>
      <trkpt lat="41.5642050" lon="-0.9339730">
        <ele>338.6</ele>
        <time>2020-12-31T14:36:00Z</time>
      </trkpt>
      <trkpt lat="41.5641990" lon="-0.9339100">
        <ele>338.7</ele>
        <time>2020-12-31T14:36:02Z</time>
      </trkpt>
      <trkpt lat="41.5641980" lon="-0.9338560">
        <ele>338.8</ele>
        <time>2020-12-31T14:36:03Z</time>
      </trkpt>
      <trkpt lat="41.5641720" lon="-0.9337600">
        <ele>339.0</ele>
        <time>2020-12-31T14:36:05Z</time>
      </trkpt>
      <trkpt lat="41.5641460" lon="-0.9337030">
        <ele>339.1</ele>
        <time>2020-12-31T14:36:06Z</time>
      </trkpt>
      <trkpt lat="41.5641150" lon="-0.9336200">
        <ele>339.2</ele>
        <time>2020-12-31T14:36:07Z</time>
      </trkpt>
      <trkpt lat="41.5640680" lon="-0.9335520">
        <ele>339.4</ele>
        <time>2020-12-31T14:36:09Z</time>
      </trkpt>
      <trkpt lat="41.5640460" lon="-0.9335060">
        <ele>339.5</ele>
        <time>2020-12-31T14:36:10Z</time>
      </trkpt>
      <trkpt lat="41.5640300" lon="-0.9334250">
        <ele>339.8</ele>
        <time>2020-12-31T14:36:12Z</time>
      </trkpt>
      <trkpt lat="41.5640140" lon="-0.9333730">
        <ele>340.1</ele>
        <time>2020-12-31T14:36:13Z</time>
      </trkpt>
      <trkpt lat="41.5640020" lon="-0.9332850">
        <ele>340.6</ele>
        <time>2020-12-31T14:36:14Z</time>
      </trkpt>
      <trkpt lat="41.5639720" lon="-0.9332300">
        <ele>341.0</ele>
        <time>2020-12-31T14:36:15Z</time>
      </trkpt>
      <trkpt lat="41.5639720" lon="-0.9331450">
        <ele>341.4</ele>
        <time>2020-12-31T14:36:17Z</time>
      </trkpt>
      <trkpt lat="41.5640110" lon="-0.9330910">
        <ele>341.8</ele>
        <time>2020-12-31T14:36:18Z</time>
      </trkpt>
      <trkpt lat="41.5640290" lon="-0.9330380">
        <ele>342.1</ele>
        <time>2020-12-31T14:36:20Z</time>
      </trkpt>
      <trkpt lat="41.5640480" lon="-0.9329950">
        <ele>342.4</ele>
        <time>2020-12-31T14:36:22Z</time>
      </trkpt>
      <trkpt lat="41.5640620" lon="-0.9329620">
        <ele>342.6</ele>
        <time>2020-12-31T14:36:23Z</time>
      </trkpt>
      <trkpt lat="41.5640680" lon="-0.9329090">
        <ele>342.9</ele>
        <time>2020-12-31T14:36:24Z</time>
      </trkpt>
      <trkpt lat="41.5640700" lon="-0.9328890">
        <ele>343.0</ele>
        <time>2020-12-31T14:36:25Z</time>
      </trkpt>
      <trkpt lat="41.5640820" lon="-0.9328340">
        <ele>343.3</ele>
        <time>2020-12-31T14:36:27Z</time>
      </trkpt>
      <trkpt lat="41.5640900" lon="-0.9328000">
        <ele>343.5</ele>
        <time>2020-12-31T14:36:28Z</time>
      </trkpt>
      <trkpt lat="41.5640940" lon="-0.9327670">
        <ele>343.7</ele>
        <time>2020-12-31T14:36:29Z</time>
      </trkpt>
      <trkpt lat="41.5640920" lon="-0.9327410">
        <ele>343.9</ele>
        <time>2020-12-31T14:36:31Z</time>
      </trkpt>
      <trkpt lat="41.5640910" lon="-0.9327460">
        <ele>343.9</ele>
        <time>2020-12-31T14:36:32Z</time>
      </trkpt>
      <trkpt lat="41.5640970" lon="-0.9327440">
        <ele>343.9</ele>
        <time>2020-12-31T14:36:33Z</time>
      </trkpt>
      <trkpt lat="41.5641070" lon="-0.9327280">
        <ele>344.0</ele>
        <time>2020-12-31T14:36:35Z</time>
      </trkpt>
      <trkpt lat="41.5641130" lon="-0.9327140">
        <ele>344.1</ele>
        <time>2020-12-31T14:36:36Z</time>
      </trkpt>
      <trkpt lat="41.5641240" lon="-0.9326890">
        <ele>344.3</ele>
        <time>2020-12-31T14:36:37Z</time>
      </trkpt>
      <trkpt lat="41.5641270" lon="-0.9326800">
        <ele>344.3</ele>
        <time>2020-12-31T14:36:38Z</time>
      </trkpt>
      <trkpt lat="41.5641310" lon="-0.9326710">
        <ele>344.4</ele>
        <time>2020-12-31T14:36:40Z</time>
      </trkpt>
      <trkpt lat="41.5641350" lon="-0.9326630">
        <ele>344.5</ele>
        <time>2020-12-31T14:36:41Z</time>
      </trkpt>
      <trkpt lat="41.5641390" lon="-0.9326540">
        <ele>344.5</ele>
        <time>2020-12-31T14:36:42Z</time>
      </trkpt>
      <trkpt lat="41.5641420" lon="-0.9326450">
        <ele>344.6</ele>
        <time>2020-12-31T14:36:44Z</time>
      </trkpt>
      <trkpt lat="41.5641460" lon="-0.9326360">
        <ele>344.6</ele>
        <time>2020-12-31T14:36:45Z</time>
      </trkpt>
      <trkpt lat="41.5641650" lon="-0.9325790">
        <ele>345.0</ele>
        <time>2020-12-31T14:36:47Z</time>
      </trkpt>
      <trkpt lat="41.5641700" lon="-0.9325630">
        <ele>345.1</ele>
        <time>2020-12-31T14:36:48Z</time>
      </trkpt>
      <trkpt lat="41.5641740" lon="-0.9325480">
        <ele>345.1</ele>
        <time>2020-12-31T14:36:49Z</time>
      </trkpt>
      <trkpt lat="41.5641820" lon="-0.9324950">
        <ele>345.4</ele>
        <time>2020-12-31T14:36:50Z</time>
      </trkpt>
      <trkpt lat="41.5641830" lon="-0.9324750">
        <ele>345.5</ele>
        <time>2020-12-31T14:36:51Z</time>
      </trkpt>
      <trkpt lat="41.5641840" lon="-0.9324290">
        <ele>345.8</ele>
        <time>2020-12-31T14:36:53Z</time>
      </trkpt>
      <trkpt lat="41.5641820" lon="-0.9323840">
        <ele>346.0</ele>
        <time>2020-12-31T14:36:54Z</time>
      </trkpt>
      <trkpt lat="41.5641800" lon="-0.9323490">
        <ele>346.2</ele>
        <time>2020-12-31T14:36:55Z</time>
      </trkpt>
      <trkpt lat="41.5641760" lon="-0.9323090">
        <ele>346.4</ele>
        <time>2020-12-31T14:36:57Z</time>
      </trkpt>
      <trkpt lat="41.5641780" lon="-0.9322620">
        <ele>346.7</ele>
        <time>2020-12-31T14:36:58Z</time>
      </trkpt>
      <trkpt lat="41.5641870" lon="-0.9322240">
        <ele>346.9</ele>
        <time>2020-12-31T14:36:59Z</time>
      </trkpt>
      <trkpt lat="41.5641910" lon="-0.9321940">
        <ele>347.1</ele>
        <time>2020-12-31T14:37:00Z</time>
      </trkpt>
      <trkpt lat="41.5641980" lon="-0.9321580">
        <ele>347.3</ele>
        <time>2020-12-31T14:37:02Z</time>
      </trkpt>
      <trkpt lat="41.5642060" lon="-0.9321030">
        <ele>347.6</ele>
        <time>2020-12-31T14:37:03Z</time>
      </trkpt>
      <trkpt lat="41.5642120" lon="-0.9320620">
        <ele>347.8</ele>
        <time>2020-12-31T14:37:05Z</time>
      </trkpt>
      <trkpt lat="41.5642180" lon="-0.9320070">
        <ele>348.1</ele>
        <time>2020-12-31T14:37:06Z</time>
      </trkpt>
      <trkpt lat="41.5642170" lon="-0.9319400">
        <ele>348.5</ele>
        <time>2020-12-31T14:37:08Z</time>
      </trkpt>
      <trkpt lat="41.5641970" lon="-0.9318780">
        <ele>348.8</ele>
        <time>2020-12-31T14:37:10Z</time>
      </trkpt>
      <trkpt lat="41.5641810" lon="-0.9318300">
        <ele>349.1</ele>
        <time>2020-12-31T14:37:11Z</time>
      </trkpt>
      <trkpt lat="41.5641680" lon="-0.9317920">
        <ele>349.4</ele>
        <time>2020-12-31T14:37:12Z</time>
      </trkpt>
      <trkpt lat="41.5641560" lon="-0.9317590">
        <ele>349.6</ele>
        <time>2020-12-31T14:37:13Z</time>
      </trkpt>
      <trkpt lat="41.5641430" lon="-0.9317140">
        <ele>349.8</ele>
        <time>2020-12-31T14:37:14Z</time>
      </trkpt>
      <trkpt lat="41.5641380" lon="-0.9316970">
        <ele>349.9</ele>
        <time>2020-12-31T14:37:15Z</time>
      </trkpt>
      <trkpt lat="41.5641240" lon="-0.9316580">
        <ele>350.2</ele>
        <time>2020-12-31T14:37:16Z</time>
      </trkpt>
      <trkpt lat="41.5641030" lon="-0.9316070">
        <ele>350.5</ele>
        <time>2020-12-31T14:37:18Z</time>
      </trkpt>
      <trkpt lat="41.5640830" lon="-0.9315700">
        <ele>350.7</ele>
        <time>2020-12-31T14:37:19Z</time>
      </trkpt>
      <trkpt lat="41.5640660" lon="-0.9315400">
        <ele>350.9</ele>
        <time>2020-12-31T14:37:20Z</time>
      </trkpt>
      <trkpt lat="41.5640470" lon="-0.9315160">
        <ele>351.1</ele>
        <time>2020-12-31T14:37:21Z</time>
      </trkpt>
      <trkpt lat="41.5640230" lon="-0.9314770">
        <ele>351.4</ele>
        <time>2020-12-31T14:37:23Z</time>
      </trkpt>
      <trkpt lat="41.5639990" lon="-0.9314520">
        <ele>351.6</ele>
        <time>2020-12-31T14:37:24Z</time>
      </trkpt>
      <trkpt lat="41.5639720" lon="-0.9314220">
        <ele>351.9</ele>
        <time>2020-12-31T14:37:26Z</time>
      </trkpt>
      <trkpt lat="41.5639500" lon="-0.9313940">
        <ele>352.1</ele>
        <time>2020-12-31T14:37:27Z</time>
      </trkpt>
      <trkpt lat="41.5639250" lon="-0.9313610">
        <ele>352.3</ele>
        <time>2020-12-31T14:37:28Z</time>
      </trkpt>
      <trkpt lat="41.5638990" lon="-0.9313330">
        <ele>352.6</ele>
        <time>2020-12-31T14:37:29Z</time>
      </trkpt>
      <trkpt lat="41.5638600" lon="-0.9312990">
        <ele>352.9</ele>
        <time>2020-12-31T14:37:30Z</time>
      </trkpt>
      <trkpt lat="41.5638180" lon="-0.9312750">
        <ele>353.3</ele>
        <time>2020-12-31T14:37:31Z</time>
      </trkpt>
      <trkpt lat="41.5637760" lon="-0.9312420">
        <ele>353.6</ele>
        <time>2020-12-31T14:37:33Z</time>
      </trkpt>
      <trkpt lat="41.5637660" lon="-0.9312260">
        <ele>353.7</ele>
        <time>2020-12-31T14:37:34Z</time>
      </trkpt>
      <trkpt lat="41.5637560" lon="-0.9312110">
        <ele>353.8</ele>
        <time>2020-12-31T14:37:35Z</time>
      </trkpt>
      <trkpt lat="41.5637390" lon="-0.9311890">
        <ele>354.0</ele>
        <time>2020-12-31T14:37:36Z</time>
      </trkpt>
      <trkpt lat="41.5637210" lon="-0.9311610">
        <ele>354.2</ele>
        <time>2020-12-31T14:37:38Z</time>
      </trkpt>
      <trkpt lat="41.5637020" lon="-0.9311250">
        <ele>354.4</ele>
        <time>2020-12-31T14:37:39Z</time>
      </trkpt>
      <trkpt lat="41.5636830" lon="-0.9310840">
        <ele>354.7</ele>
        <time>2020-12-31T14:37:40Z</time>
      </trkpt>
      <trkpt lat="41.5636770" lon="-0.9310720">
        <ele>354.8</ele>
        <time>2020-12-31T14:37:41Z</time>
      </trkpt>
      <trkpt lat="41.5636520" lon="-0.9310290">
        <ele>355.1</ele>
        <time>2020-12-31T14:37:43Z</time>
      </trkpt>
      <trkpt lat="41.5636360" lon="-0.9310110">
        <ele>355.2</ele>
        <time>2020-12-31T14:37:44Z</time>
      </trkpt>
      <trkpt lat="41.5636140" lon="-0.9309840">
        <ele>355.4</ele>
        <time>2020-12-31T14:37:46Z</time>
      </trkpt>
      <trkpt lat="41.5635950" lon="-0.9309760">
        <ele>355.6</ele>
        <time>2020-12-31T14:37:47Z</time>
      </trkpt>
      <trkpt lat="41.5635690" lon="-0.9309780">
        <ele>355.8</ele>
        <time>2020-12-31T14:37:49Z</time>
      </trkpt>
      <trkpt lat="41.5635500" lon="-0.9309790">
        <ele>355.9</ele>
        <time>2020-12-31T14:37:50Z</time>
      </trkpt>
      <trkpt lat="41.5635360" lon="-0.9309800">
        <ele>356.0</ele>
        <time>2020-12-31T14:37:51Z</time>
      </trkpt>
      <trkpt lat="41.5634940" lon="-0.9309710">
        <ele>356.3</ele>
        <time>2020-12-31T14:37:52Z</time>
      </trkpt>
      <trkpt lat="41.5634770" lon="-0.9309680">
        <ele>356.5</ele>
        <time>2020-12-31T14:37:53Z</time>
      </trkpt>
      <trkpt lat="41.5634490" lon="-0.9309570">
        <ele>356.7</ele>
        <time>2020-12-31T14:37:54Z</time>
      </trkpt>
      <trkpt lat="41.5634230" lon="-0.9309410">
        <ele>356.9</ele>
        <time>2020-12-31T14:37:55Z</time>
      </trkpt>
      <trkpt lat="41.5634020" lon="-0.9309310">
        <ele>357.0</ele>
        <time>2020-12-31T14:37:56Z</time>
      </trkpt>
      <trkpt lat="41.5633780" lon="-0.9309210">
        <ele>357.2</ele>
        <time>2020-12-31T14:37:58Z</time>
      </trkpt>
      <trkpt lat="41.5633280" lon="-0.9309130">
        <ele>357.6</ele>
        <time>2020-12-31T14:38:00Z</time>
      </trkpt>
      <trkpt lat="41.5633090" lon="-0.9309080">
        <ele>357.7</ele>
        <time>2020-12-31T14:38:01Z</time>
      </trkpt>
      <trkpt lat="41.5632910" lon="-0.9309020">
        <ele>357.9</ele>
        <time>2020-12-31T14:38:02Z</time>
      </trkpt>
      <trkpt lat="41.5632670" lon="-0.9308940">
        <ele>358.0</ele>
        <time>2020-12-31T14:38:03Z</time>
      </trkpt>
      <trkpt lat="41.5632460" lon="-0.9308740">
        <ele>358.2</ele>
        <time>2020-12-31T14:38:05Z</time>
      </trkpt>
      <trkpt lat="41.5632170" lon="-0.9308630">
        <ele>358.4</ele>
        <time>2020-12-31T14:38:06Z</time>
      </trkpt>
      <trkpt lat="41.5632060" lon="-0.9308590">
        <ele>358.5</ele>
        <time>2020-12-31T14:38:07Z</time>
      </trkpt>
      <trkpt lat="41.5631870" lon="-0.9308520">
        <ele>358.7</ele>
        <time>2020-12-31T14:38:08Z</time>
      </trkpt>
      <trkpt lat="41.5631520" lon="-0.9308400">
        <ele>358.9</ele>
        <time>2020-12-31T14:38:10Z</time>
      </trkpt>
      <trkpt lat="41.5631060" lon="-0.9308340">
        <ele>359.3</ele>
        <time>2020-12-31T14:38:12Z</time>
      </trkpt>
      <trkpt lat="41.5630760" lon="-0.9308340">
        <ele>359.5</ele>
        <time>2020-12-31T14:38:13Z</time>
      </trkpt>
      <trkpt lat="41.5630440" lon="-0.9308280">
        <ele>359.7</ele>
        <time>2020-12-31T14:38:14Z</time>
      </trkpt>
      <trkpt lat="41.5630170" lon="-0.9308170">
        <ele>359.9</ele>
        <time>2020-12-31T14:38:15Z</time>
      </trkpt>
      <trkpt lat="41.5629880" lon="-0.9308110">
        <ele>360.1</ele>
        <time>2020-12-31T14:38:16Z</time>
      </trkpt>
      <trkpt lat="41.5629600" lon="-0.9308100">
        <ele>360.3</ele>
        <time>2020-12-31T14:38:17Z</time>
      </trkpt>
      <trkpt lat="41.5629350" lon="-0.9308110">
        <ele>360.5</ele>
        <time>2020-12-31T14:38:18Z</time>
      </trkpt>
      <trkpt lat="41.5629040" lon="-0.9308190">
        <ele>360.8</ele>
        <time>2020-12-31T14:38:20Z</time>
      </trkpt>
      <trkpt lat="41.5628770" lon="-0.9308330">
        <ele>361.0</ele>
        <time>2020-12-31T14:38:21Z</time>
      </trkpt>
      <trkpt lat="41.5628360" lon="-0.9308460">
        <ele>361.3</ele>
        <time>2020-12-31T14:38:22Z</time>
      </trkpt>
      <trkpt lat="41.5628210" lon="-0.9308490">
        <ele>361.4</ele>
        <time>2020-12-31T14:38:23Z</time>
      </trkpt>
      <trkpt lat="41.5627970" lon="-0.9308510">
        <ele>361.6</ele>
        <time>2020-12-31T14:38:24Z</time>
      </trkpt>
      <trkpt lat="41.5627680" lon="-0.9308450">
        <ele>361.8</ele>
        <time>2020-12-31T14:38:26Z</time>
      </trkpt>
      <trkpt lat="41.5627330" lon="-0.9308220">
        <ele>362.1</ele>
        <time>2020-12-31T14:38:27Z</time>
      </trkpt>
      <trkpt lat="41.5627210" lon="-0.9308120">
        <ele>362.2</ele>
        <time>2020-12-31T14:38:28Z</time>
      </trkpt>
      <trkpt lat="41.5626890" lon="-0.9307830">
        <ele>362.4</ele>
        <time>2020-12-31T14:38:29Z</time>
      </trkpt>
      <trkpt lat="41.5626770" lon="-0.9307740">
        <ele>362.5</ele>
        <time>2020-12-31T14:38:30Z</time>
      </trkpt>
      <trkpt lat="41.5626540" lon="-0.9307600">
        <ele>362.7</ele>
        <time>2020-12-31T14:38:31Z</time>
      </trkpt>
      <trkpt lat="41.5626220" lon="-0.9307440">
        <ele>363.0</ele>
        <time>2020-12-31T14:38:33Z</time>
      </trkpt>
      <trkpt lat="41.5625950" lon="-0.9307240">
        <ele>363.2</ele>
        <time>2020-12-31T14:38:34Z</time>
      </trkpt>
      <trkpt lat="41.5625720" lon="-0.9307020">
        <ele>363.4</ele>
        <time>2020-12-31T14:38:35Z</time>
      </trkpt>
      <trkpt lat="41.5625650" lon="-0.9306960">
        <ele>363.5</ele>
        <time>2020-12-31T14:38:36Z</time>
      </trkpt>
      <trkpt lat="41.5625310" lon="-0.9306820">
        <ele>363.7</ele>
        <time>2020-12-31T14:38:38Z</time>
      </trkpt>
      <trkpt lat="41.5625190" lon="-0.9306770">
        <ele>363.8</ele>
        <time>2020-12-31T14:38:39Z</time>
      </trkpt>
      <trkpt lat="41.5625010" lon="-0.9306680">
        <ele>363.9</ele>
        <time>2020-12-31T14:38:40Z</time>
      </trkpt>
      <trkpt lat="41.5624730" lon="-0.9306440">
        <ele>364.2</ele>
        <time>2020-12-31T14:38:42Z</time>
      </trkpt>
      <trkpt lat="41.5624410" lon="-0.9306130">
        <ele>364.5</ele>
        <time>2020-12-31T14:38:43Z</time>
      </trkpt>
      <trkpt lat="41.5624300" lon="-0.9306020">
        <ele>364.6</ele>
        <time>2020-12-31T14:38:44Z</time>
      </trkpt>
      <trkpt lat="41.5624000" lon="-0.9305750">
        <ele>364.8</ele>
        <time>2020-12-31T14:38:46Z</time>
      </trkpt>
      <trkpt lat="41.5623830" lon="-0.9305610">
        <ele>365.0</ele>
        <time>2020-12-31T14:38:47Z</time>
      </trkpt>
      <trkpt lat="41.5623600" lon="-0.9305380">
        <ele>365.2</ele>
        <time>2020-12-31T14:38:49Z</time>
      </trkpt>
      <trkpt lat="41.5623270" lon="-0.9305140">
        <ele>365.5</ele>
        <time>2020-12-31T14:38:50Z</time>
      </trkpt>
      <trkpt lat="41.5623150" lon="-0.9305060">
        <ele>365.6</ele>
        <time>2020-12-31T14:38:51Z</time>
      </trkpt>
      <trkpt lat="41.5622890" lon="-0.9304880">
        <ele>365.8</ele>
        <time>2020-12-31T14:38:52Z</time>
      </trkpt>
      <trkpt lat="41.5622610" lon="-0.9304690">
        <ele>366.0</ele>
        <time>2020-12-31T14:38:53Z</time>
      </trkpt>
      <trkpt lat="41.5622310" lon="-0.9304500">
        <ele>366.2</ele>
        <time>2020-12-31T14:38:55Z</time>
      </trkpt>
      <trkpt lat="41.5621960" lon="-0.9304340">
        <ele>366.5</ele>
        <time>2020-12-31T14:38:56Z</time>
      </trkpt>
      <trkpt lat="41.5621500" lon="-0.9303950">
        <ele>366.9</ele>
        <time>2020-12-31T14:38:58Z</time>
      </trkpt>
      <trkpt lat="41.5621360" lon="-0.9303770">
        <ele>367.0</ele>
        <time>2020-12-31T14:38:59Z</time>
      </trkpt>
      <trkpt lat="41.5621220" lon="-0.9303580">
        <ele>367.2</ele>
        <time>2020-12-31T14:39:00Z</time>
      </trkpt>
      <trkpt lat="41.5620770" lon="-0.9303110">
        <ele>367.6</ele>
        <time>2020-12-31T14:39:02Z</time>
      </trkpt>
      <trkpt lat="41.5620450" lon="-0.9302920">
        <ele>367.9</ele>
        <time>2020-12-31T14:39:03Z</time>
      </trkpt>
      <trkpt lat="41.5620070" lon="-0.9302720">
        <ele>368.2</ele>
        <time>2020-12-31T14:39:05Z</time>
      </trkpt>
      <trkpt lat="41.5619760" lon="-0.9302620">
        <ele>368.4</ele>
        <time>2020-12-31T14:39:06Z</time>
      </trkpt>
      <trkpt lat="41.5619470" lon="-0.9302360">
        <ele>368.6</ele>
        <time>2020-12-31T14:39:07Z</time>
      </trkpt>
      <trkpt lat="41.5619360" lon="-0.9302240">
        <ele>368.7</ele>
        <time>2020-12-31T14:39:08Z</time>
      </trkpt>
      <trkpt lat="41.5619200" lon="-0.9301990">
        <ele>368.9</ele>
        <time>2020-12-31T14:39:09Z</time>
      </trkpt>
      <trkpt lat="41.5618960" lon="-0.9301570">
        <ele>369.2</ele>
        <time>2020-12-31T14:39:11Z</time>
      </trkpt>
      <trkpt lat="41.5618740" lon="-0.9301160">
        <ele>369.5</ele>
        <time>2020-12-31T14:39:12Z</time>
      </trkpt>
      <trkpt lat="41.5618660" lon="-0.9301020">
        <ele>369.6</ele>
        <time>2020-12-31T14:39:13Z</time>
      </trkpt>
      <trkpt lat="41.5618480" lon="-0.9300740">
        <ele>369.8</ele>
        <time>2020-12-31T14:39:14Z</time>
      </trkpt>
      <trkpt lat="41.5618320" lon="-0.9300200">
        <ele>370.1</ele>
        <time>2020-12-31T14:39:16Z</time>
      </trkpt>
      <trkpt lat="41.5618270" lon="-0.9299990">
        <ele>370.2</ele>
        <time>2020-12-31T14:39:17Z</time>
      </trkpt>
      <trkpt lat="41.5618180" lon="-0.9299590">
        <ele>370.4</ele>
        <time>2020-12-31T14:39:18Z</time>
      </trkpt>
      <trkpt lat="41.5618020" lon="-0.9299120">
        <ele>370.7</ele>
        <time>2020-12-31T14:39:19Z</time>
      </trkpt>
      <trkpt lat="41.5617750" lon="-0.9298490">
        <ele>371.1</ele>
        <time>2020-12-31T14:39:21Z</time>
      </trkpt>
      <trkpt lat="41.5617580" lon="-0.9298180">
        <ele>371.3</ele>
        <time>2020-12-31T14:39:22Z</time>
      </trkpt>
      <trkpt lat="41.5617480" lon="-0.9297830">
        <ele>371.5</ele>
        <time>2020-12-31T14:39:23Z</time>
      </trkpt>
      <trkpt lat="41.5617440" lon="-0.9297450">
        <ele>371.7</ele>
        <time>2020-12-31T14:39:24Z</time>
      </trkpt>
      <trkpt lat="41.5617340" lon="-0.9296910">
        <ele>372.0</ele>
        <time>2020-12-31T14:39:26Z</time>
      </trkpt>
      <trkpt lat="41.5617280" lon="-0.9296730">
        <ele>372.2</ele>
        <time>2020-12-31T14:39:27Z</time>
      </trkpt>
      <trkpt lat="41.5617120" lon="-0.9296390">
        <ele>372.4</ele>
        <time>2020-12-31T14:39:28Z</time>
      </trkpt>
      <trkpt lat="41.5616990" lon="-0.9296100">
        <ele>372.6</ele>
        <time>2020-12-31T14:39:29Z</time>
      </trkpt>
      <trkpt lat="41.5616820" lon="-0.9295710">
        <ele>372.8</ele>
        <time>2020-12-31T14:39:31Z</time>
      </trkpt>
      <trkpt lat="41.5616620" lon="-0.9295210">
        <ele>373.1</ele>
        <time>2020-12-31T14:39:33Z</time>
      </trkpt>
      <trkpt lat="41.5616470" lon="-0.9294900">
        <ele>373.3</ele>
        <time>2020-12-31T14:39:34Z</time>
      </trkpt>
      <trkpt lat="41.5616300" lon="-0.9294540">
        <ele>373.5</ele>
        <time>2020-12-31T14:39:35Z</time>
      </trkpt>
      <trkpt lat="41.5616250" lon="-0.9294430">
        <ele>373.6</ele>
        <time>2020-12-31T14:39:36Z</time>
      </trkpt>
      <trkpt lat="41.5616110" lon="-0.9293990">
        <ele>373.9</ele>
        <time>2020-12-31T14:39:38Z</time>
      </trkpt>
      <trkpt lat="41.5616040" lon="-0.9293780">
        <ele>374.0</ele>
        <time>2020-12-31T14:39:39Z</time>
      </trkpt>
      <trkpt lat="41.5615990" lon="-0.9293590">
        <ele>374.1</ele>
        <time>2020-12-31T14:39:40Z</time>
      </trkpt>
      <trkpt lat="41.5615930" lon="-0.9293400">
        <ele>374.2</ele>
        <time>2020-12-31T14:39:41Z</time>
      </trkpt>
      <trkpt lat="41.5615850" lon="-0.9293120">
        <ele>374.4</ele>
        <time>2020-12-31T14:39:43Z</time>
      </trkpt>
      <trkpt lat="41.5615810" lon="-0.9292680">
        <ele>374.6</ele>
        <time>2020-12-31T14:39:44Z</time>
      </trkpt>
      <trkpt lat="41.5615800" lon="-0.9292330">
        <ele>374.8</ele>
        <time>2020-12-31T14:39:45Z</time>
      </trkpt>
      <trkpt lat="41.5615780" lon="-0.9291930">
        <ele>375.0</ele>
        <time>2020-12-31T14:39:47Z</time>
      </trkpt>
      <trkpt lat="41.5615750" lon="-0.9291500">
        <ele>375.3</ele>
        <time>2020-12-31T14:39:48Z</time>
      </trkpt>
      <trkpt lat="41.5615670" lon="-0.9291080">
        <ele>375.5</ele>
        <time>2020-12-31T14:39:49Z</time>
      </trkpt>
      <trkpt lat="41.5615600" lon="-0.9290710">
        <ele>375.7</ele>
        <time>2020-12-31T14:39:50Z</time>
      </trkpt>
      <trkpt lat="41.5615480" lon="-0.9290060">
        <ele>376.1</ele>
        <time>2020-12-31T14:39:52Z</time>
      </trkpt>
      <trkpt lat="41.5615420" lon="-0.9289690">
        <ele>376.3</ele>
        <time>2020-12-31T14:39:53Z</time>
      </trkpt>
      <trkpt lat="41.5615330" lon="-0.9289240">
        <ele>376.5</ele>
        <time>2020-12-31T14:39:54Z</time>
      </trkpt>
      <trkpt lat="41.5615250" lon="-0.9288810">
        <ele>376.8</ele>
        <time>2020-12-31T14:39:56Z</time>
      </trkpt>
      <trkpt lat="41.5615220" lon="-0.9288680">
        <ele>376.8</ele>
        <time>2020-12-31T14:39:57Z</time>
      </trkpt>
      <trkpt lat="41.5615190" lon="-0.9288480">
        <ele>377.0</ele>
        <time>2020-12-31T14:39:58Z</time>
      </trkpt>
      <trkpt lat="41.5615130" lon="-0.9288240">
        <ele>377.1</ele>
        <time>2020-12-31T14:40:00Z</time>
      </trkpt>
      <trkpt lat="41.5615070" lon="-0.9288080">
        <ele>377.2</ele>
        <time>2020-12-31T14:40:01Z</time>
      </trkpt>
      <trkpt lat="41.5614920" lon="-0.9287920">
        <ele>377.3</ele>
        <time>2020-12-31T14:40:02Z</time>
      </trkpt>
      <trkpt lat="41.5614790" lon="-0.9287750">
        <ele>377.5</ele>
        <time>2020-12-31T14:40:03Z</time>
      </trkpt>
      <trkpt lat="41.5614600" lon="-0.9287360">
        <ele>377.7</ele>
        <time>2020-12-31T14:40:05Z</time>
      </trkpt>
      <trkpt lat="41.5614590" lon="-0.9287160">
        <ele>377.8</ele>
        <time>2020-12-31T14:40:06Z</time>
      </trkpt>
      <trkpt lat="41.5614590" lon="-0.9286930">
        <ele>377.9</ele>
        <time>2020-12-31T14:40:07Z</time>
      </trkpt>
      <trkpt lat="41.5614740" lon="-0.9286550">
        <ele>378.2</ele>
        <time>2020-12-31T14:40:09Z</time>
      </trkpt>
      <trkpt lat="41.5614810" lon="-0.9286460">
        <ele>378.2</ele>
        <time>2020-12-31T14:40:10Z</time>
      </trkpt>
      <trkpt lat="41.5615010" lon="-0.9286310">
        <ele>378.4</ele>
        <time>2020-12-31T14:40:11Z</time>
      </trkpt>
      <trkpt lat="41.5615240" lon="-0.9286180">
        <ele>378.6</ele>
        <time>2020-12-31T14:40:13Z</time>
      </trkpt>
      <trkpt lat="41.5615420" lon="-0.9285870">
        <ele>378.8</ele>
        <time>2020-12-31T14:40:14Z</time>
      </trkpt>
      <trkpt lat="41.5615460" lon="-0.9285640">
        <ele>378.9</ele>
        <time>2020-12-31T14:40:16Z</time>
      </trkpt>
      <trkpt lat="41.5615460" lon="-0.9285380">
        <ele>379.1</ele>
        <time>2020-12-31T14:40:17Z</time>
      </trkpt>
      <trkpt lat="41.5615410" lon="-0.9285170">
        <ele>379.2</ele>
        <time>2020-12-31T14:40:18Z</time>
      </trkpt>
      <trkpt lat="41.5615340" lon="-0.9284940">
        <ele>379.3</ele>
        <time>2020-12-31T14:40:19Z</time>
      </trkpt>
      <trkpt lat="41.5615390" lon="-0.9284560">
        <ele>379.5</ele>
        <time>2020-12-31T14:40:21Z</time>
      </trkpt>
      <trkpt lat="41.5615410" lon="-0.9284420">
        <ele>379.6</ele>
        <time>2020-12-31T14:40:22Z</time>
      </trkpt>
      <trkpt lat="41.5615470" lon="-0.9283780">
        <ele>380.0</ele>
        <time>2020-12-31T14:40:24Z</time>
      </trkpt>
      <trkpt lat="41.5615500" lon="-0.9283590">
        <ele>380.1</ele>
        <time>2020-12-31T14:40:25Z</time>
      </trkpt>
      <trkpt lat="41.5615530" lon="-0.9283390">
        <ele>380.2</ele>
        <time>2020-12-31T14:40:26Z</time>
      </trkpt>
      <trkpt lat="41.5615620" lon="-0.9283080">
        <ele>380.4</ele>
        <time>2020-12-31T14:40:27Z</time>
      </trkpt>
      <trkpt lat="41.5615750" lon="-0.9282500">
        <ele>380.7</ele>
        <time>2020-12-31T14:40:29Z</time>
      </trkpt>
      <trkpt lat="41.5615760" lon="-0.9282260">
        <ele>380.8</ele>
        <time>2020-12-31T14:40:30Z</time>
      </trkpt>
      <trkpt lat="41.5615760" lon="-0.9282130">
        <ele>380.9</ele>
        <time>2020-12-31T14:40:31Z</time>
      </trkpt>
      <trkpt lat="41.5615850" lon="-0.9282040">
        <ele>381.0</ele>
        <time>2020-12-31T14:40:32Z</time>
      </trkpt>
      <trkpt lat="41.5615920" lon="-0.9281820">
        <ele>381.1</ele>
        <time>2020-12-31T14:40:34Z</time>
      </trkpt>
      <trkpt lat="41.5615960" lon="-0.9281690">
        <ele>381.2</ele>
        <time>2020-12-31T14:40:35Z</time>
      </trkpt>
      <trkpt lat="41.5616000" lon="-0.9281560">
        <ele>381.3</ele>
        <time>2020-12-31T14:40:36Z</time>
      </trkpt>
      <trkpt lat="41.5616070" lon="-0.9281230">
        <ele>381.4</ele>
        <time>2020-12-31T14:40:38Z</time>
      </trkpt>
      <trkpt lat="41.5616100" lon="-0.9280960">
        <ele>381.6</ele>
        <time>2020-12-31T14:40:39Z</time>
      </trkpt>
      <trkpt lat="41.5616130" lon="-0.9280430">
        <ele>381.9</ele>
        <time>2020-12-31T14:40:41Z</time>
      </trkpt>
      <trkpt lat="41.5616180" lon="-0.9279960">
        <ele>382.1</ele>
        <time>2020-12-31T14:40:42Z</time>
      </trkpt>
      <trkpt lat="41.5616270" lon="-0.9279580">
        <ele>382.4</ele>
        <time>2020-12-31T14:40:44Z</time>
      </trkpt>
      <trkpt lat="41.5616270" lon="-0.9279610">
        <ele>382.4</ele>
        <time>2020-12-31T14:40:45Z</time>
      </trkpt>
      <trkpt lat="41.5616230" lon="-0.9279710">
        <ele>382.4</ele>
        <time>2020-12-31T14:40:46Z</time>
      </trkpt>
      <trkpt lat="41.5616210" lon="-0.9279750">
        <ele>382.5</ele>
        <time>2020-12-31T14:40:48Z</time>
      </trkpt>
      <trkpt lat="41.5616210" lon="-0.9279760">
        <ele>382.5</ele>
        <time>2020-12-31T14:40:49Z</time>
      </trkpt>
      <trkpt lat="41.5616210" lon="-0.9279760">
        <ele>382.5</ele>
        <time>2020-12-31T14:40:50Z</time>
      </trkpt>
      <trkpt lat="41.5616210" lon="-0.9279780">
        <ele>382.5</ele>
        <time>2020-12-31T14:40:52Z</time>
      </trkpt>
      <trkpt lat="41.5616340" lon="-0.9279020">
        <ele>382.9</ele>
        <time>2020-12-31T14:40:59Z</time>
      </trkpt>
      <trkpt lat="41.5616360" lon="-0.9278410">
        <ele>383.2</ele>
        <time>2020-12-31T14:41:01Z</time>
      </trkpt>
      <trkpt lat="41.5616370" lon="-0.9277830">
        <ele>383.6</ele>
        <time>2020-12-31T14:41:02Z</time>
      </trkpt>
      <trkpt lat="41.5616380" lon="-0.9277370">
        <ele>383.8</ele>
        <time>2020-12-31T14:41:03Z</time>
      </trkpt>
      <trkpt lat="41.5616420" lon="-0.9276660">
        <ele>384.2</ele>
        <time>2020-12-31T14:41:05Z</time>
      </trkpt>
      <trkpt lat="41.5616470" lon="-0.9276110">
        <ele>384.5</ele>
        <time>2020-12-31T14:41:06Z</time>
      </trkpt>
      <trkpt lat="41.5616510" lon="-0.9275760">
        <ele>384.7</ele>
        <time>2020-12-31T14:41:07Z</time>
      </trkpt>
      <trkpt lat="41.5616540" lon="-0.9275260">
        <ele>385.0</ele>
        <time>2020-12-31T14:41:09Z</time>
      </trkpt>
      <trkpt lat="41.5616500" lon="-0.9274820">
        <ele>385.2</ele>
        <time>2020-12-31T14:41:10Z</time>
      </trkpt>
      <trkpt lat="41.5616420" lon="-0.9274450">
        <ele>385.4</ele>
        <time>2020-12-31T14:41:11Z</time>
      </trkpt>
      <trkpt lat="41.5616330" lon="-0.9273950">
        <ele>385.7</ele>
        <time>2020-12-31T14:41:12Z</time>
      </trkpt>
      <trkpt lat="41.5616300" lon="-0.9273540">
        <ele>385.9</ele>
        <time>2020-12-31T14:41:14Z</time>
      </trkpt>
      <trkpt lat="41.5616300" lon="-0.9273170">
        <ele>386.1</ele>
        <time>2020-12-31T14:41:15Z</time>
      </trkpt>
      <trkpt lat="41.5616220" lon="-0.9272820">
        <ele>386.3</ele>
        <time>2020-12-31T14:41:16Z</time>
      </trkpt>
      <trkpt lat="41.5616040" lon="-0.9272420">
        <ele>386.6</ele>
        <time>2020-12-31T14:41:18Z</time>
      </trkpt>
      <trkpt lat="41.5615840" lon="-0.9271980">
        <ele>386.8</ele>
        <time>2020-12-31T14:41:19Z</time>
      </trkpt>
      <trkpt lat="41.5615660" lon="-0.9271580">
        <ele>387.1</ele>
        <time>2020-12-31T14:41:20Z</time>
      </trkpt>
      <trkpt lat="41.5615380" lon="-0.9271130">
        <ele>387.4</ele>
        <time>2020-12-31T14:41:22Z</time>
      </trkpt>
      <trkpt lat="41.5614990" lon="-0.9270770">
        <ele>387.8</ele>
        <time>2020-12-31T14:41:23Z</time>
      </trkpt>
      <trkpt lat="41.5614630" lon="-0.9270430">
        <ele>388.1</ele>
        <time>2020-12-31T14:41:24Z</time>
      </trkpt>
      <trkpt lat="41.5614190" lon="-0.9269960">
        <ele>388.5</ele>
        <time>2020-12-31T14:41:26Z</time>
      </trkpt>
      <trkpt lat="41.5613870" lon="-0.9269630">
        <ele>388.8</ele>
        <time>2020-12-31T14:41:27Z</time>
      </trkpt>
      <trkpt lat="41.5613590" lon="-0.9269400">
        <ele>389.0</ele>
        <time>2020-12-31T14:41:28Z</time>
      </trkpt>
      <trkpt lat="41.5613320" lon="-0.9269220">
        <ele>389.2</ele>
        <time>2020-12-31T14:41:29Z</time>
      </trkpt>
      <trkpt lat="41.5613040" lon="-0.9269050">
        <ele>389.5</ele>
        <time>2020-12-31T14:41:30Z</time>
      </trkpt>
      <trkpt lat="41.5612730" lon="-0.9268790">
        <ele>389.7</ele>
        <time>2020-12-31T14:41:32Z</time>
      </trkpt>
      <trkpt lat="41.5612460" lon="-0.9268630">
        <ele>389.9</ele>
        <time>2020-12-31T14:41:33Z</time>
      </trkpt>
      <trkpt lat="41.5612210" lon="-0.9268470">
        <ele>390.1</ele>
        <time>2020-12-31T14:41:34Z</time>
      </trkpt>
      <trkpt lat="41.5611960" lon="-0.9268260">
        <ele>390.4</ele>
        <time>2020-12-31T14:41:35Z</time>
      </trkpt>
      <trkpt lat="41.5611580" lon="-0.9267830">
        <ele>390.7</ele>
        <time>2020-12-31T14:41:37Z</time>
      </trkpt>
      <trkpt lat="41.5611320" lon="-0.9267630">
        <ele>390.9</ele>
        <time>2020-12-31T14:41:38Z</time>
      </trkpt>
      <trkpt lat="41.5611050" lon="-0.9267350">
        <ele>391.2</ele>
        <time>2020-12-31T14:41:39Z</time>
      </trkpt>
      <trkpt lat="41.5610740" lon="-0.9266980">
        <ele>391.5</ele>
        <time>2020-12-31T14:41:40Z</time>
      </trkpt>
      <trkpt lat="41.5610430" lon="-0.9266550">
        <ele>391.8</ele>
        <time>2020-12-31T14:41:42Z</time>
      </trkpt>
      <trkpt lat="41.5610260" lon="-0.9266230">
        <ele>392.0</ele>
        <time>2020-12-31T14:41:43Z</time>
      </trkpt>
      <trkpt lat="41.5610050" lon="-0.9265820">
        <ele>392.3</ele>
        <time>2020-12-31T14:41:45Z</time>
      </trkpt>
      <trkpt lat="41.5609950" lon="-0.9265420">
        <ele>392.5</ele>
        <time>2020-12-31T14:41:46Z</time>
      </trkpt>
      <trkpt lat="41.5609820" lon="-0.9264910">
        <ele>392.8</ele>
        <time>2020-12-31T14:41:47Z</time>
      </trkpt>
      <trkpt lat="41.5609760" lon="-0.9264710">
        <ele>392.9</ele>
        <time>2020-12-31T14:41:48Z</time>
      </trkpt>
      <trkpt lat="41.5609690" lon="-0.9264350">
        <ele>393.1</ele>
        <time>2020-12-31T14:41:50Z</time>
      </trkpt>
      <trkpt lat="41.5609590" lon="-0.9263880">
        <ele>393.4</ele>
        <time>2020-12-31T14:41:51Z</time>
      </trkpt>
      <trkpt lat="41.5609520" lon="-0.9263580">
        <ele>393.6</ele>
        <time>2020-12-31T14:41:52Z</time>
      </trkpt>
      <trkpt lat="41.5609360" lon="-0.9263000">
        <ele>393.9</ele>
        <time>2020-12-31T14:41:54Z</time>
      </trkpt>
      <trkpt lat="41.5609260" lon="-0.9262650">
        <ele>394.1</ele>
        <time>2020-12-31T14:41:55Z</time>
      </trkpt>
      <trkpt lat="41.5609140" lon="-0.9262220">
        <ele>394.4</ele>
        <time>2020-12-31T14:41:56Z</time>
      </trkpt>
      <trkpt lat="41.5608970" lon="-0.9261690">
        <ele>394.7</ele>
        <time>2020-12-31T14:41:58Z</time>
      </trkpt>
      <trkpt lat="41.5608890" lon="-0.9261490">
        <ele>394.8</ele>
        <time>2020-12-31T14:41:59Z</time>
      </trkpt>
      <trkpt lat="41.5608700" lon="-0.9260930">
        <ele>395.1</ele>
        <time>2020-12-31T14:42:01Z</time>
      </trkpt>
      <trkpt lat="41.5608520" lon="-0.9260460">
        <ele>395.4</ele>
        <time>2020-12-31T14:42:02Z</time>
      </trkpt>
      <trkpt lat="41.5608460" lon="-0.9260310">
        <ele>395.5</ele>
        <time>2020-12-31T14:42:03Z</time>
      </trkpt>
      <trkpt lat="41.5608210" lon="-0.9259640">
        <ele>395.9</ele>
        <time>2020-12-31T14:42:05Z</time>
      </trkpt>
      <trkpt lat="41.5608130" lon="-0.9259370">
        <ele>396.1</ele>
        <time>2020-12-31T14:42:07Z</time>
      </trkpt>
      <trkpt lat="41.5608040" lon="-0.9259090">
        <ele>396.2</ele>
        <time>2020-12-31T14:42:08Z</time>
      </trkpt>
      <trkpt lat="41.5607950" lon="-0.9258820">
        <ele>396.4</ele>
        <time>2020-12-31T14:42:09Z</time>
      </trkpt>
      <trkpt lat="41.5607780" lon="-0.9258460">
        <ele>396.6</ele>
        <time>2020-12-31T14:42:10Z</time>
      </trkpt>
      <trkpt lat="41.5607520" lon="-0.9258040">
        <ele>396.9</ele>
        <time>2020-12-31T14:42:12Z</time>
      </trkpt>
      <trkpt lat="41.5607430" lon="-0.9257910">
        <ele>397.0</ele>
        <time>2020-12-31T14:42:13Z</time>
      </trkpt>
      <trkpt lat="41.5607130" lon="-0.9257550">
        <ele>397.3</ele>
        <time>2020-12-31T14:42:14Z</time>
      </trkpt>
      <trkpt lat="41.5607030" lon="-0.9257440">
        <ele>397.4</ele>
        <time>2020-12-31T14:42:15Z</time>
      </trkpt>
      <trkpt lat="41.5606750" lon="-0.9257130">
        <ele>397.7</ele>
        <time>2020-12-31T14:42:16Z</time>
      </trkpt>
      <trkpt lat="41.5606650" lon="-0.9257040">
        <ele>397.8</ele>
        <time>2020-12-31T14:42:17Z</time>
      </trkpt>
      <trkpt lat="41.5606380" lon="-0.9256730">
        <ele>398.0</ele>
        <time>2020-12-31T14:42:19Z</time>
      </trkpt>
      <trkpt lat="41.5606130" lon="-0.9256450">
        <ele>398.3</ele>
        <time>2020-12-31T14:42:20Z</time>
      </trkpt>
      <trkpt lat="41.5605930" lon="-0.9256120">
        <ele>398.5</ele>
        <time>2020-12-31T14:42:21Z</time>
      </trkpt>
      <trkpt lat="41.5605770" lon="-0.9255830">
        <ele>398.7</ele>
        <time>2020-12-31T14:42:22Z</time>
      </trkpt>
      <trkpt lat="41.5605650" lon="-0.9255490">
        <ele>398.9</ele>
        <time>2020-12-31T14:42:24Z</time>
      </trkpt>
      <trkpt lat="41.5605560" lon="-0.9255140">
        <ele>399.1</ele>
        <time>2020-12-31T14:42:25Z</time>
      </trkpt>
      <trkpt lat="41.5605510" lon="-0.9254800">
        <ele>399.3</ele>
        <time>2020-12-31T14:42:26Z</time>
      </trkpt>
      <trkpt lat="41.5605460" lon="-0.9254220">
        <ele>399.6</ele>
        <time>2020-12-31T14:42:28Z</time>
      </trkpt>
      <trkpt lat="41.5605450" lon="-0.9253760">
        <ele>399.8</ele>
        <time>2020-12-31T14:42:30Z</time>
      </trkpt>
      <trkpt lat="41.5605420" lon="-0.9253410">
        <ele>400.0</ele>
        <time>2020-12-31T14:42:31Z</time>
      </trkpt>
      <trkpt lat="41.5605300" lon="-0.9252870">
        <ele>400.3</ele>
        <time>2020-12-31T14:42:33Z</time>
      </trkpt>
      <trkpt lat="41.5605230" lon="-0.9252390">
        <ele>400.6</ele>
        <time>2020-12-31T14:42:34Z</time>
      </trkpt>
      <trkpt lat="41.5605190" lon="-0.9252250">
        <ele>400.7</ele>
        <time>2020-12-31T14:42:35Z</time>
      </trkpt>
      <trkpt lat="41.5605100" lon="-0.9251820">
        <ele>400.9</ele>
        <time>2020-12-31T14:42:36Z</time>
      </trkpt>
      <trkpt lat="41.5605060" lon="-0.9251680">
        <ele>401.0</ele>
        <time>2020-12-31T14:42:37Z</time>
      </trkpt>
      <trkpt lat="41.5604930" lon="-0.9251230">
        <ele>401.3</ele>
        <time>2020-12-31T14:42:39Z</time>
      </trkpt>
      <trkpt lat="41.5604880" lon="-0.9251060">
        <ele>401.4</ele>
        <time>2020-12-31T14:42:40Z</time>
      </trkpt>
      <trkpt lat="41.5604740" lon="-0.9250570">
        <ele>401.7</ele>
        <time>2020-12-31T14:42:42Z</time>
      </trkpt>
      <trkpt lat="41.5604610" lon="-0.9250170">
        <ele>401.9</ele>
        <time>2020-12-31T14:42:43Z</time>
      </trkpt>
      <trkpt lat="41.5604560" lon="-0.9250020">
        <ele>402.0</ele>
        <time>2020-12-31T14:42:44Z</time>
      </trkpt>
      <trkpt lat="41.5604460" lon="-0.9249710">
        <ele>402.2</ele>
        <time>2020-12-31T14:42:45Z</time>
      </trkpt>
      <trkpt lat="41.5604370" lon="-0.9249380">
        <ele>402.4</ele>
        <time>2020-12-31T14:42:47Z</time>
      </trkpt>
      <trkpt lat="41.5604290" lon="-0.9248940">
        <ele>402.6</ele>
        <time>2020-12-31T14:42:48Z</time>
      </trkpt>
      <trkpt lat="41.5604270" lon="-0.9248800">
        <ele>402.7</ele>
        <time>2020-12-31T14:42:49Z</time>
      </trkpt>
      <trkpt lat="41.5604210" lon="-0.9248500">
        <ele>402.9</ele>
        <time>2020-12-31T14:42:50Z</time>
      </trkpt>
      <trkpt lat="41.5604090" lon="-0.9248110">
        <ele>403.1</ele>
        <time>2020-12-31T14:42:52Z</time>
      </trkpt>
      <trkpt lat="41.5603940" lon="-0.9247640">
        <ele>403.4</ele>
        <time>2020-12-31T14:42:53Z</time>
      </trkpt>
      <trkpt lat="41.5603890" lon="-0.9247460">
        <ele>403.5</ele>
        <time>2020-12-31T14:42:54Z</time>
      </trkpt>
      <trkpt lat="41.5603740" lon="-0.9247050">
        <ele>403.7</ele>
        <time>2020-12-31T14:42:55Z</time>
      </trkpt>
      <trkpt lat="41.5603680" lon="-0.9246900">
        <ele>403.8</ele>
        <time>2020-12-31T14:42:56Z</time>
      </trkpt>
      <trkpt lat="41.5603560" lon="-0.9246550">
        <ele>404.0</ele>
        <time>2020-12-31T14:42:58Z</time>
      </trkpt>
      <trkpt lat="41.5603540" lon="-0.9246180">
        <ele>404.2</ele>
        <time>2020-12-31T14:42:59Z</time>
      </trkpt>
      <trkpt lat="41.5603500" lon="-0.9245740">
        <ele>404.5</ele>
        <time>2020-12-31T14:43:00Z</time>
      </trkpt>
      <trkpt lat="41.5603480" lon="-0.9245600">
        <ele>404.5</ele>
        <time>2020-12-31T14:43:01Z</time>
      </trkpt>
      <trkpt lat="41.5603390" lon="-0.9245120">
        <ele>405.0</ele>
        <time>2020-12-31T14:43:03Z</time>
      </trkpt>
      <trkpt lat="41.5603380" lon="-0.9244980">
        <ele>405.1</ele>
        <time>2020-12-31T14:43:04Z</time>
      </trkpt>
      <trkpt lat="41.5603490" lon="-0.9244610">
        <ele>405.4</ele>
        <time>2020-12-31T14:43:05Z</time>
      </trkpt>
      <trkpt lat="41.5603540" lon="-0.9244490">
        <ele>405.5</ele>
        <time>2020-12-31T14:43:06Z</time>
      </trkpt>
      <trkpt lat="41.5603740" lon="-0.9244160">
        <ele>405.9</ele>
        <time>2020-12-31T14:43:07Z</time>
      </trkpt>
      <trkpt lat="41.5603810" lon="-0.9244050">
        <ele>406.0</ele>
        <time>2020-12-31T14:43:08Z</time>
      </trkpt>
      <trkpt lat="41.5604000" lon="-0.9243770">
        <ele>406.3</ele>
        <time>2020-12-31T14:43:10Z</time>
      </trkpt>
      <trkpt lat="41.5604160" lon="-0.9243530">
        <ele>406.5</ele>
        <time>2020-12-31T14:43:11Z</time>
      </trkpt>
      <trkpt lat="41.5604320" lon="-0.9243160">
        <ele>406.8</ele>
        <time>2020-12-31T14:43:13Z</time>
      </trkpt>
      <trkpt lat="41.5604420" lon="-0.9242790">
        <ele>407.1</ele>
        <time>2020-12-31T14:43:14Z</time>
      </trkpt>
      <trkpt lat="41.5604560" lon="-0.9242360">
        <ele>407.4</ele>
        <time>2020-12-31T14:43:15Z</time>
      </trkpt>
      <trkpt lat="41.5604620" lon="-0.9242190">
        <ele>407.5</ele>
        <time>2020-12-31T14:43:16Z</time>
      </trkpt>
      <trkpt lat="41.5604710" lon="-0.9241750">
        <ele>407.7</ele>
        <time>2020-12-31T14:43:18Z</time>
      </trkpt>
      <trkpt lat="41.5604730" lon="-0.9241600">
        <ele>407.8</ele>
        <time>2020-12-31T14:43:19Z</time>
      </trkpt>
      <trkpt lat="41.5604740" lon="-0.9241310">
        <ele>407.9</ele>
        <time>2020-12-31T14:43:20Z</time>
      </trkpt>
      <trkpt lat="41.5604780" lon="-0.9240980">
        <ele>408.0</ele>
        <time>2020-12-31T14:43:22Z</time>
      </trkpt>
      <trkpt lat="41.5604810" lon="-0.9240410">
        <ele>408.2</ele>
        <time>2020-12-31T14:43:24Z</time>
      </trkpt>
      <trkpt lat="41.5604790" lon="-0.9240210">
        <ele>408.2</ele>
        <time>2020-12-31T14:43:25Z</time>
      </trkpt>
      <trkpt lat="41.5604780" lon="-0.9240020">
        <ele>408.3</ele>
        <time>2020-12-31T14:43:26Z</time>
      </trkpt>
      <trkpt lat="41.5604700" lon="-0.9239370">
        <ele>408.4</ele>
        <time>2020-12-31T14:43:28Z</time>
      </trkpt>
      <trkpt lat="41.5604670" lon="-0.9239160">
        <ele>408.4</ele>
        <time>2020-12-31T14:43:29Z</time>
      </trkpt>
      <trkpt lat="41.5604640" lon="-0.9238950">
        <ele>408.5</ele>
        <time>2020-12-31T14:43:30Z</time>
      </trkpt>
      <trkpt lat="41.5604570" lon="-0.9238460">
        <ele>408.5</ele>
        <time>2020-12-31T14:43:31Z</time>
      </trkpt>
      <trkpt lat="41.5604550" lon="-0.9238280">
        <ele>408.5</ele>
        <time>2020-12-31T14:43:32Z</time>
      </trkpt>
      <trkpt lat="41.5604470" lon="-0.9237790">
        <ele>408.5</ele>
        <time>2020-12-31T14:43:33Z</time>
      </trkpt>
      <trkpt lat="41.5604440" lon="-0.9237630">
        <ele>408.4</ele>
        <time>2020-12-31T14:43:34Z</time>
      </trkpt>
      <trkpt lat="41.5604310" lon="-0.9237060">
        <ele>408.3</ele>
        <time>2020-12-31T14:43:36Z</time>
      </trkpt>
      <trkpt lat="41.5604270" lon="-0.9236850">
        <ele>408.3</ele>
        <time>2020-12-31T14:43:37Z</time>
      </trkpt>
      <trkpt lat="41.5604230" lon="-0.9236650">
        <ele>408.2</ele>
        <time>2020-12-31T14:43:38Z</time>
      </trkpt>
      <trkpt lat="41.5604180" lon="-0.9236150">
        <ele>408.1</ele>
        <time>2020-12-31T14:43:39Z</time>
      </trkpt>
      <trkpt lat="41.5604170" lon="-0.9235940">
        <ele>408.0</ele>
        <time>2020-12-31T14:43:40Z</time>
      </trkpt>
      <trkpt lat="41.5603980" lon="-0.9234650">
        <ele>407.5</ele>
        <time>2020-12-31T14:43:42Z</time>
      </trkpt>
      <trkpt lat="41.5603730" lon="-0.9233090">
        <ele>406.8</ele>
        <time>2020-12-31T14:43:44Z</time>
      </trkpt>
      <trkpt lat="41.5603600" lon="-0.9232270">
        <ele>406.4</ele>
        <time>2020-12-31T14:43:45Z</time>
      </trkpt>
      <trkpt lat="41.5603300" lon="-0.9230660">
        <ele>405.8</ele>
        <time>2020-12-31T14:43:47Z</time>
      </trkpt>
      <trkpt lat="41.5603120" lon="-0.9229960">
        <ele>405.5</ele>
        <time>2020-12-31T14:43:48Z</time>
      </trkpt>
      <trkpt lat="41.5602920" lon="-0.9229410">
        <ele>405.3</ele>
        <time>2020-12-31T14:43:49Z</time>
      </trkpt>
      <trkpt lat="41.5602440" lon="-0.9229240">
        <ele>405.3</ele>
        <time>2020-12-31T14:43:51Z</time>
      </trkpt>
      <trkpt lat="41.5602240" lon="-0.9229120">
        <ele>405.3</ele>
        <time>2020-12-31T14:43:52Z</time>
      </trkpt>
      <trkpt lat="41.5602030" lon="-0.9228990">
        <ele>405.3</ele>
        <time>2020-12-31T14:43:53Z</time>
      </trkpt>
      <trkpt lat="41.5601460" lon="-0.9228680">
        <ele>405.3</ele>
        <time>2020-12-31T14:43:54Z</time>
      </trkpt>
      <trkpt lat="41.5600680" lon="-0.9228230">
        <ele>405.4</ele>
        <time>2020-12-31T14:43:56Z</time>
      </trkpt>
      <trkpt lat="41.5600540" lon="-0.9227980">
        <ele>405.4</ele>
        <time>2020-12-31T14:43:57Z</time>
      </trkpt>
      <trkpt lat="41.5599900" lon="-0.9227570">
        <ele>405.5</ele>
        <time>2020-12-31T14:43:59Z</time>
      </trkpt>
      <trkpt lat="41.5599220" lon="-0.9227080">
        <ele>405.6</ele>
        <time>2020-12-31T14:44:00Z</time>
      </trkpt>
      <trkpt lat="41.5598350" lon="-0.9226480">
        <ele>405.7</ele>
        <time>2020-12-31T14:44:02Z</time>
      </trkpt>
      <trkpt lat="41.5597850" lon="-0.9226100">
        <ele>405.8</ele>
        <time>2020-12-31T14:44:03Z</time>
      </trkpt>
      <trkpt lat="41.5597410" lon="-0.9225770">
        <ele>405.9</ele>
        <time>2020-12-31T14:44:04Z</time>
      </trkpt>
      <trkpt lat="41.5597000" lon="-0.9225430">
        <ele>405.9</ele>
        <time>2020-12-31T14:44:05Z</time>
      </trkpt>
      <trkpt lat="41.5596580" lon="-0.9225040">
        <ele>406.0</ele>
        <time>2020-12-31T14:44:06Z</time>
      </trkpt>
      <trkpt lat="41.5596140" lon="-0.9224580">
        <ele>406.0</ele>
        <time>2020-12-31T14:44:07Z</time>
      </trkpt>
      <trkpt lat="41.5595700" lon="-0.9224170">
        <ele>406.0</ele>
        <time>2020-12-31T14:44:08Z</time>
      </trkpt>
      <trkpt lat="41.5595130" lon="-0.9223700">
        <ele>406.1</ele>
        <time>2020-12-31T14:44:10Z</time>
      </trkpt>
      <trkpt lat="41.5594590" lon="-0.9223180">
        <ele>406.2</ele>
        <time>2020-12-31T14:44:11Z</time>
      </trkpt>
      <trkpt lat="41.5594260" lon="-0.9222730">
        <ele>406.2</ele>
        <time>2020-12-31T14:44:12Z</time>
      </trkpt>
      <trkpt lat="41.5593970" lon="-0.9222270">
        <ele>406.3</ele>
        <time>2020-12-31T14:44:13Z</time>
      </trkpt>
      <trkpt lat="41.5593630" lon="-0.9221760">
        <ele>406.3</ele>
        <time>2020-12-31T14:44:14Z</time>
      </trkpt>
      <trkpt lat="41.5593330" lon="-0.9221210">
        <ele>406.4</ele>
        <time>2020-12-31T14:44:15Z</time>
      </trkpt>
      <trkpt lat="41.5593060" lon="-0.9220460">
        <ele>406.6</ele>
        <time>2020-12-31T14:44:17Z</time>
      </trkpt>
      <trkpt lat="41.5592760" lon="-0.9219600">
        <ele>406.7</ele>
        <time>2020-12-31T14:44:19Z</time>
      </trkpt>
      <trkpt lat="41.5592620" lon="-0.9219110">
        <ele>406.8</ele>
        <time>2020-12-31T14:44:20Z</time>
      </trkpt>
      <trkpt lat="41.5592430" lon="-0.9218410">
        <ele>406.9</ele>
        <time>2020-12-31T14:44:21Z</time>
      </trkpt>
      <trkpt lat="41.5592220" lon="-0.9217860">
        <ele>407.0</ele>
        <time>2020-12-31T14:44:22Z</time>
      </trkpt>
      <trkpt lat="41.5591960" lon="-0.9217170">
        <ele>407.2</ele>
        <time>2020-12-31T14:44:23Z</time>
      </trkpt>
      <trkpt lat="41.5591670" lon="-0.9216340">
        <ele>407.5</ele>
        <time>2020-12-31T14:44:25Z</time>
      </trkpt>
      <trkpt lat="41.5591340" lon="-0.9215550">
        <ele>407.7</ele>
        <time>2020-12-31T14:44:27Z</time>
      </trkpt>
      <trkpt lat="41.5591180" lon="-0.9215060">
        <ele>407.9</ele>
        <time>2020-12-31T14:44:28Z</time>
      </trkpt>
      <trkpt lat="41.5590980" lon="-0.9214390">
        <ele>408.1</ele>
        <time>2020-12-31T14:44:29Z</time>
      </trkpt>
      <trkpt lat="41.5590770" lon="-0.9213680">
        <ele>408.3</ele>
        <time>2020-12-31T14:44:31Z</time>
      </trkpt>
      <trkpt lat="41.5590630" lon="-0.9213160">
        <ele>408.4</ele>
        <time>2020-12-31T14:44:32Z</time>
      </trkpt>
      <trkpt lat="41.5590530" lon="-0.9212610">
        <ele>408.6</ele>
        <time>2020-12-31T14:44:33Z</time>
      </trkpt>
      <trkpt lat="41.5590440" lon="-0.9211890">
        <ele>408.7</ele>
        <time>2020-12-31T14:44:34Z</time>
      </trkpt>
      <trkpt lat="41.5590360" lon="-0.9211070">
        <ele>408.8</ele>
        <time>2020-12-31T14:44:35Z</time>
      </trkpt>
      <trkpt lat="41.5590340" lon="-0.9210240">
        <ele>408.9</ele>
        <time>2020-12-31T14:44:37Z</time>
      </trkpt>
      <trkpt lat="41.5590370" lon="-0.9209590">
        <ele>409.0</ele>
        <time>2020-12-31T14:44:38Z</time>
      </trkpt>
      <trkpt lat="41.5590400" lon="-0.9208790">
        <ele>409.0</ele>
        <time>2020-12-31T14:44:40Z</time>
      </trkpt>
      <trkpt lat="41.5590340" lon="-0.9208030">
        <ele>409.1</ele>
        <time>2020-12-31T14:44:41Z</time>
      </trkpt>
      <trkpt lat="41.5590160" lon="-0.9207350">
        <ele>409.1</ele>
        <time>2020-12-31T14:44:42Z</time>
      </trkpt>
      <trkpt lat="41.5589840" lon="-0.9206730">
        <ele>409.0</ele>
        <time>2020-12-31T14:44:44Z</time>
      </trkpt>
      <trkpt lat="41.5589600" lon="-0.9206290">
        <ele>409.0</ele>
        <time>2020-12-31T14:44:45Z</time>
      </trkpt>
      <trkpt lat="41.5589460" lon="-0.9205950">
        <ele>408.8</ele>
        <time>2020-12-31T14:44:46Z</time>
      </trkpt>
      <trkpt lat="41.5589350" lon="-0.9205190">
        <ele>408.6</ele>
        <time>2020-12-31T14:44:48Z</time>
      </trkpt>
      <trkpt lat="41.5589540" lon="-0.9204790">
        <ele>408.4</ele>
        <time>2020-12-31T14:44:49Z</time>
      </trkpt>
      <trkpt lat="41.5589850" lon="-0.9204530">
        <ele>408.4</ele>
        <time>2020-12-31T14:44:50Z</time>
      </trkpt>
      <trkpt lat="41.5590390" lon="-0.9204340">
        <ele>408.3</ele>
        <time>2020-12-31T14:44:52Z</time>
      </trkpt>
      <trkpt lat="41.5591000" lon="-0.9204550">
        <ele>408.2</ele>
        <time>2020-12-31T14:44:53Z</time>
      </trkpt>
      <trkpt lat="41.5591680" lon="-0.9204760">
        <ele>408.1</ele>
        <time>2020-12-31T14:44:55Z</time>
      </trkpt>
      <trkpt lat="41.5592270" lon="-0.9204930">
        <ele>408.0</ele>
        <time>2020-12-31T14:44:56Z</time>
      </trkpt>
      <trkpt lat="41.5592700" lon="-0.9204970">
        <ele>408.0</ele>
        <time>2020-12-31T14:44:57Z</time>
      </trkpt>
      <trkpt lat="41.5593240" lon="-0.9205000">
        <ele>407.9</ele>
        <time>2020-12-31T14:44:58Z</time>
      </trkpt>
      <trkpt lat="41.5593780" lon="-0.9205030">
        <ele>407.9</ele>
        <time>2020-12-31T14:45:00Z</time>
      </trkpt>
      <trkpt lat="41.5594320" lon="-0.9204990">
        <ele>407.8</ele>
        <time>2020-12-31T14:45:01Z</time>
      </trkpt>
      <trkpt lat="41.5594810" lon="-0.9204910">
        <ele>407.8</ele>
        <time>2020-12-31T14:45:02Z</time>
      </trkpt>
      <trkpt lat="41.5595230" lon="-0.9204860">
        <ele>407.7</ele>
        <time>2020-12-31T14:45:03Z</time>
      </trkpt>
      <trkpt lat="41.5595700" lon="-0.9204770">
        <ele>407.7</ele>
        <time>2020-12-31T14:45:04Z</time>
      </trkpt>
      <trkpt lat="41.5596240" lon="-0.9204620">
        <ele>407.6</ele>
        <time>2020-12-31T14:45:06Z</time>
      </trkpt>
      <trkpt lat="41.5596690" lon="-0.9204480">
        <ele>407.5</ele>
        <time>2020-12-31T14:45:07Z</time>
      </trkpt>
      <trkpt lat="41.5597270" lon="-0.9204270">
        <ele>407.4</ele>
        <time>2020-12-31T14:45:08Z</time>
      </trkpt>
      <trkpt lat="41.5597800" lon="-0.9203990">
        <ele>407.4</ele>
        <time>2020-12-31T14:45:09Z</time>
      </trkpt>
      <trkpt lat="41.5598250" lon="-0.9203780">
        <ele>407.3</ele>
        <time>2020-12-31T14:45:10Z</time>
      </trkpt>
      <trkpt lat="41.5599120" lon="-0.9203300">
        <ele>407.1</ele>
        <time>2020-12-31T14:45:12Z</time>
      </trkpt>
      <trkpt lat="41.5600020" lon="-0.9202800">
        <ele>406.9</ele>
        <time>2020-12-31T14:45:14Z</time>
      </trkpt>
      <trkpt lat="41.5600990" lon="-0.9202320">
        <ele>406.8</ele>
        <time>2020-12-31T14:45:16Z</time>
      </trkpt>
      <trkpt lat="41.5601910" lon="-0.9201870">
        <ele>406.7</ele>
        <time>2020-12-31T14:45:18Z</time>
      </trkpt>
      <trkpt lat="41.5602350" lon="-0.9201560">
        <ele>406.7</ele>
        <time>2020-12-31T14:45:19Z</time>
      </trkpt>
      <trkpt lat="41.5602760" lon="-0.9201170">
        <ele>406.8</ele>
        <time>2020-12-31T14:45:20Z</time>
      </trkpt>
      <trkpt lat="41.5603480" lon="-0.9200280">
        <ele>406.8</ele>
        <time>2020-12-31T14:45:22Z</time>
      </trkpt>
      <trkpt lat="41.5603800" lon="-0.9199890">
        <ele>406.9</ele>
        <time>2020-12-31T14:45:23Z</time>
      </trkpt>
      <trkpt lat="41.5604340" lon="-0.9199260">
        <ele>407.0</ele>
        <time>2020-12-31T14:45:25Z</time>
      </trkpt>
      <trkpt lat="41.5604860" lon="-0.9198520">
        <ele>407.1</ele>
        <time>2020-12-31T14:45:27Z</time>
      </trkpt>
      <trkpt lat="41.5605120" lon="-0.9198190">
        <ele>407.2</ele>
        <time>2020-12-31T14:45:28Z</time>
      </trkpt>
      <trkpt lat="41.5605380" lon="-0.9197970">
        <ele>407.2</ele>
        <time>2020-12-31T14:45:29Z</time>
      </trkpt>
      <trkpt lat="41.5605670" lon="-0.9197810">
        <ele>407.2</ele>
        <time>2020-12-31T14:45:30Z</time>
      </trkpt>
      <trkpt lat="41.5605970" lon="-0.9197850">
        <ele>407.5</ele>
        <time>2020-12-31T14:45:32Z</time>
      </trkpt>
      <trkpt lat="41.5606250" lon="-0.9197980">
        <ele>407.8</ele>
        <time>2020-12-31T14:45:33Z</time>
      </trkpt>
      <trkpt lat="41.5606730" lon="-0.9198250">
        <ele>408.4</ele>
        <time>2020-12-31T14:45:35Z</time>
      </trkpt>
      <trkpt lat="41.5607000" lon="-0.9198350">
        <ele>408.7</ele>
        <time>2020-12-31T14:45:36Z</time>
      </trkpt>
      <trkpt lat="41.5607240" lon="-0.9198270">
        <ele>409.2</ele>
        <time>2020-12-31T14:45:37Z</time>
      </trkpt>
      <trkpt lat="41.5607500" lon="-0.9198230">
        <ele>409.7</ele>
        <time>2020-12-31T14:45:39Z</time>
      </trkpt>
      <trkpt lat="41.5607910" lon="-0.9197980">
        <ele>410.7</ele>
        <time>2020-12-31T14:45:40Z</time>
      </trkpt>
      <trkpt lat="41.5608280" lon="-0.9197790">
        <ele>411.7</ele>
        <time>2020-12-31T14:45:42Z</time>
      </trkpt>
      <trkpt lat="41.5608420" lon="-0.9197800">
        <ele>412.1</ele>
        <time>2020-12-31T14:45:43Z</time>
      </trkpt>
      <trkpt lat="41.5608550" lon="-0.9197810">
        <ele>412.5</ele>
        <time>2020-12-31T14:45:44Z</time>
      </trkpt>
      <trkpt lat="41.5608780" lon="-0.9197850">
        <ele>413.2</ele>
        <time>2020-12-31T14:45:45Z</time>
      </trkpt>
      <trkpt lat="41.5609310" lon="-0.9198000">
        <ele>414.8</ele>
        <time>2020-12-31T14:45:47Z</time>
      </trkpt>
      <trkpt lat="41.5609610" lon="-0.9198060">
        <ele>415.8</ele>
        <time>2020-12-31T14:45:48Z</time>
      </trkpt>
      <trkpt lat="41.5609820" lon="-0.9198160">
        <ele>416.4</ele>
        <time>2020-12-31T14:45:50Z</time>
      </trkpt>
      <trkpt lat="41.5609900" lon="-0.9198210">
        <ele>416.6</ele>
        <time>2020-12-31T14:45:51Z</time>
      </trkpt>
      <trkpt lat="41.5610210" lon="-0.9198370">
        <ele>417.5</ele>
        <time>2020-12-31T14:45:53Z</time>
      </trkpt>
      <trkpt lat="41.5610580" lon="-0.9198580">
        <ele>418.4</ele>
        <time>2020-12-31T14:45:54Z</time>
      </trkpt>
      <trkpt lat="41.5610780" lon="-0.9198840">
        <ele>419.0</ele>
        <time>2020-12-31T14:45:56Z</time>
      </trkpt>
      <trkpt lat="41.5611150" lon="-0.9199180">
        <ele>419.8</ele>
        <time>2020-12-31T14:45:57Z</time>
      </trkpt>
      <trkpt lat="41.5611650" lon="-0.9199280">
        <ele>420.6</ele>
        <time>2020-12-31T14:45:59Z</time>
      </trkpt>
      <trkpt lat="41.5611870" lon="-0.9199220">
        <ele>420.9</ele>
        <time>2020-12-31T14:46:00Z</time>
      </trkpt>
      <trkpt lat="41.5612090" lon="-0.9199160">
        <ele>421.2</ele>
        <time>2020-12-31T14:46:01Z</time>
      </trkpt>
      <trkpt lat="41.5612500" lon="-0.9199100">
        <ele>421.7</ele>
        <time>2020-12-31T14:46:03Z</time>
      </trkpt>
      <trkpt lat="41.5612870" lon="-0.9199090">
        <ele>422.2</ele>
        <time>2020-12-31T14:46:05Z</time>
      </trkpt>
      <trkpt lat="41.5613140" lon="-0.9199070">
        <ele>422.6</ele>
        <time>2020-12-31T14:46:06Z</time>
      </trkpt>
      <trkpt lat="41.5613450" lon="-0.9199000">
        <ele>423.0</ele>
        <time>2020-12-31T14:46:07Z</time>
      </trkpt>
      <trkpt lat="41.5613510" lon="-0.9198970">
        <ele>423.0</ele>
        <time>2020-12-31T14:46:08Z</time>
      </trkpt>
      <trkpt lat="41.5613630" lon="-0.9198880">
        <ele>423.2</ele>
        <time>2020-12-31T14:46:09Z</time>
      </trkpt>
      <trkpt lat="41.5613780" lon="-0.9198810">
        <ele>423.4</ele>
        <time>2020-12-31T14:46:10Z</time>
      </trkpt>
      <trkpt lat="41.5614010" lon="-0.9198760">
        <ele>423.7</ele>
        <time>2020-12-31T14:46:12Z</time>
      </trkpt>
      <trkpt lat="41.5614090" lon="-0.9198750">
        <ele>423.7</ele>
        <time>2020-12-31T14:46:13Z</time>
      </trkpt>
      <trkpt lat="41.5614170" lon="-0.9198750">
        <ele>423.8</ele>
        <time>2020-12-31T14:46:14Z</time>
      </trkpt>
      <trkpt lat="41.5614290" lon="-0.9198730">
        <ele>423.9</ele>
        <time>2020-12-31T14:46:15Z</time>
      </trkpt>
      <trkpt lat="41.5614390" lon="-0.9198690">
        <ele>424.0</ele>
        <time>2020-12-31T14:46:16Z</time>
      </trkpt>
      <trkpt lat="41.5614530" lon="-0.9198670">
        <ele>424.2</ele>
        <time>2020-12-31T14:46:17Z</time>
      </trkpt>
      <trkpt lat="41.5614660" lon="-0.9198680">
        <ele>424.3</ele>
        <time>2020-12-31T14:46:19Z</time>
      </trkpt>
      <trkpt lat="41.5614790" lon="-0.9198730">
        <ele>424.4</ele>
        <time>2020-12-31T14:46:20Z</time>
      </trkpt>
      <trkpt lat="41.5615010" lon="-0.9198780">
        <ele>424.5</ele>
        <time>2020-12-31T14:46:22Z</time>
      </trkpt>
      <trkpt lat="41.5615160" lon="-0.9198850">
        <ele>424.6</ele>
        <time>2020-12-31T14:46:23Z</time>
      </trkpt>
      <trkpt lat="41.5615420" lon="-0.9198990">
        <ele>424.7</ele>
        <time>2020-12-31T14:46:25Z</time>
      </trkpt>
      <trkpt lat="41.5615830" lon="-0.9199180">
        <ele>424.9</ele>
        <time>2020-12-31T14:46:26Z</time>
      </trkpt>
      <trkpt lat="41.5616020" lon="-0.9199280">
        <ele>425.0</ele>
        <time>2020-12-31T14:46:27Z</time>
      </trkpt>
      <trkpt lat="41.5616320" lon="-0.9199440">
        <ele>425.0</ele>
        <time>2020-12-31T14:46:28Z</time>
      </trkpt>
      <trkpt lat="41.5616570" lon="-0.9199630">
        <ele>425.1</ele>
        <time>2020-12-31T14:46:29Z</time>
      </trkpt>
      <trkpt lat="41.5616820" lon="-0.9199830">
        <ele>425.1</ele>
        <time>2020-12-31T14:46:31Z</time>
      </trkpt>
      <trkpt lat="41.5617100" lon="-0.9200060">
        <ele>425.1</ele>
        <time>2020-12-31T14:46:33Z</time>
      </trkpt>
      <trkpt lat="41.5617350" lon="-0.9200290">
        <ele>425.2</ele>
        <time>2020-12-31T14:46:34Z</time>
      </trkpt>
      <trkpt lat="41.5617600" lon="-0.9200490">
        <ele>425.2</ele>
        <time>2020-12-31T14:46:35Z</time>
      </trkpt>
      <trkpt lat="41.5618100" lon="-0.9200880">
        <ele>425.3</ele>
        <time>2020-12-31T14:46:37Z</time>
      </trkpt>
      <trkpt lat="41.5618410" lon="-0.9201280">
        <ele>425.3</ele>
        <time>2020-12-31T14:46:38Z</time>
      </trkpt>
      <trkpt lat="41.5618680" lon="-0.9201620">
        <ele>425.4</ele>
        <time>2020-12-31T14:46:40Z</time>
      </trkpt>
      <trkpt lat="41.5618790" lon="-0.9201730">
        <ele>425.4</ele>
        <time>2020-12-31T14:46:41Z</time>
      </trkpt>
      <trkpt lat="41.5618940" lon="-0.9201870">
        <ele>425.5</ele>
        <time>2020-12-31T14:46:42Z</time>
      </trkpt>
      <trkpt lat="41.5619200" lon="-0.9202240">
        <ele>425.6</ele>
        <time>2020-12-31T14:46:43Z</time>
      </trkpt>
      <trkpt lat="41.5619290" lon="-0.9202370">
        <ele>425.6</ele>
        <time>2020-12-31T14:46:44Z</time>
      </trkpt>
      <trkpt lat="41.5619510" lon="-0.9202750">
        <ele>425.7</ele>
        <time>2020-12-31T14:46:45Z</time>
      </trkpt>
      <trkpt lat="41.5619560" lon="-0.9202890">
        <ele>425.8</ele>
        <time>2020-12-31T14:46:46Z</time>
      </trkpt>
      <trkpt lat="41.5619770" lon="-0.9203280">
        <ele>425.9</ele>
        <time>2020-12-31T14:46:47Z</time>
      </trkpt>
      <trkpt lat="41.5619840" lon="-0.9203420">
        <ele>426.0</ele>
        <time>2020-12-31T14:46:48Z</time>
      </trkpt>
      <trkpt lat="41.5620070" lon="-0.9203760">
        <ele>426.2</ele>
        <time>2020-12-31T14:46:50Z</time>
      </trkpt>
      <trkpt lat="41.5620340" lon="-0.9204140">
        <ele>426.4</ele>
        <time>2020-12-31T14:46:51Z</time>
      </trkpt>
      <trkpt lat="41.5620590" lon="-0.9204430">
        <ele>426.5</ele>
        <time>2020-12-31T14:46:53Z</time>
      </trkpt>
      <trkpt lat="41.5620840" lon="-0.9204660">
        <ele>426.7</ele>
        <time>2020-12-31T14:46:54Z</time>
      </trkpt>
      <trkpt lat="41.5621110" lon="-0.9204920">
        <ele>426.9</ele>
        <time>2020-12-31T14:46:55Z</time>
      </trkpt>
      <trkpt lat="41.5621380" lon="-0.9205330">
        <ele>427.1</ele>
        <time>2020-12-31T14:46:57Z</time>
      </trkpt>
      <trkpt lat="41.5621700" lon="-0.9205830">
        <ele>427.3</ele>
        <time>2020-12-31T14:46:58Z</time>
      </trkpt>
      <trkpt lat="41.5621940" lon="-0.9206210">
        <ele>427.4</ele>
        <time>2020-12-31T14:46:59Z</time>
      </trkpt>
      <trkpt lat="41.5622170" lon="-0.9206530">
        <ele>427.6</ele>
        <time>2020-12-31T14:47:00Z</time>
      </trkpt>
      <trkpt lat="41.5622530" lon="-0.9207070">
        <ele>427.8</ele>
        <time>2020-12-31T14:47:02Z</time>
      </trkpt>
      <trkpt lat="41.5622830" lon="-0.9207520">
        <ele>427.9</ele>
        <time>2020-12-31T14:47:03Z</time>
      </trkpt>
      <trkpt lat="41.5623060" lon="-0.9207770">
        <ele>428.0</ele>
        <time>2020-12-31T14:47:04Z</time>
      </trkpt>
      <trkpt lat="41.5623380" lon="-0.9208010">
        <ele>428.2</ele>
        <time>2020-12-31T14:47:06Z</time>
      </trkpt>
      <trkpt lat="41.5623760" lon="-0.9208270">
        <ele>428.3</ele>
        <time>2020-12-31T14:47:07Z</time>
      </trkpt>
      <trkpt lat="41.5624340" lon="-0.9208630">
        <ele>428.5</ele>
        <time>2020-12-31T14:47:09Z</time>
      </trkpt>
      <trkpt lat="41.5624640" lon="-0.9208840">
        <ele>428.6</ele>
        <time>2020-12-31T14:47:10Z</time>
      </trkpt>
      <trkpt lat="41.5624910" lon="-0.9209050">
        <ele>428.6</ele>
        <time>2020-12-31T14:47:11Z</time>
      </trkpt>
      <trkpt lat="41.5625220" lon="-0.9209290">
        <ele>428.6</ele>
        <time>2020-12-31T14:47:12Z</time>
      </trkpt>
      <trkpt lat="41.5625310" lon="-0.9209360">
        <ele>428.6</ele>
        <time>2020-12-31T14:47:13Z</time>
      </trkpt>
      <trkpt lat="41.5625600" lon="-0.9209520">
        <ele>428.5</ele>
        <time>2020-12-31T14:47:14Z</time>
      </trkpt>
      <trkpt lat="41.5626040" lon="-0.9209660">
        <ele>428.3</ele>
        <time>2020-12-31T14:47:15Z</time>
      </trkpt>
      <trkpt lat="41.5626610" lon="-0.9209870">
        <ele>428.0</ele>
        <time>2020-12-31T14:47:17Z</time>
      </trkpt>
      <trkpt lat="41.5626960" lon="-0.9209990">
        <ele>427.7</ele>
        <time>2020-12-31T14:47:18Z</time>
      </trkpt>
      <trkpt lat="41.5627260" lon="-0.9210030">
        <ele>427.5</ele>
        <time>2020-12-31T14:47:20Z</time>
      </trkpt>
      <trkpt lat="41.5627630" lon="-0.9210110">
        <ele>427.3</ele>
        <time>2020-12-31T14:47:22Z</time>
      </trkpt>
      <trkpt lat="41.5627930" lon="-0.9210260">
        <ele>427.1</ele>
        <time>2020-12-31T14:47:23Z</time>
      </trkpt>
      <trkpt lat="41.5628240" lon="-0.9210570">
        <ele>426.9</ele>
        <time>2020-12-31T14:47:25Z</time>
      </trkpt>
      <trkpt lat="41.5628330" lon="-0.9210700">
        <ele>426.8</ele>
        <time>2020-12-31T14:47:26Z</time>
      </trkpt>
      <trkpt lat="41.5628490" lon="-0.9211150">
        <ele>426.7</ele>
        <time>2020-12-31T14:47:27Z</time>
      </trkpt>
      <trkpt lat="41.5628630" lon="-0.9211660">
        <ele>426.7</ele>
        <time>2020-12-31T14:47:29Z</time>
      </trkpt>
      <trkpt lat="41.5628860" lon="-0.9211980">
        <ele>426.7</ele>
        <time>2020-12-31T14:47:30Z</time>
      </trkpt>
      <trkpt lat="41.5628920" lon="-0.9212080">
        <ele>426.7</ele>
        <time>2020-12-31T14:47:31Z</time>
      </trkpt>
      <trkpt lat="41.5629130" lon="-0.9212260">
        <ele>426.7</ele>
        <time>2020-12-31T14:47:32Z</time>
      </trkpt>
      <trkpt lat="41.5629330" lon="-0.9212410">
        <ele>426.8</ele>
        <time>2020-12-31T14:47:34Z</time>
      </trkpt>
      <trkpt lat="41.5629680" lon="-0.9212690">
        <ele>427.0</ele>
        <time>2020-12-31T14:47:35Z</time>
      </trkpt>
      <trkpt lat="41.5630070" lon="-0.9213050">
        <ele>427.3</ele>
        <time>2020-12-31T14:47:36Z</time>
      </trkpt>
      <trkpt lat="41.5630530" lon="-0.9213330">
        <ele>427.9</ele>
        <time>2020-12-31T14:47:38Z</time>
      </trkpt>
      <trkpt lat="41.5630660" lon="-0.9213420">
        <ele>428.1</ele>
        <time>2020-12-31T14:47:39Z</time>
      </trkpt>
      <trkpt lat="41.5630800" lon="-0.9213520">
        <ele>428.3</ele>
        <time>2020-12-31T14:47:40Z</time>
      </trkpt>
      <trkpt lat="41.5631120" lon="-0.9213860">
        <ele>429.0</ele>
        <time>2020-12-31T14:47:42Z</time>
      </trkpt>
      <trkpt lat="41.5631240" lon="-0.9213940">
        <ele>429.2</ele>
        <time>2020-12-31T14:47:43Z</time>
      </trkpt>
      <trkpt lat="41.5631350" lon="-0.9214030">
        <ele>429.5</ele>
        <time>2020-12-31T14:47:44Z</time>
      </trkpt>
      <trkpt lat="41.5631560" lon="-0.9214400">
        <ele>430.1</ele>
        <time>2020-12-31T14:47:46Z</time>
      </trkpt>
      <trkpt lat="41.5631830" lon="-0.9214790">
        <ele>431.0</ele>
        <time>2020-12-31T14:47:47Z</time>
      </trkpt>
      <trkpt lat="41.5631920" lon="-0.9214910">
        <ele>431.2</ele>
        <time>2020-12-31T14:47:48Z</time>
      </trkpt>
      <trkpt lat="41.5632180" lon="-0.9215070">
        <ele>431.8</ele>
        <time>2020-12-31T14:47:50Z</time>
      </trkpt>
      <trkpt lat="41.5632330" lon="-0.9215150">
        <ele>432.2</ele>
        <time>2020-12-31T14:47:51Z</time>
      </trkpt>
      <trkpt lat="41.5632480" lon="-0.9215390">
        <ele>432.7</ele>
        <time>2020-12-31T14:47:53Z</time>
      </trkpt>
      <trkpt lat="41.5632640" lon="-0.9215550">
        <ele>433.1</ele>
        <time>2020-12-31T14:47:54Z</time>
      </trkpt>
      <trkpt lat="41.5632730" lon="-0.9215620">
        <ele>433.3</ele>
        <time>2020-12-31T14:47:55Z</time>
      </trkpt>
      <trkpt lat="41.5632810" lon="-0.9215690">
        <ele>433.5</ele>
        <time>2020-12-31T14:47:56Z</time>
      </trkpt>
      <trkpt lat="41.5632880" lon="-0.9215870">
        <ele>433.8</ele>
        <time>2020-12-31T14:47:57Z</time>
      </trkpt>
      <trkpt lat="41.5633000" lon="-0.9216130">
        <ele>434.2</ele>
        <time>2020-12-31T14:47:59Z</time>
      </trkpt>
      <trkpt lat="41.5633190" lon="-0.9216370">
        <ele>434.7</ele>
        <time>2020-12-31T14:48:00Z</time>
      </trkpt>
      <trkpt lat="41.5633260" lon="-0.9216480">
        <ele>434.8</ele>
        <time>2020-12-31T14:48:01Z</time>
      </trkpt>
      <trkpt lat="41.5633470" lon="-0.9216900">
        <ele>435.4</ele>
        <time>2020-12-31T14:48:03Z</time>
      </trkpt>
      <trkpt lat="41.5633610" lon="-0.9217320">
        <ele>435.9</ele>
        <time>2020-12-31T14:48:04Z</time>
      </trkpt>
      <trkpt lat="41.5633680" lon="-0.9217560">
        <ele>436.1</ele>
        <time>2020-12-31T14:48:05Z</time>
      </trkpt>
      <trkpt lat="41.5633790" lon="-0.9218100">
        <ele>436.6</ele>
        <time>2020-12-31T14:48:07Z</time>
      </trkpt>
      <trkpt lat="41.5633900" lon="-0.9218500">
        <ele>436.9</ele>
        <time>2020-12-31T14:48:08Z</time>
      </trkpt>
      <trkpt lat="41.5633920" lon="-0.9218620">
        <ele>437.0</ele>
        <time>2020-12-31T14:48:09Z</time>
      </trkpt>
      <trkpt lat="41.5633990" lon="-0.9219000">
        <ele>437.2</ele>
        <time>2020-12-31T14:48:11Z</time>
      </trkpt>
      <trkpt lat="41.5634060" lon="-0.9219430">
        <ele>437.4</ele>
        <time>2020-12-31T14:48:12Z</time>
      </trkpt>
      <trkpt lat="41.5634080" lon="-0.9219680">
        <ele>437.5</ele>
        <time>2020-12-31T14:48:13Z</time>
      </trkpt>
      <trkpt lat="41.5634140" lon="-0.9219810">
        <ele>437.6</ele>
        <time>2020-12-31T14:48:14Z</time>
      </trkpt>
      <trkpt lat="41.5634340" lon="-0.9220110">
        <ele>437.7</ele>
        <time>2020-12-31T14:48:16Z</time>
      </trkpt>
      <trkpt lat="41.5634520" lon="-0.9220680">
        <ele>437.7</ele>
        <time>2020-12-31T14:48:18Z</time>
      </trkpt>
      <trkpt lat="41.5634680" lon="-0.9221190">
        <ele>437.7</ele>
        <time>2020-12-31T14:48:19Z</time>
      </trkpt>
      <trkpt lat="41.5635110" lon="-0.9221780">
        <ele>437.6</ele>
        <time>2020-12-31T14:48:21Z</time>
      </trkpt>
      <trkpt lat="41.5635350" lon="-0.9222250">
        <ele>437.4</ele>
        <time>2020-12-31T14:48:23Z</time>
      </trkpt>
      <trkpt lat="41.5635610" lon="-0.9222660">
        <ele>437.1</ele>
        <time>2020-12-31T14:48:24Z</time>
      </trkpt>
      <trkpt lat="41.5635750" lon="-0.9222800">
        <ele>437.0</ele>
        <time>2020-12-31T14:48:25Z</time>
      </trkpt>
      <trkpt lat="41.5635960" lon="-0.9223050">
        <ele>436.9</ele>
        <time>2020-12-31T14:48:26Z</time>
      </trkpt>
      <trkpt lat="41.5636300" lon="-0.9223510">
        <ele>436.5</ele>
        <time>2020-12-31T14:48:27Z</time>
      </trkpt>
      <trkpt lat="41.5636560" lon="-0.9223870">
        <ele>436.1</ele>
        <time>2020-12-31T14:48:29Z</time>
      </trkpt>
      <trkpt lat="41.5636900" lon="-0.9224240">
        <ele>435.7</ele>
        <time>2020-12-31T14:48:30Z</time>
      </trkpt>
      <trkpt lat="41.5637260" lon="-0.9224640">
        <ele>435.2</ele>
        <time>2020-12-31T14:48:31Z</time>
      </trkpt>
      <trkpt lat="41.5637540" lon="-0.9224890">
        <ele>434.8</ele>
        <time>2020-12-31T14:48:32Z</time>
      </trkpt>
      <trkpt lat="41.5637800" lon="-0.9225010">
        <ele>434.5</ele>
        <time>2020-12-31T14:48:33Z</time>
      </trkpt>
      <trkpt lat="41.5638210" lon="-0.9225130">
        <ele>434.0</ele>
        <time>2020-12-31T14:48:35Z</time>
      </trkpt>
      <trkpt lat="41.5638740" lon="-0.9225080">
        <ele>433.5</ele>
        <time>2020-12-31T14:48:37Z</time>
      </trkpt>
      <trkpt lat="41.5641560" lon="-0.9226090">
        <ele>431.9</ele>
        <time>2020-12-31T14:48:38Z</time>
      </trkpt>
      <trkpt lat="41.5642490" lon="-0.9226420">
        <ele>431.8</ele>
        <time>2020-12-31T14:48:40Z</time>
      </trkpt>
      <trkpt lat="41.5642980" lon="-0.9226650">
        <ele>431.8</ele>
        <time>2020-12-31T14:48:41Z</time>
      </trkpt>
      <trkpt lat="41.5643400" lon="-0.9226860">
        <ele>431.8</ele>
        <time>2020-12-31T14:48:42Z</time>
      </trkpt>
      <trkpt lat="41.5643660" lon="-0.9227080">
        <ele>431.7</ele>
        <time>2020-12-31T14:48:44Z</time>
      </trkpt>
      <trkpt lat="41.5643930" lon="-0.9227160">
        <ele>431.7</ele>
        <time>2020-12-31T14:48:45Z</time>
      </trkpt>
      <trkpt lat="41.5644710" lon="-0.9227470">
        <ele>431.6</ele>
        <time>2020-12-31T14:48:46Z</time>
      </trkpt>
      <trkpt lat="41.5645790" lon="-0.9227730">
        <ele>431.4</ele>
        <time>2020-12-31T14:48:48Z</time>
      </trkpt>
      <trkpt lat="41.5646800" lon="-0.9228220">
        <ele>431.4</ele>
        <time>2020-12-31T14:48:50Z</time>
      </trkpt>
      <trkpt lat="41.5647380" lon="-0.9228780">
        <ele>431.6</ele>
        <time>2020-12-31T14:48:52Z</time>
      </trkpt>
      <trkpt lat="41.5647710" lon="-0.9229390">
        <ele>431.9</ele>
        <time>2020-12-31T14:48:53Z</time>
      </trkpt>
      <trkpt lat="41.5647810" lon="-0.9229840">
        <ele>432.2</ele>
        <time>2020-12-31T14:48:54Z</time>
      </trkpt>
      <trkpt lat="41.5647980" lon="-0.9230160">
        <ele>432.4</ele>
        <time>2020-12-31T14:48:56Z</time>
      </trkpt>
      <trkpt lat="41.5648160" lon="-0.9230510">
        <ele>432.7</ele>
        <time>2020-12-31T14:48:57Z</time>
      </trkpt>
      <trkpt lat="41.5648260" lon="-0.9230910">
        <ele>433.0</ele>
        <time>2020-12-31T14:48:58Z</time>
      </trkpt>
      <trkpt lat="41.5648380" lon="-0.9231370">
        <ele>433.4</ele>
        <time>2020-12-31T14:49:00Z</time>
      </trkpt>
      <trkpt lat="41.5648600" lon="-0.9231780">
        <ele>433.9</ele>
        <time>2020-12-31T14:49:02Z</time>
      </trkpt>
      <trkpt lat="41.5648720" lon="-0.9232060">
        <ele>434.2</ele>
        <time>2020-12-31T14:49:03Z</time>
      </trkpt>
      <trkpt lat="41.5648830" lon="-0.9232400">
        <ele>434.6</ele>
        <time>2020-12-31T14:49:05Z</time>
      </trkpt>
      <trkpt lat="41.5648950" lon="-0.9232800">
        <ele>435.0</ele>
        <time>2020-12-31T14:49:06Z</time>
      </trkpt>
      <trkpt lat="41.5649000" lon="-0.9232950">
        <ele>435.2</ele>
        <time>2020-12-31T14:49:07Z</time>
      </trkpt>
      <trkpt lat="41.5649140" lon="-0.9233330">
        <ele>435.7</ele>
        <time>2020-12-31T14:49:08Z</time>
      </trkpt>
      <trkpt lat="41.5649190" lon="-0.9233480">
        <ele>435.9</ele>
        <time>2020-12-31T14:49:09Z</time>
      </trkpt>
      <trkpt lat="41.5649350" lon="-0.9233850">
        <ele>436.4</ele>
        <time>2020-12-31T14:49:11Z</time>
      </trkpt>
      <trkpt lat="41.5649550" lon="-0.9234140">
        <ele>436.9</ele>
        <time>2020-12-31T14:49:12Z</time>
      </trkpt>
      <trkpt lat="41.5649630" lon="-0.9234450">
        <ele>437.3</ele>
        <time>2020-12-31T14:49:14Z</time>
      </trkpt>
      <trkpt lat="41.5649760" lon="-0.9234840">
        <ele>437.8</ele>
        <time>2020-12-31T14:49:16Z</time>
      </trkpt>
      <trkpt lat="41.5649840" lon="-0.9235100">
        <ele>438.2</ele>
        <time>2020-12-31T14:49:17Z</time>
      </trkpt>
      <trkpt lat="41.5649910" lon="-0.9235480">
        <ele>438.7</ele>
        <time>2020-12-31T14:49:19Z</time>
      </trkpt>
      <trkpt lat="41.5649950" lon="-0.9235790">
        <ele>439.1</ele>
        <time>2020-12-31T14:49:20Z</time>
      </trkpt>
      <trkpt lat="41.5649940" lon="-0.9236050">
        <ele>439.4</ele>
        <time>2020-12-31T14:49:22Z</time>
      </trkpt>
      <trkpt lat="41.5649910" lon="-0.9236240">
        <ele>439.7</ele>
        <time>2020-12-31T14:49:23Z</time>
      </trkpt>
      <trkpt lat="41.5649860" lon="-0.9236400">
        <ele>439.9</ele>
        <time>2020-12-31T14:49:24Z</time>
      </trkpt>
      <trkpt lat="41.5649840" lon="-0.9236590">
        <ele>440.1</ele>
        <time>2020-12-31T14:49:25Z</time>
      </trkpt>
      <trkpt lat="41.5649990" lon="-0.9236950">
        <ele>440.6</ele>
        <time>2020-12-31T14:49:27Z</time>
      </trkpt>
      <trkpt lat="41.5650040" lon="-0.9237120">
        <ele>440.9</ele>
        <time>2020-12-31T14:49:28Z</time>
      </trkpt>
      <trkpt lat="41.5650120" lon="-0.9237490">
        <ele>441.3</ele>
        <time>2020-12-31T14:49:30Z</time>
      </trkpt>
      <trkpt lat="41.5650200" lon="-0.9237720">
        <ele>441.6</ele>
        <time>2020-12-31T14:49:31Z</time>
      </trkpt>
      <trkpt lat="41.5650340" lon="-0.9238070">
        <ele>441.9</ele>
        <time>2020-12-31T14:49:33Z</time>
      </trkpt>
      <trkpt lat="41.5650390" lon="-0.9238210">
        <ele>442.1</ele>
        <time>2020-12-31T14:49:34Z</time>
      </trkpt>
      <trkpt lat="41.5650480" lon="-0.9238440">
        <ele>442.3</ele>
        <time>2020-12-31T14:49:35Z</time>
      </trkpt>
      <trkpt lat="41.5650590" lon="-0.9238630">
        <ele>442.4</ele>
        <time>2020-12-31T14:49:36Z</time>
      </trkpt>
      <trkpt lat="41.5650820" lon="-0.9238970">
        <ele>442.7</ele>
        <time>2020-12-31T14:49:38Z</time>
      </trkpt>
      <trkpt lat="41.5651060" lon="-0.9239080">
        <ele>442.9</ele>
        <time>2020-12-31T14:49:39Z</time>
      </trkpt>
      <trkpt lat="41.5651520" lon="-0.9239280">
        <ele>443.0</ele>
        <time>2020-12-31T14:49:41Z</time>
      </trkpt>
      <trkpt lat="41.5651910" lon="-0.9239360">
        <ele>443.1</ele>
        <time>2020-12-31T14:49:42Z</time>
      </trkpt>
      <trkpt lat="41.5652470" lon="-0.9239370">
        <ele>443.1</ele>
        <time>2020-12-31T14:49:43Z</time>
      </trkpt>
      <trkpt lat="41.5653230" lon="-0.9239620">
        <ele>442.9</ele>
        <time>2020-12-31T14:49:45Z</time>
      </trkpt>
      <trkpt lat="41.5653700" lon="-0.9239850">
        <ele>442.8</ele>
        <time>2020-12-31T14:49:46Z</time>
      </trkpt>
      <trkpt lat="41.5654300" lon="-0.9239950">
        <ele>442.6</ele>
        <time>2020-12-31T14:49:48Z</time>
      </trkpt>
      <trkpt lat="41.5654980" lon="-0.9239710">
        <ele>442.3</ele>
        <time>2020-12-31T14:49:49Z</time>
      </trkpt>
      <trkpt lat="41.5655970" lon="-0.9239020">
        <ele>441.8</ele>
        <time>2020-12-31T14:49:51Z</time>
      </trkpt>
      <trkpt lat="41.5656830" lon="-0.9237900">
        <ele>441.2</ele>
        <time>2020-12-31T14:49:53Z</time>
      </trkpt>
      <trkpt lat="41.5657700" lon="-0.9236850">
        <ele>440.6</ele>
        <time>2020-12-31T14:49:55Z</time>
      </trkpt>
      <trkpt lat="41.5658830" lon="-0.9236320">
        <ele>439.8</ele>
        <time>2020-12-31T14:49:57Z</time>
      </trkpt>
      <trkpt lat="41.5659420" lon="-0.9236260">
        <ele>439.4</ele>
        <time>2020-12-31T14:49:58Z</time>
      </trkpt>
      <trkpt lat="41.5660630" lon="-0.9236510">
        <ele>438.6</ele>
        <time>2020-12-31T14:50:00Z</time>
      </trkpt>
      <trkpt lat="41.5661240" lon="-0.9236770">
        <ele>438.1</ele>
        <time>2020-12-31T14:50:01Z</time>
      </trkpt>
      <trkpt lat="41.5662510" lon="-0.9236720">
        <ele>437.1</ele>
        <time>2020-12-31T14:50:03Z</time>
      </trkpt>
      <trkpt lat="41.5663150" lon="-0.9236330">
        <ele>436.7</ele>
        <time>2020-12-31T14:50:04Z</time>
      </trkpt>
      <trkpt lat="41.5664490" lon="-0.9235490">
        <ele>436.1</ele>
        <time>2020-12-31T14:50:06Z</time>
      </trkpt>
      <trkpt lat="41.5665830" lon="-0.9234820">
        <ele>435.9</ele>
        <time>2020-12-31T14:50:08Z</time>
      </trkpt>
      <trkpt lat="41.5666500" lon="-0.9234790">
        <ele>435.9</ele>
        <time>2020-12-31T14:50:09Z</time>
      </trkpt>
      <trkpt lat="41.5667490" lon="-0.9234960">
        <ele>435.9</ele>
        <time>2020-12-31T14:50:11Z</time>
      </trkpt>
      <trkpt lat="41.5667760" lon="-0.9235000">
        <ele>435.9</ele>
        <time>2020-12-31T14:50:12Z</time>
      </trkpt>
      <trkpt lat="41.5668360" lon="-0.9235160">
        <ele>436.0</ele>
        <time>2020-12-31T14:50:14Z</time>
      </trkpt>
      <trkpt lat="41.5668660" lon="-0.9235200">
        <ele>436.0</ele>
        <time>2020-12-31T14:50:15Z</time>
      </trkpt>
      <trkpt lat="41.5669310" lon="-0.9235280">
        <ele>435.9</ele>
        <time>2020-12-31T14:50:17Z</time>
      </trkpt>
      <trkpt lat="41.5670040" lon="-0.9235270">
        <ele>435.8</ele>
        <time>2020-12-31T14:50:18Z</time>
      </trkpt>
      <trkpt lat="41.5670310" lon="-0.9234980">
        <ele>435.8</ele>
        <time>2020-12-31T14:50:19Z</time>
      </trkpt>
      <trkpt lat="41.5670700" lon="-0.9234810">
        <ele>435.6</ele>
        <time>2020-12-31T14:50:20Z</time>
      </trkpt>
      <trkpt lat="41.5671100" lon="-0.9235090">
        <ele>435.5</ele>
        <time>2020-12-31T14:50:22Z</time>
      </trkpt>
      <trkpt lat="41.5671480" lon="-0.9235690">
        <ele>435.3</ele>
        <time>2020-12-31T14:50:23Z</time>
      </trkpt>
      <trkpt lat="41.5671740" lon="-0.9236230">
        <ele>435.1</ele>
        <time>2020-12-31T14:50:24Z</time>
      </trkpt>
      <trkpt lat="41.5672050" lon="-0.9236670">
        <ele>434.8</ele>
        <time>2020-12-31T14:50:25Z</time>
      </trkpt>
      <trkpt lat="41.5672420" lon="-0.9237200">
        <ele>434.4</ele>
        <time>2020-12-31T14:50:26Z</time>
      </trkpt>
      <trkpt lat="41.5673250" lon="-0.9238090">
        <ele>433.7</ele>
        <time>2020-12-31T14:50:28Z</time>
      </trkpt>
      <trkpt lat="41.5673750" lon="-0.9238610">
        <ele>433.2</ele>
        <time>2020-12-31T14:50:29Z</time>
      </trkpt>
      <trkpt lat="41.5674830" lon="-0.9239740">
        <ele>432.3</ele>
        <time>2020-12-31T14:50:31Z</time>
      </trkpt>
      <trkpt lat="41.5675370" lon="-0.9240340">
        <ele>432.0</ele>
        <time>2020-12-31T14:50:32Z</time>
      </trkpt>
      <trkpt lat="41.5675860" lon="-0.9240880">
        <ele>431.8</ele>
        <time>2020-12-31T14:50:33Z</time>
      </trkpt>
      <trkpt lat="41.5676250" lon="-0.9241410">
        <ele>431.6</ele>
        <time>2020-12-31T14:50:34Z</time>
      </trkpt>
      <trkpt lat="41.5676720" lon="-0.9242690">
        <ele>431.4</ele>
        <time>2020-12-31T14:50:36Z</time>
      </trkpt>
      <trkpt lat="41.5676950" lon="-0.9243980">
        <ele>431.3</ele>
        <time>2020-12-31T14:50:38Z</time>
      </trkpt>
      <trkpt lat="41.5676920" lon="-0.9245310">
        <ele>431.2</ele>
        <time>2020-12-31T14:50:40Z</time>
      </trkpt>
      <trkpt lat="41.5676800" lon="-0.9246560">
        <ele>431.3</ele>
        <time>2020-12-31T14:50:42Z</time>
      </trkpt>
      <trkpt lat="41.5676740" lon="-0.9246980">
        <ele>431.3</ele>
        <time>2020-12-31T14:50:43Z</time>
      </trkpt>
      <trkpt lat="41.5676580" lon="-0.9247930">
        <ele>431.4</ele>
        <time>2020-12-31T14:50:45Z</time>
      </trkpt>
      <trkpt lat="41.5676490" lon="-0.9248320">
        <ele>431.8</ele>
        <time>2020-12-31T14:50:46Z</time>
      </trkpt>
      <trkpt lat="41.5676760" lon="-0.9248880">
        <ele>432.0</ele>
        <time>2020-12-31T14:50:48Z</time>
      </trkpt>
      <trkpt lat="41.5676910" lon="-0.9248920">
        <ele>432.1</ele>
        <time>2020-12-31T14:50:49Z</time>
      </trkpt>
      <trkpt lat="41.5677210" lon="-0.9248710">
        <ele>432.2</ele>
        <time>2020-12-31T14:50:51Z</time>
      </trkpt>
      <trkpt lat="41.5677360" lon="-0.9248550">
        <ele>432.2</ele>
        <time>2020-12-31T14:50:52Z</time>
      </trkpt>
      <trkpt lat="41.5677620" lon="-0.9248280">
        <ele>432.4</ele>
        <time>2020-12-31T14:50:54Z</time>
      </trkpt>
      <trkpt lat="41.5677810" lon="-0.9248200">
        <ele>432.4</ele>
        <time>2020-12-31T14:50:55Z</time>
      </trkpt>
      <trkpt lat="41.5678120" lon="-0.9248010">
        <ele>432.5</ele>
        <time>2020-12-31T14:50:57Z</time>
      </trkpt>
      <trkpt lat="41.5678370" lon="-0.9247750">
        <ele>432.6</ele>
        <time>2020-12-31T14:50:58Z</time>
      </trkpt>
      <trkpt lat="41.5678440" lon="-0.9247670">
        <ele>432.7</ele>
        <time>2020-12-31T14:50:59Z</time>
      </trkpt>
      <trkpt lat="41.5678720" lon="-0.9247620">
        <ele>432.7</ele>
        <time>2020-12-31T14:51:01Z</time>
      </trkpt>
      <trkpt lat="41.5678890" lon="-0.9247730">
        <ele>432.8</ele>
        <time>2020-12-31T14:51:02Z</time>
      </trkpt>
      <trkpt lat="41.5679020" lon="-0.9247820">
        <ele>432.8</ele>
        <time>2020-12-31T14:51:03Z</time>
      </trkpt>
      <trkpt lat="41.5679160" lon="-0.9247820">
        <ele>432.9</ele>
        <time>2020-12-31T14:51:04Z</time>
      </trkpt>
      <trkpt lat="41.5679290" lon="-0.9247790">
        <ele>432.9</ele>
        <time>2020-12-31T14:51:06Z</time>
      </trkpt>
      <trkpt lat="41.5679430" lon="-0.9247840">
        <ele>432.9</ele>
        <time>2020-12-31T14:51:07Z</time>
      </trkpt>
      <trkpt lat="41.5679520" lon="-0.9247860">
        <ele>433.0</ele>
        <time>2020-12-31T14:51:08Z</time>
      </trkpt>
      <trkpt lat="41.5679710" lon="-0.9247850">
        <ele>433.0</ele>
        <time>2020-12-31T14:51:10Z</time>
      </trkpt>
      <trkpt lat="41.5679850" lon="-0.9247800">
        <ele>433.0</ele>
        <time>2020-12-31T14:51:11Z</time>
      </trkpt>
      <trkpt lat="41.5679860" lon="-0.9247760">
        <ele>433.0</ele>
        <time>2020-12-31T14:51:13Z</time>
      </trkpt>
      <trkpt lat="41.5679860" lon="-0.9247710">
        <ele>433.1</ele>
        <time>2020-12-31T14:51:15Z</time>
      </trkpt>
      <trkpt lat="41.5679870" lon="-0.9247660">
        <ele>433.1</ele>
        <time>2020-12-31T14:51:17Z</time>
      </trkpt>
      <trkpt lat="41.5679870" lon="-0.9247610">
        <ele>433.1</ele>
        <time>2020-12-31T14:51:18Z</time>
      </trkpt>
      <trkpt lat="41.5679880" lon="-0.9247570">
        <ele>433.1</ele>
        <time>2020-12-31T14:51:19Z</time>
      </trkpt>
      <trkpt lat="41.5679880" lon="-0.9247520">
        <ele>433.1</ele>
        <time>2020-12-31T14:51:21Z</time>
      </trkpt>
      <trkpt lat="41.5679890" lon="-0.9247470">
        <ele>433.1</ele>
        <time>2020-12-31T14:51:23Z</time>
      </trkpt>
      <trkpt lat="41.5679890" lon="-0.9247420">
        <ele>433.1</ele>
        <time>2020-12-31T14:51:24Z</time>
      </trkpt>
      <trkpt lat="41.5679900" lon="-0.9247380">
        <ele>433.0</ele>
        <time>2020-12-31T14:51:25Z</time>
      </trkpt>
      <trkpt lat="41.5679900" lon="-0.9247330">
        <ele>433.0</ele>
        <time>2020-12-31T14:51:27Z</time>
      </trkpt>
      <trkpt lat="41.5679900" lon="-0.9247280">
        <ele>433.0</ele>
        <time>2020-12-31T14:51:28Z</time>
      </trkpt>
      <trkpt lat="41.5679910" lon="-0.9247240">
        <ele>433.0</ele>
        <time>2020-12-31T14:51:29Z</time>
      </trkpt>
      <trkpt lat="41.5679910" lon="-0.9247190">
        <ele>432.9</ele>
        <time>2020-12-31T14:51:31Z</time>
      </trkpt>
      <trkpt lat="41.5679920" lon="-0.9247140">
        <ele>432.9</ele>
        <time>2020-12-31T14:51:33Z</time>
      </trkpt>
      <trkpt lat="41.5679920" lon="-0.9247090">
        <ele>432.9</ele>
        <time>2020-12-31T14:51:35Z</time>
      </trkpt>
      <trkpt lat="41.5679930" lon="-0.9247050">
        <ele>432.9</ele>
        <time>2020-12-31T14:51:37Z</time>
      </trkpt>
      <trkpt lat="41.5679930" lon="-0.9247000">
        <ele>432.8</ele>
        <time>2020-12-31T14:51:38Z</time>
      </trkpt>
      <trkpt lat="41.5679940" lon="-0.9246950">
        <ele>432.8</ele>
        <time>2020-12-31T14:51:39Z</time>
      </trkpt>
      <trkpt lat="41.5679940" lon="-0.9246900">
        <ele>432.8</ele>
        <time>2020-12-31T14:53:37Z</time>
      </trkpt>
      <trkpt lat="41.5679950" lon="-0.9246860">
        <ele>432.8</ele>
        <time>2020-12-31T14:53:38Z</time>
      </trkpt>
      <trkpt lat="41.5679950" lon="-0.9246810">
        <ele>432.7</ele>
        <time>2020-12-31T14:53:39Z</time>
      </trkpt>
      <trkpt lat="41.5680290" lon="-0.9246570">
        <ele>432.5</ele>
        <time>2020-12-31T14:53:41Z</time>
      </trkpt>
      <trkpt lat="41.5680650" lon="-0.9246390">
        <ele>432.2</ele>
        <time>2020-12-31T14:53:42Z</time>
      </trkpt>
      <trkpt lat="41.5681140" lon="-0.9246070">
        <ele>431.9</ele>
        <time>2020-12-31T14:53:44Z</time>
      </trkpt>
      <trkpt lat="41.5681720" lon="-0.9245800">
        <ele>431.5</ele>
        <time>2020-12-31T14:53:45Z</time>
      </trkpt>
      <trkpt lat="41.5682130" lon="-0.9245720">
        <ele>431.3</ele>
        <time>2020-12-31T14:53:47Z</time>
      </trkpt>
      <trkpt lat="41.5682580" lon="-0.9245590">
        <ele>431.1</ele>
        <time>2020-12-31T14:53:48Z</time>
      </trkpt>
      <trkpt lat="41.5683020" lon="-0.9245330">
        <ele>430.9</ele>
        <time>2020-12-31T14:53:50Z</time>
      </trkpt>
      <trkpt lat="41.5683320" lon="-0.9245110">
        <ele>430.8</ele>
        <time>2020-12-31T14:53:51Z</time>
      </trkpt>
      <trkpt lat="41.5683420" lon="-0.9245030">
        <ele>430.8</ele>
        <time>2020-12-31T14:53:52Z</time>
      </trkpt>
      <trkpt lat="41.5683850" lon="-0.9244880">
        <ele>430.9</ele>
        <time>2020-12-31T14:53:54Z</time>
      </trkpt>
      <trkpt lat="41.5684230" lon="-0.9244750">
        <ele>431.0</ele>
        <time>2020-12-31T14:53:56Z</time>
      </trkpt>
      <trkpt lat="41.5684470" lon="-0.9244580">
        <ele>431.0</ele>
        <time>2020-12-31T14:53:58Z</time>
      </trkpt>
      <trkpt lat="41.5684510" lon="-0.9244560">
        <ele>431.0</ele>
        <time>2020-12-31T14:54:00Z</time>
      </trkpt>
      <trkpt lat="41.5684540" lon="-0.9244540">
        <ele>431.0</ele>
        <time>2020-12-31T14:54:01Z</time>
      </trkpt>
      <trkpt lat="41.5684580" lon="-0.9244520">
        <ele>431.0</ele>
        <time>2020-12-31T14:54:02Z</time>
      </trkpt>
      <trkpt lat="41.5684620" lon="-0.9244500">
        <ele>431.0</ele>
        <time>2020-12-31T14:54:04Z</time>
      </trkpt>
      <trkpt lat="41.5684660" lon="-0.9244480">
        <ele>431.0</ele>
        <time>2020-12-31T14:54:05Z</time>
      </trkpt>
      <trkpt lat="41.5684700" lon="-0.9244460">
        <ele>431.0</ele>
        <time>2020-12-31T14:54:07Z</time>
      </trkpt>
      <trkpt lat="41.5684730" lon="-0.9244440">
        <ele>431.1</ele>
        <time>2020-12-31T14:54:09Z</time>
      </trkpt>
      <trkpt lat="41.5684770" lon="-0.9244420">
        <ele>431.1</ele>
        <time>2020-12-31T14:54:10Z</time>
      </trkpt>
      <trkpt lat="41.5684810" lon="-0.9244400">
        <ele>431.1</ele>
        <time>2020-12-31T14:54:11Z</time>
      </trkpt>
      <trkpt lat="41.5684850" lon="-0.9244380">
        <ele>431.1</ele>
        <time>2020-12-31T14:54:13Z</time>
      </trkpt>
      <trkpt lat="41.5684890" lon="-0.9244360">
        <ele>431.1</ele>
        <time>2020-12-31T14:54:15Z</time>
      </trkpt>
      <trkpt lat="41.5684920" lon="-0.9244340">
        <ele>431.1</ele>
        <time>2020-12-31T14:54:42Z</time>
      </trkpt>
      <trkpt lat="41.5684960" lon="-0.9244320">
        <ele>431.1</ele>
        <time>2020-12-31T14:54:43Z</time>
      </trkpt>
      <trkpt lat="41.5685000" lon="-0.9244300">
        <ele>431.1</ele>
        <time>2020-12-31T14:54:44Z</time>
      </trkpt>
      <trkpt lat="41.5684960" lon="-0.9244670">
        <ele>431.2</ele>
        <time>2020-12-31T14:54:46Z</time>
      </trkpt>
      <trkpt lat="41.5684920" lon="-0.9244820">
        <ele>431.2</ele>
        <time>2020-12-31T14:54:47Z</time>
      </trkpt>
      <trkpt lat="41.5684560" lon="-0.9244900">
        <ele>431.3</ele>
        <time>2020-12-31T14:54:49Z</time>
      </trkpt>
      <trkpt lat="41.5684180" lon="-0.9244840">
        <ele>431.4</ele>
        <time>2020-12-31T14:54:50Z</time>
      </trkpt>
      <trkpt lat="41.5684030" lon="-0.9244820">
        <ele>431.4</ele>
        <time>2020-12-31T14:54:51Z</time>
      </trkpt>
      <trkpt lat="41.5683780" lon="-0.9244930">
        <ele>431.5</ele>
        <time>2020-12-31T14:54:53Z</time>
      </trkpt>
      <trkpt lat="41.5683450" lon="-0.9245140">
        <ele>431.6</ele>
        <time>2020-12-31T14:54:55Z</time>
      </trkpt>
      <trkpt lat="41.5683230" lon="-0.9245210">
        <ele>431.7</ele>
        <time>2020-12-31T14:54:56Z</time>
      </trkpt>
      <trkpt lat="41.5683040" lon="-0.9245300">
        <ele>431.7</ele>
        <time>2020-12-31T14:54:58Z</time>
      </trkpt>
      <trkpt lat="41.5682840" lon="-0.9245550">
        <ele>431.8</ele>
        <time>2020-12-31T14:54:59Z</time>
      </trkpt>
      <trkpt lat="41.5682780" lon="-0.9245640">
        <ele>431.8</ele>
        <time>2020-12-31T14:55:00Z</time>
      </trkpt>
      <trkpt lat="41.5682680" lon="-0.9245730">
        <ele>431.9</ele>
        <time>2020-12-31T14:55:02Z</time>
      </trkpt>
      <trkpt lat="41.5682520" lon="-0.9245820">
        <ele>432.0</ele>
        <time>2020-12-31T14:55:03Z</time>
      </trkpt>
      <trkpt lat="41.5682080" lon="-0.9246100">
        <ele>432.1</ele>
        <time>2020-12-31T14:55:05Z</time>
      </trkpt>
      <trkpt lat="41.5681930" lon="-0.9246170">
        <ele>432.2</ele>
        <time>2020-12-31T14:55:06Z</time>
      </trkpt>
      <trkpt lat="41.5681790" lon="-0.9246240">
        <ele>432.2</ele>
        <time>2020-12-31T14:55:07Z</time>
      </trkpt>
      <trkpt lat="41.5681400" lon="-0.9246380">
        <ele>432.4</ele>
        <time>2020-12-31T14:55:09Z</time>
      </trkpt>
      <trkpt lat="41.5681100" lon="-0.9246540">
        <ele>432.5</ele>
        <time>2020-12-31T14:55:10Z</time>
      </trkpt>
      <trkpt lat="41.5680690" lon="-0.9246780">
        <ele>432.7</ele>
        <time>2020-12-31T14:55:12Z</time>
      </trkpt>
      <trkpt lat="41.5680410" lon="-0.9246950">
        <ele>432.8</ele>
        <time>2020-12-31T14:55:13Z</time>
      </trkpt>
      <trkpt lat="41.5680120" lon="-0.9247230">
        <ele>432.9</ele>
        <time>2020-12-31T14:55:15Z</time>
      </trkpt>
      <trkpt lat="41.5680030" lon="-0.9247320">
        <ele>432.9</ele>
        <time>2020-12-31T14:55:16Z</time>
      </trkpt>
      <trkpt lat="41.5679840" lon="-0.9247670">
        <ele>433.2</ele>
        <time>2020-12-31T14:55:17Z</time>
      </trkpt>
      <trkpt lat="41.5679690" lon="-0.9248300">
        <ele>433.3</ele>
        <time>2020-12-31T14:55:19Z</time>
      </trkpt>
      <trkpt lat="41.5679640" lon="-0.9248500">
        <ele>433.3</ele>
        <time>2020-12-31T14:55:20Z</time>
      </trkpt>
      <trkpt lat="41.5679600" lon="-0.9248690">
        <ele>433.3</ele>
        <time>2020-12-31T14:55:21Z</time>
      </trkpt>
      <trkpt lat="41.5679530" lon="-0.9248980">
        <ele>433.3</ele>
        <time>2020-12-31T14:55:22Z</time>
      </trkpt>
      <trkpt lat="41.5679380" lon="-0.9249350">
        <ele>433.3</ele>
        <time>2020-12-31T14:55:24Z</time>
      </trkpt>
      <trkpt lat="41.5679300" lon="-0.9249830">
        <ele>433.3</ele>
        <time>2020-12-31T14:55:25Z</time>
      </trkpt>
      <trkpt lat="41.5679300" lon="-0.9250060">
        <ele>433.2</ele>
        <time>2020-12-31T14:55:26Z</time>
      </trkpt>
      <trkpt lat="41.5679510" lon="-0.9250600">
        <ele>433.0</ele>
        <time>2020-12-31T14:55:27Z</time>
      </trkpt>
      <trkpt lat="41.5679910" lon="-0.9251250">
        <ele>432.6</ele>
        <time>2020-12-31T14:55:29Z</time>
      </trkpt>
      <trkpt lat="41.5680220" lon="-0.9251740">
        <ele>432.3</ele>
        <time>2020-12-31T14:55:30Z</time>
      </trkpt>
      <trkpt lat="41.5680550" lon="-0.9252340">
        <ele>431.9</ele>
        <time>2020-12-31T14:55:31Z</time>
      </trkpt>
      <trkpt lat="41.5680780" lon="-0.9252870">
        <ele>431.5</ele>
        <time>2020-12-31T14:55:32Z</time>
      </trkpt>
      <trkpt lat="41.5681090" lon="-0.9253870">
        <ele>430.7</ele>
        <time>2020-12-31T14:55:34Z</time>
      </trkpt>
      <trkpt lat="41.5681570" lon="-0.9255420">
        <ele>429.3</ele>
        <time>2020-12-31T14:55:36Z</time>
      </trkpt>
      <trkpt lat="41.5681890" lon="-0.9256220">
        <ele>428.5</ele>
        <time>2020-12-31T14:55:37Z</time>
      </trkpt>
      <trkpt lat="41.5682580" lon="-0.9257910">
        <ele>426.9</ele>
        <time>2020-12-31T14:55:39Z</time>
      </trkpt>
      <trkpt lat="41.5683490" lon="-0.9259320">
        <ele>425.6</ele>
        <time>2020-12-31T14:55:41Z</time>
      </trkpt>
      <trkpt lat="41.5683930" lon="-0.9260210">
        <ele>425.0</ele>
        <time>2020-12-31T14:55:43Z</time>
      </trkpt>
      <trkpt lat="41.5684130" lon="-0.9261090">
        <ele>424.4</ele>
        <time>2020-12-31T14:55:44Z</time>
      </trkpt>
      <trkpt lat="41.5684320" lon="-0.9261900">
        <ele>423.7</ele>
        <time>2020-12-31T14:55:45Z</time>
      </trkpt>
      <trkpt lat="41.5684710" lon="-0.9263610">
        <ele>422.1</ele>
        <time>2020-12-31T14:55:47Z</time>
      </trkpt>
      <trkpt lat="41.5685120" lon="-0.9265460">
        <ele>420.4</ele>
        <time>2020-12-31T14:55:49Z</time>
      </trkpt>
      <trkpt lat="41.5685270" lon="-0.9267520">
        <ele>418.8</ele>
        <time>2020-12-31T14:55:51Z</time>
      </trkpt>
      <trkpt lat="41.5685430" lon="-0.9268500">
        <ele>418.2</ele>
        <time>2020-12-31T14:55:52Z</time>
      </trkpt>
      <trkpt lat="41.5685730" lon="-0.9269330">
        <ele>417.6</ele>
        <time>2020-12-31T14:55:53Z</time>
      </trkpt>
      <trkpt lat="41.5686280" lon="-0.9271020">
        <ele>416.5</ele>
        <time>2020-12-31T14:55:55Z</time>
      </trkpt>
      <trkpt lat="41.5686610" lon="-0.9271940">
        <ele>416.0</ele>
        <time>2020-12-31T14:55:56Z</time>
      </trkpt>
      <trkpt lat="41.5686860" lon="-0.9272750">
        <ele>415.4</ele>
        <time>2020-12-31T14:55:57Z</time>
      </trkpt>
      <trkpt lat="41.5686810" lon="-0.9273960">
        <ele>414.7</ele>
        <time>2020-12-31T14:55:59Z</time>
      </trkpt>
      <trkpt lat="41.5686750" lon="-0.9274750">
        <ele>414.2</ele>
        <time>2020-12-31T14:56:00Z</time>
      </trkpt>
      <trkpt lat="41.5686740" lon="-0.9276580">
        <ele>413.2</ele>
        <time>2020-12-31T14:56:02Z</time>
      </trkpt>
      <trkpt lat="41.5687380" lon="-0.9278010">
        <ele>412.4</ele>
        <time>2020-12-31T14:56:04Z</time>
      </trkpt>
      <trkpt lat="41.5688390" lon="-0.9279330">
        <ele>411.7</ele>
        <time>2020-12-31T14:56:06Z</time>
      </trkpt>
      <trkpt lat="41.5689390" lon="-0.9280490">
        <ele>411.3</ele>
        <time>2020-12-31T14:56:08Z</time>
      </trkpt>
      <trkpt lat="41.5690310" lon="-0.9281710">
        <ele>410.9</ele>
        <time>2020-12-31T14:56:10Z</time>
      </trkpt>
      <trkpt lat="41.5690840" lon="-0.9282180">
        <ele>410.6</ele>
        <time>2020-12-31T14:56:11Z</time>
      </trkpt>
      <trkpt lat="41.5691350" lon="-0.9282450">
        <ele>410.3</ele>
        <time>2020-12-31T14:56:12Z</time>
      </trkpt>
      <trkpt lat="41.5691980" lon="-0.9283370">
        <ele>409.8</ele>
        <time>2020-12-31T14:56:14Z</time>
      </trkpt>
      <trkpt lat="41.5692480" lon="-0.9283960">
        <ele>409.5</ele>
        <time>2020-12-31T14:56:15Z</time>
      </trkpt>
      <trkpt lat="41.5693490" lon="-0.9285340">
        <ele>408.7</ele>
        <time>2020-12-31T14:56:17Z</time>
      </trkpt>
      <trkpt lat="41.5694750" lon="-0.9286060">
        <ele>408.4</ele>
        <time>2020-12-31T14:56:19Z</time>
      </trkpt>
      <trkpt lat="41.5695640" lon="-0.9286980">
        <ele>408.4</ele>
        <time>2020-12-31T14:56:21Z</time>
      </trkpt>
      <trkpt lat="41.5696120" lon="-0.9287490">
        <ele>408.5</ele>
        <time>2020-12-31T14:56:22Z</time>
      </trkpt>
      <trkpt lat="41.5697120" lon="-0.9288610">
        <ele>408.4</ele>
        <time>2020-12-31T14:56:24Z</time>
      </trkpt>
      <trkpt lat="41.5697940" lon="-0.9289620">
        <ele>407.8</ele>
        <time>2020-12-31T14:56:26Z</time>
      </trkpt>
      <trkpt lat="41.5698740" lon="-0.9290610">
        <ele>406.8</ele>
        <time>2020-12-31T14:56:28Z</time>
      </trkpt>
      <trkpt lat="41.5699290" lon="-0.9291310">
        <ele>405.9</ele>
        <time>2020-12-31T14:56:29Z</time>
      </trkpt>
      <trkpt lat="41.5700320" lon="-0.9293240">
        <ele>403.9</ele>
        <time>2020-12-31T14:56:31Z</time>
      </trkpt>
      <trkpt lat="41.5701430" lon="-0.9294860">
        <ele>402.6</ele>
        <time>2020-12-31T14:56:33Z</time>
      </trkpt>
      <trkpt lat="41.5702230" lon="-0.9296300">
        <ele>401.9</ele>
        <time>2020-12-31T14:56:35Z</time>
      </trkpt>
      <trkpt lat="41.5703260" lon="-0.9297450">
        <ele>401.8</ele>
        <time>2020-12-31T14:56:37Z</time>
      </trkpt>
      <trkpt lat="41.5703690" lon="-0.9298390">
        <ele>402.3</ele>
        <time>2020-12-31T14:56:39Z</time>
      </trkpt>
      <trkpt lat="41.5704100" lon="-0.9299490">
        <ele>403.0</ele>
        <time>2020-12-31T14:56:41Z</time>
      </trkpt>
      <trkpt lat="41.5704100" lon="-0.9299750">
        <ele>403.1</ele>
        <time>2020-12-31T14:56:42Z</time>
      </trkpt>
      <trkpt lat="41.5703910" lon="-0.9300350">
        <ele>403.3</ele>
        <time>2020-12-31T14:56:44Z</time>
      </trkpt>
      <trkpt lat="41.5703620" lon="-0.9301050">
        <ele>403.3</ele>
        <time>2020-12-31T14:56:46Z</time>
      </trkpt>
      <trkpt lat="41.5703300" lon="-0.9301750">
        <ele>403.1</ele>
        <time>2020-12-31T14:56:48Z</time>
      </trkpt>
      <trkpt lat="41.5703040" lon="-0.9301890">
        <ele>402.9</ele>
        <time>2020-12-31T14:56:49Z</time>
      </trkpt>
      <trkpt lat="41.5702730" lon="-0.9302540">
        <ele>402.6</ele>
        <time>2020-12-31T14:56:50Z</time>
      </trkpt>
      <trkpt lat="41.5702420" lon="-0.9303080">
        <ele>402.2</ele>
        <time>2020-12-31T14:56:52Z</time>
      </trkpt>
      <trkpt lat="41.5702050" lon="-0.9303670">
        <ele>401.9</ele>
        <time>2020-12-31T14:56:53Z</time>
      </trkpt>
      <trkpt lat="41.5701680" lon="-0.9304140">
        <ele>401.5</ele>
        <time>2020-12-31T14:56:55Z</time>
      </trkpt>
      <trkpt lat="41.5701500" lon="-0.9304520">
        <ele>401.2</ele>
        <time>2020-12-31T14:56:57Z</time>
      </trkpt>
      <trkpt lat="41.5701520" lon="-0.9304730">
        <ele>401.1</ele>
        <time>2020-12-31T14:56:58Z</time>
      </trkpt>
      <trkpt lat="41.5701470" lon="-0.9305090">
        <ele>400.8</ele>
        <time>2020-12-31T14:57:00Z</time>
      </trkpt>
      <trkpt lat="41.5701410" lon="-0.9305610">
        <ele>400.4</ele>
        <time>2020-12-31T14:57:01Z</time>
      </trkpt>
      <trkpt lat="41.5701380" lon="-0.9305780">
        <ele>400.2</ele>
        <time>2020-12-31T14:57:02Z</time>
      </trkpt>
      <trkpt lat="41.5701320" lon="-0.9306340">
        <ele>399.7</ele>
        <time>2020-12-31T14:57:03Z</time>
      </trkpt>
      <trkpt lat="41.5701310" lon="-0.9306560">
        <ele>399.4</ele>
        <time>2020-12-31T14:57:04Z</time>
      </trkpt>
      <trkpt lat="41.5701210" lon="-0.9307610">
        <ele>398.2</ele>
        <time>2020-12-31T14:57:06Z</time>
      </trkpt>
      <trkpt lat="41.5701070" lon="-0.9308630">
        <ele>397.0</ele>
        <time>2020-12-31T14:57:07Z</time>
      </trkpt>
      <trkpt lat="41.5700820" lon="-0.9309700">
        <ele>395.6</ele>
        <time>2020-12-31T14:57:08Z</time>
      </trkpt>
      <trkpt lat="41.5700770" lon="-0.9311450">
        <ele>393.7</ele>
        <time>2020-12-31T14:57:10Z</time>
      </trkpt>
      <trkpt lat="41.5701120" lon="-0.9311700">
        <ele>393.1</ele>
        <time>2020-12-31T14:57:11Z</time>
      </trkpt>
      <trkpt lat="41.5701210" lon="-0.9311870">
        <ele>392.9</ele>
        <time>2020-12-31T14:57:12Z</time>
      </trkpt>
      <trkpt lat="41.5701580" lon="-0.9312970">
        <ele>391.5</ele>
        <time>2020-12-31T14:57:14Z</time>
      </trkpt>
      <trkpt lat="41.5702020" lon="-0.9314570">
        <ele>389.7</ele>
        <time>2020-12-31T14:57:16Z</time>
      </trkpt>
      <trkpt lat="41.5702870" lon="-0.9316080">
        <ele>387.6</ele>
        <time>2020-12-31T14:57:18Z</time>
      </trkpt>
      <trkpt lat="41.5703310" lon="-0.9316870">
        <ele>386.5</ele>
        <time>2020-12-31T14:57:19Z</time>
      </trkpt>
      <trkpt lat="41.5703720" lon="-0.9317680">
        <ele>385.5</ele>
        <time>2020-12-31T14:57:20Z</time>
      </trkpt>
      <trkpt lat="41.5704410" lon="-0.9318280">
        <ele>384.5</ele>
        <time>2020-12-31T14:57:21Z</time>
      </trkpt>
      <trkpt lat="41.5705860" lon="-0.9319240">
        <ele>382.5</ele>
        <time>2020-12-31T14:57:23Z</time>
      </trkpt>
      <trkpt lat="41.5707170" lon="-0.9320080">
        <ele>380.8</ele>
        <time>2020-12-31T14:57:25Z</time>
      </trkpt>
      <trkpt lat="41.5707900" lon="-0.9320590">
        <ele>379.8</ele>
        <time>2020-12-31T14:57:26Z</time>
      </trkpt>
      <trkpt lat="41.5709380" lon="-0.9321240">
        <ele>377.9</ele>
        <time>2020-12-31T14:57:28Z</time>
      </trkpt>
      <trkpt lat="41.5710010" lon="-0.9321680">
        <ele>377.0</ele>
        <time>2020-12-31T14:57:29Z</time>
      </trkpt>
      <trkpt lat="41.5710750" lon="-0.9322240">
        <ele>376.0</ele>
        <time>2020-12-31T14:57:30Z</time>
      </trkpt>
      <trkpt lat="41.5712270" lon="-0.9323360">
        <ele>373.9</ele>
        <time>2020-12-31T14:57:32Z</time>
      </trkpt>
      <trkpt lat="41.5713020" lon="-0.9323820">
        <ele>373.1</ele>
        <time>2020-12-31T14:57:33Z</time>
      </trkpt>
      <trkpt lat="41.5713750" lon="-0.9324230">
        <ele>372.4</ele>
        <time>2020-12-31T14:57:34Z</time>
      </trkpt>
      <trkpt lat="41.5714990" lon="-0.9325460">
        <ele>372.1</ele>
        <time>2020-12-31T14:57:36Z</time>
      </trkpt>
      <trkpt lat="41.5715620" lon="-0.9326570">
        <ele>372.9</ele>
        <time>2020-12-31T14:57:38Z</time>
      </trkpt>
      <trkpt lat="41.5715710" lon="-0.9327040">
        <ele>373.4</ele>
        <time>2020-12-31T14:57:40Z</time>
      </trkpt>
      <trkpt lat="41.5715780" lon="-0.9327140">
        <ele>373.6</ele>
        <time>2020-12-31T14:57:41Z</time>
      </trkpt>
      <trkpt lat="41.5715800" lon="-0.9327240">
        <ele>373.8</ele>
        <time>2020-12-31T14:57:43Z</time>
      </trkpt>
      <trkpt lat="41.5715840" lon="-0.9327390">
        <ele>374.0</ele>
        <time>2020-12-31T14:57:44Z</time>
      </trkpt>
      <trkpt lat="41.5715870" lon="-0.9327510">
        <ele>374.2</ele>
        <time>2020-12-31T14:57:45Z</time>
      </trkpt>
      <trkpt lat="41.5715830" lon="-0.9327530">
        <ele>374.3</ele>
        <time>2020-12-31T14:57:46Z</time>
      </trkpt>
      <trkpt lat="41.5715870" lon="-0.9327710">
        <ele>374.6</ele>
        <time>2020-12-31T14:57:47Z</time>
      </trkpt>
      <trkpt lat="41.5715950" lon="-0.9328100">
        <ele>375.2</ele>
        <time>2020-12-31T14:57:49Z</time>
      </trkpt>
      <trkpt lat="41.5716030" lon="-0.9328450">
        <ele>375.8</ele>
        <time>2020-12-31T14:57:50Z</time>
      </trkpt>
      <trkpt lat="41.5716170" lon="-0.9328650">
        <ele>376.2</ele>
        <time>2020-12-31T14:57:51Z</time>
      </trkpt>
      <trkpt lat="41.5716240" lon="-0.9328720">
        <ele>376.4</ele>
        <time>2020-12-31T14:57:53Z</time>
      </trkpt>
      <trkpt lat="41.5716300" lon="-0.9328800">
        <ele>376.6</ele>
        <time>2020-12-31T14:57:54Z</time>
      </trkpt>
      <trkpt lat="41.5716380" lon="-0.9328880">
        <ele>376.8</ele>
        <time>2020-12-31T14:57:55Z</time>
      </trkpt>
      <trkpt lat="41.5716520" lon="-0.9329010">
        <ele>377.1</ele>
        <time>2020-12-31T14:57:56Z</time>
      </trkpt>
      <trkpt lat="41.5716760" lon="-0.9328990">
        <ele>377.4</ele>
        <time>2020-12-31T14:57:58Z</time>
      </trkpt>
      <trkpt lat="41.5716900" lon="-0.9328980">
        <ele>377.6</ele>
        <time>2020-12-31T14:58:00Z</time>
      </trkpt>
      <trkpt lat="41.5717050" lon="-0.9328960">
        <ele>377.8</ele>
        <time>2020-12-31T14:58:02Z</time>
      </trkpt>
      <trkpt lat="41.5717190" lon="-0.9328950">
        <ele>377.9</ele>
        <time>2020-12-31T14:58:04Z</time>
      </trkpt>
      <trkpt lat="41.5717340" lon="-0.9328930">
        <ele>378.1</ele>
        <time>2020-12-31T14:58:05Z</time>
      </trkpt>
      <trkpt lat="41.5717690" lon="-0.9328920">
        <ele>378.3</ele>
        <time>2020-12-31T14:58:06Z</time>
      </trkpt>
      <trkpt lat="41.5718120" lon="-0.9329010">
        <ele>378.4</ele>
        <time>2020-12-31T14:58:08Z</time>
      </trkpt>
      <trkpt lat="41.5718630" lon="-0.9329250">
        <ele>378.4</ele>
        <time>2020-12-31T14:58:09Z</time>
      </trkpt>
      <trkpt lat="41.5719290" lon="-0.9329530">
        <ele>378.3</ele>
        <time>2020-12-31T14:58:10Z</time>
      </trkpt>
      <trkpt lat="41.5719830" lon="-0.9329750">
        <ele>378.1</ele>
        <time>2020-12-31T14:58:12Z</time>
      </trkpt>
      <trkpt lat="41.5720330" lon="-0.9329930">
        <ele>378.0</ele>
        <time>2020-12-31T14:58:13Z</time>
      </trkpt>
      <trkpt lat="41.5720690" lon="-0.9329990">
        <ele>377.9</ele>
        <time>2020-12-31T14:58:14Z</time>
      </trkpt>
      <trkpt lat="41.5721110" lon="-0.9330060">
        <ele>377.8</ele>
        <time>2020-12-31T14:58:15Z</time>
      </trkpt>
      <trkpt lat="41.5721460" lon="-0.9330290">
        <ele>377.7</ele>
        <time>2020-12-31T14:58:16Z</time>
      </trkpt>
      <trkpt lat="41.5721840" lon="-0.9330850">
        <ele>377.6</ele>
        <time>2020-12-31T14:58:17Z</time>
      </trkpt>
      <trkpt lat="41.5722210" lon="-0.9331560">
        <ele>377.4</ele>
        <time>2020-12-31T14:58:19Z</time>
      </trkpt>
      <trkpt lat="41.5722560" lon="-0.9332230">
        <ele>377.3</ele>
        <time>2020-12-31T14:58:21Z</time>
      </trkpt>
      <trkpt lat="41.5722710" lon="-0.9332570">
        <ele>377.2</ele>
        <time>2020-12-31T14:58:22Z</time>
      </trkpt>
      <trkpt lat="41.5723340" lon="-0.9332920">
        <ele>377.0</ele>
        <time>2020-12-31T14:58:23Z</time>
      </trkpt>
      <trkpt lat="41.5723740" lon="-0.9333260">
        <ele>376.9</ele>
        <time>2020-12-31T14:58:24Z</time>
      </trkpt>
      <trkpt lat="41.5724150" lon="-0.9333530">
        <ele>376.8</ele>
        <time>2020-12-31T14:58:25Z</time>
      </trkpt>
      <trkpt lat="41.5724470" lon="-0.9333700">
        <ele>376.4</ele>
        <time>2020-12-31T14:58:27Z</time>
      </trkpt>
      <trkpt lat="41.5724620" lon="-0.9333780">
        <ele>376.2</ele>
        <time>2020-12-31T14:58:28Z</time>
      </trkpt>
      <trkpt lat="41.5724800" lon="-0.9333630">
        <ele>376.5</ele>
        <time>2020-12-31T14:58:29Z</time>
      </trkpt>
      <trkpt lat="41.5725090" lon="-0.9333160">
        <ele>376.7</ele>
        <time>2020-12-31T14:58:31Z</time>
      </trkpt>
      <trkpt lat="41.5725270" lon="-0.9332800">
        <ele>376.6</ele>
        <time>2020-12-31T14:58:32Z</time>
      </trkpt>
      <trkpt lat="41.5725600" lon="-0.9332540">
        <ele>376.6</ele>
        <time>2020-12-31T14:58:33Z</time>
      </trkpt>
      <trkpt lat="41.5726190" lon="-0.9332320">
        <ele>376.5</ele>
        <time>2020-12-31T14:58:34Z</time>
      </trkpt>
      <trkpt lat="41.5726710" lon="-0.9332160">
        <ele>376.1</ele>
        <time>2020-12-31T14:58:36Z</time>
      </trkpt>
      <trkpt lat="41.5727050" lon="-0.9332050">
        <ele>375.8</ele>
        <time>2020-12-31T14:58:37Z</time>
      </trkpt>
      <trkpt lat="41.5727530" lon="-0.9331890">
        <ele>375.5</ele>
        <time>2020-12-31T14:58:38Z</time>
      </trkpt>
      <trkpt lat="41.5727900" lon="-0.9331760">
        <ele>375.0</ele>
        <time>2020-12-31T14:58:40Z</time>
      </trkpt>
      <trkpt lat="41.5728240" lon="-0.9331620">
        <ele>374.7</ele>
        <time>2020-12-31T14:58:41Z</time>
      </trkpt>
      <trkpt lat="41.5728650" lon="-0.9331550">
        <ele>374.4</ele>
        <time>2020-12-31T14:58:42Z</time>
      </trkpt>
      <trkpt lat="41.5729130" lon="-0.9331490">
        <ele>373.9</ele>
        <time>2020-12-31T14:58:44Z</time>
      </trkpt>
      <trkpt lat="41.5729710" lon="-0.9331540">
        <ele>373.6</ele>
        <time>2020-12-31T14:58:46Z</time>
      </trkpt>
      <trkpt lat="41.5730280" lon="-0.9331820">
        <ele>373.3</ele>
        <time>2020-12-31T14:58:48Z</time>
      </trkpt>
      <trkpt lat="41.5730550" lon="-0.9331870">
        <ele>373.0</ele>
        <time>2020-12-31T14:58:49Z</time>
      </trkpt>
      <trkpt lat="41.5731000" lon="-0.9331800">
        <ele>372.8</ele>
        <time>2020-12-31T14:58:51Z</time>
      </trkpt>
      <trkpt lat="41.5731420" lon="-0.9331560">
        <ele>372.5</ele>
        <time>2020-12-31T14:58:52Z</time>
      </trkpt>
      <trkpt lat="41.5731710" lon="-0.9331260">
        <ele>372.3</ele>
        <time>2020-12-31T14:58:53Z</time>
      </trkpt>
      <trkpt lat="41.5732070" lon="-0.9330750">
        <ele>372.0</ele>
        <time>2020-12-31T14:58:55Z</time>
      </trkpt>
      <trkpt lat="41.5732250" lon="-0.9330460">
        <ele>371.5</ele>
        <time>2020-12-31T14:58:56Z</time>
      </trkpt>
      <trkpt lat="41.5732470" lon="-0.9330110">
        <ele>370.9</ele>
        <time>2020-12-31T14:58:57Z</time>
      </trkpt>
      <trkpt lat="41.5735450" lon="-0.9326100">
        <ele>366.4</ele>
        <time>2020-12-31T14:58:59Z</time>
      </trkpt>
      <trkpt lat="41.5736490" lon="-0.9325090">
        <ele>365.3</ele>
        <time>2020-12-31T14:59:00Z</time>
      </trkpt>
      <trkpt lat="41.5738260" lon="-0.9324760">
        <ele>364.4</ele>
        <time>2020-12-31T14:59:02Z</time>
      </trkpt>
      <trkpt lat="41.5739300" lon="-0.9325850">
        <ele>364.7</ele>
        <time>2020-12-31T14:59:04Z</time>
      </trkpt>
      <trkpt lat="41.5739650" lon="-0.9326380">
        <ele>365.2</ele>
        <time>2020-12-31T14:59:05Z</time>
      </trkpt>
      <trkpt lat="41.5740470" lon="-0.9327240">
        <ele>365.3</ele>
        <time>2020-12-31T14:59:07Z</time>
      </trkpt>
      <trkpt lat="41.5740860" lon="-0.9327770">
        <ele>365.3</ele>
        <time>2020-12-31T14:59:08Z</time>
      </trkpt>
      <trkpt lat="41.5741760" lon="-0.9328640">
        <ele>365.2</ele>
        <time>2020-12-31T14:59:10Z</time>
      </trkpt>
      <trkpt lat="41.5742250" lon="-0.9328860">
        <ele>364.8</ele>
        <time>2020-12-31T14:59:11Z</time>
      </trkpt>
      <trkpt lat="41.5742770" lon="-0.9328850">
        <ele>364.1</ele>
        <time>2020-12-31T14:59:12Z</time>
      </trkpt>
      <trkpt lat="41.5743760" lon="-0.9328800">
        <ele>362.9</ele>
        <time>2020-12-31T14:59:14Z</time>
      </trkpt>
      <trkpt lat="41.5744250" lon="-0.9328870">
        <ele>362.4</ele>
        <time>2020-12-31T14:59:15Z</time>
      </trkpt>
      <trkpt lat="41.5745310" lon="-0.9329100">
        <ele>361.2</ele>
        <time>2020-12-31T14:59:17Z</time>
      </trkpt>
      <trkpt lat="41.5745580" lon="-0.9329490">
        <ele>360.9</ele>
        <time>2020-12-31T14:59:18Z</time>
      </trkpt>
      <trkpt lat="41.5745700" lon="-0.9329620">
        <ele>360.8</ele>
        <time>2020-12-31T14:59:19Z</time>
      </trkpt>
      <trkpt lat="41.5746620" lon="-0.9329780">
        <ele>359.8</ele>
        <time>2020-12-31T14:59:21Z</time>
      </trkpt>
      <trkpt lat="41.5746940" lon="-0.9330070">
        <ele>359.6</ele>
        <time>2020-12-31T14:59:22Z</time>
      </trkpt>
      <trkpt lat="41.5747330" lon="-0.9330640">
        <ele>359.2</ele>
        <time>2020-12-31T14:59:23Z</time>
      </trkpt>
      <trkpt lat="41.5748230" lon="-0.9331780">
        <ele>358.4</ele>
        <time>2020-12-31T14:59:25Z</time>
      </trkpt>
      <trkpt lat="41.5749360" lon="-0.9332590">
        <ele>357.4</ele>
        <time>2020-12-31T14:59:27Z</time>
      </trkpt>
      <trkpt lat="41.5750020" lon="-0.9332840">
        <ele>356.6</ele>
        <time>2020-12-31T14:59:28Z</time>
      </trkpt>
      <trkpt lat="41.5751350" lon="-0.9333710">
        <ele>355.0</ele>
        <time>2020-12-31T14:59:30Z</time>
      </trkpt>
      <trkpt lat="41.5752800" lon="-0.9334420">
        <ele>353.7</ele>
        <time>2020-12-31T14:59:32Z</time>
      </trkpt>
      <trkpt lat="41.5753550" lon="-0.9334620">
        <ele>353.1</ele>
        <time>2020-12-31T14:59:33Z</time>
      </trkpt>
      <trkpt lat="41.5755180" lon="-0.9334870">
        <ele>351.5</ele>
        <time>2020-12-31T14:59:35Z</time>
      </trkpt>
      <trkpt lat="41.5755940" lon="-0.9334860">
        <ele>350.8</ele>
        <time>2020-12-31T14:59:36Z</time>
      </trkpt>
      <trkpt lat="41.5756880" lon="-0.9336170">
        <ele>350.2</ele>
        <time>2020-12-31T14:59:38Z</time>
      </trkpt>
      <trkpt lat="41.5757440" lon="-0.9336760">
        <ele>349.7</ele>
        <time>2020-12-31T14:59:39Z</time>
      </trkpt>
      <trkpt lat="41.5757990" lon="-0.9337280">
        <ele>349.4</ele>
        <time>2020-12-31T14:59:40Z</time>
      </trkpt>
      <trkpt lat="41.5759040" lon="-0.9338390">
        <ele>349.0</ele>
        <time>2020-12-31T14:59:42Z</time>
      </trkpt>
      <trkpt lat="41.5760210" lon="-0.9339300">
        <ele>348.5</ele>
        <time>2020-12-31T14:59:44Z</time>
      </trkpt>
      <trkpt lat="41.5761490" lon="-0.9340010">
        <ele>347.4</ele>
        <time>2020-12-31T14:59:46Z</time>
      </trkpt>
      <trkpt lat="41.5762840" lon="-0.9340520">
        <ele>346.6</ele>
        <time>2020-12-31T14:59:48Z</time>
      </trkpt>
      <trkpt lat="41.5763640" lon="-0.9340940">
        <ele>346.2</ele>
        <time>2020-12-31T14:59:50Z</time>
      </trkpt>
      <trkpt lat="41.5764040" lon="-0.9341430">
        <ele>346.3</ele>
        <time>2020-12-31T14:59:52Z</time>
      </trkpt>
      <trkpt lat="41.5764330" lon="-0.9341770">
        <ele>346.0</ele>
        <time>2020-12-31T14:59:53Z</time>
      </trkpt>
      <trkpt lat="41.5764560" lon="-0.9342030">
        <ele>345.8</ele>
        <time>2020-12-31T14:59:54Z</time>
      </trkpt>
      <trkpt lat="41.5765080" lon="-0.9342610">
        <ele>345.6</ele>
        <time>2020-12-31T14:59:56Z</time>
      </trkpt>
      <trkpt lat="41.5765300" lon="-0.9343010">
        <ele>345.4</ele>
        <time>2020-12-31T14:59:58Z</time>
      </trkpt>
      <trkpt lat="41.5765590" lon="-0.9343210">
        <ele>345.2</ele>
        <time>2020-12-31T14:59:59Z</time>
      </trkpt>
      <trkpt lat="41.5766730" lon="-0.9344410">
        <ele>344.8</ele>
        <time>2020-12-31T15:00:01Z</time>
      </trkpt>
      <trkpt lat="41.5767490" lon="-0.9345260">
        <ele>344.4</ele>
        <time>2020-12-31T15:00:02Z</time>
      </trkpt>
      <trkpt lat="41.5768240" lon="-0.9345670">
        <ele>344.1</ele>
        <time>2020-12-31T15:00:03Z</time>
      </trkpt>
      <trkpt lat="41.5769570" lon="-0.9345730">
        <ele>343.6</ele>
        <time>2020-12-31T15:00:05Z</time>
      </trkpt>
      <trkpt lat="41.5770320" lon="-0.9346220">
        <ele>343.2</ele>
        <time>2020-12-31T15:00:06Z</time>
      </trkpt>
      <trkpt lat="41.5771170" lon="-0.9346740">
        <ele>343.0</ele>
        <time>2020-12-31T15:00:07Z</time>
      </trkpt>
      <trkpt lat="41.5772800" lon="-0.9347350">
        <ele>342.1</ele>
        <time>2020-12-31T15:00:09Z</time>
      </trkpt>
      <trkpt lat="41.5773380" lon="-0.9347550">
        <ele>341.7</ele>
        <time>2020-12-31T15:00:10Z</time>
      </trkpt>
      <trkpt lat="41.5774250" lon="-0.9348010">
        <ele>341.1</ele>
        <time>2020-12-31T15:00:12Z</time>
      </trkpt>
      <trkpt lat="41.5775280" lon="-0.9348260">
        <ele>340.1</ele>
        <time>2020-12-31T15:00:14Z</time>
      </trkpt>
      <trkpt lat="41.5775790" lon="-0.9348420">
        <ele>339.2</ele>
        <time>2020-12-31T15:00:15Z</time>
      </trkpt>
      <trkpt lat="41.5776720" lon="-0.9349400">
        <ele>338.0</ele>
        <time>2020-12-31T15:00:17Z</time>
      </trkpt>
      <trkpt lat="41.5777780" lon="-0.9350740">
        <ele>336.6</ele>
        <time>2020-12-31T15:00:19Z</time>
      </trkpt>
      <trkpt lat="41.5778450" lon="-0.9351380">
        <ele>335.5</ele>
        <time>2020-12-31T15:00:20Z</time>
      </trkpt>
      <trkpt lat="41.5779460" lon="-0.9352660">
        <ele>333.8</ele>
        <time>2020-12-31T15:00:22Z</time>
      </trkpt>
      <trkpt lat="41.5780580" lon="-0.9353420">
        <ele>331.8</ele>
        <time>2020-12-31T15:00:24Z</time>
      </trkpt>
      <trkpt lat="41.5782180" lon="-0.9354300">
        <ele>329.8</ele>
        <time>2020-12-31T15:00:26Z</time>
      </trkpt>
      <trkpt lat="41.5782990" lon="-0.9354990">
        <ele>329.0</ele>
        <time>2020-12-31T15:00:27Z</time>
      </trkpt>
      <trkpt lat="41.5783740" lon="-0.9355830">
        <ele>328.1</ele>
        <time>2020-12-31T15:00:28Z</time>
      </trkpt>
      <trkpt lat="41.5784860" lon="-0.9357580">
        <ele>326.7</ele>
        <time>2020-12-31T15:00:30Z</time>
      </trkpt>
      <trkpt lat="41.5785590" lon="-0.9359120">
        <ele>325.5</ele>
        <time>2020-12-31T15:00:32Z</time>
      </trkpt>
      <trkpt lat="41.5786040" lon="-0.9359590">
        <ele>324.5</ele>
        <time>2020-12-31T15:00:33Z</time>
      </trkpt>
      <trkpt lat="41.5787420" lon="-0.9360190">
        <ele>322.5</ele>
        <time>2020-12-31T15:00:35Z</time>
      </trkpt>
      <trkpt lat="41.5788230" lon="-0.9360570">
        <ele>321.1</ele>
        <time>2020-12-31T15:00:36Z</time>
      </trkpt>
      <trkpt lat="41.5788990" lon="-0.9361080">
        <ele>318.9</ele>
        <time>2020-12-31T15:00:37Z</time>
      </trkpt>
      <trkpt lat="41.5790320" lon="-0.9361990">
        <ele>315.5</ele>
        <time>2020-12-31T15:00:39Z</time>
      </trkpt>
      <trkpt lat="41.5791000" lon="-0.9362180">
        <ele>313.9</ele>
        <time>2020-12-31T15:00:40Z</time>
      </trkpt>
      <trkpt lat="41.5792150" lon="-0.9361660">
        <ele>310.8</ele>
        <time>2020-12-31T15:00:42Z</time>
      </trkpt>
      <trkpt lat="41.5792570" lon="-0.9361180">
        <ele>310.2</ele>
        <time>2020-12-31T15:00:43Z</time>
      </trkpt>
      <trkpt lat="41.5792980" lon="-0.9360610">
        <ele>310.1</ele>
        <time>2020-12-31T15:00:44Z</time>
      </trkpt>
      <trkpt lat="41.5793430" lon="-0.9359910">
        <ele>308.7</ele>
        <time>2020-12-31T15:00:45Z</time>
      </trkpt>
      <trkpt lat="41.5794630" lon="-0.9358740">
        <ele>306.8</ele>
        <time>2020-12-31T15:00:47Z</time>
      </trkpt>
      <trkpt lat="41.5794940" lon="-0.9358290">
        <ele>306.0</ele>
        <time>2020-12-31T15:00:48Z</time>
      </trkpt>
      <trkpt lat="41.5795450" lon="-0.9357340">
        <ele>304.2</ele>
        <time>2020-12-31T15:00:50Z</time>
      </trkpt>
      <trkpt lat="41.5795700" lon="-0.9356760">
        <ele>303.6</ele>
        <time>2020-12-31T15:00:51Z</time>
      </trkpt>
      <trkpt lat="41.5795880" lon="-0.9356440">
        <ele>303.4</ele>
        <time>2020-12-31T15:00:52Z</time>
      </trkpt>
      <trkpt lat="41.5795740" lon="-0.9355800">
        <ele>303.7</ele>
        <time>2020-12-31T15:00:54Z</time>
      </trkpt>
      <trkpt lat="41.5795000" lon="-0.9355440">
        <ele>305.6</ele>
        <time>2020-12-31T15:00:56Z</time>
      </trkpt>
      <trkpt lat="41.5794610" lon="-0.9355440">
        <ele>307.3</ele>
        <time>2020-12-31T15:00:57Z</time>
      </trkpt>
      <trkpt lat="41.5793770" lon="-0.9355170">
        <ele>308.7</ele>
        <time>2020-12-31T15:00:59Z</time>
      </trkpt>
      <trkpt lat="41.5793500" lon="-0.9353900">
        <ele>309.4</ele>
        <time>2020-12-31T15:01:01Z</time>
      </trkpt>
      <trkpt lat="41.5793690" lon="-0.9353250">
        <ele>309.2</ele>
        <time>2020-12-31T15:01:02Z</time>
      </trkpt>
      <trkpt lat="41.5794370" lon="-0.9352290">
        <ele>306.9</ele>
        <time>2020-12-31T15:01:04Z</time>
      </trkpt>
      <trkpt lat="41.5794600" lon="-0.9352050">
        <ele>306.7</ele>
        <time>2020-12-31T15:01:05Z</time>
      </trkpt>
      <trkpt lat="41.5794960" lon="-0.9351540">
        <ele>305.8</ele>
        <time>2020-12-31T15:01:07Z</time>
      </trkpt>
      <trkpt lat="41.5795220" lon="-0.9350940">
        <ele>305.0</ele>
        <time>2020-12-31T15:01:08Z</time>
      </trkpt>
      <trkpt lat="41.5795440" lon="-0.9350460">
        <ele>304.1</ele>
        <time>2020-12-31T15:01:09Z</time>
      </trkpt>
      <trkpt lat="41.5795670" lon="-0.9349770">
        <ele>303.3</ele>
        <time>2020-12-31T15:01:10Z</time>
      </trkpt>
      <trkpt lat="41.5795730" lon="-0.9348710">
        <ele>303.3</ele>
        <time>2020-12-31T15:01:12Z</time>
      </trkpt>
      <trkpt lat="41.5795630" lon="-0.9348240">
        <ele>303.3</ele>
        <time>2020-12-31T15:01:13Z</time>
      </trkpt>
      <trkpt lat="41.5795720" lon="-0.9347740">
        <ele>303.2</ele>
        <time>2020-12-31T15:01:15Z</time>
      </trkpt>
      <trkpt lat="41.5796250" lon="-0.9347650">
        <ele>302.5</ele>
        <time>2020-12-31T15:01:16Z</time>
      </trkpt>
      <trkpt lat="41.5797610" lon="-0.9347680">
        <ele>298.6</ele>
        <time>2020-12-31T15:01:18Z</time>
      </trkpt>
      <trkpt lat="41.5798850" lon="-0.9348520">
        <ele>297.2</ele>
        <time>2020-12-31T15:01:20Z</time>
      </trkpt>
      <trkpt lat="41.5800080" lon="-0.9349580">
        <ele>295.9</ele>
        <time>2020-12-31T15:01:22Z</time>
      </trkpt>
      <trkpt lat="41.5800820" lon="-0.9351120">
        <ele>294.9</ele>
        <time>2020-12-31T15:01:24Z</time>
      </trkpt>
      <trkpt lat="41.5801280" lon="-0.9352740">
        <ele>294.0</ele>
        <time>2020-12-31T15:01:26Z</time>
      </trkpt>
      <trkpt lat="41.5801590" lon="-0.9353400">
        <ele>293.6</ele>
        <time>2020-12-31T15:01:27Z</time>
      </trkpt>
      <trkpt lat="41.5801900" lon="-0.9354060">
        <ele>293.3</ele>
        <time>2020-12-31T15:01:28Z</time>
      </trkpt>
      <trkpt lat="41.5802230" lon="-0.9354690">
        <ele>292.9</ele>
        <time>2020-12-31T15:01:29Z</time>
      </trkpt>
      <trkpt lat="41.5802880" lon="-0.9356010">
        <ele>292.2</ele>
        <time>2020-12-31T15:01:31Z</time>
      </trkpt>
      <trkpt lat="41.5803600" lon="-0.9357300">
        <ele>291.3</ele>
        <time>2020-12-31T15:01:33Z</time>
      </trkpt>
      <trkpt lat="41.5803980" lon="-0.9357830">
        <ele>290.7</ele>
        <time>2020-12-31T15:01:34Z</time>
      </trkpt>
      <trkpt lat="41.5804330" lon="-0.9358340">
        <ele>290.2</ele>
        <time>2020-12-31T15:01:35Z</time>
      </trkpt>
      <trkpt lat="41.5804820" lon="-0.9359140">
        <ele>289.2</ele>
        <time>2020-12-31T15:01:37Z</time>
      </trkpt>
      <trkpt lat="41.5805040" lon="-0.9359550">
        <ele>288.6</ele>
        <time>2020-12-31T15:01:38Z</time>
      </trkpt>
      <trkpt lat="41.5805520" lon="-0.9360510">
        <ele>287.2</ele>
        <time>2020-12-31T15:01:40Z</time>
      </trkpt>
      <trkpt lat="41.5806560" lon="-0.9361880">
        <ele>284.9</ele>
        <time>2020-12-31T15:01:42Z</time>
      </trkpt>
      <trkpt lat="41.5807110" lon="-0.9362450">
        <ele>284.0</ele>
        <time>2020-12-31T15:01:43Z</time>
      </trkpt>
      <trkpt lat="41.5807500" lon="-0.9362780">
        <ele>283.6</ele>
        <time>2020-12-31T15:01:44Z</time>
      </trkpt>
      <trkpt lat="41.5807680" lon="-0.9362880">
        <ele>283.4</ele>
        <time>2020-12-31T15:01:45Z</time>
      </trkpt>
      <trkpt lat="41.5808110" lon="-0.9363060">
        <ele>283.1</ele>
        <time>2020-12-31T15:01:47Z</time>
      </trkpt>
      <trkpt lat="41.5808630" lon="-0.9362820">
        <ele>282.9</ele>
        <time>2020-12-31T15:01:48Z</time>
      </trkpt>
      <trkpt lat="41.5809330" lon="-0.9362510">
        <ele>282.8</ele>
        <time>2020-12-31T15:01:49Z</time>
      </trkpt>
      <trkpt lat="41.5809830" lon="-0.9362650">
        <ele>282.6</ele>
        <time>2020-12-31T15:01:50Z</time>
      </trkpt>
      <trkpt lat="41.5810660" lon="-0.9363430">
        <ele>282.4</ele>
        <time>2020-12-31T15:01:52Z</time>
      </trkpt>
      <trkpt lat="41.5811490" lon="-0.9364120">
        <ele>282.2</ele>
        <time>2020-12-31T15:01:54Z</time>
      </trkpt>
      <trkpt lat="41.5812510" lon="-0.9364510">
        <ele>282.0</ele>
        <time>2020-12-31T15:01:56Z</time>
      </trkpt>
      <trkpt lat="41.5813600" lon="-0.9364430">
        <ele>281.8</ele>
        <time>2020-12-31T15:01:58Z</time>
      </trkpt>
      <trkpt lat="41.5814130" lon="-0.9364190">
        <ele>281.7</ele>
        <time>2020-12-31T15:01:59Z</time>
      </trkpt>
      <trkpt lat="41.5814660" lon="-0.9363910">
        <ele>281.6</ele>
        <time>2020-12-31T15:02:00Z</time>
      </trkpt>
      <trkpt lat="41.5815750" lon="-0.9363260">
        <ele>281.4</ele>
        <time>2020-12-31T15:02:02Z</time>
      </trkpt>
      <trkpt lat="41.5816300" lon="-0.9362920">
        <ele>281.4</ele>
        <time>2020-12-31T15:02:03Z</time>
      </trkpt>
      <trkpt lat="41.5817400" lon="-0.9362210">
        <ele>281.2</ele>
        <time>2020-12-31T15:02:05Z</time>
      </trkpt>
      <trkpt lat="41.5817910" lon="-0.9361810">
        <ele>281.2</ele>
        <time>2020-12-31T15:02:06Z</time>
      </trkpt>
      <trkpt lat="41.5818920" lon="-0.9361120">
        <ele>281.1</ele>
        <time>2020-12-31T15:02:08Z</time>
      </trkpt>
      <trkpt lat="41.5819480" lon="-0.9360840">
        <ele>281.0</ele>
        <time>2020-12-31T15:02:09Z</time>
      </trkpt>
      <trkpt lat="41.5820680" lon="-0.9360370">
        <ele>280.6</ele>
        <time>2020-12-31T15:02:11Z</time>
      </trkpt>
      <trkpt lat="41.5821320" lon="-0.9360070">
        <ele>280.4</ele>
        <time>2020-12-31T15:02:12Z</time>
      </trkpt>
      <trkpt lat="41.5822000" lon="-0.9359820">
        <ele>280.2</ele>
        <time>2020-12-31T15:02:13Z</time>
      </trkpt>
      <trkpt lat="41.5823360" lon="-0.9359230">
        <ele>279.9</ele>
        <time>2020-12-31T15:02:15Z</time>
      </trkpt>
      <trkpt lat="41.5824010" lon="-0.9358880">
        <ele>279.7</ele>
        <time>2020-12-31T15:02:16Z</time>
      </trkpt>
      <trkpt lat="41.5824680" lon="-0.9358500">
        <ele>279.6</ele>
        <time>2020-12-31T15:02:17Z</time>
      </trkpt>
      <trkpt lat="41.5825970" lon="-0.9357620">
        <ele>279.3</ele>
        <time>2020-12-31T15:02:19Z</time>
      </trkpt>
      <trkpt lat="41.5826690" lon="-0.9357120">
        <ele>279.2</ele>
        <time>2020-12-31T15:02:20Z</time>
      </trkpt>
      <trkpt lat="41.5828120" lon="-0.9356110">
        <ele>278.9</ele>
        <time>2020-12-31T15:02:22Z</time>
      </trkpt>
      <trkpt lat="41.5829530" lon="-0.9355130">
        <ele>278.7</ele>
        <time>2020-12-31T15:02:24Z</time>
      </trkpt>
      <trkpt lat="41.5830220" lon="-0.9354680">
        <ele>278.5</ele>
        <time>2020-12-31T15:02:25Z</time>
      </trkpt>
      <trkpt lat="41.5831620" lon="-0.9353870">
        <ele>278.2</ele>
        <time>2020-12-31T15:02:27Z</time>
      </trkpt>
      <trkpt lat="41.5833020" lon="-0.9352970">
        <ele>277.7</ele>
        <time>2020-12-31T15:02:29Z</time>
      </trkpt>
      <trkpt lat="41.5834450" lon="-0.9352050">
        <ele>277.1</ele>
        <time>2020-12-31T15:02:31Z</time>
      </trkpt>
      <trkpt lat="41.5835920" lon="-0.9351040">
        <ele>276.4</ele>
        <time>2020-12-31T15:02:33Z</time>
      </trkpt>
      <trkpt lat="41.5837560" lon="-0.9350070">
        <ele>275.7</ele>
        <time>2020-12-31T15:02:35Z</time>
      </trkpt>
      <trkpt lat="41.5838420" lon="-0.9349610">
        <ele>275.4</ele>
        <time>2020-12-31T15:02:36Z</time>
      </trkpt>
      <trkpt lat="41.5840170" lon="-0.9348680">
        <ele>274.7</ele>
        <time>2020-12-31T15:02:38Z</time>
      </trkpt>
      <trkpt lat="41.5841020" lon="-0.9348160">
        <ele>274.4</ele>
        <time>2020-12-31T15:02:39Z</time>
      </trkpt>
      <trkpt lat="41.5841870" lon="-0.9347610">
        <ele>274.2</ele>
        <time>2020-12-31T15:02:40Z</time>
      </trkpt>
      <trkpt lat="41.5843500" lon="-0.9346440">
        <ele>273.6</ele>
        <time>2020-12-31T15:02:42Z</time>
      </trkpt>
      <trkpt lat="41.5845040" lon="-0.9345010">
        <ele>273.0</ele>
        <time>2020-12-31T15:02:44Z</time>
      </trkpt>
      <trkpt lat="41.5846600" lon="-0.9343600">
        <ele>272.4</ele>
        <time>2020-12-31T15:02:46Z</time>
      </trkpt>
      <trkpt lat="41.5847490" lon="-0.9343020">
        <ele>272.1</ele>
        <time>2020-12-31T15:02:47Z</time>
      </trkpt>
      <trkpt lat="41.5848450" lon="-0.9342650">
        <ele>271.9</ele>
        <time>2020-12-31T15:02:48Z</time>
      </trkpt>
      <trkpt lat="41.5849420" lon="-0.9342420">
        <ele>271.8</ele>
        <time>2020-12-31T15:02:49Z</time>
      </trkpt>
      <trkpt lat="41.5851340" lon="-0.9342010">
        <ele>271.5</ele>
        <time>2020-12-31T15:02:51Z</time>
      </trkpt>
      <trkpt lat="41.5853180" lon="-0.9341260">
        <ele>271.1</ele>
        <time>2020-12-31T15:02:53Z</time>
      </trkpt>
      <trkpt lat="41.5854960" lon="-0.9340320">
        <ele>270.7</ele>
        <time>2020-12-31T15:02:55Z</time>
      </trkpt>
      <trkpt lat="41.5856650" lon="-0.9339050">
        <ele>270.2</ele>
        <time>2020-12-31T15:02:57Z</time>
      </trkpt>
      <trkpt lat="41.5858140" lon="-0.9337390">
        <ele>269.5</ele>
        <time>2020-12-31T15:02:59Z</time>
      </trkpt>
      <trkpt lat="41.5858830" lon="-0.9336470">
        <ele>269.0</ele>
        <time>2020-12-31T15:03:00Z</time>
      </trkpt>
      <trkpt lat="41.5859540" lon="-0.9335590">
        <ele>268.5</ele>
        <time>2020-12-31T15:03:01Z</time>
      </trkpt>
      <trkpt lat="41.5861240" lon="-0.9334140">
        <ele>267.4</ele>
        <time>2020-12-31T15:03:03Z</time>
      </trkpt>
      <trkpt lat="41.5862260" lon="-0.9333540">
        <ele>266.9</ele>
        <time>2020-12-31T15:03:04Z</time>
      </trkpt>
      <trkpt lat="41.5863280" lon="-0.9332920">
        <ele>266.5</ele>
        <time>2020-12-31T15:03:05Z</time>
      </trkpt>
      <trkpt lat="41.5864210" lon="-0.9332150">
        <ele>266.2</ele>
        <time>2020-12-31T15:03:06Z</time>
      </trkpt>
      <trkpt lat="41.5865770" lon="-0.9330280">
        <ele>265.9</ele>
        <time>2020-12-31T15:03:08Z</time>
      </trkpt>
      <trkpt lat="41.5866600" lon="-0.9329510">
        <ele>265.9</ele>
        <time>2020-12-31T15:03:09Z</time>
      </trkpt>
      <trkpt lat="41.5868450" lon="-0.9328500">
        <ele>266.4</ele>
        <time>2020-12-31T15:03:11Z</time>
      </trkpt>
      <trkpt lat="41.5870350" lon="-0.9327970">
        <ele>267.2</ele>
        <time>2020-12-31T15:03:13Z</time>
      </trkpt>
      <trkpt lat="41.5871970" lon="-0.9327370">
        <ele>268.2</ele>
        <time>2020-12-31T15:03:15Z</time>
      </trkpt>
      <trkpt lat="41.5872630" lon="-0.9326990">
        <ele>268.7</ele>
        <time>2020-12-31T15:03:16Z</time>
      </trkpt>
      <trkpt lat="41.5873760" lon="-0.9325930">
        <ele>269.6</ele>
        <time>2020-12-31T15:03:18Z</time>
      </trkpt>
      <trkpt lat="41.5874280" lon="-0.9325330">
        <ele>269.9</ele>
        <time>2020-12-31T15:03:19Z</time>
      </trkpt>
      <trkpt lat="41.5875350" lon="-0.9324260">
        <ele>270.3</ele>
        <time>2020-12-31T15:03:21Z</time>
      </trkpt>
      <trkpt lat="41.5875880" lon="-0.9323770">
        <ele>270.5</ele>
        <time>2020-12-31T15:03:22Z</time>
      </trkpt>
      <trkpt lat="41.5877140" lon="-0.9323200">
        <ele>270.9</ele>
        <time>2020-12-31T15:03:24Z</time>
      </trkpt>
      <trkpt lat="41.5878500" lon="-0.9323020">
        <ele>271.1</ele>
        <time>2020-12-31T15:03:26Z</time>
      </trkpt>
      <trkpt lat="41.5879190" lon="-0.9322900">
        <ele>271.2</ele>
        <time>2020-12-31T15:03:27Z</time>
      </trkpt>
      <trkpt lat="41.5880480" lon="-0.9322640">
        <ele>271.4</ele>
        <time>2020-12-31T15:03:29Z</time>
      </trkpt>
      <trkpt lat="41.5881840" lon="-0.9322120">
        <ele>271.6</ele>
        <time>2020-12-31T15:03:31Z</time>
      </trkpt>
      <trkpt lat="41.5882490" lon="-0.9321760">
        <ele>271.6</ele>
        <time>2020-12-31T15:03:32Z</time>
      </trkpt>
      <trkpt lat="41.5883090" lon="-0.9321360">
        <ele>271.7</ele>
        <time>2020-12-31T15:03:33Z</time>
      </trkpt>
      <trkpt lat="41.5883710" lon="-0.9320950">
        <ele>271.8</ele>
        <time>2020-12-31T15:03:34Z</time>
      </trkpt>
      <trkpt lat="41.5885000" lon="-0.9320080">
        <ele>271.9</ele>
        <time>2020-12-31T15:03:36Z</time>
      </trkpt>
      <trkpt lat="41.5885620" lon="-0.9319640">
        <ele>271.9</ele>
        <time>2020-12-31T15:03:37Z</time>
      </trkpt>
      <trkpt lat="41.5886880" lon="-0.9318700">
        <ele>271.9</ele>
        <time>2020-12-31T15:03:39Z</time>
      </trkpt>
      <trkpt lat="41.5887530" lon="-0.9318170">
        <ele>271.9</ele>
        <time>2020-12-31T15:03:40Z</time>
      </trkpt>
      <trkpt lat="41.5888180" lon="-0.9317650">
        <ele>271.9</ele>
        <time>2020-12-31T15:03:41Z</time>
      </trkpt>
      <trkpt lat="41.5888790" lon="-0.9317150">
        <ele>271.9</ele>
        <time>2020-12-31T15:03:42Z</time>
      </trkpt>
      <trkpt lat="41.5889980" lon="-0.9316330">
        <ele>272.0</ele>
        <time>2020-12-31T15:03:44Z</time>
      </trkpt>
      <trkpt lat="41.5891230" lon="-0.9317010">
        <ele>271.8</ele>
        <time>2020-12-31T15:03:46Z</time>
      </trkpt>
      <trkpt lat="41.5892620" lon="-0.9317570">
        <ele>271.1</ele>
        <time>2020-12-31T15:03:48Z</time>
      </trkpt>
      <trkpt lat="41.5894090" lon="-0.9317990">
        <ele>270.4</ele>
        <time>2020-12-31T15:03:50Z</time>
      </trkpt>
      <trkpt lat="41.5895000" lon="-0.9318120">
        <ele>269.9</ele>
        <time>2020-12-31T15:03:51Z</time>
      </trkpt>
      <trkpt lat="41.5895810" lon="-0.9318310">
        <ele>269.6</ele>
        <time>2020-12-31T15:03:52Z</time>
      </trkpt>
      <trkpt lat="41.5897350" lon="-0.9318790">
        <ele>269.0</ele>
        <time>2020-12-31T15:03:54Z</time>
      </trkpt>
      <trkpt lat="41.5898160" lon="-0.9318960">
        <ele>268.8</ele>
        <time>2020-12-31T15:03:55Z</time>
      </trkpt>
      <trkpt lat="41.5898950" lon="-0.9319160">
        <ele>268.5</ele>
        <time>2020-12-31T15:03:56Z</time>
      </trkpt>
      <trkpt lat="41.5899650" lon="-0.9319380">
        <ele>268.3</ele>
        <time>2020-12-31T15:03:57Z</time>
      </trkpt>
      <trkpt lat="41.5900300" lon="-0.9319570">
        <ele>268.2</ele>
        <time>2020-12-31T15:03:58Z</time>
      </trkpt>
      <trkpt lat="41.5901720" lon="-0.9319760">
        <ele>267.8</ele>
        <time>2020-12-31T15:04:00Z</time>
      </trkpt>
      <trkpt lat="41.5903110" lon="-0.9319800">
        <ele>267.6</ele>
        <time>2020-12-31T15:04:02Z</time>
      </trkpt>
      <trkpt lat="41.5903640" lon="-0.9319770">
        <ele>267.5</ele>
        <time>2020-12-31T15:04:03Z</time>
      </trkpt>
      <trkpt lat="41.5904730" lon="-0.9319720">
        <ele>267.3</ele>
        <time>2020-12-31T15:04:05Z</time>
      </trkpt>
      <trkpt lat="41.5906370" lon="-0.9319420">
        <ele>267.1</ele>
        <time>2020-12-31T15:04:07Z</time>
      </trkpt>
      <trkpt lat="41.5907160" lon="-0.9319200">
        <ele>267.0</ele>
        <time>2020-12-31T15:04:08Z</time>
      </trkpt>
      <trkpt lat="41.5908700" lon="-0.9318650">
        <ele>267.0</ele>
        <time>2020-12-31T15:04:10Z</time>
      </trkpt>
      <trkpt lat="41.5909450" lon="-0.9318330">
        <ele>267.0</ele>
        <time>2020-12-31T15:04:11Z</time>
      </trkpt>
      <trkpt lat="41.5910860" lon="-0.9317580">
        <ele>267.1</ele>
        <time>2020-12-31T15:04:13Z</time>
      </trkpt>
      <trkpt lat="41.5912220" lon="-0.9316820">
        <ele>267.2</ele>
        <time>2020-12-31T15:04:15Z</time>
      </trkpt>
      <trkpt lat="41.5912870" lon="-0.9316410">
        <ele>267.3</ele>
        <time>2020-12-31T15:04:16Z</time>
      </trkpt>
      <trkpt lat="41.5914020" lon="-0.9315570">
        <ele>267.5</ele>
        <time>2020-12-31T15:04:18Z</time>
      </trkpt>
      <trkpt lat="41.5914670" lon="-0.9314500">
        <ele>267.8</ele>
        <time>2020-12-31T15:04:20Z</time>
      </trkpt>
      <trkpt lat="41.5914630" lon="-0.9314110">
        <ele>268.1</ele>
        <time>2020-12-31T15:04:21Z</time>
      </trkpt>
      <trkpt lat="41.5914450" lon="-0.9313580">
        <ele>268.3</ele>
        <time>2020-12-31T15:04:22Z</time>
      </trkpt>
      <trkpt lat="41.5914170" lon="-0.9313030">
        <ele>268.5</ele>
        <time>2020-12-31T15:04:23Z</time>
      </trkpt>
      <trkpt lat="41.5914040" lon="-0.9312410">
        <ele>268.7</ele>
        <time>2020-12-31T15:04:24Z</time>
      </trkpt>
      <trkpt lat="41.5913630" lon="-0.9311500">
        <ele>269.1</ele>
        <time>2020-12-31T15:04:26Z</time>
      </trkpt>
      <trkpt lat="41.5913310" lon="-0.9311070">
        <ele>269.3</ele>
        <time>2020-12-31T15:04:27Z</time>
      </trkpt>
      <trkpt lat="41.5913170" lon="-0.9310630">
        <ele>269.4</ele>
        <time>2020-12-31T15:04:29Z</time>
      </trkpt>
      <trkpt lat="41.5913030" lon="-0.9310180">
        <ele>269.7</ele>
        <time>2020-12-31T15:04:30Z</time>
      </trkpt>
      <trkpt lat="41.5912850" lon="-0.9309370">
        <ele>270.0</ele>
        <time>2020-12-31T15:04:31Z</time>
      </trkpt>
      <trkpt lat="41.5912330" lon="-0.9307990">
        <ele>270.7</ele>
        <time>2020-12-31T15:04:33Z</time>
      </trkpt>
      <trkpt lat="41.5912020" lon="-0.9307440">
        <ele>271.1</ele>
        <time>2020-12-31T15:04:34Z</time>
      </trkpt>
      <trkpt lat="41.5911500" lon="-0.9306940">
        <ele>271.4</ele>
        <time>2020-12-31T15:04:36Z</time>
      </trkpt>
      <trkpt lat="41.5910850" lon="-0.9306780">
        <ele>271.7</ele>
        <time>2020-12-31T15:04:38Z</time>
      </trkpt>
      <trkpt lat="41.5910590" lon="-0.9306530">
        <ele>272.6</ele>
        <time>2020-12-31T15:04:39Z</time>
      </trkpt>
      <trkpt lat="41.5910550" lon="-0.9306460">
        <ele>272.7</ele>
        <time>2020-12-31T15:04:40Z</time>
      </trkpt>
      <trkpt lat="41.5910940" lon="-0.9306130">
        <ele>272.9</ele>
        <time>2020-12-31T15:04:41Z</time>
      </trkpt>
      <trkpt lat="41.5911150" lon="-0.9305980">
        <ele>273.0</ele>
        <time>2020-12-31T15:04:42Z</time>
      </trkpt>
      <trkpt lat="41.5912250" lon="-0.9305360">
        <ele>273.4</ele>
        <time>2020-12-31T15:04:44Z</time>
      </trkpt>
      <trkpt lat="41.5912780" lon="-0.9305070">
        <ele>273.5</ele>
        <time>2020-12-31T15:04:45Z</time>
      </trkpt>
      <trkpt lat="41.5913290" lon="-0.9304800">
        <ele>273.6</ele>
        <time>2020-12-31T15:04:46Z</time>
      </trkpt>
      <trkpt lat="41.5914250" lon="-0.9304260">
        <ele>273.8</ele>
        <time>2020-12-31T15:04:48Z</time>
      </trkpt>
      <trkpt lat="41.5914730" lon="-0.9303980">
        <ele>273.9</ele>
        <time>2020-12-31T15:04:49Z</time>
      </trkpt>
      <trkpt lat="41.5915620" lon="-0.9303370">
        <ele>273.9</ele>
        <time>2020-12-31T15:04:51Z</time>
      </trkpt>
      <trkpt lat="41.5916050" lon="-0.9302990">
        <ele>273.8</ele>
        <time>2020-12-31T15:04:52Z</time>
      </trkpt>
      <trkpt lat="41.5916920" lon="-0.9302160">
        <ele>273.7</ele>
        <time>2020-12-31T15:04:54Z</time>
      </trkpt>
      <trkpt lat="41.5917360" lon="-0.9301740">
        <ele>273.7</ele>
        <time>2020-12-31T15:04:55Z</time>
      </trkpt>
      <trkpt lat="41.5918290" lon="-0.9300920">
        <ele>273.5</ele>
        <time>2020-12-31T15:04:57Z</time>
      </trkpt>
      <trkpt lat="41.5919240" lon="-0.9300050">
        <ele>273.4</ele>
        <time>2020-12-31T15:04:59Z</time>
      </trkpt>
      <trkpt lat="41.5919640" lon="-0.9299610">
        <ele>273.3</ele>
        <time>2020-12-31T15:05:00Z</time>
      </trkpt>
      <trkpt lat="41.5920200" lon="-0.9298930">
        <ele>273.2</ele>
        <time>2020-12-31T15:05:02Z</time>
      </trkpt>
      <trkpt lat="41.5920450" lon="-0.9298560">
        <ele>273.1</ele>
        <time>2020-12-31T15:05:03Z</time>
      </trkpt>
      <trkpt lat="41.5920560" lon="-0.9298370">
        <ele>273.1</ele>
        <time>2020-12-31T15:05:04Z</time>
      </trkpt>
      <trkpt lat="41.5921000" lon="-0.9297620">
        <ele>272.9</ele>
        <time>2020-12-31T15:05:06Z</time>
      </trkpt>
      <trkpt lat="41.5921380" lon="-0.9297120">
        <ele>272.8</ele>
        <time>2020-12-31T15:05:07Z</time>
      </trkpt>
      <trkpt lat="41.5921600" lon="-0.9296650">
        <ele>272.8</ele>
        <time>2020-12-31T15:05:08Z</time>
      </trkpt>
      <trkpt lat="41.5922010" lon="-0.9295780">
        <ele>272.9</ele>
        <time>2020-12-31T15:05:10Z</time>
      </trkpt>
      <trkpt lat="41.5922720" lon="-0.9294950">
        <ele>273.0</ele>
        <time>2020-12-31T15:05:12Z</time>
      </trkpt>
      <trkpt lat="41.5923150" lon="-0.9294610">
        <ele>273.1</ele>
        <time>2020-12-31T15:05:13Z</time>
      </trkpt>
      <trkpt lat="41.5924020" lon="-0.9293830">
        <ele>273.2</ele>
        <time>2020-12-31T15:05:15Z</time>
      </trkpt>
      <trkpt lat="41.5925050" lon="-0.9293000">
        <ele>273.4</ele>
        <time>2020-12-31T15:05:17Z</time>
      </trkpt>
      <trkpt lat="41.5925540" lon="-0.9292540">
        <ele>273.5</ele>
        <time>2020-12-31T15:05:18Z</time>
      </trkpt>
      <trkpt lat="41.5925970" lon="-0.9292010">
        <ele>273.6</ele>
        <time>2020-12-31T15:05:19Z</time>
      </trkpt>
      <trkpt lat="41.5926890" lon="-0.9291080">
        <ele>273.7</ele>
        <time>2020-12-31T15:05:21Z</time>
      </trkpt>
      <trkpt lat="41.5927380" lon="-0.9290680">
        <ele>273.9</ele>
        <time>2020-12-31T15:05:22Z</time>
      </trkpt>
      <trkpt lat="41.5928250" lon="-0.9289860">
        <ele>274.1</ele>
        <time>2020-12-31T15:05:24Z</time>
      </trkpt>
      <trkpt lat="41.5928720" lon="-0.9289530">
        <ele>274.2</ele>
        <time>2020-12-31T15:05:25Z</time>
      </trkpt>
      <trkpt lat="41.5929600" lon="-0.9288900">
        <ele>274.4</ele>
        <time>2020-12-31T15:05:27Z</time>
      </trkpt>
      <trkpt lat="41.5930500" lon="-0.9288200">
        <ele>274.6</ele>
        <time>2020-12-31T15:05:29Z</time>
      </trkpt>
      <trkpt lat="41.5930990" lon="-0.9287840">
        <ele>274.6</ele>
        <time>2020-12-31T15:05:30Z</time>
      </trkpt>
      <trkpt lat="41.5931490" lon="-0.9287530">
        <ele>274.7</ele>
        <time>2020-12-31T15:05:31Z</time>
      </trkpt>
      <trkpt lat="41.5932610" lon="-0.9287100">
        <ele>274.7</ele>
        <time>2020-12-31T15:05:33Z</time>
      </trkpt>
      <trkpt lat="41.5933240" lon="-0.9286820">
        <ele>274.6</ele>
        <time>2020-12-31T15:05:34Z</time>
      </trkpt>
      <trkpt lat="41.5934540" lon="-0.9286250">
        <ele>274.6</ele>
        <time>2020-12-31T15:05:36Z</time>
      </trkpt>
      <trkpt lat="41.5935790" lon="-0.9285810">
        <ele>274.5</ele>
        <time>2020-12-31T15:05:38Z</time>
      </trkpt>
      <trkpt lat="41.5936450" lon="-0.9285570">
        <ele>274.5</ele>
        <time>2020-12-31T15:05:39Z</time>
      </trkpt>
      <trkpt lat="41.5937100" lon="-0.9285350">
        <ele>274.4</ele>
        <time>2020-12-31T15:05:40Z</time>
      </trkpt>
      <trkpt lat="41.5938460" lon="-0.9285010">
        <ele>274.3</ele>
        <time>2020-12-31T15:05:42Z</time>
      </trkpt>
      <trkpt lat="41.5939810" lon="-0.9284640">
        <ele>274.2</ele>
        <time>2020-12-31T15:05:44Z</time>
      </trkpt>
      <trkpt lat="41.5940500" lon="-0.9284430">
        <ele>274.2</ele>
        <time>2020-12-31T15:05:45Z</time>
      </trkpt>
      <trkpt lat="41.5941180" lon="-0.9284190">
        <ele>274.1</ele>
        <time>2020-12-31T15:05:46Z</time>
      </trkpt>
      <trkpt lat="41.5942490" lon="-0.9283650">
        <ele>274.0</ele>
        <time>2020-12-31T15:05:48Z</time>
      </trkpt>
      <trkpt lat="41.5943140" lon="-0.9283340">
        <ele>273.9</ele>
        <time>2020-12-31T15:05:49Z</time>
      </trkpt>
      <trkpt lat="41.5944510" lon="-0.9282710">
        <ele>273.7</ele>
        <time>2020-12-31T15:05:51Z</time>
      </trkpt>
      <trkpt lat="41.5945270" lon="-0.9282380">
        <ele>273.6</ele>
        <time>2020-12-31T15:05:52Z</time>
      </trkpt>
      <trkpt lat="41.5945990" lon="-0.9282080">
        <ele>273.5</ele>
        <time>2020-12-31T15:05:53Z</time>
      </trkpt>
      <trkpt lat="41.5947430" lon="-0.9281410">
        <ele>273.3</ele>
        <time>2020-12-31T15:05:55Z</time>
      </trkpt>
      <trkpt lat="41.5948080" lon="-0.9281020">
        <ele>273.3</ele>
        <time>2020-12-31T15:05:56Z</time>
      </trkpt>
      <trkpt lat="41.5949330" lon="-0.9280130">
        <ele>273.1</ele>
        <time>2020-12-31T15:05:58Z</time>
      </trkpt>
      <trkpt lat="41.5950630" lon="-0.9279250">
        <ele>273.0</ele>
        <time>2020-12-31T15:06:00Z</time>
      </trkpt>
      <trkpt lat="41.5951920" lon="-0.9278230">
        <ele>272.9</ele>
        <time>2020-12-31T15:06:02Z</time>
      </trkpt>
      <trkpt lat="41.5952610" lon="-0.9277770">
        <ele>272.8</ele>
        <time>2020-12-31T15:06:03Z</time>
      </trkpt>
      <trkpt lat="41.5954030" lon="-0.9277140">
        <ele>272.7</ele>
        <time>2020-12-31T15:06:05Z</time>
      </trkpt>
      <trkpt lat="41.5954760" lon="-0.9276940">
        <ele>272.5</ele>
        <time>2020-12-31T15:06:06Z</time>
      </trkpt>
      <trkpt lat="41.5955530" lon="-0.9276730">
        <ele>272.4</ele>
        <time>2020-12-31T15:06:07Z</time>
      </trkpt>
      <trkpt lat="41.5957040" lon="-0.9276360">
        <ele>272.2</ele>
        <time>2020-12-31T15:06:09Z</time>
      </trkpt>
      <trkpt lat="41.5958530" lon="-0.9275830">
        <ele>271.8</ele>
        <time>2020-12-31T15:06:11Z</time>
      </trkpt>
      <trkpt lat="41.5959270" lon="-0.9275420">
        <ele>271.7</ele>
        <time>2020-12-31T15:06:12Z</time>
      </trkpt>
      <trkpt lat="41.5960700" lon="-0.9274510">
        <ele>271.3</ele>
        <time>2020-12-31T15:06:14Z</time>
      </trkpt>
      <trkpt lat="41.5961410" lon="-0.9274020">
        <ele>271.1</ele>
        <time>2020-12-31T15:06:15Z</time>
      </trkpt>
      <trkpt lat="41.5962940" lon="-0.9273250">
        <ele>270.6</ele>
        <time>2020-12-31T15:06:17Z</time>
      </trkpt>
      <trkpt lat="41.5963710" lon="-0.9272940">
        <ele>270.4</ele>
        <time>2020-12-31T15:06:18Z</time>
      </trkpt>
      <trkpt lat="41.5965330" lon="-0.9272250">
        <ele>269.9</ele>
        <time>2020-12-31T15:06:20Z</time>
      </trkpt>
      <trkpt lat="41.5966980" lon="-0.9271720">
        <ele>269.4</ele>
        <time>2020-12-31T15:06:22Z</time>
      </trkpt>
      <trkpt lat="41.5967890" lon="-0.9271540">
        <ele>269.1</ele>
        <time>2020-12-31T15:06:23Z</time>
      </trkpt>
      <trkpt lat="41.5968780" lon="-0.9271380">
        <ele>268.8</ele>
        <time>2020-12-31T15:06:24Z</time>
      </trkpt>
      <trkpt lat="41.5970590" lon="-0.9270760">
        <ele>268.4</ele>
        <time>2020-12-31T15:06:26Z</time>
      </trkpt>
      <trkpt lat="41.5971420" lon="-0.9270300">
        <ele>268.4</ele>
        <time>2020-12-31T15:06:27Z</time>
      </trkpt>
      <trkpt lat="41.5972190" lon="-0.9269790">
        <ele>268.3</ele>
        <time>2020-12-31T15:06:28Z</time>
      </trkpt>
      <trkpt lat="41.5973620" lon="-0.9268650">
        <ele>268.2</ele>
        <time>2020-12-31T15:06:30Z</time>
      </trkpt>
      <trkpt lat="41.5974310" lon="-0.9268060">
        <ele>268.1</ele>
        <time>2020-12-31T15:06:31Z</time>
      </trkpt>
      <trkpt lat="41.5975640" lon="-0.9266910">
        <ele>268.0</ele>
        <time>2020-12-31T15:06:33Z</time>
      </trkpt>
      <trkpt lat="41.5976920" lon="-0.9265730">
        <ele>267.9</ele>
        <time>2020-12-31T15:06:35Z</time>
      </trkpt>
      <trkpt lat="41.5977470" lon="-0.9265150">
        <ele>267.8</ele>
        <time>2020-12-31T15:06:36Z</time>
      </trkpt>
      <trkpt lat="41.5978370" lon="-0.9263730">
        <ele>267.8</ele>
        <time>2020-12-31T15:06:38Z</time>
      </trkpt>
      <trkpt lat="41.5978700" lon="-0.9262890">
        <ele>267.9</ele>
        <time>2020-12-31T15:06:39Z</time>
      </trkpt>
      <trkpt lat="41.5979720" lon="-0.9261990">
        <ele>268.0</ele>
        <time>2020-12-31T15:06:41Z</time>
      </trkpt>
      <trkpt lat="41.5980350" lon="-0.9262070">
        <ele>267.9</ele>
        <time>2020-12-31T15:06:42Z</time>
      </trkpt>
      <trkpt lat="41.5981690" lon="-0.9262070">
        <ele>267.8</ele>
        <time>2020-12-31T15:06:44Z</time>
      </trkpt>
      <trkpt lat="41.5982380" lon="-0.9261830">
        <ele>267.8</ele>
        <time>2020-12-31T15:06:45Z</time>
      </trkpt>
      <trkpt lat="41.5983750" lon="-0.9261110">
        <ele>267.6</ele>
        <time>2020-12-31T15:06:47Z</time>
      </trkpt>
      <trkpt lat="41.5984430" lon="-0.9260820">
        <ele>267.6</ele>
        <time>2020-12-31T15:06:48Z</time>
      </trkpt>
      <trkpt lat="41.5985760" lon="-0.9260090">
        <ele>267.5</ele>
        <time>2020-12-31T15:06:50Z</time>
      </trkpt>
      <trkpt lat="41.5986450" lon="-0.9259720">
        <ele>267.4</ele>
        <time>2020-12-31T15:06:51Z</time>
      </trkpt>
      <trkpt lat="41.5987830" lon="-0.9258910">
        <ele>267.2</ele>
        <time>2020-12-31T15:06:53Z</time>
      </trkpt>
      <trkpt lat="41.5988470" lon="-0.9258440">
        <ele>267.1</ele>
        <time>2020-12-31T15:06:54Z</time>
      </trkpt>
      <trkpt lat="41.5989100" lon="-0.9257920">
        <ele>267.1</ele>
        <time>2020-12-31T15:06:55Z</time>
      </trkpt>
      <trkpt lat="41.5989740" lon="-0.9257440">
        <ele>267.0</ele>
        <time>2020-12-31T15:06:56Z</time>
      </trkpt>
      <trkpt lat="41.5991100" lon="-0.9256650">
        <ele>266.8</ele>
        <time>2020-12-31T15:06:58Z</time>
      </trkpt>
      <trkpt lat="41.5992520" lon="-0.9255960">
        <ele>266.5</ele>
        <time>2020-12-31T15:07:00Z</time>
      </trkpt>
      <trkpt lat="41.5993250" lon="-0.9255700">
        <ele>266.4</ele>
        <time>2020-12-31T15:07:01Z</time>
      </trkpt>
      <trkpt lat="41.5994720" lon="-0.9255120">
        <ele>266.1</ele>
        <time>2020-12-31T15:07:03Z</time>
      </trkpt>
      <trkpt lat="41.5996260" lon="-0.9254530">
        <ele>265.8</ele>
        <time>2020-12-31T15:07:05Z</time>
      </trkpt>
      <trkpt lat="41.5997080" lon="-0.9254310">
        <ele>265.7</ele>
        <time>2020-12-31T15:07:06Z</time>
      </trkpt>
      <trkpt lat="41.5998630" lon="-0.9253820">
        <ele>265.5</ele>
        <time>2020-12-31T15:07:08Z</time>
      </trkpt>
      <trkpt lat="41.6000180" lon="-0.9253010">
        <ele>265.3</ele>
        <time>2020-12-31T15:07:10Z</time>
      </trkpt>
      <trkpt lat="41.6000910" lon="-0.9252510">
        <ele>265.3</ele>
        <time>2020-12-31T15:07:11Z</time>
      </trkpt>
      <trkpt lat="41.6002330" lon="-0.9251210">
        <ele>265.3</ele>
        <time>2020-12-31T15:07:13Z</time>
      </trkpt>
      <trkpt lat="41.6002940" lon="-0.9250490">
        <ele>265.3</ele>
        <time>2020-12-31T15:07:14Z</time>
      </trkpt>
      <trkpt lat="41.6003990" lon="-0.9249120">
        <ele>265.4</ele>
        <time>2020-12-31T15:07:16Z</time>
      </trkpt>
      <trkpt lat="41.6004970" lon="-0.9247820">
        <ele>265.5</ele>
        <time>2020-12-31T15:07:18Z</time>
      </trkpt>
      <trkpt lat="41.6005510" lon="-0.9247130">
        <ele>265.4</ele>
        <time>2020-12-31T15:07:19Z</time>
      </trkpt>
      <trkpt lat="41.6006050" lon="-0.9246390">
        <ele>265.3</ele>
        <time>2020-12-31T15:07:20Z</time>
      </trkpt>
      <trkpt lat="41.6007190" lon="-0.9244860">
        <ele>265.0</ele>
        <time>2020-12-31T15:07:22Z</time>
      </trkpt>
      <trkpt lat="41.6008350" lon="-0.9243280">
        <ele>264.8</ele>
        <time>2020-12-31T15:07:24Z</time>
      </trkpt>
      <trkpt lat="41.6009510" lon="-0.9241770">
        <ele>264.6</ele>
        <time>2020-12-31T15:07:26Z</time>
      </trkpt>
      <trkpt lat="41.6010690" lon="-0.9240240">
        <ele>264.3</ele>
        <time>2020-12-31T15:07:28Z</time>
      </trkpt>
      <trkpt lat="41.6011910" lon="-0.9238620">
        <ele>264.1</ele>
        <time>2020-12-31T15:07:30Z</time>
      </trkpt>
      <trkpt lat="41.6012540" lon="-0.9237800">
        <ele>264.0</ele>
        <time>2020-12-31T15:07:31Z</time>
      </trkpt>
      <trkpt lat="41.6013170" lon="-0.9236990">
        <ele>263.8</ele>
        <time>2020-12-31T15:07:32Z</time>
      </trkpt>
      <trkpt lat="41.6014470" lon="-0.9235430">
        <ele>263.4</ele>
        <time>2020-12-31T15:07:34Z</time>
      </trkpt>
      <trkpt lat="41.6015170" lon="-0.9234580">
        <ele>263.2</ele>
        <time>2020-12-31T15:07:35Z</time>
      </trkpt>
      <trkpt lat="41.6016560" lon="-0.9233080">
        <ele>262.9</ele>
        <time>2020-12-31T15:07:37Z</time>
      </trkpt>
      <trkpt lat="41.6017840" lon="-0.9231600">
        <ele>262.6</ele>
        <time>2020-12-31T15:07:39Z</time>
      </trkpt>
      <trkpt lat="41.6018520" lon="-0.9230820">
        <ele>262.4</ele>
        <time>2020-12-31T15:07:40Z</time>
      </trkpt>
      <trkpt lat="41.6019960" lon="-0.9229310">
        <ele>262.2</ele>
        <time>2020-12-31T15:07:42Z</time>
      </trkpt>
      <trkpt lat="41.6020780" lon="-0.9228690">
        <ele>262.0</ele>
        <time>2020-12-31T15:07:43Z</time>
      </trkpt>
      <trkpt lat="41.6021660" lon="-0.9228170">
        <ele>261.9</ele>
        <time>2020-12-31T15:07:44Z</time>
      </trkpt>
      <trkpt lat="41.6023410" lon="-0.9227530">
        <ele>261.8</ele>
        <time>2020-12-31T15:07:46Z</time>
      </trkpt>
      <trkpt lat="41.6025070" lon="-0.9226980">
        <ele>261.8</ele>
        <time>2020-12-31T15:07:48Z</time>
      </trkpt>
      <trkpt lat="41.6025940" lon="-0.9226830">
        <ele>261.8</ele>
        <time>2020-12-31T15:07:49Z</time>
      </trkpt>
      <trkpt lat="41.6026820" lon="-0.9226680">
        <ele>261.9</ele>
        <time>2020-12-31T15:07:50Z</time>
      </trkpt>
      <trkpt lat="41.6028510" lon="-0.9226490">
        <ele>261.8</ele>
        <time>2020-12-31T15:07:52Z</time>
      </trkpt>
      <trkpt lat="41.6030200" lon="-0.9226260">
        <ele>261.6</ele>
        <time>2020-12-31T15:07:54Z</time>
      </trkpt>
      <trkpt lat="41.6031080" lon="-0.9226100">
        <ele>261.6</ele>
        <time>2020-12-31T15:07:55Z</time>
      </trkpt>
      <trkpt lat="41.6032810" lon="-0.9225810">
        <ele>261.7</ele>
        <time>2020-12-31T15:07:57Z</time>
      </trkpt>
      <trkpt lat="41.6033640" lon="-0.9225650">
        <ele>261.7</ele>
        <time>2020-12-31T15:07:58Z</time>
      </trkpt>
      <trkpt lat="41.6034420" lon="-0.9225310">
        <ele>261.7</ele>
        <time>2020-12-31T15:07:59Z</time>
      </trkpt>
      <trkpt lat="41.6035860" lon="-0.9224250">
        <ele>261.8</ele>
        <time>2020-12-31T15:08:01Z</time>
      </trkpt>
      <trkpt lat="41.6036570" lon="-0.9223750">
        <ele>261.8</ele>
        <time>2020-12-31T15:08:02Z</time>
      </trkpt>
      <trkpt lat="41.6038030" lon="-0.9222780">
        <ele>261.8</ele>
        <time>2020-12-31T15:08:04Z</time>
      </trkpt>
      <trkpt lat="41.6039670" lon="-0.9221750">
        <ele>261.8</ele>
        <time>2020-12-31T15:08:06Z</time>
      </trkpt>
      <trkpt lat="41.6041350" lon="-0.9220720">
        <ele>261.7</ele>
        <time>2020-12-31T15:08:08Z</time>
      </trkpt>
      <trkpt lat="41.6042130" lon="-0.9220250">
        <ele>261.7</ele>
        <time>2020-12-31T15:08:09Z</time>
      </trkpt>
      <trkpt lat="41.6042850" lon="-0.9219730">
        <ele>261.6</ele>
        <time>2020-12-31T15:08:10Z</time>
      </trkpt>
      <trkpt lat="41.6043560" lon="-0.9219200">
        <ele>261.6</ele>
        <time>2020-12-31T15:08:11Z</time>
      </trkpt>
      <trkpt lat="41.6044960" lon="-0.9218210">
        <ele>261.5</ele>
        <time>2020-12-31T15:08:13Z</time>
      </trkpt>
      <trkpt lat="41.6045640" lon="-0.9217620">
        <ele>261.5</ele>
        <time>2020-12-31T15:08:14Z</time>
      </trkpt>
      <trkpt lat="41.6047050" lon="-0.9216570">
        <ele>261.5</ele>
        <time>2020-12-31T15:08:16Z</time>
      </trkpt>
      <trkpt lat="41.6048500" lon="-0.9215620">
        <ele>261.4</ele>
        <time>2020-12-31T15:08:18Z</time>
      </trkpt>
      <trkpt lat="41.6049220" lon="-0.9215180">
        <ele>261.3</ele>
        <time>2020-12-31T15:08:19Z</time>
      </trkpt>
      <trkpt lat="41.6050650" lon="-0.9214110">
        <ele>261.2</ele>
        <time>2020-12-31T15:08:21Z</time>
      </trkpt>
      <trkpt lat="41.6052110" lon="-0.9213080">
        <ele>261.1</ele>
        <time>2020-12-31T15:08:23Z</time>
      </trkpt>
      <trkpt lat="41.6052820" lon="-0.9212520">
        <ele>261.1</ele>
        <time>2020-12-31T15:08:24Z</time>
      </trkpt>
      <trkpt lat="41.6054250" lon="-0.9211410">
        <ele>261.0</ele>
        <time>2020-12-31T15:08:26Z</time>
      </trkpt>
      <trkpt lat="41.6054950" lon="-0.9210850">
        <ele>261.0</ele>
        <time>2020-12-31T15:08:27Z</time>
      </trkpt>
      <trkpt lat="41.6056320" lon="-0.9209730">
        <ele>260.9</ele>
        <time>2020-12-31T15:08:29Z</time>
      </trkpt>
      <trkpt lat="41.6057040" lon="-0.9209130">
        <ele>260.9</ele>
        <time>2020-12-31T15:08:30Z</time>
      </trkpt>
      <trkpt lat="41.6058440" lon="-0.9207940">
        <ele>260.7</ele>
        <time>2020-12-31T15:08:32Z</time>
      </trkpt>
      <trkpt lat="41.6059740" lon="-0.9206640">
        <ele>260.5</ele>
        <time>2020-12-31T15:08:34Z</time>
      </trkpt>
      <trkpt lat="41.6060400" lon="-0.9205920">
        <ele>260.4</ele>
        <time>2020-12-31T15:08:35Z</time>
      </trkpt>
      <trkpt lat="41.6061750" lon="-0.9204430">
        <ele>260.0</ele>
        <time>2020-12-31T15:08:37Z</time>
      </trkpt>
      <trkpt lat="41.6063020" lon="-0.9202970">
        <ele>259.5</ele>
        <time>2020-12-31T15:08:39Z</time>
      </trkpt>
      <trkpt lat="41.6064400" lon="-0.9201440">
        <ele>259.1</ele>
        <time>2020-12-31T15:08:41Z</time>
      </trkpt>
      <trkpt lat="41.6065080" lon="-0.9200690">
        <ele>258.9</ele>
        <time>2020-12-31T15:08:42Z</time>
      </trkpt>
      <trkpt lat="41.6065800" lon="-0.9200010">
        <ele>258.7</ele>
        <time>2020-12-31T15:08:43Z</time>
      </trkpt>
      <trkpt lat="41.6067210" lon="-0.9198730">
        <ele>258.5</ele>
        <time>2020-12-31T15:08:45Z</time>
      </trkpt>
      <trkpt lat="41.6067930" lon="-0.9198100">
        <ele>258.3</ele>
        <time>2020-12-31T15:08:46Z</time>
      </trkpt>
      <trkpt lat="41.6069390" lon="-0.9196860">
        <ele>258.2</ele>
        <time>2020-12-31T15:08:48Z</time>
      </trkpt>
      <trkpt lat="41.6070130" lon="-0.9196240">
        <ele>258.1</ele>
        <time>2020-12-31T15:08:49Z</time>
      </trkpt>
      <trkpt lat="41.6071540" lon="-0.9195000">
        <ele>257.8</ele>
        <time>2020-12-31T15:08:51Z</time>
      </trkpt>
      <trkpt lat="41.6072870" lon="-0.9193630">
        <ele>257.5</ele>
        <time>2020-12-31T15:08:53Z</time>
      </trkpt>
      <trkpt lat="41.6074140" lon="-0.9192110">
        <ele>257.2</ele>
        <time>2020-12-31T15:08:55Z</time>
      </trkpt>
      <trkpt lat="41.6075200" lon="-0.9190200">
        <ele>256.8</ele>
        <time>2020-12-31T15:08:57Z</time>
      </trkpt>
      <trkpt lat="41.6075980" lon="-0.9188050">
        <ele>256.6</ele>
        <time>2020-12-31T15:08:59Z</time>
      </trkpt>
      <trkpt lat="41.6077000" lon="-0.9186130">
        <ele>256.4</ele>
        <time>2020-12-31T15:09:01Z</time>
      </trkpt>
      <trkpt lat="41.6077670" lon="-0.9185360">
        <ele>256.3</ele>
        <time>2020-12-31T15:09:02Z</time>
      </trkpt>
      <trkpt lat="41.6078360" lon="-0.9184640">
        <ele>256.2</ele>
        <time>2020-12-31T15:09:03Z</time>
      </trkpt>
      <trkpt lat="41.6079690" lon="-0.9183380">
        <ele>256.2</ele>
        <time>2020-12-31T15:09:05Z</time>
      </trkpt>
      <trkpt lat="41.6081000" lon="-0.9182140">
        <ele>256.0</ele>
        <time>2020-12-31T15:09:07Z</time>
      </trkpt>
      <trkpt lat="41.6082250" lon="-0.9180570">
        <ele>256.0</ele>
        <time>2020-12-31T15:09:09Z</time>
      </trkpt>
      <trkpt lat="41.6082820" lon="-0.9179810">
        <ele>255.9</ele>
        <time>2020-12-31T15:09:10Z</time>
      </trkpt>
      <trkpt lat="41.6083900" lon="-0.9178300">
        <ele>255.9</ele>
        <time>2020-12-31T15:09:12Z</time>
      </trkpt>
      <trkpt lat="41.6084440" lon="-0.9177520">
        <ele>255.9</ele>
        <time>2020-12-31T15:09:13Z</time>
      </trkpt>
      <trkpt lat="41.6085530" lon="-0.9176130">
        <ele>255.9</ele>
        <time>2020-12-31T15:09:15Z</time>
      </trkpt>
      <trkpt lat="41.6086070" lon="-0.9175420">
        <ele>255.8</ele>
        <time>2020-12-31T15:09:16Z</time>
      </trkpt>
      <trkpt lat="41.6087150" lon="-0.9173880">
        <ele>255.6</ele>
        <time>2020-12-31T15:09:18Z</time>
      </trkpt>
      <trkpt lat="41.6088310" lon="-0.9172260">
        <ele>255.4</ele>
        <time>2020-12-31T15:09:20Z</time>
      </trkpt>
      <trkpt lat="41.6088890" lon="-0.9171450">
        <ele>255.3</ele>
        <time>2020-12-31T15:09:21Z</time>
      </trkpt>
      <trkpt lat="41.6090070" lon="-0.9169920">
        <ele>255.1</ele>
        <time>2020-12-31T15:09:23Z</time>
      </trkpt>
      <trkpt lat="41.6091240" lon="-0.9168430">
        <ele>255.1</ele>
        <time>2020-12-31T15:09:25Z</time>
      </trkpt>
      <trkpt lat="41.6091830" lon="-0.9167660">
        <ele>255.0</ele>
        <time>2020-12-31T15:09:26Z</time>
      </trkpt>
      <trkpt lat="41.6092670" lon="-0.9166400">
        <ele>254.8</ele>
        <time>2020-12-31T15:09:27Z</time>
      </trkpt>
      <trkpt lat="41.6094020" lon="-0.9164990">
        <ele>255.0</ele>
        <time>2020-12-31T15:09:29Z</time>
      </trkpt>
      <trkpt lat="41.6094630" lon="-0.9164260">
        <ele>255.1</ele>
        <time>2020-12-31T15:09:30Z</time>
      </trkpt>
      <trkpt lat="41.6095250" lon="-0.9163590">
        <ele>255.2</ele>
        <time>2020-12-31T15:09:31Z</time>
      </trkpt>
      <trkpt lat="41.6096300" lon="-0.9162220">
        <ele>255.4</ele>
        <time>2020-12-31T15:09:33Z</time>
      </trkpt>
      <trkpt lat="41.6097360" lon="-0.9160910">
        <ele>255.7</ele>
        <time>2020-12-31T15:09:35Z</time>
      </trkpt>
      <trkpt lat="41.6097840" lon="-0.9160300">
        <ele>255.8</ele>
        <time>2020-12-31T15:09:36Z</time>
      </trkpt>
      <trkpt lat="41.6098340" lon="-0.9159690">
        <ele>255.9</ele>
        <time>2020-12-31T15:09:37Z</time>
      </trkpt>
      <trkpt lat="41.6099210" lon="-0.9158430">
        <ele>256.1</ele>
        <time>2020-12-31T15:09:39Z</time>
      </trkpt>
      <trkpt lat="41.6099630" lon="-0.9157710">
        <ele>256.2</ele>
        <time>2020-12-31T15:09:40Z</time>
      </trkpt>
      <trkpt lat="41.6100540" lon="-0.9156140">
        <ele>256.3</ele>
        <time>2020-12-31T15:09:42Z</time>
      </trkpt>
      <trkpt lat="41.6100950" lon="-0.9155330">
        <ele>256.3</ele>
        <time>2020-12-31T15:09:43Z</time>
      </trkpt>
      <trkpt lat="41.6101880" lon="-0.9153730">
        <ele>256.2</ele>
        <time>2020-12-31T15:09:45Z</time>
      </trkpt>
      <trkpt lat="41.6102790" lon="-0.9152070">
        <ele>256.1</ele>
        <time>2020-12-31T15:09:47Z</time>
      </trkpt>
      <trkpt lat="41.6103330" lon="-0.9151340">
        <ele>256.1</ele>
        <time>2020-12-31T15:09:48Z</time>
      </trkpt>
      <trkpt lat="41.6103910" lon="-0.9150680">
        <ele>256.0</ele>
        <time>2020-12-31T15:09:49Z</time>
      </trkpt>
      <trkpt lat="41.6105090" lon="-0.9149390">
        <ele>255.9</ele>
        <time>2020-12-31T15:09:51Z</time>
      </trkpt>
      <trkpt lat="41.6105700" lon="-0.9148740">
        <ele>255.9</ele>
        <time>2020-12-31T15:09:52Z</time>
      </trkpt>
      <trkpt lat="41.6106320" lon="-0.9148160">
        <ele>255.8</ele>
        <time>2020-12-31T15:09:53Z</time>
      </trkpt>
      <trkpt lat="41.6107700" lon="-0.9147310">
        <ele>255.9</ele>
        <time>2020-12-31T15:09:55Z</time>
      </trkpt>
      <trkpt lat="41.6108430" lon="-0.9146910">
        <ele>256.0</ele>
        <time>2020-12-31T15:09:56Z</time>
      </trkpt>
      <trkpt lat="41.6109720" lon="-0.9145990">
        <ele>256.4</ele>
        <time>2020-12-31T15:09:58Z</time>
      </trkpt>
      <trkpt lat="41.6110250" lon="-0.9145440">
        <ele>256.7</ele>
        <time>2020-12-31T15:09:59Z</time>
      </trkpt>
      <trkpt lat="41.6111150" lon="-0.9144280">
        <ele>257.2</ele>
        <time>2020-12-31T15:10:01Z</time>
      </trkpt>
      <trkpt lat="41.6111550" lon="-0.9143700">
        <ele>257.5</ele>
        <time>2020-12-31T15:10:02Z</time>
      </trkpt>
      <trkpt lat="41.6111880" lon="-0.9143120">
        <ele>257.8</ele>
        <time>2020-12-31T15:10:03Z</time>
      </trkpt>
      <trkpt lat="41.6112190" lon="-0.9142530">
        <ele>258.0</ele>
        <time>2020-12-31T15:10:04Z</time>
      </trkpt>
      <trkpt lat="41.6112520" lon="-0.9141990">
        <ele>258.3</ele>
        <time>2020-12-31T15:10:05Z</time>
      </trkpt>
      <trkpt lat="41.6112900" lon="-0.9141500">
        <ele>258.6</ele>
        <time>2020-12-31T15:10:06Z</time>
      </trkpt>
      <trkpt lat="41.6113670" lon="-0.9140440">
        <ele>259.2</ele>
        <time>2020-12-31T15:10:08Z</time>
      </trkpt>
      <trkpt lat="41.6114460" lon="-0.9139430">
        <ele>259.7</ele>
        <time>2020-12-31T15:10:10Z</time>
      </trkpt>
      <trkpt lat="41.6114790" lon="-0.9138910">
        <ele>259.9</ele>
        <time>2020-12-31T15:10:11Z</time>
      </trkpt>
      <trkpt lat="41.6115490" lon="-0.9137780">
        <ele>260.3</ele>
        <time>2020-12-31T15:10:13Z</time>
      </trkpt>
      <trkpt lat="41.6115770" lon="-0.9137170">
        <ele>260.5</ele>
        <time>2020-12-31T15:10:14Z</time>
      </trkpt>
      <trkpt lat="41.6116400" lon="-0.9135940">
        <ele>260.9</ele>
        <time>2020-12-31T15:10:16Z</time>
      </trkpt>
      <trkpt lat="41.6116720" lon="-0.9135360">
        <ele>261.0</ele>
        <time>2020-12-31T15:10:17Z</time>
      </trkpt>
      <trkpt lat="41.6117330" lon="-0.9134250">
        <ele>261.4</ele>
        <time>2020-12-31T15:10:19Z</time>
      </trkpt>
      <trkpt lat="41.6117640" lon="-0.9133770">
        <ele>261.6</ele>
        <time>2020-12-31T15:10:20Z</time>
      </trkpt>
      <trkpt lat="41.6118200" lon="-0.9132830">
        <ele>261.9</ele>
        <time>2020-12-31T15:10:22Z</time>
      </trkpt>
      <trkpt lat="41.6118770" lon="-0.9131780">
        <ele>262.3</ele>
        <time>2020-12-31T15:10:24Z</time>
      </trkpt>
      <trkpt lat="41.6119310" lon="-0.9130660">
        <ele>262.7</ele>
        <time>2020-12-31T15:10:26Z</time>
      </trkpt>
      <trkpt lat="41.6119700" lon="-0.9129600">
        <ele>262.9</ele>
        <time>2020-12-31T15:10:28Z</time>
      </trkpt>
      <trkpt lat="41.6119930" lon="-0.9129020">
        <ele>263.1</ele>
        <time>2020-12-31T15:10:29Z</time>
      </trkpt>
      <trkpt lat="41.6120210" lon="-0.9127960">
        <ele>263.2</ele>
        <time>2020-12-31T15:10:31Z</time>
      </trkpt>
      <trkpt lat="41.6120340" lon="-0.9127370">
        <ele>263.1</ele>
        <time>2020-12-31T15:10:32Z</time>
      </trkpt>
      <trkpt lat="41.6120500" lon="-0.9126110">
        <ele>262.8</ele>
        <time>2020-12-31T15:10:34Z</time>
      </trkpt>
      <trkpt lat="41.6120430" lon="-0.9124580">
        <ele>262.0</ele>
        <time>2020-12-31T15:10:36Z</time>
      </trkpt>
      <trkpt lat="41.6120320" lon="-0.9123710">
        <ele>261.3</ele>
        <time>2020-12-31T15:10:37Z</time>
      </trkpt>
      <trkpt lat="41.6119940" lon="-0.9121910">
        <ele>259.7</ele>
        <time>2020-12-31T15:10:39Z</time>
      </trkpt>
      <trkpt lat="41.6119460" lon="-0.9119690">
        <ele>257.8</ele>
        <time>2020-12-31T15:10:41Z</time>
      </trkpt>
      <trkpt lat="41.6119380" lon="-0.9117130">
        <ele>256.3</ele>
        <time>2020-12-31T15:10:43Z</time>
      </trkpt>
      <trkpt lat="41.6120510" lon="-0.9115160">
        <ele>255.5</ele>
        <time>2020-12-31T15:10:45Z</time>
      </trkpt>
      <trkpt lat="41.6121360" lon="-0.9114710">
        <ele>255.3</ele>
        <time>2020-12-31T15:10:46Z</time>
      </trkpt>
      <trkpt lat="41.6122210" lon="-0.9114620">
        <ele>255.2</ele>
        <time>2020-12-31T15:10:47Z</time>
      </trkpt>
      <trkpt lat="41.6123000" lon="-0.9114900">
        <ele>255.0</ele>
        <time>2020-12-31T15:10:48Z</time>
      </trkpt>
      <trkpt lat="41.6124260" lon="-0.9116290">
        <ele>254.4</ele>
        <time>2020-12-31T15:10:50Z</time>
      </trkpt>
      <trkpt lat="41.6124770" lon="-0.9117120">
        <ele>254.1</ele>
        <time>2020-12-31T15:10:51Z</time>
      </trkpt>
      <trkpt lat="41.6125300" lon="-0.9117870">
        <ele>253.9</ele>
        <time>2020-12-31T15:10:52Z</time>
      </trkpt>
      <trkpt lat="41.6125850" lon="-0.9118600">
        <ele>253.7</ele>
        <time>2020-12-31T15:10:53Z</time>
      </trkpt>
      <trkpt lat="41.6127080" lon="-0.9119750">
        <ele>253.7</ele>
        <time>2020-12-31T15:10:55Z</time>
      </trkpt>
      <trkpt lat="41.6127710" lon="-0.9120060">
        <ele>253.8</ele>
        <time>2020-12-31T15:10:56Z</time>
      </trkpt>
      <trkpt lat="41.6128940" lon="-0.9120250">
        <ele>254.0</ele>
        <time>2020-12-31T15:10:58Z</time>
      </trkpt>
      <trkpt lat="41.6129970" lon="-0.9120150">
        <ele>254.2</ele>
        <time>2020-12-31T15:11:00Z</time>
      </trkpt>
      <trkpt lat="41.6130410" lon="-0.9119780">
        <ele>254.2</ele>
        <time>2020-12-31T15:11:01Z</time>
      </trkpt>
      <trkpt lat="41.6131310" lon="-0.9118870">
        <ele>254.2</ele>
        <time>2020-12-31T15:11:03Z</time>
      </trkpt>
      <trkpt lat="41.6131740" lon="-0.9118280">
        <ele>254.1</ele>
        <time>2020-12-31T15:11:04Z</time>
      </trkpt>
      <trkpt lat="41.6132190" lon="-0.9117690">
        <ele>254.0</ele>
        <time>2020-12-31T15:11:05Z</time>
      </trkpt>
      <trkpt lat="41.6133030" lon="-0.9116350">
        <ele>253.7</ele>
        <time>2020-12-31T15:11:07Z</time>
      </trkpt>
      <trkpt lat="41.6133910" lon="-0.9114950">
        <ele>253.5</ele>
        <time>2020-12-31T15:11:09Z</time>
      </trkpt>
      <trkpt lat="41.6134340" lon="-0.9114210">
        <ele>253.4</ele>
        <time>2020-12-31T15:11:10Z</time>
      </trkpt>
      <trkpt lat="41.6135290" lon="-0.9112780">
        <ele>253.4</ele>
        <time>2020-12-31T15:11:12Z</time>
      </trkpt>
      <trkpt lat="41.6135770" lon="-0.9112100">
        <ele>253.4</ele>
        <time>2020-12-31T15:11:13Z</time>
      </trkpt>
      <trkpt lat="41.6136300" lon="-0.9111510">
        <ele>253.4</ele>
        <time>2020-12-31T15:11:14Z</time>
      </trkpt>
      <trkpt lat="41.6137330" lon="-0.9110370">
        <ele>253.4</ele>
        <time>2020-12-31T15:11:16Z</time>
      </trkpt>
      <trkpt lat="41.6138300" lon="-0.9109110">
        <ele>253.4</ele>
        <time>2020-12-31T15:11:18Z</time>
      </trkpt>
      <trkpt lat="41.6139200" lon="-0.9107720">
        <ele>253.4</ele>
        <time>2020-12-31T15:11:20Z</time>
      </trkpt>
      <trkpt lat="41.6139660" lon="-0.9106980">
        <ele>253.5</ele>
        <time>2020-12-31T15:11:21Z</time>
      </trkpt>
      <trkpt lat="41.6140530" lon="-0.9105430">
        <ele>253.6</ele>
        <time>2020-12-31T15:11:23Z</time>
      </trkpt>
      <trkpt lat="41.6140970" lon="-0.9104660">
        <ele>253.7</ele>
        <time>2020-12-31T15:11:24Z</time>
      </trkpt>
      <trkpt lat="41.6141910" lon="-0.9103360">
        <ele>253.8</ele>
        <time>2020-12-31T15:11:26Z</time>
      </trkpt>
      <trkpt lat="41.6142990" lon="-0.9102140">
        <ele>253.9</ele>
        <time>2020-12-31T15:11:28Z</time>
      </trkpt>
      <trkpt lat="41.6144190" lon="-0.9100870">
        <ele>254.1</ele>
        <time>2020-12-31T15:11:30Z</time>
      </trkpt>
      <trkpt lat="41.6144750" lon="-0.9100250">
        <ele>254.2</ele>
        <time>2020-12-31T15:11:31Z</time>
      </trkpt>
      <trkpt lat="41.6145680" lon="-0.9098970">
        <ele>254.3</ele>
        <time>2020-12-31T15:11:33Z</time>
      </trkpt>
      <trkpt lat="41.6146360" lon="-0.9097420">
        <ele>254.4</ele>
        <time>2020-12-31T15:11:35Z</time>
      </trkpt>
      <trkpt lat="41.6147020" lon="-0.9095750">
        <ele>254.4</ele>
        <time>2020-12-31T15:11:37Z</time>
      </trkpt>
      <trkpt lat="41.6147510" lon="-0.9095010">
        <ele>254.5</ele>
        <time>2020-12-31T15:11:38Z</time>
      </trkpt>
      <trkpt lat="41.6148760" lon="-0.9093950">
        <ele>254.6</ele>
        <time>2020-12-31T15:11:40Z</time>
      </trkpt>
      <trkpt lat="41.6149380" lon="-0.9093480">
        <ele>254.6</ele>
        <time>2020-12-31T15:11:41Z</time>
      </trkpt>
      <trkpt lat="41.6149920" lon="-0.9092950">
        <ele>254.6</ele>
        <time>2020-12-31T15:11:42Z</time>
      </trkpt>
      <trkpt lat="41.6150960" lon="-0.9091870">
        <ele>254.3</ele>
        <time>2020-12-31T15:11:44Z</time>
      </trkpt>
      <trkpt lat="41.6151550" lon="-0.9091230">
        <ele>254.1</ele>
        <time>2020-12-31T15:11:45Z</time>
      </trkpt>
      <trkpt lat="41.6152120" lon="-0.9090590">
        <ele>254.0</ele>
        <time>2020-12-31T15:11:46Z</time>
      </trkpt>
      <trkpt lat="41.6152700" lon="-0.9090000">
        <ele>253.8</ele>
        <time>2020-12-31T15:11:47Z</time>
      </trkpt>
      <trkpt lat="41.6153960" lon="-0.9088980">
        <ele>253.7</ele>
        <time>2020-12-31T15:11:49Z</time>
      </trkpt>
      <trkpt lat="41.6154590" lon="-0.9088560">
        <ele>253.7</ele>
        <time>2020-12-31T15:11:50Z</time>
      </trkpt>
      <trkpt lat="41.6155820" lon="-0.9087850">
        <ele>253.7</ele>
        <time>2020-12-31T15:11:52Z</time>
      </trkpt>
      <trkpt lat="41.6156360" lon="-0.9087470">
        <ele>253.6</ele>
        <time>2020-12-31T15:11:53Z</time>
      </trkpt>
      <trkpt lat="41.6156830" lon="-0.9087030">
        <ele>253.6</ele>
        <time>2020-12-31T15:11:54Z</time>
      </trkpt>
      <trkpt lat="41.6157510" lon="-0.9085730">
        <ele>253.4</ele>
        <time>2020-12-31T15:11:56Z</time>
      </trkpt>
      <trkpt lat="41.6158260" lon="-0.9084260">
        <ele>253.2</ele>
        <time>2020-12-31T15:11:58Z</time>
      </trkpt>
      <trkpt lat="41.6158620" lon="-0.9083550">
        <ele>253.1</ele>
        <time>2020-12-31T15:11:59Z</time>
      </trkpt>
      <trkpt lat="41.6159050" lon="-0.9082800">
        <ele>253.0</ele>
        <time>2020-12-31T15:12:00Z</time>
      </trkpt>
      <trkpt lat="41.6159470" lon="-0.9082090">
        <ele>253.0</ele>
        <time>2020-12-31T15:12:01Z</time>
      </trkpt>
      <trkpt lat="41.6160320" lon="-0.9080800">
        <ele>252.9</ele>
        <time>2020-12-31T15:12:03Z</time>
      </trkpt>
      <trkpt lat="41.6161250" lon="-0.9079500">
        <ele>252.8</ele>
        <time>2020-12-31T15:12:05Z</time>
      </trkpt>
      <trkpt lat="41.6162210" lon="-0.9078050">
        <ele>252.7</ele>
        <time>2020-12-31T15:12:07Z</time>
      </trkpt>
      <trkpt lat="41.6162710" lon="-0.9077330">
        <ele>252.6</ele>
        <time>2020-12-31T15:12:08Z</time>
      </trkpt>
      <trkpt lat="41.6163760" lon="-0.9076050">
        <ele>252.6</ele>
        <time>2020-12-31T15:12:10Z</time>
      </trkpt>
      <trkpt lat="41.6164820" lon="-0.9074990">
        <ele>252.6</ele>
        <time>2020-12-31T15:12:12Z</time>
      </trkpt>
      <trkpt lat="41.6165350" lon="-0.9074510">
        <ele>252.5</ele>
        <time>2020-12-31T15:12:13Z</time>
      </trkpt>
      <trkpt lat="41.6165860" lon="-0.9074000">
        <ele>252.5</ele>
        <time>2020-12-31T15:12:14Z</time>
      </trkpt>
      <trkpt lat="41.6166330" lon="-0.9073380">
        <ele>252.4</ele>
        <time>2020-12-31T15:12:15Z</time>
      </trkpt>
      <trkpt lat="41.6166860" lon="-0.9071690">
        <ele>252.2</ele>
        <time>2020-12-31T15:12:17Z</time>
      </trkpt>
      <trkpt lat="41.6167030" lon="-0.9070670">
        <ele>252.1</ele>
        <time>2020-12-31T15:12:18Z</time>
      </trkpt>
      <trkpt lat="41.6167260" lon="-0.9068580">
        <ele>252.2</ele>
        <time>2020-12-31T15:12:20Z</time>
      </trkpt>
      <trkpt lat="41.6167310" lon="-0.9067570">
        <ele>252.4</ele>
        <time>2020-12-31T15:12:21Z</time>
      </trkpt>
      <trkpt lat="41.6167040" lon="-0.9065830">
        <ele>253.0</ele>
        <time>2020-12-31T15:12:23Z</time>
      </trkpt>
      <trkpt lat="41.6166800" lon="-0.9065060">
        <ele>253.4</ele>
        <time>2020-12-31T15:12:24Z</time>
      </trkpt>
      <trkpt lat="41.6166530" lon="-0.9064330">
        <ele>253.8</ele>
        <time>2020-12-31T15:12:25Z</time>
      </trkpt>
      <trkpt lat="41.6166060" lon="-0.9062850">
        <ele>254.6</ele>
        <time>2020-12-31T15:12:27Z</time>
      </trkpt>
      <trkpt lat="41.6165650" lon="-0.9061440">
        <ele>255.4</ele>
        <time>2020-12-31T15:12:29Z</time>
      </trkpt>
      <trkpt lat="41.6165370" lon="-0.9060090">
        <ele>255.9</ele>
        <time>2020-12-31T15:12:31Z</time>
      </trkpt>
      <trkpt lat="41.6165230" lon="-0.9059440">
        <ele>256.0</ele>
        <time>2020-12-31T15:12:32Z</time>
      </trkpt>
      <trkpt lat="41.6165030" lon="-0.9057970">
        <ele>255.9</ele>
        <time>2020-12-31T15:12:34Z</time>
      </trkpt>
      <trkpt lat="41.6164590" lon="-0.9056710">
        <ele>255.8</ele>
        <time>2020-12-31T15:12:36Z</time>
      </trkpt>
      <trkpt lat="41.6164350" lon="-0.9055100">
        <ele>255.7</ele>
        <time>2020-12-31T15:12:38Z</time>
      </trkpt>
      <trkpt lat="41.6164180" lon="-0.9054280">
        <ele>255.7</ele>
        <time>2020-12-31T15:12:39Z</time>
      </trkpt>
      <trkpt lat="41.6163640" lon="-0.9052780">
        <ele>255.7</ele>
        <time>2020-12-31T15:12:41Z</time>
      </trkpt>
      <trkpt lat="41.6163370" lon="-0.9052040">
        <ele>255.8</ele>
        <time>2020-12-31T15:12:42Z</time>
      </trkpt>
      <trkpt lat="41.6163020" lon="-0.9050710">
        <ele>256.0</ele>
        <time>2020-12-31T15:12:44Z</time>
      </trkpt>
      <trkpt lat="41.6162860" lon="-0.9050040">
        <ele>256.1</ele>
        <time>2020-12-31T15:12:45Z</time>
      </trkpt>
      <trkpt lat="41.6162510" lon="-0.9048780">
        <ele>256.3</ele>
        <time>2020-12-31T15:12:47Z</time>
      </trkpt>
      <trkpt lat="41.6162360" lon="-0.9048140">
        <ele>256.5</ele>
        <time>2020-12-31T15:12:48Z</time>
      </trkpt>
      <trkpt lat="41.6162090" lon="-0.9046940">
        <ele>256.8</ele>
        <time>2020-12-31T15:12:50Z</time>
      </trkpt>
      <trkpt lat="41.6161960" lon="-0.9046320">
        <ele>257.0</ele>
        <time>2020-12-31T15:12:51Z</time>
      </trkpt>
      <trkpt lat="41.6161730" lon="-0.9045300">
        <ele>257.3</ele>
        <time>2020-12-31T15:12:53Z</time>
      </trkpt>
      <trkpt lat="41.6161600" lon="-0.9044760">
        <ele>257.4</ele>
        <time>2020-12-31T15:12:54Z</time>
      </trkpt>
      <trkpt lat="41.6161350" lon="-0.9043760">
        <ele>257.8</ele>
        <time>2020-12-31T15:12:56Z</time>
      </trkpt>
      <trkpt lat="41.6160980" lon="-0.9042680">
        <ele>258.1</ele>
        <time>2020-12-31T15:12:58Z</time>
      </trkpt>
      <trkpt lat="41.6160840" lon="-0.9042550">
        <ele>258.1</ele>
        <time>2020-12-31T15:12:59Z</time>
      </trkpt>
      <trkpt lat="41.6160820" lon="-0.9042570">
        <ele>258.1</ele>
        <time>2020-12-31T15:13:00Z</time>
      </trkpt>
      <trkpt lat="41.6160380" lon="-0.9041240">
        <ele>258.4</ele>
        <time>2020-12-31T15:13:02Z</time>
      </trkpt>
      <trkpt lat="41.6159960" lon="-0.9040250">
        <ele>258.7</ele>
        <time>2020-12-31T15:13:04Z</time>
      </trkpt>
      <trkpt lat="41.6159690" lon="-0.9039580">
        <ele>258.8</ele>
        <time>2020-12-31T15:13:05Z</time>
      </trkpt>
      <trkpt lat="41.6159430" lon="-0.9038970">
        <ele>258.9</ele>
        <time>2020-12-31T15:13:06Z</time>
      </trkpt>
      <trkpt lat="41.6159040" lon="-0.9038220">
        <ele>259.1</ele>
        <time>2020-12-31T15:13:08Z</time>
      </trkpt>
      <trkpt lat="41.6158750" lon="-0.9037650">
        <ele>259.3</ele>
        <time>2020-12-31T15:13:09Z</time>
      </trkpt>
      <trkpt lat="41.6158530" lon="-0.9037240">
        <ele>259.4</ele>
        <time>2020-12-31T15:13:10Z</time>
      </trkpt>
      <trkpt lat="41.6158130" lon="-0.9036570">
        <ele>259.7</ele>
        <time>2020-12-31T15:13:12Z</time>
      </trkpt>
      <trkpt lat="41.6157810" lon="-0.9036010">
        <ele>259.9</ele>
        <time>2020-12-31T15:13:13Z</time>
      </trkpt>
      <trkpt lat="41.6157450" lon="-0.9035330">
        <ele>260.2</ele>
        <time>2020-12-31T15:13:15Z</time>
      </trkpt>
      <trkpt lat="41.6157250" lon="-0.9034970">
        <ele>260.3</ele>
        <time>2020-12-31T15:13:16Z</time>
      </trkpt>
      <trkpt lat="41.6157040" lon="-0.9034600">
        <ele>260.3</ele>
        <time>2020-12-31T15:13:17Z</time>
      </trkpt>
      <trkpt lat="41.6156870" lon="-0.9034260">
        <ele>260.4</ele>
        <time>2020-12-31T15:13:18Z</time>
      </trkpt>
      <trkpt lat="41.6156720" lon="-0.9033820">
        <ele>260.4</ele>
        <time>2020-12-31T15:13:19Z</time>
      </trkpt>
      <trkpt lat="41.6156600" lon="-0.9033360">
        <ele>260.6</ele>
        <time>2020-12-31T15:13:21Z</time>
      </trkpt>
      <trkpt lat="41.6156340" lon="-0.9032870">
        <ele>260.9</ele>
        <time>2020-12-31T15:13:22Z</time>
      </trkpt>
      <trkpt lat="41.6156100" lon="-0.9032590">
        <ele>261.1</ele>
        <time>2020-12-31T15:13:23Z</time>
      </trkpt>
      <trkpt lat="41.6155850" lon="-0.9032240">
        <ele>261.4</ele>
        <time>2020-12-31T15:13:24Z</time>
      </trkpt>
      <trkpt lat="41.6155550" lon="-0.9031780">
        <ele>261.7</ele>
        <time>2020-12-31T15:13:26Z</time>
      </trkpt>
      <trkpt lat="41.6155140" lon="-0.9031160">
        <ele>262.2</ele>
        <time>2020-12-31T15:13:28Z</time>
      </trkpt>
      <trkpt lat="41.6154970" lon="-0.9030670">
        <ele>262.5</ele>
        <time>2020-12-31T15:13:29Z</time>
      </trkpt>
      <trkpt lat="41.6154710" lon="-0.9030110">
        <ele>262.9</ele>
        <time>2020-12-31T15:13:31Z</time>
      </trkpt>
      <trkpt lat="41.6154540" lon="-0.9029730">
        <ele>263.2</ele>
        <time>2020-12-31T15:13:32Z</time>
      </trkpt>
      <trkpt lat="41.6154410" lon="-0.9029340">
        <ele>263.5</ele>
        <time>2020-12-31T15:13:33Z</time>
      </trkpt>
      <trkpt lat="41.6154300" lon="-0.9028930">
        <ele>263.8</ele>
        <time>2020-12-31T15:13:34Z</time>
      </trkpt>
      <trkpt lat="41.6154250" lon="-0.9028540">
        <ele>264.1</ele>
        <time>2020-12-31T15:13:35Z</time>
      </trkpt>
      <trkpt lat="41.6154220" lon="-0.9028150">
        <ele>264.3</ele>
        <time>2020-12-31T15:13:37Z</time>
      </trkpt>
      <trkpt lat="41.6154170" lon="-0.9027790">
        <ele>264.6</ele>
        <time>2020-12-31T15:13:38Z</time>
      </trkpt>
      <trkpt lat="41.6154130" lon="-0.9027380">
        <ele>264.9</ele>
        <time>2020-12-31T15:13:39Z</time>
      </trkpt>
      <trkpt lat="41.6154120" lon="-0.9027010">
        <ele>265.1</ele>
        <time>2020-12-31T15:13:40Z</time>
      </trkpt>
      <trkpt lat="41.6154140" lon="-0.9026620">
        <ele>265.4</ele>
        <time>2020-12-31T15:13:41Z</time>
      </trkpt>
      <trkpt lat="41.6154150" lon="-0.9026260">
        <ele>265.7</ele>
        <time>2020-12-31T15:13:42Z</time>
      </trkpt>
      <trkpt lat="41.6154180" lon="-0.9025660">
        <ele>266.1</ele>
        <time>2020-12-31T15:13:44Z</time>
      </trkpt>
      <trkpt lat="41.6154220" lon="-0.9025240">
        <ele>266.5</ele>
        <time>2020-12-31T15:13:45Z</time>
      </trkpt>
      <trkpt lat="41.6154340" lon="-0.9024720">
        <ele>266.9</ele>
        <time>2020-12-31T15:13:47Z</time>
      </trkpt>
      <trkpt lat="41.6154440" lon="-0.9024280">
        <ele>267.2</ele>
        <time>2020-12-31T15:13:48Z</time>
      </trkpt>
      <trkpt lat="41.6154500" lon="-0.9023940">
        <ele>267.5</ele>
        <time>2020-12-31T15:13:49Z</time>
      </trkpt>
      <trkpt lat="41.6154610" lon="-0.9023340">
        <ele>268.0</ele>
        <time>2020-12-31T15:13:51Z</time>
      </trkpt>
      <trkpt lat="41.6154650" lon="-0.9023000">
        <ele>268.3</ele>
        <time>2020-12-31T15:13:52Z</time>
      </trkpt>
      <trkpt lat="41.6154700" lon="-0.9022540">
        <ele>268.6</ele>
        <time>2020-12-31T15:13:54Z</time>
      </trkpt>
      <trkpt lat="41.6154780" lon="-0.9022050">
        <ele>269.0</ele>
        <time>2020-12-31T15:13:55Z</time>
      </trkpt>
      <trkpt lat="41.6154810" lon="-0.9021740">
        <ele>269.2</ele>
        <time>2020-12-31T15:13:56Z</time>
      </trkpt>
      <trkpt lat="41.6154840" lon="-0.9021350">
        <ele>269.5</ele>
        <time>2020-12-31T15:13:58Z</time>
      </trkpt>
      <trkpt lat="41.6154890" lon="-0.9020980">
        <ele>269.8</ele>
        <time>2020-12-31T15:13:59Z</time>
      </trkpt>
      <trkpt lat="41.6154970" lon="-0.9020600">
        <ele>270.1</ele>
        <time>2020-12-31T15:14:00Z</time>
      </trkpt>
      <trkpt lat="41.6155080" lon="-0.9020240">
        <ele>270.4</ele>
        <time>2020-12-31T15:14:02Z</time>
      </trkpt>
      <trkpt lat="41.6155170" lon="-0.9019890">
        <ele>270.7</ele>
        <time>2020-12-31T15:14:03Z</time>
      </trkpt>
      <trkpt lat="41.6155190" lon="-0.9019460">
        <ele>271.1</ele>
        <time>2020-12-31T15:14:04Z</time>
      </trkpt>
      <trkpt lat="41.6155190" lon="-0.9019330">
        <ele>271.2</ele>
        <time>2020-12-31T15:14:05Z</time>
      </trkpt>
      <trkpt lat="41.6155240" lon="-0.9018980">
        <ele>271.5</ele>
        <time>2020-12-31T15:14:06Z</time>
      </trkpt>
      <trkpt lat="41.6155300" lon="-0.9018490">
        <ele>271.8</ele>
        <time>2020-12-31T15:14:08Z</time>
      </trkpt>
      <trkpt lat="41.6155370" lon="-0.9018150">
        <ele>272.1</ele>
        <time>2020-12-31T15:14:09Z</time>
      </trkpt>
      <trkpt lat="41.6155410" lon="-0.9018020">
        <ele>272.2</ele>
        <time>2020-12-31T15:14:10Z</time>
      </trkpt>
      <trkpt lat="41.6155540" lon="-0.9017630">
        <ele>272.5</ele>
        <time>2020-12-31T15:14:11Z</time>
      </trkpt>
      <trkpt lat="41.6155560" lon="-0.9017510">
        <ele>272.6</ele>
        <time>2020-12-31T15:14:12Z</time>
      </trkpt>
      <trkpt lat="41.6155650" lon="-0.9017110">
        <ele>272.9</ele>
        <time>2020-12-31T15:14:14Z</time>
      </trkpt>
      <trkpt lat="41.6155680" lon="-0.9016960">
        <ele>273.1</ele>
        <time>2020-12-31T15:14:15Z</time>
      </trkpt>
      <trkpt lat="41.6155780" lon="-0.9016580">
        <ele>273.4</ele>
        <time>2020-12-31T15:14:17Z</time>
      </trkpt>
      <trkpt lat="41.6155880" lon="-0.9016220">
        <ele>273.6</ele>
        <time>2020-12-31T15:14:18Z</time>
      </trkpt>
      <trkpt lat="41.6156020" lon="-0.9015860">
        <ele>273.9</ele>
        <time>2020-12-31T15:14:19Z</time>
      </trkpt>
      <trkpt lat="41.6156060" lon="-0.9015760">
        <ele>274.0</ele>
        <time>2020-12-31T15:14:20Z</time>
      </trkpt>
      <trkpt lat="41.6156210" lon="-0.9015430">
        <ele>274.3</ele>
        <time>2020-12-31T15:14:22Z</time>
      </trkpt>
      <trkpt lat="41.6156380" lon="-0.9015130">
        <ele>274.5</ele>
        <time>2020-12-31T15:14:23Z</time>
      </trkpt>
      <trkpt lat="41.6156460" lon="-0.9014680">
        <ele>274.8</ele>
        <time>2020-12-31T15:14:25Z</time>
      </trkpt>
      <trkpt lat="41.6156480" lon="-0.9014480">
        <ele>275.0</ele>
        <time>2020-12-31T15:14:26Z</time>
      </trkpt>
      <trkpt lat="41.6156620" lon="-0.9014030">
        <ele>275.3</ele>
        <time>2020-12-31T15:14:28Z</time>
      </trkpt>
      <trkpt lat="41.6156810" lon="-0.9013670">
        <ele>275.6</ele>
        <time>2020-12-31T15:14:30Z</time>
      </trkpt>
      <trkpt lat="41.6156880" lon="-0.9013370">
        <ele>275.8</ele>
        <time>2020-12-31T15:14:31Z</time>
      </trkpt>
      <trkpt lat="41.6156900" lon="-0.9012980">
        <ele>276.1</ele>
        <time>2020-12-31T15:14:33Z</time>
      </trkpt>
      <trkpt lat="41.6156890" lon="-0.9012540">
        <ele>276.4</ele>
        <time>2020-12-31T15:14:34Z</time>
      </trkpt>
      <trkpt lat="41.6156890" lon="-0.9012380">
        <ele>276.5</ele>
        <time>2020-12-31T15:14:35Z</time>
      </trkpt>
      <trkpt lat="41.6156930" lon="-0.9011950">
        <ele>276.8</ele>
        <time>2020-12-31T15:14:36Z</time>
      </trkpt>
      <trkpt lat="41.6156930" lon="-0.9011810">
        <ele>276.9</ele>
        <time>2020-12-31T15:14:37Z</time>
      </trkpt>
      <trkpt lat="41.6157030" lon="-0.9011370">
        <ele>277.2</ele>
        <time>2020-12-31T15:14:39Z</time>
      </trkpt>
      <trkpt lat="41.6157050" lon="-0.9011260">
        <ele>277.3</ele>
        <time>2020-12-31T15:14:40Z</time>
      </trkpt>
      <trkpt lat="41.6157150" lon="-0.9011010">
        <ele>277.5</ele>
        <time>2020-12-31T15:14:42Z</time>
      </trkpt>
      <trkpt lat="41.6157220" lon="-0.9010690">
        <ele>277.7</ele>
        <time>2020-12-31T15:14:44Z</time>
      </trkpt>
      <trkpt lat="41.6157280" lon="-0.9010320">
        <ele>278.0</ele>
        <time>2020-12-31T15:14:45Z</time>
      </trkpt>
      <trkpt lat="41.6157350" lon="-0.9009770">
        <ele>278.4</ele>
        <time>2020-12-31T15:14:47Z</time>
      </trkpt>
      <trkpt lat="41.6157370" lon="-0.9009600">
        <ele>278.5</ele>
        <time>2020-12-31T15:14:48Z</time>
      </trkpt>
      <trkpt lat="41.6157400" lon="-0.9009420">
        <ele>278.6</ele>
        <time>2020-12-31T15:14:49Z</time>
      </trkpt>
      <trkpt lat="41.6157420" lon="-0.9009040">
        <ele>278.9</ele>
        <time>2020-12-31T15:14:50Z</time>
      </trkpt>
      <trkpt lat="41.6157450" lon="-0.9008710">
        <ele>279.1</ele>
        <time>2020-12-31T15:14:52Z</time>
      </trkpt>
      <trkpt lat="41.6157550" lon="-0.9008210">
        <ele>279.5</ele>
        <time>2020-12-31T15:14:54Z</time>
      </trkpt>
      <trkpt lat="41.6157580" lon="-0.9007750">
        <ele>279.9</ele>
        <time>2020-12-31T15:14:55Z</time>
      </trkpt>
      <trkpt lat="41.6157580" lon="-0.9007620">
        <ele>280.0</ele>
        <time>2020-12-31T15:14:56Z</time>
      </trkpt>
      <trkpt lat="41.6157630" lon="-0.9007290">
        <ele>280.2</ele>
        <time>2020-12-31T15:14:57Z</time>
      </trkpt>
      <trkpt lat="41.6157730" lon="-0.9006920">
        <ele>280.5</ele>
        <time>2020-12-31T15:14:59Z</time>
      </trkpt>
      <trkpt lat="41.6157780" lon="-0.9006690">
        <ele>280.7</ele>
        <time>2020-12-31T15:15:00Z</time>
      </trkpt>
      <trkpt lat="41.6157820" lon="-0.9006460">
        <ele>280.9</ele>
        <time>2020-12-31T15:15:01Z</time>
      </trkpt>
      <trkpt lat="41.6157920" lon="-0.9006020">
        <ele>281.2</ele>
        <time>2020-12-31T15:15:03Z</time>
      </trkpt>
      <trkpt lat="41.6157960" lon="-0.9005860">
        <ele>281.4</ele>
        <time>2020-12-31T15:15:04Z</time>
      </trkpt>
      <trkpt lat="41.6158020" lon="-0.9005500">
        <ele>281.7</ele>
        <time>2020-12-31T15:15:06Z</time>
      </trkpt>
      <trkpt lat="41.6158070" lon="-0.9005270">
        <ele>281.9</ele>
        <time>2020-12-31T15:15:07Z</time>
      </trkpt>
      <trkpt lat="41.6158190" lon="-0.9004980">
        <ele>282.1</ele>
        <time>2020-12-31T15:15:09Z</time>
      </trkpt>
      <trkpt lat="41.6158270" lon="-0.9004580">
        <ele>282.4</ele>
        <time>2020-12-31T15:15:10Z</time>
      </trkpt>
      <trkpt lat="41.6158280" lon="-0.9004450">
        <ele>282.6</ele>
        <time>2020-12-31T15:15:11Z</time>
      </trkpt>
      <trkpt lat="41.6158400" lon="-0.9004080">
        <ele>282.9</ele>
        <time>2020-12-31T15:15:13Z</time>
      </trkpt>
      <trkpt lat="41.6158420" lon="-0.9003930">
        <ele>283.0</ele>
        <time>2020-12-31T15:15:14Z</time>
      </trkpt>
      <trkpt lat="41.6158410" lon="-0.9003750">
        <ele>283.1</ele>
        <time>2020-12-31T15:15:15Z</time>
      </trkpt>
      <trkpt lat="41.6158480" lon="-0.9003460">
        <ele>283.4</ele>
        <time>2020-12-31T15:15:17Z</time>
      </trkpt>
      <trkpt lat="41.6158520" lon="-0.9003240">
        <ele>283.5</ele>
        <time>2020-12-31T15:15:18Z</time>
      </trkpt>
      <trkpt lat="41.6158520" lon="-0.9003060">
        <ele>283.7</ele>
        <time>2020-12-31T15:15:19Z</time>
      </trkpt>
      <trkpt lat="41.6158590" lon="-0.9002670">
        <ele>284.0</ele>
        <time>2020-12-31T15:15:20Z</time>
      </trkpt>
      <trkpt lat="41.6158620" lon="-0.9002510">
        <ele>284.1</ele>
        <time>2020-12-31T15:15:21Z</time>
      </trkpt>
      <trkpt lat="41.6158720" lon="-0.9002090">
        <ele>284.5</ele>
        <time>2020-12-31T15:15:23Z</time>
      </trkpt>
      <trkpt lat="41.6158740" lon="-0.9001960">
        <ele>284.6</ele>
        <time>2020-12-31T15:15:24Z</time>
      </trkpt>
      <trkpt lat="41.6158760" lon="-0.9001770">
        <ele>284.7</ele>
        <time>2020-12-31T15:15:25Z</time>
      </trkpt>
      <trkpt lat="41.6158800" lon="-0.9001480">
        <ele>284.9</ele>
        <time>2020-12-31T15:15:27Z</time>
      </trkpt>
      <trkpt lat="41.6158830" lon="-0.9001080">
        <ele>285.2</ele>
        <time>2020-12-31T15:15:28Z</time>
      </trkpt>
      <trkpt lat="41.6158830" lon="-0.9000950">
        <ele>285.3</ele>
        <time>2020-12-31T15:15:29Z</time>
      </trkpt>
      <trkpt lat="41.6158860" lon="-0.9000560">
        <ele>285.5</ele>
        <time>2020-12-31T15:15:31Z</time>
      </trkpt>
      <trkpt lat="41.6158870" lon="-0.9000300">
        <ele>285.7</ele>
        <time>2020-12-31T15:15:32Z</time>
      </trkpt>
      <trkpt lat="41.6158940" lon="-0.8999940">
        <ele>285.9</ele>
        <time>2020-12-31T15:15:34Z</time>
      </trkpt>
      <trkpt lat="41.6159020" lon="-0.8999580">
        <ele>286.1</ele>
        <time>2020-12-31T15:15:35Z</time>
      </trkpt>
      <trkpt lat="41.6159070" lon="-0.8999240">
        <ele>286.1</ele>
        <time>2020-12-31T15:15:36Z</time>
      </trkpt>
      <trkpt lat="41.6159130" lon="-0.8998800">
        <ele>286.2</ele>
        <time>2020-12-31T15:15:38Z</time>
      </trkpt>
      <trkpt lat="41.6159190" lon="-0.8998240">
        <ele>286.2</ele>
        <time>2020-12-31T15:15:40Z</time>
      </trkpt>
      <trkpt lat="41.6159220" lon="-0.8997840">
        <ele>286.2</ele>
        <time>2020-12-31T15:15:41Z</time>
      </trkpt>
      <trkpt lat="41.6159230" lon="-0.8997690">
        <ele>286.2</ele>
        <time>2020-12-31T15:15:42Z</time>
      </trkpt>
      <trkpt lat="41.6159260" lon="-0.8997260">
        <ele>286.2</ele>
        <time>2020-12-31T15:15:44Z</time>
      </trkpt>
      <trkpt lat="41.6159300" lon="-0.8996860">
        <ele>286.2</ele>
        <time>2020-12-31T15:15:45Z</time>
      </trkpt>
      <trkpt lat="41.6159350" lon="-0.8996560">
        <ele>286.2</ele>
        <time>2020-12-31T15:15:46Z</time>
      </trkpt>
      <trkpt lat="41.6159440" lon="-0.8996090">
        <ele>286.1</ele>
        <time>2020-12-31T15:15:48Z</time>
      </trkpt>
      <trkpt lat="41.6159530" lon="-0.8995720">
        <ele>286.1</ele>
        <time>2020-12-31T15:15:49Z</time>
      </trkpt>
      <trkpt lat="41.6159630" lon="-0.8995280">
        <ele>286.0</ele>
        <time>2020-12-31T15:15:50Z</time>
      </trkpt>
      <trkpt lat="41.6159660" lon="-0.8995130">
        <ele>286.0</ele>
        <time>2020-12-31T15:15:51Z</time>
      </trkpt>
      <trkpt lat="41.6159770" lon="-0.8994730">
        <ele>286.0</ele>
        <time>2020-12-31T15:15:53Z</time>
      </trkpt>
      <trkpt lat="41.6159800" lon="-0.8994380">
        <ele>285.9</ele>
        <time>2020-12-31T15:15:54Z</time>
      </trkpt>
      <trkpt lat="41.6160020" lon="-0.8993480">
        <ele>285.7</ele>
        <time>2020-12-31T15:15:56Z</time>
      </trkpt>
      <trkpt lat="41.6160380" lon="-0.8992430">
        <ele>285.5</ele>
        <time>2020-12-31T15:15:58Z</time>
      </trkpt>
      <trkpt lat="41.6160600" lon="-0.8991820">
        <ele>285.4</ele>
        <time>2020-12-31T15:16:00Z</time>
      </trkpt>
      <trkpt lat="41.6160890" lon="-0.8990730">
        <ele>285.2</ele>
        <time>2020-12-31T15:16:02Z</time>
      </trkpt>
      <trkpt lat="41.6160990" lon="-0.8990100">
        <ele>285.0</ele>
        <time>2020-12-31T15:16:03Z</time>
      </trkpt>
      <trkpt lat="41.6161300" lon="-0.8988830">
        <ele>284.6</ele>
        <time>2020-12-31T15:16:05Z</time>
      </trkpt>
      <trkpt lat="41.6161480" lon="-0.8988140">
        <ele>284.4</ele>
        <time>2020-12-31T15:16:06Z</time>
      </trkpt>
      <trkpt lat="41.6161870" lon="-0.8986720">
        <ele>283.9</ele>
        <time>2020-12-31T15:16:08Z</time>
      </trkpt>
      <trkpt lat="41.6162070" lon="-0.8985990">
        <ele>283.6</ele>
        <time>2020-12-31T15:16:09Z</time>
      </trkpt>
      <trkpt lat="41.6162470" lon="-0.8984460">
        <ele>283.1</ele>
        <time>2020-12-31T15:16:11Z</time>
      </trkpt>
      <trkpt lat="41.6162860" lon="-0.8982750">
        <ele>282.6</ele>
        <time>2020-12-31T15:16:13Z</time>
      </trkpt>
      <trkpt lat="41.6163050" lon="-0.8981870">
        <ele>282.4</ele>
        <time>2020-12-31T15:16:14Z</time>
      </trkpt>
      <trkpt lat="41.6163230" lon="-0.8980970">
        <ele>282.2</ele>
        <time>2020-12-31T15:16:15Z</time>
      </trkpt>
      <trkpt lat="41.6163480" lon="-0.8979120">
        <ele>281.9</ele>
        <time>2020-12-31T15:16:17Z</time>
      </trkpt>
      <trkpt lat="41.6163610" lon="-0.8978230">
        <ele>281.8</ele>
        <time>2020-12-31T15:16:18Z</time>
      </trkpt>
      <trkpt lat="41.6163810" lon="-0.8976470">
        <ele>281.7</ele>
        <time>2020-12-31T15:16:20Z</time>
      </trkpt>
      <trkpt lat="41.6163940" lon="-0.8975590">
        <ele>281.6</ele>
        <time>2020-12-31T15:16:21Z</time>
      </trkpt>
      <trkpt lat="41.6164180" lon="-0.8973820">
        <ele>281.6</ele>
        <time>2020-12-31T15:16:23Z</time>
      </trkpt>
      <trkpt lat="41.6164200" lon="-0.8972980">
        <ele>281.7</ele>
        <time>2020-12-31T15:16:24Z</time>
      </trkpt>
      <trkpt lat="41.6163750" lon="-0.8971620">
        <ele>281.8</ele>
        <time>2020-12-31T15:16:26Z</time>
      </trkpt>
      <trkpt lat="41.6163580" lon="-0.8971020">
        <ele>281.8</ele>
        <time>2020-12-31T15:16:27Z</time>
      </trkpt>
      <trkpt lat="41.6163380" lon="-0.8970460">
        <ele>281.9</ele>
        <time>2020-12-31T15:16:28Z</time>
      </trkpt>
      <trkpt lat="41.6163430" lon="-0.8969530">
        <ele>282.1</ele>
        <time>2020-12-31T15:16:30Z</time>
      </trkpt>
      <trkpt lat="41.6163800" lon="-0.8968590">
        <ele>282.0</ele>
        <time>2020-12-31T15:16:32Z</time>
      </trkpt>
      <trkpt lat="41.6164090" lon="-0.8968040">
        <ele>282.0</ele>
        <time>2020-12-31T15:16:33Z</time>
      </trkpt>
      <trkpt lat="41.6164660" lon="-0.8966980">
        <ele>281.9</ele>
        <time>2020-12-31T15:16:35Z</time>
      </trkpt>
      <trkpt lat="41.6164700" lon="-0.8966610">
        <ele>281.9</ele>
        <time>2020-12-31T15:16:37Z</time>
      </trkpt>
      <trkpt lat="41.6164790" lon="-0.8965840">
        <ele>281.9</ele>
        <time>2020-12-31T15:16:39Z</time>
      </trkpt>
      <trkpt lat="41.6164580" lon="-0.8965450">
        <ele>281.9</ele>
        <time>2020-12-31T15:16:40Z</time>
      </trkpt>
      <trkpt lat="41.6164210" lon="-0.8965120">
        <ele>281.9</ele>
        <time>2020-12-31T15:16:41Z</time>
      </trkpt>
      <trkpt lat="41.6163750" lon="-0.8964280">
        <ele>281.8</ele>
        <time>2020-12-31T15:16:43Z</time>
      </trkpt>
      <trkpt lat="41.6163390" lon="-0.8963620">
        <ele>281.8</ele>
        <time>2020-12-31T15:16:44Z</time>
      </trkpt>
      <trkpt lat="41.6163040" lon="-0.8962810">
        <ele>281.8</ele>
        <time>2020-12-31T15:16:46Z</time>
      </trkpt>
      <trkpt lat="41.6162380" lon="-0.8961740">
        <ele>281.7</ele>
        <time>2020-12-31T15:16:48Z</time>
      </trkpt>
      <trkpt lat="41.6162200" lon="-0.8961110">
        <ele>281.7</ele>
        <time>2020-12-31T15:16:49Z</time>
      </trkpt>
      <trkpt lat="41.6162090" lon="-0.8960430">
        <ele>281.6</ele>
        <time>2020-12-31T15:16:50Z</time>
      </trkpt>
      <trkpt lat="41.6162080" lon="-0.8959070">
        <ele>281.5</ele>
        <time>2020-12-31T15:16:52Z</time>
      </trkpt>
      <trkpt lat="41.6162110" lon="-0.8958360">
        <ele>281.4</ele>
        <time>2020-12-31T15:16:53Z</time>
      </trkpt>
      <trkpt lat="41.6162190" lon="-0.8956900">
        <ele>281.2</ele>
        <time>2020-12-31T15:16:55Z</time>
      </trkpt>
      <trkpt lat="41.6162230" lon="-0.8956140">
        <ele>281.0</ele>
        <time>2020-12-31T15:16:56Z</time>
      </trkpt>
      <trkpt lat="41.6162320" lon="-0.8954630">
        <ele>280.7</ele>
        <time>2020-12-31T15:16:58Z</time>
      </trkpt>
      <trkpt lat="41.6162400" lon="-0.8953860">
        <ele>280.5</ele>
        <time>2020-12-31T15:16:59Z</time>
      </trkpt>
      <trkpt lat="41.6162540" lon="-0.8952530">
        <ele>280.1</ele>
        <time>2020-12-31T15:17:01Z</time>
      </trkpt>
      <trkpt lat="41.6162620" lon="-0.8951840">
        <ele>279.9</ele>
        <time>2020-12-31T15:17:02Z</time>
      </trkpt>
      <trkpt lat="41.6162720" lon="-0.8951020">
        <ele>279.6</ele>
        <time>2020-12-31T15:17:03Z</time>
      </trkpt>
      <trkpt lat="41.6162910" lon="-0.8949180">
        <ele>279.1</ele>
        <time>2020-12-31T15:17:05Z</time>
      </trkpt>
      <trkpt lat="41.6163020" lon="-0.8948180">
        <ele>278.8</ele>
        <time>2020-12-31T15:17:06Z</time>
      </trkpt>
      <trkpt lat="41.6163080" lon="-0.8947170">
        <ele>278.6</ele>
        <time>2020-12-31T15:17:07Z</time>
      </trkpt>
      <trkpt lat="41.6163030" lon="-0.8945220">
        <ele>278.1</ele>
        <time>2020-12-31T15:17:09Z</time>
      </trkpt>
      <trkpt lat="41.6162800" lon="-0.8943350">
        <ele>277.4</ele>
        <time>2020-12-31T15:17:11Z</time>
      </trkpt>
      <trkpt lat="41.6162620" lon="-0.8942400">
        <ele>276.8</ele>
        <time>2020-12-31T15:17:12Z</time>
      </trkpt>
      <trkpt lat="41.6162380" lon="-0.8941460">
        <ele>276.3</ele>
        <time>2020-12-31T15:17:13Z</time>
      </trkpt>
      <trkpt lat="41.6161640" lon="-0.8939790">
        <ele>275.1</ele>
        <time>2020-12-31T15:17:15Z</time>
      </trkpt>
      <trkpt lat="41.6160960" lon="-0.8937880">
        <ele>274.0</ele>
        <time>2020-12-31T15:17:17Z</time>
      </trkpt>
      <trkpt lat="41.6160260" lon="-0.8936020">
        <ele>272.9</ele>
        <time>2020-12-31T15:17:19Z</time>
      </trkpt>
      <trkpt lat="41.6159890" lon="-0.8935060">
        <ele>272.3</ele>
        <time>2020-12-31T15:17:20Z</time>
      </trkpt>
      <trkpt lat="41.6159510" lon="-0.8934090">
        <ele>271.5</ele>
        <time>2020-12-31T15:17:21Z</time>
      </trkpt>
      <trkpt lat="41.6158620" lon="-0.8932010">
        <ele>269.8</ele>
        <time>2020-12-31T15:17:23Z</time>
      </trkpt>
      <trkpt lat="41.6157550" lon="-0.8929700">
        <ele>267.9</ele>
        <time>2020-12-31T15:17:25Z</time>
      </trkpt>
      <trkpt lat="41.6156470" lon="-0.8927340">
        <ele>266.4</ele>
        <time>2020-12-31T15:17:27Z</time>
      </trkpt>
      <trkpt lat="41.6155310" lon="-0.8925040">
        <ele>265.5</ele>
        <time>2020-12-31T15:17:29Z</time>
      </trkpt>
      <trkpt lat="41.6154270" lon="-0.8922820">
        <ele>265.1</ele>
        <time>2020-12-31T15:17:31Z</time>
      </trkpt>
      <trkpt lat="41.6153820" lon="-0.8921740">
        <ele>264.9</ele>
        <time>2020-12-31T15:17:32Z</time>
      </trkpt>
      <trkpt lat="41.6153440" lon="-0.8920660">
        <ele>264.8</ele>
        <time>2020-12-31T15:17:33Z</time>
      </trkpt>
      <trkpt lat="41.6152870" lon="-0.8918540">
        <ele>264.6</ele>
        <time>2020-12-31T15:17:35Z</time>
      </trkpt>
      <trkpt lat="41.6152660" lon="-0.8917500">
        <ele>264.5</ele>
        <time>2020-12-31T15:17:36Z</time>
      </trkpt>
      <trkpt lat="41.6152280" lon="-0.8915440">
        <ele>264.4</ele>
        <time>2020-12-31T15:17:38Z</time>
      </trkpt>
      <trkpt lat="41.6151720" lon="-0.8913730">
        <ele>264.3</ele>
        <time>2020-12-31T15:17:40Z</time>
      </trkpt>
      <trkpt lat="41.6151530" lon="-0.8913050">
        <ele>264.3</ele>
        <time>2020-12-31T15:17:41Z</time>
      </trkpt>
      <trkpt lat="41.6151360" lon="-0.8911880">
        <ele>263.9</ele>
        <time>2020-12-31T15:17:43Z</time>
      </trkpt>
      <trkpt lat="41.6151380" lon="-0.8911430">
        <ele>263.8</ele>
        <time>2020-12-31T15:17:44Z</time>
      </trkpt>
      <trkpt lat="41.6151490" lon="-0.8910470">
        <ele>263.5</ele>
        <time>2020-12-31T15:17:46Z</time>
      </trkpt>
      <trkpt lat="41.6151400" lon="-0.8909590">
        <ele>263.2</ele>
        <time>2020-12-31T15:17:47Z</time>
      </trkpt>
      <trkpt lat="41.6150750" lon="-0.8908290">
        <ele>262.9</ele>
        <time>2020-12-31T15:17:49Z</time>
      </trkpt>
      <trkpt lat="41.6150200" lon="-0.8907510">
        <ele>262.7</ele>
        <time>2020-12-31T15:17:50Z</time>
      </trkpt>
      <trkpt lat="41.6149520" lon="-0.8906310">
        <ele>262.3</ele>
        <time>2020-12-31T15:17:52Z</time>
      </trkpt>
      <trkpt lat="41.6149370" lon="-0.8905390">
        <ele>262.0</ele>
        <time>2020-12-31T15:17:53Z</time>
      </trkpt>
      <trkpt lat="41.6149330" lon="-0.8903490">
        <ele>261.5</ele>
        <time>2020-12-31T15:17:55Z</time>
      </trkpt>
      <trkpt lat="41.6149400" lon="-0.8902550">
        <ele>261.3</ele>
        <time>2020-12-31T15:17:56Z</time>
      </trkpt>
      <trkpt lat="41.6149790" lon="-0.8900640">
        <ele>260.9</ele>
        <time>2020-12-31T15:17:58Z</time>
      </trkpt>
      <trkpt lat="41.6150090" lon="-0.8899880">
        <ele>260.8</ele>
        <time>2020-12-31T15:17:59Z</time>
      </trkpt>
      <trkpt lat="41.6151130" lon="-0.8898600">
        <ele>260.7</ele>
        <time>2020-12-31T15:18:01Z</time>
      </trkpt>
      <trkpt lat="41.6151650" lon="-0.8897950">
        <ele>260.6</ele>
        <time>2020-12-31T15:18:02Z</time>
      </trkpt>
      <trkpt lat="41.6152120" lon="-0.8897170">
        <ele>260.5</ele>
        <time>2020-12-31T15:18:04Z</time>
      </trkpt>
      <trkpt lat="41.6152320" lon="-0.8896920">
        <ele>260.5</ele>
        <time>2020-12-31T15:18:05Z</time>
      </trkpt>
      <trkpt lat="41.6152740" lon="-0.8896440">
        <ele>260.5</ele>
        <time>2020-12-31T15:18:06Z</time>
      </trkpt>
      <trkpt lat="41.6153540" lon="-0.8895060">
        <ele>260.4</ele>
        <time>2020-12-31T15:18:08Z</time>
      </trkpt>
      <trkpt lat="41.6153750" lon="-0.8893240">
        <ele>260.3</ele>
        <time>2020-12-31T15:18:10Z</time>
      </trkpt>
      <trkpt lat="41.6153930" lon="-0.8892390">
        <ele>260.3</ele>
        <time>2020-12-31T15:18:11Z</time>
      </trkpt>
      <trkpt lat="41.6154520" lon="-0.8890770">
        <ele>260.2</ele>
        <time>2020-12-31T15:18:13Z</time>
      </trkpt>
      <trkpt lat="41.6155130" lon="-0.8889180">
        <ele>260.1</ele>
        <time>2020-12-31T15:18:15Z</time>
      </trkpt>
      <trkpt lat="41.6155790" lon="-0.8887720">
        <ele>260.1</ele>
        <time>2020-12-31T15:18:17Z</time>
      </trkpt>
      <trkpt lat="41.6156020" lon="-0.8886950">
        <ele>260.1</ele>
        <time>2020-12-31T15:18:18Z</time>
      </trkpt>
      <trkpt lat="41.6156400" lon="-0.8885550">
        <ele>260.0</ele>
        <time>2020-12-31T15:18:20Z</time>
      </trkpt>
      <trkpt lat="41.6156520" lon="-0.8884860">
        <ele>260.0</ele>
        <time>2020-12-31T15:18:21Z</time>
      </trkpt>
      <trkpt lat="41.6156570" lon="-0.8884090">
        <ele>259.9</ele>
        <time>2020-12-31T15:18:22Z</time>
      </trkpt>
      <trkpt lat="41.6156920" lon="-0.8882400">
        <ele>259.8</ele>
        <time>2020-12-31T15:18:24Z</time>
      </trkpt>
      <trkpt lat="41.6157160" lon="-0.8881550">
        <ele>259.7</ele>
        <time>2020-12-31T15:18:25Z</time>
      </trkpt>
      <trkpt lat="41.6157620" lon="-0.8879840">
        <ele>259.7</ele>
        <time>2020-12-31T15:18:27Z</time>
      </trkpt>
      <trkpt lat="41.6157990" lon="-0.8879040">
        <ele>259.6</ele>
        <time>2020-12-31T15:18:28Z</time>
      </trkpt>
      <trkpt lat="41.6158180" lon="-0.8878140">
        <ele>259.6</ele>
        <time>2020-12-31T15:18:29Z</time>
      </trkpt>
      <trkpt lat="41.6158590" lon="-0.8876390">
        <ele>259.6</ele>
        <time>2020-12-31T15:18:31Z</time>
      </trkpt>
      <trkpt lat="41.6159180" lon="-0.8874750">
        <ele>259.5</ele>
        <time>2020-12-31T15:18:33Z</time>
      </trkpt>
      <trkpt lat="41.6159820" lon="-0.8873200">
        <ele>259.5</ele>
        <time>2020-12-31T15:18:35Z</time>
      </trkpt>
      <trkpt lat="41.6160230" lon="-0.8871810">
        <ele>259.5</ele>
        <time>2020-12-31T15:18:37Z</time>
      </trkpt>
      <trkpt lat="41.6160420" lon="-0.8871250">
        <ele>259.5</ele>
        <time>2020-12-31T15:18:38Z</time>
      </trkpt>
      <trkpt lat="41.6160730" lon="-0.8870180">
        <ele>259.5</ele>
        <time>2020-12-31T15:18:40Z</time>
      </trkpt>
      <trkpt lat="41.6160820" lon="-0.8869080">
        <ele>259.5</ele>
        <time>2020-12-31T15:18:42Z</time>
      </trkpt>
      <trkpt lat="41.6161090" lon="-0.8867970">
        <ele>259.5</ele>
        <time>2020-12-31T15:18:44Z</time>
      </trkpt>
      <trkpt lat="41.6161240" lon="-0.8867170">
        <ele>259.4</ele>
        <time>2020-12-31T15:18:45Z</time>
      </trkpt>
      <trkpt lat="41.6161400" lon="-0.8866390">
        <ele>259.4</ele>
        <time>2020-12-31T15:18:46Z</time>
      </trkpt>
      <trkpt lat="41.6161710" lon="-0.8864870">
        <ele>259.2</ele>
        <time>2020-12-31T15:18:48Z</time>
      </trkpt>
      <trkpt lat="41.6161950" lon="-0.8864050">
        <ele>259.1</ele>
        <time>2020-12-31T15:18:49Z</time>
      </trkpt>
      <trkpt lat="41.6162240" lon="-0.8862990">
        <ele>259.0</ele>
        <time>2020-12-31T15:18:50Z</time>
      </trkpt>
      <trkpt lat="41.6162720" lon="-0.8861030">
        <ele>258.8</ele>
        <time>2020-12-31T15:18:52Z</time>
      </trkpt>
      <trkpt lat="41.6163310" lon="-0.8859220">
        <ele>258.6</ele>
        <time>2020-12-31T15:18:54Z</time>
      </trkpt>
      <trkpt lat="41.6163810" lon="-0.8857350">
        <ele>258.4</ele>
        <time>2020-12-31T15:18:56Z</time>
      </trkpt>
      <trkpt lat="41.6164310" lon="-0.8855650">
        <ele>257.9</ele>
        <time>2020-12-31T15:18:58Z</time>
      </trkpt>
      <trkpt lat="41.6164650" lon="-0.8854780">
        <ele>257.7</ele>
        <time>2020-12-31T15:18:59Z</time>
      </trkpt>
      <trkpt lat="41.6165070" lon="-0.8852740">
        <ele>257.0</ele>
        <time>2020-12-31T15:19:01Z</time>
      </trkpt>
      <trkpt lat="41.6165400" lon="-0.8850690">
        <ele>256.2</ele>
        <time>2020-12-31T15:19:03Z</time>
      </trkpt>
      <trkpt lat="41.6165670" lon="-0.8849750">
        <ele>255.9</ele>
        <time>2020-12-31T15:19:04Z</time>
      </trkpt>
      <trkpt lat="41.6166460" lon="-0.8847910">
        <ele>255.2</ele>
        <time>2020-12-31T15:19:06Z</time>
      </trkpt>
      <trkpt lat="41.6166770" lon="-0.8846940">
        <ele>254.8</ele>
        <time>2020-12-31T15:19:07Z</time>
      </trkpt>
      <trkpt lat="41.6167440" lon="-0.8844920">
        <ele>253.9</ele>
        <time>2020-12-31T15:19:09Z</time>
      </trkpt>
      <trkpt lat="41.6167790" lon="-0.8842670">
        <ele>253.1</ele>
        <time>2020-12-31T15:19:11Z</time>
      </trkpt>
      <trkpt lat="41.6168410" lon="-0.8840550">
        <ele>252.4</ele>
        <time>2020-12-31T15:19:13Z</time>
      </trkpt>
      <trkpt lat="41.6168630" lon="-0.8839440">
        <ele>252.0</ele>
        <time>2020-12-31T15:19:14Z</time>
      </trkpt>
      <trkpt lat="41.6169070" lon="-0.8837340">
        <ele>251.4</ele>
        <time>2020-12-31T15:19:16Z</time>
      </trkpt>
      <trkpt lat="41.6169380" lon="-0.8836530">
        <ele>251.3</ele>
        <time>2020-12-31T15:19:17Z</time>
      </trkpt>
      <trkpt lat="41.6169720" lon="-0.8834590">
        <ele>250.8</ele>
        <time>2020-12-31T15:19:19Z</time>
      </trkpt>
      <trkpt lat="41.6169390" lon="-0.8832330">
        <ele>250.5</ele>
        <time>2020-12-31T15:19:21Z</time>
      </trkpt>
      <trkpt lat="41.6169120" lon="-0.8830140">
        <ele>250.5</ele>
        <time>2020-12-31T15:19:23Z</time>
      </trkpt>
      <trkpt lat="41.6168660" lon="-0.8828020">
        <ele>250.6</ele>
        <time>2020-12-31T15:19:25Z</time>
      </trkpt>
      <trkpt lat="41.6168370" lon="-0.8827020">
        <ele>250.7</ele>
        <time>2020-12-31T15:19:26Z</time>
      </trkpt>
      <trkpt lat="41.6167600" lon="-0.8825340">
        <ele>250.9</ele>
        <time>2020-12-31T15:19:28Z</time>
      </trkpt>
      <trkpt lat="41.6167240" lon="-0.8824580">
        <ele>251.1</ele>
        <time>2020-12-31T15:19:29Z</time>
      </trkpt>
      <trkpt lat="41.6166370" lon="-0.8823560">
        <ele>251.3</ele>
        <time>2020-12-31T15:19:31Z</time>
      </trkpt>
      <trkpt lat="41.6165640" lon="-0.8822790">
        <ele>251.4</ele>
        <time>2020-12-31T15:19:33Z</time>
      </trkpt>
      <trkpt lat="41.6165380" lon="-0.8822360">
        <ele>251.5</ele>
        <time>2020-12-31T15:19:34Z</time>
      </trkpt>
      <trkpt lat="41.6165160" lon="-0.8821810">
        <ele>251.5</ele>
        <time>2020-12-31T15:19:35Z</time>
      </trkpt>
      <trkpt lat="41.6164860" lon="-0.8820540">
        <ele>251.5</ele>
        <time>2020-12-31T15:19:37Z</time>
      </trkpt>
      <trkpt lat="41.6164600" lon="-0.8819210">
        <ele>251.6</ele>
        <time>2020-12-31T15:19:39Z</time>
      </trkpt>
      <trkpt lat="41.6164440" lon="-0.8818540">
        <ele>251.6</ele>
        <time>2020-12-31T15:19:40Z</time>
      </trkpt>
      <trkpt lat="41.6164110" lon="-0.8817240">
        <ele>251.5</ele>
        <time>2020-12-31T15:19:42Z</time>
      </trkpt>
      <trkpt lat="41.6163900" lon="-0.8816600">
        <ele>251.4</ele>
        <time>2020-12-31T15:19:43Z</time>
      </trkpt>
      <trkpt lat="41.6163450" lon="-0.8815400">
        <ele>251.3</ele>
        <time>2020-12-31T15:19:45Z</time>
      </trkpt>
      <trkpt lat="41.6162840" lon="-0.8814260">
        <ele>251.1</ele>
        <time>2020-12-31T15:19:47Z</time>
      </trkpt>
      <trkpt lat="41.6162250" lon="-0.8813140">
        <ele>250.8</ele>
        <time>2020-12-31T15:19:49Z</time>
      </trkpt>
      <trkpt lat="41.6161970" lon="-0.8812600">
        <ele>250.7</ele>
        <time>2020-12-31T15:19:50Z</time>
      </trkpt>
      <trkpt lat="41.6161710" lon="-0.8812040">
        <ele>250.6</ele>
        <time>2020-12-31T15:19:51Z</time>
      </trkpt>
      <trkpt lat="41.6161190" lon="-0.8810770">
        <ele>250.3</ele>
        <time>2020-12-31T15:19:53Z</time>
      </trkpt>
      <trkpt lat="41.6160860" lon="-0.8810070">
        <ele>250.1</ele>
        <time>2020-12-31T15:19:54Z</time>
      </trkpt>
      <trkpt lat="41.6160590" lon="-0.8808530">
        <ele>249.8</ele>
        <time>2020-12-31T15:19:56Z</time>
      </trkpt>
      <trkpt lat="41.6161070" lon="-0.8807060">
        <ele>249.5</ele>
        <time>2020-12-31T15:19:58Z</time>
      </trkpt>
      <trkpt lat="41.6161470" lon="-0.8806410">
        <ele>249.3</ele>
        <time>2020-12-31T15:19:59Z</time>
      </trkpt>
      <trkpt lat="41.6161860" lon="-0.8805710">
        <ele>249.1</ele>
        <time>2020-12-31T15:20:00Z</time>
      </trkpt>
      <trkpt lat="41.6162500" lon="-0.8804200">
        <ele>248.7</ele>
        <time>2020-12-31T15:20:02Z</time>
      </trkpt>
      <trkpt lat="41.6162800" lon="-0.8803410">
        <ele>248.5</ele>
        <time>2020-12-31T15:20:03Z</time>
      </trkpt>
      <trkpt lat="41.6163350" lon="-0.8801770">
        <ele>248.2</ele>
        <time>2020-12-31T15:20:05Z</time>
      </trkpt>
      <trkpt lat="41.6163920" lon="-0.8800220">
        <ele>247.9</ele>
        <time>2020-12-31T15:20:07Z</time>
      </trkpt>
      <trkpt lat="41.6164210" lon="-0.8799440">
        <ele>247.8</ele>
        <time>2020-12-31T15:20:08Z</time>
      </trkpt>
      <trkpt lat="41.6164830" lon="-0.8797870">
        <ele>247.5</ele>
        <time>2020-12-31T15:20:10Z</time>
      </trkpt>
      <trkpt lat="41.6165130" lon="-0.8797060">
        <ele>247.4</ele>
        <time>2020-12-31T15:20:11Z</time>
      </trkpt>
      <trkpt lat="41.6165740" lon="-0.8795440">
        <ele>247.1</ele>
        <time>2020-12-31T15:20:13Z</time>
      </trkpt>
      <trkpt lat="41.6166320" lon="-0.8793820">
        <ele>246.8</ele>
        <time>2020-12-31T15:20:15Z</time>
      </trkpt>
      <trkpt lat="41.6166930" lon="-0.8792240">
        <ele>246.5</ele>
        <time>2020-12-31T15:20:17Z</time>
      </trkpt>
      <trkpt lat="41.6167630" lon="-0.8790700">
        <ele>246.3</ele>
        <time>2020-12-31T15:20:19Z</time>
      </trkpt>
      <trkpt lat="41.6168430" lon="-0.8789240">
        <ele>246.0</ele>
        <time>2020-12-31T15:20:21Z</time>
      </trkpt>
      <trkpt lat="41.6168840" lon="-0.8788530">
        <ele>245.8</ele>
        <time>2020-12-31T15:20:22Z</time>
      </trkpt>
      <trkpt lat="41.6169210" lon="-0.8787800">
        <ele>245.6</ele>
        <time>2020-12-31T15:20:23Z</time>
      </trkpt>
      <trkpt lat="41.6169570" lon="-0.8786970">
        <ele>245.5</ele>
        <time>2020-12-31T15:20:24Z</time>
      </trkpt>
      <trkpt lat="41.6170100" lon="-0.8785100">
        <ele>245.2</ele>
        <time>2020-12-31T15:20:26Z</time>
      </trkpt>
      <trkpt lat="41.6170490" lon="-0.8783320">
        <ele>245.1</ele>
        <time>2020-12-31T15:20:28Z</time>
      </trkpt>
      <trkpt lat="41.6170860" lon="-0.8781650">
        <ele>245.0</ele>
        <time>2020-12-31T15:20:30Z</time>
      </trkpt>
      <trkpt lat="41.6171240" lon="-0.8779940">
        <ele>244.9</ele>
        <time>2020-12-31T15:20:32Z</time>
      </trkpt>
      <trkpt lat="41.6171610" lon="-0.8778280">
        <ele>244.7</ele>
        <time>2020-12-31T15:20:34Z</time>
      </trkpt>
      <trkpt lat="41.6172020" lon="-0.8776790">
        <ele>244.6</ele>
        <time>2020-12-31T15:20:36Z</time>
      </trkpt>
      <trkpt lat="41.6172360" lon="-0.8776110">
        <ele>244.5</ele>
        <time>2020-12-31T15:20:37Z</time>
      </trkpt>
      <trkpt lat="41.6173190" lon="-0.8774890">
        <ele>244.2</ele>
        <time>2020-12-31T15:20:39Z</time>
      </trkpt>
      <trkpt lat="41.6173980" lon="-0.8773540">
        <ele>243.6</ele>
        <time>2020-12-31T15:20:41Z</time>
      </trkpt>
      <trkpt lat="41.6174400" lon="-0.8772780">
        <ele>243.3</ele>
        <time>2020-12-31T15:20:42Z</time>
      </trkpt>
      <trkpt lat="41.6175280" lon="-0.8771220">
        <ele>242.7</ele>
        <time>2020-12-31T15:20:44Z</time>
      </trkpt>
      <trkpt lat="41.6176070" lon="-0.8769600">
        <ele>242.2</ele>
        <time>2020-12-31T15:20:46Z</time>
      </trkpt>
      <trkpt lat="41.6176420" lon="-0.8768870">
        <ele>242.0</ele>
        <time>2020-12-31T15:20:47Z</time>
      </trkpt>
      <trkpt lat="41.6176920" lon="-0.8767580">
        <ele>241.6</ele>
        <time>2020-12-31T15:20:49Z</time>
      </trkpt>
      <trkpt lat="41.6177100" lon="-0.8766970">
        <ele>241.4</ele>
        <time>2020-12-31T15:20:50Z</time>
      </trkpt>
      <trkpt lat="41.6176860" lon="-0.8765750">
        <ele>241.2</ele>
        <time>2020-12-31T15:20:52Z</time>
      </trkpt>
      <trkpt lat="41.6176490" lon="-0.8765260">
        <ele>241.1</ele>
        <time>2020-12-31T15:20:53Z</time>
      </trkpt>
      <trkpt lat="41.6175950" lon="-0.8764010">
        <ele>240.9</ele>
        <time>2020-12-31T15:20:55Z</time>
      </trkpt>
      <trkpt lat="41.6175870" lon="-0.8763260">
        <ele>240.7</ele>
        <time>2020-12-31T15:20:56Z</time>
      </trkpt>
      <trkpt lat="41.6176230" lon="-0.8761720">
        <ele>240.4</ele>
        <time>2020-12-31T15:20:58Z</time>
      </trkpt>
      <trkpt lat="41.6177080" lon="-0.8760360">
        <ele>239.9</ele>
        <time>2020-12-31T15:21:00Z</time>
      </trkpt>
      <trkpt lat="41.6177940" lon="-0.8759140">
        <ele>239.8</ele>
        <time>2020-12-31T15:21:02Z</time>
      </trkpt>
      <trkpt lat="41.6178200" lon="-0.8757510">
        <ele>239.8</ele>
        <time>2020-12-31T15:21:04Z</time>
      </trkpt>
      <trkpt lat="41.6178320" lon="-0.8756670">
        <ele>239.7</ele>
        <time>2020-12-31T15:21:05Z</time>
      </trkpt>
      <trkpt lat="41.6178430" lon="-0.8755830">
        <ele>239.7</ele>
        <time>2020-12-31T15:21:06Z</time>
      </trkpt>
      <trkpt lat="41.6178550" lon="-0.8754970">
        <ele>239.7</ele>
        <time>2020-12-31T15:21:07Z</time>
      </trkpt>
      <trkpt lat="41.6178770" lon="-0.8753300">
        <ele>239.7</ele>
        <time>2020-12-31T15:21:09Z</time>
      </trkpt>
      <trkpt lat="41.6178910" lon="-0.8752470">
        <ele>239.8</ele>
        <time>2020-12-31T15:21:10Z</time>
      </trkpt>
      <trkpt lat="41.6179070" lon="-0.8750830">
        <ele>239.9</ele>
        <time>2020-12-31T15:21:12Z</time>
      </trkpt>
      <trkpt lat="41.6179330" lon="-0.8749220">
        <ele>240.0</ele>
        <time>2020-12-31T15:21:14Z</time>
      </trkpt>
      <trkpt lat="41.6179530" lon="-0.8747580">
        <ele>240.1</ele>
        <time>2020-12-31T15:21:16Z</time>
      </trkpt>
      <trkpt lat="41.6179750" lon="-0.8745960">
        <ele>240.0</ele>
        <time>2020-12-31T15:21:18Z</time>
      </trkpt>
      <trkpt lat="41.6179870" lon="-0.8745150">
        <ele>240.0</ele>
        <time>2020-12-31T15:21:19Z</time>
      </trkpt>
      <trkpt lat="41.6179970" lon="-0.8744310">
        <ele>240.1</ele>
        <time>2020-12-31T15:21:20Z</time>
      </trkpt>
      <trkpt lat="41.6180090" lon="-0.8743480">
        <ele>240.1</ele>
        <time>2020-12-31T15:21:21Z</time>
      </trkpt>
      <trkpt lat="41.6180190" lon="-0.8742650">
        <ele>240.1</ele>
        <time>2020-12-31T15:21:22Z</time>
      </trkpt>
      <trkpt lat="41.6180370" lon="-0.8741070">
        <ele>240.2</ele>
        <time>2020-12-31T15:21:24Z</time>
      </trkpt>
      <trkpt lat="41.6180490" lon="-0.8740300">
        <ele>240.2</ele>
        <time>2020-12-31T15:21:25Z</time>
      </trkpt>
      <trkpt lat="41.6180740" lon="-0.8738800">
        <ele>240.3</ele>
        <time>2020-12-31T15:21:27Z</time>
      </trkpt>
      <trkpt lat="41.6180840" lon="-0.8738030">
        <ele>240.4</ele>
        <time>2020-12-31T15:21:28Z</time>
      </trkpt>
      <trkpt lat="41.6180930" lon="-0.8737250">
        <ele>240.4</ele>
        <time>2020-12-31T15:21:29Z</time>
      </trkpt>
      <trkpt lat="41.6181110" lon="-0.8735800">
        <ele>240.4</ele>
        <time>2020-12-31T15:21:31Z</time>
      </trkpt>
      <trkpt lat="41.6181270" lon="-0.8734340">
        <ele>240.5</ele>
        <time>2020-12-31T15:21:33Z</time>
      </trkpt>
      <trkpt lat="41.6181380" lon="-0.8733610">
        <ele>240.5</ele>
        <time>2020-12-31T15:21:34Z</time>
      </trkpt>
      <trkpt lat="41.6181480" lon="-0.8732870">
        <ele>240.5</ele>
        <time>2020-12-31T15:21:35Z</time>
      </trkpt>
      <trkpt lat="41.6181650" lon="-0.8731340">
        <ele>240.5</ele>
        <time>2020-12-31T15:21:37Z</time>
      </trkpt>
      <trkpt lat="41.6181690" lon="-0.8730550">
        <ele>240.6</ele>
        <time>2020-12-31T15:21:38Z</time>
      </trkpt>
      <trkpt lat="41.6181830" lon="-0.8728990">
        <ele>240.6</ele>
        <time>2020-12-31T15:21:40Z</time>
      </trkpt>
      <trkpt lat="41.6181910" lon="-0.8728190">
        <ele>240.7</ele>
        <time>2020-12-31T15:21:41Z</time>
      </trkpt>
      <trkpt lat="41.6181980" lon="-0.8727420">
        <ele>240.7</ele>
        <time>2020-12-31T15:21:42Z</time>
      </trkpt>
      <trkpt lat="41.6182070" lon="-0.8726680">
        <ele>240.7</ele>
        <time>2020-12-31T15:21:43Z</time>
      </trkpt>
      <trkpt lat="41.6182120" lon="-0.8725940">
        <ele>240.8</ele>
        <time>2020-12-31T15:21:44Z</time>
      </trkpt>
      <trkpt lat="41.6181950" lon="-0.8724470">
        <ele>240.8</ele>
        <time>2020-12-31T15:21:46Z</time>
      </trkpt>
      <trkpt lat="41.6181370" lon="-0.8723300">
        <ele>240.8</ele>
        <time>2020-12-31T15:21:48Z</time>
      </trkpt>
      <trkpt lat="41.6181170" lon="-0.8722650">
        <ele>240.9</ele>
        <time>2020-12-31T15:21:49Z</time>
      </trkpt>
      <trkpt lat="41.6181130" lon="-0.8721320">
        <ele>240.9</ele>
        <time>2020-12-31T15:21:51Z</time>
      </trkpt>
      <trkpt lat="41.6181360" lon="-0.8720080">
        <ele>240.9</ele>
        <time>2020-12-31T15:21:53Z</time>
      </trkpt>
      <trkpt lat="41.6181520" lon="-0.8719490">
        <ele>240.9</ele>
        <time>2020-12-31T15:21:54Z</time>
      </trkpt>
      <trkpt lat="41.6181660" lon="-0.8718470">
        <ele>240.9</ele>
        <time>2020-12-31T15:21:56Z</time>
      </trkpt>
      <trkpt lat="41.6181760" lon="-0.8717830">
        <ele>240.8</ele>
        <time>2020-12-31T15:21:57Z</time>
      </trkpt>
      <trkpt lat="41.6181840" lon="-0.8717060">
        <ele>240.9</ele>
        <time>2020-12-31T15:21:59Z</time>
      </trkpt>
      <trkpt lat="41.6181670" lon="-0.8716690">
        <ele>241.0</ele>
        <time>2020-12-31T15:22:00Z</time>
      </trkpt>
      <trkpt lat="41.6181110" lon="-0.8715520">
        <ele>241.0</ele>
        <time>2020-12-31T15:22:02Z</time>
      </trkpt>
      <trkpt lat="41.6180830" lon="-0.8714990">
        <ele>241.1</ele>
        <time>2020-12-31T15:22:03Z</time>
      </trkpt>
      <trkpt lat="41.6180670" lon="-0.8714740">
        <ele>241.1</ele>
        <time>2020-12-31T15:22:04Z</time>
      </trkpt>
      <trkpt lat="41.6180050" lon="-0.8713740">
        <ele>241.1</ele>
        <time>2020-12-31T15:22:06Z</time>
      </trkpt>
      <trkpt lat="41.6179530" lon="-0.8712540">
        <ele>241.2</ele>
        <time>2020-12-31T15:22:08Z</time>
      </trkpt>
      <trkpt lat="41.6178900" lon="-0.8711390">
        <ele>241.2</ele>
        <time>2020-12-31T15:22:10Z</time>
      </trkpt>
      <trkpt lat="41.6178320" lon="-0.8710200">
        <ele>241.3</ele>
        <time>2020-12-31T15:22:12Z</time>
      </trkpt>
      <trkpt lat="41.6177710" lon="-0.8709010">
        <ele>241.3</ele>
        <time>2020-12-31T15:22:14Z</time>
      </trkpt>
      <trkpt lat="41.6177410" lon="-0.8708390">
        <ele>241.3</ele>
        <time>2020-12-31T15:22:15Z</time>
      </trkpt>
      <trkpt lat="41.6177100" lon="-0.8707780">
        <ele>241.3</ele>
        <time>2020-12-31T15:22:16Z</time>
      </trkpt>
      <trkpt lat="41.6176500" lon="-0.8706600">
        <ele>241.3</ele>
        <time>2020-12-31T15:22:18Z</time>
      </trkpt>
      <trkpt lat="41.6175890" lon="-0.8705370">
        <ele>241.4</ele>
        <time>2020-12-31T15:22:20Z</time>
      </trkpt>
      <trkpt lat="41.6175240" lon="-0.8704220">
        <ele>241.4</ele>
        <time>2020-12-31T15:22:22Z</time>
      </trkpt>
      <trkpt lat="41.6174660" lon="-0.8703010">
        <ele>241.5</ele>
        <time>2020-12-31T15:22:24Z</time>
      </trkpt>
      <trkpt lat="41.6174400" lon="-0.8702410">
        <ele>241.6</ele>
        <time>2020-12-31T15:22:25Z</time>
      </trkpt>
      <trkpt lat="41.6173830" lon="-0.8701280">
        <ele>241.7</ele>
        <time>2020-12-31T15:22:27Z</time>
      </trkpt>
      <trkpt lat="41.6173300" lon="-0.8700090">
        <ele>241.7</ele>
        <time>2020-12-31T15:22:29Z</time>
      </trkpt>
      <trkpt lat="41.6172700" lon="-0.8698980">
        <ele>241.8</ele>
        <time>2020-12-31T15:22:31Z</time>
      </trkpt>
      <trkpt lat="41.6172410" lon="-0.8698450">
        <ele>241.8</ele>
        <time>2020-12-31T15:22:32Z</time>
      </trkpt>
      <trkpt lat="41.6171800" lon="-0.8697420">
        <ele>241.8</ele>
        <time>2020-12-31T15:22:34Z</time>
      </trkpt>
      <trkpt lat="41.6171490" lon="-0.8696880">
        <ele>241.8</ele>
        <time>2020-12-31T15:22:35Z</time>
      </trkpt>
      <trkpt lat="41.6170870" lon="-0.8695840">
        <ele>241.9</ele>
        <time>2020-12-31T15:22:37Z</time>
      </trkpt>
      <trkpt lat="41.6170290" lon="-0.8694870">
        <ele>241.9</ele>
        <time>2020-12-31T15:22:39Z</time>
      </trkpt>
      <trkpt lat="41.6169740" lon="-0.8693910">
        <ele>242.0</ele>
        <time>2020-12-31T15:22:41Z</time>
      </trkpt>
      <trkpt lat="41.6169450" lon="-0.8693450">
        <ele>242.0</ele>
        <time>2020-12-31T15:22:42Z</time>
      </trkpt>
      <trkpt lat="41.6168930" lon="-0.8692740">
        <ele>242.0</ele>
        <time>2020-12-31T15:22:44Z</time>
      </trkpt>
      <trkpt lat="41.6168180" lon="-0.8692400">
        <ele>242.1</ele>
        <time>2020-12-31T15:22:46Z</time>
      </trkpt>
      <trkpt lat="41.6167560" lon="-0.8692400">
        <ele>242.2</ele>
        <time>2020-12-31T15:22:48Z</time>
      </trkpt>
      <trkpt lat="41.6166970" lon="-0.8692970">
        <ele>242.2</ele>
        <time>2020-12-31T15:22:49Z</time>
      </trkpt>
      <trkpt lat="41.6166730" lon="-0.8693580">
        <ele>242.3</ele>
        <time>2020-12-31T15:22:50Z</time>
      </trkpt>
      <trkpt lat="41.6166420" lon="-0.8694860">
        <ele>242.5</ele>
        <time>2020-12-31T15:22:52Z</time>
      </trkpt>
      <trkpt lat="41.6166240" lon="-0.8695440">
        <ele>242.5</ele>
        <time>2020-12-31T15:22:53Z</time>
      </trkpt>
      <trkpt lat="41.6166300" lon="-0.8695710">
        <ele>242.5</ele>
        <time>2020-12-31T15:22:54Z</time>
      </trkpt>
      <trkpt lat="41.6166080" lon="-0.8696150">
        <ele>242.6</ele>
        <time>2020-12-31T15:22:56Z</time>
      </trkpt>
      <trkpt lat="41.6165520" lon="-0.8696600">
        <ele>242.7</ele>
        <time>2020-12-31T15:22:57Z</time>
      </trkpt>
      <trkpt lat="41.6164840" lon="-0.8697200">
        <ele>242.8</ele>
        <time>2020-12-31T15:22:58Z</time>
      </trkpt>
      <trkpt lat="41.6164350" lon="-0.8697540">
        <ele>242.9</ele>
        <time>2020-12-31T15:22:59Z</time>
      </trkpt>
      <trkpt lat="41.6163780" lon="-0.8697990">
        <ele>243.0</ele>
        <time>2020-12-31T15:23:01Z</time>
      </trkpt>
      <trkpt lat="41.6163220" lon="-0.8698530">
        <ele>243.1</ele>
        <time>2020-12-31T15:23:02Z</time>
      </trkpt>
      <trkpt lat="41.6162810" lon="-0.8698950">
        <ele>243.2</ele>
        <time>2020-12-31T15:23:04Z</time>
      </trkpt>
      <trkpt lat="41.6162310" lon="-0.8699330">
        <ele>243.3</ele>
        <time>2020-12-31T15:23:05Z</time>
      </trkpt>
      <trkpt lat="41.6161650" lon="-0.8699980">
        <ele>243.5</ele>
        <time>2020-12-31T15:23:07Z</time>
      </trkpt>
      <trkpt lat="41.6161340" lon="-0.8700490">
        <ele>243.6</ele>
        <time>2020-12-31T15:23:08Z</time>
      </trkpt>
      <trkpt lat="41.6161120" lon="-0.8700940">
        <ele>243.6</ele>
        <time>2020-12-31T15:23:09Z</time>
      </trkpt>
      <trkpt lat="41.6160500" lon="-0.8701370">
        <ele>243.7</ele>
        <time>2020-12-31T15:23:11Z</time>
      </trkpt>
      <trkpt lat="41.6159940" lon="-0.8701530">
        <ele>243.9</ele>
        <time>2020-12-31T15:23:12Z</time>
      </trkpt>
      <trkpt lat="41.6159500" lon="-0.8701730">
        <ele>243.9</ele>
        <time>2020-12-31T15:23:13Z</time>
      </trkpt>
      <trkpt lat="41.6158900" lon="-0.8702150">
        <ele>244.1</ele>
        <time>2020-12-31T15:23:15Z</time>
      </trkpt>
      <trkpt lat="41.6158580" lon="-0.8702300">
        <ele>244.1</ele>
        <time>2020-12-31T15:23:16Z</time>
      </trkpt>
      <trkpt lat="41.6158640" lon="-0.8702340">
        <ele>244.1</ele>
        <time>2020-12-31T15:23:18Z</time>
      </trkpt>
      <trkpt lat="41.6158840" lon="-0.8702230">
        <ele>244.2</ele>
        <time>2020-12-31T15:23:19Z</time>
      </trkpt>
      <trkpt lat="41.6159040" lon="-0.8702110">
        <ele>244.2</ele>
        <time>2020-12-31T15:23:20Z</time>
      </trkpt>
      <trkpt lat="41.6159060" lon="-0.8702090">
        <ele>244.2</ele>
        <time>2020-12-31T15:23:21Z</time>
      </trkpt>
      <trkpt lat="41.6159100" lon="-0.8702060">
        <ele>244.3</ele>
        <time>2020-12-31T15:23:23Z</time>
      </trkpt>
      <trkpt lat="41.6159150" lon="-0.8702090">
        <ele>244.3</ele>
        <time>2020-12-31T15:23:25Z</time>
      </trkpt>
      <trkpt lat="41.6159160" lon="-0.8702110">
        <ele>244.3</ele>
        <time>2020-12-31T15:23:27Z</time>
      </trkpt>
    </trkseg>
  </trk>
</gpx>
